<gpx xmlns="http://www.topografix.com/GPX/1/1" xmlns:xsi="http://www.w3.org/2001/XMLSchema-instance" version="1.1" xsi:schemaLocation="http://www.topografix.com/GPX/1/1 http://www.topografix.com/GPX/1/1/gpx.xsd" creator="MotionXGPSFull 24.2 Build 5063R64">
<trk>
<name>Bruce Bypass to Glasshouse Cafe</name>
<desc>10 Jan 2018  8:12 am</desc>
<trkseg>
<trkpt lat="-27.3583682" lon="152.9699761">
<ele>34.001</ele>
<time>2018-01-09T22:12:41.219Z</time>
</trkpt>
<trkpt lat="-27.3583682" lon="152.9699761">
<ele>34.003</ele>
<time>2018-01-09T22:26:25.509Z</time>
</trkpt>
<trkpt lat="-27.3581445" lon="152.9700184">
<ele>34.005</ele>
<time>2018-01-09T22:29:17.569Z</time>
</trkpt>
<trkpt lat="-27.3581467" lon="152.9700077">
<ele>34.005</ele>
<time>2018-01-09T22:29:23.996Z</time>
</trkpt>
<trkpt lat="-27.3581467" lon="152.9700077">
<ele>34.006</ele>
<time>2018-01-09T22:29:26.996Z</time>
</trkpt>
<trkpt lat="-27.3581467" lon="152.9700077">
<ele>34.000</ele>
<time>2018-01-09T22:29:27.096Z</time>
</trkpt>
<trkpt lat="-27.3582241" lon="152.9698329">
<ele>33.986</ele>
<time>2018-01-09T22:29:34.381Z</time>
</trkpt>
<trkpt lat="-27.3582717" lon="152.9697104">
<ele>33.977</ele>
<time>2018-01-09T22:29:37.838Z</time>
</trkpt>
<trkpt lat="-27.3582962" lon="152.9696116">
<ele>33.984</ele>
<time>2018-01-09T22:29:40.297Z</time>
</trkpt>
<trkpt lat="-27.3582177" lon="152.9695017">
<ele>34.019</ele>
<time>2018-01-09T22:29:42.781Z</time>
</trkpt>
<trkpt lat="-27.3578236" lon="152.9690321">
<ele>34.171</ele>
<time>2018-01-09T22:29:53.330Z</time>
</trkpt>
<trkpt lat="-27.3577390" lon="152.9689837">
<ele>34.376</ele>
<time>2018-01-09T22:29:55.695Z</time>
</trkpt>
<trkpt lat="-27.3576460" lon="152.9690221">
<ele>34.778</ele>
<time>2018-01-09T22:29:57.923Z</time>
</trkpt>
<trkpt lat="-27.3576118" lon="152.9691538">
<ele>35.281</ele>
<time>2018-01-09T22:30:00.571Z</time>
</trkpt>
<trkpt lat="-27.3575768" lon="152.9692558">
<ele>35.706</ele>
<time>2018-01-09T22:30:02.757Z</time>
</trkpt>
<trkpt lat="-27.3575317" lon="152.9693439">
<ele>35.912</ele>
<time>2018-01-09T22:30:04.996Z</time>
</trkpt>
<trkpt lat="-27.3575317" lon="152.9693439">
<ele>35.887</ele>
<time>2018-01-09T22:30:11.996Z</time>
</trkpt>
<trkpt lat="-27.3575317" lon="152.9693439">
<ele>35.799</ele>
<time>2018-01-09T22:31:39.704Z</time>
</trkpt>
<trkpt lat="-27.3573078" lon="152.9695136">
<ele>35.778</ele>
<time>2018-01-09T22:31:45.477Z</time>
</trkpt>
<trkpt lat="-27.3568875" lon="152.9694630">
<ele>35.736</ele>
<time>2018-01-09T22:31:49.405Z</time>
</trkpt>
<trkpt lat="-27.3563766" lon="152.9694874">
<ele>35.576</ele>
<time>2018-01-09T22:31:53.193Z</time>
</trkpt>
<trkpt lat="-27.3558208" lon="152.9693884">
<ele>35.579</ele>
<time>2018-01-09T22:31:56.724Z</time>
</trkpt>
<trkpt lat="-27.3552902" lon="152.9692749">
<ele>36.165</ele>
<time>2018-01-09T22:31:59.809Z</time>
</trkpt>
<trkpt lat="-27.3548035" lon="152.9690148">
<ele>37.571</ele>
<time>2018-01-09T22:32:02.794Z</time>
</trkpt>
<trkpt lat="-27.3543754" lon="152.9686622">
<ele>39.885</ele>
<time>2018-01-09T22:32:05.735Z</time>
</trkpt>
<trkpt lat="-27.3539655" lon="152.9682390">
<ele>42.566</ele>
<time>2018-01-09T22:32:08.862Z</time>
</trkpt>
<trkpt lat="-27.3535804" lon="152.9678336">
<ele>44.539</ele>
<time>2018-01-09T22:32:11.914Z</time>
</trkpt>
<trkpt lat="-27.3532356" lon="152.9674220">
<ele>45.138</ele>
<time>2018-01-09T22:32:14.843Z</time>
</trkpt>
<trkpt lat="-27.3528530" lon="152.9670416">
<ele>44.413</ele>
<time>2018-01-09T22:32:17.771Z</time>
</trkpt>
<trkpt lat="-27.3524167" lon="152.9667679">
<ele>43.071</ele>
<time>2018-01-09T22:32:20.609Z</time>
</trkpt>
<trkpt lat="-27.3519391" lon="152.9665533">
<ele>42.262</ele>
<time>2018-01-09T22:32:23.513Z</time>
</trkpt>
<trkpt lat="-27.3516065" lon="152.9664619">
<ele>42.591</ele>
<time>2018-01-09T22:32:25.435Z</time>
</trkpt>
<trkpt lat="-27.3512741" lon="152.9664194">
<ele>43.564</ele>
<time>2018-01-09T22:32:27.316Z</time>
</trkpt>
<trkpt lat="-27.3509275" lon="152.9664436">
<ele>44.292</ele>
<time>2018-01-09T22:32:29.277Z</time>
</trkpt>
<trkpt lat="-27.3505927" lon="152.9664532">
<ele>44.312</ele>
<time>2018-01-09T22:32:31.198Z</time>
</trkpt>
<trkpt lat="-27.3502340" lon="152.9665010">
<ele>43.642</ele>
<time>2018-01-09T22:32:33.292Z</time>
</trkpt>
<trkpt lat="-27.3497575" lon="152.9664725">
<ele>42.572</ele>
<time>2018-01-09T22:32:36.096Z</time>
</trkpt>
<trkpt lat="-27.3492791" lon="152.9663024">
<ele>41.300</ele>
<time>2018-01-09T22:32:39.026Z</time>
</trkpt>
<trkpt lat="-27.3487828" lon="152.9661749">
<ele>39.618</ele>
<time>2018-01-09T22:32:42.013Z</time>
</trkpt>
<trkpt lat="-27.3483096" lon="152.9660214">
<ele>37.259</ele>
<time>2018-01-09T22:32:44.952Z</time>
</trkpt>
<trkpt lat="-27.3478530" lon="152.9658591">
<ele>34.472</ele>
<time>2018-01-09T22:32:47.784Z</time>
</trkpt>
<trkpt lat="-27.3473984" lon="152.9655991">
<ele>31.954</ele>
<time>2018-01-09T22:32:50.782Z</time>
</trkpt>
<trkpt lat="-27.3470109" lon="152.9652320">
<ele>30.177</ele>
<time>2018-01-09T22:32:53.832Z</time>
</trkpt>
<trkpt lat="-27.3466413" lon="152.9648849">
<ele>29.003</ele>
<time>2018-01-09T22:32:56.861Z</time>
</trkpt>
<trkpt lat="-27.3463448" lon="152.9645086">
<ele>28.076</ele>
<time>2018-01-09T22:32:59.862Z</time>
</trkpt>
<trkpt lat="-27.3461062" lon="152.9641349">
<ele>27.346</ele>
<time>2018-01-09T22:33:02.907Z</time>
</trkpt>
<trkpt lat="-27.3458961" lon="152.9638125">
<ele>27.012</ele>
<time>2018-01-09T22:33:05.923Z</time>
</trkpt>
<trkpt lat="-27.3457299" lon="152.9635034">
<ele>27.172</ele>
<time>2018-01-09T22:33:08.727Z</time>
</trkpt>
<trkpt lat="-27.3455598" lon="152.9632029">
<ele>27.663</ele>
<time>2018-01-09T22:33:11.323Z</time>
</trkpt>
<trkpt lat="-27.3453335" lon="152.9628319">
<ele>28.334</ele>
<time>2018-01-09T22:33:14.447Z</time>
</trkpt>
<trkpt lat="-27.3450825" lon="152.9624922">
<ele>29.052</ele>
<time>2018-01-09T22:33:17.361Z</time>
</trkpt>
<trkpt lat="-27.3448037" lon="152.9621403">
<ele>29.517</ele>
<time>2018-01-09T22:33:20.243Z</time>
</trkpt>
<trkpt lat="-27.3444601" lon="152.9618018">
<ele>29.398</ele>
<time>2018-01-09T22:33:23.183Z</time>
</trkpt>
<trkpt lat="-27.3440620" lon="152.9615210">
<ele>28.681</ele>
<time>2018-01-09T22:33:26.099Z</time>
</trkpt>
<trkpt lat="-27.3435842" lon="152.9613382">
<ele>27.656</ele>
<time>2018-01-09T22:33:29.089Z</time>
</trkpt>
<trkpt lat="-27.3430437" lon="152.9612431">
<ele>26.568</ele>
<time>2018-01-09T22:33:32.199Z</time>
</trkpt>
<trkpt lat="-27.3425435" lon="152.9611925">
<ele>25.131</ele>
<time>2018-01-09T22:33:35.079Z</time>
</trkpt>
<trkpt lat="-27.3420551" lon="152.9611662">
<ele>23.001</ele>
<time>2018-01-09T22:33:37.953Z</time>
</trkpt>
<trkpt lat="-27.3415508" lon="152.9611606">
<ele>20.591</ele>
<time>2018-01-09T22:33:40.996Z</time>
</trkpt>
<trkpt lat="-27.3410711" lon="152.9611429">
<ele>18.517</ele>
<time>2018-01-09T22:33:43.973Z</time>
</trkpt>
<trkpt lat="-27.3406213" lon="152.9610856">
<ele>16.516</ele>
<time>2018-01-09T22:33:46.820Z</time>
</trkpt>
<trkpt lat="-27.3401737" lon="152.9610331">
<ele>14.395</ele>
<time>2018-01-09T22:33:49.717Z</time>
</trkpt>
<trkpt lat="-27.3397626" lon="152.9609378">
<ele>12.820</ele>
<time>2018-01-09T22:33:52.635Z</time>
</trkpt>
<trkpt lat="-27.3394427" lon="152.9607764">
<ele>14.290</ele>
<time>2018-01-09T22:33:55.345Z</time>
</trkpt>
<trkpt lat="-27.3391281" lon="152.9606261">
<ele>20.085</ele>
<time>2018-01-09T22:33:58.265Z</time>
</trkpt>
<trkpt lat="-27.3388593" lon="152.9605173">
<ele>27.044</ele>
<time>2018-01-09T22:34:01.082Z</time>
</trkpt>
<trkpt lat="-27.3386459" lon="152.9604835">
<ele>31.616</ele>
<time>2018-01-09T22:34:03.794Z</time>
</trkpt>
<trkpt lat="-27.3385111" lon="152.9604994">
<ele>33.754</ele>
<time>2018-01-09T22:34:05.998Z</time>
</trkpt>
<trkpt lat="-27.3385111" lon="152.9604994">
<ele>34.449</ele>
<time>2018-01-09T22:34:10.998Z</time>
</trkpt>
<trkpt lat="-27.3385111" lon="152.9604994">
<ele>34.509</ele>
<time>2018-01-09T22:34:44.708Z</time>
</trkpt>
<trkpt lat="-27.3383560" lon="152.9604917">
<ele>34.432</ele>
<time>2018-01-09T22:34:49.018Z</time>
</trkpt>
<trkpt lat="-27.3380314" lon="152.9605176">
<ele>34.405</ele>
<time>2018-01-09T22:34:52.638Z</time>
</trkpt>
<trkpt lat="-27.3376595" lon="152.9605383">
<ele>34.419</ele>
<time>2018-01-09T22:34:55.790Z</time>
</trkpt>
<trkpt lat="-27.3372617" lon="152.9605750">
<ele>34.423</ele>
<time>2018-01-09T22:34:59.009Z</time>
</trkpt>
<trkpt lat="-27.3369197" lon="152.9605943">
<ele>34.350</ele>
<time>2018-01-09T22:35:02.022Z</time>
</trkpt>
<trkpt lat="-27.3366100" lon="152.9606140">
<ele>34.197</ele>
<time>2018-01-09T22:35:05.217Z</time>
</trkpt>
<trkpt lat="-27.3363821" lon="152.9606641">
<ele>34.029</ele>
<time>2018-01-09T22:35:07.791Z</time>
</trkpt>
<trkpt lat="-27.3362367" lon="152.9604755">
<ele>33.895</ele>
<time>2018-01-09T22:35:10.121Z</time>
</trkpt>
<trkpt lat="-27.3361711" lon="152.9601155">
<ele>33.808</ele>
<time>2018-01-09T22:35:13.188Z</time>
</trkpt>
<trkpt lat="-27.3361274" lon="152.9596939">
<ele>33.773</ele>
<time>2018-01-09T22:35:16.307Z</time>
</trkpt>
<trkpt lat="-27.3359810" lon="152.9592575">
<ele>33.779</ele>
<time>2018-01-09T22:35:19.366Z</time>
</trkpt>
<trkpt lat="-27.3357161" lon="152.9588528">
<ele>33.645</ele>
<time>2018-01-09T22:35:22.453Z</time>
</trkpt>
<trkpt lat="-27.3354280" lon="152.9584863">
<ele>33.107</ele>
<time>2018-01-09T22:35:25.407Z</time>
</trkpt>
<trkpt lat="-27.3351096" lon="152.9581575">
<ele>32.155</ele>
<time>2018-01-09T22:35:28.359Z</time>
</trkpt>
<trkpt lat="-27.3348268" lon="152.9578252">
<ele>30.999</ele>
<time>2018-01-09T22:35:31.196Z</time>
</trkpt>
<trkpt lat="-27.3344993" lon="152.9574901">
<ele>29.783</ele>
<time>2018-01-09T22:35:34.334Z</time>
</trkpt>
<trkpt lat="-27.3342138" lon="152.9571679">
<ele>28.730</ele>
<time>2018-01-09T22:35:37.313Z</time>
</trkpt>
<trkpt lat="-27.3339244" lon="152.9568876">
<ele>28.124</ele>
<time>2018-01-09T22:35:40.243Z</time>
</trkpt>
<trkpt lat="-27.3336820" lon="152.9565599">
<ele>27.974</ele>
<time>2018-01-09T22:35:43.094Z</time>
</trkpt>
<trkpt lat="-27.3334617" lon="152.9561268">
<ele>28.039</ele>
<time>2018-01-09T22:35:46.132Z</time>
</trkpt>
<trkpt lat="-27.3331892" lon="152.9557119">
<ele>28.138</ele>
<time>2018-01-09T22:35:49.081Z</time>
</trkpt>
<trkpt lat="-27.3329510" lon="152.9553031">
<ele>28.640</ele>
<time>2018-01-09T22:35:51.933Z</time>
</trkpt>
<trkpt lat="-27.3327046" lon="152.9549414">
<ele>29.797</ele>
<time>2018-01-09T22:35:54.868Z</time>
</trkpt>
<trkpt lat="-27.3325475" lon="152.9546605">
<ele>31.002</ele>
<time>2018-01-09T22:35:57.343Z</time>
</trkpt>
<trkpt lat="-27.3323600" lon="152.9544030">
<ele>31.870</ele>
<time>2018-01-09T22:36:00.127Z</time>
</trkpt>
<trkpt lat="-27.3320842" lon="152.9540507">
<ele>32.791</ele>
<time>2018-01-09T22:36:03.431Z</time>
</trkpt>
<trkpt lat="-27.3318018" lon="152.9536012">
<ele>33.976</ele>
<time>2018-01-09T22:36:06.739Z</time>
</trkpt>
<trkpt lat="-27.3315219" lon="152.9531945">
<ele>35.225</ele>
<time>2018-01-09T22:36:09.759Z</time>
</trkpt>
<trkpt lat="-27.3312381" lon="152.9527733">
<ele>36.208</ele>
<time>2018-01-09T22:36:12.834Z</time>
</trkpt>
<trkpt lat="-27.3310085" lon="152.9523289">
<ele>36.943</ele>
<time>2018-01-09T22:36:15.762Z</time>
</trkpt>
<trkpt lat="-27.3307323" lon="152.9518813">
<ele>38.046</ele>
<time>2018-01-09T22:36:18.761Z</time>
</trkpt>
<trkpt lat="-27.3305110" lon="152.9514242">
<ele>39.898</ele>
<time>2018-01-09T22:36:21.585Z</time>
</trkpt>
<trkpt lat="-27.3303308" lon="152.9509314">
<ele>41.967</ele>
<time>2018-01-09T22:36:24.552Z</time>
</trkpt>
<trkpt lat="-27.3301702" lon="152.9504342">
<ele>43.548</ele>
<time>2018-01-09T22:36:27.542Z</time>
</trkpt>
<trkpt lat="-27.3299978" lon="152.9499255">
<ele>44.761</ele>
<time>2018-01-09T22:36:30.594Z</time>
</trkpt>
<trkpt lat="-27.3298548" lon="152.9494442">
<ele>45.899</ele>
<time>2018-01-09T22:36:33.421Z</time>
</trkpt>
<trkpt lat="-27.3297170" lon="152.9489469">
<ele>46.794</ele>
<time>2018-01-09T22:36:36.305Z</time>
</trkpt>
<trkpt lat="-27.3295578" lon="152.9483925">
<ele>47.478</ele>
<time>2018-01-09T22:36:39.404Z</time>
</trkpt>
<trkpt lat="-27.3294039" lon="152.9478205">
<ele>48.481</ele>
<time>2018-01-09T22:36:42.392Z</time>
</trkpt>
<trkpt lat="-27.3293051" lon="152.9472679">
<ele>50.110</ele>
<time>2018-01-09T22:36:45.149Z</time>
</trkpt>
<trkpt lat="-27.3292104" lon="152.9466714">
<ele>51.899</ele>
<time>2018-01-09T22:36:48.097Z</time>
</trkpt>
<trkpt lat="-27.3292030" lon="152.9460819">
<ele>52.992</ele>
<time>2018-01-09T22:36:50.939Z</time>
</trkpt>
<trkpt lat="-27.3292426" lon="152.9455241">
<ele>53.170</ele>
<time>2018-01-09T22:36:53.701Z</time>
</trkpt>
<trkpt lat="-27.3293015" lon="152.9449166">
<ele>53.495</ele>
<time>2018-01-09T22:36:56.773Z</time>
</trkpt>
<trkpt lat="-27.3293226" lon="152.9443259">
<ele>54.755</ele>
<time>2018-01-09T22:36:59.721Z</time>
</trkpt>
<trkpt lat="-27.3293832" lon="152.9437020">
<ele>55.963</ele>
<time>2018-01-09T22:37:02.784Z</time>
</trkpt>
<trkpt lat="-27.3294324" lon="152.9431183">
<ele>55.653</ele>
<time>2018-01-09T22:37:05.622Z</time>
</trkpt>
<trkpt lat="-27.3295082" lon="152.9425415">
<ele>53.422</ele>
<time>2018-01-09T22:37:08.462Z</time>
</trkpt>
<trkpt lat="-27.3295773" lon="152.9419561">
<ele>49.747</ele>
<time>2018-01-09T22:37:11.342Z</time>
</trkpt>
<trkpt lat="-27.3295900" lon="152.9413233">
<ele>45.636</ele>
<time>2018-01-09T22:37:14.405Z</time>
</trkpt>
<trkpt lat="-27.3296247" lon="152.9407167">
<ele>42.311</ele>
<time>2018-01-09T22:37:17.318Z</time>
</trkpt>
<trkpt lat="-27.3296277" lon="152.9400959">
<ele>42.307</ele>
<time>2018-01-09T22:37:20.279Z</time>
</trkpt>
<trkpt lat="-27.3296637" lon="152.9395054">
<ele>46.644</ele>
<time>2018-01-09T22:37:23.100Z</time>
</trkpt>
<trkpt lat="-27.3297063" lon="152.9388971">
<ele>52.384</ele>
<time>2018-01-09T22:37:26.018Z</time>
</trkpt>
<trkpt lat="-27.3297547" lon="152.9382908">
<ele>56.506</ele>
<time>2018-01-09T22:37:28.968Z</time>
</trkpt>
<trkpt lat="-27.3297893" lon="152.9376776">
<ele>59.000</ele>
<time>2018-01-09T22:37:31.966Z</time>
</trkpt>
<trkpt lat="-27.3297475" lon="152.9371208">
<ele>61.457</ele>
<time>2018-01-09T22:37:34.703Z</time>
</trkpt>
<trkpt lat="-27.3294191" lon="152.9365986">
<ele>65.069</ele>
<time>2018-01-09T22:37:37.845Z</time>
</trkpt>
<trkpt lat="-27.3290125" lon="152.9361962">
<ele>70.361</ele>
<time>2018-01-09T22:37:40.836Z</time>
</trkpt>
<trkpt lat="-27.3286119" lon="152.9359050">
<ele>76.779</ele>
<time>2018-01-09T22:37:43.512Z</time>
</trkpt>
<trkpt lat="-27.3282071" lon="152.9355825">
<ele>81.938</ele>
<time>2018-01-09T22:37:46.370Z</time>
</trkpt>
<trkpt lat="-27.3278296" lon="152.9351743">
<ele>84.232</ele>
<time>2018-01-09T22:37:49.466Z</time>
</trkpt>
<trkpt lat="-27.3277488" lon="152.9346076">
<ele>84.668</ele>
<time>2018-01-09T22:37:52.527Z</time>
</trkpt>
<trkpt lat="-27.3278337" lon="152.9340542">
<ele>85.063</ele>
<time>2018-01-09T22:37:55.523Z</time>
</trkpt>
<trkpt lat="-27.3280560" lon="152.9335399">
<ele>86.784</ele>
<time>2018-01-09T22:37:58.514Z</time>
</trkpt>
<trkpt lat="-27.3283799" lon="152.9330071">
<ele>89.690</ele>
<time>2018-01-09T22:38:01.750Z</time>
</trkpt>
<trkpt lat="-27.3287070" lon="152.9324918">
<ele>92.451</ele>
<time>2018-01-09T22:38:04.826Z</time>
</trkpt>
<trkpt lat="-27.3290028" lon="152.9319529">
<ele>94.140</ele>
<time>2018-01-09T22:38:07.862Z</time>
</trkpt>
<trkpt lat="-27.3292903" lon="152.9313682">
<ele>95.027</ele>
<time>2018-01-09T22:38:11.033Z</time>
</trkpt>
<trkpt lat="-27.3295597" lon="152.9308311">
<ele>95.860</ele>
<time>2018-01-09T22:38:13.943Z</time>
</trkpt>
<trkpt lat="-27.3298910" lon="152.9303350">
<ele>97.482</ele>
<time>2018-01-09T22:38:16.870Z</time>
</trkpt>
<trkpt lat="-27.3303624" lon="152.9299884">
<ele>100.243</ele>
<time>2018-01-09T22:38:19.857Z</time>
</trkpt>
<trkpt lat="-27.3307948" lon="152.9295998">
<ele>103.085</ele>
<time>2018-01-09T22:38:22.787Z</time>
</trkpt>
<trkpt lat="-27.3310967" lon="152.9290894">
<ele>104.721</ele>
<time>2018-01-09T22:38:25.678Z</time>
</trkpt>
<trkpt lat="-27.3312687" lon="152.9284629">
<ele>105.117</ele>
<time>2018-01-09T22:38:28.762Z</time>
</trkpt>
<trkpt lat="-27.3313536" lon="152.9278256">
<ele>104.900</ele>
<time>2018-01-09T22:38:31.768Z</time>
</trkpt>
<trkpt lat="-27.3313740" lon="152.9272001">
<ele>104.599</ele>
<time>2018-01-09T22:38:34.692Z</time>
</trkpt>
<trkpt lat="-27.3313382" lon="152.9265879">
<ele>104.468</ele>
<time>2018-01-09T22:38:37.589Z</time>
</trkpt>
<trkpt lat="-27.3310555" lon="152.9260111">
<ele>104.818</ele>
<time>2018-01-09T22:38:40.702Z</time>
</trkpt>
<trkpt lat="-27.3308221" lon="152.9254317">
<ele>105.713</ele>
<time>2018-01-09T22:38:43.694Z</time>
</trkpt>
<trkpt lat="-27.3307584" lon="152.9248268">
<ele>106.855</ele>
<time>2018-01-09T22:38:46.597Z</time>
</trkpt>
<trkpt lat="-27.3307558" lon="152.9242163">
<ele>108.195</ele>
<time>2018-01-09T22:38:49.542Z</time>
</trkpt>
<trkpt lat="-27.3307652" lon="152.9235924">
<ele>109.781</ele>
<time>2018-01-09T22:38:52.524Z</time>
</trkpt>
<trkpt lat="-27.3307169" lon="152.9229504">
<ele>111.174</ele>
<time>2018-01-09T22:38:55.553Z</time>
</trkpt>
<trkpt lat="-27.3305909" lon="152.9222995">
<ele>111.733</ele>
<time>2018-01-09T22:38:58.634Z</time>
</trkpt>
<trkpt lat="-27.3304535" lon="152.9216931">
<ele>111.357</ele>
<time>2018-01-09T22:39:01.497Z</time>
</trkpt>
<trkpt lat="-27.3304275" lon="152.9210606">
<ele>110.756</ele>
<time>2018-01-09T22:39:04.437Z</time>
</trkpt>
<trkpt lat="-27.3307458" lon="152.9205300">
<ele>110.899</ele>
<time>2018-01-09T22:39:07.490Z</time>
</trkpt>
<trkpt lat="-27.3310185" lon="152.9202384">
<ele>112.107</ele>
<time>2018-01-09T22:39:09.519Z</time>
</trkpt>
<trkpt lat="-27.3315261" lon="152.9199089">
<ele>113.666</ele>
<time>2018-01-09T22:39:12.623Z</time>
</trkpt>
<trkpt lat="-27.3320413" lon="152.9196288">
<ele>114.780</ele>
<time>2018-01-09T22:39:15.640Z</time>
</trkpt>
<trkpt lat="-27.3324673" lon="152.9192273">
<ele>115.845</ele>
<time>2018-01-09T22:39:18.612Z</time>
</trkpt>
<trkpt lat="-27.3326616" lon="152.9186643">
<ele>117.366</ele>
<time>2018-01-09T22:39:21.570Z</time>
</trkpt>
<trkpt lat="-27.3327343" lon="152.9181183">
<ele>119.070</ele>
<time>2018-01-09T22:39:24.386Z</time>
</trkpt>
<trkpt lat="-27.3327344" lon="152.9176573">
<ele>120.754</ele>
<time>2018-01-09T22:39:26.876Z</time>
</trkpt>
<trkpt lat="-27.3328101" lon="152.9173489">
<ele>122.553</ele>
<time>2018-01-09T22:39:28.711Z</time>
</trkpt>
<trkpt lat="-27.3328867" lon="152.9171741">
<ele>124.168</ele>
<time>2018-01-09T22:39:29.984Z</time>
</trkpt>
<trkpt lat="-27.3328107" lon="152.9170383">
<ele>125.046</ele>
<time>2018-01-09T22:39:31.075Z</time>
</trkpt>
<trkpt lat="-27.3324080" lon="152.9170109">
<ele>125.053</ele>
<time>2018-01-09T22:39:34.840Z</time>
</trkpt>
<trkpt lat="-27.3319729" lon="152.9169633">
<ele>124.249</ele>
<time>2018-01-09T22:39:40.588Z</time>
</trkpt>
<trkpt lat="-27.3315912" lon="152.9167787">
<ele>122.873</ele>
<time>2018-01-09T22:39:44.164Z</time>
</trkpt>
<trkpt lat="-27.3312610" lon="152.9164474">
<ele>123.099</ele>
<time>2018-01-09T22:39:47.399Z</time>
</trkpt>
<trkpt lat="-27.3309692" lon="152.9159664">
<ele>126.319</ele>
<time>2018-01-09T22:39:50.988Z</time>
</trkpt>
<trkpt lat="-27.3306404" lon="152.9155486">
<ele>130.142</ele>
<time>2018-01-09T22:39:54.188Z</time>
</trkpt>
<trkpt lat="-27.3303234" lon="152.9152716">
<ele>132.572</ele>
<time>2018-01-09T22:39:56.749Z</time>
</trkpt>
<trkpt lat="-27.3299929" lon="152.9151582">
<ele>134.144</ele>
<time>2018-01-09T22:39:59.068Z</time>
</trkpt>
<trkpt lat="-27.3294935" lon="152.9152387">
<ele>135.035</ele>
<time>2018-01-09T22:40:02.823Z</time>
</trkpt>
<trkpt lat="-27.3289624" lon="152.9151894">
<ele>134.665</ele>
<time>2018-01-09T22:40:06.490Z</time>
</trkpt>
<trkpt lat="-27.3284881" lon="152.9150637">
<ele>132.770</ele>
<time>2018-01-09T22:40:09.566Z</time>
</trkpt>
<trkpt lat="-27.3280997" lon="152.9147586">
<ele>130.240</ele>
<time>2018-01-09T22:40:12.567Z</time>
</trkpt>
<trkpt lat="-27.3278235" lon="152.9143263">
<ele>128.865</ele>
<time>2018-01-09T22:40:15.611Z</time>
</trkpt>
<trkpt lat="-27.3275199" lon="152.9139382">
<ele>129.424</ele>
<time>2018-01-09T22:40:18.532Z</time>
</trkpt>
<trkpt lat="-27.3271262" lon="152.9136958">
<ele>130.959</ele>
<time>2018-01-09T22:40:21.360Z</time>
</trkpt>
<trkpt lat="-27.3266695" lon="152.9135582">
<ele>132.148</ele>
<time>2018-01-09T22:40:24.369Z</time>
</trkpt>
<trkpt lat="-27.3262709" lon="152.9133296">
<ele>132.650</ele>
<time>2018-01-09T22:40:27.266Z</time>
</trkpt>
<trkpt lat="-27.3260203" lon="152.9129841">
<ele>132.979</ele>
<time>2018-01-09T22:40:29.904Z</time>
</trkpt>
<trkpt lat="-27.3258075" lon="152.9126056">
<ele>133.613</ele>
<time>2018-01-09T22:40:32.664Z</time>
</trkpt>
<trkpt lat="-27.3253742" lon="152.9124297">
<ele>134.379</ele>
<time>2018-01-09T22:40:35.944Z</time>
</trkpt>
<trkpt lat="-27.3249329" lon="152.9123572">
<ele>134.897</ele>
<time>2018-01-09T22:40:39.064Z</time>
</trkpt>
<trkpt lat="-27.3244632" lon="152.9122941">
<ele>135.128</ele>
<time>2018-01-09T22:40:42.255Z</time>
</trkpt>
<trkpt lat="-27.3239986" lon="152.9122215">
<ele>135.362</ele>
<time>2018-01-09T22:40:45.270Z</time>
</trkpt>
<trkpt lat="-27.3236003" lon="152.9121105">
<ele>135.873</ele>
<time>2018-01-09T22:40:47.863Z</time>
</trkpt>
<trkpt lat="-27.3232667" lon="152.9117743">
<ele>136.442</ele>
<time>2018-01-09T22:40:50.811Z</time>
</trkpt>
<trkpt lat="-27.3232328" lon="152.9112178">
<ele>136.684</ele>
<time>2018-01-09T22:40:54.235Z</time>
</trkpt>
<trkpt lat="-27.3232473" lon="152.9106589">
<ele>136.423</ele>
<time>2018-01-09T22:40:57.537Z</time>
</trkpt>
<trkpt lat="-27.3232267" lon="152.9101459">
<ele>135.632</ele>
<time>2018-01-09T22:41:00.443Z</time>
</trkpt>
<trkpt lat="-27.3229891" lon="152.9097167">
<ele>134.426</ele>
<time>2018-01-09T22:41:03.334Z</time>
</trkpt>
<trkpt lat="-27.3226512" lon="152.9094048">
<ele>132.851</ele>
<time>2018-01-09T22:41:06.236Z</time>
</trkpt>
<trkpt lat="-27.3224533" lon="152.9089854">
<ele>130.717</ele>
<time>2018-01-09T22:41:09.069Z</time>
</trkpt>
<trkpt lat="-27.3220829" lon="152.9085951">
<ele>127.912</ele>
<time>2018-01-09T22:41:12.437Z</time>
</trkpt>
<trkpt lat="-27.3218415" lon="152.9082240">
<ele>125.031</ele>
<time>2018-01-09T22:41:15.143Z</time>
</trkpt>
<trkpt lat="-27.3217238" lon="152.9077842">
<ele>123.139</ele>
<time>2018-01-09T22:41:17.938Z</time>
</trkpt>
<trkpt lat="-27.3216332" lon="152.9073202">
<ele>123.740</ele>
<time>2018-01-09T22:41:20.992Z</time>
</trkpt>
<trkpt lat="-27.3214220" lon="152.9068830">
<ele>127.000</ele>
<time>2018-01-09T22:41:24.190Z</time>
</trkpt>
<trkpt lat="-27.3210023" lon="152.9066804">
<ele>130.346</ele>
<time>2018-01-09T22:41:27.410Z</time>
</trkpt>
<trkpt lat="-27.3205243" lon="152.9067281">
<ele>131.042</ele>
<time>2018-01-09T22:41:30.740Z</time>
</trkpt>
<trkpt lat="-27.3200622" lon="152.9067826">
<ele>129.349</ele>
<time>2018-01-09T22:41:33.866Z</time>
</trkpt>
<trkpt lat="-27.3196301" lon="152.9067476">
<ele>127.514</ele>
<time>2018-01-09T22:41:36.850Z</time>
</trkpt>
<trkpt lat="-27.3192730" lon="152.9064660">
<ele>127.483</ele>
<time>2018-01-09T22:41:39.994Z</time>
</trkpt>
<trkpt lat="-27.3191123" lon="152.9060138">
<ele>129.385</ele>
<time>2018-01-09T22:41:43.109Z</time>
</trkpt>
<trkpt lat="-27.3188681" lon="152.9056857">
<ele>132.361</ele>
<time>2018-01-09T22:41:45.868Z</time>
</trkpt>
<trkpt lat="-27.3187454" lon="152.9051764">
<ele>135.753</ele>
<time>2018-01-09T22:41:49.324Z</time>
</trkpt>
<trkpt lat="-27.3187596" lon="152.9046294">
<ele>138.879</ele>
<time>2018-01-09T22:41:52.693Z</time>
</trkpt>
<trkpt lat="-27.3187371" lon="152.9040925">
<ele>140.733</ele>
<time>2018-01-09T22:41:55.808Z</time>
</trkpt>
<trkpt lat="-27.3185416" lon="152.9036916">
<ele>140.806</ele>
<time>2018-01-09T22:41:58.586Z</time>
</trkpt>
<trkpt lat="-27.3181562" lon="152.9036471">
<ele>139.282</ele>
<time>2018-01-09T22:42:01.527Z</time>
</trkpt>
<trkpt lat="-27.3177468" lon="152.9037580">
<ele>136.983</ele>
<time>2018-01-09T22:42:04.886Z</time>
</trkpt>
<trkpt lat="-27.3172583" lon="152.9037698">
<ele>135.136</ele>
<time>2018-01-09T22:42:08.401Z</time>
</trkpt>
<trkpt lat="-27.3168862" lon="152.9035668">
<ele>134.293</ele>
<time>2018-01-09T22:42:11.401Z</time>
</trkpt>
<trkpt lat="-27.3166953" lon="152.9033080">
<ele>134.476</ele>
<time>2018-01-09T22:42:13.915Z</time>
</trkpt>
<trkpt lat="-27.3165700" lon="152.9028631">
<ele>135.439</ele>
<time>2018-01-09T22:42:17.425Z</time>
</trkpt>
<trkpt lat="-27.3164465" lon="152.9021352">
<ele>136.392</ele>
<time>2018-01-09T22:42:21.942Z</time>
</trkpt>
<trkpt lat="-27.3161125" lon="152.9017338">
<ele>136.156</ele>
<time>2018-01-09T22:42:25.120Z</time>
</trkpt>
<trkpt lat="-27.3156672" lon="152.9016029">
<ele>134.537</ele>
<time>2018-01-09T22:42:28.135Z</time>
</trkpt>
<trkpt lat="-27.3152057" lon="152.9015427">
<ele>133.061</ele>
<time>2018-01-09T22:42:31.164Z</time>
</trkpt>
<trkpt lat="-27.3147519" lon="152.9016286">
<ele>133.370</ele>
<time>2018-01-09T22:42:34.148Z</time>
</trkpt>
<trkpt lat="-27.3143226" lon="152.9017285">
<ele>135.280</ele>
<time>2018-01-09T22:42:37.050Z</time>
</trkpt>
<trkpt lat="-27.3139211" lon="152.9018524">
<ele>137.448</ele>
<time>2018-01-09T22:42:40.210Z</time>
</trkpt>
<trkpt lat="-27.3136406" lon="152.9019610">
<ele>138.815</ele>
<time>2018-01-09T22:42:42.899Z</time>
</trkpt>
<trkpt lat="-27.3134276" lon="152.9017156">
<ele>139.434</ele>
<time>2018-01-09T22:42:45.609Z</time>
</trkpt>
<trkpt lat="-27.3132195" lon="152.9013567">
<ele>139.955</ele>
<time>2018-01-09T22:42:48.532Z</time>
</trkpt>
<trkpt lat="-27.3127685" lon="152.9010481">
<ele>140.772</ele>
<time>2018-01-09T22:42:52.007Z</time>
</trkpt>
<trkpt lat="-27.3123204" lon="152.9007863">
<ele>141.704</ele>
<time>2018-01-09T22:42:55.231Z</time>
</trkpt>
<trkpt lat="-27.3120090" lon="152.9004460">
<ele>142.503</ele>
<time>2018-01-09T22:42:58.248Z</time>
</trkpt>
<trkpt lat="-27.3118921" lon="152.8999781">
<ele>143.612</ele>
<time>2018-01-09T22:43:01.281Z</time>
</trkpt>
<trkpt lat="-27.3117893" lon="152.8994915">
<ele>145.570</ele>
<time>2018-01-09T22:43:04.189Z</time>
</trkpt>
<trkpt lat="-27.3116504" lon="152.8989612">
<ele>147.763</ele>
<time>2018-01-09T22:43:07.384Z</time>
</trkpt>
<trkpt lat="-27.3115048" lon="152.8984852">
<ele>149.135</ele>
<time>2018-01-09T22:43:10.450Z</time>
</trkpt>
<trkpt lat="-27.3110870" lon="152.8983624">
<ele>149.498</ele>
<time>2018-01-09T22:43:13.497Z</time>
</trkpt>
<trkpt lat="-27.3106657" lon="152.8983300">
<ele>148.092</ele>
<time>2018-01-09T22:43:16.447Z</time>
</trkpt>
<trkpt lat="-27.3104238" lon="152.8979379">
<ele>143.542</ele>
<time>2018-01-09T22:43:19.360Z</time>
</trkpt>
<trkpt lat="-27.3103495" lon="152.8974371">
<ele>136.707</ele>
<time>2018-01-09T22:43:22.385Z</time>
</trkpt>
<trkpt lat="-27.3101202" lon="152.8969752">
<ele>130.698</ele>
<time>2018-01-09T22:43:25.436Z</time>
</trkpt>
<trkpt lat="-27.3097813" lon="152.8965382">
<ele>127.517</ele>
<time>2018-01-09T22:43:28.770Z</time>
</trkpt>
<trkpt lat="-27.3093721" lon="152.8962899">
<ele>127.220</ele>
<time>2018-01-09T22:43:31.835Z</time>
</trkpt>
<trkpt lat="-27.3089264" lon="152.8962766">
<ele>128.647</ele>
<time>2018-01-09T22:43:34.730Z</time>
</trkpt>
<trkpt lat="-27.3084658" lon="152.8963669">
<ele>129.766</ele>
<time>2018-01-09T22:43:37.700Z</time>
</trkpt>
<trkpt lat="-27.3080044" lon="152.8963259">
<ele>128.941</ele>
<time>2018-01-09T22:43:40.359Z</time>
</trkpt>
<trkpt lat="-27.3074332" lon="152.8961671">
<ele>126.363</ele>
<time>2018-01-09T22:43:43.346Z</time>
</trkpt>
<trkpt lat="-27.3068035" lon="152.8960016">
<ele>123.517</ele>
<time>2018-01-09T22:43:46.512Z</time>
</trkpt>
<trkpt lat="-27.3062319" lon="152.8958227">
<ele>121.727</ele>
<time>2018-01-09T22:43:49.534Z</time>
</trkpt>
<trkpt lat="-27.3056872" lon="152.8956647">
<ele>121.464</ele>
<time>2018-01-09T22:43:52.445Z</time>
</trkpt>
<trkpt lat="-27.3051372" lon="152.8953975">
<ele>123.267</ele>
<time>2018-01-09T22:43:55.580Z</time>
</trkpt>
<trkpt lat="-27.3047222" lon="152.8949448">
<ele>127.812</ele>
<time>2018-01-09T22:43:58.766Z</time>
</trkpt>
<trkpt lat="-27.3043032" lon="152.8946178">
<ele>134.657</ele>
<time>2018-01-09T22:44:01.791Z</time>
</trkpt>
<trkpt lat="-27.3039200" lon="152.8943159">
<ele>142.432</ele>
<time>2018-01-09T22:44:04.624Z</time>
</trkpt>
<trkpt lat="-27.3036686" lon="152.8938287">
<ele>149.726</ele>
<time>2018-01-09T22:44:07.557Z</time>
</trkpt>
<trkpt lat="-27.3033247" lon="152.8933573">
<ele>156.177</ele>
<time>2018-01-09T22:44:10.740Z</time>
</trkpt>
<trkpt lat="-27.3030291" lon="152.8929782">
<ele>162.533</ele>
<time>2018-01-09T22:44:13.363Z</time>
</trkpt>
<trkpt lat="-27.3027037" lon="152.8925238">
<ele>168.851</ele>
<time>2018-01-09T22:44:16.275Z</time>
</trkpt>
<trkpt lat="-27.3024986" lon="152.8919355">
<ele>174.055</ele>
<time>2018-01-09T22:44:19.344Z</time>
</trkpt>
<trkpt lat="-27.3024496" lon="152.8913268">
<ele>177.543</ele>
<time>2018-01-09T22:44:22.278Z</time>
</trkpt>
<trkpt lat="-27.3024162" lon="152.8906923">
<ele>179.586</ele>
<time>2018-01-09T22:44:25.286Z</time>
</trkpt>
<trkpt lat="-27.3023877" lon="152.8900518">
<ele>180.745</ele>
<time>2018-01-09T22:44:28.283Z</time>
</trkpt>
<trkpt lat="-27.3022672" lon="152.8894644">
<ele>181.562</ele>
<time>2018-01-09T22:44:31.170Z</time>
</trkpt>
<trkpt lat="-27.3021954" lon="152.8889064">
<ele>182.292</ele>
<time>2018-01-09T22:44:33.983Z</time>
</trkpt>
<trkpt lat="-27.3021756" lon="152.8883301">
<ele>182.530</ele>
<time>2018-01-09T22:44:37.027Z</time>
</trkpt>
<trkpt lat="-27.3022697" lon="152.8878655">
<ele>181.813</ele>
<time>2018-01-09T22:44:39.765Z</time>
</trkpt>
<trkpt lat="-27.3025400" lon="152.8874799">
<ele>180.513</ele>
<time>2018-01-09T22:44:42.759Z</time>
</trkpt>
<trkpt lat="-27.3028672" lon="152.8871594">
<ele>179.748</ele>
<time>2018-01-09T22:44:45.614Z</time>
</trkpt>
<trkpt lat="-27.3034082" lon="152.8869221">
<ele>180.018</ele>
<time>2018-01-09T22:44:49.070Z</time>
</trkpt>
<trkpt lat="-27.3038937" lon="152.8865684">
<ele>180.976</ele>
<time>2018-01-09T22:44:52.443Z</time>
</trkpt>
<trkpt lat="-27.3043110" lon="152.8863070">
<ele>182.910</ele>
<time>2018-01-09T22:44:55.437Z</time>
</trkpt>
<trkpt lat="-27.3047837" lon="152.8863116">
<ele>186.643</ele>
<time>2018-01-09T22:44:58.761Z</time>
</trkpt>
<trkpt lat="-27.3051340" lon="152.8861768">
<ele>192.147</ele>
<time>2018-01-09T22:45:01.899Z</time>
</trkpt>
<trkpt lat="-27.3054567" lon="152.8861416">
<ele>198.585</ele>
<time>2018-01-09T22:45:05.304Z</time>
</trkpt>
<trkpt lat="-27.3055564" lon="152.8858726">
<ele>205.039</ele>
<time>2018-01-09T22:45:07.786Z</time>
</trkpt>
<trkpt lat="-27.3052675" lon="152.8855661">
<ele>210.867</ele>
<time>2018-01-09T22:45:10.819Z</time>
</trkpt>
<trkpt lat="-27.3050651" lon="152.8851360">
<ele>215.720</ele>
<time>2018-01-09T22:45:13.826Z</time>
</trkpt>
<trkpt lat="-27.3048812" lon="152.8846727">
<ele>219.523</ele>
<time>2018-01-09T22:45:16.951Z</time>
</trkpt>
<trkpt lat="-27.3048287" lon="152.8842140">
<ele>222.403</ele>
<time>2018-01-09T22:45:19.838Z</time>
</trkpt>
<trkpt lat="-27.3049178" lon="152.8837637">
<ele>224.305</ele>
<time>2018-01-09T22:45:22.679Z</time>
</trkpt>
<trkpt lat="-27.3050036" lon="152.8832405">
<ele>224.942</ele>
<time>2018-01-09T22:45:25.879Z</time>
</trkpt>
<trkpt lat="-27.3047973" lon="152.8828199">
<ele>224.316</ele>
<time>2018-01-09T22:45:28.654Z</time>
</trkpt>
<trkpt lat="-27.3047107" lon="152.8822863">
<ele>222.303</ele>
<time>2018-01-09T22:45:31.654Z</time>
</trkpt>
<trkpt lat="-27.3046221" lon="152.8817185">
<ele>218.331</ele>
<time>2018-01-09T22:45:34.768Z</time>
</trkpt>
<trkpt lat="-27.3043700" lon="152.8812468">
<ele>212.471</ele>
<time>2018-01-09T22:45:37.730Z</time>
</trkpt>
<trkpt lat="-27.3039219" lon="152.8808895">
<ele>206.207</ele>
<time>2018-01-09T22:45:41.003Z</time>
</trkpt>
<trkpt lat="-27.3035200" lon="152.8805230">
<ele>201.513</ele>
<time>2018-01-09T22:45:44.091Z</time>
</trkpt>
<trkpt lat="-27.3032137" lon="152.8800838">
<ele>199.416</ele>
<time>2018-01-09T22:45:47.141Z</time>
</trkpt>
<trkpt lat="-27.3028854" lon="152.8796892">
<ele>199.540</ele>
<time>2018-01-09T22:45:50.134Z</time>
</trkpt>
<trkpt lat="-27.3025418" lon="152.8793250">
<ele>200.836</ele>
<time>2018-01-09T22:45:53.146Z</time>
</trkpt>
<trkpt lat="-27.3024218" lon="152.8788274">
<ele>202.410</ele>
<time>2018-01-09T22:45:56.160Z</time>
</trkpt>
<trkpt lat="-27.3026602" lon="152.8783208">
<ele>204.011</ele>
<time>2018-01-09T22:45:59.570Z</time>
</trkpt>
<trkpt lat="-27.3028282" lon="152.8778407">
<ele>206.113</ele>
<time>2018-01-09T22:46:02.787Z</time>
</trkpt>
<trkpt lat="-27.3028079" lon="152.8774184">
<ele>209.039</ele>
<time>2018-01-09T22:46:05.520Z</time>
</trkpt>
<trkpt lat="-27.3026396" lon="152.8769926">
<ele>212.168</ele>
<time>2018-01-09T22:46:08.442Z</time>
</trkpt>
<trkpt lat="-27.3022569" lon="152.8766556">
<ele>214.626</ele>
<time>2018-01-09T22:46:11.682Z</time>
</trkpt>
<trkpt lat="-27.3018179" lon="152.8764879">
<ele>216.563</ele>
<time>2018-01-09T22:46:14.754Z</time>
</trkpt>
<trkpt lat="-27.3014488" lon="152.8762370">
<ele>218.549</ele>
<time>2018-01-09T22:46:17.729Z</time>
</trkpt>
<trkpt lat="-27.3012487" lon="152.8760371">
<ele>220.327</ele>
<time>2018-01-09T22:46:19.585Z</time>
</trkpt>
<trkpt lat="-27.3010556" lon="152.8756161">
<ele>221.164</ele>
<time>2018-01-09T22:46:22.403Z</time>
</trkpt>
<trkpt lat="-27.3008276" lon="152.8751803">
<ele>220.790</ele>
<time>2018-01-09T22:46:25.237Z</time>
</trkpt>
<trkpt lat="-27.3004627" lon="152.8748422">
<ele>219.400</ele>
<time>2018-01-09T22:46:28.186Z</time>
</trkpt>
<trkpt lat="-27.3001371" lon="152.8744603">
<ele>217.173</ele>
<time>2018-01-09T22:46:31.150Z</time>
</trkpt>
<trkpt lat="-27.2998473" lon="152.8740477">
<ele>214.414</ele>
<time>2018-01-09T22:46:34.092Z</time>
</trkpt>
<trkpt lat="-27.2995863" lon="152.8736118">
<ele>211.736</ele>
<time>2018-01-09T22:46:36.997Z</time>
</trkpt>
<trkpt lat="-27.2993062" lon="152.8731985">
<ele>209.424</ele>
<time>2018-01-09T22:46:39.834Z</time>
</trkpt>
<trkpt lat="-27.2990123" lon="152.8727858">
<ele>207.289</ele>
<time>2018-01-09T22:46:42.694Z</time>
</trkpt>
<trkpt lat="-27.2987045" lon="152.8723787">
<ele>205.089</ele>
<time>2018-01-09T22:46:45.589Z</time>
</trkpt>
<trkpt lat="-27.2983808" lon="152.8720045">
<ele>202.361</ele>
<time>2018-01-09T22:46:48.463Z</time>
</trkpt>
<trkpt lat="-27.2980565" lon="152.8716506">
<ele>198.928</ele>
<time>2018-01-09T22:46:51.338Z</time>
</trkpt>
<trkpt lat="-27.2977701" lon="152.8712612">
<ele>195.555</ele>
<time>2018-01-09T22:46:54.276Z</time>
</trkpt>
<trkpt lat="-27.2975040" lon="152.8708775">
<ele>193.269</ele>
<time>2018-01-09T22:46:57.311Z</time>
</trkpt>
<trkpt lat="-27.2973824" lon="152.8704798">
<ele>192.300</ele>
<time>2018-01-09T22:47:00.085Z</time>
</trkpt>
<trkpt lat="-27.2972305" lon="152.8700312">
<ele>191.826</ele>
<time>2018-01-09T22:47:03.165Z</time>
</trkpt>
<trkpt lat="-27.2969459" lon="152.8696603">
<ele>190.561</ele>
<time>2018-01-09T22:47:06.196Z</time>
</trkpt>
<trkpt lat="-27.2966101" lon="152.8693987">
<ele>188.066</ele>
<time>2018-01-09T22:47:08.980Z</time>
</trkpt>
<trkpt lat="-27.2962436" lon="152.8691332">
<ele>185.154</ele>
<time>2018-01-09T22:47:11.883Z</time>
</trkpt>
<trkpt lat="-27.2958404" lon="152.8688910">
<ele>182.640</ele>
<time>2018-01-09T22:47:14.883Z</time>
</trkpt>
<trkpt lat="-27.2954057" lon="152.8687521">
<ele>180.282</ele>
<time>2018-01-09T22:47:17.844Z</time>
</trkpt>
<trkpt lat="-27.2949758" lon="152.8685448">
<ele>177.340</ele>
<time>2018-01-09T22:47:20.900Z</time>
</trkpt>
<trkpt lat="-27.2947064" lon="152.8681097">
<ele>173.344</ele>
<time>2018-01-09T22:47:24.035Z</time>
</trkpt>
<trkpt lat="-27.2943879" lon="152.8678180">
<ele>168.411</ele>
<time>2018-01-09T22:47:26.806Z</time>
</trkpt>
<trkpt lat="-27.2939022" lon="152.8678456">
<ele>163.366</ele>
<time>2018-01-09T22:47:29.951Z</time>
</trkpt>
<trkpt lat="-27.2934033" lon="152.8678233">
<ele>159.073</ele>
<time>2018-01-09T22:47:32.941Z</time>
</trkpt>
<trkpt lat="-27.2928875" lon="152.8677556">
<ele>155.507</ele>
<time>2018-01-09T22:47:35.803Z</time>
</trkpt>
<trkpt lat="-27.2923201" lon="152.8677191">
<ele>151.665</ele>
<time>2018-01-09T22:47:38.696Z</time>
</trkpt>
<trkpt lat="-27.2916902" lon="152.8677750">
<ele>146.560</ele>
<time>2018-01-09T22:47:41.841Z</time>
</trkpt>
<trkpt lat="-27.2911680" lon="152.8679665">
<ele>140.180</ele>
<time>2018-01-09T22:47:44.780Z</time>
</trkpt>
<trkpt lat="-27.2907128" lon="152.8681147">
<ele>133.372</ele>
<time>2018-01-09T22:47:47.567Z</time>
</trkpt>
<trkpt lat="-27.2902598" lon="152.8681287">
<ele>127.139</ele>
<time>2018-01-09T22:47:50.417Z</time>
</trkpt>
<trkpt lat="-27.2898329" lon="152.8680169">
<ele>122.228</ele>
<time>2018-01-09T22:47:53.291Z</time>
</trkpt>
<trkpt lat="-27.2894097" lon="152.8678369">
<ele>118.920</ele>
<time>2018-01-09T22:47:56.291Z</time>
</trkpt>
<trkpt lat="-27.2889916" lon="152.8676141">
<ele>117.005</ele>
<time>2018-01-09T22:47:59.317Z</time>
</trkpt>
<trkpt lat="-27.2886712" lon="152.8672529">
<ele>115.732</ele>
<time>2018-01-09T22:48:02.284Z</time>
</trkpt>
<trkpt lat="-27.2883070" lon="152.8669786">
<ele>114.281</ele>
<time>2018-01-09T22:48:05.188Z</time>
</trkpt>
<trkpt lat="-27.2879104" lon="152.8667238">
<ele>112.542</ele>
<time>2018-01-09T22:48:08.220Z</time>
</trkpt>
<trkpt lat="-27.2874494" lon="152.8666436">
<ele>110.620</ele>
<time>2018-01-09T22:48:11.357Z</time>
</trkpt>
<trkpt lat="-27.2870562" lon="152.8665792">
<ele>108.037</ele>
<time>2018-01-09T22:48:14.212Z</time>
</trkpt>
<trkpt lat="-27.2866981" lon="152.8665431">
<ele>104.232</ele>
<time>2018-01-09T22:48:17.163Z</time>
</trkpt>
<trkpt lat="-27.2864423" lon="152.8666313">
<ele>99.319</ele>
<time>2018-01-09T22:48:19.940Z</time>
</trkpt>
<trkpt lat="-27.2863183" lon="152.8665332">
<ele>94.072</ele>
<time>2018-01-09T22:48:21.998Z</time>
</trkpt>
<trkpt lat="-27.2863183" lon="152.8665332">
<ele>89.821</ele>
<time>2018-01-09T22:48:25.998Z</time>
</trkpt>
<trkpt lat="-27.2863183" lon="152.8665332">
<ele>87.828</ele>
<time>2018-01-09T22:48:26.098Z</time>
</trkpt>
<trkpt lat="-27.2860750" lon="152.8665187">
<ele>88.013</ele>
<time>2018-01-09T22:48:31.730Z</time>
</trkpt>
<trkpt lat="-27.2857779" lon="152.8666656">
<ele>88.241</ele>
<time>2018-01-09T22:48:34.750Z</time>
</trkpt>
<trkpt lat="-27.2853371" lon="152.8666907">
<ele>86.885</ele>
<time>2018-01-09T22:48:37.980Z</time>
</trkpt>
<trkpt lat="-27.2848609" lon="152.8666813">
<ele>84.566</ele>
<time>2018-01-09T22:48:41.208Z</time>
</trkpt>
<trkpt lat="-27.2843860" lon="152.8668370">
<ele>82.214</ele>
<time>2018-01-09T22:48:44.330Z</time>
</trkpt>
<trkpt lat="-27.2839943" lon="152.8673645">
<ele>79.408</ele>
<time>2018-01-09T22:48:47.781Z</time>
</trkpt>
<trkpt lat="-27.2836323" lon="152.8678565">
<ele>75.335</ele>
<time>2018-01-09T22:48:50.781Z</time>
</trkpt>
<trkpt lat="-27.2832987" lon="152.8683531">
<ele>70.135</ele>
<time>2018-01-09T22:48:53.747Z</time>
</trkpt>
<trkpt lat="-27.2829896" lon="152.8688771">
<ele>65.245</ele>
<time>2018-01-09T22:48:56.709Z</time>
</trkpt>
<trkpt lat="-27.2827608" lon="152.8694892">
<ele>61.869</ele>
<time>2018-01-09T22:48:59.793Z</time>
</trkpt>
<trkpt lat="-27.2825767" lon="152.8701064">
<ele>59.797</ele>
<time>2018-01-09T22:49:02.867Z</time>
</trkpt>
<trkpt lat="-27.2824646" lon="152.8707117">
<ele>58.028</ele>
<time>2018-01-09T22:49:05.789Z</time>
</trkpt>
<trkpt lat="-27.2824254" lon="152.8713492">
<ele>56.075</ele>
<time>2018-01-09T22:49:08.748Z</time>
</trkpt>
<trkpt lat="-27.2823781" lon="152.8720004">
<ele>54.286</ele>
<time>2018-01-09T22:49:11.741Z</time>
</trkpt>
<trkpt lat="-27.2823330" lon="152.8726443">
<ele>53.168</ele>
<time>2018-01-09T22:49:14.709Z</time>
</trkpt>
<trkpt lat="-27.2825813" lon="152.8732853">
<ele>52.775</ele>
<time>2018-01-09T22:49:17.926Z</time>
</trkpt>
<trkpt lat="-27.2828989" lon="152.8738231">
<ele>52.771</ele>
<time>2018-01-09T22:49:20.870Z</time>
</trkpt>
<trkpt lat="-27.2832592" lon="152.8743323">
<ele>52.565</ele>
<time>2018-01-09T22:49:23.850Z</time>
</trkpt>
<trkpt lat="-27.2836645" lon="152.8747264">
<ele>51.842</ele>
<time>2018-01-09T22:49:26.635Z</time>
</trkpt>
<trkpt lat="-27.2840188" lon="152.8752503">
<ele>50.995</ele>
<time>2018-01-09T22:49:29.685Z</time>
</trkpt>
<trkpt lat="-27.2842694" lon="152.8758433">
<ele>50.725</ele>
<time>2018-01-09T22:49:32.724Z</time>
</trkpt>
<trkpt lat="-27.2844209" lon="152.8764817">
<ele>51.160</ele>
<time>2018-01-09T22:49:35.763Z</time>
</trkpt>
<trkpt lat="-27.2844588" lon="152.8771496">
<ele>51.694</ele>
<time>2018-01-09T22:49:38.812Z</time>
</trkpt>
<trkpt lat="-27.2844641" lon="152.8778024">
<ele>51.815</ele>
<time>2018-01-09T22:49:41.757Z</time>
</trkpt>
<trkpt lat="-27.2843941" lon="152.8784486">
<ele>51.643</ele>
<time>2018-01-09T22:49:44.705Z</time>
</trkpt>
<trkpt lat="-27.2843635" lon="152.8790939">
<ele>51.426</ele>
<time>2018-01-09T22:49:47.699Z</time>
</trkpt>
<trkpt lat="-27.2842991" lon="152.8797267">
<ele>50.947</ele>
<time>2018-01-09T22:49:50.694Z</time>
</trkpt>
<trkpt lat="-27.2842731" lon="152.8803670">
<ele>49.590</ele>
<time>2018-01-09T22:49:53.730Z</time>
</trkpt>
<trkpt lat="-27.2841813" lon="152.8809795">
<ele>47.351</ele>
<time>2018-01-09T22:49:56.654Z</time>
</trkpt>
<trkpt lat="-27.2842357" lon="152.8816172">
<ele>45.223</ele>
<time>2018-01-09T22:49:59.614Z</time>
</trkpt>
<trkpt lat="-27.2844678" lon="152.8822494">
<ele>44.332</ele>
<time>2018-01-09T22:50:02.745Z</time>
</trkpt>
<trkpt lat="-27.2847668" lon="152.8827898">
<ele>44.796</ele>
<time>2018-01-09T22:50:05.653Z</time>
</trkpt>
<trkpt lat="-27.2851643" lon="152.8832641">
<ele>45.592</ele>
<time>2018-01-09T22:50:08.622Z</time>
</trkpt>
<trkpt lat="-27.2856694" lon="152.8836369">
<ele>45.855</ele>
<time>2018-01-09T22:50:11.706Z</time>
</trkpt>
<trkpt lat="-27.2861597" lon="152.8839885">
<ele>45.703</ele>
<time>2018-01-09T22:50:14.675Z</time>
</trkpt>
<trkpt lat="-27.2866070" lon="152.8844031">
<ele>45.496</ele>
<time>2018-01-09T22:50:17.658Z</time>
</trkpt>
<trkpt lat="-27.2871006" lon="152.8847688">
<ele>45.120</ele>
<time>2018-01-09T22:50:20.675Z</time>
</trkpt>
<trkpt lat="-27.2875802" lon="152.8851367">
<ele>44.035</ele>
<time>2018-01-09T22:50:23.597Z</time>
</trkpt>
<trkpt lat="-27.2880246" lon="152.8855481">
<ele>42.191</ele>
<time>2018-01-09T22:50:26.515Z</time>
</trkpt>
<trkpt lat="-27.2884745" lon="152.8859251">
<ele>40.421</ele>
<time>2018-01-09T22:50:29.392Z</time>
</trkpt>
<trkpt lat="-27.2889550" lon="152.8862964">
<ele>39.524</ele>
<time>2018-01-09T22:50:32.385Z</time>
</trkpt>
<trkpt lat="-27.2894404" lon="152.8866964">
<ele>39.615</ele>
<time>2018-01-09T22:50:35.481Z</time>
</trkpt>
<trkpt lat="-27.2898402" lon="152.8871217">
<ele>40.316</ele>
<time>2018-01-09T22:50:38.334Z</time>
</trkpt>
<trkpt lat="-27.2900471" lon="152.8877228">
<ele>41.096</ele>
<time>2018-01-09T22:50:41.319Z</time>
</trkpt>
<trkpt lat="-27.2902399" lon="152.8883207">
<ele>41.996</ele>
<time>2018-01-09T22:50:44.246Z</time>
</trkpt>
<trkpt lat="-27.2904268" lon="152.8889600">
<ele>43.909</ele>
<time>2018-01-09T22:50:47.266Z</time>
</trkpt>
<trkpt lat="-27.2907438" lon="152.8895258">
<ele>47.425</ele>
<time>2018-01-09T22:50:50.248Z</time>
</trkpt>
<trkpt lat="-27.2910328" lon="152.8900780">
<ele>51.955</ele>
<time>2018-01-09T22:50:53.145Z</time>
</trkpt>
<trkpt lat="-27.2911531" lon="152.8907551">
<ele>56.491</ele>
<time>2018-01-09T22:50:56.281Z</time>
</trkpt>
<trkpt lat="-27.2911149" lon="152.8914061">
<ele>60.342</ele>
<time>2018-01-09T22:50:59.222Z</time>
</trkpt>
<trkpt lat="-27.2909607" lon="152.8920710">
<ele>63.351</ele>
<time>2018-01-09T22:51:02.300Z</time>
</trkpt>
<trkpt lat="-27.2908020" lon="152.8926701">
<ele>65.930</ele>
<time>2018-01-09T22:51:05.131Z</time>
</trkpt>
<trkpt lat="-27.2907505" lon="152.8933177">
<ele>68.646</ele>
<time>2018-01-09T22:51:08.127Z</time>
</trkpt>
<trkpt lat="-27.2909045" lon="152.8939221">
<ele>71.750</ele>
<time>2018-01-09T22:51:11.038Z</time>
</trkpt>
<trkpt lat="-27.2911487" lon="152.8945203">
<ele>75.145</ele>
<time>2018-01-09T22:51:14.057Z</time>
</trkpt>
<trkpt lat="-27.2914183" lon="152.8951126">
<ele>78.400</ele>
<time>2018-01-09T22:51:17.112Z</time>
</trkpt>
<trkpt lat="-27.2916150" lon="152.8957190">
<ele>80.854</ele>
<time>2018-01-09T22:51:20.095Z</time>
</trkpt>
<trkpt lat="-27.2916284" lon="152.8963887">
<ele>82.034</ele>
<time>2018-01-09T22:51:23.184Z</time>
</trkpt>
<trkpt lat="-27.2916237" lon="152.8970226">
<ele>82.172</ele>
<time>2018-01-09T22:51:26.091Z</time>
</trkpt>
<trkpt lat="-27.2915906" lon="152.8976651">
<ele>82.131</ele>
<time>2018-01-09T22:51:29.028Z</time>
</trkpt>
<trkpt lat="-27.2913531" lon="152.8982816">
<ele>82.464</ele>
<time>2018-01-09T22:51:32.081Z</time>
</trkpt>
<trkpt lat="-27.2910293" lon="152.8988634">
<ele>82.758</ele>
<time>2018-01-09T22:51:35.188Z</time>
</trkpt>
<trkpt lat="-27.2907519" lon="152.8994567">
<ele>82.173</ele>
<time>2018-01-09T22:51:38.187Z</time>
</trkpt>
<trkpt lat="-27.2905556" lon="152.9000976">
<ele>80.368</ele>
<time>2018-01-09T22:51:41.161Z</time>
</trkpt>
<trkpt lat="-27.2905610" lon="152.9008051">
<ele>77.553</ele>
<time>2018-01-09T22:51:44.226Z</time>
</trkpt>
<trkpt lat="-27.2907356" lon="152.9014804">
<ele>74.069</ele>
<time>2018-01-09T22:51:47.303Z</time>
</trkpt>
<trkpt lat="-27.2910293" lon="152.9020512">
<ele>70.060</ele>
<time>2018-01-09T22:51:50.291Z</time>
</trkpt>
<trkpt lat="-27.2913676" lon="152.9025300">
<ele>65.455</ele>
<time>2018-01-09T22:51:53.144Z</time>
</trkpt>
<trkpt lat="-27.2918521" lon="152.9028993">
<ele>60.410</ele>
<time>2018-01-09T22:51:56.214Z</time>
</trkpt>
<trkpt lat="-27.2923739" lon="152.9031627">
<ele>55.862</ele>
<time>2018-01-09T22:51:59.198Z</time>
</trkpt>
<trkpt lat="-27.2929377" lon="152.9032929">
<ele>52.892</ele>
<time>2018-01-09T22:52:02.223Z</time>
</trkpt>
<trkpt lat="-27.2935171" lon="152.9032851">
<ele>51.645</ele>
<time>2018-01-09T22:52:05.287Z</time>
</trkpt>
<trkpt lat="-27.2940801" lon="152.9031904">
<ele>52.038</ele>
<time>2018-01-09T22:52:08.310Z</time>
</trkpt>
<trkpt lat="-27.2946149" lon="152.9029913">
<ele>54.164</ele>
<time>2018-01-09T22:52:11.271Z</time>
</trkpt>
<trkpt lat="-27.2950505" lon="152.9024540">
<ele>57.690</ele>
<time>2018-01-09T22:52:14.600Z</time>
</trkpt>
<trkpt lat="-27.2954477" lon="152.9019450">
<ele>61.763</ele>
<time>2018-01-09T22:52:17.706Z</time>
</trkpt>
<trkpt lat="-27.2958466" lon="152.9015010">
<ele>65.670</ele>
<time>2018-01-09T22:52:20.629Z</time>
</trkpt>
<trkpt lat="-27.2962678" lon="152.9010548">
<ele>69.251</ele>
<time>2018-01-09T22:52:23.648Z</time>
</trkpt>
<trkpt lat="-27.2967456" lon="152.9006761">
<ele>72.549</ele>
<time>2018-01-09T22:52:26.724Z</time>
</trkpt>
<trkpt lat="-27.2973097" lon="152.9005447">
<ele>75.478</ele>
<time>2018-01-09T22:52:29.750Z</time>
</trkpt>
<trkpt lat="-27.2979071" lon="152.9007003">
<ele>77.988</ele>
<time>2018-01-09T22:52:32.928Z</time>
</trkpt>
<trkpt lat="-27.2984334" lon="152.9009629">
<ele>80.009</ele>
<time>2018-01-09T22:52:35.909Z</time>
</trkpt>
<trkpt lat="-27.2988616" lon="152.9014622">
<ele>81.560</ele>
<time>2018-01-09T22:52:39.117Z</time>
</trkpt>
<trkpt lat="-27.2990711" lon="152.9020244">
<ele>82.677</ele>
<time>2018-01-09T22:52:41.933Z</time>
</trkpt>
<trkpt lat="-27.2991392" lon="152.9026812">
<ele>83.494</ele>
<time>2018-01-09T22:52:44.971Z</time>
</trkpt>
<trkpt lat="-27.2990611" lon="152.9033333">
<ele>84.544</ele>
<time>2018-01-09T22:52:47.974Z</time>
</trkpt>
<trkpt lat="-27.2989176" lon="152.9039889">
<ele>86.066</ele>
<time>2018-01-09T22:52:51.066Z</time>
</trkpt>
<trkpt lat="-27.2987874" lon="152.9046009">
<ele>87.529</ele>
<time>2018-01-09T22:52:53.954Z</time>
</trkpt>
<trkpt lat="-27.2986099" lon="152.9052398">
<ele>88.358</ele>
<time>2018-01-09T22:52:56.989Z</time>
</trkpt>
<trkpt lat="-27.2984731" lon="152.9058960">
<ele>88.623</ele>
<time>2018-01-09T22:53:00.040Z</time>
</trkpt>
<trkpt lat="-27.2984178" lon="152.9065166">
<ele>88.749</ele>
<time>2018-01-09T22:53:02.888Z</time>
</trkpt>
<trkpt lat="-27.2983752" lon="152.9071520">
<ele>88.926</ele>
<time>2018-01-09T22:53:05.789Z</time>
</trkpt>
<trkpt lat="-27.2983138" lon="152.9078151">
<ele>89.022</ele>
<time>2018-01-09T22:53:08.812Z</time>
</trkpt>
<trkpt lat="-27.2982714" lon="152.9084477">
<ele>88.598</ele>
<time>2018-01-09T22:53:11.717Z</time>
</trkpt>
<trkpt lat="-27.2982434" lon="152.9090778">
<ele>87.233</ele>
<time>2018-01-09T22:53:14.624Z</time>
</trkpt>
<trkpt lat="-27.2984360" lon="152.9097303">
<ele>85.197</ele>
<time>2018-01-09T22:53:17.799Z</time>
</trkpt>
<trkpt lat="-27.2985881" lon="152.9103199">
<ele>83.218</ele>
<time>2018-01-09T22:53:20.646Z</time>
</trkpt>
<trkpt lat="-27.2986153" lon="152.9109546">
<ele>81.516</ele>
<time>2018-01-09T22:53:23.587Z</time>
</trkpt>
<trkpt lat="-27.2986166" lon="152.9115960">
<ele>79.987</ele>
<time>2018-01-09T22:53:26.579Z</time>
</trkpt>
<trkpt lat="-27.2985883" lon="152.9122115">
<ele>78.832</ele>
<time>2018-01-09T22:53:29.479Z</time>
</trkpt>
<trkpt lat="-27.2985851" lon="152.9128748">
<ele>78.333</ele>
<time>2018-01-09T22:53:32.560Z</time>
</trkpt>
<trkpt lat="-27.2985477" lon="152.9135173">
<ele>78.698</ele>
<time>2018-01-09T22:53:35.516Z</time>
</trkpt>
<trkpt lat="-27.2983064" lon="152.9141272">
<ele>80.030</ele>
<time>2018-01-09T22:53:38.581Z</time>
</trkpt>
<trkpt lat="-27.2979736" lon="152.9146532">
<ele>82.166</ele>
<time>2018-01-09T22:53:41.544Z</time>
</trkpt>
<trkpt lat="-27.2975528" lon="152.9150808">
<ele>84.685</ele>
<time>2018-01-09T22:53:44.468Z</time>
</trkpt>
<trkpt lat="-27.2971316" lon="152.9155503">
<ele>86.846</ele>
<time>2018-01-09T22:53:47.531Z</time>
</trkpt>
<trkpt lat="-27.2967513" lon="152.9160368">
<ele>87.621</ele>
<time>2018-01-09T22:53:50.503Z</time>
</trkpt>
<trkpt lat="-27.2964335" lon="152.9165967">
<ele>86.407</ele>
<time>2018-01-09T22:53:53.549Z</time>
</trkpt>
<trkpt lat="-27.2961459" lon="152.9171441">
<ele>83.535</ele>
<time>2018-01-09T22:53:56.455Z</time>
</trkpt>
<trkpt lat="-27.2958162" lon="152.9176880">
<ele>79.900</ele>
<time>2018-01-09T22:53:59.438Z</time>
</trkpt>
<trkpt lat="-27.2954638" lon="152.9182127">
<ele>76.131</ele>
<time>2018-01-09T22:54:02.425Z</time>
</trkpt>
<trkpt lat="-27.2950847" lon="152.9186763">
<ele>72.300</ele>
<time>2018-01-09T22:54:05.287Z</time>
</trkpt>
<trkpt lat="-27.2946222" lon="152.9190798">
<ele>68.438</ele>
<time>2018-01-09T22:54:08.263Z</time>
</trkpt>
<trkpt lat="-27.2941844" lon="152.9195052">
<ele>64.858</ele>
<time>2018-01-09T22:54:11.231Z</time>
</trkpt>
<trkpt lat="-27.2937635" lon="152.9199351">
<ele>61.642</ele>
<time>2018-01-09T22:54:14.192Z</time>
</trkpt>
<trkpt lat="-27.2933444" lon="152.9203196">
<ele>58.575</ele>
<time>2018-01-09T22:54:17.027Z</time>
</trkpt>
<trkpt lat="-27.2929029" lon="152.9207325">
<ele>55.621</ele>
<time>2018-01-09T22:54:20.023Z</time>
</trkpt>
<trkpt lat="-27.2924643" lon="152.9211307">
<ele>53.018</ele>
<time>2018-01-09T22:54:22.934Z</time>
</trkpt>
<trkpt lat="-27.2919928" lon="152.9215295">
<ele>51.193</ele>
<time>2018-01-09T22:54:25.967Z</time>
</trkpt>
<trkpt lat="-27.2915656" lon="152.9219648">
<ele>50.622</ele>
<time>2018-01-09T22:54:28.936Z</time>
</trkpt>
<trkpt lat="-27.2911358" lon="152.9223987">
<ele>51.467</ele>
<time>2018-01-09T22:54:31.902Z</time>
</trkpt>
<trkpt lat="-27.2906938" lon="152.9228570">
<ele>53.195</ele>
<time>2018-01-09T22:54:34.960Z</time>
</trkpt>
<trkpt lat="-27.2902932" lon="152.9233247">
<ele>54.778</ele>
<time>2018-01-09T22:54:37.871Z</time>
</trkpt>
<trkpt lat="-27.2898606" lon="152.9237713">
<ele>55.415</ele>
<time>2018-01-09T22:54:40.837Z</time>
</trkpt>
<trkpt lat="-27.2894135" lon="152.9241747">
<ele>54.679</ele>
<time>2018-01-09T22:54:43.762Z</time>
</trkpt>
<trkpt lat="-27.2889142" lon="152.9245368">
<ele>52.604</ele>
<time>2018-01-09T22:54:46.799Z</time>
</trkpt>
<trkpt lat="-27.2883279" lon="152.9247446">
<ele>50.168</ele>
<time>2018-01-09T22:54:49.920Z</time>
</trkpt>
<trkpt lat="-27.2877591" lon="152.9249636">
<ele>48.861</ele>
<time>2018-01-09T22:54:52.956Z</time>
</trkpt>
<trkpt lat="-27.2871987" lon="152.9251565">
<ele>49.516</ele>
<time>2018-01-09T22:54:55.895Z</time>
</trkpt>
<trkpt lat="-27.2866412" lon="152.9253696">
<ele>51.771</ele>
<time>2018-01-09T22:54:58.855Z</time>
</trkpt>
<trkpt lat="-27.2860868" lon="152.9255598">
<ele>54.306</ele>
<time>2018-01-09T22:55:01.831Z</time>
</trkpt>
<trkpt lat="-27.2856173" lon="152.9259347">
<ele>55.866</ele>
<time>2018-01-09T22:55:04.852Z</time>
</trkpt>
<trkpt lat="-27.2852464" lon="152.9264258">
<ele>55.967</ele>
<time>2018-01-09T22:55:07.874Z</time>
</trkpt>
<trkpt lat="-27.2849961" lon="152.9270021">
<ele>54.630</ele>
<time>2018-01-09T22:55:10.885Z</time>
</trkpt>
<trkpt lat="-27.2848982" lon="152.9276418">
<ele>52.017</ele>
<time>2018-01-09T22:55:14.026Z</time>
</trkpt>
<trkpt lat="-27.2849560" lon="152.9282263">
<ele>48.563</ele>
<time>2018-01-09T22:55:16.993Z</time>
</trkpt>
<trkpt lat="-27.2851061" lon="152.9287783">
<ele>45.028</ele>
<time>2018-01-09T22:55:19.957Z</time>
</trkpt>
<trkpt lat="-27.2854104" lon="152.9292359">
<ele>42.173</ele>
<time>2018-01-09T22:55:22.925Z</time>
</trkpt>
<trkpt lat="-27.2857805" lon="152.9296259">
<ele>40.071</ele>
<time>2018-01-09T22:55:25.914Z</time>
</trkpt>
<trkpt lat="-27.2861529" lon="152.9300210">
<ele>38.141</ele>
<time>2018-01-09T22:55:28.946Z</time>
</trkpt>
<trkpt lat="-27.2864635" lon="152.9304328">
<ele>35.968</ele>
<time>2018-01-09T22:55:31.808Z</time>
</trkpt>
<trkpt lat="-27.2867052" lon="152.9309159">
<ele>33.718</ele>
<time>2018-01-09T22:55:34.793Z</time>
</trkpt>
<trkpt lat="-27.2868878" lon="152.9314166">
<ele>31.905</ele>
<time>2018-01-09T22:55:37.746Z</time>
</trkpt>
<trkpt lat="-27.2870885" lon="152.9319337">
<ele>31.043</ele>
<time>2018-01-09T22:55:40.784Z</time>
</trkpt>
<trkpt lat="-27.2872966" lon="152.9324452">
<ele>31.468</ele>
<time>2018-01-09T22:55:43.751Z</time>
</trkpt>
<trkpt lat="-27.2875112" lon="152.9329595">
<ele>32.898</ele>
<time>2018-01-09T22:55:46.746Z</time>
</trkpt>
<trkpt lat="-27.2876746" lon="152.9334947">
<ele>34.354</ele>
<time>2018-01-09T22:55:49.733Z</time>
</trkpt>
<trkpt lat="-27.2878686" lon="152.9340394">
<ele>35.107</ele>
<time>2018-01-09T22:55:52.777Z</time>
</trkpt>
<trkpt lat="-27.2881211" lon="152.9345868">
<ele>35.114</ele>
<time>2018-01-09T22:55:55.888Z</time>
</trkpt>
<trkpt lat="-27.2884289" lon="152.9351197">
<ele>34.024</ele>
<time>2018-01-09T22:55:59.060Z</time>
</trkpt>
<trkpt lat="-27.2885550" lon="152.9356613">
<ele>31.029</ele>
<time>2018-01-09T22:56:01.922Z</time>
</trkpt>
<trkpt lat="-27.2885145" lon="152.9362356">
<ele>26.142</ele>
<time>2018-01-09T22:56:04.970Z</time>
</trkpt>
<trkpt lat="-27.2884174" lon="152.9367784">
<ele>20.721</ele>
<time>2018-01-09T22:56:07.974Z</time>
</trkpt>
<trkpt lat="-27.2884468" lon="152.9373529">
<ele>16.186</ele>
<time>2018-01-09T22:56:11.073Z</time>
</trkpt>
<trkpt lat="-27.2885940" lon="152.9379011">
<ele>13.116</ele>
<time>2018-01-09T22:56:14.116Z</time>
</trkpt>
<trkpt lat="-27.2887549" lon="152.9384214">
<ele>11.527</ele>
<time>2018-01-09T22:56:17.155Z</time>
</trkpt>
<trkpt lat="-27.2889090" lon="152.9388596">
<ele>11.197</ele>
<time>2018-01-09T22:56:20.006Z</time>
</trkpt>
<trkpt lat="-27.2891306" lon="152.9392388">
<ele>11.675</ele>
<time>2018-01-09T22:56:23.075Z</time>
</trkpt>
<trkpt lat="-27.2891851" lon="152.9396267">
<ele>12.374</ele>
<time>2018-01-09T22:56:26.176Z</time>
</trkpt>
<trkpt lat="-27.2892422" lon="152.9399243">
<ele>12.932</ele>
<time>2018-01-09T22:56:28.833Z</time>
</trkpt>
<trkpt lat="-27.2892761" lon="152.9402945">
<ele>13.807</ele>
<time>2018-01-09T22:56:31.844Z</time>
</trkpt>
<trkpt lat="-27.2893997" lon="152.9407161">
<ele>15.615</ele>
<time>2018-01-09T22:56:34.950Z</time>
</trkpt>
<trkpt lat="-27.2894792" lon="152.9411687">
<ele>17.813</ele>
<time>2018-01-09T22:56:37.839Z</time>
</trkpt>
<trkpt lat="-27.2895426" lon="152.9417144">
<ele>19.246</ele>
<time>2018-01-09T22:56:41.074Z</time>
</trkpt>
<trkpt lat="-27.2895903" lon="152.9422162">
<ele>19.454</ele>
<time>2018-01-09T22:56:43.986Z</time>
</trkpt>
<trkpt lat="-27.2896660" lon="152.9427393">
<ele>18.805</ele>
<time>2018-01-09T22:56:47.021Z</time>
</trkpt>
<trkpt lat="-27.2897210" lon="152.9432589">
<ele>17.875</ele>
<time>2018-01-09T22:56:49.919Z</time>
</trkpt>
<trkpt lat="-27.2898243" lon="152.9438239">
<ele>16.846</ele>
<time>2018-01-09T22:56:52.966Z</time>
</trkpt>
<trkpt lat="-27.2899192" lon="152.9444123">
<ele>15.735</ele>
<time>2018-01-09T22:56:56.049Z</time>
</trkpt>
<trkpt lat="-27.2900461" lon="152.9449643">
<ele>14.818</ele>
<time>2018-01-09T22:56:59.028Z</time>
</trkpt>
<trkpt lat="-27.2901934" lon="152.9454956">
<ele>14.160</ele>
<time>2018-01-09T22:57:02.022Z</time>
</trkpt>
<trkpt lat="-27.2902074" lon="152.9460095">
<ele>13.399</ele>
<time>2018-01-09T22:57:04.839Z</time>
</trkpt>
<trkpt lat="-27.2902720" lon="152.9465233">
<ele>12.259</ele>
<time>2018-01-09T22:57:07.692Z</time>
</trkpt>
<trkpt lat="-27.2903485" lon="152.9470828">
<ele>11.036</ele>
<time>2018-01-09T22:57:10.778Z</time>
</trkpt>
<trkpt lat="-27.2904588" lon="152.9476661">
<ele>10.274</ele>
<time>2018-01-09T22:57:13.998Z</time>
</trkpt>
<trkpt lat="-27.2905136" lon="152.9481872">
<ele>10.096</ele>
<time>2018-01-09T22:57:16.825Z</time>
</trkpt>
<trkpt lat="-27.2906019" lon="152.9487455">
<ele>10.108</ele>
<time>2018-01-09T22:57:19.886Z</time>
</trkpt>
<trkpt lat="-27.2906895" lon="152.9492420">
<ele>9.888</ele>
<time>2018-01-09T22:57:22.626Z</time>
</trkpt>
<trkpt lat="-27.2907805" lon="152.9497918">
<ele>9.420</ele>
<time>2018-01-09T22:57:25.715Z</time>
</trkpt>
<trkpt lat="-27.2908399" lon="152.9502498">
<ele>9.005</ele>
<time>2018-01-09T22:57:28.388Z</time>
</trkpt>
<trkpt lat="-27.2908908" lon="152.9507360">
<ele>8.938</ele>
<time>2018-01-09T22:57:31.331Z</time>
</trkpt>
<trkpt lat="-27.2909283" lon="152.9512284">
<ele>9.285</ele>
<time>2018-01-09T22:57:34.361Z</time>
</trkpt>
<trkpt lat="-27.2910365" lon="152.9516870">
<ele>9.893</ele>
<time>2018-01-09T22:57:37.306Z</time>
</trkpt>
<trkpt lat="-27.2911234" lon="152.9521637">
<ele>10.523</ele>
<time>2018-01-09T22:57:40.382Z</time>
</trkpt>
<trkpt lat="-27.2912137" lon="152.9526116">
<ele>10.972</ele>
<time>2018-01-09T22:57:43.478Z</time>
</trkpt>
<trkpt lat="-27.2912270" lon="152.9529336">
<ele>11.054</ele>
<time>2018-01-09T22:57:45.971Z</time>
</trkpt>
<trkpt lat="-27.2912997" lon="152.9532063">
<ele>10.624</ele>
<time>2018-01-09T22:57:48.645Z</time>
</trkpt>
<trkpt lat="-27.2913024" lon="152.9533925">
<ele>9.840</ele>
<time>2018-01-09T22:57:50.812Z</time>
</trkpt>
<trkpt lat="-27.2912334" lon="152.9535906">
<ele>9.111</ele>
<time>2018-01-09T22:57:54.008Z</time>
</trkpt>
<trkpt lat="-27.2909045" lon="152.9535241">
<ele>8.643</ele>
<time>2018-01-09T22:57:58.024Z</time>
</trkpt>
<trkpt lat="-27.2905786" lon="152.9533879">
<ele>8.344</ele>
<time>2018-01-09T22:58:01.079Z</time>
</trkpt>
<trkpt lat="-27.2901778" lon="152.9531768">
<ele>7.967</ele>
<time>2018-01-09T22:58:04.421Z</time>
</trkpt>
<trkpt lat="-27.2897580" lon="152.9530161">
<ele>7.130</ele>
<time>2018-01-09T22:58:07.531Z</time>
</trkpt>
<trkpt lat="-27.2893620" lon="152.9528830">
<ele>5.797</ele>
<time>2018-01-09T22:58:10.408Z</time>
</trkpt>
<trkpt lat="-27.2889466" lon="152.9527476">
<ele>4.523</ele>
<time>2018-01-09T22:58:13.458Z</time>
</trkpt>
<trkpt lat="-27.2885675" lon="152.9526213">
<ele>3.627</ele>
<time>2018-01-09T22:58:16.265Z</time>
</trkpt>
<trkpt lat="-27.2881636" lon="152.9524647">
<ele>2.811</ele>
<time>2018-01-09T22:58:19.268Z</time>
</trkpt>
<trkpt lat="-27.2877769" lon="152.9522787">
<ele>1.983</ele>
<time>2018-01-09T22:58:22.193Z</time>
</trkpt>
<trkpt lat="-27.2873825" lon="152.9521155">
<ele>1.413</ele>
<time>2018-01-09T22:58:25.136Z</time>
</trkpt>
<trkpt lat="-27.2869858" lon="152.9519948">
<ele>0.989</ele>
<time>2018-01-09T22:58:28.043Z</time>
</trkpt>
<trkpt lat="-27.2865928" lon="152.9518570">
<ele>0.454</ele>
<time>2018-01-09T22:58:30.945Z</time>
</trkpt>
<trkpt lat="-27.2861515" lon="152.9516986">
<ele>0.000</ele>
<time>2018-01-09T22:58:34.183Z</time>
</trkpt>
<trkpt lat="-27.2857528" lon="152.9515060">
<ele>0.000</ele>
<time>2018-01-09T22:58:37.201Z</time>
</trkpt>
<trkpt lat="-27.2853240" lon="152.9513928">
<ele>0.000</ele>
<time>2018-01-09T22:58:40.244Z</time>
</trkpt>
<trkpt lat="-27.2849165" lon="152.9512519">
<ele>0.177</ele>
<time>2018-01-09T22:58:43.195Z</time>
</trkpt>
<trkpt lat="-27.2845288" lon="152.9510931">
<ele>0.290</ele>
<time>2018-01-09T22:58:46.050Z</time>
</trkpt>
<trkpt lat="-27.2841013" lon="152.9508957">
<ele>0.375</ele>
<time>2018-01-09T22:58:49.223Z</time>
</trkpt>
<trkpt lat="-27.2837194" lon="152.9507212">
<ele>0.511</ele>
<time>2018-01-09T22:58:52.196Z</time>
</trkpt>
<trkpt lat="-27.2833951" lon="152.9505856">
<ele>0.662</ele>
<time>2018-01-09T22:58:55.226Z</time>
</trkpt>
<trkpt lat="-27.2832446" lon="152.9505198">
<ele>0.812</ele>
<time>2018-01-09T22:58:56.996Z</time>
</trkpt>
<trkpt lat="-27.2832446" lon="152.9505198">
<ele>0.981</ele>
<time>2018-01-09T22:59:00.996Z</time>
</trkpt>
<trkpt lat="-27.2832446" lon="152.9505198">
<ele>1.089</ele>
<time>2018-01-09T22:59:14.850Z</time>
</trkpt>
<trkpt lat="-27.2831146" lon="152.9505356">
<ele>1.083</ele>
<time>2018-01-09T22:59:20.882Z</time>
</trkpt>
<trkpt lat="-27.2827441" lon="152.9503745">
<ele>2.153</ele>
<time>2018-01-09T22:59:24.810Z</time>
</trkpt>
<trkpt lat="-27.2823025" lon="152.9501929">
<ele>5.047</ele>
<time>2018-01-09T22:59:28.081Z</time>
</trkpt>
<trkpt lat="-27.2818484" lon="152.9499957">
<ele>7.910</ele>
<time>2018-01-09T22:59:31.281Z</time>
</trkpt>
<trkpt lat="-27.2814329" lon="152.9498263">
<ele>8.883</ele>
<time>2018-01-09T22:59:34.135Z</time>
</trkpt>
<trkpt lat="-27.2809957" lon="152.9496535">
<ele>8.300</ele>
<time>2018-01-09T22:59:37.120Z</time>
</trkpt>
<trkpt lat="-27.2805553" lon="152.9495094">
<ele>6.951</ele>
<time>2018-01-09T22:59:40.082Z</time>
</trkpt>
<trkpt lat="-27.2801169" lon="152.9493618">
<ele>5.497</ele>
<time>2018-01-09T22:59:43.065Z</time>
</trkpt>
<trkpt lat="-27.2796974" lon="152.9492200">
<ele>4.405</ele>
<time>2018-01-09T22:59:45.869Z</time>
</trkpt>
<trkpt lat="-27.2792208" lon="152.9491737">
<ele>3.746</ele>
<time>2018-01-09T22:59:48.815Z</time>
</trkpt>
<trkpt lat="-27.2786996" lon="152.9492690">
<ele>3.240</ele>
<time>2018-01-09T22:59:52.001Z</time>
</trkpt>
<trkpt lat="-27.2782208" lon="152.9493869">
<ele>2.693</ele>
<time>2018-01-09T22:59:54.951Z</time>
</trkpt>
<trkpt lat="-27.2777651" lon="152.9495417">
<ele>2.214</ele>
<time>2018-01-09T22:59:57.811Z</time>
</trkpt>
<trkpt lat="-27.2773156" lon="152.9497883">
<ele>1.963</ele>
<time>2018-01-09T23:00:00.816Z</time>
</trkpt>
<trkpt lat="-27.2768615" lon="152.9500173">
<ele>1.884</ele>
<time>2018-01-09T23:00:03.811Z</time>
</trkpt>
<trkpt lat="-27.2764100" lon="152.9502213">
<ele>2.257</ele>
<time>2018-01-09T23:00:06.735Z</time>
</trkpt>
<trkpt lat="-27.2759377" lon="152.9504380">
<ele>3.528</ele>
<time>2018-01-09T23:00:09.785Z</time>
</trkpt>
<trkpt lat="-27.2754791" lon="152.9506327">
<ele>5.489</ele>
<time>2018-01-09T23:00:12.711Z</time>
</trkpt>
<trkpt lat="-27.2750282" lon="152.9507703">
<ele>7.298</ele>
<time>2018-01-09T23:00:15.509Z</time>
</trkpt>
<trkpt lat="-27.2745321" lon="152.9509438">
<ele>8.331</ele>
<time>2018-01-09T23:00:18.645Z</time>
</trkpt>
<trkpt lat="-27.2740869" lon="152.9511760">
<ele>8.647</ele>
<time>2018-01-09T23:00:21.763Z</time>
</trkpt>
<trkpt lat="-27.2737379" lon="152.9513370">
<ele>8.770</ele>
<time>2018-01-09T23:00:24.518Z</time>
</trkpt>
<trkpt lat="-27.2734230" lon="152.9514426">
<ele>8.999</ele>
<time>2018-01-09T23:00:27.337Z</time>
</trkpt>
<trkpt lat="-27.2732348" lon="152.9514711">
<ele>9.251</ele>
<time>2018-01-09T23:00:29.033Z</time>
</trkpt>
<trkpt lat="-27.2729327" lon="152.9516933">
<ele>9.371</ele>
<time>2018-01-09T23:00:32.018Z</time>
</trkpt>
<trkpt lat="-27.2725317" lon="152.9518520">
<ele>9.147</ele>
<time>2018-01-09T23:00:35.067Z</time>
</trkpt>
<trkpt lat="-27.2720628" lon="152.9520491">
<ele>8.270</ele>
<time>2018-01-09T23:00:38.255Z</time>
</trkpt>
<trkpt lat="-27.2715913" lon="152.9522301">
<ele>6.826</ele>
<time>2018-01-09T23:00:41.292Z</time>
</trkpt>
<trkpt lat="-27.2711346" lon="152.9524070">
<ele>5.445</ele>
<time>2018-01-09T23:00:44.246Z</time>
</trkpt>
<trkpt lat="-27.2706810" lon="152.9525648">
<ele>4.640</ele>
<time>2018-01-09T23:00:47.153Z</time>
</trkpt>
<trkpt lat="-27.2702186" lon="152.9527499">
<ele>4.483</ele>
<time>2018-01-09T23:00:50.155Z</time>
</trkpt>
<trkpt lat="-27.2697585" lon="152.9529373">
<ele>4.800</ele>
<time>2018-01-09T23:00:53.201Z</time>
</trkpt>
<trkpt lat="-27.2693437" lon="152.9531242">
<ele>5.304</ele>
<time>2018-01-09T23:00:56.144Z</time>
</trkpt>
<trkpt lat="-27.2689716" lon="152.9532485">
<ele>5.758</ele>
<time>2018-01-09T23:00:58.857Z</time>
</trkpt>
<trkpt lat="-27.2685673" lon="152.9533829">
<ele>6.251</ele>
<time>2018-01-09T23:01:01.835Z</time>
</trkpt>
<trkpt lat="-27.2681471" lon="152.9536008">
<ele>6.887</ele>
<time>2018-01-09T23:01:05.042Z</time>
</trkpt>
<trkpt lat="-27.2677857" lon="152.9538468">
<ele>7.742</ele>
<time>2018-01-09T23:01:07.944Z</time>
</trkpt>
<trkpt lat="-27.2675971" lon="152.9542947">
<ele>8.790</ele>
<time>2018-01-09T23:01:10.953Z</time>
</trkpt>
<trkpt lat="-27.2676049" lon="152.9548284">
<ele>9.459</ele>
<time>2018-01-09T23:01:14.118Z</time>
</trkpt>
<trkpt lat="-27.2676027" lon="152.9553124">
<ele>8.803</ele>
<time>2018-01-09T23:01:16.902Z</time>
</trkpt>
<trkpt lat="-27.2676051" lon="152.9558436">
<ele>6.538</ele>
<time>2018-01-09T23:01:19.960Z</time>
</trkpt>
<trkpt lat="-27.2675624" lon="152.9563117">
<ele>3.254</ele>
<time>2018-01-09T23:01:22.854Z</time>
</trkpt>
<trkpt lat="-27.2671951" lon="152.9565183">
<ele>0.000</ele>
<time>2018-01-09T23:01:25.953Z</time>
</trkpt>
<trkpt lat="-27.2667686" lon="152.9565813">
<ele>0.000</ele>
<time>2018-01-09T23:01:29.145Z</time>
</trkpt>
<trkpt lat="-27.2663346" lon="152.9563815">
<ele>0.000</ele>
<time>2018-01-09T23:01:32.387Z</time>
</trkpt>
<trkpt lat="-27.2659275" lon="152.9562090">
<ele>0.000</ele>
<time>2018-01-09T23:01:35.362Z</time>
</trkpt>
<trkpt lat="-27.2655092" lon="152.9561579">
<ele>0.000</ele>
<time>2018-01-09T23:01:38.275Z</time>
</trkpt>
<trkpt lat="-27.2650820" lon="152.9563303">
<ele>0.000</ele>
<time>2018-01-09T23:01:41.372Z</time>
</trkpt>
<trkpt lat="-27.2646505" lon="152.9565345">
<ele>0.000</ele>
<time>2018-01-09T23:01:44.513Z</time>
</trkpt>
<trkpt lat="-27.2642343" lon="152.9566934">
<ele>0.000</ele>
<time>2018-01-09T23:01:47.489Z</time>
</trkpt>
<trkpt lat="-27.2638447" lon="152.9569164">
<ele>1.200</ele>
<time>2018-01-09T23:01:50.496Z</time>
</trkpt>
<trkpt lat="-27.2634657" lon="152.9570885">
<ele>1.770</ele>
<time>2018-01-09T23:01:53.382Z</time>
</trkpt>
<trkpt lat="-27.2632297" lon="152.9571970">
<ele>1.865</ele>
<time>2018-01-09T23:01:55.291Z</time>
</trkpt>
<trkpt lat="-27.2629371" lon="152.9574425">
<ele>2.251</ele>
<time>2018-01-09T23:01:58.289Z</time>
</trkpt>
<trkpt lat="-27.2627731" lon="152.9576450">
<ele>3.073</ele>
<time>2018-01-09T23:02:00.731Z</time>
</trkpt>
<trkpt lat="-27.2626027" lon="152.9576999">
<ele>3.944</ele>
<time>2018-01-09T23:02:03.046Z</time>
</trkpt>
<trkpt lat="-27.2623406" lon="152.9574693">
<ele>4.405</ele>
<time>2018-01-09T23:02:06.925Z</time>
</trkpt>
<trkpt lat="-27.2620474" lon="152.9572051">
<ele>4.353</ele>
<time>2018-01-09T23:02:10.234Z</time>
</trkpt>
<trkpt lat="-27.2617627" lon="152.9569267">
<ele>4.124</ele>
<time>2018-01-09T23:02:13.208Z</time>
</trkpt>
<trkpt lat="-27.2614458" lon="152.9566110">
<ele>4.199</ele>
<time>2018-01-09T23:02:16.343Z</time>
</trkpt>
<trkpt lat="-27.2611096" lon="152.9562659">
<ele>4.837</ele>
<time>2018-01-09T23:02:19.581Z</time>
</trkpt>
<trkpt lat="-27.2608468" lon="152.9559090">
<ele>5.875</ele>
<time>2018-01-09T23:02:22.417Z</time>
</trkpt>
<trkpt lat="-27.2605710" lon="152.9554734">
<ele>7.183</ele>
<time>2018-01-09T23:02:25.557Z</time>
</trkpt>
<trkpt lat="-27.2603290" lon="152.9550121">
<ele>8.959</ele>
<time>2018-01-09T23:02:28.621Z</time>
</trkpt>
<trkpt lat="-27.2600934" lon="152.9545519">
<ele>11.240</ele>
<time>2018-01-09T23:02:31.646Z</time>
</trkpt>
<trkpt lat="-27.2598412" lon="152.9541281">
<ele>13.626</ele>
<time>2018-01-09T23:02:34.506Z</time>
</trkpt>
<trkpt lat="-27.2596043" lon="152.9536708">
<ele>15.551</ele>
<time>2018-01-09T23:02:37.363Z</time>
</trkpt>
<trkpt lat="-27.2593320" lon="152.9531602">
<ele>16.672</ele>
<time>2018-01-09T23:02:40.487Z</time>
</trkpt>
<trkpt lat="-27.2590697" lon="152.9527111">
<ele>17.245</ele>
<time>2018-01-09T23:02:43.318Z</time>
</trkpt>
<trkpt lat="-27.2588098" lon="152.9522119">
<ele>17.878</ele>
<time>2018-01-09T23:02:46.388Z</time>
</trkpt>
<trkpt lat="-27.2585613" lon="152.9517337">
<ele>18.949</ele>
<time>2018-01-09T23:02:49.343Z</time>
</trkpt>
<trkpt lat="-27.2582866" lon="152.9512747">
<ele>20.229</ele>
<time>2018-01-09T23:02:52.308Z</time>
</trkpt>
<trkpt lat="-27.2579757" lon="152.9508366">
<ele>21.183</ele>
<time>2018-01-09T23:02:55.300Z</time>
</trkpt>
<trkpt lat="-27.2576341" lon="152.9504385">
<ele>21.489</ele>
<time>2018-01-09T23:02:58.241Z</time>
</trkpt>
<trkpt lat="-27.2572462" lon="152.9500917">
<ele>21.289</ele>
<time>2018-01-09T23:03:01.208Z</time>
</trkpt>
<trkpt lat="-27.2568349" lon="152.9498091">
<ele>21.142</ele>
<time>2018-01-09T23:03:04.083Z</time>
</trkpt>
<trkpt lat="-27.2563548" lon="152.9495788">
<ele>21.570</ele>
<time>2018-01-09T23:03:07.148Z</time>
</trkpt>
<trkpt lat="-27.2559243" lon="152.9492970">
<ele>22.490</ele>
<time>2018-01-09T23:03:10.046Z</time>
</trkpt>
<trkpt lat="-27.2555589" lon="152.9488389">
<ele>23.712</ele>
<time>2018-01-09T23:03:13.215Z</time>
</trkpt>
<trkpt lat="-27.2553484" lon="152.9483096">
<ele>25.336</ele>
<time>2018-01-09T23:03:16.200Z</time>
</trkpt>
<trkpt lat="-27.2551896" lon="152.9477632">
<ele>27.370</ele>
<time>2018-01-09T23:03:19.175Z</time>
</trkpt>
<trkpt lat="-27.2552174" lon="152.9471664">
<ele>29.465</ele>
<time>2018-01-09T23:03:22.270Z</time>
</trkpt>
<trkpt lat="-27.2552213" lon="152.9465737">
<ele>31.140</ele>
<time>2018-01-09T23:03:25.373Z</time>
</trkpt>
<trkpt lat="-27.2552336" lon="152.9460165">
<ele>32.103</ele>
<time>2018-01-09T23:03:28.320Z</time>
</trkpt>
<trkpt lat="-27.2552526" lon="152.9454714">
<ele>32.327</ele>
<time>2018-01-09T23:03:31.218Z</time>
</trkpt>
<trkpt lat="-27.2552203" lon="152.9449432">
<ele>31.804</ele>
<time>2018-01-09T23:03:34.060Z</time>
</trkpt>
<trkpt lat="-27.2551861" lon="152.9443588">
<ele>30.760</ele>
<time>2018-01-09T23:03:37.203Z</time>
</trkpt>
<trkpt lat="-27.2550834" lon="152.9438107">
<ele>29.758</ele>
<time>2018-01-09T23:03:40.165Z</time>
</trkpt>
<trkpt lat="-27.2549272" lon="152.9432719">
<ele>29.608</ele>
<time>2018-01-09T23:03:43.146Z</time>
</trkpt>
<trkpt lat="-27.2547870" lon="152.9427502">
<ele>30.999</ele>
<time>2018-01-09T23:03:46.028Z</time>
</trkpt>
<trkpt lat="-27.2546203" lon="152.9421976">
<ele>33.864</ele>
<time>2018-01-09T23:03:49.114Z</time>
</trkpt>
<trkpt lat="-27.2544973" lon="152.9416655">
<ele>37.409</ele>
<time>2018-01-09T23:03:52.011Z</time>
</trkpt>
<trkpt lat="-27.2543809" lon="152.9411220">
<ele>40.990</ele>
<time>2018-01-09T23:03:54.947Z</time>
</trkpt>
<trkpt lat="-27.2541559" lon="152.9406003">
<ele>44.449</ele>
<time>2018-01-09T23:03:57.967Z</time>
</trkpt>
<trkpt lat="-27.2539271" lon="152.9400810">
<ele>47.497</ele>
<time>2018-01-09T23:04:00.945Z</time>
</trkpt>
<trkpt lat="-27.2536772" lon="152.9395829">
<ele>49.496</ele>
<time>2018-01-09T23:04:03.864Z</time>
</trkpt>
<trkpt lat="-27.2534097" lon="152.9390925">
<ele>50.034</ele>
<time>2018-01-09T23:04:06.817Z</time>
</trkpt>
<trkpt lat="-27.2531053" lon="152.9386160">
<ele>49.424</ele>
<time>2018-01-09T23:04:09.882Z</time>
</trkpt>
<trkpt lat="-27.2527878" lon="152.9381842">
<ele>48.418</ele>
<time>2018-01-09T23:04:12.829Z</time>
</trkpt>
<trkpt lat="-27.2524235" lon="152.9377921">
<ele>47.500</ele>
<time>2018-01-09T23:04:15.807Z</time>
</trkpt>
<trkpt lat="-27.2520689" lon="152.9374204">
<ele>46.805</ele>
<time>2018-01-09T23:04:18.690Z</time>
</trkpt>
<trkpt lat="-27.2517407" lon="152.9370189">
<ele>46.487</ele>
<time>2018-01-09T23:04:21.613Z</time>
</trkpt>
<trkpt lat="-27.2514655" lon="152.9365592">
<ele>46.724</ele>
<time>2018-01-09T23:04:24.580Z</time>
</trkpt>
<trkpt lat="-27.2512366" lon="152.9360341">
<ele>47.756</ele>
<time>2018-01-09T23:04:27.681Z</time>
</trkpt>
<trkpt lat="-27.2510171" lon="152.9355369">
<ele>49.429</ele>
<time>2018-01-09T23:04:30.608Z</time>
</trkpt>
<trkpt lat="-27.2507807" lon="152.9350316">
<ele>51.061</ele>
<time>2018-01-09T23:04:33.592Z</time>
</trkpt>
<trkpt lat="-27.2504602" lon="152.9345732">
<ele>52.294</ele>
<time>2018-01-09T23:04:36.622Z</time>
</trkpt>
<trkpt lat="-27.2501534" lon="152.9341032">
<ele>53.247</ele>
<time>2018-01-09T23:04:39.652Z</time>
</trkpt>
<trkpt lat="-27.2497493" lon="152.9337502">
<ele>54.233</ele>
<time>2018-01-09T23:04:42.632Z</time>
</trkpt>
<trkpt lat="-27.2493470" lon="152.9334096">
<ele>55.563</ele>
<time>2018-01-09T23:04:45.539Z</time>
</trkpt>
<trkpt lat="-27.2489365" lon="152.9330543">
<ele>57.166</ele>
<time>2018-01-09T23:04:48.512Z</time>
</trkpt>
<trkpt lat="-27.2485221" lon="152.9326848">
<ele>58.683</ele>
<time>2018-01-09T23:04:51.538Z</time>
</trkpt>
<trkpt lat="-27.2481369" lon="152.9322869">
<ele>59.820</ele>
<time>2018-01-09T23:04:54.542Z</time>
</trkpt>
<trkpt lat="-27.2478534" lon="152.9317930">
<ele>60.461</ele>
<time>2018-01-09T23:04:57.565Z</time>
</trkpt>
<trkpt lat="-27.2477701" lon="152.9312253">
<ele>60.722</ele>
<time>2018-01-09T23:05:00.559Z</time>
</trkpt>
<trkpt lat="-27.2478555" lon="152.9306610">
<ele>61.028</ele>
<time>2018-01-09T23:05:03.566Z</time>
</trkpt>
<trkpt lat="-27.2480809" lon="152.9300648">
<ele>61.880</ele>
<time>2018-01-09T23:05:06.904Z</time>
</trkpt>
<trkpt lat="-27.2483231" lon="152.9295758">
<ele>63.414</ele>
<time>2018-01-09T23:05:09.764Z</time>
</trkpt>
<trkpt lat="-27.2485566" lon="152.9290592">
<ele>65.603</ele>
<time>2018-01-09T23:05:12.734Z</time>
</trkpt>
<trkpt lat="-27.2487416" lon="152.9285019">
<ele>68.230</ele>
<time>2018-01-09T23:05:15.753Z</time>
</trkpt>
<trkpt lat="-27.2487466" lon="152.9278868">
<ele>70.539</ele>
<time>2018-01-09T23:05:18.870Z</time>
</trkpt>
<trkpt lat="-27.2487049" lon="152.9273333">
<ele>71.869</ele>
<time>2018-01-09T23:05:21.730Z</time>
</trkpt>
<trkpt lat="-27.2485881" lon="152.9267832">
<ele>72.349</ele>
<time>2018-01-09T23:05:24.674Z</time>
</trkpt>
<trkpt lat="-27.2483707" lon="152.9262687">
<ele>72.605</ele>
<time>2018-01-09T23:05:27.624Z</time>
</trkpt>
<trkpt lat="-27.2481727" lon="152.9257694">
<ele>73.393</ele>
<time>2018-01-09T23:05:30.458Z</time>
</trkpt>
<trkpt lat="-27.2479331" lon="152.9252323">
<ele>75.277</ele>
<time>2018-01-09T23:05:33.586Z</time>
</trkpt>
<trkpt lat="-27.2476967" lon="152.9247190">
<ele>78.086</ele>
<time>2018-01-09T23:05:36.569Z</time>
</trkpt>
<trkpt lat="-27.2474483" lon="152.9242034">
<ele>81.020</ele>
<time>2018-01-09T23:05:39.562Z</time>
</trkpt>
<trkpt lat="-27.2471558" lon="152.9236977">
<ele>83.453</ele>
<time>2018-01-09T23:05:42.614Z</time>
</trkpt>
<trkpt lat="-27.2468507" lon="152.9232306">
<ele>85.284</ele>
<time>2018-01-09T23:05:45.557Z</time>
</trkpt>
<trkpt lat="-27.2465198" lon="152.9227614">
<ele>86.815</ele>
<time>2018-01-09T23:05:48.608Z</time>
</trkpt>
<trkpt lat="-27.2461863" lon="152.9223262">
<ele>88.492</ele>
<time>2018-01-09T23:05:51.530Z</time>
</trkpt>
<trkpt lat="-27.2457985" lon="152.9219166">
<ele>90.403</ele>
<time>2018-01-09T23:05:54.584Z</time>
</trkpt>
<trkpt lat="-27.2454325" lon="152.9215511">
<ele>92.232</ele>
<time>2018-01-09T23:05:57.397Z</time>
</trkpt>
<trkpt lat="-27.2449976" lon="152.9211883">
<ele>93.829</ele>
<time>2018-01-09T23:06:00.494Z</time>
</trkpt>
<trkpt lat="-27.2445720" lon="152.9208398">
<ele>95.423</ele>
<time>2018-01-09T23:06:03.491Z</time>
</trkpt>
<trkpt lat="-27.2441204" lon="152.9205390">
<ele>97.322</ele>
<time>2018-01-09T23:06:06.474Z</time>
</trkpt>
<trkpt lat="-27.2436821" lon="152.9202156">
<ele>99.540</ele>
<time>2018-01-09T23:06:09.435Z</time>
</trkpt>
<trkpt lat="-27.2432207" lon="152.9199310">
<ele>101.503</ele>
<time>2018-01-09T23:06:12.399Z</time>
</trkpt>
<trkpt lat="-27.2427318" lon="152.9196920">
<ele>102.445</ele>
<time>2018-01-09T23:06:15.398Z</time>
</trkpt>
<trkpt lat="-27.2422639" lon="152.9194427">
<ele>102.130</ele>
<time>2018-01-09T23:06:18.302Z</time>
</trkpt>
<trkpt lat="-27.2417778" lon="152.9192195">
<ele>100.709</ele>
<time>2018-01-09T23:06:21.227Z</time>
</trkpt>
<trkpt lat="-27.2412694" lon="152.9189834">
<ele>98.339</ele>
<time>2018-01-09T23:06:24.198Z</time>
</trkpt>
<trkpt lat="-27.2406585" lon="152.9187395">
<ele>95.183</ele>
<time>2018-01-09T23:06:27.370Z</time>
</trkpt>
<trkpt lat="-27.2400075" lon="152.9184372">
<ele>91.394</ele>
<time>2018-01-09T23:06:30.474Z</time>
</trkpt>
<trkpt lat="-27.2393356" lon="152.9180776">
<ele>87.225</ele>
<time>2018-01-09T23:06:33.609Z</time>
</trkpt>
<trkpt lat="-27.2387199" lon="152.9177502">
<ele>83.287</ele>
<time>2018-01-09T23:06:36.495Z</time>
</trkpt>
<trkpt lat="-27.2381230" lon="152.9174065">
<ele>80.023</ele>
<time>2018-01-09T23:06:39.386Z</time>
</trkpt>
<trkpt lat="-27.2375408" lon="152.9169843">
<ele>77.162</ele>
<time>2018-01-09T23:06:42.370Z</time>
</trkpt>
<trkpt lat="-27.2369611" lon="152.9165188">
<ele>74.338</ele>
<time>2018-01-09T23:06:45.397Z</time>
</trkpt>
<trkpt lat="-27.2364565" lon="152.9159456">
<ele>71.735</ele>
<time>2018-01-09T23:06:48.422Z</time>
</trkpt>
<trkpt lat="-27.2359529" lon="152.9153588">
<ele>69.788</ele>
<time>2018-01-09T23:06:51.484Z</time>
</trkpt>
<trkpt lat="-27.2355016" lon="152.9147662">
<ele>68.630</ele>
<time>2018-01-09T23:06:54.417Z</time>
</trkpt>
<trkpt lat="-27.2350742" lon="152.9141318">
<ele>67.688</ele>
<time>2018-01-09T23:06:57.416Z</time>
</trkpt>
<trkpt lat="-27.2346919" lon="152.9134710">
<ele>66.447</ele>
<time>2018-01-09T23:07:00.385Z</time>
</trkpt>
<trkpt lat="-27.2343450" lon="152.9127823">
<ele>65.297</ele>
<time>2018-01-09T23:07:03.346Z</time>
</trkpt>
<trkpt lat="-27.2339578" lon="152.9121238">
<ele>64.895</ele>
<time>2018-01-09T23:07:06.292Z</time>
</trkpt>
<trkpt lat="-27.2335960" lon="152.9114585">
<ele>65.626</ele>
<time>2018-01-09T23:07:09.222Z</time>
</trkpt>
<trkpt lat="-27.2332079" lon="152.9108066">
<ele>67.514</ele>
<time>2018-01-09T23:07:12.169Z</time>
</trkpt>
<trkpt lat="-27.2327783" lon="152.9102107">
<ele>70.048</ele>
<time>2018-01-09T23:07:15.072Z</time>
</trkpt>
<trkpt lat="-27.2323072" lon="152.9096284">
<ele>72.496</ele>
<time>2018-01-09T23:07:18.095Z</time>
</trkpt>
<trkpt lat="-27.2318211" lon="152.9090978">
<ele>74.333</ele>
<time>2018-01-09T23:07:21.035Z</time>
</trkpt>
<trkpt lat="-27.2313031" lon="152.9086161">
<ele>75.472</ele>
<time>2018-01-09T23:07:23.992Z</time>
</trkpt>
<trkpt lat="-27.2307858" lon="152.9081397">
<ele>76.128</ele>
<time>2018-01-09T23:07:26.957Z</time>
</trkpt>
<trkpt lat="-27.2302368" lon="152.9076883">
<ele>76.453</ele>
<time>2018-01-09T23:07:29.952Z</time>
</trkpt>
<trkpt lat="-27.2298865" lon="152.9073755">
<ele>76.508</ele>
<time>2018-01-09T23:07:31.914Z</time>
</trkpt>
<trkpt lat="-27.2293638" lon="152.9069088">
<ele>76.415</ele>
<time>2018-01-09T23:07:34.874Z</time>
</trkpt>
<trkpt lat="-27.2288750" lon="152.9065048">
<ele>76.248</ele>
<time>2018-01-09T23:07:37.671Z</time>
</trkpt>
<trkpt lat="-27.2284960" lon="152.9060672">
<ele>76.039</ele>
<time>2018-01-09T23:07:40.348Z</time>
</trkpt>
<trkpt lat="-27.2281527" lon="152.9056701">
<ele>75.763</ele>
<time>2018-01-09T23:07:43.002Z</time>
</trkpt>
<trkpt lat="-27.2279142" lon="152.9053687">
<ele>75.374</ele>
<time>2018-01-09T23:07:45.189Z</time>
</trkpt>
<trkpt lat="-27.2277938" lon="152.9052505">
<ele>74.845</ele>
<time>2018-01-09T23:07:46.253Z</time>
</trkpt>
<trkpt lat="-27.2275763" lon="152.9052240">
<ele>74.011</ele>
<time>2018-01-09T23:07:48.052Z</time>
</trkpt>
<trkpt lat="-27.2273820" lon="152.9049947">
<ele>72.877</ele>
<time>2018-01-09T23:07:51.184Z</time>
</trkpt>
<trkpt lat="-27.2272251" lon="152.9047382">
<ele>71.926</ele>
<time>2018-01-09T23:07:54.839Z</time>
</trkpt>
<trkpt lat="-27.2270687" lon="152.9045580">
<ele>71.926</ele>
<time>2018-01-09T23:07:57.439Z</time>
</trkpt>
<trkpt lat="-27.2268397" lon="152.9045494">
<ele>73.323</ele>
<time>2018-01-09T23:08:00.037Z</time>
</trkpt>
<trkpt lat="-27.2266004" lon="152.9046616">
<ele>75.411</ele>
<time>2018-01-09T23:08:03.260Z</time>
</trkpt>
<trkpt lat="-27.2262719" lon="152.9048364">
<ele>76.921</ele>
<time>2018-01-09T23:08:07.899Z</time>
</trkpt>
<trkpt lat="-27.2259519" lon="152.9051571">
<ele>77.493</ele>
<time>2018-01-09T23:08:12.002Z</time>
</trkpt>
<trkpt lat="-27.2256426" lon="152.9054665">
<ele>77.531</ele>
<time>2018-01-09T23:08:15.268Z</time>
</trkpt>
<trkpt lat="-27.2254533" lon="152.9058924">
<ele>77.264</ele>
<time>2018-01-09T23:08:18.399Z</time>
</trkpt>
<trkpt lat="-27.2252623" lon="152.9063157">
<ele>76.740</ele>
<time>2018-01-09T23:08:21.538Z</time>
</trkpt>
<trkpt lat="-27.2250734" lon="152.9067395">
<ele>76.208</ele>
<time>2018-01-09T23:08:24.633Z</time>
</trkpt>
<trkpt lat="-27.2247483" lon="152.9069257">
<ele>76.180</ele>
<time>2018-01-09T23:08:27.370Z</time>
</trkpt>
<trkpt lat="-27.2243307" lon="152.9067082">
<ele>77.136</ele>
<time>2018-01-09T23:08:30.976Z</time>
</trkpt>
<trkpt lat="-27.2238981" lon="152.9064967">
<ele>78.818</ele>
<time>2018-01-09T23:08:34.382Z</time>
</trkpt>
<trkpt lat="-27.2234844" lon="152.9062876">
<ele>80.369</ele>
<time>2018-01-09T23:08:37.400Z</time>
</trkpt>
<trkpt lat="-27.2230808" lon="152.9060203">
<ele>81.468</ele>
<time>2018-01-09T23:08:40.504Z</time>
</trkpt>
<trkpt lat="-27.2227996" lon="152.9056283">
<ele>82.246</ele>
<time>2018-01-09T23:08:43.540Z</time>
</trkpt>
<trkpt lat="-27.2225582" lon="152.9051805">
<ele>82.673</ele>
<time>2018-01-09T23:08:46.707Z</time>
</trkpt>
<trkpt lat="-27.2222653" lon="152.9048186">
<ele>82.897</ele>
<time>2018-01-09T23:08:49.644Z</time>
</trkpt>
<trkpt lat="-27.2219220" lon="152.9045958">
<ele>83.164</ele>
<time>2018-01-09T23:08:52.343Z</time>
</trkpt>
<trkpt lat="-27.2215549" lon="152.9043657">
<ele>83.242</ele>
<time>2018-01-09T23:08:55.215Z</time>
</trkpt>
<trkpt lat="-27.2212020" lon="152.9040657">
<ele>82.642</ele>
<time>2018-01-09T23:08:58.183Z</time>
</trkpt>
<trkpt lat="-27.2207833" lon="152.9037773">
<ele>81.521</ele>
<time>2018-01-09T23:09:01.390Z</time>
</trkpt>
<trkpt lat="-27.2205113" lon="152.9033938">
<ele>80.639</ele>
<time>2018-01-09T23:09:04.322Z</time>
</trkpt>
<trkpt lat="-27.2203674" lon="152.9029303">
<ele>80.651</ele>
<time>2018-01-09T23:09:07.351Z</time>
</trkpt>
<trkpt lat="-27.2201285" lon="152.9025244">
<ele>81.747</ele>
<time>2018-01-09T23:09:10.309Z</time>
</trkpt>
<trkpt lat="-27.2198229" lon="152.9021926">
<ele>83.421</ele>
<time>2018-01-09T23:09:13.186Z</time>
</trkpt>
<trkpt lat="-27.2194075" lon="152.9020783">
<ele>84.904</ele>
<time>2018-01-09T23:09:16.073Z</time>
</trkpt>
<trkpt lat="-27.2189794" lon="152.9019252">
<ele>85.872</ele>
<time>2018-01-09T23:09:19.086Z</time>
</trkpt>
<trkpt lat="-27.2185609" lon="152.9018137">
<ele>86.154</ele>
<time>2018-01-09T23:09:21.974Z</time>
</trkpt>
<trkpt lat="-27.2181432" lon="152.9017079">
<ele>85.603</ele>
<time>2018-01-09T23:09:24.879Z</time>
</trkpt>
<trkpt lat="-27.2177307" lon="152.9015172">
<ele>84.555</ele>
<time>2018-01-09T23:09:27.932Z</time>
</trkpt>
<trkpt lat="-27.2173998" lon="152.9011810">
<ele>83.632</ele>
<time>2018-01-09T23:09:30.984Z</time>
</trkpt>
<trkpt lat="-27.2170853" lon="152.9008242">
<ele>83.466</ele>
<time>2018-01-09T23:09:34.017Z</time>
</trkpt>
<trkpt lat="-27.2167478" lon="152.9005002">
<ele>84.582</ele>
<time>2018-01-09T23:09:37.019Z</time>
</trkpt>
<trkpt lat="-27.2163772" lon="152.9002232">
<ele>87.098</ele>
<time>2018-01-09T23:09:40.056Z</time>
</trkpt>
<trkpt lat="-27.2159081" lon="152.9002323">
<ele>90.542</ele>
<time>2018-01-09T23:09:43.245Z</time>
</trkpt>
<trkpt lat="-27.2154720" lon="152.9003433">
<ele>93.917</ele>
<time>2018-01-09T23:09:46.237Z</time>
</trkpt>
<trkpt lat="-27.2150991" lon="152.9006676">
<ele>96.173</ele>
<time>2018-01-09T23:09:49.328Z</time>
</trkpt>
<trkpt lat="-27.2147672" lon="152.9010591">
<ele>96.603</ele>
<time>2018-01-09T23:09:52.405Z</time>
</trkpt>
<trkpt lat="-27.2144975" lon="152.9014773">
<ele>94.952</ele>
<time>2018-01-09T23:09:55.375Z</time>
</trkpt>
<trkpt lat="-27.2141757" lon="152.9018554">
<ele>91.705</ele>
<time>2018-01-09T23:09:58.456Z</time>
</trkpt>
<trkpt lat="-27.2137969" lon="152.9020693">
<ele>87.948</ele>
<time>2018-01-09T23:10:01.296Z</time>
</trkpt>
<trkpt lat="-27.2134105" lon="152.9023057">
<ele>84.573</ele>
<time>2018-01-09T23:10:04.249Z</time>
</trkpt>
<trkpt lat="-27.2130246" lon="152.9025236">
<ele>82.082</ele>
<time>2018-01-09T23:10:07.152Z</time>
</trkpt>
<trkpt lat="-27.2126372" lon="152.9028104">
<ele>80.667</ele>
<time>2018-01-09T23:10:10.273Z</time>
</trkpt>
<trkpt lat="-27.2122790" lon="152.9030964">
<ele>80.023</ele>
<time>2018-01-09T23:10:13.255Z</time>
</trkpt>
<trkpt lat="-27.2119462" lon="152.9034313">
<ele>79.507</ele>
<time>2018-01-09T23:10:16.311Z</time>
</trkpt>
<trkpt lat="-27.2116250" lon="152.9038002">
<ele>78.760</ele>
<time>2018-01-09T23:10:19.440Z</time>
</trkpt>
<trkpt lat="-27.2112999" lon="152.9041384">
<ele>77.884</ele>
<time>2018-01-09T23:10:22.432Z</time>
</trkpt>
<trkpt lat="-27.2108980" lon="152.9043143">
<ele>77.160</ele>
<time>2018-01-09T23:10:25.331Z</time>
</trkpt>
<trkpt lat="-27.2104362" lon="152.9044499">
<ele>76.508</ele>
<time>2018-01-09T23:10:28.487Z</time>
</trkpt>
<trkpt lat="-27.2099858" lon="152.9046179">
<ele>75.413</ele>
<time>2018-01-09T23:10:31.578Z</time>
</trkpt>
<trkpt lat="-27.2095936" lon="152.9048306">
<ele>73.697</ele>
<time>2018-01-09T23:10:34.422Z</time>
</trkpt>
<trkpt lat="-27.2092101" lon="152.9051651">
<ele>71.681</ele>
<time>2018-01-09T23:10:37.581Z</time>
</trkpt>
<trkpt lat="-27.2088880" lon="152.9055145">
<ele>69.366</ele>
<time>2018-01-09T23:10:40.462Z</time>
</trkpt>
<trkpt lat="-27.2085170" lon="152.9058887">
<ele>66.467</ele>
<time>2018-01-09T23:10:43.624Z</time>
</trkpt>
<trkpt lat="-27.2079970" lon="152.9059430">
<ele>62.959</ele>
<time>2018-01-09T23:10:46.887Z</time>
</trkpt>
<trkpt lat="-27.2075335" lon="152.9058210">
<ele>59.153</ele>
<time>2018-01-09T23:10:49.889Z</time>
</trkpt>
<trkpt lat="-27.2071242" lon="152.9055353">
<ele>55.883</ele>
<time>2018-01-09T23:10:52.945Z</time>
</trkpt>
<trkpt lat="-27.2066769" lon="152.9053087">
<ele>54.377</ele>
<time>2018-01-09T23:10:56.028Z</time>
</trkpt>
<trkpt lat="-27.2063243" lon="152.9050586">
<ele>55.461</ele>
<time>2018-01-09T23:10:58.707Z</time>
</trkpt>
<trkpt lat="-27.2058600" lon="152.9050384">
<ele>58.839</ele>
<time>2018-01-09T23:11:01.785Z</time>
</trkpt>
<trkpt lat="-27.2054101" lon="152.9050908">
<ele>63.055</ele>
<time>2018-01-09T23:11:04.802Z</time>
</trkpt>
<trkpt lat="-27.2049809" lon="152.9050901">
<ele>66.497</ele>
<time>2018-01-09T23:11:07.684Z</time>
</trkpt>
<trkpt lat="-27.2045451" lon="152.9050851">
<ele>68.794</ele>
<time>2018-01-09T23:11:10.646Z</time>
</trkpt>
<trkpt lat="-27.2041211" lon="152.9051269">
<ele>70.620</ele>
<time>2018-01-09T23:11:13.552Z</time>
</trkpt>
<trkpt lat="-27.2036872" lon="152.9052328">
<ele>72.244</ele>
<time>2018-01-09T23:11:16.591Z</time>
</trkpt>
<trkpt lat="-27.2032629" lon="152.9053520">
<ele>73.264</ele>
<time>2018-01-09T23:11:19.560Z</time>
</trkpt>
<trkpt lat="-27.2028318" lon="152.9055532">
<ele>73.587</ele>
<time>2018-01-09T23:11:22.705Z</time>
</trkpt>
<trkpt lat="-27.2024490" lon="152.9057813">
<ele>73.554</ele>
<time>2018-01-09T23:11:25.624Z</time>
</trkpt>
<trkpt lat="-27.2020434" lon="152.9060383">
<ele>73.731</ele>
<time>2018-01-09T23:11:28.774Z</time>
</trkpt>
<trkpt lat="-27.2016852" lon="152.9062772">
<ele>74.681</ele>
<time>2018-01-09T23:11:31.624Z</time>
</trkpt>
<trkpt lat="-27.2013198" lon="152.9064802">
<ele>76.504</ele>
<time>2018-01-09T23:11:34.487Z</time>
</trkpt>
<trkpt lat="-27.2010046" lon="152.9067618">
<ele>78.694</ele>
<time>2018-01-09T23:11:37.460Z</time>
</trkpt>
<trkpt lat="-27.2009560" lon="152.9073147">
<ele>80.468</ele>
<time>2018-01-09T23:11:41.016Z</time>
</trkpt>
<trkpt lat="-27.2008701" lon="152.9078945">
<ele>81.361</ele>
<time>2018-01-09T23:11:44.370Z</time>
</trkpt>
<trkpt lat="-27.2007771" lon="152.9083642">
<ele>81.633</ele>
<time>2018-01-09T23:11:47.140Z</time>
</trkpt>
<trkpt lat="-27.2005904" lon="152.9087317">
<ele>82.236</ele>
<time>2018-01-09T23:11:49.851Z</time>
</trkpt>
<trkpt lat="-27.2001995" lon="152.9087657">
<ele>84.105</ele>
<time>2018-01-09T23:11:52.984Z</time>
</trkpt>
<trkpt lat="-27.1997999" lon="152.9085400">
<ele>87.072</ele>
<time>2018-01-09T23:11:56.396Z</time>
</trkpt>
<trkpt lat="-27.1994438" lon="152.9081742">
<ele>90.094</ele>
<time>2018-01-09T23:11:59.673Z</time>
</trkpt>
<trkpt lat="-27.1991021" lon="152.9078006">
<ele>92.613</ele>
<time>2018-01-09T23:12:02.841Z</time>
</trkpt>
<trkpt lat="-27.1987361" lon="152.9075450">
<ele>94.498</ele>
<time>2018-01-09T23:12:05.781Z</time>
</trkpt>
<trkpt lat="-27.1983170" lon="152.9074677">
<ele>95.577</ele>
<time>2018-01-09T23:12:08.734Z</time>
</trkpt>
<trkpt lat="-27.1979064" lon="152.9073480">
<ele>95.945</ele>
<time>2018-01-09T23:12:11.695Z</time>
</trkpt>
<trkpt lat="-27.1974684" lon="152.9072333">
<ele>96.574</ele>
<time>2018-01-09T23:12:14.744Z</time>
</trkpt>
<trkpt lat="-27.1970269" lon="152.9071095">
<ele>98.540</ele>
<time>2018-01-09T23:12:17.742Z</time>
</trkpt>
<trkpt lat="-27.1965670" lon="152.9069065">
<ele>101.422</ele>
<time>2018-01-09T23:12:20.906Z</time>
</trkpt>
<trkpt lat="-27.1961152" lon="152.9066473">
<ele>103.683</ele>
<time>2018-01-09T23:12:24.012Z</time>
</trkpt>
<trkpt lat="-27.1956802" lon="152.9064210">
<ele>104.414</ele>
<time>2018-01-09T23:12:26.925Z</time>
</trkpt>
<trkpt lat="-27.1952376" lon="152.9061949">
<ele>103.282</ele>
<time>2018-01-09T23:12:29.976Z</time>
</trkpt>
<trkpt lat="-27.1948016" lon="152.9061085">
<ele>100.201</ele>
<time>2018-01-09T23:12:32.854Z</time>
</trkpt>
<trkpt lat="-27.1943609" lon="152.9061654">
<ele>95.639</ele>
<time>2018-01-09T23:12:35.779Z</time>
</trkpt>
<trkpt lat="-27.1939144" lon="152.9061160">
<ele>90.685</ele>
<time>2018-01-09T23:12:38.735Z</time>
</trkpt>
<trkpt lat="-27.1934925" lon="152.9059867">
<ele>86.331</ele>
<time>2018-01-09T23:12:41.657Z</time>
</trkpt>
<trkpt lat="-27.1930644" lon="152.9059927">
<ele>82.930</ele>
<time>2018-01-09T23:12:44.603Z</time>
</trkpt>
<trkpt lat="-27.1925963" lon="152.9061363">
<ele>80.331</ele>
<time>2018-01-09T23:12:47.896Z</time>
</trkpt>
<trkpt lat="-27.1921272" lon="152.9062562">
<ele>77.900</ele>
<time>2018-01-09T23:12:51.009Z</time>
</trkpt>
<trkpt lat="-27.1916652" lon="152.9063289">
<ele>74.987</ele>
<time>2018-01-09T23:12:53.965Z</time>
</trkpt>
<trkpt lat="-27.1912131" lon="152.9063451">
<ele>71.550</ele>
<time>2018-01-09T23:12:56.866Z</time>
</trkpt>
<trkpt lat="-27.1908047" lon="152.9064198">
<ele>67.867</ele>
<time>2018-01-09T23:12:59.811Z</time>
</trkpt>
<trkpt lat="-27.1905678" lon="152.9063846">
<ele>64.266</ele>
<time>2018-01-09T23:13:01.886Z</time>
</trkpt>
<trkpt lat="-27.1904495" lon="152.9060349">
<ele>61.420</ele>
<time>2018-01-09T23:13:05.229Z</time>
</trkpt>
<trkpt lat="-27.1903990" lon="152.9055365">
<ele>60.118</ele>
<time>2018-01-09T23:13:08.785Z</time>
</trkpt>
<trkpt lat="-27.1903494" lon="152.9050449">
<ele>60.490</ele>
<time>2018-01-09T23:13:11.836Z</time>
</trkpt>
<trkpt lat="-27.1902352" lon="152.9045513">
<ele>61.652</ele>
<time>2018-01-09T23:13:14.880Z</time>
</trkpt>
<trkpt lat="-27.1899363" lon="152.9041850">
<ele>62.441</ele>
<time>2018-01-09T23:13:17.872Z</time>
</trkpt>
<trkpt lat="-27.1895213" lon="152.9039919">
<ele>62.416</ele>
<time>2018-01-09T23:13:20.911Z</time>
</trkpt>
<trkpt lat="-27.1891123" lon="152.9037957">
<ele>61.995</ele>
<time>2018-01-09T23:13:23.899Z</time>
</trkpt>
<trkpt lat="-27.1886782" lon="152.9037042">
<ele>61.624</ele>
<time>2018-01-09T23:13:26.848Z</time>
</trkpt>
<trkpt lat="-27.1882119" lon="152.9036601">
<ele>60.941</ele>
<time>2018-01-09T23:13:29.944Z</time>
</trkpt>
<trkpt lat="-27.1877623" lon="152.9035942">
<ele>59.511</ele>
<time>2018-01-09T23:13:32.908Z</time>
</trkpt>
<trkpt lat="-27.1873115" lon="152.9036052">
<ele>57.837</ele>
<time>2018-01-09T23:13:35.842Z</time>
</trkpt>
<trkpt lat="-27.1868578" lon="152.9035524">
<ele>56.734</ele>
<time>2018-01-09T23:13:38.827Z</time>
</trkpt>
<trkpt lat="-27.1864356" lon="152.9033389">
<ele>56.504</ele>
<time>2018-01-09T23:13:41.878Z</time>
</trkpt>
<trkpt lat="-27.1860672" lon="152.9029697">
<ele>57.079</ele>
<time>2018-01-09T23:13:45.098Z</time>
</trkpt>
<trkpt lat="-27.1856840" lon="152.9026775">
<ele>57.966</ele>
<time>2018-01-09T23:13:48.104Z</time>
</trkpt>
<trkpt lat="-27.1852882" lon="152.9023866">
<ele>58.273</ele>
<time>2018-01-09T23:13:51.223Z</time>
</trkpt>
<trkpt lat="-27.1848995" lon="152.9021389">
<ele>57.417</ele>
<time>2018-01-09T23:13:54.373Z</time>
</trkpt>
<trkpt lat="-27.1846070" lon="152.9019597">
<ele>55.628</ele>
<time>2018-01-09T23:13:56.978Z</time>
</trkpt>
<trkpt lat="-27.1843007" lon="152.9017778">
<ele>53.759</ele>
<time>2018-01-09T23:14:00.061Z</time>
</trkpt>
<trkpt lat="-27.1841277" lon="152.9016723">
<ele>52.651</ele>
<time>2018-01-09T23:14:02.072Z</time>
</trkpt>
<trkpt lat="-27.1840552" lon="152.9017654">
<ele>52.593</ele>
<time>2018-01-09T23:14:03.899Z</time>
</trkpt>
<trkpt lat="-27.1839844" lon="152.9021319">
<ele>53.234</ele>
<time>2018-01-09T23:14:08.996Z</time>
</trkpt>
<trkpt lat="-27.1838577" lon="152.9025814">
<ele>54.031</ele>
<time>2018-01-09T23:14:12.488Z</time>
</trkpt>
<trkpt lat="-27.1836925" lon="152.9030753">
<ele>54.751</ele>
<time>2018-01-09T23:14:15.698Z</time>
</trkpt>
<trkpt lat="-27.1835602" lon="152.9035574">
<ele>55.781</ele>
<time>2018-01-09T23:14:18.666Z</time>
</trkpt>
<trkpt lat="-27.1833634" lon="152.9039531">
<ele>57.740</ele>
<time>2018-01-09T23:14:21.464Z</time>
</trkpt>
<trkpt lat="-27.1830822" lon="152.9043677">
<ele>60.811</ele>
<time>2018-01-09T23:14:24.647Z</time>
</trkpt>
<trkpt lat="-27.1827598" lon="152.9047514">
<ele>64.421</ele>
<time>2018-01-09T23:14:27.749Z</time>
</trkpt>
<trkpt lat="-27.1824479" lon="152.9050796">
<ele>67.638</ele>
<time>2018-01-09T23:14:30.593Z</time>
</trkpt>
<trkpt lat="-27.1822323" lon="152.9054898">
<ele>70.093</ele>
<time>2018-01-09T23:14:33.469Z</time>
</trkpt>
<trkpt lat="-27.1821359" lon="152.9060105">
<ele>72.082</ele>
<time>2018-01-09T23:14:36.647Z</time>
</trkpt>
<trkpt lat="-27.1821640" lon="152.9064010">
<ele>74.013</ele>
<time>2018-01-09T23:14:38.920Z</time>
</trkpt>
<trkpt lat="-27.1822852" lon="152.9069050">
<ele>76.106</ele>
<time>2018-01-09T23:14:41.938Z</time>
</trkpt>
<trkpt lat="-27.1826503" lon="152.9072674">
<ele>78.881</ele>
<time>2018-01-09T23:14:45.153Z</time>
</trkpt>
<trkpt lat="-27.1830463" lon="152.9075112">
<ele>83.140</ele>
<time>2018-01-09T23:14:48.233Z</time>
</trkpt>
<trkpt lat="-27.1834092" lon="152.9077222">
<ele>88.885</ele>
<time>2018-01-09T23:14:51.226Z</time>
</trkpt>
<trkpt lat="-27.1835834" lon="152.9080826">
<ele>95.109</ele>
<time>2018-01-09T23:14:54.021Z</time>
</trkpt>
<trkpt lat="-27.1833923" lon="152.9085963">
<ele>100.819</ele>
<time>2018-01-09T23:14:57.543Z</time>
</trkpt>
<trkpt lat="-27.1832260" lon="152.9090982">
<ele>105.039</ele>
<time>2018-01-09T23:15:00.760Z</time>
</trkpt>
<trkpt lat="-27.1831758" lon="152.9095856">
<ele>106.969</ele>
<time>2018-01-09T23:15:03.754Z</time>
</trkpt>
<trkpt lat="-27.1833895" lon="152.9100512">
<ele>106.949</ele>
<time>2018-01-09T23:15:06.920Z</time>
</trkpt>
<trkpt lat="-27.1836149" lon="152.9104770">
<ele>106.465</ele>
<time>2018-01-09T23:15:09.843Z</time>
</trkpt>
<trkpt lat="-27.1838560" lon="152.9109032">
<ele>106.674</ele>
<time>2018-01-09T23:15:12.765Z</time>
</trkpt>
<trkpt lat="-27.1839942" lon="152.9114179">
<ele>107.475</ele>
<time>2018-01-09T23:15:15.802Z</time>
</trkpt>
<trkpt lat="-27.1840932" lon="152.9119253">
<ele>107.740</ele>
<time>2018-01-09T23:15:18.684Z</time>
</trkpt>
<trkpt lat="-27.1841587" lon="152.9124685">
<ele>106.292</ele>
<time>2018-01-09T23:15:21.715Z</time>
</trkpt>
<trkpt lat="-27.1842928" lon="152.9129925">
<ele>103.177</ele>
<time>2018-01-09T23:15:24.767Z</time>
</trkpt>
<trkpt lat="-27.1845016" lon="152.9134605">
<ele>99.742</ele>
<time>2018-01-09T23:15:27.721Z</time>
</trkpt>
<trkpt lat="-27.1847185" lon="152.9139224">
<ele>97.177</ele>
<time>2018-01-09T23:15:30.702Z</time>
</trkpt>
<trkpt lat="-27.1848892" lon="152.9143578">
<ele>95.641</ele>
<time>2018-01-09T23:15:33.474Z</time>
</trkpt>
<trkpt lat="-27.1849887" lon="152.9148567">
<ele>94.605</ele>
<time>2018-01-09T23:15:36.481Z</time>
</trkpt>
<trkpt lat="-27.1850149" lon="152.9153550">
<ele>93.483</ele>
<time>2018-01-09T23:15:39.405Z</time>
</trkpt>
<trkpt lat="-27.1850823" lon="152.9158626">
<ele>91.982</ele>
<time>2018-01-09T23:15:42.411Z</time>
</trkpt>
<trkpt lat="-27.1851716" lon="152.9163476">
<ele>90.092</ele>
<time>2018-01-09T23:15:45.319Z</time>
</trkpt>
<trkpt lat="-27.1852445" lon="152.9168189">
<ele>87.916</ele>
<time>2018-01-09T23:15:48.143Z</time>
</trkpt>
<trkpt lat="-27.1853171" lon="152.9173010">
<ele>85.497</ele>
<time>2018-01-09T23:15:51.046Z</time>
</trkpt>
<trkpt lat="-27.1853893" lon="152.9178238">
<ele>82.759</ele>
<time>2018-01-09T23:15:54.172Z</time>
</trkpt>
<trkpt lat="-27.1854546" lon="152.9183243">
<ele>79.675</ele>
<time>2018-01-09T23:15:57.157Z</time>
</trkpt>
<trkpt lat="-27.1854990" lon="152.9188205">
<ele>76.497</ele>
<time>2018-01-09T23:16:00.124Z</time>
</trkpt>
<trkpt lat="-27.1856584" lon="152.9193377">
<ele>73.901</ele>
<time>2018-01-09T23:16:03.373Z</time>
</trkpt>
<trkpt lat="-27.1857906" lon="152.9198124">
<ele>72.897</ele>
<time>2018-01-09T23:16:06.325Z</time>
</trkpt>
<trkpt lat="-27.1858269" lon="152.9203032">
<ele>73.905</ele>
<time>2018-01-09T23:16:09.278Z</time>
</trkpt>
<trkpt lat="-27.1858780" lon="152.9208084">
<ele>75.965</ele>
<time>2018-01-09T23:16:12.332Z</time>
</trkpt>
<trkpt lat="-27.1860391" lon="152.9212757">
<ele>77.755</ele>
<time>2018-01-09T23:16:15.308Z</time>
</trkpt>
<trkpt lat="-27.1862954" lon="152.9217189">
<ele>79.031</ele>
<time>2018-01-09T23:16:18.412Z</time>
</trkpt>
<trkpt lat="-27.1865559" lon="152.9221344">
<ele>80.238</ele>
<time>2018-01-09T23:16:21.397Z</time>
</trkpt>
<trkpt lat="-27.1867576" lon="152.9225464">
<ele>81.360</ele>
<time>2018-01-09T23:16:24.205Z</time>
</trkpt>
<trkpt lat="-27.1869469" lon="152.9229780">
<ele>82.113</ele>
<time>2018-01-09T23:16:27.130Z</time>
</trkpt>
<trkpt lat="-27.1871062" lon="152.9234293">
<ele>82.520</ele>
<time>2018-01-09T23:16:30.072Z</time>
</trkpt>
<trkpt lat="-27.1871100" lon="152.9239340">
<ele>82.514</ele>
<time>2018-01-09T23:16:33.069Z</time>
</trkpt>
<trkpt lat="-27.1869958" lon="152.9244249">
<ele>81.738</ele>
<time>2018-01-09T23:16:36.046Z</time>
</trkpt>
<trkpt lat="-27.1868032" lon="152.9248884">
<ele>80.058</ele>
<time>2018-01-09T23:16:39.046Z</time>
</trkpt>
<trkpt lat="-27.1865023" lon="152.9252652">
<ele>77.753</ele>
<time>2018-01-09T23:16:42.010Z</time>
</trkpt>
<trkpt lat="-27.1861473" lon="152.9255788">
<ele>75.244</ele>
<time>2018-01-09T23:16:44.972Z</time>
</trkpt>
<trkpt lat="-27.1858023" lon="152.9259139">
<ele>72.747</ele>
<time>2018-01-09T23:16:47.955Z</time>
</trkpt>
<trkpt lat="-27.1854406" lon="152.9262320">
<ele>70.259</ele>
<time>2018-01-09T23:16:50.978Z</time>
</trkpt>
<trkpt lat="-27.1851449" lon="152.9265847">
<ele>67.925</ele>
<time>2018-01-09T23:16:53.841Z</time>
</trkpt>
<trkpt lat="-27.1848962" lon="152.9270164">
<ele>65.927</ele>
<time>2018-01-09T23:16:56.905Z</time>
</trkpt>
<trkpt lat="-27.1846394" lon="152.9274584">
<ele>64.192</ele>
<time>2018-01-09T23:17:00.072Z</time>
</trkpt>
<trkpt lat="-27.1844049" lon="152.9278889">
<ele>62.307</ele>
<time>2018-01-09T23:17:03.110Z</time>
</trkpt>
<trkpt lat="-27.1841638" lon="152.9282803">
<ele>59.721</ele>
<time>2018-01-09T23:17:06.060Z</time>
</trkpt>
<trkpt lat="-27.1840684" lon="152.9287400">
<ele>56.293</ele>
<time>2018-01-09T23:17:09.305Z</time>
</trkpt>
<trkpt lat="-27.1840594" lon="152.9290450">
<ele>52.487</ele>
<time>2018-01-09T23:17:11.822Z</time>
</trkpt>
<trkpt lat="-27.1840601" lon="152.9292618">
<ele>48.884</ele>
<time>2018-01-09T23:17:13.997Z</time>
</trkpt>
<trkpt lat="-27.1840601" lon="152.9292618">
<ele>46.142</ele>
<time>2018-01-09T23:17:18.997Z</time>
</trkpt>
<trkpt lat="-27.1840601" lon="152.9292618">
<ele>44.898</ele>
<time>2018-01-09T23:17:24.274Z</time>
</trkpt>
<trkpt lat="-27.1838794" lon="152.9293721">
<ele>45.026</ele>
<time>2018-01-09T23:17:29.355Z</time>
</trkpt>
<trkpt lat="-27.1835769" lon="152.9293347">
<ele>45.214</ele>
<time>2018-01-09T23:17:32.724Z</time>
</trkpt>
<trkpt lat="-27.1832505" lon="152.9293307">
<ele>44.550</ele>
<time>2018-01-09T23:17:35.568Z</time>
</trkpt>
<trkpt lat="-27.1828586" lon="152.9291844">
<ele>43.583</ele>
<time>2018-01-09T23:17:38.752Z</time>
</trkpt>
<trkpt lat="-27.1824860" lon="152.9289308">
<ele>42.723</ele>
<time>2018-01-09T23:17:41.877Z</time>
</trkpt>
<trkpt lat="-27.1821170" lon="152.9286748">
<ele>41.339</ele>
<time>2018-01-09T23:17:44.854Z</time>
</trkpt>
<trkpt lat="-27.1816953" lon="152.9284639">
<ele>39.256</ele>
<time>2018-01-09T23:17:47.946Z</time>
</trkpt>
<trkpt lat="-27.1812653" lon="152.9283282">
<ele>37.199</ele>
<time>2018-01-09T23:17:50.981Z</time>
</trkpt>
<trkpt lat="-27.1808904" lon="152.9281030">
<ele>35.852</ele>
<time>2018-01-09T23:17:53.954Z</time>
</trkpt>
<trkpt lat="-27.1805488" lon="152.9277668">
<ele>35.321</ele>
<time>2018-01-09T23:17:57.105Z</time>
</trkpt>
<trkpt lat="-27.1801595" lon="152.9274941">
<ele>35.472</ele>
<time>2018-01-09T23:18:00.211Z</time>
</trkpt>
<trkpt lat="-27.1797721" lon="152.9272265">
<ele>36.118</ele>
<time>2018-01-09T23:18:03.298Z</time>
</trkpt>
<trkpt lat="-27.1794531" lon="152.9269271">
<ele>36.952</ele>
<time>2018-01-09T23:18:06.208Z</time>
</trkpt>
<trkpt lat="-27.1791986" lon="152.9266040">
<ele>37.768</ele>
<time>2018-01-09T23:18:09.020Z</time>
</trkpt>
<trkpt lat="-27.1789553" lon="152.9262826">
<ele>38.486</ele>
<time>2018-01-09T23:18:12.051Z</time>
</trkpt>
<trkpt lat="-27.1787225" lon="152.9260438">
<ele>38.664</ele>
<time>2018-01-09T23:18:15.280Z</time>
</trkpt>
<trkpt lat="-27.1785662" lon="152.9259013">
<ele>37.964</ele>
<time>2018-01-09T23:18:18.324Z</time>
</trkpt>
<trkpt lat="-27.1784988" lon="152.9257357">
<ele>36.859</ele>
<time>2018-01-09T23:18:21.268Z</time>
</trkpt>
<trkpt lat="-27.1784214" lon="152.9255227">
<ele>36.057</ele>
<time>2018-01-09T23:18:24.100Z</time>
</trkpt>
<trkpt lat="-27.1781728" lon="152.9253658">
<ele>35.745</ele>
<time>2018-01-09T23:18:27.004Z</time>
</trkpt>
<trkpt lat="-27.1779166" lon="152.9250991">
<ele>35.699</ele>
<time>2018-01-09T23:18:29.921Z</time>
</trkpt>
<trkpt lat="-27.1776227" lon="152.9247957">
<ele>35.678</ele>
<time>2018-01-09T23:18:32.821Z</time>
</trkpt>
<trkpt lat="-27.1773126" lon="152.9244297">
<ele>35.640</ele>
<time>2018-01-09T23:18:35.761Z</time>
</trkpt>
<trkpt lat="-27.1769667" lon="152.9240358">
<ele>35.627</ele>
<time>2018-01-09T23:18:38.753Z</time>
</trkpt>
<trkpt lat="-27.1765969" lon="152.9236333">
<ele>35.625</ele>
<time>2018-01-09T23:18:41.741Z</time>
</trkpt>
<trkpt lat="-27.1762235" lon="152.9232221">
<ele>35.543</ele>
<time>2018-01-09T23:18:44.726Z</time>
</trkpt>
<trkpt lat="-27.1758419" lon="152.9228262">
<ele>35.172</ele>
<time>2018-01-09T23:18:47.688Z</time>
</trkpt>
<trkpt lat="-27.1755152" lon="152.9223718">
<ele>34.126</ele>
<time>2018-01-09T23:18:50.664Z</time>
</trkpt>
<trkpt lat="-27.1751573" lon="152.9219448">
<ele>32.105</ele>
<time>2018-01-09T23:18:53.674Z</time>
</trkpt>
<trkpt lat="-27.1748317" lon="152.9215131">
<ele>29.389</ele>
<time>2018-01-09T23:18:56.593Z</time>
</trkpt>
<trkpt lat="-27.1744896" lon="152.9210837">
<ele>26.925</ele>
<time>2018-01-09T23:18:59.587Z</time>
</trkpt>
<trkpt lat="-27.1741379" lon="152.9206578">
<ele>25.552</ele>
<time>2018-01-09T23:19:02.629Z</time>
</trkpt>
<trkpt lat="-27.1737775" lon="152.9202601">
<ele>25.476</ele>
<time>2018-01-09T23:19:05.585Z</time>
</trkpt>
<trkpt lat="-27.1733792" lon="152.9198910">
<ele>26.418</ele>
<time>2018-01-09T23:19:08.587Z</time>
</trkpt>
<trkpt lat="-27.1730003" lon="152.9194884">
<ele>28.187</ele>
<time>2018-01-09T23:19:11.618Z</time>
</trkpt>
<trkpt lat="-27.1726509" lon="152.9190707">
<ele>30.815</ele>
<time>2018-01-09T23:19:14.582Z</time>
</trkpt>
<trkpt lat="-27.1722725" lon="152.9186835">
<ele>34.150</ele>
<time>2018-01-09T23:19:17.543Z</time>
</trkpt>
<trkpt lat="-27.1719319" lon="152.9182642">
<ele>37.397</ele>
<time>2018-01-09T23:19:20.462Z</time>
</trkpt>
<trkpt lat="-27.1714885" lon="152.9179079">
<ele>39.861</ele>
<time>2018-01-09T23:19:23.615Z</time>
</trkpt>
<trkpt lat="-27.1710239" lon="152.9176681">
<ele>41.543</ele>
<time>2018-01-09T23:19:26.569Z</time>
</trkpt>
<trkpt lat="-27.1705361" lon="152.9175584">
<ele>43.014</ele>
<time>2018-01-09T23:19:29.436Z</time>
</trkpt>
<trkpt lat="-27.1700009" lon="152.9176036">
<ele>44.692</ele>
<time>2018-01-09T23:19:32.516Z</time>
</trkpt>
<trkpt lat="-27.1694893" lon="152.9176909">
<ele>46.376</ele>
<time>2018-01-09T23:19:35.461Z</time>
</trkpt>
<trkpt lat="-27.1689946" lon="152.9179269">
<ele>47.894</ele>
<time>2018-01-09T23:19:38.505Z</time>
</trkpt>
<trkpt lat="-27.1685022" lon="152.9181247">
<ele>49.464</ele>
<time>2018-01-09T23:19:41.472Z</time>
</trkpt>
<trkpt lat="-27.1680411" lon="152.9183454">
<ele>50.882</ele>
<time>2018-01-09T23:19:44.328Z</time>
</trkpt>
<trkpt lat="-27.1675499" lon="152.9185739">
<ele>51.722</ele>
<time>2018-01-09T23:19:47.366Z</time>
</trkpt>
<trkpt lat="-27.1670638" lon="152.9187611">
<ele>51.859</ele>
<time>2018-01-09T23:19:50.303Z</time>
</trkpt>
<trkpt lat="-27.1665660" lon="152.9189775">
<ele>51.404</ele>
<time>2018-01-09T23:19:53.350Z</time>
</trkpt>
<trkpt lat="-27.1661043" lon="152.9192304">
<ele>50.629</ele>
<time>2018-01-09T23:19:56.283Z</time>
</trkpt>
<trkpt lat="-27.1656349" lon="152.9194558">
<ele>49.746</ele>
<time>2018-01-09T23:19:59.198Z</time>
</trkpt>
<trkpt lat="-27.1651589" lon="152.9196577">
<ele>48.742</ele>
<time>2018-01-09T23:20:02.085Z</time>
</trkpt>
<trkpt lat="-27.1646348" lon="152.9198675">
<ele>47.468</ele>
<time>2018-01-09T23:20:05.211Z</time>
</trkpt>
<trkpt lat="-27.1641111" lon="152.9200887">
<ele>45.900</ele>
<time>2018-01-09T23:20:08.351Z</time>
</trkpt>
<trkpt lat="-27.1636311" lon="152.9203322">
<ele>44.428</ele>
<time>2018-01-09T23:20:11.318Z</time>
</trkpt>
<trkpt lat="-27.1631553" lon="152.9206409">
<ele>43.455</ele>
<time>2018-01-09T23:20:14.406Z</time>
</trkpt>
<trkpt lat="-27.1626919" lon="152.9209531">
<ele>42.785</ele>
<time>2018-01-09T23:20:17.426Z</time>
</trkpt>
<trkpt lat="-27.1622324" lon="152.9212888">
<ele>41.974</ele>
<time>2018-01-09T23:20:20.491Z</time>
</trkpt>
<trkpt lat="-27.1618032" lon="152.9215640">
<ele>41.076</ele>
<time>2018-01-09T23:20:23.265Z</time>
</trkpt>
<trkpt lat="-27.1613729" lon="152.9219008">
<ele>40.510</ele>
<time>2018-01-09T23:20:26.222Z</time>
</trkpt>
<trkpt lat="-27.1609252" lon="152.9221925">
<ele>40.663</ele>
<time>2018-01-09T23:20:29.153Z</time>
</trkpt>
<trkpt lat="-27.1604815" lon="152.9224790">
<ele>41.903</ele>
<time>2018-01-09T23:20:32.048Z</time>
</trkpt>
<trkpt lat="-27.1599829" lon="152.9227421">
<ele>44.100</ele>
<time>2018-01-09T23:20:35.138Z</time>
</trkpt>
<trkpt lat="-27.1595151" lon="152.9229721">
<ele>46.360</ele>
<time>2018-01-09T23:20:37.984Z</time>
</trkpt>
<trkpt lat="-27.1589784" lon="152.9232202">
<ele>48.047</ele>
<time>2018-01-09T23:20:41.206Z</time>
</trkpt>
<trkpt lat="-27.1585198" lon="152.9234467">
<ele>49.296</ele>
<time>2018-01-09T23:20:43.990Z</time>
</trkpt>
<trkpt lat="-27.1580485" lon="152.9235998">
<ele>50.274</ele>
<time>2018-01-09T23:20:46.731Z</time>
</trkpt>
<trkpt lat="-27.1575012" lon="152.9237376">
<ele>50.880</ele>
<time>2018-01-09T23:20:49.867Z</time>
</trkpt>
<trkpt lat="-27.1569308" lon="152.9238777">
<ele>50.514</ele>
<time>2018-01-09T23:20:53.120Z</time>
</trkpt>
<trkpt lat="-27.1563879" lon="152.9240356">
<ele>48.327</ele>
<time>2018-01-09T23:20:56.245Z</time>
</trkpt>
<trkpt lat="-27.1558807" lon="152.9242341">
<ele>44.485</ele>
<time>2018-01-09T23:20:59.254Z</time>
</trkpt>
<trkpt lat="-27.1553816" lon="152.9243740">
<ele>40.437</ele>
<time>2018-01-09T23:21:02.146Z</time>
</trkpt>
<trkpt lat="-27.1548815" lon="152.9245546">
<ele>37.536</ele>
<time>2018-01-09T23:21:05.083Z</time>
</trkpt>
<trkpt lat="-27.1543590" lon="152.9247859">
<ele>36.122</ele>
<time>2018-01-09T23:21:08.159Z</time>
</trkpt>
<trkpt lat="-27.1538005" lon="152.9250049">
<ele>35.428</ele>
<time>2018-01-09T23:21:11.360Z</time>
</trkpt>
<trkpt lat="-27.1534545" lon="152.9254318">
<ele>34.060</ele>
<time>2018-01-09T23:21:14.213Z</time>
</trkpt>
<trkpt lat="-27.1531123" lon="152.9259145">
<ele>31.393</ele>
<time>2018-01-09T23:21:17.323Z</time>
</trkpt>
<trkpt lat="-27.1527505" lon="152.9263669">
<ele>28.478</ele>
<time>2018-01-09T23:21:20.379Z</time>
</trkpt>
<trkpt lat="-27.1524043" lon="152.9268472">
<ele>26.569</ele>
<time>2018-01-09T23:21:23.494Z</time>
</trkpt>
<trkpt lat="-27.1520795" lon="152.9272732">
<ele>25.598</ele>
<time>2018-01-09T23:21:26.460Z</time>
</trkpt>
<trkpt lat="-27.1518178" lon="152.9276326">
<ele>24.835</ele>
<time>2018-01-09T23:21:29.241Z</time>
</trkpt>
<trkpt lat="-27.1515755" lon="152.9278808">
<ele>24.076</ele>
<time>2018-01-09T23:21:32.033Z</time>
</trkpt>
<trkpt lat="-27.1514475" lon="152.9279122">
<ele>23.578</ele>
<time>2018-01-09T23:21:33.493Z</time>
</trkpt>
<trkpt lat="-27.1512657" lon="152.9276129">
<ele>23.729</ele>
<time>2018-01-09T23:21:37.526Z</time>
</trkpt>
<trkpt lat="-27.1511092" lon="152.9272169">
<ele>25.039</ele>
<time>2018-01-09T23:21:40.933Z</time>
</trkpt>
<trkpt lat="-27.1510046" lon="152.9267939">
<ele>27.845</ele>
<time>2018-01-09T23:21:43.826Z</time>
</trkpt>
<trkpt lat="-27.1509949" lon="152.9264648">
<ele>31.714</ele>
<time>2018-01-09T23:21:45.852Z</time>
</trkpt>
<trkpt lat="-27.1509655" lon="152.9259131">
<ele>35.465</ele>
<time>2018-01-09T23:21:49.163Z</time>
</trkpt>
<trkpt lat="-27.1508902" lon="152.9254368">
<ele>38.122</ele>
<time>2018-01-09T23:21:52.050Z</time>
</trkpt>
<trkpt lat="-27.1508245" lon="152.9249564">
<ele>39.501</ele>
<time>2018-01-09T23:21:55.002Z</time>
</trkpt>
<trkpt lat="-27.1507361" lon="152.9244669">
<ele>39.794</ele>
<time>2018-01-09T23:21:58.045Z</time>
</trkpt>
<trkpt lat="-27.1506366" lon="152.9239916">
<ele>39.405</ele>
<time>2018-01-09T23:22:01.017Z</time>
</trkpt>
<trkpt lat="-27.1504755" lon="152.9235271">
<ele>39.026</ele>
<time>2018-01-09T23:22:04.087Z</time>
</trkpt>
<trkpt lat="-27.1502194" lon="152.9231518">
<ele>39.600</ele>
<time>2018-01-09T23:22:07.001Z</time>
</trkpt>
<trkpt lat="-27.1498923" lon="152.9228114">
<ele>41.653</ele>
<time>2018-01-09T23:22:10.020Z</time>
</trkpt>
<trkpt lat="-27.1496761" lon="152.9223565">
<ele>44.557</ele>
<time>2018-01-09T23:22:13.087Z</time>
</trkpt>
<trkpt lat="-27.1495576" lon="152.9218635">
<ele>47.110</ele>
<time>2018-01-09T23:22:16.120Z</time>
</trkpt>
<trkpt lat="-27.1494758" lon="152.9213734">
<ele>48.649</ele>
<time>2018-01-09T23:22:19.104Z</time>
</trkpt>
<trkpt lat="-27.1494163" lon="152.9208909">
<ele>49.193</ele>
<time>2018-01-09T23:22:22.068Z</time>
</trkpt>
<trkpt lat="-27.1494650" lon="152.9204192">
<ele>49.102</ele>
<time>2018-01-09T23:22:24.970Z</time>
</trkpt>
<trkpt lat="-27.1496089" lon="152.9199415">
<ele>48.436</ele>
<time>2018-01-09T23:22:28.018Z</time>
</trkpt>
<trkpt lat="-27.1496907" lon="152.9194602">
<ele>47.069</ele>
<time>2018-01-09T23:22:30.950Z</time>
</trkpt>
<trkpt lat="-27.1498086" lon="152.9189873">
<ele>45.300</ele>
<time>2018-01-09T23:22:33.894Z</time>
</trkpt>
<trkpt lat="-27.1498891" lon="152.9185513">
<ele>43.663</ele>
<time>2018-01-09T23:22:36.576Z</time>
</trkpt>
<trkpt lat="-27.1498763" lon="152.9179879">
<ele>42.432</ele>
<time>2018-01-09T23:22:39.856Z</time>
</trkpt>
<trkpt lat="-27.1499082" lon="152.9174229">
<ele>41.680</ele>
<time>2018-01-09T23:22:42.974Z</time>
</trkpt>
<trkpt lat="-27.1499160" lon="152.9168823">
<ele>41.359</ele>
<time>2018-01-09T23:22:45.869Z</time>
</trkpt>
<trkpt lat="-27.1499524" lon="152.9163010">
<ele>41.320</ele>
<time>2018-01-09T23:22:48.969Z</time>
</trkpt>
<trkpt lat="-27.1499602" lon="152.9157791">
<ele>41.432</ele>
<time>2018-01-09T23:22:51.801Z</time>
</trkpt>
<trkpt lat="-27.1499478" lon="152.9152540">
<ele>41.896</ele>
<time>2018-01-09T23:22:54.701Z</time>
</trkpt>
<trkpt lat="-27.1499507" lon="152.9147096">
<ele>43.108</ele>
<time>2018-01-09T23:22:57.671Z</time>
</trkpt>
<trkpt lat="-27.1499596" lon="152.9141536">
<ele>45.018</ele>
<time>2018-01-09T23:23:00.680Z</time>
</trkpt>
<trkpt lat="-27.1499761" lon="152.9136015">
<ele>47.068</ele>
<time>2018-01-09T23:23:03.696Z</time>
</trkpt>
<trkpt lat="-27.1499511" lon="152.9130636">
<ele>49.083</ele>
<time>2018-01-09T23:23:06.644Z</time>
</trkpt>
<trkpt lat="-27.1498948" lon="152.9124635">
<ele>51.137</ele>
<time>2018-01-09T23:23:09.884Z</time>
</trkpt>
<trkpt lat="-27.1498448" lon="152.9119849">
<ele>53.096</ele>
<time>2018-01-09T23:23:12.474Z</time>
</trkpt>
<trkpt lat="-27.1497525" lon="152.9114444">
<ele>54.683</ele>
<time>2018-01-09T23:23:15.496Z</time>
</trkpt>
<trkpt lat="-27.1496784" lon="152.9108626">
<ele>55.465</ele>
<time>2018-01-09T23:23:18.702Z</time>
</trkpt>
<trkpt lat="-27.1496110" lon="152.9103232">
<ele>55.281</ele>
<time>2018-01-09T23:23:21.619Z</time>
</trkpt>
<trkpt lat="-27.1495073" lon="152.9097624">
<ele>54.462</ele>
<time>2018-01-09T23:23:24.606Z</time>
</trkpt>
<trkpt lat="-27.1494315" lon="152.9091623">
<ele>53.019</ele>
<time>2018-01-09T23:23:27.675Z</time>
</trkpt>
<trkpt lat="-27.1493220" lon="152.9085924">
<ele>50.811</ele>
<time>2018-01-09T23:23:30.574Z</time>
</trkpt>
<trkpt lat="-27.1492648" lon="152.9079530">
<ele>48.027</ele>
<time>2018-01-09T23:23:33.732Z</time>
</trkpt>
<trkpt lat="-27.1491679" lon="152.9073575">
<ele>45.108</ele>
<time>2018-01-09T23:23:36.740Z</time>
</trkpt>
<trkpt lat="-27.1491128" lon="152.9067506">
<ele>42.676</ele>
<time>2018-01-09T23:23:39.813Z</time>
</trkpt>
<trkpt lat="-27.1490273" lon="152.9061822">
<ele>41.223</ele>
<time>2018-01-09T23:23:42.709Z</time>
</trkpt>
<trkpt lat="-27.1489501" lon="152.9055895">
<ele>40.602</ele>
<time>2018-01-09T23:23:45.688Z</time>
</trkpt>
<trkpt lat="-27.1489027" lon="152.9049518">
<ele>39.915</ele>
<time>2018-01-09T23:23:48.817Z</time>
</trkpt>
<trkpt lat="-27.1488060" lon="152.9043397">
<ele>38.466</ele>
<time>2018-01-09T23:23:51.830Z</time>
</trkpt>
<trkpt lat="-27.1487362" lon="152.9037343">
<ele>36.743</ele>
<time>2018-01-09T23:23:54.799Z</time>
</trkpt>
<trkpt lat="-27.1486424" lon="152.9031660">
<ele>35.663</ele>
<time>2018-01-09T23:23:57.653Z</time>
</trkpt>
<trkpt lat="-27.1485738" lon="152.9025776">
<ele>35.538</ele>
<time>2018-01-09T23:24:00.607Z</time>
</trkpt>
<trkpt lat="-27.1484761" lon="152.9019654">
<ele>36.364</ele>
<time>2018-01-09T23:24:03.691Z</time>
</trkpt>
<trkpt lat="-27.1483819" lon="152.9014002">
<ele>38.040</ele>
<time>2018-01-09T23:24:06.562Z</time>
</trkpt>
<trkpt lat="-27.1483123" lon="152.9007940">
<ele>39.924</ele>
<time>2018-01-09T23:24:09.610Z</time>
</trkpt>
<trkpt lat="-27.1482605" lon="152.9001998">
<ele>41.160</ele>
<time>2018-01-09T23:24:12.573Z</time>
</trkpt>
<trkpt lat="-27.1481641" lon="152.8996245">
<ele>41.372</ele>
<time>2018-01-09T23:24:15.498Z</time>
</trkpt>
<trkpt lat="-27.1480892" lon="152.8990173">
<ele>40.857</ele>
<time>2018-01-09T23:24:18.577Z</time>
</trkpt>
<trkpt lat="-27.1479944" lon="152.8984616">
<ele>40.311</ele>
<time>2018-01-09T23:24:21.470Z</time>
</trkpt>
<trkpt lat="-27.1479011" lon="152.8980759">
<ele>40.570</ele>
<time>2018-01-09T23:24:23.532Z</time>
</trkpt>
<trkpt lat="-27.1478279" lon="152.8975158">
<ele>41.950</ele>
<time>2018-01-09T23:24:26.449Z</time>
</trkpt>
<trkpt lat="-27.1477633" lon="152.8969594">
<ele>43.732</ele>
<time>2018-01-09T23:24:29.371Z</time>
</trkpt>
<trkpt lat="-27.1476459" lon="152.8963895">
<ele>44.970</ele>
<time>2018-01-09T23:24:32.407Z</time>
</trkpt>
<trkpt lat="-27.1475927" lon="152.8957897">
<ele>45.509</ele>
<time>2018-01-09T23:24:35.543Z</time>
</trkpt>
<trkpt lat="-27.1475399" lon="152.8953023">
<ele>46.084</ele>
<time>2018-01-09T23:24:38.263Z</time>
</trkpt>
<trkpt lat="-27.1474839" lon="152.8948274">
<ele>47.820</ele>
<time>2018-01-09T23:24:41.156Z</time>
</trkpt>
<trkpt lat="-27.1474519" lon="152.8944322">
<ele>51.209</ele>
<time>2018-01-09T23:24:43.728Z</time>
</trkpt>
<trkpt lat="-27.1474027" lon="152.8940555">
<ele>55.642</ele>
<time>2018-01-09T23:24:46.525Z</time>
</trkpt>
<trkpt lat="-27.1473435" lon="152.8936808">
<ele>60.192</ele>
<time>2018-01-09T23:24:49.581Z</time>
</trkpt>
<trkpt lat="-27.1472940" lon="152.8932984">
<ele>64.147</ele>
<time>2018-01-09T23:24:52.674Z</time>
</trkpt>
<trkpt lat="-27.1472768" lon="152.8929901">
<ele>67.239</ele>
<time>2018-01-09T23:24:55.212Z</time>
</trkpt>
<trkpt lat="-27.1472962" lon="152.8926809">
<ele>69.580</ele>
<time>2018-01-09T23:24:57.994Z</time>
</trkpt>
<trkpt lat="-27.1475243" lon="152.8923765">
<ele>71.544</ele>
<time>2018-01-09T23:25:01.733Z</time>
</trkpt>
<trkpt lat="-27.1478209" lon="152.8922031">
<ele>73.717</ele>
<time>2018-01-09T23:25:05.066Z</time>
</trkpt>
<trkpt lat="-27.1480950" lon="152.8920534">
<ele>76.668</ele>
<time>2018-01-09T23:25:08.010Z</time>
</trkpt>
<trkpt lat="-27.1483199" lon="152.8918586">
<ele>80.560</ele>
<time>2018-01-09T23:25:10.813Z</time>
</trkpt>
<trkpt lat="-27.1484968" lon="152.8915592">
<ele>85.049</ele>
<time>2018-01-09T23:25:13.975Z</time>
</trkpt>
<trkpt lat="-27.1486384" lon="152.8912363">
<ele>89.331</ele>
<time>2018-01-09T23:25:17.034Z</time>
</trkpt>
<trkpt lat="-27.1487298" lon="152.8909428">
<ele>92.433</ele>
<time>2018-01-09T23:25:19.765Z</time>
</trkpt>
<trkpt lat="-27.1488640" lon="152.8906953">
<ele>93.412</ele>
<time>2018-01-09T23:25:22.490Z</time>
</trkpt>
<trkpt lat="-27.1490817" lon="152.8904829">
<ele>91.645</ele>
<time>2018-01-09T23:25:25.618Z</time>
</trkpt>
<trkpt lat="-27.1493686" lon="152.8903192">
<ele>87.562</ele>
<time>2018-01-09T23:25:28.961Z</time>
</trkpt>
<trkpt lat="-27.1496648" lon="152.8902635">
<ele>82.527</ele>
<time>2018-01-09T23:25:32.059Z</time>
</trkpt>
<trkpt lat="-27.1500058" lon="152.8903085">
<ele>77.853</ele>
<time>2018-01-09T23:25:35.473Z</time>
</trkpt>
<trkpt lat="-27.1503400" lon="152.8903897">
<ele>74.510</ele>
<time>2018-01-09T23:25:38.614Z</time>
</trkpt>
<trkpt lat="-27.1506849" lon="152.8904203">
<ele>73.176</ele>
<time>2018-01-09T23:25:41.684Z</time>
</trkpt>
<trkpt lat="-27.1510192" lon="152.8903799">
<ele>73.943</ele>
<time>2018-01-09T23:25:44.621Z</time>
</trkpt>
<trkpt lat="-27.1513505" lon="152.8903602">
<ele>76.361</ele>
<time>2018-01-09T23:25:47.494Z</time>
</trkpt>
<trkpt lat="-27.1516893" lon="152.8902567">
<ele>79.498</ele>
<time>2018-01-09T23:25:50.476Z</time>
</trkpt>
<trkpt lat="-27.1520472" lon="152.8901268">
<ele>82.090</ele>
<time>2018-01-09T23:25:53.473Z</time>
</trkpt>
<trkpt lat="-27.1525039" lon="152.8900243">
<ele>82.911</ele>
<time>2018-01-09T23:25:56.803Z</time>
</trkpt>
<trkpt lat="-27.1529607" lon="152.8901178">
<ele>81.233</ele>
<time>2018-01-09T23:25:59.984Z</time>
</trkpt>
<trkpt lat="-27.1533617" lon="152.8903211">
<ele>77.981</ele>
<time>2018-01-09T23:26:03.066Z</time>
</trkpt>
<trkpt lat="-27.1537621" lon="152.8905072">
<ele>75.294</ele>
<time>2018-01-09T23:26:06.200Z</time>
</trkpt>
<trkpt lat="-27.1541697" lon="152.8906288">
<ele>74.549</ele>
<time>2018-01-09T23:26:09.384Z</time>
</trkpt>
<trkpt lat="-27.1544540" lon="152.8908194">
<ele>75.882</ele>
<time>2018-01-09T23:26:12.678Z</time>
</trkpt>
<trkpt lat="-27.1544044" lon="152.8909150">
<ele>78.542</ele>
<time>2018-01-09T23:26:13.997Z</time>
</trkpt>
<trkpt lat="-27.1544044" lon="152.8909150">
<ele>81.077</ele>
<time>2018-01-09T23:26:15.997Z</time>
</trkpt>
<trkpt lat="-27.1544044" lon="152.8909150">
<ele>82.290</ele>
<time>2018-01-09T23:26:16.097Z</time>
</trkpt>
<trkpt lat="-27.1542912" lon="152.8907304">
<ele>82.129</ele>
<time>2018-01-09T23:26:33.857Z</time>
</trkpt>
<trkpt lat="-27.1543373" lon="152.8904479">
<ele>82.683</ele>
<time>2018-01-09T23:26:36.963Z</time>
</trkpt>
<trkpt lat="-27.1544160" lon="152.8901168">
<ele>85.387</ele>
<time>2018-01-09T23:26:39.990Z</time>
</trkpt>
<trkpt lat="-27.1545964" lon="152.8897661">
<ele>88.032</ele>
<time>2018-01-09T23:26:43.259Z</time>
</trkpt>
<trkpt lat="-27.1547589" lon="152.8894152">
<ele>87.973</ele>
<time>2018-01-09T23:26:46.242Z</time>
</trkpt>
<trkpt lat="-27.1549625" lon="152.8890504">
<ele>85.881</ele>
<time>2018-01-09T23:26:49.411Z</time>
</trkpt>
<trkpt lat="-27.1550894" lon="152.8886735">
<ele>84.008</ele>
<time>2018-01-09T23:26:52.394Z</time>
</trkpt>
<trkpt lat="-27.1551969" lon="152.8883116">
<ele>83.652</ele>
<time>2018-01-09T23:26:55.042Z</time>
</trkpt>
<trkpt lat="-27.1552928" lon="152.8878846">
<ele>84.414</ele>
<time>2018-01-09T23:26:57.904Z</time>
</trkpt>
<trkpt lat="-27.1554699" lon="152.8874889">
<ele>84.405</ele>
<time>2018-01-09T23:27:00.905Z</time>
</trkpt>
<trkpt lat="-27.1556372" lon="152.8871211">
<ele>82.233</ele>
<time>2018-01-09T23:27:03.877Z</time>
</trkpt>
<trkpt lat="-27.1557496" lon="152.8867141">
<ele>79.076</ele>
<time>2018-01-09T23:27:06.947Z</time>
</trkpt>
<trkpt lat="-27.1559023" lon="152.8863099">
<ele>76.549</ele>
<time>2018-01-09T23:27:10.098Z</time>
</trkpt>
<trkpt lat="-27.1560270" lon="152.8859382">
<ele>74.390</ele>
<time>2018-01-09T23:27:13.610Z</time>
</trkpt>
<trkpt lat="-27.1561414" lon="152.8857064">
<ele>72.309</ele>
<time>2018-01-09T23:27:16.947Z</time>
</trkpt>
<trkpt lat="-27.1562459" lon="152.8855524">
<ele>70.923</ele>
<time>2018-01-09T23:27:19.753Z</time>
</trkpt>
<trkpt lat="-27.1563459" lon="152.8853724">
<ele>70.529</ele>
<time>2018-01-09T23:27:22.386Z</time>
</trkpt>
<trkpt lat="-27.1564267" lon="152.8850835">
<ele>70.675</ele>
<time>2018-01-09T23:27:25.429Z</time>
</trkpt>
<trkpt lat="-27.1565044" lon="152.8847622">
<ele>70.775</ele>
<time>2018-01-09T23:27:28.539Z</time>
</trkpt>
<trkpt lat="-27.1567215" lon="152.8845191">
<ele>70.314</ele>
<time>2018-01-09T23:27:31.780Z</time>
</trkpt>
<trkpt lat="-27.1569119" lon="152.8842927">
<ele>69.300</ele>
<time>2018-01-09T23:27:34.906Z</time>
</trkpt>
<trkpt lat="-27.1570604" lon="152.8840594">
<ele>68.265</ele>
<time>2018-01-09T23:27:38.025Z</time>
</trkpt>
<trkpt lat="-27.1572233" lon="152.8839024">
<ele>67.574</ele>
<time>2018-01-09T23:27:40.653Z</time>
</trkpt>
<trkpt lat="-27.1574505" lon="152.8838319">
<ele>66.861</ele>
<time>2018-01-09T23:27:43.309Z</time>
</trkpt>
<trkpt lat="-27.1576896" lon="152.8836431">
<ele>65.450</ele>
<time>2018-01-09T23:27:46.231Z</time>
</trkpt>
<trkpt lat="-27.1579856" lon="152.8834660">
<ele>63.147</ele>
<time>2018-01-09T23:27:49.338Z</time>
</trkpt>
<trkpt lat="-27.1582916" lon="152.8833062">
<ele>60.521</ele>
<time>2018-01-09T23:27:52.439Z</time>
</trkpt>
<trkpt lat="-27.1585554" lon="152.8830897">
<ele>58.413</ele>
<time>2018-01-09T23:27:55.483Z</time>
</trkpt>
<trkpt lat="-27.1587904" lon="152.8827857">
<ele>57.627</ele>
<time>2018-01-09T23:27:58.824Z</time>
</trkpt>
<trkpt lat="-27.1588534" lon="152.8824475">
<ele>58.491</ele>
<time>2018-01-09T23:28:01.565Z</time>
</trkpt>
<trkpt lat="-27.1587766" lon="152.8820687">
<ele>60.455</ele>
<time>2018-01-09T23:28:04.475Z</time>
</trkpt>
<trkpt lat="-27.1586832" lon="152.8816659">
<ele>62.477</ele>
<time>2018-01-09T23:28:07.532Z</time>
</trkpt>
<trkpt lat="-27.1584737" lon="152.8813335">
<ele>63.841</ele>
<time>2018-01-09T23:28:10.553Z</time>
</trkpt>
<trkpt lat="-27.1582248" lon="152.8810532">
<ele>64.511</ele>
<time>2018-01-09T23:28:13.591Z</time>
</trkpt>
<trkpt lat="-27.1579860" lon="152.8807861">
<ele>64.884</ele>
<time>2018-01-09T23:28:16.597Z</time>
</trkpt>
<trkpt lat="-27.1577123" lon="152.8805818">
<ele>65.307</ele>
<time>2018-01-09T23:28:19.572Z</time>
</trkpt>
<trkpt lat="-27.1574386" lon="152.8803877">
<ele>65.891</ele>
<time>2018-01-09T23:28:22.492Z</time>
</trkpt>
<trkpt lat="-27.1571337" lon="152.8802304">
<ele>66.551</ele>
<time>2018-01-09T23:28:25.521Z</time>
</trkpt>
<trkpt lat="-27.1568267" lon="152.8801060">
<ele>67.149</ele>
<time>2018-01-09T23:28:28.545Z</time>
</trkpt>
<trkpt lat="-27.1565230" lon="152.8800020">
<ele>67.660</ele>
<time>2018-01-09T23:28:31.621Z</time>
</trkpt>
<trkpt lat="-27.1562435" lon="152.8799025">
<ele>68.149</ele>
<time>2018-01-09T23:28:34.590Z</time>
</trkpt>
<trkpt lat="-27.1559611" lon="152.8798066">
<ele>68.645</ele>
<time>2018-01-09T23:28:37.905Z</time>
</trkpt>
<trkpt lat="-27.1557107" lon="152.8797488">
<ele>69.132</ele>
<time>2018-01-09T23:28:41.033Z</time>
</trkpt>
<trkpt lat="-27.1554935" lon="152.8797164">
<ele>69.551</ele>
<time>2018-01-09T23:28:43.474Z</time>
</trkpt>
<trkpt lat="-27.1552181" lon="152.8796698">
<ele>69.870</ele>
<time>2018-01-09T23:28:46.093Z</time>
</trkpt>
<trkpt lat="-27.1548874" lon="152.8795786">
<ele>70.168</ele>
<time>2018-01-09T23:28:48.902Z</time>
</trkpt>
<trkpt lat="-27.1545293" lon="152.8794372">
<ele>70.545</ele>
<time>2018-01-09T23:28:51.857Z</time>
</trkpt>
<trkpt lat="-27.1543046" lon="152.8792857">
<ele>71.013</ele>
<time>2018-01-09T23:28:53.885Z</time>
</trkpt>
<trkpt lat="-27.1540968" lon="152.8791188">
<ele>71.505</ele>
<time>2018-01-09T23:28:55.856Z</time>
</trkpt>
<trkpt lat="-27.1538931" lon="152.8789344">
<ele>71.964</ele>
<time>2018-01-09T23:28:57.877Z</time>
</trkpt>
<trkpt lat="-27.1536979" lon="152.8787557">
<ele>72.371</ele>
<time>2018-01-09T23:28:59.824Z</time>
</trkpt>
<trkpt lat="-27.1535007" lon="152.8785758">
<ele>72.768</ele>
<time>2018-01-09T23:29:01.783Z</time>
</trkpt>
<trkpt lat="-27.1531938" lon="152.8783176">
<ele>73.230</ele>
<time>2018-01-09T23:29:04.698Z</time>
</trkpt>
<trkpt lat="-27.1529729" lon="152.8781568">
<ele>73.872</ele>
<time>2018-01-09T23:29:06.657Z</time>
</trkpt>
<trkpt lat="-27.1527464" lon="152.8780067">
<ele>74.732</ele>
<time>2018-01-09T23:29:08.547Z</time>
</trkpt>
<trkpt lat="-27.1524891" lon="152.8779037">
<ele>75.704</ele>
<time>2018-01-09T23:29:10.424Z</time>
</trkpt>
<trkpt lat="-27.1520540" lon="152.8777825">
<ele>76.702</ele>
<time>2018-01-09T23:29:13.447Z</time>
</trkpt>
<trkpt lat="-27.1516568" lon="152.8775767">
<ele>77.772</ele>
<time>2018-01-09T23:29:16.454Z</time>
</trkpt>
<trkpt lat="-27.1513212" lon="152.8772921">
<ele>78.926</ele>
<time>2018-01-09T23:29:19.416Z</time>
</trkpt>
<trkpt lat="-27.1510003" lon="152.8769939">
<ele>80.078</ele>
<time>2018-01-09T23:29:22.376Z</time>
</trkpt>
<trkpt lat="-27.1506788" lon="152.8766978">
<ele>81.135</ele>
<time>2018-01-09T23:29:25.307Z</time>
</trkpt>
<trkpt lat="-27.1503488" lon="152.8763973">
<ele>82.059</ele>
<time>2018-01-09T23:29:28.284Z</time>
</trkpt>
<trkpt lat="-27.1500203" lon="152.8761058">
<ele>82.862</ele>
<time>2018-01-09T23:29:31.220Z</time>
</trkpt>
<trkpt lat="-27.1496877" lon="152.8758110">
<ele>83.592</ele>
<time>2018-01-09T23:29:34.171Z</time>
</trkpt>
<trkpt lat="-27.1493565" lon="152.8755016">
<ele>84.221</ele>
<time>2018-01-09T23:29:37.118Z</time>
</trkpt>
<trkpt lat="-27.1490584" lon="152.8751387">
<ele>84.646</ele>
<time>2018-01-09T23:29:40.056Z</time>
</trkpt>
<trkpt lat="-27.1487697" lon="152.8747422">
<ele>84.788</ele>
<time>2018-01-09T23:29:43.031Z</time>
</trkpt>
<trkpt lat="-27.1484700" lon="152.8743299">
<ele>84.658</ele>
<time>2018-01-09T23:29:46.060Z</time>
</trkpt>
<trkpt lat="-27.1481866" lon="152.8738540">
<ele>84.276</ele>
<time>2018-01-09T23:29:49.299Z</time>
</trkpt>
<trkpt lat="-27.1478983" lon="152.8734151">
<ele>83.453</ele>
<time>2018-01-09T23:29:52.426Z</time>
</trkpt>
<trkpt lat="-27.1476138" lon="152.8730450">
<ele>81.864</ele>
<time>2018-01-09T23:29:55.271Z</time>
</trkpt>
<trkpt lat="-27.1473421" lon="152.8726956">
<ele>79.588</ele>
<time>2018-01-09T23:29:58.006Z</time>
</trkpt>
<trkpt lat="-27.1470511" lon="152.8723197">
<ele>77.167</ele>
<time>2018-01-09T23:30:00.941Z</time>
</trkpt>
<trkpt lat="-27.1467427" lon="152.8719190">
<ele>74.788</ele>
<time>2018-01-09T23:30:04.049Z</time>
</trkpt>
<trkpt lat="-27.1465069" lon="152.8715157">
<ele>72.205</ele>
<time>2018-01-09T23:30:07.118Z</time>
</trkpt>
<trkpt lat="-27.1461851" lon="152.8712651">
<ele>69.306</ele>
<time>2018-01-09T23:30:10.061Z</time>
</trkpt>
<trkpt lat="-27.1457595" lon="152.8709946">
<ele>66.090</ele>
<time>2018-01-09T23:30:13.347Z</time>
</trkpt>
<trkpt lat="-27.1453439" lon="152.8706978">
<ele>62.611</ele>
<time>2018-01-09T23:30:16.281Z</time>
</trkpt>
<trkpt lat="-27.1448723" lon="152.8703966">
<ele>59.311</ele>
<time>2018-01-09T23:30:19.336Z</time>
</trkpt>
<trkpt lat="-27.1443866" lon="152.8701306">
<ele>56.870</ele>
<time>2018-01-09T23:30:22.338Z</time>
</trkpt>
<trkpt lat="-27.1438760" lon="152.8700000">
<ele>55.648</ele>
<time>2018-01-09T23:30:25.269Z</time>
</trkpt>
<trkpt lat="-27.1433522" lon="152.8699321">
<ele>55.502</ele>
<time>2018-01-09T23:30:28.234Z</time>
</trkpt>
<trkpt lat="-27.1428051" lon="152.8698738">
<ele>55.967</ele>
<time>2018-01-09T23:30:31.306Z</time>
</trkpt>
<trkpt lat="-27.1422799" lon="152.8697969">
<ele>56.457</ele>
<time>2018-01-09T23:30:34.229Z</time>
</trkpt>
<trkpt lat="-27.1417438" lon="152.8697639">
<ele>56.497</ele>
<time>2018-01-09T23:30:37.210Z</time>
</trkpt>
<trkpt lat="-27.1412339" lon="152.8700106">
<ele>55.528</ele>
<time>2018-01-09T23:30:40.317Z</time>
</trkpt>
<trkpt lat="-27.1408110" lon="152.8703622">
<ele>53.616</ele>
<time>2018-01-09T23:30:43.238Z</time>
</trkpt>
<trkpt lat="-27.1405005" lon="152.8708595">
<ele>52.077</ele>
<time>2018-01-09T23:30:46.216Z</time>
</trkpt>
<trkpt lat="-27.1403043" lon="152.8714492">
<ele>52.213</ele>
<time>2018-01-09T23:30:49.249Z</time>
</trkpt>
<trkpt lat="-27.1401232" lon="152.8720581">
<ele>54.199</ele>
<time>2018-01-09T23:30:52.310Z</time>
</trkpt>
<trkpt lat="-27.1398994" lon="152.8726292">
<ele>57.272</ele>
<time>2018-01-09T23:30:55.322Z</time>
</trkpt>
<trkpt lat="-27.1396605" lon="152.8731538">
<ele>60.298</ele>
<time>2018-01-09T23:30:58.147Z</time>
</trkpt>
<trkpt lat="-27.1393038" lon="152.8736221">
<ele>62.721</ele>
<time>2018-01-09T23:31:01.031Z</time>
</trkpt>
<trkpt lat="-27.1389144" lon="152.8740628">
<ele>64.928</ele>
<time>2018-01-09T23:31:03.939Z</time>
</trkpt>
<trkpt lat="-27.1384681" lon="152.8744115">
<ele>67.583</ele>
<time>2018-01-09T23:31:06.875Z</time>
</trkpt>
<trkpt lat="-27.1380120" lon="152.8747195">
<ele>70.440</ele>
<time>2018-01-09T23:31:09.828Z</time>
</trkpt>
<trkpt lat="-27.1375020" lon="152.8748528">
<ele>72.571</ele>
<time>2018-01-09T23:31:12.805Z</time>
</trkpt>
<trkpt lat="-27.1369930" lon="152.8748127">
<ele>74.014</ele>
<time>2018-01-09T23:31:15.777Z</time>
</trkpt>
<trkpt lat="-27.1364966" lon="152.8747086">
<ele>75.665</ele>
<time>2018-01-09T23:31:18.771Z</time>
</trkpt>
<trkpt lat="-27.1359906" lon="152.8747068">
<ele>77.526</ele>
<time>2018-01-09T23:31:21.763Z</time>
</trkpt>
<trkpt lat="-27.1355127" lon="152.8749417">
<ele>78.740</ele>
<time>2018-01-09T23:31:24.781Z</time>
</trkpt>
<trkpt lat="-27.1350534" lon="152.8752799">
<ele>78.211</ele>
<time>2018-01-09T23:31:27.882Z</time>
</trkpt>
<trkpt lat="-27.1345906" lon="152.8756299">
<ele>75.229</ele>
<time>2018-01-09T23:31:30.967Z</time>
</trkpt>
<trkpt lat="-27.1341231" lon="152.8759369">
<ele>70.635</ele>
<time>2018-01-09T23:31:33.951Z</time>
</trkpt>
<trkpt lat="-27.1336640" lon="152.8761810">
<ele>66.215</ele>
<time>2018-01-09T23:31:36.789Z</time>
</trkpt>
<trkpt lat="-27.1331998" lon="152.8764613">
<ele>63.125</ele>
<time>2018-01-09T23:31:39.776Z</time>
</trkpt>
<trkpt lat="-27.1327766" lon="152.8768205">
<ele>61.685</ele>
<time>2018-01-09T23:31:42.813Z</time>
</trkpt>
<trkpt lat="-27.1324470" lon="152.8772778">
<ele>61.320</ele>
<time>2018-01-09T23:31:45.817Z</time>
</trkpt>
<trkpt lat="-27.1321012" lon="152.8777345">
<ele>60.983</ele>
<time>2018-01-09T23:31:48.845Z</time>
</trkpt>
<trkpt lat="-27.1317522" lon="152.8781712">
<ele>60.289</ele>
<time>2018-01-09T23:31:51.821Z</time>
</trkpt>
<trkpt lat="-27.1314466" lon="152.8786267">
<ele>59.561</ele>
<time>2018-01-09T23:31:54.726Z</time>
</trkpt>
<trkpt lat="-27.1312520" lon="152.8791966">
<ele>59.091</ele>
<time>2018-01-09T23:31:57.768Z</time>
</trkpt>
<trkpt lat="-27.1310463" lon="152.8797836">
<ele>58.662</ele>
<time>2018-01-09T23:32:00.838Z</time>
</trkpt>
<trkpt lat="-27.1307945" lon="152.8803492">
<ele>57.800</ele>
<time>2018-01-09T23:32:03.906Z</time>
</trkpt>
<trkpt lat="-27.1304464" lon="152.8808249">
<ele>56.488</ele>
<time>2018-01-09T23:32:06.899Z</time>
</trkpt>
<trkpt lat="-27.1301099" lon="152.8813042">
<ele>54.971</ele>
<time>2018-01-09T23:32:09.847Z</time>
</trkpt>
<trkpt lat="-27.1296854" lon="152.8816918">
<ele>53.083</ele>
<time>2018-01-09T23:32:12.809Z</time>
</trkpt>
<trkpt lat="-27.1291545" lon="152.8818459">
<ele>50.640</ele>
<time>2018-01-09T23:32:15.793Z</time>
</trkpt>
<trkpt lat="-27.1286155" lon="152.8819580">
<ele>47.763</ele>
<time>2018-01-09T23:32:18.789Z</time>
</trkpt>
<trkpt lat="-27.1280800" lon="152.8820033">
<ele>44.681</ele>
<time>2018-01-09T23:32:21.781Z</time>
</trkpt>
<trkpt lat="-27.1275611" lon="152.8821001">
<ele>41.962</ele>
<time>2018-01-09T23:32:24.861Z</time>
</trkpt>
<trkpt lat="-27.1271264" lon="152.8821763">
<ele>40.221</ele>
<time>2018-01-09T23:32:27.671Z</time>
</trkpt>
<trkpt lat="-27.1267347" lon="152.8822244">
<ele>39.344</ele>
<time>2018-01-09T23:32:30.539Z</time>
</trkpt>
<trkpt lat="-27.1264263" lon="152.8822730">
<ele>38.513</ele>
<time>2018-01-09T23:32:33.503Z</time>
</trkpt>
<trkpt lat="-27.1263017" lon="152.8822951">
<ele>37.156</ele>
<time>2018-01-09T23:32:34.997Z</time>
</trkpt>
<trkpt lat="-27.1263017" lon="152.8822951">
<ele>35.616</ele>
<time>2018-01-09T23:32:39.997Z</time>
</trkpt>
<trkpt lat="-27.1263017" lon="152.8822951">
<ele>34.749</ele>
<time>2018-01-09T23:32:40.015Z</time>
</trkpt>
<trkpt lat="-27.1261990" lon="152.8818940">
<ele>34.800</ele>
<time>2018-01-09T23:32:45.612Z</time>
</trkpt>
<trkpt lat="-27.1261551" lon="152.8814277">
<ele>35.135</ele>
<time>2018-01-09T23:32:48.881Z</time>
</trkpt>
<trkpt lat="-27.1261217" lon="152.8809503">
<ele>35.016</ele>
<time>2018-01-09T23:32:51.851Z</time>
</trkpt>
<trkpt lat="-27.1261319" lon="152.8804327">
<ele>34.393</ele>
<time>2018-01-09T23:32:54.964Z</time>
</trkpt>
<trkpt lat="-27.1261476" lon="152.8799369">
<ele>34.119</ele>
<time>2018-01-09T23:32:57.786Z</time>
</trkpt>
<trkpt lat="-27.1261089" lon="152.8793260">
<ele>34.965</ele>
<time>2018-01-09T23:33:00.972Z</time>
</trkpt>
<trkpt lat="-27.1261230" lon="152.8787233">
<ele>36.458</ele>
<time>2018-01-09T23:33:03.951Z</time>
</trkpt>
<trkpt lat="-27.1261162" lon="152.8781173">
<ele>37.454</ele>
<time>2018-01-09T23:33:06.905Z</time>
</trkpt>
<trkpt lat="-27.1260848" lon="152.8774968">
<ele>37.427</ele>
<time>2018-01-09T23:33:09.904Z</time>
</trkpt>
<trkpt lat="-27.1260267" lon="152.8768578">
<ele>36.700</ele>
<time>2018-01-09T23:33:12.979Z</time>
</trkpt>
<trkpt lat="-27.1259593" lon="152.8762558">
<ele>35.919</ele>
<time>2018-01-09T23:33:15.914Z</time>
</trkpt>
<trkpt lat="-27.1258620" lon="152.8756830">
<ele>35.645</ele>
<time>2018-01-09T23:33:18.794Z</time>
</trkpt>
<trkpt lat="-27.1257699" lon="152.8750645">
<ele>36.161</ele>
<time>2018-01-09T23:33:21.902Z</time>
</trkpt>
<trkpt lat="-27.1257084" lon="152.8744539">
<ele>37.375</ele>
<time>2018-01-09T23:33:24.910Z</time>
</trkpt>
<trkpt lat="-27.1256245" lon="152.8738308">
<ele>39.107</ele>
<time>2018-01-09T23:33:27.975Z</time>
</trkpt>
<trkpt lat="-27.1255266" lon="152.8732434">
<ele>41.054</ele>
<time>2018-01-09T23:33:30.910Z</time>
</trkpt>
<trkpt lat="-27.1254701" lon="152.8726636">
<ele>42.579</ele>
<time>2018-01-09T23:33:33.785Z</time>
</trkpt>
<trkpt lat="-27.1254143" lon="152.8720353">
<ele>43.122</ele>
<time>2018-01-09T23:33:36.873Z</time>
</trkpt>
<trkpt lat="-27.1253085" lon="152.8714390">
<ele>42.597</ele>
<time>2018-01-09T23:33:39.846Z</time>
</trkpt>
<trkpt lat="-27.1252357" lon="152.8708544">
<ele>41.507</ele>
<time>2018-01-09T23:33:42.746Z</time>
</trkpt>
<trkpt lat="-27.1251460" lon="152.8702604">
<ele>40.625</ele>
<time>2018-01-09T23:33:45.709Z</time>
</trkpt>
<trkpt lat="-27.1250834" lon="152.8696639">
<ele>40.180</ele>
<time>2018-01-09T23:33:48.667Z</time>
</trkpt>
<trkpt lat="-27.1250056" lon="152.8690669">
<ele>39.944</ele>
<time>2018-01-09T23:33:51.639Z</time>
</trkpt>
<trkpt lat="-27.1249465" lon="152.8684716">
<ele>39.850</ele>
<time>2018-01-09T23:33:54.577Z</time>
</trkpt>
<trkpt lat="-27.1248440" lon="152.8678792">
<ele>40.098</ele>
<time>2018-01-09T23:33:57.535Z</time>
</trkpt>
<trkpt lat="-27.1247737" lon="152.8672932">
<ele>40.892</ele>
<time>2018-01-09T23:34:00.433Z</time>
</trkpt>
<trkpt lat="-27.1246885" lon="152.8666941">
<ele>42.184</ele>
<time>2018-01-09T23:34:03.404Z</time>
</trkpt>
<trkpt lat="-27.1246069" lon="152.8660928">
<ele>43.602</ele>
<time>2018-01-09T23:34:06.368Z</time>
</trkpt>
<trkpt lat="-27.1245238" lon="152.8654623">
<ele>44.671</ele>
<time>2018-01-09T23:34:09.436Z</time>
</trkpt>
<trkpt lat="-27.1244450" lon="152.8648592">
<ele>45.005</ele>
<time>2018-01-09T23:34:12.367Z</time>
</trkpt>
<trkpt lat="-27.1243678" lon="152.8642727">
<ele>44.336</ele>
<time>2018-01-09T23:34:15.259Z</time>
</trkpt>
<trkpt lat="-27.1242948" lon="152.8636608">
<ele>42.859</ele>
<time>2018-01-09T23:34:18.296Z</time>
</trkpt>
<trkpt lat="-27.1242198" lon="152.8630642">
<ele>41.384</ele>
<time>2018-01-09T23:34:21.264Z</time>
</trkpt>
<trkpt lat="-27.1241570" lon="152.8624814">
<ele>40.574</ele>
<time>2018-01-09T23:34:24.176Z</time>
</trkpt>
<trkpt lat="-27.1241077" lon="152.8619106">
<ele>40.436</ele>
<time>2018-01-09T23:34:27.044Z</time>
</trkpt>
<trkpt lat="-27.1240297" lon="152.8613407">
<ele>40.836</ele>
<time>2018-01-09T23:34:29.955Z</time>
</trkpt>
<trkpt lat="-27.1239428" lon="152.8607829">
<ele>41.932</ele>
<time>2018-01-09T23:34:32.967Z</time>
</trkpt>
<trkpt lat="-27.1238611" lon="152.8603226">
<ele>43.891</ele>
<time>2018-01-09T23:34:35.892Z</time>
</trkpt>
<trkpt lat="-27.1238367" lon="152.8600230">
<ele>46.142</ele>
<time>2018-01-09T23:34:38.332Z</time>
</trkpt>
<trkpt lat="-27.1237726" lon="152.8599197">
<ele>47.654</ele>
<time>2018-01-09T23:34:39.933Z</time>
</trkpt>
<trkpt lat="-27.1234464" lon="152.8600301">
<ele>47.991</ele>
<time>2018-01-09T23:34:44.345Z</time>
</trkpt>
<trkpt lat="-27.1230450" lon="152.8601576">
<ele>47.031</ele>
<time>2018-01-09T23:34:47.772Z</time>
</trkpt>
<trkpt lat="-27.1225322" lon="152.8602406">
<ele>44.721</ele>
<time>2018-01-09T23:34:51.294Z</time>
</trkpt>
<trkpt lat="-27.1221074" lon="152.8603196">
<ele>41.991</ele>
<time>2018-01-09T23:34:54.334Z</time>
</trkpt>
<trkpt lat="-27.1217797" lon="152.8603298">
<ele>39.940</ele>
<time>2018-01-09T23:34:57.128Z</time>
</trkpt>
<trkpt lat="-27.1217096" lon="152.8599337">
<ele>38.472</ele>
<time>2018-01-09T23:35:00.589Z</time>
</trkpt>
<trkpt lat="-27.1217922" lon="152.8594920">
<ele>36.852</ele>
<time>2018-01-09T23:35:04.300Z</time>
</trkpt>
<trkpt lat="-27.1219085" lon="152.8591226">
<ele>34.515</ele>
<time>2018-01-09T23:35:07.828Z</time>
</trkpt>
<trkpt lat="-27.1219020" lon="152.8587941">
<ele>31.602</ele>
<time>2018-01-09T23:35:11.251Z</time>
</trkpt>
<trkpt lat="-27.1217326" lon="152.8586015">
<ele>29.005</ele>
<time>2018-01-09T23:35:13.627Z</time>
</trkpt>
<trkpt lat="-27.1216608" lon="152.8582168">
<ele>27.257</ele>
<time>2018-01-09T23:35:16.684Z</time>
</trkpt>
<trkpt lat="-27.1214949" lon="152.8579068">
<ele>26.227</ele>
<time>2018-01-09T23:35:19.441Z</time>
</trkpt>
<trkpt lat="-27.1211117" lon="152.8579025">
<ele>26.230</ele>
<time>2018-01-09T23:35:22.435Z</time>
</trkpt>
<trkpt lat="-27.1207092" lon="152.8580413">
<ele>27.526</ele>
<time>2018-01-09T23:35:25.233Z</time>
</trkpt>
<trkpt lat="-27.1201767" lon="152.8581607">
<ele>29.574</ele>
<time>2018-01-09T23:35:28.479Z</time>
</trkpt>
<trkpt lat="-27.1196947" lon="152.8582019">
<ele>31.859</ele>
<time>2018-01-09T23:35:31.292Z</time>
</trkpt>
<trkpt lat="-27.1191855" lon="152.8581520">
<ele>34.288</ele>
<time>2018-01-09T23:35:34.196Z</time>
</trkpt>
<trkpt lat="-27.1186282" lon="152.8581188">
<ele>36.575</ele>
<time>2018-01-09T23:35:37.315Z</time>
</trkpt>
<trkpt lat="-27.1181113" lon="152.8581267">
<ele>38.247</ele>
<time>2018-01-09T23:35:40.209Z</time>
</trkpt>
<trkpt lat="-27.1175632" lon="152.8581954">
<ele>38.843</ele>
<time>2018-01-09T23:35:43.266Z</time>
</trkpt>
<trkpt lat="-27.1170646" lon="152.8584839">
<ele>38.141</ele>
<time>2018-01-09T23:35:46.361Z</time>
</trkpt>
<trkpt lat="-27.1165939" lon="152.8587913">
<ele>36.493</ele>
<time>2018-01-09T23:35:49.426Z</time>
</trkpt>
<trkpt lat="-27.1161058" lon="152.8589641">
<ele>34.643</ele>
<time>2018-01-09T23:35:52.491Z</time>
</trkpt>
<trkpt lat="-27.1156265" lon="152.8588683">
<ele>33.080</ele>
<time>2018-01-09T23:35:55.531Z</time>
</trkpt>
<trkpt lat="-27.1153513" lon="152.8590716">
<ele>31.838</ele>
<time>2018-01-09T23:35:57.553Z</time>
</trkpt>
<trkpt lat="-27.1149964" lon="152.8594635">
<ele>30.910</ele>
<time>2018-01-09T23:36:00.629Z</time>
</trkpt>
<trkpt lat="-27.1147346" lon="152.8599108">
<ele>30.204</ele>
<time>2018-01-09T23:36:03.503Z</time>
</trkpt>
<trkpt lat="-27.1143885" lon="152.8603666">
<ele>29.581</ele>
<time>2018-01-09T23:36:06.521Z</time>
</trkpt>
<trkpt lat="-27.1139198" lon="152.8606779">
<ele>29.115</ele>
<time>2018-01-09T23:36:09.499Z</time>
</trkpt>
<trkpt lat="-27.1134103" lon="152.8609315">
<ele>29.090</ele>
<time>2018-01-09T23:36:12.479Z</time>
</trkpt>
<trkpt lat="-27.1128818" lon="152.8611970">
<ele>29.751</ele>
<time>2018-01-09T23:36:15.505Z</time>
</trkpt>
<trkpt lat="-27.1125380" lon="152.8613978">
<ele>31.037</ele>
<time>2018-01-09T23:36:17.501Z</time>
</trkpt>
<trkpt lat="-27.1122030" lon="152.8616583">
<ele>32.400</ele>
<time>2018-01-09T23:36:19.606Z</time>
</trkpt>
<trkpt lat="-27.1119175" lon="152.8619882">
<ele>33.351</ele>
<time>2018-01-09T23:36:21.741Z</time>
</trkpt>
<trkpt lat="-27.1117083" lon="152.8623441">
<ele>33.840</ele>
<time>2018-01-09T23:36:23.751Z</time>
</trkpt>
<trkpt lat="-27.1114679" lon="152.8626536">
<ele>34.146</ele>
<time>2018-01-09T23:36:25.708Z</time>
</trkpt>
<trkpt lat="-27.1111907" lon="152.8629182">
<ele>34.610</ele>
<time>2018-01-09T23:36:27.651Z</time>
</trkpt>
<trkpt lat="-27.1106548" lon="152.8631893">
<ele>35.322</ele>
<time>2018-01-09T23:36:30.683Z</time>
</trkpt>
<trkpt lat="-27.1100389" lon="152.8632594">
<ele>36.406</ele>
<time>2018-01-09T23:36:33.774Z</time>
</trkpt>
<trkpt lat="-27.1094344" lon="152.8632686">
<ele>38.147</ele>
<time>2018-01-09T23:36:36.782Z</time>
</trkpt>
<trkpt lat="-27.1088214" lon="152.8632808">
<ele>40.333</ele>
<time>2018-01-09T23:36:39.841Z</time>
</trkpt>
<trkpt lat="-27.1082332" lon="152.8633034">
<ele>42.172</ele>
<time>2018-01-09T23:36:42.789Z</time>
</trkpt>
<trkpt lat="-27.1076602" lon="152.8633631">
<ele>43.127</ele>
<time>2018-01-09T23:36:45.684Z</time>
</trkpt>
<trkpt lat="-27.1070947" lon="152.8634170">
<ele>43.478</ele>
<time>2018-01-09T23:36:48.573Z</time>
</trkpt>
<trkpt lat="-27.1065080" lon="152.8634633">
<ele>44.029</ele>
<time>2018-01-09T23:36:51.606Z</time>
</trkpt>
<trkpt lat="-27.1059240" lon="152.8634615">
<ele>45.481</ele>
<time>2018-01-09T23:36:54.686Z</time>
</trkpt>
<trkpt lat="-27.1053644" lon="152.8634746">
<ele>47.826</ele>
<time>2018-01-09T23:36:57.734Z</time>
</trkpt>
<trkpt lat="-27.1048206" lon="152.8633991">
<ele>50.387</ele>
<time>2018-01-09T23:37:00.647Z</time>
</trkpt>
<trkpt lat="-27.1043445" lon="152.8629745">
<ele>52.628</ele>
<time>2018-01-09T23:37:03.743Z</time>
</trkpt>
<trkpt lat="-27.1038254" lon="152.8626309">
<ele>54.461</ele>
<time>2018-01-09T23:37:06.801Z</time>
</trkpt>
<trkpt lat="-27.1033365" lon="152.8623006">
<ele>56.026</ele>
<time>2018-01-09T23:37:09.773Z</time>
</trkpt>
<trkpt lat="-27.1028913" lon="152.8619336">
<ele>57.593</ele>
<time>2018-01-09T23:37:12.795Z</time>
</trkpt>
<trkpt lat="-27.1024572" lon="152.8615806">
<ele>59.050</ele>
<time>2018-01-09T23:37:15.834Z</time>
</trkpt>
<trkpt lat="-27.1019266" lon="152.8614759">
<ele>59.929</ele>
<time>2018-01-09T23:37:18.789Z</time>
</trkpt>
<trkpt lat="-27.1013500" lon="152.8615203">
<ele>60.132</ele>
<time>2018-01-09T23:37:21.808Z</time>
</trkpt>
<trkpt lat="-27.1007545" lon="152.8614899">
<ele>59.749</ele>
<time>2018-01-09T23:37:24.795Z</time>
</trkpt>
<trkpt lat="-27.1001359" lon="152.8615583">
<ele>58.732</ele>
<time>2018-01-09T23:37:27.797Z</time>
</trkpt>
<trkpt lat="-27.0995335" lon="152.8617947">
<ele>57.255</ele>
<time>2018-01-09T23:37:30.833Z</time>
</trkpt>
<trkpt lat="-27.0988971" lon="152.8619287">
<ele>55.298</ele>
<time>2018-01-09T23:37:34.039Z</time>
</trkpt>
<trkpt lat="-27.0983557" lon="152.8619638">
<ele>52.458</ele>
<time>2018-01-09T23:37:36.838Z</time>
</trkpt>
<trkpt lat="-27.0978650" lon="152.8616098">
<ele>49.201</ele>
<time>2018-01-09T23:37:39.700Z</time>
</trkpt>
<trkpt lat="-27.0973907" lon="152.8611094">
<ele>46.826</ele>
<time>2018-01-09T23:37:42.819Z</time>
</trkpt>
<trkpt lat="-27.0969041" lon="152.8606731">
<ele>45.922</ele>
<time>2018-01-09T23:37:45.876Z</time>
</trkpt>
<trkpt lat="-27.0964181" lon="152.8602958">
<ele>46.096</ele>
<time>2018-01-09T23:37:48.937Z</time>
</trkpt>
<trkpt lat="-27.0959762" lon="152.8599829">
<ele>46.681</ele>
<time>2018-01-09T23:37:52.093Z</time>
</trkpt>
<trkpt lat="-27.0955602" lon="152.8598488">
<ele>47.582</ele>
<time>2018-01-09T23:37:54.757Z</time>
</trkpt>
<trkpt lat="-27.0950785" lon="152.8601084">
<ele>49.183</ele>
<time>2018-01-09T23:37:57.675Z</time>
</trkpt>
<trkpt lat="-27.0945498" lon="152.8603473">
<ele>51.096</ele>
<time>2018-01-09T23:38:00.648Z</time>
</trkpt>
<trkpt lat="-27.0940194" lon="152.8606699">
<ele>52.188</ele>
<time>2018-01-09T23:38:03.745Z</time>
</trkpt>
<trkpt lat="-27.0935633" lon="152.8610577">
<ele>52.004</ele>
<time>2018-01-09T23:38:06.618Z</time>
</trkpt>
<trkpt lat="-27.0932429" lon="152.8616921">
<ele>50.845</ele>
<time>2018-01-09T23:38:09.849Z</time>
</trkpt>
<trkpt lat="-27.0928542" lon="152.8621909">
<ele>48.957</ele>
<time>2018-01-09T23:38:12.866Z</time>
</trkpt>
<trkpt lat="-27.0924617" lon="152.8626391">
<ele>46.511</ele>
<time>2018-01-09T23:38:15.976Z</time>
</trkpt>
<trkpt lat="-27.0919972" lon="152.8627948">
<ele>44.212</ele>
<time>2018-01-09T23:38:18.790Z</time>
</trkpt>
<trkpt lat="-27.0914573" lon="152.8627754">
<ele>43.296</ele>
<time>2018-01-09T23:38:21.854Z</time>
</trkpt>
<trkpt lat="-27.0909270" lon="152.8627809">
<ele>44.597</ele>
<time>2018-01-09T23:38:24.903Z</time>
</trkpt>
<trkpt lat="-27.0904232" lon="152.8628882">
<ele>47.714</ele>
<time>2018-01-09T23:38:27.893Z</time>
</trkpt>
<trkpt lat="-27.0900978" lon="152.8633519">
<ele>51.368</ele>
<time>2018-01-09T23:38:30.789Z</time>
</trkpt>
<trkpt lat="-27.0897334" lon="152.8639252">
<ele>54.414</ele>
<time>2018-01-09T23:38:34.065Z</time>
</trkpt>
<trkpt lat="-27.0893456" lon="152.8644098">
<ele>56.294</ele>
<time>2018-01-09T23:38:37.086Z</time>
</trkpt>
<trkpt lat="-27.0889428" lon="152.8648942">
<ele>56.595</ele>
<time>2018-01-09T23:38:40.149Z</time>
</trkpt>
<trkpt lat="-27.0885450" lon="152.8653475">
<ele>54.924</ele>
<time>2018-01-09T23:38:43.147Z</time>
</trkpt>
<trkpt lat="-27.0881174" lon="152.8656864">
<ele>51.565</ele>
<time>2018-01-09T23:38:46.024Z</time>
</trkpt>
<trkpt lat="-27.0875975" lon="152.8657891">
<ele>47.500</ele>
<time>2018-01-09T23:38:48.902Z</time>
</trkpt>
<trkpt lat="-27.0870258" lon="152.8658627">
<ele>43.536</ele>
<time>2018-01-09T23:38:52.053Z</time>
</trkpt>
<trkpt lat="-27.0865274" lon="152.8659954">
<ele>40.343</ele>
<time>2018-01-09T23:38:55.043Z</time>
</trkpt>
<trkpt lat="-27.0862458" lon="152.8664528">
<ele>38.786</ele>
<time>2018-01-09T23:38:57.880Z</time>
</trkpt>
<trkpt lat="-27.0859255" lon="152.8670048">
<ele>39.658</ele>
<time>2018-01-09T23:39:01.043Z</time>
</trkpt>
<trkpt lat="-27.0855792" lon="152.8674970">
<ele>42.827</ele>
<time>2018-01-09T23:39:04.071Z</time>
</trkpt>
<trkpt lat="-27.0852517" lon="152.8679561">
<ele>47.144</ele>
<time>2018-01-09T23:39:06.944Z</time>
</trkpt>
<trkpt lat="-27.0848558" lon="152.8684114">
<ele>51.380</ele>
<time>2018-01-09T23:39:09.958Z</time>
</trkpt>
<trkpt lat="-27.0844957" lon="152.8689219">
<ele>54.822</ele>
<time>2018-01-09T23:39:12.936Z</time>
</trkpt>
<trkpt lat="-27.0841154" lon="152.8694245">
<ele>56.969</ele>
<time>2018-01-09T23:39:15.958Z</time>
</trkpt>
<trkpt lat="-27.0837152" lon="152.8698438">
<ele>57.795</ele>
<time>2018-01-09T23:39:18.802Z</time>
</trkpt>
<trkpt lat="-27.0832160" lon="152.8701622">
<ele>57.832</ele>
<time>2018-01-09T23:39:21.720Z</time>
</trkpt>
<trkpt lat="-27.0826079" lon="152.8703196">
<ele>57.863</ele>
<time>2018-01-09T23:39:24.836Z</time>
</trkpt>
<trkpt lat="-27.0820468" lon="152.8705084">
<ele>58.368</ele>
<time>2018-01-09T23:39:27.788Z</time>
</trkpt>
<trkpt lat="-27.0814879" lon="152.8707074">
<ele>59.152</ele>
<time>2018-01-09T23:39:30.786Z</time>
</trkpt>
<trkpt lat="-27.0809279" lon="152.8708996">
<ele>59.434</ele>
<time>2018-01-09T23:39:33.765Z</time>
</trkpt>
<trkpt lat="-27.0803532" lon="152.8710703">
<ele>58.706</ele>
<time>2018-01-09T23:39:36.750Z</time>
</trkpt>
<trkpt lat="-27.0797896" lon="152.8712383">
<ele>57.284</ele>
<time>2018-01-09T23:39:39.676Z</time>
</trkpt>
<trkpt lat="-27.0792262" lon="152.8714293">
<ele>55.665</ele>
<time>2018-01-09T23:39:42.629Z</time>
</trkpt>
<trkpt lat="-27.0786627" lon="152.8716147">
<ele>53.933</ele>
<time>2018-01-09T23:39:45.561Z</time>
</trkpt>
<trkpt lat="-27.0780716" lon="152.8718260">
<ele>52.212</ele>
<time>2018-01-09T23:39:48.643Z</time>
</trkpt>
<trkpt lat="-27.0774943" lon="152.8720055">
<ele>50.775</ele>
<time>2018-01-09T23:39:51.613Z</time>
</trkpt>
<trkpt lat="-27.0769185" lon="152.8721882">
<ele>49.572</ele>
<time>2018-01-09T23:39:54.585Z</time>
</trkpt>
<trkpt lat="-27.0763394" lon="152.8723658">
<ele>47.901</ele>
<time>2018-01-09T23:39:57.594Z</time>
</trkpt>
<trkpt lat="-27.0757691" lon="152.8724473">
<ele>45.104</ele>
<time>2018-01-09T23:40:00.489Z</time>
</trkpt>
<trkpt lat="-27.0751663" lon="152.8723650">
<ele>41.531</ele>
<time>2018-01-09T23:40:03.553Z</time>
</trkpt>
<trkpt lat="-27.0746233" lon="152.8721187">
<ele>38.161</ele>
<time>2018-01-09T23:40:06.530Z</time>
</trkpt>
<trkpt lat="-27.0741278" lon="152.8717519">
<ele>35.777</ele>
<time>2018-01-09T23:40:09.558Z</time>
</trkpt>
<trkpt lat="-27.0736473" lon="152.8714050">
<ele>34.784</ele>
<time>2018-01-09T23:40:12.470Z</time>
</trkpt>
<trkpt lat="-27.0731114" lon="152.8711105">
<ele>35.328</ele>
<time>2018-01-09T23:40:15.483Z</time>
</trkpt>
<trkpt lat="-27.0725189" lon="152.8709623">
<ele>37.110</ele>
<time>2018-01-09T23:40:18.502Z</time>
</trkpt>
<trkpt lat="-27.0719092" lon="152.8709560">
<ele>39.393</ele>
<time>2018-01-09T23:40:21.507Z</time>
</trkpt>
<trkpt lat="-27.0713083" lon="152.8709696">
<ele>41.419</ele>
<time>2018-01-09T23:40:24.456Z</time>
</trkpt>
<trkpt lat="-27.0707084" lon="152.8709528">
<ele>42.722</ele>
<time>2018-01-09T23:40:27.375Z</time>
</trkpt>
<trkpt lat="-27.0700966" lon="152.8708960">
<ele>42.613</ele>
<time>2018-01-09T23:40:30.370Z</time>
</trkpt>
<trkpt lat="-27.0694973" lon="152.8708166">
<ele>40.257</ele>
<time>2018-01-09T23:40:33.377Z</time>
</trkpt>
<trkpt lat="-27.0689418" lon="152.8706301">
<ele>36.114</ele>
<time>2018-01-09T23:40:36.315Z</time>
</trkpt>
<trkpt lat="-27.0684070" lon="152.8703969">
<ele>32.117</ele>
<time>2018-01-09T23:40:39.234Z</time>
</trkpt>
<trkpt lat="-27.0678674" lon="152.8701523">
<ele>29.690</ele>
<time>2018-01-09T23:40:42.194Z</time>
</trkpt>
<trkpt lat="-27.0673412" lon="152.8699176">
<ele>29.038</ele>
<time>2018-01-09T23:40:45.080Z</time>
</trkpt>
<trkpt lat="-27.0667958" lon="152.8696717">
<ele>29.942</ele>
<time>2018-01-09T23:40:48.046Z</time>
</trkpt>
<trkpt lat="-27.0662173" lon="152.8694133">
<ele>32.254</ele>
<time>2018-01-09T23:40:51.126Z</time>
</trkpt>
<trkpt lat="-27.0656017" lon="152.8694268">
<ele>35.248</ele>
<time>2018-01-09T23:40:54.144Z</time>
</trkpt>
<trkpt lat="-27.0650163" lon="152.8695856">
<ele>37.543</ele>
<time>2018-01-09T23:40:57.106Z</time>
</trkpt>
<trkpt lat="-27.0644201" lon="152.8697309">
<ele>38.203</ele>
<time>2018-01-09T23:41:00.127Z</time>
</trkpt>
<trkpt lat="-27.0638420" lon="152.8698714">
<ele>37.228</ele>
<time>2018-01-09T23:41:03.079Z</time>
</trkpt>
<trkpt lat="-27.0632614" lon="152.8699724">
<ele>35.104</ele>
<time>2018-01-09T23:41:06.029Z</time>
</trkpt>
<trkpt lat="-27.0626868" lon="152.8701222">
<ele>32.602</ele>
<time>2018-01-09T23:41:09.031Z</time>
</trkpt>
<trkpt lat="-27.0622457" lon="152.8705286">
<ele>30.364</ele>
<time>2018-01-09T23:41:11.951Z</time>
</trkpt>
<trkpt lat="-27.0618351" lon="152.8710736">
<ele>28.549</ele>
<time>2018-01-09T23:41:15.150Z</time>
</trkpt>
<trkpt lat="-27.0613494" lon="152.8714685">
<ele>27.159</ele>
<time>2018-01-09T23:41:18.149Z</time>
</trkpt>
<trkpt lat="-27.0607729" lon="152.8716778">
<ele>26.571</ele>
<time>2018-01-09T23:41:21.210Z</time>
</trkpt>
<trkpt lat="-27.0601658" lon="152.8717084">
<ele>27.182</ele>
<time>2018-01-09T23:41:24.288Z</time>
</trkpt>
<trkpt lat="-27.0595833" lon="152.8716593">
<ele>28.742</ele>
<time>2018-01-09T23:41:27.243Z</time>
</trkpt>
<trkpt lat="-27.0589977" lon="152.8715935">
<ele>30.502</ele>
<time>2018-01-09T23:41:30.212Z</time>
</trkpt>
<trkpt lat="-27.0584151" lon="152.8715273">
<ele>31.908</ele>
<time>2018-01-09T23:41:33.152Z</time>
</trkpt>
<trkpt lat="-27.0578233" lon="152.8714316">
<ele>32.860</ele>
<time>2018-01-09T23:41:36.143Z</time>
</trkpt>
<trkpt lat="-27.0572313" lon="152.8713493">
<ele>33.407</ele>
<time>2018-01-09T23:41:39.132Z</time>
</trkpt>
<trkpt lat="-27.0566514" lon="152.8712744">
<ele>33.774</ele>
<time>2018-01-09T23:41:42.060Z</time>
</trkpt>
<trkpt lat="-27.0560558" lon="152.8711754">
<ele>34.265</ele>
<time>2018-01-09T23:41:45.089Z</time>
</trkpt>
<trkpt lat="-27.0554800" lon="152.8711177">
<ele>34.898</ele>
<time>2018-01-09T23:41:48.033Z</time>
</trkpt>
<trkpt lat="-27.0549132" lon="152.8710335">
<ele>35.529</ele>
<time>2018-01-09T23:41:50.971Z</time>
</trkpt>
<trkpt lat="-27.0543385" lon="152.8709374">
<ele>36.573</ele>
<time>2018-01-09T23:41:53.955Z</time>
</trkpt>
<trkpt lat="-27.0537630" lon="152.8708446">
<ele>38.527</ele>
<time>2018-01-09T23:41:56.937Z</time>
</trkpt>
<trkpt lat="-27.0531845" lon="152.8707466">
<ele>40.795</ele>
<time>2018-01-09T23:41:59.957Z</time>
</trkpt>
<trkpt lat="-27.0526147" lon="152.8706696">
<ele>42.272</ele>
<time>2018-01-09T23:42:02.952Z</time>
</trkpt>
<trkpt lat="-27.0520425" lon="152.8706202">
<ele>42.816</ele>
<time>2018-01-09T23:42:05.968Z</time>
</trkpt>
<trkpt lat="-27.0514797" lon="152.8705336">
<ele>43.295</ele>
<time>2018-01-09T23:42:08.933Z</time>
</trkpt>
<trkpt lat="-27.0509014" lon="152.8704644">
<ele>44.444</ele>
<time>2018-01-09T23:42:11.939Z</time>
</trkpt>
<trkpt lat="-27.0503465" lon="152.8703502">
<ele>46.200</ele>
<time>2018-01-09T23:42:14.860Z</time>
</trkpt>
<trkpt lat="-27.0498615" lon="152.8700911">
<ele>48.254</ele>
<time>2018-01-09T23:42:17.853Z</time>
</trkpt>
<trkpt lat="-27.0494686" lon="152.8698471">
<ele>50.578</ele>
<time>2018-01-09T23:42:20.744Z</time>
</trkpt>
<trkpt lat="-27.0491199" lon="152.8695971">
<ele>52.967</ele>
<time>2018-01-09T23:42:23.651Z</time>
</trkpt>
<trkpt lat="-27.0488025" lon="152.8692639">
<ele>54.904</ele>
<time>2018-01-09T23:42:26.746Z</time>
</trkpt>
<trkpt lat="-27.0485765" lon="152.8688529">
<ele>56.018</ele>
<time>2018-01-09T23:42:29.818Z</time>
</trkpt>
<trkpt lat="-27.0483265" lon="152.8684719">
<ele>56.390</ele>
<time>2018-01-09T23:42:32.819Z</time>
</trkpt>
<trkpt lat="-27.0480909" lon="152.8680681">
<ele>56.419</ele>
<time>2018-01-09T23:42:35.872Z</time>
</trkpt>
<trkpt lat="-27.0478415" lon="152.8677056">
<ele>56.635</ele>
<time>2018-01-09T23:42:38.754Z</time>
</trkpt>
<trkpt lat="-27.0475118" lon="152.8674013">
<ele>57.178</ele>
<time>2018-01-09T23:42:41.727Z</time>
</trkpt>
<trkpt lat="-27.0471747" lon="152.8670735">
<ele>57.729</ele>
<time>2018-01-09T23:42:44.790Z</time>
</trkpt>
<trkpt lat="-27.0468714" lon="152.8667437">
<ele>58.112</ele>
<time>2018-01-09T23:42:47.693Z</time>
</trkpt>
<trkpt lat="-27.0465931" lon="152.8664038">
<ele>58.666</ele>
<time>2018-01-09T23:42:50.549Z</time>
</trkpt>
<trkpt lat="-27.0462983" lon="152.8660592">
<ele>59.714</ele>
<time>2018-01-09T23:42:53.488Z</time>
</trkpt>
<trkpt lat="-27.0459677" lon="152.8657066">
<ele>61.108</ele>
<time>2018-01-09T23:42:56.580Z</time>
</trkpt>
<trkpt lat="-27.0456459" lon="152.8653837">
<ele>62.402</ele>
<time>2018-01-09T23:42:59.512Z</time>
</trkpt>
<trkpt lat="-27.0453267" lon="152.8650562">
<ele>63.259</ele>
<time>2018-01-09T23:43:02.515Z</time>
</trkpt>
<trkpt lat="-27.0450491" lon="152.8647186">
<ele>63.683</ele>
<time>2018-01-09T23:43:05.397Z</time>
</trkpt>
<trkpt lat="-27.0448359" lon="152.8642990">
<ele>64.030</ele>
<time>2018-01-09T23:43:08.407Z</time>
</trkpt>
<trkpt lat="-27.0446326" lon="152.8638565">
<ele>64.670</ele>
<time>2018-01-09T23:43:11.446Z</time>
</trkpt>
<trkpt lat="-27.0443887" lon="152.8634371">
<ele>65.701</ele>
<time>2018-01-09T23:43:14.486Z</time>
</trkpt>
<trkpt lat="-27.0441442" lon="152.8630770">
<ele>66.933</ele>
<time>2018-01-09T23:43:17.286Z</time>
</trkpt>
<trkpt lat="-27.0438705" lon="152.8627137">
<ele>67.971</ele>
<time>2018-01-09T23:43:20.279Z</time>
</trkpt>
<trkpt lat="-27.0436323" lon="152.8623110">
<ele>68.523</ele>
<time>2018-01-09T23:43:23.304Z</time>
</trkpt>
<trkpt lat="-27.0433130" lon="152.8619794">
<ele>68.677</ele>
<time>2018-01-09T23:43:26.311Z</time>
</trkpt>
<trkpt lat="-27.0429875" lon="152.8616407">
<ele>68.885</ele>
<time>2018-01-09T23:43:29.369Z</time>
</trkpt>
<trkpt lat="-27.0426832" lon="152.8613220">
<ele>69.540</ele>
<time>2018-01-09T23:43:32.278Z</time>
</trkpt>
<trkpt lat="-27.0422941" lon="152.8611341">
<ele>70.651</ele>
<time>2018-01-09T23:43:35.262Z</time>
</trkpt>
<trkpt lat="-27.0418379" lon="152.8611421">
<ele>72.015</ele>
<time>2018-01-09T23:43:38.438Z</time>
</trkpt>
<trkpt lat="-27.0413954" lon="152.8611201">
<ele>73.458</ele>
<time>2018-01-09T23:43:41.545Z</time>
</trkpt>
<trkpt lat="-27.0409995" lon="152.8610605">
<ele>74.827</ele>
<time>2018-01-09T23:43:44.587Z</time>
</trkpt>
<trkpt lat="-27.0407273" lon="152.8609305">
<ele>76.009</ele>
<time>2018-01-09T23:43:47.150Z</time>
</trkpt>
<trkpt lat="-27.0405356" lon="152.8606214">
<ele>76.859</ele>
<time>2018-01-09T23:43:50.545Z</time>
</trkpt>
<trkpt lat="-27.0404347" lon="152.8604150">
<ele>77.068</ele>
<time>2018-01-09T23:43:53.640Z</time>
</trkpt>
<trkpt lat="-27.0403488" lon="152.8603612">
<ele>76.479</ele>
<time>2018-01-09T23:43:55.699Z</time>
</trkpt>
<trkpt lat="-27.0401665" lon="152.8603763">
<ele>75.526</ele>
<time>2018-01-09T23:44:00.591Z</time>
</trkpt>
<trkpt lat="-27.0400761" lon="152.8603687">
<ele>74.949</ele>
<time>2018-01-09T23:44:02.998Z</time>
</trkpt>
<trkpt lat="-27.0400761" lon="152.8603687">
<ele>74.986</ele>
<time>2018-01-09T23:44:05.998Z</time>
</trkpt>
<trkpt lat="-27.0400761" lon="152.8603687">
<ele>75.200</ele>
<time>2018-01-09T23:44:15.811Z</time>
</trkpt>
<trkpt lat="-27.0399759" lon="152.8602894">
<ele>75.183</ele>
<time>2018-01-09T23:44:20.877Z</time>
</trkpt>
<trkpt lat="-27.0397514" lon="152.8599414">
<ele>74.830</ele>
<time>2018-01-09T23:44:25.120Z</time>
</trkpt>
<trkpt lat="-27.0394870" lon="152.8596008">
<ele>74.028</ele>
<time>2018-01-09T23:44:28.501Z</time>
</trkpt>
<trkpt lat="-27.0391626" lon="152.8593017">
<ele>72.904</ele>
<time>2018-01-09T23:44:31.673Z</time>
</trkpt>
<trkpt lat="-27.0388185" lon="152.8590305">
<ele>71.903</ele>
<time>2018-01-09T23:44:34.718Z</time>
</trkpt>
<trkpt lat="-27.0384575" lon="152.8587789">
<ele>71.245</ele>
<time>2018-01-09T23:44:37.760Z</time>
</trkpt>
<trkpt lat="-27.0381018" lon="152.8585182">
<ele>70.873</ele>
<time>2018-01-09T23:44:40.747Z</time>
</trkpt>
<trkpt lat="-27.0377400" lon="152.8582437">
<ele>70.755</ele>
<time>2018-01-09T23:44:43.749Z</time>
</trkpt>
<trkpt lat="-27.0373814" lon="152.8579506">
<ele>70.884</ele>
<time>2018-01-09T23:44:46.774Z</time>
</trkpt>
<trkpt lat="-27.0370444" lon="152.8576340">
<ele>71.155</ele>
<time>2018-01-09T23:44:49.767Z</time>
</trkpt>
<trkpt lat="-27.0367050" lon="152.8573127">
<ele>71.412</ele>
<time>2018-01-09T23:44:52.735Z</time>
</trkpt>
<trkpt lat="-27.0363513" lon="152.8569812">
<ele>71.553</ele>
<time>2018-01-09T23:44:55.752Z</time>
</trkpt>
<trkpt lat="-27.0359960" lon="152.8566338">
<ele>71.563</ele>
<time>2018-01-09T23:44:58.758Z</time>
</trkpt>
<trkpt lat="-27.0356135" lon="152.8562858">
<ele>71.361</ele>
<time>2018-01-09T23:45:01.744Z</time>
</trkpt>
<trkpt lat="-27.0351776" lon="152.8559622">
<ele>70.649</ele>
<time>2018-01-09T23:45:04.653Z</time>
</trkpt>
<trkpt lat="-27.0346420" lon="152.8556553">
<ele>69.286</ele>
<time>2018-01-09T23:45:07.790Z</time>
</trkpt>
<trkpt lat="-27.0341174" lon="152.8553542">
<ele>67.372</ele>
<time>2018-01-09T23:45:10.845Z</time>
</trkpt>
<trkpt lat="-27.0336174" lon="152.8550753">
<ele>65.214</ele>
<time>2018-01-09T23:45:13.771Z</time>
</trkpt>
<trkpt lat="-27.0331112" lon="152.8547767">
<ele>63.220</ele>
<time>2018-01-09T23:45:16.770Z</time>
</trkpt>
<trkpt lat="-27.0326083" lon="152.8544630">
<ele>61.666</ele>
<time>2018-01-09T23:45:19.771Z</time>
</trkpt>
<trkpt lat="-27.0321054" lon="152.8541645">
<ele>60.622</ele>
<time>2018-01-09T23:45:22.722Z</time>
</trkpt>
<trkpt lat="-27.0315734" lon="152.8538947">
<ele>59.992</ele>
<time>2018-01-09T23:45:25.754Z</time>
</trkpt>
<trkpt lat="-27.0310475" lon="152.8536455">
<ele>59.433</ele>
<time>2018-01-09T23:45:28.764Z</time>
</trkpt>
<trkpt lat="-27.0304931" lon="152.8534987">
<ele>58.753</ele>
<time>2018-01-09T23:45:31.802Z</time>
</trkpt>
<trkpt lat="-27.0299396" lon="152.8534081">
<ele>57.985</ele>
<time>2018-01-09T23:45:34.795Z</time>
</trkpt>
<trkpt lat="-27.0293964" lon="152.8533678">
<ele>57.219</ele>
<time>2018-01-09T23:45:37.729Z</time>
</trkpt>
<trkpt lat="-27.0288298" lon="152.8533241">
<ele>56.456</ele>
<time>2018-01-09T23:45:40.807Z</time>
</trkpt>
<trkpt lat="-27.0282914" lon="152.8532033">
<ele>55.472</ele>
<time>2018-01-09T23:45:43.807Z</time>
</trkpt>
<trkpt lat="-27.0278028" lon="152.8530453">
<ele>54.283</ele>
<time>2018-01-09T23:45:46.581Z</time>
</trkpt>
<trkpt lat="-27.0272734" lon="152.8528054">
<ele>53.392</ele>
<time>2018-01-09T23:45:49.555Z</time>
</trkpt>
<trkpt lat="-27.0267197" lon="152.8524947">
<ele>52.992</ele>
<time>2018-01-09T23:45:52.624Z</time>
</trkpt>
<trkpt lat="-27.0262453" lon="152.8520706">
<ele>52.794</ele>
<time>2018-01-09T23:45:55.585Z</time>
</trkpt>
<trkpt lat="-27.0257953" lon="152.8515778">
<ele>52.637</ele>
<time>2018-01-09T23:45:58.610Z</time>
</trkpt>
<trkpt lat="-27.0253970" lon="152.8510280">
<ele>52.341</ele>
<time>2018-01-09T23:46:01.622Z</time>
</trkpt>
<trkpt lat="-27.0250076" lon="152.8504740">
<ele>51.790</ele>
<time>2018-01-09T23:46:04.624Z</time>
</trkpt>
<trkpt lat="-27.0246227" lon="152.8499224">
<ele>51.529</ele>
<time>2018-01-09T23:46:07.596Z</time>
</trkpt>
<trkpt lat="-27.0241798" lon="152.8493966">
<ele>52.186</ele>
<time>2018-01-09T23:46:10.646Z</time>
</trkpt>
<trkpt lat="-27.0236961" lon="152.8489439">
<ele>53.860</ele>
<time>2018-01-09T23:46:13.605Z</time>
</trkpt>
<trkpt lat="-27.0231609" lon="152.8485391">
<ele>56.107</ele>
<time>2018-01-09T23:46:16.625Z</time>
</trkpt>
<trkpt lat="-27.0225803" lon="152.8482511">
<ele>57.991</ele>
<time>2018-01-09T23:46:19.608Z</time>
</trkpt>
<trkpt lat="-27.0220063" lon="152.8479243">
<ele>58.877</ele>
<time>2018-01-09T23:46:22.640Z</time>
</trkpt>
<trkpt lat="-27.0214470" lon="152.8475954">
<ele>59.036</ele>
<time>2018-01-09T23:46:25.610Z</time>
</trkpt>
<trkpt lat="-27.0208965" lon="152.8472565">
<ele>58.968</ele>
<time>2018-01-09T23:46:28.551Z</time>
</trkpt>
<trkpt lat="-27.0203964" lon="152.8467943">
<ele>59.076</ele>
<time>2018-01-09T23:46:31.581Z</time>
</trkpt>
<trkpt lat="-27.0199770" lon="152.8462374">
<ele>59.532</ele>
<time>2018-01-09T23:46:34.634Z</time>
</trkpt>
<trkpt lat="-27.0195865" lon="152.8456828">
<ele>60.112</ele>
<time>2018-01-09T23:46:37.600Z</time>
</trkpt>
<trkpt lat="-27.0192224" lon="152.8451117">
<ele>60.624</ele>
<time>2018-01-09T23:46:40.543Z</time>
</trkpt>
<trkpt lat="-27.0188207" lon="152.8445953">
<ele>61.207</ele>
<time>2018-01-09T23:46:43.419Z</time>
</trkpt>
<trkpt lat="-27.0183729" lon="152.8440857">
<ele>62.042</ele>
<time>2018-01-09T23:46:46.420Z</time>
</trkpt>
<trkpt lat="-27.0178717" lon="152.8436107">
<ele>63.089</ele>
<time>2018-01-09T23:46:49.490Z</time>
</trkpt>
<trkpt lat="-27.0173319" lon="152.8432207">
<ele>64.008</ele>
<time>2018-01-09T23:46:52.487Z</time>
</trkpt>
<trkpt lat="-27.0167889" lon="152.8428678">
<ele>64.389</ele>
<time>2018-01-09T23:46:55.424Z</time>
</trkpt>
<trkpt lat="-27.0162243" lon="152.8425893">
<ele>64.185</ele>
<time>2018-01-09T23:46:58.324Z</time>
</trkpt>
<trkpt lat="-27.0156207" lon="152.8423383">
<ele>63.662</ele>
<time>2018-01-09T23:47:01.353Z</time>
</trkpt>
<trkpt lat="-27.0150049" lon="152.8421484">
<ele>63.153</ele>
<time>2018-01-09T23:47:04.349Z</time>
</trkpt>
<trkpt lat="-27.0143658" lon="152.8419877">
<ele>62.981</ele>
<time>2018-01-09T23:47:07.424Z</time>
</trkpt>
<trkpt lat="-27.0137368" lon="152.8418723">
<ele>63.276</ele>
<time>2018-01-09T23:47:10.423Z</time>
</trkpt>
<trkpt lat="-27.0131256" lon="152.8416965">
<ele>63.840</ele>
<time>2018-01-09T23:47:13.408Z</time>
</trkpt>
<trkpt lat="-27.0125097" lon="152.8415574">
<ele>64.670</ele>
<time>2018-01-09T23:47:16.391Z</time>
</trkpt>
<trkpt lat="-27.0119012" lon="152.8413873">
<ele>65.875</ele>
<time>2018-01-09T23:47:19.360Z</time>
</trkpt>
<trkpt lat="-27.0113050" lon="152.8411536">
<ele>67.078</ele>
<time>2018-01-09T23:47:22.356Z</time>
</trkpt>
<trkpt lat="-27.0107326" lon="152.8408466">
<ele>67.930</ele>
<time>2018-01-09T23:47:25.359Z</time>
</trkpt>
<trkpt lat="-27.0102274" lon="152.8404070">
<ele>68.646</ele>
<time>2018-01-09T23:47:28.344Z</time>
</trkpt>
<trkpt lat="-27.0097547" lon="152.8399283">
<ele>69.509</ele>
<time>2018-01-09T23:47:31.304Z</time>
</trkpt>
<trkpt lat="-27.0092973" lon="152.8394115">
<ele>70.619</ele>
<time>2018-01-09T23:47:34.328Z</time>
</trkpt>
<trkpt lat="-27.0088210" lon="152.8389138">
<ele>71.775</ele>
<time>2018-01-09T23:47:37.369Z</time>
</trkpt>
<trkpt lat="-27.0083645" lon="152.8384207">
<ele>72.376</ele>
<time>2018-01-09T23:47:40.351Z</time>
</trkpt>
<trkpt lat="-27.0078958" lon="152.8379216">
<ele>72.086</ele>
<time>2018-01-09T23:47:43.406Z</time>
</trkpt>
<trkpt lat="-27.0074489" lon="152.8374563">
<ele>71.315</ele>
<time>2018-01-09T23:47:46.297Z</time>
</trkpt>
<trkpt lat="-27.0070084" lon="152.8369499">
<ele>70.516</ele>
<time>2018-01-09T23:47:49.285Z</time>
</trkpt>
<trkpt lat="-27.0066820" lon="152.8363278">
<ele>69.483</ele>
<time>2018-01-09T23:47:52.321Z</time>
</trkpt>
<trkpt lat="-27.0065241" lon="152.8356183">
<ele>67.715</ele>
<time>2018-01-09T23:47:55.402Z</time>
</trkpt>
<trkpt lat="-27.0064711" lon="152.8349109">
<ele>65.071</ele>
<time>2018-01-09T23:47:58.406Z</time>
</trkpt>
<trkpt lat="-27.0064286" lon="152.8342278">
<ele>62.074</ele>
<time>2018-01-09T23:48:01.303Z</time>
</trkpt>
<trkpt lat="-27.0063111" lon="152.8335218">
<ele>59.500</ele>
<time>2018-01-09T23:48:04.329Z</time>
</trkpt>
<trkpt lat="-27.0059935" lon="152.8328720">
<ele>57.711</ele>
<time>2018-01-09T23:48:07.447Z</time>
</trkpt>
<trkpt lat="-27.0055509" lon="152.8323614">
<ele>56.652</ele>
<time>2018-01-09T23:48:10.447Z</time>
</trkpt>
<trkpt lat="-27.0050071" lon="152.8320098">
<ele>56.211</ele>
<time>2018-01-09T23:48:13.422Z</time>
</trkpt>
<trkpt lat="-27.0044163" lon="152.8317670">
<ele>56.261</ele>
<time>2018-01-09T23:48:16.417Z</time>
</trkpt>
<trkpt lat="-27.0038562" lon="152.8314750">
<ele>56.838</ele>
<time>2018-01-09T23:48:19.341Z</time>
</trkpt>
<trkpt lat="-27.0032628" lon="152.8311964">
<ele>57.793</ele>
<time>2018-01-09T23:48:22.370Z</time>
</trkpt>
<trkpt lat="-27.0026878" lon="152.8309334">
<ele>58.586</ele>
<time>2018-01-09T23:48:25.283Z</time>
</trkpt>
<trkpt lat="-27.0020770" lon="152.8306399">
<ele>58.911</ele>
<time>2018-01-09T23:48:28.392Z</time>
</trkpt>
<trkpt lat="-27.0014955" lon="152.8303422">
<ele>58.972</ele>
<time>2018-01-09T23:48:31.389Z</time>
</trkpt>
<trkpt lat="-27.0009288" lon="152.8300557">
<ele>59.006</ele>
<time>2018-01-09T23:48:34.322Z</time>
</trkpt>
<trkpt lat="-27.0003746" lon="152.8297349">
<ele>59.048</ele>
<time>2018-01-09T23:48:37.293Z</time>
</trkpt>
<trkpt lat="-26.9999354" lon="152.8292367">
<ele>59.053</ele>
<time>2018-01-09T23:48:40.288Z</time>
</trkpt>
<trkpt lat="-26.9996727" lon="152.8285779">
<ele>59.402</ele>
<time>2018-01-09T23:48:43.365Z</time>
</trkpt>
<trkpt lat="-26.9995220" lon="152.8278923">
<ele>60.746</ele>
<time>2018-01-09T23:48:46.360Z</time>
</trkpt>
<trkpt lat="-26.9995224" lon="152.8271831">
<ele>63.107</ele>
<time>2018-01-09T23:48:49.343Z</time>
</trkpt>
<trkpt lat="-26.9995953" lon="152.8264685">
<ele>65.848</ele>
<time>2018-01-09T23:48:52.345Z</time>
</trkpt>
<trkpt lat="-26.9995871" lon="152.8257434">
<ele>68.484</ele>
<time>2018-01-09T23:48:55.362Z</time>
</trkpt>
<trkpt lat="-26.9994396" lon="152.8250345">
<ele>70.610</ele>
<time>2018-01-09T23:48:58.383Z</time>
</trkpt>
<trkpt lat="-26.9992283" lon="152.8243480">
<ele>71.805</ele>
<time>2018-01-09T23:49:01.397Z</time>
</trkpt>
<trkpt lat="-26.9989228" lon="152.8237117">
<ele>72.036</ele>
<time>2018-01-09T23:49:04.419Z</time>
</trkpt>
<trkpt lat="-26.9985241" lon="152.8231614">
<ele>71.540</ele>
<time>2018-01-09T23:49:07.414Z</time>
</trkpt>
<trkpt lat="-26.9981184" lon="152.8226277">
<ele>70.389</ele>
<time>2018-01-09T23:49:10.404Z</time>
</trkpt>
<trkpt lat="-26.9977524" lon="152.8220749">
<ele>68.931</ele>
<time>2018-01-09T23:49:13.356Z</time>
</trkpt>
<trkpt lat="-26.9973565" lon="152.8215351">
<ele>67.977</ele>
<time>2018-01-09T23:49:16.345Z</time>
</trkpt>
<trkpt lat="-26.9969435" lon="152.8209843">
<ele>68.318</ele>
<time>2018-01-09T23:49:19.416Z</time>
</trkpt>
<trkpt lat="-26.9965677" lon="152.8204348">
<ele>70.438</ele>
<time>2018-01-09T23:49:22.365Z</time>
</trkpt>
<trkpt lat="-26.9961911" lon="152.8198758">
<ele>74.141</ele>
<time>2018-01-09T23:49:25.329Z</time>
</trkpt>
<trkpt lat="-26.9958790" lon="152.8192613">
<ele>78.347</ele>
<time>2018-01-09T23:49:28.301Z</time>
</trkpt>
<trkpt lat="-26.9956606" lon="152.8185825">
<ele>82.052</ele>
<time>2018-01-09T23:49:31.335Z</time>
</trkpt>
<trkpt lat="-26.9953855" lon="152.8179333">
<ele>84.879</ele>
<time>2018-01-09T23:49:34.396Z</time>
</trkpt>
<trkpt lat="-26.9949513" lon="152.8174455">
<ele>86.856</ele>
<time>2018-01-09T23:49:37.355Z</time>
</trkpt>
<trkpt lat="-26.9944198" lon="152.8170387">
<ele>88.420</ele>
<time>2018-01-09T23:49:40.436Z</time>
</trkpt>
<trkpt lat="-26.9938610" lon="152.8167225">
<ele>90.427</ele>
<time>2018-01-09T23:49:43.409Z</time>
</trkpt>
<trkpt lat="-26.9932738" lon="152.8164619">
<ele>93.678</ele>
<time>2018-01-09T23:49:46.398Z</time>
</trkpt>
<trkpt lat="-26.9926763" lon="152.8162833">
<ele>98.385</ele>
<time>2018-01-09T23:49:49.384Z</time>
</trkpt>
<trkpt lat="-26.9921381" lon="152.8160059">
<ele>104.148</ele>
<time>2018-01-09T23:49:52.327Z</time>
</trkpt>
<trkpt lat="-26.9917874" lon="152.8154085">
<ele>110.452</ele>
<time>2018-01-09T23:49:55.473Z</time>
</trkpt>
<trkpt lat="-26.9916707" lon="152.8146948">
<ele>117.318</ele>
<time>2018-01-09T23:49:58.528Z</time>
</trkpt>
<trkpt lat="-26.9917902" lon="152.8139905">
<ele>124.885</ele>
<time>2018-01-09T23:50:01.455Z</time>
</trkpt>
<trkpt lat="-26.9921828" lon="152.8134008">
<ele>132.559</ele>
<time>2018-01-09T23:50:04.470Z</time>
</trkpt>
<trkpt lat="-26.9925057" lon="152.8127724">
<ele>139.257</ele>
<time>2018-01-09T23:50:07.511Z</time>
</trkpt>
<trkpt lat="-26.9926859" lon="152.8123463">
<ele>143.989</ele>
<time>2018-01-09T23:50:09.535Z</time>
</trkpt>
<trkpt lat="-26.9927664" lon="152.8116664">
<ele>146.296</ele>
<time>2018-01-09T23:50:12.455Z</time>
</trkpt>
<trkpt lat="-26.9926755" lon="152.8109486">
<ele>146.757</ele>
<time>2018-01-09T23:50:15.492Z</time>
</trkpt>
<trkpt lat="-26.9926826" lon="152.8102275">
<ele>146.604</ele>
<time>2018-01-09T23:50:18.517Z</time>
</trkpt>
<trkpt lat="-26.9927852" lon="152.8095196">
<ele>147.040</ele>
<time>2018-01-09T23:50:21.538Z</time>
</trkpt>
<trkpt lat="-26.9929373" lon="152.8088457">
<ele>148.719</ele>
<time>2018-01-09T23:50:24.465Z</time>
</trkpt>
<trkpt lat="-26.9930322" lon="152.8081415">
<ele>151.038</ele>
<time>2018-01-09T23:50:27.437Z</time>
</trkpt>
<trkpt lat="-26.9930400" lon="152.8074157">
<ele>152.625</ele>
<time>2018-01-09T23:50:30.454Z</time>
</trkpt>
<trkpt lat="-26.9929752" lon="152.8067168">
<ele>152.967</ele>
<time>2018-01-09T23:50:33.391Z</time>
</trkpt>
<trkpt lat="-26.9928675" lon="152.8060185">
<ele>152.738</ele>
<time>2018-01-09T23:50:36.355Z</time>
</trkpt>
<trkpt lat="-26.9926453" lon="152.8053508">
<ele>152.595</ele>
<time>2018-01-09T23:50:39.439Z</time>
</trkpt>
<trkpt lat="-26.9923855" lon="152.8047805">
<ele>152.608</ele>
<time>2018-01-09T23:50:42.510Z</time>
</trkpt>
<trkpt lat="-26.9921580" lon="152.8042605">
<ele>152.594</ele>
<time>2018-01-09T23:50:45.780Z</time>
</trkpt>
<trkpt lat="-26.9919305" lon="152.8039122">
<ele>152.464</ele>
<time>2018-01-09T23:50:48.615Z</time>
</trkpt>
<trkpt lat="-26.9916853" lon="152.8035674">
<ele>152.043</ele>
<time>2018-01-09T23:50:51.473Z</time>
</trkpt>
<trkpt lat="-26.9913756" lon="152.8031928">
<ele>151.180</ele>
<time>2018-01-09T23:50:54.579Z</time>
</trkpt>
<trkpt lat="-26.9910696" lon="152.8028227">
<ele>150.132</ele>
<time>2018-01-09T23:50:57.583Z</time>
</trkpt>
<trkpt lat="-26.9907965" lon="152.8024678">
<ele>149.047</ele>
<time>2018-01-09T23:51:00.391Z</time>
</trkpt>
<trkpt lat="-26.9904784" lon="152.8021172">
<ele>147.728</ele>
<time>2018-01-09T23:51:03.388Z</time>
</trkpt>
<trkpt lat="-26.9902001" lon="152.8017362">
<ele>146.200</ele>
<time>2018-01-09T23:51:06.354Z</time>
</trkpt>
<trkpt lat="-26.9899136" lon="152.8013663">
<ele>144.668</ele>
<time>2018-01-09T23:51:09.372Z</time>
</trkpt>
<trkpt lat="-26.9896565" lon="152.8010232">
<ele>143.385</ele>
<time>2018-01-09T23:51:12.202Z</time>
</trkpt>
<trkpt lat="-26.9894118" lon="152.8006344">
<ele>142.659</ele>
<time>2018-01-09T23:51:15.249Z</time>
</trkpt>
<trkpt lat="-26.9891652" lon="152.8002389">
<ele>142.472</ele>
<time>2018-01-09T23:51:18.382Z</time>
</trkpt>
<trkpt lat="-26.9889029" lon="152.7998892">
<ele>142.542</ele>
<time>2018-01-09T23:51:21.332Z</time>
</trkpt>
<trkpt lat="-26.9886043" lon="152.7995049">
<ele>142.651</ele>
<time>2018-01-09T23:51:24.556Z</time>
</trkpt>
<trkpt lat="-26.9883304" lon="152.7991933">
<ele>142.874</ele>
<time>2018-01-09T23:51:27.310Z</time>
</trkpt>
<trkpt lat="-26.9880255" lon="152.7988374">
<ele>143.309</ele>
<time>2018-01-09T23:51:30.428Z</time>
</trkpt>
<trkpt lat="-26.9877530" lon="152.7984997">
<ele>143.740</ele>
<time>2018-01-09T23:51:33.323Z</time>
</trkpt>
<trkpt lat="-26.9874595" lon="152.7981511">
<ele>144.023</ele>
<time>2018-01-09T23:51:36.376Z</time>
</trkpt>
<trkpt lat="-26.9871421" lon="152.7978211">
<ele>144.309</ele>
<time>2018-01-09T23:51:39.456Z</time>
</trkpt>
<trkpt lat="-26.9868320" lon="152.7975010">
<ele>144.777</ele>
<time>2018-01-09T23:51:42.445Z</time>
</trkpt>
<trkpt lat="-26.9865389" lon="152.7971753">
<ele>145.419</ele>
<time>2018-01-09T23:51:45.366Z</time>
</trkpt>
<trkpt lat="-26.9862192" lon="152.7968578">
<ele>145.977</ele>
<time>2018-01-09T23:51:48.373Z</time>
</trkpt>
<trkpt lat="-26.9858741" lon="152.7965559">
<ele>146.327</ele>
<time>2018-01-09T23:51:51.432Z</time>
</trkpt>
<trkpt lat="-26.9855254" lon="152.7962821">
<ele>146.776</ele>
<time>2018-01-09T23:51:54.401Z</time>
</trkpt>
<trkpt lat="-26.9851472" lon="152.7960557">
<ele>147.466</ele>
<time>2018-01-09T23:51:57.390Z</time>
</trkpt>
<trkpt lat="-26.9847710" lon="152.7958036">
<ele>148.086</ele>
<time>2018-01-09T23:52:00.432Z</time>
</trkpt>
<trkpt lat="-26.9843799" lon="152.7955826">
<ele>148.227</ele>
<time>2018-01-09T23:52:03.413Z</time>
</trkpt>
<trkpt lat="-26.9839558" lon="152.7953958">
<ele>147.634</ele>
<time>2018-01-09T23:52:06.246Z</time>
</trkpt>
<trkpt lat="-26.9834362" lon="152.7951825">
<ele>146.386</ele>
<time>2018-01-09T23:52:09.341Z</time>
</trkpt>
<trkpt lat="-26.9829038" lon="152.7949777">
<ele>144.948</ele>
<time>2018-01-09T23:52:12.367Z</time>
</trkpt>
<trkpt lat="-26.9823861" lon="152.7947817">
<ele>143.711</ele>
<time>2018-01-09T23:52:15.328Z</time>
</trkpt>
<trkpt lat="-26.9818906" lon="152.7945437">
<ele>142.636</ele>
<time>2018-01-09T23:52:18.263Z</time>
</trkpt>
<trkpt lat="-26.9813878" lon="152.7942662">
<ele>141.239</ele>
<time>2018-01-09T23:52:21.331Z</time>
</trkpt>
<trkpt lat="-26.9809088" lon="152.7939869">
<ele>139.316</ele>
<time>2018-01-09T23:52:24.312Z</time>
</trkpt>
<trkpt lat="-26.9803997" lon="152.7937314">
<ele>137.507</ele>
<time>2018-01-09T23:52:27.404Z</time>
</trkpt>
<trkpt lat="-26.9801005" lon="152.7935110">
<ele>136.510</ele>
<time>2018-01-09T23:52:29.394Z</time>
</trkpt>
<trkpt lat="-26.9796541" lon="152.7931844">
<ele>136.309</ele>
<time>2018-01-09T23:52:32.333Z</time>
</trkpt>
<trkpt lat="-26.9791888" lon="152.7928325">
<ele>136.513</ele>
<time>2018-01-09T23:52:35.391Z</time>
</trkpt>
<trkpt lat="-26.9787413" lon="152.7924695">
<ele>136.990</ele>
<time>2018-01-09T23:52:38.397Z</time>
</trkpt>
<trkpt lat="-26.9782723" lon="152.7921403">
<ele>137.912</ele>
<time>2018-01-09T23:52:41.420Z</time>
</trkpt>
<trkpt lat="-26.9778083" lon="152.7918071">
<ele>139.145</ele>
<time>2018-01-09T23:52:44.456Z</time>
</trkpt>
<trkpt lat="-26.9773436" lon="152.7914826">
<ele>140.247</ele>
<time>2018-01-09T23:52:47.517Z</time>
</trkpt>
<trkpt lat="-26.9769103" lon="152.7911631">
<ele>141.049</ele>
<time>2018-01-09T23:52:50.429Z</time>
</trkpt>
<trkpt lat="-26.9764487" lon="152.7908498">
<ele>141.582</ele>
<time>2018-01-09T23:52:53.472Z</time>
</trkpt>
<trkpt lat="-26.9760074" lon="152.7905488">
<ele>141.784</ele>
<time>2018-01-09T23:52:56.425Z</time>
</trkpt>
<trkpt lat="-26.9755588" lon="152.7902660">
<ele>141.547</ele>
<time>2018-01-09T23:52:59.390Z</time>
</trkpt>
<trkpt lat="-26.9751279" lon="152.7899476">
<ele>140.730</ele>
<time>2018-01-09T23:53:02.360Z</time>
</trkpt>
<trkpt lat="-26.9746808" lon="152.7896111">
<ele>139.370</ele>
<time>2018-01-09T23:53:05.461Z</time>
</trkpt>
<trkpt lat="-26.9742443" lon="152.7893066">
<ele>138.002</ele>
<time>2018-01-09T23:53:08.605Z</time>
</trkpt>
<trkpt lat="-26.9739099" lon="152.7890427">
<ele>137.319</ele>
<time>2018-01-09T23:53:11.382Z</time>
</trkpt>
<trkpt lat="-26.9735508" lon="152.7888089">
<ele>137.418</ele>
<time>2018-01-09T23:53:14.323Z</time>
</trkpt>
<trkpt lat="-26.9731928" lon="152.7885631">
<ele>137.669</ele>
<time>2018-01-09T23:53:17.287Z</time>
</trkpt>
<trkpt lat="-26.9728190" lon="152.7883102">
<ele>137.569</ele>
<time>2018-01-09T23:53:20.348Z</time>
</trkpt>
<trkpt lat="-26.9724781" lon="152.7880542">
<ele>137.273</ele>
<time>2018-01-09T23:53:23.222Z</time>
</trkpt>
<trkpt lat="-26.9721184" lon="152.7878128">
<ele>137.140</ele>
<time>2018-01-09T23:53:26.147Z</time>
</trkpt>
<trkpt lat="-26.9717362" lon="152.7875732">
<ele>137.265</ele>
<time>2018-01-09T23:53:29.189Z</time>
</trkpt>
<trkpt lat="-26.9713648" lon="152.7873077">
<ele>137.627</ele>
<time>2018-01-09T23:53:32.250Z</time>
</trkpt>
<trkpt lat="-26.9709961" lon="152.7870350">
<ele>138.282</ele>
<time>2018-01-09T23:53:35.325Z</time>
</trkpt>
<trkpt lat="-26.9706532" lon="152.7867946">
<ele>139.100</ele>
<time>2018-01-09T23:53:38.174Z</time>
</trkpt>
<trkpt lat="-26.9703670" lon="152.7865211">
<ele>139.831</ele>
<time>2018-01-09T23:53:41.116Z</time>
</trkpt>
<trkpt lat="-26.9701096" lon="152.7862883">
<ele>140.405</ele>
<time>2018-01-09T23:53:44.648Z</time>
</trkpt>
<trkpt lat="-26.9700255" lon="152.7861652">
<ele>140.735</ele>
<time>2018-01-09T23:53:47.558Z</time>
</trkpt>
<trkpt lat="-26.9699312" lon="152.7861167">
<ele>140.631</ele>
<time>2018-01-09T23:53:49.998Z</time>
</trkpt>
<trkpt lat="-26.9699312" lon="152.7861167">
<ele>140.181</ele>
<time>2018-01-09T23:53:52.998Z</time>
</trkpt>
<trkpt lat="-26.9699312" lon="152.7861167">
<ele>139.798</ele>
<time>2018-01-09T23:54:17.970Z</time>
</trkpt>
<trkpt lat="-26.9698117" lon="152.7860206">
<ele>139.748</ele>
<time>2018-01-09T23:54:27.203Z</time>
</trkpt>
<trkpt lat="-26.9697018" lon="152.7859087">
<ele>139.178</ele>
<time>2018-01-09T23:54:30.682Z</time>
</trkpt>
<trkpt lat="-26.9695866" lon="152.7858115">
<ele>137.466</ele>
<time>2018-01-09T23:54:33.914Z</time>
</trkpt>
<trkpt lat="-26.9694674" lon="152.7857143">
<ele>135.798</ele>
<time>2018-01-09T23:54:36.880Z</time>
</trkpt>
<trkpt lat="-26.9693269" lon="152.7856000">
<ele>135.583</ele>
<time>2018-01-09T23:54:39.593Z</time>
</trkpt>
<trkpt lat="-26.9691229" lon="152.7854508">
<ele>136.580</ele>
<time>2018-01-09T23:54:42.904Z</time>
</trkpt>
<trkpt lat="-26.9689318" lon="152.7852863">
<ele>137.876</ele>
<time>2018-01-09T23:54:45.910Z</time>
</trkpt>
<trkpt lat="-26.9687486" lon="152.7851038">
<ele>138.926</ele>
<time>2018-01-09T23:54:48.681Z</time>
</trkpt>
<trkpt lat="-26.9685261" lon="152.7849017">
<ele>139.726</ele>
<time>2018-01-09T23:54:51.752Z</time>
</trkpt>
<trkpt lat="-26.9683305" lon="152.7846828">
<ele>140.519</ele>
<time>2018-01-09T23:54:54.606Z</time>
</trkpt>
<trkpt lat="-26.9680782" lon="152.7844990">
<ele>141.431</ele>
<time>2018-01-09T23:54:57.548Z</time>
</trkpt>
<trkpt lat="-26.9678335" lon="152.7842735">
<ele>142.210</ele>
<time>2018-01-09T23:55:00.609Z</time>
</trkpt>
<trkpt lat="-26.9675897" lon="152.7840685">
<ele>142.429</ele>
<time>2018-01-09T23:55:03.529Z</time>
</trkpt>
<trkpt lat="-26.9673332" lon="152.7838322">
<ele>141.916</ele>
<time>2018-01-09T23:55:06.660Z</time>
</trkpt>
<trkpt lat="-26.9670447" lon="152.7836361">
<ele>140.857</ele>
<time>2018-01-09T23:55:09.838Z</time>
</trkpt>
<trkpt lat="-26.9668021" lon="152.7834029">
<ele>139.399</ele>
<time>2018-01-09T23:55:12.733Z</time>
</trkpt>
<trkpt lat="-26.9665391" lon="152.7831588">
<ele>137.589</ele>
<time>2018-01-09T23:55:15.648Z</time>
</trkpt>
<trkpt lat="-26.9662342" lon="152.7829059">
<ele>135.820</ele>
<time>2018-01-09T23:55:18.751Z</time>
</trkpt>
<trkpt lat="-26.9659322" lon="152.7826498">
<ele>134.636</ele>
<time>2018-01-09T23:55:21.777Z</time>
</trkpt>
<trkpt lat="-26.9656203" lon="152.7824119">
<ele>134.235</ele>
<time>2018-01-09T23:55:24.664Z</time>
</trkpt>
<trkpt lat="-26.9652743" lon="152.7821702">
<ele>134.362</ele>
<time>2018-01-09T23:55:27.634Z</time>
</trkpt>
<trkpt lat="-26.9649036" lon="152.7819404">
<ele>134.577</ele>
<time>2018-01-09T23:55:30.642Z</time>
</trkpt>
<trkpt lat="-26.9645272" lon="152.7817229">
<ele>134.561</ele>
<time>2018-01-09T23:55:33.632Z</time>
</trkpt>
<trkpt lat="-26.9641509" lon="152.7815089">
<ele>134.262</ele>
<time>2018-01-09T23:55:36.685Z</time>
</trkpt>
<trkpt lat="-26.9637961" lon="152.7813039">
<ele>133.768</ele>
<time>2018-01-09T23:55:39.703Z</time>
</trkpt>
<trkpt lat="-26.9634468" lon="152.7811164">
<ele>133.179</ele>
<time>2018-01-09T23:55:42.675Z</time>
</trkpt>
<trkpt lat="-26.9630986" lon="152.7809236">
<ele>132.611</ele>
<time>2018-01-09T23:55:45.627Z</time>
</trkpt>
<trkpt lat="-26.9627442" lon="152.7807192">
<ele>132.163</ele>
<time>2018-01-09T23:55:48.580Z</time>
</trkpt>
<trkpt lat="-26.9623785" lon="152.7805044">
<ele>131.833</ele>
<time>2018-01-09T23:55:51.600Z</time>
</trkpt>
<trkpt lat="-26.9620236" lon="152.7802883">
<ele>131.554</ele>
<time>2018-01-09T23:55:54.566Z</time>
</trkpt>
<trkpt lat="-26.9616651" lon="152.7800708">
<ele>131.301</ele>
<time>2018-01-09T23:55:57.577Z</time>
</trkpt>
<trkpt lat="-26.9613077" lon="152.7798672">
<ele>131.075</ele>
<time>2018-01-09T23:56:00.587Z</time>
</trkpt>
<trkpt lat="-26.9609513" lon="152.7796836">
<ele>130.873</ele>
<time>2018-01-09T23:56:03.625Z</time>
</trkpt>
<trkpt lat="-26.9606022" lon="152.7795290">
<ele>130.723</ele>
<time>2018-01-09T23:56:06.651Z</time>
</trkpt>
<trkpt lat="-26.9602572" lon="152.7794210">
<ele>130.652</ele>
<time>2018-01-09T23:56:09.544Z</time>
</trkpt>
<trkpt lat="-26.9598907" lon="152.7793173">
<ele>130.669</ele>
<time>2018-01-09T23:56:12.475Z</time>
</trkpt>
<trkpt lat="-26.9595029" lon="152.7792146">
<ele>130.768</ele>
<time>2018-01-09T23:56:15.466Z</time>
</trkpt>
<trkpt lat="-26.9591108" lon="152.7791090">
<ele>130.933</ele>
<time>2018-01-09T23:56:18.443Z</time>
</trkpt>
<trkpt lat="-26.9587155" lon="152.7789934">
<ele>131.116</ele>
<time>2018-01-09T23:56:21.432Z</time>
</trkpt>
<trkpt lat="-26.9583201" lon="152.7788787">
<ele>131.285</ele>
<time>2018-01-09T23:56:24.392Z</time>
</trkpt>
<trkpt lat="-26.9579172" lon="152.7787663">
<ele>131.446</ele>
<time>2018-01-09T23:56:27.416Z</time>
</trkpt>
<trkpt lat="-26.9575233" lon="152.7786597">
<ele>131.617</ele>
<time>2018-01-09T23:56:30.546Z</time>
</trkpt>
<trkpt lat="-26.9571756" lon="152.7785651">
<ele>131.794</ele>
<time>2018-01-09T23:56:33.528Z</time>
</trkpt>
<trkpt lat="-26.9568376" lon="152.7784754">
<ele>131.962</ele>
<time>2018-01-09T23:56:36.426Z</time>
</trkpt>
<trkpt lat="-26.9564763" lon="152.7783774">
<ele>132.116</ele>
<time>2018-01-09T23:56:39.479Z</time>
</trkpt>
<trkpt lat="-26.9561255" lon="152.7782879">
<ele>132.270</ele>
<time>2018-01-09T23:56:42.490Z</time>
</trkpt>
<trkpt lat="-26.9557887" lon="152.7782057">
<ele>132.436</ele>
<time>2018-01-09T23:56:45.413Z</time>
</trkpt>
<trkpt lat="-26.9554471" lon="152.7781008">
<ele>132.611</ele>
<time>2018-01-09T23:56:48.417Z</time>
</trkpt>
<trkpt lat="-26.9551094" lon="152.7779910">
<ele>132.779</ele>
<time>2018-01-09T23:56:51.413Z</time>
</trkpt>
<trkpt lat="-26.9547740" lon="152.7778809">
<ele>132.935</ele>
<time>2018-01-09T23:56:54.377Z</time>
</trkpt>
<trkpt lat="-26.9544313" lon="152.7777687">
<ele>133.080</ele>
<time>2018-01-09T23:56:57.378Z</time>
</trkpt>
<trkpt lat="-26.9540883" lon="152.7776530">
<ele>133.210</ele>
<time>2018-01-09T23:57:00.371Z</time>
</trkpt>
<trkpt lat="-26.9537442" lon="152.7775343">
<ele>133.324</ele>
<time>2018-01-09T23:57:03.341Z</time>
</trkpt>
<trkpt lat="-26.9533901" lon="152.7774243">
<ele>133.414</ele>
<time>2018-01-09T23:57:06.273Z</time>
</trkpt>
<trkpt lat="-26.9530140" lon="152.7773056">
<ele>133.455</ele>
<time>2018-01-09T23:57:09.282Z</time>
</trkpt>
<trkpt lat="-26.9526370" lon="152.7771818">
<ele>133.437</ele>
<time>2018-01-09T23:57:12.237Z</time>
</trkpt>
<trkpt lat="-26.9523819" lon="152.7770882">
<ele>133.370</ele>
<time>2018-01-09T23:57:14.201Z</time>
</trkpt>
<trkpt lat="-26.9519889" lon="152.7769405">
<ele>133.273</ele>
<time>2018-01-09T23:57:17.206Z</time>
</trkpt>
<trkpt lat="-26.9515946" lon="152.7767986">
<ele>133.163</ele>
<time>2018-01-09T23:57:20.199Z</time>
</trkpt>
<trkpt lat="-26.9511959" lon="152.7766758">
<ele>133.035</ele>
<time>2018-01-09T23:57:23.205Z</time>
</trkpt>
<trkpt lat="-26.9508042" lon="152.7765495">
<ele>132.862</ele>
<time>2018-01-09T23:57:26.186Z</time>
</trkpt>
<trkpt lat="-26.9504118" lon="152.7764147">
<ele>132.648</ele>
<time>2018-01-09T23:57:29.193Z</time>
</trkpt>
<trkpt lat="-26.9500375" lon="152.7762283">
<ele>132.430</ele>
<time>2018-01-09T23:57:32.201Z</time>
</trkpt>
<trkpt lat="-26.9497240" lon="152.7759341">
<ele>132.221</ele>
<time>2018-01-09T23:57:35.245Z</time>
</trkpt>
<trkpt lat="-26.9494615" lon="152.7756094">
<ele>132.001</ele>
<time>2018-01-09T23:57:38.177Z</time>
</trkpt>
<trkpt lat="-26.9491916" lon="152.7752709">
<ele>131.747</ele>
<time>2018-01-09T23:57:41.181Z</time>
</trkpt>
<trkpt lat="-26.9489285" lon="152.7749282">
<ele>131.463</ele>
<time>2018-01-09T23:57:44.118Z</time>
</trkpt>
<trkpt lat="-26.9486521" lon="152.7745709">
<ele>131.166</ele>
<time>2018-01-09T23:57:47.093Z</time>
</trkpt>
<trkpt lat="-26.9483648" lon="152.7742092">
<ele>130.851</ele>
<time>2018-01-09T23:57:49.985Z</time>
</trkpt>
<trkpt lat="-26.9480328" lon="152.7738245">
<ele>130.493</ele>
<time>2018-01-09T23:57:52.937Z</time>
</trkpt>
<trkpt lat="-26.9476463" lon="152.7734009">
<ele>130.102</ele>
<time>2018-01-09T23:57:56.038Z</time>
</trkpt>
<trkpt lat="-26.9472366" lon="152.7729985">
<ele>129.579</ele>
<time>2018-01-09T23:57:59.044Z</time>
</trkpt>
<trkpt lat="-26.9467878" lon="152.7726342">
<ele>128.478</ele>
<time>2018-01-09T23:58:02.034Z</time>
</trkpt>
<trkpt lat="-26.9463243" lon="152.7723026">
<ele>126.595</ele>
<time>2018-01-09T23:58:04.956Z</time>
</trkpt>
<trkpt lat="-26.9458589" lon="152.7719452">
<ele>124.342</ele>
<time>2018-01-09T23:58:07.958Z</time>
</trkpt>
<trkpt lat="-26.9453855" lon="152.7715806">
<ele>122.267</ele>
<time>2018-01-09T23:58:11.041Z</time>
</trkpt>
<trkpt lat="-26.9449276" lon="152.7712279">
<ele>120.752</ele>
<time>2018-01-09T23:58:14.034Z</time>
</trkpt>
<trkpt lat="-26.9444738" lon="152.7708974">
<ele>119.912</ele>
<time>2018-01-09T23:58:16.948Z</time>
</trkpt>
<trkpt lat="-26.9440037" lon="152.7705681">
<ele>119.465</ele>
<time>2018-01-09T23:58:19.923Z</time>
</trkpt>
<trkpt lat="-26.9435600" lon="152.7701838">
<ele>119.090</ele>
<time>2018-01-09T23:58:22.922Z</time>
</trkpt>
<trkpt lat="-26.9431431" lon="152.7697588">
<ele>118.727</ele>
<time>2018-01-09T23:58:25.932Z</time>
</trkpt>
<trkpt lat="-26.9427185" lon="152.7693333">
<ele>118.467</ele>
<time>2018-01-09T23:58:28.975Z</time>
</trkpt>
<trkpt lat="-26.9423202" lon="152.7688947">
<ele>118.002</ele>
<time>2018-01-09T23:58:31.964Z</time>
</trkpt>
<trkpt lat="-26.9419645" lon="152.7684111">
<ele>117.084</ele>
<time>2018-01-09T23:58:34.974Z</time>
</trkpt>
<trkpt lat="-26.9416043" lon="152.7679486">
<ele>116.185</ele>
<time>2018-01-09T23:58:37.929Z</time>
</trkpt>
<trkpt lat="-26.9412669" lon="152.7674497">
<ele>115.777</ele>
<time>2018-01-09T23:58:40.910Z</time>
</trkpt>
<trkpt lat="-26.9409328" lon="152.7668929">
<ele>115.916</ele>
<time>2018-01-09T23:58:44.072Z</time>
</trkpt>
<trkpt lat="-26.9406337" lon="152.7663724">
<ele>116.725</ele>
<time>2018-01-09T23:58:46.989Z</time>
</trkpt>
<trkpt lat="-26.9403128" lon="152.7658359">
<ele>118.171</ele>
<time>2018-01-09T23:58:50.029Z</time>
</trkpt>
<trkpt lat="-26.9400124" lon="152.7653076">
<ele>119.807</ele>
<time>2018-01-09T23:58:52.965Z</time>
</trkpt>
<trkpt lat="-26.9397022" lon="152.7647718">
<ele>121.038</ele>
<time>2018-01-09T23:58:55.948Z</time>
</trkpt>
<trkpt lat="-26.9393617" lon="152.7642664">
<ele>121.482</ele>
<time>2018-01-09T23:58:58.899Z</time>
</trkpt>
<trkpt lat="-26.9389766" lon="152.7637957">
<ele>121.101</ele>
<time>2018-01-09T23:59:01.875Z</time>
</trkpt>
<trkpt lat="-26.9385063" lon="152.7634313">
<ele>120.280</ele>
<time>2018-01-09T23:59:04.873Z</time>
</trkpt>
<trkpt lat="-26.9380270" lon="152.7630844">
<ele>119.576</ele>
<time>2018-01-09T23:59:07.884Z</time>
</trkpt>
<trkpt lat="-26.9375401" lon="152.7627715">
<ele>119.023</ele>
<time>2018-01-09T23:59:10.865Z</time>
</trkpt>
<trkpt lat="-26.9370445" lon="152.7624902">
<ele>118.169</ele>
<time>2018-01-09T23:59:13.831Z</time>
</trkpt>
<trkpt lat="-26.9365484" lon="152.7622004">
<ele>116.971</ele>
<time>2018-01-09T23:59:16.814Z</time>
</trkpt>
<trkpt lat="-26.9360469" lon="152.7618994">
<ele>115.870</ele>
<time>2018-01-09T23:59:19.841Z</time>
</trkpt>
<trkpt lat="-26.9355687" lon="152.7615713">
<ele>115.087</ele>
<time>2018-01-09T23:59:22.827Z</time>
</trkpt>
<trkpt lat="-26.9351042" lon="152.7612084">
<ele>114.595</ele>
<time>2018-01-09T23:59:25.845Z</time>
</trkpt>
<trkpt lat="-26.9346465" lon="152.7608474">
<ele>114.518</ele>
<time>2018-01-09T23:59:28.830Z</time>
</trkpt>
<trkpt lat="-26.9341816" lon="152.7604895">
<ele>114.859</ele>
<time>2018-01-09T23:59:31.835Z</time>
</trkpt>
<trkpt lat="-26.9337387" lon="152.7600669">
<ele>115.283</ele>
<time>2018-01-09T23:59:34.929Z</time>
</trkpt>
<trkpt lat="-26.9333371" lon="152.7596483">
<ele>115.516</ele>
<time>2018-01-09T23:59:37.848Z</time>
</trkpt>
<trkpt lat="-26.9329271" lon="152.7592378">
<ele>115.730</ele>
<time>2018-01-09T23:59:40.775Z</time>
</trkpt>
<trkpt lat="-26.9325172" lon="152.7587974">
<ele>116.169</ele>
<time>2018-01-09T23:59:43.797Z</time>
</trkpt>
<trkpt lat="-26.9321106" lon="152.7583534">
<ele>116.712</ele>
<time>2018-01-09T23:59:46.865Z</time>
</trkpt>
<trkpt lat="-26.9317668" lon="152.7579075">
<ele>117.064</ele>
<time>2018-01-09T23:59:49.858Z</time>
</trkpt>
<trkpt lat="-26.9314628" lon="152.7575218">
<ele>117.186</ele>
<time>2018-01-09T23:59:52.667Z</time>
</trkpt>
<trkpt lat="-26.9311550" lon="152.7571385">
<ele>117.156</ele>
<time>2018-01-09T23:59:55.800Z</time>
</trkpt>
<trkpt lat="-26.9309453" lon="152.7567794">
<ele>117.040</ele>
<time>2018-01-09T23:59:59.022Z</time>
</trkpt>
<trkpt lat="-26.9308328" lon="152.7565851">
<ele>116.925</ele>
<time>2018-01-10T00:00:01.511Z</time>
</trkpt>
<trkpt lat="-26.9307725" lon="152.7564951">
<ele>116.874</ele>
<time>2018-01-10T00:00:02.998Z</time>
</trkpt>
<trkpt lat="-26.9307725" lon="152.7564951">
<ele>116.870</ele>
<time>2018-01-10T00:00:06.998Z</time>
</trkpt>
<trkpt lat="-26.9307725" lon="152.7564951">
<ele>116.862</ele>
<time>2018-01-10T00:00:07.098Z</time>
</trkpt>
<trkpt lat="-26.9305497" lon="152.7565408">
<ele>116.816</ele>
<time>2018-01-10T00:00:12.666Z</time>
</trkpt>
<trkpt lat="-26.9302785" lon="152.7568561">
<ele>117.015</ele>
<time>2018-01-10T00:00:16.161Z</time>
</trkpt>
<trkpt lat="-26.9299273" lon="152.7571979">
<ele>117.806</ele>
<time>2018-01-10T00:00:19.471Z</time>
</trkpt>
<trkpt lat="-26.9295022" lon="152.7576730">
<ele>118.895</ele>
<time>2018-01-10T00:00:23.389Z</time>
</trkpt>
<trkpt lat="-26.9291163" lon="152.7581831">
<ele>119.462</ele>
<time>2018-01-10T00:00:26.875Z</time>
</trkpt>
<trkpt lat="-26.9287435" lon="152.7586044">
<ele>118.977</ele>
<time>2018-01-10T00:00:29.847Z</time>
</trkpt>
<trkpt lat="-26.9283830" lon="152.7590505">
<ele>117.644</ele>
<time>2018-01-10T00:00:32.882Z</time>
</trkpt>
<trkpt lat="-26.9280258" lon="152.7594929">
<ele>116.239</ele>
<time>2018-01-10T00:00:35.972Z</time>
</trkpt>
<trkpt lat="-26.9276649" lon="152.7598669">
<ele>115.335</ele>
<time>2018-01-10T00:00:38.865Z</time>
</trkpt>
<trkpt lat="-26.9273046" lon="152.7602523">
<ele>114.847</ele>
<time>2018-01-10T00:00:41.744Z</time>
</trkpt>
<trkpt lat="-26.9269320" lon="152.7606612">
<ele>114.511</ele>
<time>2018-01-10T00:00:44.688Z</time>
</trkpt>
<trkpt lat="-26.9265643" lon="152.7610836">
<ele>114.307</ele>
<time>2018-01-10T00:00:47.627Z</time>
</trkpt>
<trkpt lat="-26.9261867" lon="152.7615053">
<ele>114.281</ele>
<time>2018-01-10T00:00:50.576Z</time>
</trkpt>
<trkpt lat="-26.9258135" lon="152.7619492">
<ele>114.366</ele>
<time>2018-01-10T00:00:53.573Z</time>
</trkpt>
<trkpt lat="-26.9254450" lon="152.7623762">
<ele>114.485</ele>
<time>2018-01-10T00:00:56.491Z</time>
</trkpt>
<trkpt lat="-26.9250385" lon="152.7627940">
<ele>114.597</ele>
<time>2018-01-10T00:00:59.520Z</time>
</trkpt>
<trkpt lat="-26.9246259" lon="152.7632176">
<ele>114.673</ele>
<time>2018-01-10T00:01:02.717Z</time>
</trkpt>
<trkpt lat="-26.9242595" lon="152.7636167">
<ele>114.839</ele>
<time>2018-01-10T00:01:05.939Z</time>
</trkpt>
<trkpt lat="-26.9239599" lon="152.7639520">
<ele>115.308</ele>
<time>2018-01-10T00:01:08.813Z</time>
</trkpt>
<trkpt lat="-26.9236763" lon="152.7642814">
<ele>116.270</ele>
<time>2018-01-10T00:01:11.599Z</time>
</trkpt>
<trkpt lat="-26.9233672" lon="152.7646589">
<ele>117.724</ele>
<time>2018-01-10T00:01:14.645Z</time>
</trkpt>
<trkpt lat="-26.9230444" lon="152.7650219">
<ele>119.169</ele>
<time>2018-01-10T00:01:17.661Z</time>
</trkpt>
<trkpt lat="-26.9227008" lon="152.7653513">
<ele>120.018</ele>
<time>2018-01-10T00:01:20.633Z</time>
</trkpt>
<trkpt lat="-26.9223780" lon="152.7657260">
<ele>120.335</ele>
<time>2018-01-10T00:01:23.684Z</time>
</trkpt>
<trkpt lat="-26.9220820" lon="152.7660835">
<ele>120.498</ele>
<time>2018-01-10T00:01:26.531Z</time>
</trkpt>
<trkpt lat="-26.9217860" lon="152.7664529">
<ele>120.647</ele>
<time>2018-01-10T00:01:29.418Z</time>
</trkpt>
<trkpt lat="-26.9214690" lon="152.7668287">
<ele>120.574</ele>
<time>2018-01-10T00:01:32.433Z</time>
</trkpt>
<trkpt lat="-26.9211142" lon="152.7671761">
<ele>119.965</ele>
<time>2018-01-10T00:01:35.536Z</time>
</trkpt>
<trkpt lat="-26.9207871" lon="152.7675083">
<ele>118.939</ele>
<time>2018-01-10T00:01:38.458Z</time>
</trkpt>
<trkpt lat="-26.9204918" lon="152.7678721">
<ele>118.038</ele>
<time>2018-01-10T00:01:41.356Z</time>
</trkpt>
<trkpt lat="-26.9201417" lon="152.7681939">
<ele>117.569</ele>
<time>2018-01-10T00:01:44.318Z</time>
</trkpt>
<trkpt lat="-26.9197865" lon="152.7685197">
<ele>117.452</ele>
<time>2018-01-10T00:01:47.308Z</time>
</trkpt>
<trkpt lat="-26.9194298" lon="152.7688304">
<ele>117.543</ele>
<time>2018-01-10T00:01:50.264Z</time>
</trkpt>
<trkpt lat="-26.9190643" lon="152.7691095">
<ele>117.801</ele>
<time>2018-01-10T00:01:53.163Z</time>
</trkpt>
<trkpt lat="-26.9186651" lon="152.7693585">
<ele>118.161</ele>
<time>2018-01-10T00:01:56.135Z</time>
</trkpt>
<trkpt lat="-26.9182577" lon="152.7696042">
<ele>118.382</ele>
<time>2018-01-10T00:01:59.122Z</time>
</trkpt>
<trkpt lat="-26.9178366" lon="152.7698459">
<ele>118.307</ele>
<time>2018-01-10T00:02:02.192Z</time>
</trkpt>
<trkpt lat="-26.9174339" lon="152.7700809">
<ele>118.070</ele>
<time>2018-01-10T00:02:05.166Z</time>
</trkpt>
<trkpt lat="-26.9170252" lon="152.7703103">
<ele>117.881</ele>
<time>2018-01-10T00:02:08.166Z</time>
</trkpt>
<trkpt lat="-26.9166139" lon="152.7705272">
<ele>117.704</ele>
<time>2018-01-10T00:02:11.160Z</time>
</trkpt>
<trkpt lat="-26.9162302" lon="152.7707813">
<ele>117.387</ele>
<time>2018-01-10T00:02:14.107Z</time>
</trkpt>
<trkpt lat="-26.9158400" lon="152.7710314">
<ele>116.921</ele>
<time>2018-01-10T00:02:17.084Z</time>
</trkpt>
<trkpt lat="-26.9154426" lon="152.7712676">
<ele>116.397</ele>
<time>2018-01-10T00:02:20.048Z</time>
</trkpt>
<trkpt lat="-26.9150390" lon="152.7714964">
<ele>115.944</ele>
<time>2018-01-10T00:02:22.775Z</time>
</trkpt>
<trkpt lat="-26.9145726" lon="152.7717678">
<ele>115.691</ele>
<time>2018-01-10T00:02:25.619Z</time>
</trkpt>
<trkpt lat="-26.9140502" lon="152.7720906">
<ele>115.624</ele>
<time>2018-01-10T00:02:28.723Z</time>
</trkpt>
<trkpt lat="-26.9135572" lon="152.7723886">
<ele>115.535</ele>
<time>2018-01-10T00:02:31.683Z</time>
</trkpt>
<trkpt lat="-26.9130902" lon="152.7726950">
<ele>115.264</ele>
<time>2018-01-10T00:02:34.595Z</time>
</trkpt>
<trkpt lat="-26.9126045" lon="152.7729850">
<ele>114.939</ele>
<time>2018-01-10T00:02:37.408Z</time>
</trkpt>
<trkpt lat="-26.9120666" lon="152.7733766">
<ele>114.762</ele>
<time>2018-01-10T00:02:40.443Z</time>
</trkpt>
<trkpt lat="-26.9115312" lon="152.7738008">
<ele>114.857</ele>
<time>2018-01-10T00:02:43.428Z</time>
</trkpt>
<trkpt lat="-26.9110027" lon="152.7742639">
<ele>115.245</ele>
<time>2018-01-10T00:02:46.457Z</time>
</trkpt>
<trkpt lat="-26.9105182" lon="152.7747525">
<ele>115.902</ele>
<time>2018-01-10T00:02:49.382Z</time>
</trkpt>
<trkpt lat="-26.9100270" lon="152.7752431">
<ele>116.869</ele>
<time>2018-01-10T00:02:52.329Z</time>
</trkpt>
<trkpt lat="-26.9095176" lon="152.7756961">
<ele>118.075</ele>
<time>2018-01-10T00:02:55.254Z</time>
</trkpt>
<trkpt lat="-26.9089410" lon="152.7760894">
<ele>119.303</ele>
<time>2018-01-10T00:02:58.293Z</time>
</trkpt>
<trkpt lat="-26.9083298" lon="152.7764230">
<ele>120.424</ele>
<time>2018-01-10T00:03:01.342Z</time>
</trkpt>
<trkpt lat="-26.9077092" lon="152.7767183">
<ele>121.299</ele>
<time>2018-01-10T00:03:04.359Z</time>
</trkpt>
<trkpt lat="-26.9070886" lon="152.7769641">
<ele>121.901</ele>
<time>2018-01-10T00:03:07.327Z</time>
</trkpt>
<trkpt lat="-26.9064764" lon="152.7771295">
<ele>122.669</ele>
<time>2018-01-10T00:03:10.183Z</time>
</trkpt>
<trkpt lat="-26.9058184" lon="152.7772608">
<ele>124.140</ele>
<time>2018-01-10T00:03:13.196Z</time>
</trkpt>
<trkpt lat="-26.9051638" lon="152.7773585">
<ele>126.132</ele>
<time>2018-01-10T00:03:16.145Z</time>
</trkpt>
<trkpt lat="-26.9044811" lon="152.7773956">
<ele>127.954</ele>
<time>2018-01-10T00:03:19.183Z</time>
</trkpt>
<trkpt lat="-26.9038040" lon="152.7773721">
<ele>129.127</ele>
<time>2018-01-10T00:03:22.214Z</time>
</trkpt>
<trkpt lat="-26.9031679" lon="152.7774483">
<ele>129.288</ele>
<time>2018-01-10T00:03:25.109Z</time>
</trkpt>
<trkpt lat="-26.9025257" lon="152.7775391">
<ele>128.482</ele>
<time>2018-01-10T00:03:28.046Z</time>
</trkpt>
<trkpt lat="-26.9018696" lon="152.7776995">
<ele>127.452</ele>
<time>2018-01-10T00:03:31.081Z</time>
</trkpt>
<trkpt lat="-26.9012453" lon="152.7779251">
<ele>126.706</ele>
<time>2018-01-10T00:03:34.045Z</time>
</trkpt>
<trkpt lat="-26.9006253" lon="152.7781811">
<ele>126.097</ele>
<time>2018-01-10T00:03:37.029Z</time>
</trkpt>
<trkpt lat="-26.9000144" lon="152.7785141">
<ele>125.366</ele>
<time>2018-01-10T00:03:40.087Z</time>
</trkpt>
<trkpt lat="-26.8994389" lon="152.7788739">
<ele>124.469</ele>
<time>2018-01-10T00:03:43.042Z</time>
</trkpt>
<trkpt lat="-26.8988605" lon="152.7792321">
<ele>123.543</ele>
<time>2018-01-10T00:03:45.994Z</time>
</trkpt>
<trkpt lat="-26.8982846" lon="152.7796121">
<ele>122.624</ele>
<time>2018-01-10T00:03:48.969Z</time>
</trkpt>
<trkpt lat="-26.8976994" lon="152.7799565">
<ele>121.801</ele>
<time>2018-01-10T00:03:51.896Z</time>
</trkpt>
<trkpt lat="-26.8971158" lon="152.7803182">
<ele>121.279</ele>
<time>2018-01-10T00:03:54.828Z</time>
</trkpt>
<trkpt lat="-26.8965067" lon="152.7806924">
<ele>121.059</ele>
<time>2018-01-10T00:03:57.874Z</time>
</trkpt>
<trkpt lat="-26.8959136" lon="152.7810697">
<ele>121.081</ele>
<time>2018-01-10T00:04:00.872Z</time>
</trkpt>
<trkpt lat="-26.8953441" lon="152.7814644">
<ele>121.691</ele>
<time>2018-01-10T00:04:03.812Z</time>
</trkpt>
<trkpt lat="-26.8947862" lon="152.7818922">
<ele>123.427</ele>
<time>2018-01-10T00:04:06.760Z</time>
</trkpt>
<trkpt lat="-26.8942325" lon="152.7823310">
<ele>125.941</ele>
<time>2018-01-10T00:04:09.693Z</time>
</trkpt>
<trkpt lat="-26.8936411" lon="152.7827597">
<ele>128.016</ele>
<time>2018-01-10T00:04:12.729Z</time>
</trkpt>
<trkpt lat="-26.8930512" lon="152.7831658">
<ele>128.854</ele>
<time>2018-01-10T00:04:15.724Z</time>
</trkpt>
<trkpt lat="-26.8924962" lon="152.7835633">
<ele>128.632</ele>
<time>2018-01-10T00:04:18.589Z</time>
</trkpt>
<trkpt lat="-26.8921026" lon="152.7838419">
<ele>128.017</ele>
<time>2018-01-10T00:04:20.616Z</time>
</trkpt>
<trkpt lat="-26.8915285" lon="152.7842792">
<ele>127.542</ele>
<time>2018-01-10T00:04:23.636Z</time>
</trkpt>
<trkpt lat="-26.8909708" lon="152.7847031">
<ele>127.322</ele>
<time>2018-01-10T00:04:26.572Z</time>
</trkpt>
<trkpt lat="-26.8904051" lon="152.7851300">
<ele>127.192</ele>
<time>2018-01-10T00:04:29.552Z</time>
</trkpt>
<trkpt lat="-26.8898363" lon="152.7855521">
<ele>126.847</ele>
<time>2018-01-10T00:04:32.526Z</time>
</trkpt>
<trkpt lat="-26.8892630" lon="152.7859684">
<ele>126.144</ele>
<time>2018-01-10T00:04:35.491Z</time>
</trkpt>
<trkpt lat="-26.8886632" lon="152.7863429">
<ele>125.325</ele>
<time>2018-01-10T00:04:38.472Z</time>
</trkpt>
<trkpt lat="-26.8880229" lon="152.7866040">
<ele>124.757</ele>
<time>2018-01-10T00:04:41.440Z</time>
</trkpt>
<trkpt lat="-26.8873526" lon="152.7868201">
<ele>124.654</ele>
<time>2018-01-10T00:04:44.478Z</time>
</trkpt>
<trkpt lat="-26.8866901" lon="152.7869529">
<ele>125.172</ele>
<time>2018-01-10T00:04:47.403Z</time>
</trkpt>
<trkpt lat="-26.8860281" lon="152.7870804">
<ele>126.364</ele>
<time>2018-01-10T00:04:50.320Z</time>
</trkpt>
<trkpt lat="-26.8853260" lon="152.7870783">
<ele>127.899</ele>
<time>2018-01-10T00:04:53.360Z</time>
</trkpt>
<trkpt lat="-26.8846351" lon="152.7870289">
<ele>129.165</ele>
<time>2018-01-10T00:04:56.363Z</time>
</trkpt>
<trkpt lat="-26.8839704" lon="152.7869627">
<ele>129.596</ele>
<time>2018-01-10T00:04:59.275Z</time>
</trkpt>
<trkpt lat="-26.8832837" lon="152.7869219">
<ele>129.200</ele>
<time>2018-01-10T00:05:02.285Z</time>
</trkpt>
<trkpt lat="-26.8826011" lon="152.7869337">
<ele>128.566</ele>
<time>2018-01-10T00:05:05.264Z</time>
</trkpt>
<trkpt lat="-26.8819157" lon="152.7869941">
<ele>128.199</ele>
<time>2018-01-10T00:05:08.249Z</time>
</trkpt>
<trkpt lat="-26.8812473" lon="152.7871320">
<ele>128.335</ele>
<time>2018-01-10T00:05:11.201Z</time>
</trkpt>
<trkpt lat="-26.8805866" lon="152.7873490">
<ele>128.928</ele>
<time>2018-01-10T00:05:14.198Z</time>
</trkpt>
<trkpt lat="-26.8799358" lon="152.7875947">
<ele>129.505</ele>
<time>2018-01-10T00:05:17.198Z</time>
</trkpt>
<trkpt lat="-26.8793234" lon="152.7879097">
<ele>129.660</ele>
<time>2018-01-10T00:05:20.147Z</time>
</trkpt>
<trkpt lat="-26.8787484" lon="152.7883660">
<ele>129.327</ele>
<time>2018-01-10T00:05:23.202Z</time>
</trkpt>
<trkpt lat="-26.8782158" lon="152.7888948">
<ele>128.612</ele>
<time>2018-01-10T00:05:26.273Z</time>
</trkpt>
<trkpt lat="-26.8777485" lon="152.7894346">
<ele>127.784</ele>
<time>2018-01-10T00:05:29.189Z</time>
</trkpt>
<trkpt lat="-26.8773355" lon="152.7900421">
<ele>127.146</ele>
<time>2018-01-10T00:05:32.156Z</time>
</trkpt>
<trkpt lat="-26.8769644" lon="152.7906886">
<ele>126.909</ele>
<time>2018-01-10T00:05:35.135Z</time>
</trkpt>
<trkpt lat="-26.8766491" lon="152.7913533">
<ele>127.039</ele>
<time>2018-01-10T00:05:38.056Z</time>
</trkpt>
<trkpt lat="-26.8763479" lon="152.7920077">
<ele>127.244</ele>
<time>2018-01-10T00:05:40.919Z</time>
</trkpt>
<trkpt lat="-26.8760276" lon="152.7926967">
<ele>127.258</ele>
<time>2018-01-10T00:05:43.926Z</time>
</trkpt>
<trkpt lat="-26.8756996" lon="152.7933968">
<ele>126.978</ele>
<time>2018-01-10T00:05:46.985Z</time>
</trkpt>
<trkpt lat="-26.8754310" lon="152.7940864">
<ele>126.445</ele>
<time>2018-01-10T00:05:49.920Z</time>
</trkpt>
<trkpt lat="-26.8751150" lon="152.7947711">
<ele>125.903</ele>
<time>2018-01-10T00:05:52.934Z</time>
</trkpt>
<trkpt lat="-26.8747785" lon="152.7954391">
<ele>125.602</ele>
<time>2018-01-10T00:05:55.909Z</time>
</trkpt>
<trkpt lat="-26.8744451" lon="152.7961381">
<ele>125.795</ele>
<time>2018-01-10T00:05:58.950Z</time>
</trkpt>
<trkpt lat="-26.8741659" lon="152.7968276">
<ele>126.792</ele>
<time>2018-01-10T00:06:01.840Z</time>
</trkpt>
<trkpt lat="-26.8738500" lon="152.7975077">
<ele>128.588</ele>
<time>2018-01-10T00:06:04.772Z</time>
</trkpt>
<trkpt lat="-26.8735495" lon="152.7981898">
<ele>130.743</ele>
<time>2018-01-10T00:06:07.697Z</time>
</trkpt>
<trkpt lat="-26.8732273" lon="152.7988749">
<ele>132.810</ele>
<time>2018-01-10T00:06:10.678Z</time>
</trkpt>
<trkpt lat="-26.8729168" lon="152.7995611">
<ele>134.585</ele>
<time>2018-01-10T00:06:13.614Z</time>
</trkpt>
<trkpt lat="-26.8725917" lon="152.8002596">
<ele>136.160</ele>
<time>2018-01-10T00:06:16.597Z</time>
</trkpt>
<trkpt lat="-26.8722883" lon="152.8009583">
<ele>137.704</ele>
<time>2018-01-10T00:06:19.534Z</time>
</trkpt>
<trkpt lat="-26.8719974" lon="152.8016560">
<ele>139.257</ele>
<time>2018-01-10T00:06:22.450Z</time>
</trkpt>
<trkpt lat="-26.8717142" lon="152.8023450">
<ele>140.792</ele>
<time>2018-01-10T00:06:25.336Z</time>
</trkpt>
<trkpt lat="-26.8714570" lon="152.8030721">
<ele>142.102</ele>
<time>2018-01-10T00:06:28.322Z</time>
</trkpt>
<trkpt lat="-26.8712961" lon="152.8038301">
<ele>142.717</ele>
<time>2018-01-10T00:06:31.301Z</time>
</trkpt>
<trkpt lat="-26.8711288" lon="152.8045957">
<ele>142.454</ele>
<time>2018-01-10T00:06:34.313Z</time>
</trkpt>
<trkpt lat="-26.8709536" lon="152.8053466">
<ele>141.600</ele>
<time>2018-01-10T00:06:37.276Z</time>
</trkpt>
<trkpt lat="-26.8707615" lon="152.8060795">
<ele>140.604</ele>
<time>2018-01-10T00:06:40.197Z</time>
</trkpt>
<trkpt lat="-26.8705760" lon="152.8068357">
<ele>139.871</ele>
<time>2018-01-10T00:06:43.193Z</time>
</trkpt>
<trkpt lat="-26.8703275" lon="152.8075464">
<ele>139.515</ele>
<time>2018-01-10T00:06:46.104Z</time>
</trkpt>
<trkpt lat="-26.8699995" lon="152.8082430">
<ele>139.378</ele>
<time>2018-01-10T00:06:49.109Z</time>
</trkpt>
<trkpt lat="-26.8695781" lon="152.8089175">
<ele>139.350</ele>
<time>2018-01-10T00:06:52.221Z</time>
</trkpt>
<trkpt lat="-26.8691538" lon="152.8095327">
<ele>139.382</ele>
<time>2018-01-10T00:06:55.152Z</time>
</trkpt>
<trkpt lat="-26.8686764" lon="152.8100728">
<ele>139.405</ele>
<time>2018-01-10T00:06:58.035Z</time>
</trkpt>
<trkpt lat="-26.8681161" lon="152.8105475">
<ele>138.898</ele>
<time>2018-01-10T00:07:01.019Z</time>
</trkpt>
<trkpt lat="-26.8675461" lon="152.8110573">
<ele>137.275</ele>
<time>2018-01-10T00:07:04.102Z</time>
</trkpt>
<trkpt lat="-26.8670144" lon="152.8115478">
<ele>134.816</ele>
<time>2018-01-10T00:07:07.021Z</time>
</trkpt>
<trkpt lat="-26.8664954" lon="152.8120473">
<ele>132.459</ele>
<time>2018-01-10T00:07:09.947Z</time>
</trkpt>
<trkpt lat="-26.8659475" lon="152.8125349">
<ele>130.736</ele>
<time>2018-01-10T00:07:12.935Z</time>
</trkpt>
<trkpt lat="-26.8654102" lon="152.8130067">
<ele>129.636</ele>
<time>2018-01-10T00:07:15.851Z</time>
</trkpt>
<trkpt lat="-26.8648573" lon="152.8135176">
<ele>128.984</ele>
<time>2018-01-10T00:07:18.916Z</time>
</trkpt>
<trkpt lat="-26.8643213" lon="152.8140301">
<ele>128.626</ele>
<time>2018-01-10T00:07:21.909Z</time>
</trkpt>
<trkpt lat="-26.8637617" lon="152.8144657">
<ele>128.406</ele>
<time>2018-01-10T00:07:24.803Z</time>
</trkpt>
<trkpt lat="-26.8631701" lon="152.8148564">
<ele>128.314</ele>
<time>2018-01-10T00:07:27.743Z</time>
</trkpt>
<trkpt lat="-26.8625139" lon="152.8151414">
<ele>128.465</ele>
<time>2018-01-10T00:07:30.746Z</time>
</trkpt>
<trkpt lat="-26.8618202" lon="152.8153833">
<ele>128.884</ele>
<time>2018-01-10T00:07:33.829Z</time>
</trkpt>
<trkpt lat="-26.8611567" lon="152.8155349">
<ele>129.390</ele>
<time>2018-01-10T00:07:36.720Z</time>
</trkpt>
<trkpt lat="-26.8604667" lon="152.8155737">
<ele>130.000</ele>
<time>2018-01-10T00:07:39.679Z</time>
</trkpt>
<trkpt lat="-26.8597712" lon="152.8155619">
<ele>131.085</ele>
<time>2018-01-10T00:07:42.652Z</time>
</trkpt>
<trkpt lat="-26.8590718" lon="152.8155452">
<ele>132.582</ele>
<time>2018-01-10T00:07:45.638Z</time>
</trkpt>
<trkpt lat="-26.8584047" lon="152.8155562">
<ele>133.957</ele>
<time>2018-01-10T00:07:48.532Z</time>
</trkpt>
<trkpt lat="-26.8578758" lon="152.8155878">
<ele>135.199</ele>
<time>2018-01-10T00:07:51.064Z</time>
</trkpt>
<trkpt lat="-26.8574913" lon="152.8155982">
<ele>136.502</ele>
<time>2018-01-10T00:07:53.170Z</time>
</trkpt>
<trkpt lat="-26.8571901" lon="152.8156099">
<ele>137.557</ele>
<time>2018-01-10T00:07:54.994Z</time>
</trkpt>
<trkpt lat="-26.8570914" lon="152.8157511">
<ele>138.223</ele>
<time>2018-01-10T00:07:56.203Z</time>
</trkpt>
<trkpt lat="-26.8572570" lon="152.8160586">
<ele>138.861</ele>
<time>2018-01-10T00:07:58.976Z</time>
</trkpt>
<trkpt lat="-26.8574545" lon="152.8164740">
<ele>139.664</ele>
<time>2018-01-10T00:08:04.246Z</time>
</trkpt>
<trkpt lat="-26.8576925" lon="152.8169658">
<ele>140.424</ele>
<time>2018-01-10T00:08:08.166Z</time>
</trkpt>
<trkpt lat="-26.8579510" lon="152.8175029">
<ele>140.857</ele>
<time>2018-01-10T00:08:11.571Z</time>
</trkpt>
<trkpt lat="-26.8582225" lon="152.8180971">
<ele>140.828</ele>
<time>2018-01-10T00:08:14.910Z</time>
</trkpt>
<trkpt lat="-26.8584692" lon="152.8186649">
<ele>140.282</ele>
<time>2018-01-10T00:08:17.892Z</time>
</trkpt>
<trkpt lat="-26.8587635" lon="152.8192019">
<ele>139.177</ele>
<time>2018-01-10T00:08:20.814Z</time>
</trkpt>
<trkpt lat="-26.8592020" lon="152.8196416">
<ele>137.625</ele>
<time>2018-01-10T00:08:23.866Z</time>
</trkpt>
<trkpt lat="-26.8596399" lon="152.8200688">
<ele>135.875</ele>
<time>2018-01-10T00:08:26.875Z</time>
</trkpt>
<trkpt lat="-26.8600409" lon="152.8205070">
<ele>134.228</ele>
<time>2018-01-10T00:08:29.771Z</time>
</trkpt>
<trkpt lat="-26.8604718" lon="152.8209430">
<ele>132.875</ele>
<time>2018-01-10T00:08:32.776Z</time>
</trkpt>
<trkpt lat="-26.8608386" lon="152.8213091">
<ele>131.857</ele>
<time>2018-01-10T00:08:35.397Z</time>
</trkpt>
<trkpt lat="-26.8611801" lon="152.8216520">
<ele>131.003</ele>
<time>2018-01-10T00:08:37.994Z</time>
</trkpt>
<trkpt lat="-26.8615286" lon="152.8220835">
<ele>129.994</ele>
<time>2018-01-10T00:08:41.125Z</time>
</trkpt>
<trkpt lat="-26.8617031" lon="152.8226828">
<ele>128.818</ele>
<time>2018-01-10T00:08:44.430Z</time>
</trkpt>
<trkpt lat="-26.8617328" lon="152.8233336">
<ele>127.639</ele>
<time>2018-01-10T00:08:47.584Z</time>
</trkpt>
<trkpt lat="-26.8616449" lon="152.8239458">
<ele>126.376</ele>
<time>2018-01-10T00:08:50.490Z</time>
</trkpt>
<trkpt lat="-26.8615121" lon="152.8245592">
<ele>125.197</ele>
<time>2018-01-10T00:08:53.473Z</time>
</trkpt>
<trkpt lat="-26.8613930" lon="152.8251837">
<ele>124.715</ele>
<time>2018-01-10T00:08:56.490Z</time>
</trkpt>
<trkpt lat="-26.8612638" lon="152.8257915">
<ele>125.365</ele>
<time>2018-01-10T00:08:59.401Z</time>
</trkpt>
<trkpt lat="-26.8610672" lon="152.8263746">
<ele>126.757</ele>
<time>2018-01-10T00:09:02.301Z</time>
</trkpt>
<trkpt lat="-26.8606710" lon="152.8268892">
<ele>127.869</ele>
<time>2018-01-10T00:09:05.476Z</time>
</trkpt>
<trkpt lat="-26.8601567" lon="152.8272245">
<ele>128.207</ele>
<time>2018-01-10T00:09:08.539Z</time>
</trkpt>
<trkpt lat="-26.8595950" lon="152.8274528">
<ele>128.138</ele>
<time>2018-01-10T00:09:11.565Z</time>
</trkpt>
<trkpt lat="-26.8590539" lon="152.8276770">
<ele>128.253</ele>
<time>2018-01-10T00:09:14.490Z</time>
</trkpt>
<trkpt lat="-26.8584942" lon="152.8279709">
<ele>128.818</ele>
<time>2018-01-10T00:09:17.619Z</time>
</trkpt>
<trkpt lat="-26.8579959" lon="152.8282868">
<ele>129.550</ele>
<time>2018-01-10T00:09:20.496Z</time>
</trkpt>
<trkpt lat="-26.8577434" lon="152.8288953">
<ele>129.857</ele>
<time>2018-01-10T00:09:23.512Z</time>
</trkpt>
<trkpt lat="-26.8575134" lon="152.8295159">
<ele>129.347</ele>
<time>2018-01-10T00:09:26.548Z</time>
</trkpt>
<trkpt lat="-26.8573049" lon="152.8301400">
<ele>128.240</ele>
<time>2018-01-10T00:09:29.541Z</time>
</trkpt>
<trkpt lat="-26.8570797" lon="152.8307346">
<ele>127.214</ele>
<time>2018-01-10T00:09:32.442Z</time>
</trkpt>
<trkpt lat="-26.8568260" lon="152.8312989">
<ele>126.733</ele>
<time>2018-01-10T00:09:35.322Z</time>
</trkpt>
<trkpt lat="-26.8565930" lon="152.8318647">
<ele>126.873</ele>
<time>2018-01-10T00:09:38.219Z</time>
</trkpt>
<trkpt lat="-26.8563808" lon="152.8324417">
<ele>127.444</ele>
<time>2018-01-10T00:09:41.153Z</time>
</trkpt>
<trkpt lat="-26.8561697" lon="152.8330266">
<ele>128.101</ele>
<time>2018-01-10T00:09:44.133Z</time>
</trkpt>
<trkpt lat="-26.8559692" lon="152.8336408">
<ele>128.756</ele>
<time>2018-01-10T00:09:47.214Z</time>
</trkpt>
<trkpt lat="-26.8558125" lon="152.8342662">
<ele>129.496</ele>
<time>2018-01-10T00:09:50.232Z</time>
</trkpt>
<trkpt lat="-26.8557247" lon="152.8348283">
<ele>130.141</ele>
<time>2018-01-10T00:09:52.896Z</time>
</trkpt>
<trkpt lat="-26.8556141" lon="152.8353672">
<ele>130.343</ele>
<time>2018-01-10T00:09:55.583Z</time>
</trkpt>
<trkpt lat="-26.8555459" lon="152.8359239">
<ele>130.080</ele>
<time>2018-01-10T00:09:58.476Z</time>
</trkpt>
<trkpt lat="-26.8554977" lon="152.8365134">
<ele>129.767</ele>
<time>2018-01-10T00:10:01.608Z</time>
</trkpt>
<trkpt lat="-26.8554749" lon="152.8370649">
<ele>129.746</ele>
<time>2018-01-10T00:10:04.504Z</time>
</trkpt>
<trkpt lat="-26.8554292" lon="152.8376308">
<ele>129.911</ele>
<time>2018-01-10T00:10:07.455Z</time>
</trkpt>
<trkpt lat="-26.8553379" lon="152.8382037">
<ele>130.096</ele>
<time>2018-01-10T00:10:10.483Z</time>
</trkpt>
<trkpt lat="-26.8552489" lon="152.8387490">
<ele>130.307</ele>
<time>2018-01-10T00:10:13.371Z</time>
</trkpt>
<trkpt lat="-26.8551831" lon="152.8392378">
<ele>130.538</ele>
<time>2018-01-10T00:10:15.964Z</time>
</trkpt>
<trkpt lat="-26.8550541" lon="152.8397051">
<ele>130.681</ele>
<time>2018-01-10T00:10:18.672Z</time>
</trkpt>
<trkpt lat="-26.8547494" lon="152.8400933">
<ele>130.694</ele>
<time>2018-01-10T00:10:21.714Z</time>
</trkpt>
<trkpt lat="-26.8542738" lon="152.8403485">
<ele>130.719</ele>
<time>2018-01-10T00:10:25.263Z</time>
</trkpt>
<trkpt lat="-26.8538249" lon="152.8406332">
<ele>130.946</ele>
<time>2018-01-10T00:10:28.493Z</time>
</trkpt>
<trkpt lat="-26.8534085" lon="152.8408944">
<ele>131.320</ele>
<time>2018-01-10T00:10:31.363Z</time>
</trkpt>
<trkpt lat="-26.8529998" lon="152.8411868">
<ele>131.613</ele>
<time>2018-01-10T00:10:34.342Z</time>
</trkpt>
<trkpt lat="-26.8525528" lon="152.8414246">
<ele>131.908</ele>
<time>2018-01-10T00:10:37.387Z</time>
</trkpt>
<trkpt lat="-26.8521983" lon="152.8418410">
<ele>132.891</ele>
<time>2018-01-10T00:10:40.540Z</time>
</trkpt>
<trkpt lat="-26.8519377" lon="152.8422781">
<ele>135.394</ele>
<time>2018-01-10T00:10:43.438Z</time>
</trkpt>
<trkpt lat="-26.8516573" lon="152.8427721">
<ele>139.429</ele>
<time>2018-01-10T00:10:46.659Z</time>
</trkpt>
<trkpt lat="-26.8512912" lon="152.8432452">
<ele>143.550</ele>
<time>2018-01-10T00:10:50.026Z</time>
</trkpt>
<trkpt lat="-26.8509324" lon="152.8437153">
<ele>146.060</ele>
<time>2018-01-10T00:10:53.151Z</time>
</trkpt>
<trkpt lat="-26.8506456" lon="152.8442069">
<ele>146.535</ele>
<time>2018-01-10T00:10:56.007Z</time>
</trkpt>
<trkpt lat="-26.8503204" lon="152.8446576">
<ele>145.549</ele>
<time>2018-01-10T00:10:58.838Z</time>
</trkpt>
<trkpt lat="-26.8500283" lon="152.8451224">
<ele>143.879</ele>
<time>2018-01-10T00:11:01.676Z</time>
</trkpt>
<trkpt lat="-26.8498857" lon="152.8456881">
<ele>142.372</ele>
<time>2018-01-10T00:11:04.674Z</time>
</trkpt>
<trkpt lat="-26.8498034" lon="152.8462493">
<ele>141.226</ele>
<time>2018-01-10T00:11:07.619Z</time>
</trkpt>
<trkpt lat="-26.8496906" lon="152.8467860">
<ele>139.944</ele>
<time>2018-01-10T00:11:10.527Z</time>
</trkpt>
<trkpt lat="-26.8495879" lon="152.8473180">
<ele>138.519</ele>
<time>2018-01-10T00:11:13.427Z</time>
</trkpt>
<trkpt lat="-26.8494695" lon="152.8478492">
<ele>137.574</ele>
<time>2018-01-10T00:11:16.360Z</time>
</trkpt>
<trkpt lat="-26.8493670" lon="152.8483831">
<ele>137.411</ele>
<time>2018-01-10T00:11:19.294Z</time>
</trkpt>
<trkpt lat="-26.8492846" lon="152.8487426">
<ele>137.939</ele>
<time>2018-01-10T00:11:21.308Z</time>
</trkpt>
<trkpt lat="-26.8491442" lon="152.8493057">
<ele>138.838</ele>
<time>2018-01-10T00:11:24.501Z</time>
</trkpt>
<trkpt lat="-26.8489532" lon="152.8498408">
<ele>139.621</ele>
<time>2018-01-10T00:11:27.588Z</time>
</trkpt>
<trkpt lat="-26.8488339" lon="152.8501835">
<ele>140.011</ele>
<time>2018-01-10T00:11:29.529Z</time>
</trkpt>
<trkpt lat="-26.8487021" lon="152.8505068">
<ele>140.029</ele>
<time>2018-01-10T00:11:31.413Z</time>
</trkpt>
<trkpt lat="-26.8485812" lon="152.8508331">
<ele>139.833</ele>
<time>2018-01-10T00:11:33.319Z</time>
</trkpt>
<trkpt lat="-26.8484313" lon="152.8511372">
<ele>139.530</ele>
<time>2018-01-10T00:11:35.239Z</time>
</trkpt>
<trkpt lat="-26.8482651" lon="152.8514672">
<ele>139.027</ele>
<time>2018-01-10T00:11:37.345Z</time>
</trkpt>
<trkpt lat="-26.8481278" lon="152.8518112">
<ele>138.239</ele>
<time>2018-01-10T00:11:39.402Z</time>
</trkpt>
<trkpt lat="-26.8479722" lon="152.8521534">
<ele>137.365</ele>
<time>2018-01-10T00:11:41.470Z</time>
</trkpt>
<trkpt lat="-26.8478208" lon="152.8524692">
<ele>136.703</ele>
<time>2018-01-10T00:11:43.400Z</time>
</trkpt>
<trkpt lat="-26.8476997" lon="152.8527830">
<ele>136.372</ele>
<time>2018-01-10T00:11:45.246Z</time>
</trkpt>
<trkpt lat="-26.8475826" lon="152.8531398">
<ele>136.273</ele>
<time>2018-01-10T00:11:47.298Z</time>
</trkpt>
<trkpt lat="-26.8475011" lon="152.8534701">
<ele>136.216</ele>
<time>2018-01-10T00:11:49.136Z</time>
</trkpt>
<trkpt lat="-26.8474411" lon="152.8538161">
<ele>136.020</ele>
<time>2018-01-10T00:11:51.029Z</time>
</trkpt>
<trkpt lat="-26.8474420" lon="152.8541764">
<ele>135.690</ele>
<time>2018-01-10T00:11:52.982Z</time>
</trkpt>
<trkpt lat="-26.8474928" lon="152.8545437">
<ele>135.504</ele>
<time>2018-01-10T00:11:55.024Z</time>
</trkpt>
<trkpt lat="-26.8475707" lon="152.8549008">
<ele>135.722</ele>
<time>2018-01-10T00:11:57.065Z</time>
</trkpt>
<trkpt lat="-26.8476831" lon="152.8552379">
<ele>136.203</ele>
<time>2018-01-10T00:11:59.067Z</time>
</trkpt>
<trkpt lat="-26.8478317" lon="152.8555842">
<ele>136.614</ele>
<time>2018-01-10T00:12:01.185Z</time>
</trkpt>
<trkpt lat="-26.8480937" lon="152.8558877">
<ele>136.821</ele>
<time>2018-01-10T00:12:03.472Z</time>
</trkpt>
<trkpt lat="-26.8483324" lon="152.8560913">
<ele>136.984</ele>
<time>2018-01-10T00:12:05.268Z</time>
</trkpt>
<trkpt lat="-26.8485968" lon="152.8563064">
<ele>137.421</ele>
<time>2018-01-10T00:12:07.222Z</time>
</trkpt>
<trkpt lat="-26.8488502" lon="152.8565180">
<ele>138.312</ele>
<time>2018-01-10T00:12:09.119Z</time>
</trkpt>
<trkpt lat="-26.8490909" lon="152.8567572">
<ele>139.368</ele>
<time>2018-01-10T00:12:11.054Z</time>
</trkpt>
<trkpt lat="-26.8493165" lon="152.8570175">
<ele>140.106</ele>
<time>2018-01-10T00:12:13.003Z</time>
</trkpt>
<trkpt lat="-26.8494485" lon="152.8573375">
<ele>140.228</ele>
<time>2018-01-10T00:12:14.897Z</time>
</trkpt>
<trkpt lat="-26.8494475" lon="152.8576852">
<ele>139.586</ele>
<time>2018-01-10T00:12:16.770Z</time>
</trkpt>
<trkpt lat="-26.8493363" lon="152.8580602">
<ele>138.319</ele>
<time>2018-01-10T00:12:18.959Z</time>
</trkpt>
<trkpt lat="-26.8493008" lon="152.8584679">
<ele>136.864</ele>
<time>2018-01-10T00:12:21.354Z</time>
</trkpt>
<trkpt lat="-26.8492885" lon="152.8588574">
<ele>135.648</ele>
<time>2018-01-10T00:12:23.617Z</time>
</trkpt>
<trkpt lat="-26.8492883" lon="152.8593712">
<ele>135.054</ele>
<time>2018-01-10T00:12:26.493Z</time>
</trkpt>
<trkpt lat="-26.8494009" lon="152.8599001">
<ele>135.561</ele>
<time>2018-01-10T00:12:29.561Z</time>
</trkpt>
<trkpt lat="-26.8495631" lon="152.8604120">
<ele>137.358</ele>
<time>2018-01-10T00:12:32.614Z</time>
</trkpt>
<trkpt lat="-26.8496549" lon="152.8609920">
<ele>139.700</ele>
<time>2018-01-10T00:12:35.831Z</time>
</trkpt>
<trkpt lat="-26.8497623" lon="152.8615062">
<ele>141.460</ele>
<time>2018-01-10T00:12:38.676Z</time>
</trkpt>
<trkpt lat="-26.8498170" lon="152.8619913">
<ele>142.289</ele>
<time>2018-01-10T00:12:41.374Z</time>
</trkpt>
<trkpt lat="-26.8495659" lon="152.8623707">
<ele>142.262</ele>
<time>2018-01-10T00:12:44.130Z</time>
</trkpt>
<trkpt lat="-26.8491094" lon="152.8626073">
<ele>141.401</ele>
<time>2018-01-10T00:12:47.614Z</time>
</trkpt>
<trkpt lat="-26.8485812" lon="152.8626560">
<ele>140.177</ele>
<time>2018-01-10T00:12:51.253Z</time>
</trkpt>
<trkpt lat="-26.8481110" lon="152.8625579">
<ele>139.606</ele>
<time>2018-01-10T00:12:54.381Z</time>
</trkpt>
<trkpt lat="-26.8476914" lon="152.8625400">
<ele>140.211</ele>
<time>2018-01-10T00:12:57.135Z</time>
</trkpt>
<trkpt lat="-26.8473985" lon="152.8626738">
<ele>141.364</ele>
<time>2018-01-10T00:12:59.308Z</time>
</trkpt>
<trkpt lat="-26.8473019" lon="152.8631678">
<ele>142.128</ele>
<time>2018-01-10T00:13:02.864Z</time>
</trkpt>
<trkpt lat="-26.8470785" lon="152.8636455">
<ele>141.949</ele>
<time>2018-01-10T00:13:06.558Z</time>
</trkpt>
<trkpt lat="-26.8466649" lon="152.8639555">
<ele>140.719</ele>
<time>2018-01-10T00:13:10.045Z</time>
</trkpt>
<trkpt lat="-26.8462862" lon="152.8642316">
<ele>139.101</ele>
<time>2018-01-10T00:13:13.074Z</time>
</trkpt>
<trkpt lat="-26.8459284" lon="152.8645368">
<ele>138.136</ele>
<time>2018-01-10T00:13:16.092Z</time>
</trkpt>
<trkpt lat="-26.8456272" lon="152.8649590">
<ele>138.117</ele>
<time>2018-01-10T00:13:19.322Z</time>
</trkpt>
<trkpt lat="-26.8453990" lon="152.8654124">
<ele>138.471</ele>
<time>2018-01-10T00:13:22.405Z</time>
</trkpt>
<trkpt lat="-26.8452629" lon="152.8659510">
<ele>138.004</ele>
<time>2018-01-10T00:13:25.729Z</time>
</trkpt>
<trkpt lat="-26.8450617" lon="152.8664786">
<ele>135.926</ele>
<time>2018-01-10T00:13:28.988Z</time>
</trkpt>
<trkpt lat="-26.8448721" lon="152.8669843">
<ele>133.173</ele>
<time>2018-01-10T00:13:32.005Z</time>
</trkpt>
<trkpt lat="-26.8446822" lon="152.8675242">
<ele>131.399</ele>
<time>2018-01-10T00:13:35.197Z</time>
</trkpt>
<trkpt lat="-26.8445616" lon="152.8680384">
<ele>131.574</ele>
<time>2018-01-10T00:13:38.117Z</time>
</trkpt>
<trkpt lat="-26.8444464" lon="152.8685796">
<ele>133.848</ele>
<time>2018-01-10T00:13:41.190Z</time>
</trkpt>
<trkpt lat="-26.8444047" lon="152.8690899">
<ele>137.148</ele>
<time>2018-01-10T00:13:44.089Z</time>
</trkpt>
<trkpt lat="-26.8444187" lon="152.8693319">
<ele>139.815</ele>
<time>2018-01-10T00:13:45.888Z</time>
</trkpt>
<trkpt lat="-26.8444195" lon="152.8694650">
<ele>140.999</ele>
<time>2018-01-10T00:13:46.876Z</time>
</trkpt>
<trkpt lat="-26.8444084" lon="152.8698952">
<ele>140.956</ele>
<time>2018-01-10T00:13:52.325Z</time>
</trkpt>
<trkpt lat="-26.8444186" lon="152.8704367">
<ele>140.582</ele>
<time>2018-01-10T00:13:56.400Z</time>
</trkpt>
<trkpt lat="-26.8443977" lon="152.8710014">
<ele>140.748</ele>
<time>2018-01-10T00:13:59.715Z</time>
</trkpt>
<trkpt lat="-26.8443976" lon="152.8715104">
<ele>141.860</ele>
<time>2018-01-10T00:14:02.666Z</time>
</trkpt>
<trkpt lat="-26.8445840" lon="152.8719962">
<ele>143.659</ele>
<time>2018-01-10T00:14:05.785Z</time>
</trkpt>
<trkpt lat="-26.8448159" lon="152.8724725">
<ele>145.548</ele>
<time>2018-01-10T00:14:08.897Z</time>
</trkpt>
<trkpt lat="-26.8450758" lon="152.8729216">
<ele>147.163</ele>
<time>2018-01-10T00:14:11.869Z</time>
</trkpt>
<trkpt lat="-26.8453631" lon="152.8733739">
<ele>148.520</ele>
<time>2018-01-10T00:14:14.913Z</time>
</trkpt>
<trkpt lat="-26.8456353" lon="152.8738344">
<ele>149.902</ele>
<time>2018-01-10T00:14:17.931Z</time>
</trkpt>
<trkpt lat="-26.8458854" lon="152.8742939">
<ele>151.541</ele>
<time>2018-01-10T00:14:20.874Z</time>
</trkpt>
<trkpt lat="-26.8461159" lon="152.8747443">
<ele>153.119</ele>
<time>2018-01-10T00:14:23.725Z</time>
</trkpt>
<trkpt lat="-26.8463419" lon="152.8752339">
<ele>153.990</ele>
<time>2018-01-10T00:14:26.763Z</time>
</trkpt>
<trkpt lat="-26.8464587" lon="152.8757656">
<ele>154.033</ele>
<time>2018-01-10T00:14:29.787Z</time>
</trkpt>
<trkpt lat="-26.8465006" lon="152.8763090">
<ele>154.045</ele>
<time>2018-01-10T00:14:32.796Z</time>
</trkpt>
<trkpt lat="-26.8465715" lon="152.8768542">
<ele>154.843</ele>
<time>2018-01-10T00:14:35.821Z</time>
</trkpt>
<trkpt lat="-26.8466127" lon="152.8774214">
<ele>156.424</ele>
<time>2018-01-10T00:14:38.905Z</time>
</trkpt>
<trkpt lat="-26.8466561" lon="152.8779493">
<ele>158.398</ele>
<time>2018-01-10T00:14:41.772Z</time>
</trkpt>
<trkpt lat="-26.8466130" lon="152.8785028">
<ele>160.298</ele>
<time>2018-01-10T00:14:44.807Z</time>
</trkpt>
<trkpt lat="-26.8465572" lon="152.8790253">
<ele>161.639</ele>
<time>2018-01-10T00:14:47.728Z</time>
</trkpt>
<trkpt lat="-26.8464485" lon="152.8795399">
<ele>162.368</ele>
<time>2018-01-10T00:14:50.751Z</time>
</trkpt>
<trkpt lat="-26.8464225" lon="152.8800455">
<ele>162.962</ele>
<time>2018-01-10T00:14:53.743Z</time>
</trkpt>
<trkpt lat="-26.8463849" lon="152.8805057">
<ele>163.914</ele>
<time>2018-01-10T00:14:56.615Z</time>
</trkpt>
<trkpt lat="-26.8463315" lon="152.8809640">
<ele>165.103</ele>
<time>2018-01-10T00:14:59.615Z</time>
</trkpt>
<trkpt lat="-26.8462739" lon="152.8814669">
<ele>165.962</ele>
<time>2018-01-10T00:15:02.844Z</time>
</trkpt>
<trkpt lat="-26.8462091" lon="152.8819289">
<ele>166.350</ele>
<time>2018-01-10T00:15:05.780Z</time>
</trkpt>
<trkpt lat="-26.8460855" lon="152.8824107">
<ele>166.504</ele>
<time>2018-01-10T00:15:08.945Z</time>
</trkpt>
<trkpt lat="-26.8457965" lon="152.8827955">
<ele>166.573</ele>
<time>2018-01-10T00:15:12.131Z</time>
</trkpt>
<trkpt lat="-26.8454465" lon="152.8830657">
<ele>166.590</ele>
<time>2018-01-10T00:15:15.283Z</time>
</trkpt>
<trkpt lat="-26.8451812" lon="152.8833222">
<ele>166.577</ele>
<time>2018-01-10T00:15:18.245Z</time>
</trkpt>
<trkpt lat="-26.8449849" lon="152.8834933">
<ele>166.548</ele>
<time>2018-01-10T00:15:21.116Z</time>
</trkpt>
<trkpt lat="-26.8449536" lon="152.8836101">
<ele>166.218</ele>
<time>2018-01-10T00:15:22.999Z</time>
</trkpt>
<trkpt lat="-26.8449536" lon="152.8836101">
<ele>165.413</ele>
<time>2018-01-10T00:15:24.999Z</time>
</trkpt>
<trkpt lat="-26.8449536" lon="152.8836101">
<ele>164.723</ele>
<time>2018-01-10T00:15:25.428Z</time>
</trkpt>
<trkpt lat="-26.8450082" lon="152.8838412">
<ele>164.667</ele>
<time>2018-01-10T00:15:30.323Z</time>
</trkpt>
<trkpt lat="-26.8452206" lon="152.8840754">
<ele>164.579</ele>
<time>2018-01-10T00:15:33.506Z</time>
</trkpt>
<trkpt lat="-26.8454465" lon="152.8844386">
<ele>163.462</ele>
<time>2018-01-10T00:15:36.882Z</time>
</trkpt>
<trkpt lat="-26.8455934" lon="152.8848266">
<ele>161.092</ele>
<time>2018-01-10T00:15:39.884Z</time>
</trkpt>
<trkpt lat="-26.8456282" lon="152.8852499">
<ele>158.233</ele>
<time>2018-01-10T00:15:42.784Z</time>
</trkpt>
<trkpt lat="-26.8456244" lon="152.8856911">
<ele>156.024</ele>
<time>2018-01-10T00:15:45.718Z</time>
</trkpt>
<trkpt lat="-26.8455858" lon="152.8861054">
<ele>155.021</ele>
<time>2018-01-10T00:15:48.481Z</time>
</trkpt>
<trkpt lat="-26.8455168" lon="152.8864978">
<ele>155.053</ele>
<time>2018-01-10T00:15:51.149Z</time>
</trkpt>
<trkpt lat="-26.8453374" lon="152.8869062">
<ele>155.677</ele>
<time>2018-01-10T00:15:54.190Z</time>
</trkpt>
<trkpt lat="-26.8451241" lon="152.8873185">
<ele>156.371</ele>
<time>2018-01-10T00:15:57.323Z</time>
</trkpt>
<trkpt lat="-26.8449745" lon="152.8877991">
<ele>156.860</ele>
<time>2018-01-10T00:16:00.625Z</time>
</trkpt>
<trkpt lat="-26.8449568" lon="152.8882437">
<ele>157.311</ele>
<time>2018-01-10T00:16:03.592Z</time>
</trkpt>
<trkpt lat="-26.8449352" lon="152.8886711">
<ele>157.910</ele>
<time>2018-01-10T00:16:06.599Z</time>
</trkpt>
<trkpt lat="-26.8448576" lon="152.8890591">
<ele>158.516</ele>
<time>2018-01-10T00:16:09.477Z</time>
</trkpt>
<trkpt lat="-26.8446914" lon="152.8894348">
<ele>159.034</ele>
<time>2018-01-10T00:16:12.495Z</time>
</trkpt>
<trkpt lat="-26.8444937" lon="152.8897647">
<ele>159.677</ele>
<time>2018-01-10T00:16:15.307Z</time>
</trkpt>
<trkpt lat="-26.8444412" lon="152.8902265">
<ele>160.505</ele>
<time>2018-01-10T00:16:18.531Z</time>
</trkpt>
<trkpt lat="-26.8445358" lon="152.8906755">
<ele>161.262</ele>
<time>2018-01-10T00:16:21.662Z</time>
</trkpt>
<trkpt lat="-26.8446690" lon="152.8910891">
<ele>161.691</ele>
<time>2018-01-10T00:16:24.652Z</time>
</trkpt>
<trkpt lat="-26.8446590" lon="152.8915145">
<ele>161.722</ele>
<time>2018-01-10T00:16:27.584Z</time>
</trkpt>
<trkpt lat="-26.8445324" lon="152.8919182">
<ele>161.423</ele>
<time>2018-01-10T00:16:30.512Z</time>
</trkpt>
<trkpt lat="-26.8444114" lon="152.8923313">
<ele>160.829</ele>
<time>2018-01-10T00:16:33.528Z</time>
</trkpt>
<trkpt lat="-26.8443425" lon="152.8926903">
<ele>160.002</ele>
<time>2018-01-10T00:16:36.190Z</time>
</trkpt>
<trkpt lat="-26.8442748" lon="152.8931393">
<ele>158.896</ele>
<time>2018-01-10T00:16:39.446Z</time>
</trkpt>
<trkpt lat="-26.8440860" lon="152.8935349">
<ele>157.257</ele>
<time>2018-01-10T00:16:42.530Z</time>
</trkpt>
<trkpt lat="-26.8438192" lon="152.8938792">
<ele>155.003</ele>
<time>2018-01-10T00:16:45.751Z</time>
</trkpt>
<trkpt lat="-26.8433955" lon="152.8938340">
<ele>152.601</ele>
<time>2018-01-10T00:16:49.364Z</time>
</trkpt>
<trkpt lat="-26.8431175" lon="152.8939914">
<ele>150.387</ele>
<time>2018-01-10T00:16:52.090Z</time>
</trkpt>
<trkpt lat="-26.8429979" lon="152.8944117">
<ele>148.243</ele>
<time>2018-01-10T00:16:55.343Z</time>
</trkpt>
<trkpt lat="-26.8427385" lon="152.8946882">
<ele>146.037</ele>
<time>2018-01-10T00:16:58.332Z</time>
</trkpt>
<trkpt lat="-26.8424460" lon="152.8949443">
<ele>144.095</ele>
<time>2018-01-10T00:17:01.428Z</time>
</trkpt>
<trkpt lat="-26.8424681" lon="152.8953592">
<ele>142.916</ele>
<time>2018-01-10T00:17:04.410Z</time>
</trkpt>
<trkpt lat="-26.8426596" lon="152.8957115">
<ele>142.474</ele>
<time>2018-01-10T00:17:07.328Z</time>
</trkpt>
<trkpt lat="-26.8426131" lon="152.8961382">
<ele>142.265</ele>
<time>2018-01-10T00:17:10.328Z</time>
</trkpt>
<trkpt lat="-26.8423252" lon="152.8964444">
<ele>141.998</ele>
<time>2018-01-10T00:17:13.476Z</time>
</trkpt>
<trkpt lat="-26.8420130" lon="152.8966677">
<ele>141.646</ele>
<time>2018-01-10T00:17:16.453Z</time>
</trkpt>
<trkpt lat="-26.8416904" lon="152.8968685">
<ele>141.350</ele>
<time>2018-01-10T00:17:19.348Z</time>
</trkpt>
<trkpt lat="-26.8415269" lon="152.8973035">
<ele>141.210</ele>
<time>2018-01-10T00:17:22.561Z</time>
</trkpt>
<trkpt lat="-26.8414256" lon="152.8977353">
<ele>140.891</ele>
<time>2018-01-10T00:17:25.614Z</time>
</trkpt>
<trkpt lat="-26.8415947" lon="152.8981389">
<ele>139.827</ele>
<time>2018-01-10T00:17:28.779Z</time>
</trkpt>
<trkpt lat="-26.8418618" lon="152.8984366">
<ele>137.888</ele>
<time>2018-01-10T00:17:31.799Z</time>
</trkpt>
<trkpt lat="-26.8418572" lon="152.8988661">
<ele>135.614</ele>
<time>2018-01-10T00:17:34.883Z</time>
</trkpt>
<trkpt lat="-26.8417555" lon="152.8992846">
<ele>133.548</ele>
<time>2018-01-10T00:17:38.020Z</time>
</trkpt>
<trkpt lat="-26.8418240" lon="152.8996982">
<ele>131.552</ele>
<time>2018-01-10T00:17:40.941Z</time>
</trkpt>
<trkpt lat="-26.8418199" lon="152.9001462">
<ele>129.404</ele>
<time>2018-01-10T00:17:44.006Z</time>
</trkpt>
<trkpt lat="-26.8421270" lon="152.9004160">
<ele>127.364</ele>
<time>2018-01-10T00:17:47.043Z</time>
</trkpt>
<trkpt lat="-26.8425147" lon="152.9005010">
<ele>125.757</ele>
<time>2018-01-10T00:17:50.190Z</time>
</trkpt>
<trkpt lat="-26.8428759" lon="152.9004077">
<ele>124.705</ele>
<time>2018-01-10T00:17:53.341Z</time>
</trkpt>
<trkpt lat="-26.8432165" lon="152.9004146">
<ele>124.158</ele>
<time>2018-01-10T00:17:56.298Z</time>
</trkpt>
<trkpt lat="-26.8434666" lon="152.9007021">
<ele>123.747</ele>
<time>2018-01-10T00:17:59.351Z</time>
</trkpt>
<trkpt lat="-26.8435935" lon="152.9010718">
<ele>123.057</ele>
<time>2018-01-10T00:18:02.359Z</time>
</trkpt>
<trkpt lat="-26.8435168" lon="152.9014717">
<ele>122.026</ele>
<time>2018-01-10T00:18:05.577Z</time>
</trkpt>
<trkpt lat="-26.8434618" lon="152.9018416">
<ele>120.910</ele>
<time>2018-01-10T00:18:08.405Z</time>
</trkpt>
<trkpt lat="-26.8435731" lon="152.9022420">
<ele>119.763</ele>
<time>2018-01-10T00:18:11.294Z</time>
</trkpt>
<trkpt lat="-26.8434630" lon="152.9026852">
<ele>118.601</ele>
<time>2018-01-10T00:18:14.431Z</time>
</trkpt>
<trkpt lat="-26.8432545" lon="152.9030744">
<ele>117.615</ele>
<time>2018-01-10T00:18:17.506Z</time>
</trkpt>
<trkpt lat="-26.8430410" lon="152.9034748">
<ele>116.733</ele>
<time>2018-01-10T00:18:20.704Z</time>
</trkpt>
<trkpt lat="-26.8429819" lon="152.9039133">
<ele>115.403</ele>
<time>2018-01-10T00:18:23.859Z</time>
</trkpt>
<trkpt lat="-26.8429281" lon="152.9043584">
<ele>113.180</ele>
<time>2018-01-10T00:18:27.301Z</time>
</trkpt>
<trkpt lat="-26.8427561" lon="152.9046984">
<ele>110.425</ele>
<time>2018-01-10T00:18:30.347Z</time>
</trkpt>
<trkpt lat="-26.8425232" lon="152.9049771">
<ele>108.163</ele>
<time>2018-01-10T00:18:33.093Z</time>
</trkpt>
<trkpt lat="-26.8424081" lon="152.9054117">
<ele>106.759</ele>
<time>2018-01-10T00:18:36.153Z</time>
</trkpt>
<trkpt lat="-26.8422618" lon="152.9058454">
<ele>105.296</ele>
<time>2018-01-10T00:18:39.235Z</time>
</trkpt>
<trkpt lat="-26.8420587" lon="152.9062312">
<ele>102.859</ele>
<time>2018-01-10T00:18:42.139Z</time>
</trkpt>
<trkpt lat="-26.8418965" lon="152.9066514">
<ele>99.692</ele>
<time>2018-01-10T00:18:45.071Z</time>
</trkpt>
<trkpt lat="-26.8416013" lon="152.9069831">
<ele>96.521</ele>
<time>2018-01-10T00:18:48.134Z</time>
</trkpt>
<trkpt lat="-26.8413002" lon="152.9072983">
<ele>93.788</ele>
<time>2018-01-10T00:18:51.211Z</time>
</trkpt>
<trkpt lat="-26.8411313" lon="152.9076980">
<ele>91.706</ele>
<time>2018-01-10T00:18:54.134Z</time>
</trkpt>
<trkpt lat="-26.8410936" lon="152.9081557">
<ele>90.224</ele>
<time>2018-01-10T00:18:57.114Z</time>
</trkpt>
<trkpt lat="-26.8411482" lon="152.9086160">
<ele>89.085</ele>
<time>2018-01-10T00:19:00.064Z</time>
</trkpt>
<trkpt lat="-26.8412604" lon="152.9090776">
<ele>88.145</ele>
<time>2018-01-10T00:19:03.024Z</time>
</trkpt>
<trkpt lat="-26.8414102" lon="152.9095477">
<ele>87.335</ele>
<time>2018-01-10T00:19:06.062Z</time>
</trkpt>
<trkpt lat="-26.8416677" lon="152.9099644">
<ele>86.376</ele>
<time>2018-01-10T00:19:09.165Z</time>
</trkpt>
<trkpt lat="-26.8419637" lon="152.9103204">
<ele>84.957</ele>
<time>2018-01-10T00:19:12.203Z</time>
</trkpt>
<trkpt lat="-26.8422619" lon="152.9106610">
<ele>83.161</ele>
<time>2018-01-10T00:19:15.216Z</time>
</trkpt>
<trkpt lat="-26.8425144" lon="152.9110441">
<ele>81.390</ele>
<time>2018-01-10T00:19:18.200Z</time>
</trkpt>
<trkpt lat="-26.8426741" lon="152.9114875">
<ele>79.944</ele>
<time>2018-01-10T00:19:21.160Z</time>
</trkpt>
<trkpt lat="-26.8427414" lon="152.9119629">
<ele>78.852</ele>
<time>2018-01-10T00:19:24.159Z</time>
</trkpt>
<trkpt lat="-26.8427672" lon="152.9124353">
<ele>77.974</ele>
<time>2018-01-10T00:19:27.149Z</time>
</trkpt>
<trkpt lat="-26.8428301" lon="152.9128908">
<ele>77.158</ele>
<time>2018-01-10T00:19:30.049Z</time>
</trkpt>
<trkpt lat="-26.8429791" lon="152.9133359">
<ele>76.348</ele>
<time>2018-01-10T00:19:32.997Z</time>
</trkpt>
<trkpt lat="-26.8431949" lon="152.9137503">
<ele>75.538</ele>
<time>2018-01-10T00:19:35.973Z</time>
</trkpt>
<trkpt lat="-26.8434779" lon="152.9141099">
<ele>74.689</ele>
<time>2018-01-10T00:19:38.973Z</time>
</trkpt>
<trkpt lat="-26.8438113" lon="152.9143982">
<ele>73.803</ele>
<time>2018-01-10T00:19:41.936Z</time>
</trkpt>
<trkpt lat="-26.8441739" lon="152.9146385">
<ele>72.981</ele>
<time>2018-01-10T00:19:44.900Z</time>
</trkpt>
<trkpt lat="-26.8445257" lon="152.9149012">
<ele>72.260</ele>
<time>2018-01-10T00:19:47.862Z</time>
</trkpt>
<trkpt lat="-26.8447801" lon="152.9152858">
<ele>71.551</ele>
<time>2018-01-10T00:19:50.841Z</time>
</trkpt>
<trkpt lat="-26.8449355" lon="152.9157367">
<ele>70.786</ele>
<time>2018-01-10T00:19:53.848Z</time>
</trkpt>
<trkpt lat="-26.8450736" lon="152.9161902">
<ele>69.931</ele>
<time>2018-01-10T00:19:56.837Z</time>
</trkpt>
<trkpt lat="-26.8452122" lon="152.9166402">
<ele>68.940</ele>
<time>2018-01-10T00:19:59.810Z</time>
</trkpt>
<trkpt lat="-26.8453548" lon="152.9170881">
<ele>67.819</ele>
<time>2018-01-10T00:20:02.778Z</time>
</trkpt>
<trkpt lat="-26.8455125" lon="152.9175277">
<ele>66.670</ele>
<time>2018-01-10T00:20:05.752Z</time>
</trkpt>
<trkpt lat="-26.8457159" lon="152.9179429">
<ele>65.630</ele>
<time>2018-01-10T00:20:08.743Z</time>
</trkpt>
<trkpt lat="-26.8459774" lon="152.9183025">
<ele>64.810</ele>
<time>2018-01-10T00:20:11.672Z</time>
</trkpt>
<trkpt lat="-26.8462751" lon="152.9186234">
<ele>64.235</ele>
<time>2018-01-10T00:20:14.581Z</time>
</trkpt>
<trkpt lat="-26.8466176" lon="152.9188936">
<ele>63.833</ele>
<time>2018-01-10T00:20:17.506Z</time>
</trkpt>
<trkpt lat="-26.8469771" lon="152.9191454">
<ele>63.513</ele>
<time>2018-01-10T00:20:20.444Z</time>
</trkpt>
<trkpt lat="-26.8473433" lon="152.9193964">
<ele>63.256</ele>
<time>2018-01-10T00:20:23.402Z</time>
</trkpt>
<trkpt lat="-26.8477064" lon="152.9196530">
<ele>63.055</ele>
<time>2018-01-10T00:20:26.353Z</time>
</trkpt>
<trkpt lat="-26.8480748" lon="152.9198968">
<ele>62.863</ele>
<time>2018-01-10T00:20:29.282Z</time>
</trkpt>
<trkpt lat="-26.8484748" lon="152.9200831">
<ele>62.669</ele>
<time>2018-01-10T00:20:32.235Z</time>
</trkpt>
<trkpt lat="-26.8488919" lon="152.9202185">
<ele>62.451</ele>
<time>2018-01-10T00:20:35.196Z</time>
</trkpt>
<trkpt lat="-26.8493257" lon="152.9202892">
<ele>62.182</ele>
<time>2018-01-10T00:20:38.195Z</time>
</trkpt>
<trkpt lat="-26.8497576" lon="152.9203566">
<ele>61.909</ele>
<time>2018-01-10T00:20:41.184Z</time>
</trkpt>
<trkpt lat="-26.8501855" lon="152.9204202">
<ele>61.607</ele>
<time>2018-01-10T00:20:44.143Z</time>
</trkpt>
<trkpt lat="-26.8506146" lon="152.9204934">
<ele>61.163</ele>
<time>2018-01-10T00:20:47.116Z</time>
</trkpt>
<trkpt lat="-26.8510350" lon="152.9206195">
<ele>60.564</ele>
<time>2018-01-10T00:20:50.099Z</time>
</trkpt>
<trkpt lat="-26.8514331" lon="152.9208207">
<ele>59.872</ele>
<time>2018-01-10T00:20:53.095Z</time>
</trkpt>
<trkpt lat="-26.8517843" lon="152.9211110">
<ele>59.087</ele>
<time>2018-01-10T00:20:56.074Z</time>
</trkpt>
<trkpt lat="-26.8520616" lon="152.9214880">
<ele>58.192</ele>
<time>2018-01-10T00:20:59.032Z</time>
</trkpt>
<trkpt lat="-26.8523226" lon="152.9218803">
<ele>57.232</ele>
<time>2018-01-10T00:21:01.995Z</time>
</trkpt>
<trkpt lat="-26.8525771" lon="152.9222706">
<ele>56.296</ele>
<time>2018-01-10T00:21:04.925Z</time>
</trkpt>
<trkpt lat="-26.8528451" lon="152.9226508">
<ele>55.461</ele>
<time>2018-01-10T00:21:07.859Z</time>
</trkpt>
<trkpt lat="-26.8531009" lon="152.9230499">
<ele>54.779</ele>
<time>2018-01-10T00:21:10.732Z</time>
</trkpt>
<trkpt lat="-26.8532845" lon="152.9235233">
<ele>54.237</ele>
<time>2018-01-10T00:21:13.555Z</time>
</trkpt>
<trkpt lat="-26.8534459" lon="152.9240664">
<ele>53.765</ele>
<time>2018-01-10T00:21:16.514Z</time>
</trkpt>
<trkpt lat="-26.8535873" lon="152.9246442">
<ele>53.271</ele>
<time>2018-01-10T00:21:19.544Z</time>
</trkpt>
<trkpt lat="-26.8537334" lon="152.9251771">
<ele>52.636</ele>
<time>2018-01-10T00:21:22.395Z</time>
</trkpt>
<trkpt lat="-26.8538605" lon="152.9257371">
<ele>51.651</ele>
<time>2018-01-10T00:21:25.349Z</time>
</trkpt>
<trkpt lat="-26.8539461" lon="152.9263236">
<ele>50.209</ele>
<time>2018-01-10T00:21:28.360Z</time>
</trkpt>
<trkpt lat="-26.8540144" lon="152.9269072">
<ele>48.479</ele>
<time>2018-01-10T00:21:31.376Z</time>
</trkpt>
<trkpt lat="-26.8541007" lon="152.9274649">
<ele>46.578</ele>
<time>2018-01-10T00:21:34.303Z</time>
</trkpt>
<trkpt lat="-26.8541697" lon="152.9280294">
<ele>44.540</ele>
<time>2018-01-10T00:21:37.228Z</time>
</trkpt>
<trkpt lat="-26.8541430" lon="152.9285969">
<ele>42.471</ele>
<time>2018-01-10T00:21:40.151Z</time>
</trkpt>
<trkpt lat="-26.8541188" lon="152.9291645">
<ele>40.501</ele>
<time>2018-01-10T00:21:43.068Z</time>
</trkpt>
<trkpt lat="-26.8540941" lon="152.9297666">
<ele>38.782</ele>
<time>2018-01-10T00:21:46.152Z</time>
</trkpt>
<trkpt lat="-26.8540347" lon="152.9303392">
<ele>37.377</ele>
<time>2018-01-10T00:21:49.131Z</time>
</trkpt>
<trkpt lat="-26.8540119" lon="152.9309023">
<ele>36.333</ele>
<time>2018-01-10T00:21:52.034Z</time>
</trkpt>
<trkpt lat="-26.8540464" lon="152.9314987">
<ele>35.832</ele>
<time>2018-01-10T00:21:55.071Z</time>
</trkpt>
<trkpt lat="-26.8540987" lon="152.9320790">
<ele>35.833</ele>
<time>2018-01-10T00:21:58.030Z</time>
</trkpt>
<trkpt lat="-26.8542020" lon="152.9326358">
<ele>35.957</ele>
<time>2018-01-10T00:22:00.920Z</time>
</trkpt>
<trkpt lat="-26.8543167" lon="152.9331813">
<ele>35.907</ele>
<time>2018-01-10T00:22:03.766Z</time>
</trkpt>
<trkpt lat="-26.8544625" lon="152.9337467">
<ele>35.691</ele>
<time>2018-01-10T00:22:06.755Z</time>
</trkpt>
<trkpt lat="-26.8546065" lon="152.9343065">
<ele>35.303</ele>
<time>2018-01-10T00:22:09.736Z</time>
</trkpt>
<trkpt lat="-26.8547243" lon="152.9348622">
<ele>34.709</ele>
<time>2018-01-10T00:22:12.736Z</time>
</trkpt>
<trkpt lat="-26.8547966" lon="152.9353855">
<ele>34.077</ele>
<time>2018-01-10T00:22:15.704Z</time>
</trkpt>
<trkpt lat="-26.8548471" lon="152.9358309">
<ele>33.538</ele>
<time>2018-01-10T00:22:18.412Z</time>
</trkpt>
<trkpt lat="-26.8549589" lon="152.9362955">
<ele>32.957</ele>
<time>2018-01-10T00:22:21.425Z</time>
</trkpt>
<trkpt lat="-26.8550771" lon="152.9367520">
<ele>32.255</ele>
<time>2018-01-10T00:22:24.368Z</time>
</trkpt>
<trkpt lat="-26.8552631" lon="152.9372175">
<ele>31.531</ele>
<time>2018-01-10T00:22:27.435Z</time>
</trkpt>
<trkpt lat="-26.8554847" lon="152.9376586">
<ele>30.865</ele>
<time>2018-01-10T00:22:30.460Z</time>
</trkpt>
<trkpt lat="-26.8557326" lon="152.9380100">
<ele>30.283</ele>
<time>2018-01-10T00:22:33.309Z</time>
</trkpt>
<trkpt lat="-26.8559703" lon="152.9383169">
<ele>29.864</ele>
<time>2018-01-10T00:22:36.263Z</time>
</trkpt>
<trkpt lat="-26.8561492" lon="152.9385643">
<ele>29.684</ele>
<time>2018-01-10T00:22:38.924Z</time>
</trkpt>
<trkpt lat="-26.8563153" lon="152.9388565">
<ele>29.899</ele>
<time>2018-01-10T00:22:42.264Z</time>
</trkpt>
<trkpt lat="-26.8564191" lon="152.9389652">
<ele>30.609</ele>
<time>2018-01-10T00:22:43.997Z</time>
</trkpt>
<trkpt lat="-26.8564191" lon="152.9389652">
<ele>31.498</ele>
<time>2018-01-10T00:22:49.997Z</time>
</trkpt>
<trkpt lat="-26.8564191" lon="152.9389652">
<ele>31.996</ele>
<time>2018-01-10T00:22:52.038Z</time>
</trkpt>
<trkpt lat="-26.8566048" lon="152.9389572">
<ele>31.946</ele>
<time>2018-01-10T00:22:57.317Z</time>
</trkpt>
<trkpt lat="-26.8568595" lon="152.9387642">
<ele>32.042</ele>
<time>2018-01-10T00:23:00.951Z</time>
</trkpt>
<trkpt lat="-26.8571345" lon="152.9385740">
<ele>32.811</ele>
<time>2018-01-10T00:23:03.925Z</time>
</trkpt>
<trkpt lat="-26.8574492" lon="152.9383162">
<ele>33.637</ele>
<time>2018-01-10T00:23:07.081Z</time>
</trkpt>
<trkpt lat="-26.8576164" lon="152.9379128">
<ele>33.620</ele>
<time>2018-01-10T00:23:10.080Z</time>
</trkpt>
<trkpt lat="-26.8576906" lon="152.9374685">
<ele>32.822</ele>
<time>2018-01-10T00:23:13.064Z</time>
</trkpt>
<trkpt lat="-26.8576707" lon="152.9369669">
<ele>31.978</ele>
<time>2018-01-10T00:23:16.263Z</time>
</trkpt>
<trkpt lat="-26.8577078" lon="152.9364657">
<ele>31.595</ele>
<time>2018-01-10T00:23:19.358Z</time>
</trkpt>
<trkpt lat="-26.8577282" lon="152.9360035">
<ele>31.755</ele>
<time>2018-01-10T00:23:22.201Z</time>
</trkpt>
<trkpt lat="-26.8578329" lon="152.9355307">
<ele>32.445</ele>
<time>2018-01-10T00:23:25.208Z</time>
</trkpt>
<trkpt lat="-26.8579648" lon="152.9350781">
<ele>33.334</ele>
<time>2018-01-10T00:23:28.189Z</time>
</trkpt>
<trkpt lat="-26.8580925" lon="152.9346203">
<ele>33.952</ele>
<time>2018-01-10T00:23:31.196Z</time>
</trkpt>
<trkpt lat="-26.8582139" lon="152.9341741">
<ele>34.317</ele>
<time>2018-01-10T00:23:34.099Z</time>
</trkpt>
<trkpt lat="-26.8583564" lon="152.9337364">
<ele>34.793</ele>
<time>2018-01-10T00:23:37.022Z</time>
</trkpt>
<trkpt lat="-26.8585215" lon="152.9333326">
<ele>35.384</ele>
<time>2018-01-10T00:23:39.858Z</time>
</trkpt>
<trkpt lat="-26.8587053" lon="152.9329139">
<ele>35.794</ele>
<time>2018-01-10T00:23:42.884Z</time>
</trkpt>
<trkpt lat="-26.8589173" lon="152.9325287">
<ele>35.874</ele>
<time>2018-01-10T00:23:45.829Z</time>
</trkpt>
<trkpt lat="-26.8590575" lon="152.9321096">
<ele>35.526</ele>
<time>2018-01-10T00:23:48.701Z</time>
</trkpt>
<trkpt lat="-26.8592180" lon="152.9316286">
<ele>34.674</ele>
<time>2018-01-10T00:23:51.949Z</time>
</trkpt>
<trkpt lat="-26.8593778" lon="152.9311989">
<ele>33.526</ele>
<time>2018-01-10T00:23:54.906Z</time>
</trkpt>
<trkpt lat="-26.8595160" lon="152.9307378">
<ele>32.502</ele>
<time>2018-01-10T00:23:58.021Z</time>
</trkpt>
<trkpt lat="-26.8599181" lon="152.9304922">
<ele>31.924</ele>
<time>2018-01-10T00:24:01.311Z</time>
</trkpt>
<trkpt lat="-26.8603177" lon="152.9303400">
<ele>32.071</ele>
<time>2018-01-10T00:24:04.327Z</time>
</trkpt>
<trkpt lat="-26.8607141" lon="152.9301706">
<ele>33.156</ele>
<time>2018-01-10T00:24:07.346Z</time>
</trkpt>
<trkpt lat="-26.8611201" lon="152.9300091">
<ele>34.743</ele>
<time>2018-01-10T00:24:10.380Z</time>
</trkpt>
<trkpt lat="-26.8614499" lon="152.9296997">
<ele>36.058</ele>
<time>2018-01-10T00:24:13.426Z</time>
</trkpt>
<trkpt lat="-26.8616791" lon="152.9292840">
<ele>36.822</ele>
<time>2018-01-10T00:24:16.617Z</time>
</trkpt>
<trkpt lat="-26.8619003" lon="152.9289159">
<ele>37.016</ele>
<time>2018-01-10T00:24:19.497Z</time>
</trkpt>
<trkpt lat="-26.8621672" lon="152.9285477">
<ele>36.715</ele>
<time>2018-01-10T00:24:22.450Z</time>
</trkpt>
<trkpt lat="-26.8624515" lon="152.9281664">
<ele>36.318</ele>
<time>2018-01-10T00:24:25.495Z</time>
</trkpt>
<trkpt lat="-26.8627180" lon="152.9277803">
<ele>36.213</ele>
<time>2018-01-10T00:24:28.522Z</time>
</trkpt>
<trkpt lat="-26.8629917" lon="152.9274203">
<ele>36.633</ele>
<time>2018-01-10T00:24:31.478Z</time>
</trkpt>
<trkpt lat="-26.8632850" lon="152.9270736">
<ele>37.596</ele>
<time>2018-01-10T00:24:34.427Z</time>
</trkpt>
<trkpt lat="-26.8635729" lon="152.9267085">
<ele>38.817</ele>
<time>2018-01-10T00:24:37.377Z</time>
</trkpt>
<trkpt lat="-26.8638372" lon="152.9263117">
<ele>39.967</ele>
<time>2018-01-10T00:24:40.367Z</time>
</trkpt>
<trkpt lat="-26.8640925" lon="152.9259206">
<ele>40.871</ele>
<time>2018-01-10T00:24:43.356Z</time>
</trkpt>
<trkpt lat="-26.8643248" lon="152.9255311">
<ele>41.454</ele>
<time>2018-01-10T00:24:46.291Z</time>
</trkpt>
<trkpt lat="-26.8645868" lon="152.9251546">
<ele>41.770</ele>
<time>2018-01-10T00:24:49.285Z</time>
</trkpt>
<trkpt lat="-26.8649072" lon="152.9248459">
<ele>42.019</ele>
<time>2018-01-10T00:24:52.234Z</time>
</trkpt>
<trkpt lat="-26.8652815" lon="152.9246001">
<ele>42.406</ele>
<time>2018-01-10T00:24:55.170Z</time>
</trkpt>
<trkpt lat="-26.8657015" lon="152.9244221">
<ele>42.943</ele>
<time>2018-01-10T00:24:58.112Z</time>
</trkpt>
<trkpt lat="-26.8661370" lon="152.9242514">
<ele>43.479</ele>
<time>2018-01-10T00:25:01.142Z</time>
</trkpt>
<trkpt lat="-26.8665730" lon="152.9241373">
<ele>43.860</ele>
<time>2018-01-10T00:25:04.180Z</time>
</trkpt>
<trkpt lat="-26.8669976" lon="152.9240951">
<ele>44.113</ele>
<time>2018-01-10T00:25:07.152Z</time>
</trkpt>
<trkpt lat="-26.8673999" lon="152.9240798">
<ele>44.337</ele>
<time>2018-01-10T00:25:09.947Z</time>
</trkpt>
<trkpt lat="-26.8678263" lon="152.9239889">
<ele>44.556</ele>
<time>2018-01-10T00:25:12.917Z</time>
</trkpt>
<trkpt lat="-26.8682361" lon="152.9239120">
<ele>44.815</ele>
<time>2018-01-10T00:25:15.742Z</time>
</trkpt>
<trkpt lat="-26.8686771" lon="152.9238362">
<ele>45.122</ele>
<time>2018-01-10T00:25:18.756Z</time>
</trkpt>
<trkpt lat="-26.8691130" lon="152.9238014">
<ele>45.584</ele>
<time>2018-01-10T00:25:21.701Z</time>
</trkpt>
<trkpt lat="-26.8695379" lon="152.9237006">
<ele>46.460</ele>
<time>2018-01-10T00:25:24.655Z</time>
</trkpt>
<trkpt lat="-26.8699560" lon="152.9236085">
<ele>47.641</ele>
<time>2018-01-10T00:25:27.569Z</time>
</trkpt>
<trkpt lat="-26.8704050" lon="152.9235804">
<ele>48.636</ele>
<time>2018-01-10T00:25:30.670Z</time>
</trkpt>
<trkpt lat="-26.8708107" lon="152.9237554">
<ele>49.184</ele>
<time>2018-01-10T00:25:33.716Z</time>
</trkpt>
<trkpt lat="-26.8712177" lon="152.9239298">
<ele>49.458</ele>
<time>2018-01-10T00:25:36.768Z</time>
</trkpt>
<trkpt lat="-26.8716566" lon="152.9237775">
<ele>49.735</ele>
<time>2018-01-10T00:25:39.918Z</time>
</trkpt>
<trkpt lat="-26.8719208" lon="152.9233528">
<ele>50.010</ele>
<time>2018-01-10T00:25:43.032Z</time>
</trkpt>
<trkpt lat="-26.8721844" lon="152.9229922">
<ele>50.096</ele>
<time>2018-01-10T00:25:45.832Z</time>
</trkpt>
<trkpt lat="-26.8724465" lon="152.9226036">
<ele>49.699</ele>
<time>2018-01-10T00:25:48.719Z</time>
</trkpt>
<trkpt lat="-26.8727173" lon="152.9221527">
<ele>48.372</ele>
<time>2018-01-10T00:25:51.894Z</time>
</trkpt>
<trkpt lat="-26.8729810" lon="152.9217247">
<ele>45.907</ele>
<time>2018-01-10T00:25:55.026Z</time>
</trkpt>
<trkpt lat="-26.8732073" lon="152.9213415">
<ele>42.580</ele>
<time>2018-01-10T00:25:57.942Z</time>
</trkpt>
<trkpt lat="-26.8734848" lon="152.9209886">
<ele>39.049</ele>
<time>2018-01-10T00:26:00.927Z</time>
</trkpt>
<trkpt lat="-26.8737986" lon="152.9206173">
<ele>36.260</ele>
<time>2018-01-10T00:26:04.089Z</time>
</trkpt>
<trkpt lat="-26.8740780" lon="152.9202047">
<ele>35.010</ele>
<time>2018-01-10T00:26:07.253Z</time>
</trkpt>
<trkpt lat="-26.8744053" lon="152.9198689">
<ele>35.421</ele>
<time>2018-01-10T00:26:10.304Z</time>
</trkpt>
<trkpt lat="-26.8746833" lon="152.9195520">
<ele>37.162</ele>
<time>2018-01-10T00:26:13.073Z</time>
</trkpt>
<trkpt lat="-26.8750121" lon="152.9192144">
<ele>39.988</ele>
<time>2018-01-10T00:26:16.219Z</time>
</trkpt>
<trkpt lat="-26.8753568" lon="152.9189793">
<ele>43.482</ele>
<time>2018-01-10T00:26:19.056Z</time>
</trkpt>
<trkpt lat="-26.8757543" lon="152.9188255">
<ele>46.881</ele>
<time>2018-01-10T00:26:21.960Z</time>
</trkpt>
<trkpt lat="-26.8761994" lon="152.9187533">
<ele>49.582</ele>
<time>2018-01-10T00:26:24.976Z</time>
</trkpt>
<trkpt lat="-26.8766407" lon="152.9186874">
<ele>51.459</ele>
<time>2018-01-10T00:26:27.811Z</time>
</trkpt>
<trkpt lat="-26.8771631" lon="152.9185989">
<ele>52.871</ele>
<time>2018-01-10T00:26:31.003Z</time>
</trkpt>
<trkpt lat="-26.8776946" lon="152.9185585">
<ele>54.356</ele>
<time>2018-01-10T00:26:34.171Z</time>
</trkpt>
<trkpt lat="-26.8781679" lon="152.9184531">
<ele>55.843</ele>
<time>2018-01-10T00:26:37.089Z</time>
</trkpt>
<trkpt lat="-26.8786575" lon="152.9183339">
<ele>56.721</ele>
<time>2018-01-10T00:26:40.168Z</time>
</trkpt>
<trkpt lat="-26.8791153" lon="152.9181633">
<ele>56.527</ele>
<time>2018-01-10T00:26:43.175Z</time>
</trkpt>
<trkpt lat="-26.8795507" lon="152.9179396">
<ele>55.370</ele>
<time>2018-01-10T00:26:46.214Z</time>
</trkpt>
<trkpt lat="-26.8799374" lon="152.9176842">
<ele>53.988</ele>
<time>2018-01-10T00:26:49.045Z</time>
</trkpt>
<trkpt lat="-26.8803719" lon="152.9174508">
<ele>53.353</ele>
<time>2018-01-10T00:26:52.015Z</time>
</trkpt>
<trkpt lat="-26.8808198" lon="152.9172435">
<ele>53.846</ele>
<time>2018-01-10T00:26:54.955Z</time>
</trkpt>
<trkpt lat="-26.8812650" lon="152.9170076">
<ele>54.920</ele>
<time>2018-01-10T00:26:57.920Z</time>
</trkpt>
<trkpt lat="-26.8817514" lon="152.9168889">
<ele>55.594</ele>
<time>2018-01-10T00:27:00.916Z</time>
</trkpt>
<trkpt lat="-26.8822566" lon="152.9168713">
<ele>55.290</ele>
<time>2018-01-10T00:27:03.990Z</time>
</trkpt>
<trkpt lat="-26.8827305" lon="152.9169066">
<ele>54.105</ele>
<time>2018-01-10T00:27:06.911Z</time>
</trkpt>
<trkpt lat="-26.8832026" lon="152.9168719">
<ele>52.431</ele>
<time>2018-01-10T00:27:09.829Z</time>
</trkpt>
<trkpt lat="-26.8836789" lon="152.9168397">
<ele>50.167</ele>
<time>2018-01-10T00:27:12.790Z</time>
</trkpt>
<trkpt lat="-26.8841552" lon="152.9167978">
<ele>47.493</ele>
<time>2018-01-10T00:27:15.777Z</time>
</trkpt>
<trkpt lat="-26.8846494" lon="152.9166618">
<ele>45.606</ele>
<time>2018-01-10T00:27:18.950Z</time>
</trkpt>
<trkpt lat="-26.8851243" lon="152.9165128">
<ele>45.222</ele>
<time>2018-01-10T00:27:22.005Z</time>
</trkpt>
<trkpt lat="-26.8855781" lon="152.9163683">
<ele>45.769</ele>
<time>2018-01-10T00:27:24.907Z</time>
</trkpt>
<trkpt lat="-26.8860541" lon="152.9162312">
<ele>46.574</ele>
<time>2018-01-10T00:27:27.896Z</time>
</trkpt>
<trkpt lat="-26.8865285" lon="152.9160744">
<ele>47.404</ele>
<time>2018-01-10T00:27:30.863Z</time>
</trkpt>
<trkpt lat="-26.8870088" lon="152.9159109">
<ele>48.320</ele>
<time>2018-01-10T00:27:33.856Z</time>
</trkpt>
<trkpt lat="-26.8874849" lon="152.9157431">
<ele>49.435</ele>
<time>2018-01-10T00:27:36.853Z</time>
</trkpt>
<trkpt lat="-26.8879568" lon="152.9155404">
<ele>50.769</ele>
<time>2018-01-10T00:27:39.902Z</time>
</trkpt>
<trkpt lat="-26.8883675" lon="152.9152248">
<ele>52.272</ele>
<time>2018-01-10T00:27:42.884Z</time>
</trkpt>
<trkpt lat="-26.8888145" lon="152.9149626">
<ele>54.073</ele>
<time>2018-01-10T00:27:45.891Z</time>
</trkpt>
<trkpt lat="-26.8893414" lon="152.9150128">
<ele>55.995</ele>
<time>2018-01-10T00:27:49.062Z</time>
</trkpt>
<trkpt lat="-26.8898164" lon="152.9152075">
<ele>57.310</ele>
<time>2018-01-10T00:27:52.135Z</time>
</trkpt>
<trkpt lat="-26.8902666" lon="152.9154605">
<ele>57.655</ele>
<time>2018-01-10T00:27:55.143Z</time>
</trkpt>
<trkpt lat="-26.8907436" lon="152.9157150">
<ele>57.432</ele>
<time>2018-01-10T00:27:58.209Z</time>
</trkpt>
<trkpt lat="-26.8911928" lon="152.9159539">
<ele>57.029</ele>
<time>2018-01-10T00:28:01.129Z</time>
</trkpt>
<trkpt lat="-26.8916285" lon="152.9161953">
<ele>56.613</ele>
<time>2018-01-10T00:28:04.030Z</time>
</trkpt>
<trkpt lat="-26.8921012" lon="152.9163948">
<ele>56.555</ele>
<time>2018-01-10T00:28:07.030Z</time>
</trkpt>
<trkpt lat="-26.8925623" lon="152.9166534">
<ele>57.161</ele>
<time>2018-01-10T00:28:10.065Z</time>
</trkpt>
<trkpt lat="-26.8929827" lon="152.9169549">
<ele>58.044</ele>
<time>2018-01-10T00:28:13.000Z</time>
</trkpt>
<trkpt lat="-26.8933967" lon="152.9172531">
<ele>58.355</ele>
<time>2018-01-10T00:28:15.901Z</time>
</trkpt>
<trkpt lat="-26.8938234" lon="152.9175722">
<ele>57.826</ele>
<time>2018-01-10T00:28:18.921Z</time>
</trkpt>
<trkpt lat="-26.8942251" lon="152.9178906">
<ele>57.097</ele>
<time>2018-01-10T00:28:21.819Z</time>
</trkpt>
<trkpt lat="-26.8946457" lon="152.9181973">
<ele>56.759</ele>
<time>2018-01-10T00:28:24.779Z</time>
</trkpt>
<trkpt lat="-26.8950585" lon="152.9185371">
<ele>56.571</ele>
<time>2018-01-10T00:28:27.784Z</time>
</trkpt>
<trkpt lat="-26.8954824" lon="152.9188757">
<ele>56.062</ele>
<time>2018-01-10T00:28:30.822Z</time>
</trkpt>
<trkpt lat="-26.8958706" lon="152.9192375">
<ele>55.289</ele>
<time>2018-01-10T00:28:33.778Z</time>
</trkpt>
<trkpt lat="-26.8963152" lon="152.9195251">
<ele>54.728</ele>
<time>2018-01-10T00:28:36.797Z</time>
</trkpt>
<trkpt lat="-26.8967755" lon="152.9197202">
<ele>54.701</ele>
<time>2018-01-10T00:28:39.728Z</time>
</trkpt>
<trkpt lat="-26.8971117" lon="152.9201284">
<ele>55.148</ele>
<time>2018-01-10T00:28:42.721Z</time>
</trkpt>
<trkpt lat="-26.8972858" lon="152.9206767">
<ele>55.721</ele>
<time>2018-01-10T00:28:45.837Z</time>
</trkpt>
<trkpt lat="-26.8975608" lon="152.9211783">
<ele>56.114</ele>
<time>2018-01-10T00:28:48.933Z</time>
</trkpt>
<trkpt lat="-26.8978617" lon="152.9216507">
<ele>56.269</ele>
<time>2018-01-10T00:28:51.937Z</time>
</trkpt>
<trkpt lat="-26.8982045" lon="152.9220669">
<ele>55.887</ele>
<time>2018-01-10T00:28:54.829Z</time>
</trkpt>
<trkpt lat="-26.8986344" lon="152.9224145">
<ele>54.471</ele>
<time>2018-01-10T00:28:57.807Z</time>
</trkpt>
<trkpt lat="-26.8991425" lon="152.9226232">
<ele>51.947</ele>
<time>2018-01-10T00:29:00.817Z</time>
</trkpt>
<trkpt lat="-26.8996416" lon="152.9228744">
<ele>48.874</ele>
<time>2018-01-10T00:29:03.921Z</time>
</trkpt>
<trkpt lat="-26.9000927" lon="152.9230677">
<ele>46.235</ele>
<time>2018-01-10T00:29:06.786Z</time>
</trkpt>
<trkpt lat="-26.9004954" lon="152.9233745">
<ele>45.215</ele>
<time>2018-01-10T00:29:09.725Z</time>
</trkpt>
<trkpt lat="-26.9008952" lon="152.9237346">
<ele>46.208</ele>
<time>2018-01-10T00:29:12.802Z</time>
</trkpt>
<trkpt lat="-26.9013605" lon="152.9239046">
<ele>48.493</ele>
<time>2018-01-10T00:29:15.711Z</time>
</trkpt>
<trkpt lat="-26.9019085" lon="152.9238786">
<ele>51.008</ele>
<time>2018-01-10T00:29:18.919Z</time>
</trkpt>
<trkpt lat="-26.9024241" lon="152.9238424">
<ele>52.951</ele>
<time>2018-01-10T00:29:21.884Z</time>
</trkpt>
<trkpt lat="-26.9029489" lon="152.9238566">
<ele>53.945</ele>
<time>2018-01-10T00:29:24.855Z</time>
</trkpt>
<trkpt lat="-26.9034651" lon="152.9238737">
<ele>54.176</ele>
<time>2018-01-10T00:29:27.800Z</time>
</trkpt>
<trkpt lat="-26.9039467" lon="152.9238858">
<ele>53.955</ele>
<time>2018-01-10T00:29:30.588Z</time>
</trkpt>
<trkpt lat="-26.9044611" lon="152.9239116">
<ele>53.282</ele>
<time>2018-01-10T00:29:33.587Z</time>
</trkpt>
<trkpt lat="-26.9049685" lon="152.9239007">
<ele>52.021</ele>
<time>2018-01-10T00:29:36.559Z</time>
</trkpt>
<trkpt lat="-26.9054571" lon="152.9239255">
<ele>50.224</ele>
<time>2018-01-10T00:29:39.461Z</time>
</trkpt>
<trkpt lat="-26.9059502" lon="152.9239550">
<ele>48.275</ele>
<time>2018-01-10T00:29:42.432Z</time>
</trkpt>
<trkpt lat="-26.9064488" lon="152.9239892">
<ele>46.680</ele>
<time>2018-01-10T00:29:45.439Z</time>
</trkpt>
<trkpt lat="-26.9069742" lon="152.9239936">
<ele>45.678</ele>
<time>2018-01-10T00:29:48.535Z</time>
</trkpt>
<trkpt lat="-26.9074945" lon="152.9239805">
<ele>45.207</ele>
<time>2018-01-10T00:29:51.564Z</time>
</trkpt>
<trkpt lat="-26.9079942" lon="152.9239643">
<ele>44.923</ele>
<time>2018-01-10T00:29:54.483Z</time>
</trkpt>
<trkpt lat="-26.9085014" lon="152.9239322">
<ele>44.505</ele>
<time>2018-01-10T00:29:57.487Z</time>
</trkpt>
<trkpt lat="-26.9089782" lon="152.9239531">
<ele>44.252</ele>
<time>2018-01-10T00:30:00.460Z</time>
</trkpt>
<trkpt lat="-26.9093805" lon="152.9239472">
<ele>44.780</ele>
<time>2018-01-10T00:30:03.174Z</time>
</trkpt>
<trkpt lat="-26.9097918" lon="152.9238672">
<ele>46.298</ele>
<time>2018-01-10T00:30:06.102Z</time>
</trkpt>
<trkpt lat="-26.9102347" lon="152.9237525">
<ele>48.344</ele>
<time>2018-01-10T00:30:09.205Z</time>
</trkpt>
<trkpt lat="-26.9106746" lon="152.9236285">
<ele>50.032</ele>
<time>2018-01-10T00:30:12.225Z</time>
</trkpt>
<trkpt lat="-26.9111069" lon="152.9235260">
<ele>50.845</ele>
<time>2018-01-10T00:30:15.162Z</time>
</trkpt>
<trkpt lat="-26.9115157" lon="152.9233718">
<ele>50.841</ele>
<time>2018-01-10T00:30:18.036Z</time>
</trkpt>
<trkpt lat="-26.9119699" lon="152.9232412">
<ele>50.267</ele>
<time>2018-01-10T00:30:21.155Z</time>
</trkpt>
<trkpt lat="-26.9123977" lon="152.9231226">
<ele>49.492</ele>
<time>2018-01-10T00:30:24.094Z</time>
</trkpt>
<trkpt lat="-26.9128132" lon="152.9230223">
<ele>48.795</ele>
<time>2018-01-10T00:30:26.966Z</time>
</trkpt>
<trkpt lat="-26.9132242" lon="152.9229338">
<ele>48.234</ele>
<time>2018-01-10T00:30:29.839Z</time>
</trkpt>
<trkpt lat="-26.9136316" lon="152.9228503">
<ele>47.912</ele>
<time>2018-01-10T00:30:32.698Z</time>
</trkpt>
<trkpt lat="-26.9140560" lon="152.9227710">
<ele>48.212</ele>
<time>2018-01-10T00:30:35.645Z</time>
</trkpt>
<trkpt lat="-26.9145046" lon="152.9227058">
<ele>49.180</ele>
<time>2018-01-10T00:30:38.704Z</time>
</trkpt>
<trkpt lat="-26.9149513" lon="152.9227045">
<ele>50.101</ele>
<time>2018-01-10T00:30:41.669Z</time>
</trkpt>
<trkpt lat="-26.9154107" lon="152.9227133">
<ele>50.361</ele>
<time>2018-01-10T00:30:44.668Z</time>
</trkpt>
<trkpt lat="-26.9158665" lon="152.9227233">
<ele>50.007</ele>
<time>2018-01-10T00:30:47.633Z</time>
</trkpt>
<trkpt lat="-26.9163101" lon="152.9227040">
<ele>49.136</ele>
<time>2018-01-10T00:30:50.543Z</time>
</trkpt>
<trkpt lat="-26.9167425" lon="152.9226650">
<ele>48.034</ele>
<time>2018-01-10T00:30:53.397Z</time>
</trkpt>
<trkpt lat="-26.9172584" lon="152.9226572">
<ele>47.176</ele>
<time>2018-01-10T00:30:56.491Z</time>
</trkpt>
<trkpt lat="-26.9178295" lon="152.9226521">
<ele>46.523</ele>
<time>2018-01-10T00:30:59.554Z</time>
</trkpt>
<trkpt lat="-26.9183789" lon="152.9226453">
<ele>45.633</ele>
<time>2018-01-10T00:31:02.473Z</time>
</trkpt>
<trkpt lat="-26.9189193" lon="152.9226749">
<ele>44.340</ele>
<time>2018-01-10T00:31:05.421Z</time>
</trkpt>
<trkpt lat="-26.9194698" lon="152.9225658">
<ele>42.854</ele>
<time>2018-01-10T00:31:08.444Z</time>
</trkpt>
<trkpt lat="-26.9200110" lon="152.9223685">
<ele>41.634</ele>
<time>2018-01-10T00:31:11.495Z</time>
</trkpt>
<trkpt lat="-26.9205521" lon="152.9222333">
<ele>41.094</ele>
<time>2018-01-10T00:31:14.476Z</time>
</trkpt>
<trkpt lat="-26.9211324" lon="152.9222855">
<ele>41.259</ele>
<time>2018-01-10T00:31:17.619Z</time>
</trkpt>
<trkpt lat="-26.9216859" lon="152.9224799">
<ele>41.852</ele>
<time>2018-01-10T00:31:20.719Z</time>
</trkpt>
<trkpt lat="-26.9222270" lon="152.9225570">
<ele>42.747</ele>
<time>2018-01-10T00:31:23.603Z</time>
</trkpt>
<trkpt lat="-26.9227884" lon="152.9226272">
<ele>43.874</ele>
<time>2018-01-10T00:31:26.592Z</time>
</trkpt>
<trkpt lat="-26.9233260" lon="152.9224813">
<ele>44.852</ele>
<time>2018-01-10T00:31:29.536Z</time>
</trkpt>
<trkpt lat="-26.9238565" lon="152.9222356">
<ele>45.011</ele>
<time>2018-01-10T00:31:32.599Z</time>
</trkpt>
<trkpt lat="-26.9243976" lon="152.9220661">
<ele>44.153</ele>
<time>2018-01-10T00:31:35.591Z</time>
</trkpt>
<trkpt lat="-26.9249256" lon="152.9218827">
<ele>42.943</ele>
<time>2018-01-10T00:31:38.536Z</time>
</trkpt>
<trkpt lat="-26.9254231" lon="152.9215788">
<ele>42.140</ele>
<time>2018-01-10T00:31:41.564Z</time>
</trkpt>
<trkpt lat="-26.9258418" lon="152.9211327">
<ele>41.873</ele>
<time>2018-01-10T00:31:44.645Z</time>
</trkpt>
<trkpt lat="-26.9262567" lon="152.9207407">
<ele>42.048</ele>
<time>2018-01-10T00:31:47.538Z</time>
</trkpt>
<trkpt lat="-26.9266664" lon="152.9203419">
<ele>42.503</ele>
<time>2018-01-10T00:31:50.443Z</time>
</trkpt>
<trkpt lat="-26.9270850" lon="152.9199459">
<ele>43.163</ele>
<time>2018-01-10T00:31:53.396Z</time>
</trkpt>
<trkpt lat="-26.9275058" lon="152.9196765">
<ele>44.321</ele>
<time>2018-01-10T00:31:56.163Z</time>
</trkpt>
<trkpt lat="-26.9279140" lon="152.9194612">
<ele>46.071</ele>
<time>2018-01-10T00:31:59.058Z</time>
</trkpt>
<trkpt lat="-26.9281635" lon="152.9193260">
<ele>47.914</ele>
<time>2018-01-10T00:32:01.211Z</time>
</trkpt>
<trkpt lat="-26.9282095" lon="152.9191528">
<ele>49.419</ele>
<time>2018-01-10T00:32:02.729Z</time>
</trkpt>
<trkpt lat="-26.9281360" lon="152.9189983">
<ele>50.422</ele>
<time>2018-01-10T00:32:04.630Z</time>
</trkpt>
<trkpt lat="-26.9280264" lon="152.9187921">
<ele>50.836</ele>
<time>2018-01-10T00:32:08.333Z</time>
</trkpt>
<trkpt lat="-26.9278639" lon="152.9184716">
<ele>50.718</ele>
<time>2018-01-10T00:32:12.882Z</time>
</trkpt>
<trkpt lat="-26.9277157" lon="152.9180898">
<ele>50.281</ele>
<time>2018-01-10T00:32:16.500Z</time>
</trkpt>
<trkpt lat="-26.9276245" lon="152.9176156">
<ele>49.868</ele>
<time>2018-01-10T00:32:19.834Z</time>
</trkpt>
<trkpt lat="-26.9275045" lon="152.9171154">
<ele>49.787</ele>
<time>2018-01-10T00:32:23.009Z</time>
</trkpt>
<trkpt lat="-26.9274074" lon="152.9165958">
<ele>50.325</ele>
<time>2018-01-10T00:32:26.094Z</time>
</trkpt>
<trkpt lat="-26.9273624" lon="152.9161089">
<ele>51.653</ele>
<time>2018-01-10T00:32:28.956Z</time>
</trkpt>
<trkpt lat="-26.9273538" lon="152.9155888">
<ele>53.286</ele>
<time>2018-01-10T00:32:32.023Z</time>
</trkpt>
<trkpt lat="-26.9272521" lon="152.9150773">
<ele>54.378</ele>
<time>2018-01-10T00:32:35.103Z</time>
</trkpt>
<trkpt lat="-26.9270929" lon="152.9145860">
<ele>54.507</ele>
<time>2018-01-10T00:32:38.192Z</time>
</trkpt>
<trkpt lat="-26.9270001" lon="152.9140906">
<ele>53.652</ele>
<time>2018-01-10T00:32:41.248Z</time>
</trkpt>
<trkpt lat="-26.9269958" lon="152.9135643">
<ele>51.782</ele>
<time>2018-01-10T00:32:44.326Z</time>
</trkpt>
<trkpt lat="-26.9269957" lon="152.9129116">
<ele>48.899</ele>
<time>2018-01-10T00:32:47.665Z</time>
</trkpt>
<trkpt lat="-26.9269805" lon="152.9124739">
<ele>45.300</ele>
<time>2018-01-10T00:32:49.766Z</time>
</trkpt>
<trkpt lat="-26.9269590" lon="152.9120484">
<ele>41.742</ele>
<time>2018-01-10T00:32:51.831Z</time>
</trkpt>
<trkpt lat="-26.9269072" lon="152.9116450">
<ele>39.054</ele>
<time>2018-01-10T00:32:53.838Z</time>
</trkpt>
<trkpt lat="-26.9267845" lon="152.9112577">
<ele>37.603</ele>
<time>2018-01-10T00:32:55.860Z</time>
</trkpt>
<trkpt lat="-26.9265959" lon="152.9108401">
<ele>37.263</ele>
<time>2018-01-10T00:32:58.116Z</time>
</trkpt>
<trkpt lat="-26.9263937" lon="152.9104770">
<ele>37.959</ele>
<time>2018-01-10T00:33:00.166Z</time>
</trkpt>
<trkpt lat="-26.9260919" lon="152.9099389">
<ele>39.729</ele>
<time>2018-01-10T00:33:03.231Z</time>
</trkpt>
<trkpt lat="-26.9258784" lon="152.9095938">
<ele>42.544</ele>
<time>2018-01-10T00:33:05.316Z</time>
</trkpt>
<trkpt lat="-26.9256682" lon="152.9092662">
<ele>45.999</ele>
<time>2018-01-10T00:33:07.374Z</time>
</trkpt>
<trkpt lat="-26.9254728" lon="152.9089470">
<ele>49.346</ele>
<time>2018-01-10T00:33:09.388Z</time>
</trkpt>
<trkpt lat="-26.9253036" lon="152.9086542">
<ele>52.131</ele>
<time>2018-01-10T00:33:11.252Z</time>
</trkpt>
<trkpt lat="-26.9252426" lon="152.9083130">
<ele>54.506</ele>
<time>2018-01-10T00:33:13.138Z</time>
</trkpt>
<trkpt lat="-26.9254150" lon="152.9079628">
<ele>56.736</ele>
<time>2018-01-10T00:33:15.282Z</time>
</trkpt>
<trkpt lat="-26.9255791" lon="152.9076254">
<ele>58.969</ele>
<time>2018-01-10T00:33:17.283Z</time>
</trkpt>
<trkpt lat="-26.9258055" lon="152.9070771">
<ele>61.144</ele>
<time>2018-01-10T00:33:20.351Z</time>
</trkpt>
<trkpt lat="-26.9261674" lon="152.9065956">
<ele>63.089</ele>
<time>2018-01-10T00:33:23.485Z</time>
</trkpt>
<trkpt lat="-26.9265938" lon="152.9062367">
<ele>64.865</ele>
<time>2018-01-10T00:33:26.506Z</time>
</trkpt>
<trkpt lat="-26.9269170" lon="152.9058243">
<ele>66.889</ele>
<time>2018-01-10T00:33:29.384Z</time>
</trkpt>
<trkpt lat="-26.9269823" lon="152.9052639">
<ele>69.346</ele>
<time>2018-01-10T00:33:32.405Z</time>
</trkpt>
<trkpt lat="-26.9269574" lon="152.9046855">
<ele>71.795</ele>
<time>2018-01-10T00:33:35.458Z</time>
</trkpt>
<trkpt lat="-26.9268459" lon="152.9041026">
<ele>73.572</ele>
<time>2018-01-10T00:33:38.540Z</time>
</trkpt>
<trkpt lat="-26.9269566" lon="152.9035346">
<ele>74.368</ele>
<time>2018-01-10T00:33:41.606Z</time>
</trkpt>
<trkpt lat="-26.9270930" lon="152.9030564">
<ele>74.407</ele>
<time>2018-01-10T00:33:44.838Z</time>
</trkpt>
<trkpt lat="-26.9271353" lon="152.9028151">
<ele>74.472</ele>
<time>2018-01-10T00:33:47.406Z</time>
</trkpt>
<trkpt lat="-26.9270728" lon="152.9027334">
<ele>75.394</ele>
<time>2018-01-10T00:33:49.101Z</time>
</trkpt>
<trkpt lat="-26.9269800" lon="152.9027400">
<ele>77.184</ele>
<time>2018-01-10T00:33:51.998Z</time>
</trkpt>
<trkpt lat="-26.9269800" lon="152.9027400">
<ele>78.963</ele>
<time>2018-01-10T00:33:56.998Z</time>
</trkpt>
<trkpt lat="-26.9269800" lon="152.9027400">
<ele>79.835</ele>
<time>2018-01-10T00:38:39.997Z</time>
</trkpt>
<trkpt lat="-26.9269860" lon="152.9024904">
<ele>87.158</ele>
<time>2018-01-10T00:43:54.207Z</time>
</trkpt>
<trkpt lat="-26.9269860" lon="152.9024904">
<ele>87.158</ele>
<time>2018-01-10T00:43:54.207Z</time>
</trkpt>
<trkpt lat="-26.9270058" lon="152.9026481">
<ele>87.726</ele>
<time>2018-01-10T00:46:07.859Z</time>
</trkpt>
<trkpt lat="-26.9270058" lon="152.9026481">
<ele>87.726</ele>
<time>2018-01-10T00:46:07.859Z</time>
</trkpt>
<trkpt lat="-26.9269777" lon="152.9024761">
<ele>86.664</ele>
<time>2018-01-10T00:48:40.998Z</time>
</trkpt>
<trkpt lat="-26.9269777" lon="152.9024761">
<ele>86.624</ele>
<time>2018-01-10T00:48:43.998Z</time>
</trkpt>
<trkpt lat="-26.9269358" lon="152.9025193">
<ele>86.984</ele>
<time>2018-01-10T00:49:38.024Z</time>
</trkpt>
<trkpt lat="-26.9269358" lon="152.9025193">
<ele>86.984</ele>
<time>2018-01-10T00:49:38.024Z</time>
</trkpt>
<trkpt lat="-26.9271408" lon="152.9019846">
<ele>72.598</ele>
<time>2018-01-10T00:57:50.998Z</time>
</trkpt>
<trkpt lat="-26.9271408" lon="152.9019846">
<ele>72.565</ele>
<time>2018-01-10T00:58:01.998Z</time>
</trkpt>
<trkpt lat="-26.9269319" lon="152.9026088">
<ele>86.906</ele>
<time>2018-01-10T01:01:07.130Z</time>
</trkpt>
<trkpt lat="-26.9270333" lon="152.9031394">
<ele>86.866</ele>
<time>2018-01-10T01:01:20.672Z</time>
</trkpt>
<trkpt lat="-26.9269497" lon="152.9036011">
<ele>86.851</ele>
<time>2018-01-10T01:01:32.426Z</time>
</trkpt>
<trkpt lat="-26.9268871" lon="152.9040721">
<ele>86.798</ele>
<time>2018-01-10T01:01:44.308Z</time>
</trkpt>
<trkpt lat="-26.9269159" lon="152.9045539">
<ele>86.328</ele>
<time>2018-01-10T01:01:56.356Z</time>
</trkpt>
<trkpt lat="-26.9269688" lon="152.9050493">
<ele>84.980</ele>
<time>2018-01-10T01:02:08.807Z</time>
</trkpt>
<trkpt lat="-26.9269396" lon="152.9055680">
<ele>83.082</ele>
<time>2018-01-10T01:02:21.775Z</time>
</trkpt>
<trkpt lat="-26.9267984" lon="152.9059118">
<ele>81.581</ele>
<time>2018-01-10T01:02:31.221Z</time>
</trkpt>
<trkpt lat="-26.9264255" lon="152.9063540">
<ele>80.927</ele>
<time>2018-01-10T01:02:46.407Z</time>
</trkpt>
<trkpt lat="-26.9260187" lon="152.9067650">
<ele>80.825</ele>
<time>2018-01-10T01:03:01.732Z</time>
</trkpt>
<trkpt lat="-26.9256998" lon="152.9072278">
<ele>80.559</ele>
<time>2018-01-10T01:03:16.327Z</time>
</trkpt>
<trkpt lat="-26.9254954" lon="152.9077291">
<ele>79.753</ele>
<time>2018-01-10T01:03:30.080Z</time>
</trkpt>
<trkpt lat="-26.9253779" lon="152.9082446">
<ele>78.857</ele>
<time>2018-01-10T01:03:43.357Z</time>
</trkpt>
<trkpt lat="-26.9252951" lon="152.9087320">
<ele>78.322</ele>
<time>2018-01-10T01:03:55.737Z</time>
</trkpt>
<trkpt lat="-26.9255658" lon="152.9092902">
<ele>77.988</ele>
<time>2018-01-10T01:04:11.592Z</time>
</trkpt>
<trkpt lat="-26.9259351" lon="152.9098316">
<ele>77.501</ele>
<time>2018-01-10T01:04:28.604Z</time>
</trkpt>
<trkpt lat="-26.9262739" lon="152.9103709">
<ele>76.807</ele>
<time>2018-01-10T01:04:45.064Z</time>
</trkpt>
<trkpt lat="-26.9266156" lon="152.9109272">
<ele>75.671</ele>
<time>2018-01-10T01:05:01.920Z</time>
</trkpt>
<trkpt lat="-26.9268535" lon="152.9115304">
<ele>73.330</ele>
<time>2018-01-10T01:05:18.378Z</time>
</trkpt>
<trkpt lat="-26.9269857" lon="152.9121746">
<ele>69.580</ele>
<time>2018-01-10T01:05:34.874Z</time>
</trkpt>
<trkpt lat="-26.9270107" lon="152.9128447">
<ele>64.689</ele>
<time>2018-01-10T01:05:51.609Z</time>
</trkpt>
<trkpt lat="-26.9269949" lon="152.9134886">
<ele>59.576</ele>
<time>2018-01-10T01:06:07.680Z</time>
</trkpt>
<trkpt lat="-26.9269816" lon="152.9141698">
<ele>56.279</ele>
<time>2018-01-10T01:06:24.681Z</time>
</trkpt>
<trkpt lat="-26.9270646" lon="152.9148263">
<ele>56.025</ele>
<time>2018-01-10T01:06:41.227Z</time>
</trkpt>
<trkpt lat="-26.9272083" lon="152.9154407">
<ele>57.846</ele>
<time>2018-01-10T01:06:57.074Z</time>
</trkpt>
<trkpt lat="-26.9273142" lon="152.9161070">
<ele>60.076</ele>
<time>2018-01-10T01:07:13.962Z</time>
</trkpt>
<trkpt lat="-26.9273979" lon="152.9167874">
<ele>61.636</ele>
<time>2018-01-10T01:07:31.099Z</time>
</trkpt>
<trkpt lat="-26.9274973" lon="152.9174357">
<ele>62.323</ele>
<time>2018-01-10T01:07:47.515Z</time>
</trkpt>
<trkpt lat="-26.9276402" lon="152.9180027">
<ele>62.205</ele>
<time>2018-01-10T01:08:02.218Z</time>
</trkpt>
<trkpt lat="-26.9278531" lon="152.9185954">
<ele>60.984</ele>
<time>2018-01-10T01:08:18.163Z</time>
</trkpt>
<trkpt lat="-26.9280672" lon="152.9189964">
<ele>58.039</ele>
<time>2018-01-10T01:08:29.825Z</time>
</trkpt>
<trkpt lat="-26.9281319" lon="152.9192098">
<ele>53.650</ele>
<time>2018-01-10T01:08:35.212Z</time>
</trkpt>
<trkpt lat="-26.9278488" lon="152.9194692">
<ele>49.018</ele>
<time>2018-01-10T01:08:39.781Z</time>
</trkpt>
<trkpt lat="-26.9273397" lon="152.9197949">
<ele>45.195</ele>
<time>2018-01-10T01:08:45.359Z</time>
</trkpt>
<trkpt lat="-26.9267986" lon="152.9201779">
<ele>42.784</ele>
<time>2018-01-10T01:08:50.477Z</time>
</trkpt>
<trkpt lat="-26.9263050" lon="152.9206263">
<ele>42.185</ele>
<time>2018-01-10T01:08:55.053Z</time>
</trkpt>
<trkpt lat="-26.9258386" lon="152.9210819">
<ele>43.022</ele>
<time>2018-01-10T01:08:59.174Z</time>
</trkpt>
<trkpt lat="-26.9253907" lon="152.9215206">
<ele>43.850</ele>
<time>2018-01-10T01:09:03.241Z</time>
</trkpt>
<trkpt lat="-26.9249354" lon="152.9218829">
<ele>43.227</ele>
<time>2018-01-10T01:09:07.247Z</time>
</trkpt>
<trkpt lat="-26.9244041" lon="152.9220716">
<ele>41.147</ele>
<time>2018-01-10T01:09:11.351Z</time>
</trkpt>
<trkpt lat="-26.9238402" lon="152.9221903">
<ele>38.862</ele>
<time>2018-01-10T01:09:15.173Z</time>
</trkpt>
<trkpt lat="-26.9232805" lon="152.9223340">
<ele>37.481</ele>
<time>2018-01-10T01:09:18.647Z</time>
</trkpt>
<trkpt lat="-26.9227792" lon="152.9224822">
<ele>37.178</ele>
<time>2018-01-10T01:09:21.730Z</time>
</trkpt>
<trkpt lat="-26.9222171" lon="152.9225189">
<ele>37.556</ele>
<time>2018-01-10T01:09:25.083Z</time>
</trkpt>
<trkpt lat="-26.9216181" lon="152.9224757">
<ele>38.052</ele>
<time>2018-01-10T01:09:28.610Z</time>
</trkpt>
<trkpt lat="-26.9210363" lon="152.9223346">
<ele>38.260</ele>
<time>2018-01-10T01:09:32.066Z</time>
</trkpt>
<trkpt lat="-26.9204567" lon="152.9222025">
<ele>38.127</ele>
<time>2018-01-10T01:09:35.562Z</time>
</trkpt>
<trkpt lat="-26.9199072" lon="152.9223416">
<ele>37.744</ele>
<time>2018-01-10T01:09:38.995Z</time>
</trkpt>
<trkpt lat="-26.9193230" lon="152.9225141">
<ele>37.044</ele>
<time>2018-01-10T01:09:42.740Z</time>
</trkpt>
<trkpt lat="-26.9187237" lon="152.9226350">
<ele>36.029</ele>
<time>2018-01-10T01:09:46.399Z</time>
</trkpt>
<trkpt lat="-26.9181019" lon="152.9226198">
<ele>35.071</ele>
<time>2018-01-10T01:09:50.028Z</time>
</trkpt>
<trkpt lat="-26.9174494" lon="152.9226093">
<ele>34.194</ele>
<time>2018-01-10T01:09:54.010Z</time>
</trkpt>
<trkpt lat="-26.9168086" lon="152.9226642">
<ele>32.881</ele>
<time>2018-01-10T01:09:58.212Z</time>
</trkpt>
<trkpt lat="-26.9162342" lon="152.9226746">
<ele>31.259</ele>
<time>2018-01-10T01:10:03.073Z</time>
</trkpt>
<trkpt lat="-26.9157064" lon="152.9226653">
<ele>30.110</ele>
<time>2018-01-10T01:10:08.228Z</time>
</trkpt>
<trkpt lat="-26.9151765" lon="152.9226793">
<ele>29.947</ele>
<time>2018-01-10T01:10:11.763Z</time>
</trkpt>
<trkpt lat="-26.9146527" lon="152.9226953">
<ele>31.170</ele>
<time>2018-01-10T01:10:14.736Z</time>
</trkpt>
<trkpt lat="-26.9141144" lon="152.9227417">
<ele>34.026</ele>
<time>2018-01-10T01:10:17.727Z</time>
</trkpt>
<trkpt lat="-26.9136440" lon="152.9228496">
<ele>37.838</ele>
<time>2018-01-10T01:10:20.440Z</time>
</trkpt>
<trkpt lat="-26.9131544" lon="152.9229594">
<ele>41.228</ele>
<time>2018-01-10T01:10:23.361Z</time>
</trkpt>
<trkpt lat="-26.9126572" lon="152.9230878">
<ele>43.234</ele>
<time>2018-01-10T01:10:26.451Z</time>
</trkpt>
<trkpt lat="-26.9121736" lon="152.9231973">
<ele>43.803</ele>
<time>2018-01-10T01:10:29.449Z</time>
</trkpt>
<trkpt lat="-26.9117083" lon="152.9233317">
<ele>43.398</ele>
<time>2018-01-10T01:10:32.349Z</time>
</trkpt>
<trkpt lat="-26.9112387" lon="152.9234668">
<ele>42.623</ele>
<time>2018-01-10T01:10:35.344Z</time>
</trkpt>
<trkpt lat="-26.9107662" lon="152.9235792">
<ele>42.056</ele>
<time>2018-01-10T01:10:38.464Z</time>
</trkpt>
<trkpt lat="-26.9103258" lon="152.9236815">
<ele>41.899</ele>
<time>2018-01-10T01:10:41.377Z</time>
</trkpt>
<trkpt lat="-26.9098778" lon="152.9237923">
<ele>42.022</ele>
<time>2018-01-10T01:10:44.257Z</time>
</trkpt>
<trkpt lat="-26.9094288" lon="152.9238495">
<ele>42.398</ele>
<time>2018-01-10T01:10:47.030Z</time>
</trkpt>
<trkpt lat="-26.9089177" lon="152.9238944">
<ele>42.978</ele>
<time>2018-01-10T01:10:50.138Z</time>
</trkpt>
<trkpt lat="-26.9082886" lon="152.9238946">
<ele>43.476</ele>
<time>2018-01-10T01:10:53.951Z</time>
</trkpt>
<trkpt lat="-26.9076610" lon="152.9238912">
<ele>43.564</ele>
<time>2018-01-10T01:10:57.706Z</time>
</trkpt>
<trkpt lat="-26.9070495" lon="152.9239206">
<ele>43.169</ele>
<time>2018-01-10T01:11:01.241Z</time>
</trkpt>
<trkpt lat="-26.9064589" lon="152.9238991">
<ele>42.448</ele>
<time>2018-01-10T01:11:04.531Z</time>
</trkpt>
<trkpt lat="-26.9059148" lon="152.9239077">
<ele>41.640</ele>
<time>2018-01-10T01:11:07.566Z</time>
</trkpt>
<trkpt lat="-26.9053420" lon="152.9239115">
<ele>40.919</ele>
<time>2018-01-10T01:11:10.969Z</time>
</trkpt>
<trkpt lat="-26.9047850" lon="152.9238645">
<ele>40.364</ele>
<time>2018-01-10T01:11:14.532Z</time>
</trkpt>
<trkpt lat="-26.9042635" lon="152.9238508">
<ele>39.694</ele>
<time>2018-01-10T01:11:17.952Z</time>
</trkpt>
<trkpt lat="-26.9037706" lon="152.9238481">
<ele>38.734</ele>
<time>2018-01-10T01:11:21.194Z</time>
</trkpt>
<trkpt lat="-26.9033032" lon="152.9238324">
<ele>37.891</ele>
<time>2018-01-10T01:11:24.351Z</time>
</trkpt>
<trkpt lat="-26.9028333" lon="152.9237801">
<ele>37.737</ele>
<time>2018-01-10T01:11:27.703Z</time>
</trkpt>
<trkpt lat="-26.9023589" lon="152.9238136">
<ele>38.500</ele>
<time>2018-01-10T01:11:31.038Z</time>
</trkpt>
<trkpt lat="-26.9019612" lon="152.9237863">
<ele>40.116</ele>
<time>2018-01-10T01:11:33.742Z</time>
</trkpt>
<trkpt lat="-26.9016406" lon="152.9237725">
<ele>42.137</ele>
<time>2018-01-10T01:11:36.014Z</time>
</trkpt>
<trkpt lat="-26.9012303" lon="152.9237639">
<ele>44.030</ele>
<time>2018-01-10T01:11:39.046Z</time>
</trkpt>
<trkpt lat="-26.9008377" lon="152.9236720">
<ele>45.594</ele>
<time>2018-01-10T01:11:42.070Z</time>
</trkpt>
<trkpt lat="-26.9004622" lon="152.9234038">
<ele>46.774</ele>
<time>2018-01-10T01:11:45.405Z</time>
</trkpt>
<trkpt lat="-26.9001215" lon="152.9230864">
<ele>47.379</ele>
<time>2018-01-10T01:11:48.729Z</time>
</trkpt>
<trkpt lat="-26.8997780" lon="152.9227899">
<ele>47.331</ele>
<time>2018-01-10T01:11:52.018Z</time>
</trkpt>
<trkpt lat="-26.8993959" lon="152.9225682">
<ele>46.894</ele>
<time>2018-01-10T01:11:55.140Z</time>
</trkpt>
<trkpt lat="-26.8989692" lon="152.9223969">
<ele>46.527</ele>
<time>2018-01-10T01:11:58.002Z</time>
</trkpt>
<trkpt lat="-26.8985304" lon="152.9222023">
<ele>46.786</ele>
<time>2018-01-10T01:12:00.693Z</time>
</trkpt>
<trkpt lat="-26.8981431" lon="152.9219881">
<ele>48.273</ele>
<time>2018-01-10T01:12:03.137Z</time>
</trkpt>
<trkpt lat="-26.8978797" lon="152.9216244">
<ele>51.255</ele>
<time>2018-01-10T01:12:05.517Z</time>
</trkpt>
<trkpt lat="-26.8976319" lon="152.9211776">
<ele>54.827</ele>
<time>2018-01-10T01:12:08.268Z</time>
</trkpt>
<trkpt lat="-26.8973542" lon="152.9207555">
<ele>57.512</ele>
<time>2018-01-10T01:12:11.141Z</time>
</trkpt>
<trkpt lat="-26.8971743" lon="152.9202933">
<ele>58.936</ele>
<time>2018-01-10T01:12:13.991Z</time>
</trkpt>
<trkpt lat="-26.8969615" lon="152.9198270">
<ele>59.678</ele>
<time>2018-01-10T01:12:17.008Z</time>
</trkpt>
<trkpt lat="-26.8966279" lon="152.9195152">
<ele>60.186</ele>
<time>2018-01-10T01:12:19.925Z</time>
</trkpt>
<trkpt lat="-26.8961891" lon="152.9192911">
<ele>60.732</ele>
<time>2018-01-10T01:12:23.344Z</time>
</trkpt>
<trkpt lat="-26.8957652" lon="152.9190278">
<ele>61.403</ele>
<time>2018-01-10T01:12:26.950Z</time>
</trkpt>
<trkpt lat="-26.8953126" lon="152.9187393">
<ele>62.088</ele>
<time>2018-01-10T01:12:30.962Z</time>
</trkpt>
<trkpt lat="-26.8948592" lon="152.9183285">
<ele>62.720</ele>
<time>2018-01-10T01:12:36.026Z</time>
</trkpt>
<trkpt lat="-26.8943579" lon="152.9178743">
<ele>63.206</ele>
<time>2018-01-10T01:12:42.117Z</time>
</trkpt>
<trkpt lat="-26.8938684" lon="152.9174254">
<ele>63.382</ele>
<time>2018-01-10T01:12:47.403Z</time>
</trkpt>
<trkpt lat="-26.8933738" lon="152.9170306">
<ele>62.949</ele>
<time>2018-01-10T01:12:52.317Z</time>
</trkpt>
<trkpt lat="-26.8928481" lon="152.9166678">
<ele>61.252</ele>
<time>2018-01-10T01:12:57.377Z</time>
</trkpt>
<trkpt lat="-26.8923266" lon="152.9164266">
<ele>57.845</ele>
<time>2018-01-10T01:13:01.735Z</time>
</trkpt>
<trkpt lat="-26.8918209" lon="152.9161893">
<ele>53.502</ele>
<time>2018-01-10T01:13:06.121Z</time>
</trkpt>
<trkpt lat="-26.8913183" lon="152.9158905">
<ele>49.869</ele>
<time>2018-01-10T01:13:10.717Z</time>
</trkpt>
<trkpt lat="-26.8907717" lon="152.9156328">
<ele>47.913</ele>
<time>2018-01-10T01:13:15.390Z</time>
</trkpt>
<trkpt lat="-26.8902475" lon="152.9154656">
<ele>47.307</ele>
<time>2018-01-10T01:13:19.663Z</time>
</trkpt>
<trkpt lat="-26.8898192" lon="152.9152257">
<ele>47.055</ele>
<time>2018-01-10T01:13:23.456Z</time>
</trkpt>
<trkpt lat="-26.8893616" lon="152.9150012">
<ele>46.340</ele>
<time>2018-01-10T01:13:27.400Z</time>
</trkpt>
<trkpt lat="-26.8888609" lon="152.9149455">
<ele>44.862</ele>
<time>2018-01-10T01:13:31.154Z</time>
</trkpt>
<trkpt lat="-26.8883794" lon="152.9150774">
<ele>43.085</ele>
<time>2018-01-10T01:13:34.427Z</time>
</trkpt>
<trkpt lat="-26.8879940" lon="152.9153450">
<ele>42.016</ele>
<time>2018-01-10T01:13:37.079Z</time>
</trkpt>
<trkpt lat="-26.8875774" lon="152.9156304">
<ele>42.336</ele>
<time>2018-01-10T01:13:39.741Z</time>
</trkpt>
<trkpt lat="-26.8870973" lon="152.9158944">
<ele>43.879</ele>
<time>2018-01-10T01:13:42.721Z</time>
</trkpt>
<trkpt lat="-26.8865683" lon="152.9160728">
<ele>45.856</ele>
<time>2018-01-10T01:13:45.882Z</time>
</trkpt>
<trkpt lat="-26.8860054" lon="152.9162202">
<ele>47.352</ele>
<time>2018-01-10T01:13:49.300Z</time>
</trkpt>
<trkpt lat="-26.8855007" lon="152.9163508">
<ele>47.897</ele>
<time>2018-01-10T01:13:52.551Z</time>
</trkpt>
<trkpt lat="-26.8849975" lon="152.9164942">
<ele>47.632</ele>
<time>2018-01-10T01:13:55.868Z</time>
</trkpt>
<trkpt lat="-26.8845142" lon="152.9166303">
<ele>47.071</ele>
<time>2018-01-10T01:13:59.010Z</time>
</trkpt>
<trkpt lat="-26.8840696" lon="152.9167592">
<ele>46.670</ele>
<time>2018-01-10T01:14:02.017Z</time>
</trkpt>
<trkpt lat="-26.8835685" lon="152.9167873">
<ele>46.508</ele>
<time>2018-01-10T01:14:05.503Z</time>
</trkpt>
<trkpt lat="-26.8830622" lon="152.9168261">
<ele>46.141</ele>
<time>2018-01-10T01:14:09.043Z</time>
</trkpt>
<trkpt lat="-26.8825962" lon="152.9168277">
<ele>44.996</ele>
<time>2018-01-10T01:14:12.371Z</time>
</trkpt>
<trkpt lat="-26.8821561" lon="152.9168470">
<ele>43.135</ele>
<time>2018-01-10T01:14:15.694Z</time>
</trkpt>
<trkpt lat="-26.8817049" lon="152.9169209">
<ele>41.160</ele>
<time>2018-01-10T01:14:19.196Z</time>
</trkpt>
<trkpt lat="-26.8812478" lon="152.9169852">
<ele>39.532</ele>
<time>2018-01-10T01:14:22.454Z</time>
</trkpt>
<trkpt lat="-26.8808313" lon="152.9171820">
<ele>38.488</ele>
<time>2018-01-10T01:14:25.358Z</time>
</trkpt>
<trkpt lat="-26.8804626" lon="152.9173816">
<ele>38.232</ele>
<time>2018-01-10T01:14:27.869Z</time>
</trkpt>
<trkpt lat="-26.8801147" lon="152.9175496">
<ele>38.868</ele>
<time>2018-01-10T01:14:30.257Z</time>
</trkpt>
<trkpt lat="-26.8797290" lon="152.9177675">
<ele>40.195</ele>
<time>2018-01-10T01:14:33.120Z</time>
</trkpt>
<trkpt lat="-26.8793185" lon="152.9180157">
<ele>41.707</ele>
<time>2018-01-10T01:14:36.336Z</time>
</trkpt>
<trkpt lat="-26.8788611" lon="152.9181797">
<ele>42.856</ele>
<time>2018-01-10T01:14:39.774Z</time>
</trkpt>
<trkpt lat="-26.8783772" lon="152.9182982">
<ele>43.107</ele>
<time>2018-01-10T01:14:43.395Z</time>
</trkpt>
<trkpt lat="-26.8779124" lon="152.9183957">
<ele>42.423</ele>
<time>2018-01-10T01:14:46.776Z</time>
</trkpt>
<trkpt lat="-26.8773962" lon="152.9185192">
<ele>41.507</ele>
<time>2018-01-10T01:14:50.722Z</time>
</trkpt>
<trkpt lat="-26.8768692" lon="152.9186248">
<ele>41.133</ele>
<time>2018-01-10T01:14:55.041Z</time>
</trkpt>
<trkpt lat="-26.8764219" lon="152.9186556">
<ele>41.529</ele>
<time>2018-01-10T01:14:58.578Z</time>
</trkpt>
<trkpt lat="-26.8759534" lon="152.9187780">
<ele>42.504</ele>
<time>2018-01-10T01:15:02.415Z</time>
</trkpt>
<trkpt lat="-26.8754670" lon="152.9189380">
<ele>43.590</ele>
<time>2018-01-10T01:15:06.789Z</time>
</trkpt>
<trkpt lat="-26.8750130" lon="152.9192288">
<ele>44.392</ele>
<time>2018-01-10T01:15:11.334Z</time>
</trkpt>
<trkpt lat="-26.8746121" lon="152.9196315">
<ele>44.827</ele>
<time>2018-01-10T01:15:15.542Z</time>
</trkpt>
<trkpt lat="-26.8742426" lon="152.9200544">
<ele>45.017</ele>
<time>2018-01-10T01:15:19.428Z</time>
</trkpt>
<trkpt lat="-26.8738828" lon="152.9204929">
<ele>44.789</ele>
<time>2018-01-10T01:15:23.278Z</time>
</trkpt>
<trkpt lat="-26.8735261" lon="152.9209338">
<ele>43.912</ele>
<time>2018-01-10T01:15:26.841Z</time>
</trkpt>
<trkpt lat="-26.8731681" lon="152.9213929">
<ele>42.610</ele>
<time>2018-01-10T01:15:30.452Z</time>
</trkpt>
<trkpt lat="-26.8729407" lon="152.9216982">
<ele>41.113</ele>
<time>2018-01-10T01:15:33.021Z</time>
</trkpt>
<trkpt lat="-26.8726221" lon="152.9221594">
<ele>39.431</ele>
<time>2018-01-10T01:15:36.880Z</time>
</trkpt>
<trkpt lat="-26.8723008" lon="152.9227114">
<ele>37.805</ele>
<time>2018-01-10T01:15:41.017Z</time>
</trkpt>
<trkpt lat="-26.8719729" lon="152.9232338">
<ele>36.632</ele>
<time>2018-01-10T01:15:44.800Z</time>
</trkpt>
<trkpt lat="-26.8717793" lon="152.9235115">
<ele>36.430</ele>
<time>2018-01-10T01:15:46.864Z</time>
</trkpt>
<trkpt lat="-26.8715637" lon="152.9237455">
<ele>37.442</ele>
<time>2018-01-10T01:15:48.838Z</time>
</trkpt>
<trkpt lat="-26.8712622" lon="152.9238947">
<ele>39.178</ele>
<time>2018-01-10T01:15:51.026Z</time>
</trkpt>
<trkpt lat="-26.8709026" lon="152.9238169">
<ele>41.138</ele>
<time>2018-01-10T01:15:53.432Z</time>
</trkpt>
<trkpt lat="-26.8704905" lon="152.9236801">
<ele>42.965</ele>
<time>2018-01-10T01:15:56.209Z</time>
</trkpt>
<trkpt lat="-26.8700709" lon="152.9235832">
<ele>43.992</ele>
<time>2018-01-10T01:15:58.970Z</time>
</trkpt>
<trkpt lat="-26.8696703" lon="152.9236721">
<ele>43.835</ele>
<time>2018-01-10T01:16:01.572Z</time>
</trkpt>
<trkpt lat="-26.8692868" lon="152.9237301">
<ele>42.785</ele>
<time>2018-01-10T01:16:03.967Z</time>
</trkpt>
<trkpt lat="-26.8689360" lon="152.9237718">
<ele>41.475</ele>
<time>2018-01-10T01:16:06.099Z</time>
</trkpt>
<trkpt lat="-26.8686171" lon="152.9238160">
<ele>40.507</ele>
<time>2018-01-10T01:16:08.193Z</time>
</trkpt>
<trkpt lat="-26.8683187" lon="152.9238925">
<ele>40.223</ele>
<time>2018-01-10T01:16:10.465Z</time>
</trkpt>
<trkpt lat="-26.8680159" lon="152.9239450">
<ele>40.529</ele>
<time>2018-01-10T01:16:12.796Z</time>
</trkpt>
<trkpt lat="-26.8676521" lon="152.9239936">
<ele>40.868</ele>
<time>2018-01-10T01:16:15.284Z</time>
</trkpt>
<trkpt lat="-26.8672944" lon="152.9240844">
<ele>40.847</ele>
<time>2018-01-10T01:16:17.494Z</time>
</trkpt>
<trkpt lat="-26.8669714" lon="152.9241532">
<ele>40.770</ele>
<time>2018-01-10T01:16:19.400Z</time>
</trkpt>
<trkpt lat="-26.8664337" lon="152.9241467">
<ele>40.970</ele>
<time>2018-01-10T01:16:22.641Z</time>
</trkpt>
<trkpt lat="-26.8658666" lon="152.9242756">
<ele>40.999</ele>
<time>2018-01-10T01:16:26.473Z</time>
</trkpt>
<trkpt lat="-26.8653355" lon="152.9245315">
<ele>40.299</ele>
<time>2018-01-10T01:16:30.579Z</time>
</trkpt>
<trkpt lat="-26.8648987" lon="152.9247893">
<ele>39.215</ele>
<time>2018-01-10T01:16:34.048Z</time>
</trkpt>
<trkpt lat="-26.8644869" lon="152.9251412">
<ele>38.651</ele>
<time>2018-01-10T01:16:37.550Z</time>
</trkpt>
<trkpt lat="-26.8641098" lon="152.9256531">
<ele>38.959</ele>
<time>2018-01-10T01:16:41.419Z</time>
</trkpt>
<trkpt lat="-26.8637727" lon="152.9261695">
<ele>39.661</ele>
<time>2018-01-10T01:16:44.997Z</time>
</trkpt>
<trkpt lat="-26.8634793" lon="152.9266681">
<ele>40.166</ele>
<time>2018-01-10T01:16:48.525Z</time>
</trkpt>
<trkpt lat="-26.8631440" lon="152.9271259">
<ele>40.353</ele>
<time>2018-01-10T01:16:52.077Z</time>
</trkpt>
<trkpt lat="-26.8628268" lon="152.9275674">
<ele>40.418</ele>
<time>2018-01-10T01:16:55.343Z</time>
</trkpt>
<trkpt lat="-26.8624763" lon="152.9279898">
<ele>40.530</ele>
<time>2018-01-10T01:16:58.644Z</time>
</trkpt>
<trkpt lat="-26.8621696" lon="152.9283942">
<ele>40.583</ele>
<time>2018-01-10T01:17:01.758Z</time>
</trkpt>
<trkpt lat="-26.8619118" lon="152.9287884">
<ele>40.411</ele>
<time>2018-01-10T01:17:04.701Z</time>
</trkpt>
<trkpt lat="-26.8616124" lon="152.9291928">
<ele>40.066</ele>
<time>2018-01-10T01:17:07.910Z</time>
</trkpt>
<trkpt lat="-26.8613132" lon="152.9296020">
<ele>39.677</ele>
<time>2018-01-10T01:17:11.211Z</time>
</trkpt>
<trkpt lat="-26.8609596" lon="152.9300304">
<ele>39.163</ele>
<time>2018-01-10T01:17:15.057Z</time>
</trkpt>
<trkpt lat="-26.8604659" lon="152.9303412">
<ele>38.488</ele>
<time>2018-01-10T01:17:19.376Z</time>
</trkpt>
<trkpt lat="-26.8599347" lon="152.9305234">
<ele>38.239</ele>
<time>2018-01-10T01:17:23.411Z</time>
</trkpt>
<trkpt lat="-26.8594792" lon="152.9308342">
<ele>38.816</ele>
<time>2018-01-10T01:17:27.027Z</time>
</trkpt>
<trkpt lat="-26.8591843" lon="152.9313355">
<ele>39.388</ele>
<time>2018-01-10T01:17:30.523Z</time>
</trkpt>
<trkpt lat="-26.8589802" lon="152.9319497">
<ele>38.952</ele>
<time>2018-01-10T01:17:34.340Z</time>
</trkpt>
<trkpt lat="-26.8587793" lon="152.9325299">
<ele>37.536</ele>
<time>2018-01-10T01:17:37.847Z</time>
</trkpt>
<trkpt lat="-26.8585564" lon="152.9330431">
<ele>35.526</ele>
<time>2018-01-10T01:17:40.957Z</time>
</trkpt>
<trkpt lat="-26.8583545" lon="152.9335976">
<ele>33.001</ele>
<time>2018-01-10T01:17:44.319Z</time>
</trkpt>
<trkpt lat="-26.8581143" lon="152.9341240">
<ele>30.126</ele>
<time>2018-01-10T01:17:47.826Z</time>
</trkpt>
<trkpt lat="-26.8579935" lon="152.9346536">
<ele>27.531</ele>
<time>2018-01-10T01:17:51.109Z</time>
</trkpt>
<trkpt lat="-26.8578943" lon="152.9351425">
<ele>25.698</ele>
<time>2018-01-10T01:17:54.217Z</time>
</trkpt>
<trkpt lat="-26.8577556" lon="152.9356296">
<ele>24.578</ele>
<time>2018-01-10T01:17:57.619Z</time>
</trkpt>
<trkpt lat="-26.8576179" lon="152.9361370">
<ele>23.958</ele>
<time>2018-01-10T01:18:01.271Z</time>
</trkpt>
<trkpt lat="-26.8575605" lon="152.9366492">
<ele>23.529</ele>
<time>2018-01-10T01:18:04.835Z</time>
</trkpt>
<trkpt lat="-26.8575625" lon="152.9371173">
<ele>23.020</ele>
<time>2018-01-10T01:18:08.166Z</time>
</trkpt>
<trkpt lat="-26.8575565" lon="152.9375039">
<ele>22.439</ele>
<time>2018-01-10T01:18:11.128Z</time>
</trkpt>
<trkpt lat="-26.8575224" lon="152.9378498">
<ele>21.668</ele>
<time>2018-01-10T01:18:14.178Z</time>
</trkpt>
<trkpt lat="-26.8574178" lon="152.9381300">
<ele>20.316</ele>
<time>2018-01-10T01:18:17.332Z</time>
</trkpt>
<trkpt lat="-26.8572536" lon="152.9383880">
<ele>18.376</ele>
<time>2018-01-10T01:18:20.991Z</time>
</trkpt>
<trkpt lat="-26.8570742" lon="152.9385420">
<ele>16.543</ele>
<time>2018-01-10T01:18:24.111Z</time>
</trkpt>
<trkpt lat="-26.8569205" lon="152.9386573">
<ele>15.537</ele>
<time>2018-01-10T01:18:27.232Z</time>
</trkpt>
<trkpt lat="-26.8568018" lon="152.9387640">
<ele>15.486</ele>
<time>2018-01-10T01:18:30.411Z</time>
</trkpt>
<trkpt lat="-26.8567013" lon="152.9388120">
<ele>16.227</ele>
<time>2018-01-10T01:18:32.997Z</time>
</trkpt>
<trkpt lat="-26.8567013" lon="152.9388120">
<ele>17.317</ele>
<time>2018-01-10T01:18:36.997Z</time>
</trkpt>
<trkpt lat="-26.8567013" lon="152.9388120">
<ele>17.995</ele>
<time>2018-01-10T01:18:37.097Z</time>
</trkpt>
<trkpt lat="-26.8565390" lon="152.9389467">
<ele>17.949</ele>
<time>2018-01-10T01:18:56.411Z</time>
</trkpt>
<trkpt lat="-26.8563702" lon="152.9389493">
<ele>20.527</ele>
<time>2018-01-10T01:18:58.542Z</time>
</trkpt>
<trkpt lat="-26.8560752" lon="152.9385775">
<ele>27.924</ele>
<time>2018-01-10T01:19:02.517Z</time>
</trkpt>
<trkpt lat="-26.8557995" lon="152.9381318">
<ele>35.325</ele>
<time>2018-01-10T01:19:06.162Z</time>
</trkpt>
<trkpt lat="-26.8555299" lon="152.9376166">
<ele>37.788</ele>
<time>2018-01-10T01:19:09.667Z</time>
</trkpt>
<trkpt lat="-26.8552925" lon="152.9371323">
<ele>36.576</ele>
<time>2018-01-10T01:19:12.643Z</time>
</trkpt>
<trkpt lat="-26.8550836" lon="152.9366412">
<ele>34.874</ele>
<time>2018-01-10T01:19:15.431Z</time>
</trkpt>
<trkpt lat="-26.8549458" lon="152.9360764">
<ele>34.362</ele>
<time>2018-01-10T01:19:18.288Z</time>
</trkpt>
<trkpt lat="-26.8548472" lon="152.9354893">
<ele>34.718</ele>
<time>2018-01-10T01:19:21.073Z</time>
</trkpt>
<trkpt lat="-26.8546949" lon="152.9348384">
<ele>35.148</ele>
<time>2018-01-10T01:19:24.216Z</time>
</trkpt>
<trkpt lat="-26.8545585" lon="152.9342263">
<ele>35.369</ele>
<time>2018-01-10T01:19:27.288Z</time>
</trkpt>
<trkpt lat="-26.8544399" lon="152.9336718">
<ele>35.454</ele>
<time>2018-01-10T01:19:30.115Z</time>
</trkpt>
<trkpt lat="-26.8543049" lon="152.9331100">
<ele>35.512</ele>
<time>2018-01-10T01:19:32.988Z</time>
</trkpt>
<trkpt lat="-26.8541886" lon="152.9325308">
<ele>35.525</ele>
<time>2018-01-10T01:19:35.874Z</time>
</trkpt>
<trkpt lat="-26.8540601" lon="152.9319305">
<ele>35.435</ele>
<time>2018-01-10T01:19:38.805Z</time>
</trkpt>
<trkpt lat="-26.8540003" lon="152.9312858">
<ele>35.213</ele>
<time>2018-01-10T01:19:41.797Z</time>
</trkpt>
<trkpt lat="-26.8540366" lon="152.9306529">
<ele>34.689</ele>
<time>2018-01-10T01:19:44.688Z</time>
</trkpt>
<trkpt lat="-26.8541041" lon="152.9300159">
<ele>33.736</ele>
<time>2018-01-10T01:19:47.700Z</time>
</trkpt>
<trkpt lat="-26.8541994" lon="152.9294036">
<ele>32.637</ele>
<time>2018-01-10T01:19:50.700Z</time>
</trkpt>
<trkpt lat="-26.8542116" lon="152.9288083">
<ele>31.817</ele>
<time>2018-01-10T01:19:53.581Z</time>
</trkpt>
<trkpt lat="-26.8542074" lon="152.9282520">
<ele>31.337</ele>
<time>2018-01-10T01:19:56.210Z</time>
</trkpt>
<trkpt lat="-26.8541363" lon="152.9276102">
<ele>30.928</ele>
<time>2018-01-10T01:19:59.169Z</time>
</trkpt>
<trkpt lat="-26.8540316" lon="152.9269396">
<ele>30.202</ele>
<time>2018-01-10T01:20:02.150Z</time>
</trkpt>
<trkpt lat="-26.8538982" lon="152.9262391">
<ele>29.191</ele>
<time>2018-01-10T01:20:05.190Z</time>
</trkpt>
<trkpt lat="-26.8537949" lon="152.9255791">
<ele>28.421</ele>
<time>2018-01-10T01:20:08.063Z</time>
</trkpt>
<trkpt lat="-26.8536618" lon="152.9249370">
<ele>28.339</ele>
<time>2018-01-10T01:20:10.974Z</time>
</trkpt>
<trkpt lat="-26.8535258" lon="152.9243216">
<ele>29.168</ele>
<time>2018-01-10T01:20:13.839Z</time>
</trkpt>
<trkpt lat="-26.8533771" lon="152.9237173">
<ele>30.884</ele>
<time>2018-01-10T01:20:16.717Z</time>
</trkpt>
<trkpt lat="-26.8531750" lon="152.9231565">
<ele>32.954</ele>
<time>2018-01-10T01:20:19.527Z</time>
</trkpt>
<trkpt lat="-26.8528934" lon="152.9226056">
<ele>34.850</ele>
<time>2018-01-10T01:20:22.487Z</time>
</trkpt>
<trkpt lat="-26.8525556" lon="152.9221080">
<ele>36.284</ele>
<time>2018-01-10T01:20:25.398Z</time>
</trkpt>
<trkpt lat="-26.8522005" lon="152.9216425">
<ele>37.036</ele>
<time>2018-01-10T01:20:28.245Z</time>
</trkpt>
<trkpt lat="-26.8518289" lon="152.9211438">
<ele>36.903</ele>
<time>2018-01-10T01:20:31.248Z</time>
</trkpt>
<trkpt lat="-26.8514450" lon="152.9206798">
<ele>36.065</ele>
<time>2018-01-10T01:20:34.161Z</time>
</trkpt>
<trkpt lat="-26.8508750" lon="152.9204308">
<ele>35.269</ele>
<time>2018-01-10T01:20:37.320Z</time>
</trkpt>
<trkpt lat="-26.8502726" lon="152.9203425">
<ele>35.292</ele>
<time>2018-01-10T01:20:40.474Z</time>
</trkpt>
<trkpt lat="-26.8497193" lon="152.9202573">
<ele>36.183</ele>
<time>2018-01-10T01:20:43.375Z</time>
</trkpt>
<trkpt lat="-26.8491475" lon="152.9201525">
<ele>37.344</ele>
<time>2018-01-10T01:20:46.337Z</time>
</trkpt>
<trkpt lat="-26.8485894" lon="152.9200104">
<ele>38.266</ele>
<time>2018-01-10T01:20:49.216Z</time>
</trkpt>
<trkpt lat="-26.8480542" lon="152.9197674">
<ele>39.197</ele>
<time>2018-01-10T01:20:52.130Z</time>
</trkpt>
<trkpt lat="-26.8475498" lon="152.9194503">
<ele>40.345</ele>
<time>2018-01-10T01:20:55.055Z</time>
</trkpt>
<trkpt lat="-26.8470614" lon="152.9191039">
<ele>41.390</ele>
<time>2018-01-10T01:20:57.958Z</time>
</trkpt>
<trkpt lat="-26.8465605" lon="152.9187611">
<ele>42.187</ele>
<time>2018-01-10T01:21:00.914Z</time>
</trkpt>
<trkpt lat="-26.8460953" lon="152.9183889">
<ele>43.120</ele>
<time>2018-01-10T01:21:03.834Z</time>
</trkpt>
<trkpt lat="-26.8458187" lon="152.9181026">
<ele>44.295</ele>
<time>2018-01-10T01:21:05.762Z</time>
</trkpt>
<trkpt lat="-26.8454861" lon="152.9175415">
<ele>45.250</ele>
<time>2018-01-10T01:21:08.761Z</time>
</trkpt>
<trkpt lat="-26.8452744" lon="152.9168448">
<ele>45.541</ele>
<time>2018-01-10T01:21:11.904Z</time>
</trkpt>
<trkpt lat="-26.8450836" lon="152.9162137">
<ele>45.287</ele>
<time>2018-01-10T01:21:14.736Z</time>
</trkpt>
<trkpt lat="-26.8448732" lon="152.9155789">
<ele>45.112</ele>
<time>2018-01-10T01:21:17.661Z</time>
</trkpt>
<trkpt lat="-26.8445851" lon="152.9150153">
<ele>45.600</ele>
<time>2018-01-10T01:21:20.547Z</time>
</trkpt>
<trkpt lat="-26.8441461" lon="152.9145781">
<ele>46.706</ele>
<time>2018-01-10T01:21:23.551Z</time>
</trkpt>
<trkpt lat="-26.8436549" lon="152.9142972">
<ele>48.004</ele>
<time>2018-01-10T01:21:26.426Z</time>
</trkpt>
<trkpt lat="-26.8432113" lon="152.9138980">
<ele>49.213</ele>
<time>2018-01-10T01:21:29.432Z</time>
</trkpt>
<trkpt lat="-26.8429433" lon="152.9133571">
<ele>50.472</ele>
<time>2018-01-10T01:21:32.386Z</time>
</trkpt>
<trkpt lat="-26.8427852" lon="152.9127882">
<ele>52.100</ele>
<time>2018-01-10T01:21:35.335Z</time>
</trkpt>
<trkpt lat="-26.8427193" lon="152.9122211">
<ele>54.114</ele>
<time>2018-01-10T01:21:38.260Z</time>
</trkpt>
<trkpt lat="-26.8426868" lon="152.9116434">
<ele>56.349</ele>
<time>2018-01-10T01:21:41.245Z</time>
</trkpt>
<trkpt lat="-26.8425377" lon="152.9110881">
<ele>58.552</ele>
<time>2018-01-10T01:21:44.219Z</time>
</trkpt>
<trkpt lat="-26.8422959" lon="152.9105755">
<ele>60.225</ele>
<time>2018-01-10T01:21:47.177Z</time>
</trkpt>
<trkpt lat="-26.8419743" lon="152.9101101">
<ele>61.022</ele>
<time>2018-01-10T01:21:50.136Z</time>
</trkpt>
<trkpt lat="-26.8415786" lon="152.9096741">
<ele>61.204</ele>
<time>2018-01-10T01:21:53.181Z</time>
</trkpt>
<trkpt lat="-26.8413354" lon="152.9092088">
<ele>61.283</ele>
<time>2018-01-10T01:21:55.892Z</time>
</trkpt>
<trkpt lat="-26.8411955" lon="152.9086970">
<ele>61.464</ele>
<time>2018-01-10T01:21:58.766Z</time>
</trkpt>
<trkpt lat="-26.8410780" lon="152.9081703">
<ele>61.615</ele>
<time>2018-01-10T01:22:01.747Z</time>
</trkpt>
<trkpt lat="-26.8411213" lon="152.9076425">
<ele>61.630</ele>
<time>2018-01-10T01:22:04.674Z</time>
</trkpt>
<trkpt lat="-26.8413717" lon="152.9071480">
<ele>61.633</ele>
<time>2018-01-10T01:22:07.755Z</time>
</trkpt>
<trkpt lat="-26.8417447" lon="152.9068099">
<ele>61.915</ele>
<time>2018-01-10T01:22:10.696Z</time>
</trkpt>
<trkpt lat="-26.8419930" lon="152.9064094">
<ele>62.965</ele>
<time>2018-01-10T01:22:13.504Z</time>
</trkpt>
<trkpt lat="-26.8421139" lon="152.9059558">
<ele>65.064</ele>
<time>2018-01-10T01:22:16.343Z</time>
</trkpt>
<trkpt lat="-26.8423284" lon="152.9055325">
<ele>67.585</ele>
<time>2018-01-10T01:22:19.286Z</time>
</trkpt>
<trkpt lat="-26.8424149" lon="152.9050698">
<ele>69.923</ele>
<time>2018-01-10T01:22:22.165Z</time>
</trkpt>
<trkpt lat="-26.8425180" lon="152.9047009">
<ele>72.550</ele>
<time>2018-01-10T01:22:24.715Z</time>
</trkpt>
<trkpt lat="-26.8428650" lon="152.9045225">
<ele>76.035</ele>
<time>2018-01-10T01:22:27.767Z</time>
</trkpt>
<trkpt lat="-26.8429685" lon="152.9042245">
<ele>79.912</ele>
<time>2018-01-10T01:22:30.171Z</time>
</trkpt>
<trkpt lat="-26.8429371" lon="152.9038437">
<ele>83.064</ele>
<time>2018-01-10T01:22:33.151Z</time>
</trkpt>
<trkpt lat="-26.8429687" lon="152.9035046">
<ele>84.860</ele>
<time>2018-01-10T01:22:35.857Z</time>
</trkpt>
<trkpt lat="-26.8431429" lon="152.9031350">
<ele>85.994</ele>
<time>2018-01-10T01:22:39.192Z</time>
</trkpt>
<trkpt lat="-26.8434069" lon="152.9027836">
<ele>88.076</ele>
<time>2018-01-10T01:22:42.690Z</time>
</trkpt>
<trkpt lat="-26.8435677" lon="152.9023949">
<ele>91.926</ele>
<time>2018-01-10T01:22:45.757Z</time>
</trkpt>
<trkpt lat="-26.8434919" lon="152.9020399">
<ele>96.638</ele>
<time>2018-01-10T01:22:48.428Z</time>
</trkpt>
<trkpt lat="-26.8434135" lon="152.9016731">
<ele>100.502</ele>
<time>2018-01-10T01:22:51.357Z</time>
</trkpt>
<trkpt lat="-26.8435703" lon="152.9012814">
<ele>102.538</ele>
<time>2018-01-10T01:22:54.843Z</time>
</trkpt>
<trkpt lat="-26.8435444" lon="152.9009351">
<ele>102.999</ele>
<time>2018-01-10T01:22:57.709Z</time>
</trkpt>
<trkpt lat="-26.8433893" lon="152.9006533">
<ele>102.682</ele>
<time>2018-01-10T01:23:00.558Z</time>
</trkpt>
<trkpt lat="-26.8431794" lon="152.9003694">
<ele>101.869</ele>
<time>2018-01-10T01:23:03.891Z</time>
</trkpt>
<trkpt lat="-26.8428603" lon="152.9003116">
<ele>100.727</ele>
<time>2018-01-10T01:23:07.130Z</time>
</trkpt>
<trkpt lat="-26.8424821" lon="152.9004066">
<ele>100.478</ele>
<time>2018-01-10T01:23:10.604Z</time>
</trkpt>
<trkpt lat="-26.8421016" lon="152.9003317">
<ele>102.444</ele>
<time>2018-01-10T01:23:13.743Z</time>
</trkpt>
<trkpt lat="-26.8418152" lon="152.9000356">
<ele>106.132</ele>
<time>2018-01-10T01:23:16.910Z</time>
</trkpt>
<trkpt lat="-26.8418055" lon="152.8997400">
<ele>110.149</ele>
<time>2018-01-10T01:23:19.135Z</time>
</trkpt>
<trkpt lat="-26.8418989" lon="152.8994991">
<ele>113.815</ele>
<time>2018-01-10T01:23:21.209Z</time>
</trkpt>
<trkpt lat="-26.8417959" lon="152.8992731">
<ele>117.244</ele>
<time>2018-01-10T01:23:23.218Z</time>
</trkpt>
<trkpt lat="-26.8417885" lon="152.8989433">
<ele>120.605</ele>
<time>2018-01-10T01:23:25.768Z</time>
</trkpt>
<trkpt lat="-26.8419092" lon="152.8987075">
<ele>123.758</ele>
<time>2018-01-10T01:23:27.890Z</time>
</trkpt>
<trkpt lat="-26.8419431" lon="152.8985153">
<ele>126.585</ele>
<time>2018-01-10T01:23:29.549Z</time>
</trkpt>
<trkpt lat="-26.8418529" lon="152.8983241">
<ele>128.826</ele>
<time>2018-01-10T01:23:31.569Z</time>
</trkpt>
<trkpt lat="-26.8416605" lon="152.8981854">
<ele>129.934</ele>
<time>2018-01-10T01:23:33.905Z</time>
</trkpt>
<trkpt lat="-26.8415293" lon="152.8980280">
<ele>129.949</ele>
<time>2018-01-10T01:23:35.855Z</time>
</trkpt>
<trkpt lat="-26.8414307" lon="152.8978731">
<ele>129.740</ele>
<time>2018-01-10T01:23:37.667Z</time>
</trkpt>
<trkpt lat="-26.8414379" lon="152.8976335">
<ele>130.065</ele>
<time>2018-01-10T01:23:40.007Z</time>
</trkpt>
<trkpt lat="-26.8414921" lon="152.8974047">
<ele>130.885</ele>
<time>2018-01-10T01:23:42.263Z</time>
</trkpt>
<trkpt lat="-26.8415595" lon="152.8971738">
<ele>131.788</ele>
<time>2018-01-10T01:23:44.435Z</time>
</trkpt>
<trkpt lat="-26.8416543" lon="152.8969508">
<ele>132.698</ele>
<time>2018-01-10T01:23:46.521Z</time>
</trkpt>
<trkpt lat="-26.8417617" lon="152.8967438">
<ele>133.701</ele>
<time>2018-01-10T01:23:48.459Z</time>
</trkpt>
<trkpt lat="-26.8419760" lon="152.8965877">
<ele>134.849</ele>
<time>2018-01-10T01:23:50.606Z</time>
</trkpt>
<trkpt lat="-26.8422457" lon="152.8964744">
<ele>136.149</ele>
<time>2018-01-10T01:23:52.972Z</time>
</trkpt>
<trkpt lat="-26.8424340" lon="152.8963368">
<ele>137.602</ele>
<time>2018-01-10T01:23:54.906Z</time>
</trkpt>
<trkpt lat="-26.8426080" lon="152.8961817">
<ele>139.176</ele>
<time>2018-01-10T01:23:56.854Z</time>
</trkpt>
<trkpt lat="-26.8427505" lon="152.8959475">
<ele>140.740</ele>
<time>2018-01-10T01:23:59.213Z</time>
</trkpt>
<trkpt lat="-26.8427960" lon="152.8957496">
<ele>142.022</ele>
<time>2018-01-10T01:24:01.017Z</time>
</trkpt>
<trkpt lat="-26.8426562" lon="152.8955538">
<ele>142.810</ele>
<time>2018-01-10T01:24:03.136Z</time>
</trkpt>
<trkpt lat="-26.8425107" lon="152.8953445">
<ele>142.856</ele>
<time>2018-01-10T01:24:05.244Z</time>
</trkpt>
<trkpt lat="-26.8424882" lon="152.8950236">
<ele>142.229</ele>
<time>2018-01-10T01:24:07.719Z</time>
</trkpt>
<trkpt lat="-26.8425520" lon="152.8947376">
<ele>141.728</ele>
<time>2018-01-10T01:24:09.863Z</time>
</trkpt>
<trkpt lat="-26.8427817" lon="152.8945718">
<ele>142.146</ele>
<time>2018-01-10T01:24:12.125Z</time>
</trkpt>
<trkpt lat="-26.8430065" lon="152.8944775">
<ele>143.303</ele>
<time>2018-01-10T01:24:14.339Z</time>
</trkpt>
<trkpt lat="-26.8430947" lon="152.8942406">
<ele>144.556</ele>
<time>2018-01-10T01:24:16.522Z</time>
</trkpt>
<trkpt lat="-26.8431787" lon="152.8939884">
<ele>145.688</ele>
<time>2018-01-10T01:24:18.763Z</time>
</trkpt>
<trkpt lat="-26.8433060" lon="152.8937901">
<ele>146.981</ele>
<time>2018-01-10T01:24:20.674Z</time>
</trkpt>
<trkpt lat="-26.8435487" lon="152.8936860">
<ele>148.753</ele>
<time>2018-01-10T01:24:22.873Z</time>
</trkpt>
<trkpt lat="-26.8438005" lon="152.8937043">
<ele>151.283</ele>
<time>2018-01-10T01:24:25.116Z</time>
</trkpt>
<trkpt lat="-26.8440395" lon="152.8936666">
<ele>154.686</ele>
<time>2018-01-10T01:24:27.464Z</time>
</trkpt>
<trkpt lat="-26.8442000" lon="152.8935250">
<ele>158.195</ele>
<time>2018-01-10T01:24:29.552Z</time>
</trkpt>
<trkpt lat="-26.8442755" lon="152.8933126">
<ele>160.572</ele>
<time>2018-01-10T01:24:31.617Z</time>
</trkpt>
<trkpt lat="-26.8443442" lon="152.8931230">
<ele>161.495</ele>
<time>2018-01-10T01:24:33.406Z</time>
</trkpt>
<trkpt lat="-26.8444040" lon="152.8929176">
<ele>161.545</ele>
<time>2018-01-10T01:24:35.218Z</time>
</trkpt>
<trkpt lat="-26.8443970" lon="152.8926893">
<ele>161.316</ele>
<time>2018-01-10T01:24:36.986Z</time>
</trkpt>
<trkpt lat="-26.8443612" lon="152.8924404">
<ele>160.957</ele>
<time>2018-01-10T01:24:38.818Z</time>
</trkpt>
<trkpt lat="-26.8444078" lon="152.8921701">
<ele>160.373</ele>
<time>2018-01-10T01:24:40.944Z</time>
</trkpt>
<trkpt lat="-26.8444965" lon="152.8919224">
<ele>159.641</ele>
<time>2018-01-10T01:24:43.198Z</time>
</trkpt>
<trkpt lat="-26.8445455" lon="152.8916960">
<ele>158.834</ele>
<time>2018-01-10T01:24:45.157Z</time>
</trkpt>
<trkpt lat="-26.8446008" lon="152.8914659">
<ele>158.026</ele>
<time>2018-01-10T01:24:47.118Z</time>
</trkpt>
<trkpt lat="-26.8446281" lon="152.8912207">
<ele>157.598</ele>
<time>2018-01-10T01:24:49.036Z</time>
</trkpt>
<trkpt lat="-26.8446283" lon="152.8909701">
<ele>157.757</ele>
<time>2018-01-10T01:24:50.815Z</time>
</trkpt>
<trkpt lat="-26.8445722" lon="152.8907066">
<ele>158.170</ele>
<time>2018-01-10T01:24:52.601Z</time>
</trkpt>
<trkpt lat="-26.8445048" lon="152.8904127">
<ele>158.463</ele>
<time>2018-01-10T01:24:54.510Z</time>
</trkpt>
<trkpt lat="-26.8444641" lon="152.8900936">
<ele>158.569</ele>
<time>2018-01-10T01:24:56.495Z</time>
</trkpt>
<trkpt lat="-26.8445250" lon="152.8897739">
<ele>158.539</ele>
<time>2018-01-10T01:24:58.481Z</time>
</trkpt>
<trkpt lat="-26.8446489" lon="152.8894784">
<ele>158.441</ele>
<time>2018-01-10T01:25:00.422Z</time>
</trkpt>
<trkpt lat="-26.8447948" lon="152.8891860">
<ele>158.356</ele>
<time>2018-01-10T01:25:02.380Z</time>
</trkpt>
<trkpt lat="-26.8449055" lon="152.8888718">
<ele>158.351</ele>
<time>2018-01-10T01:25:04.357Z</time>
</trkpt>
<trkpt lat="-26.8449606" lon="152.8885349">
<ele>158.417</ele>
<time>2018-01-10T01:25:06.408Z</time>
</trkpt>
<trkpt lat="-26.8450153" lon="152.8882069">
<ele>158.465</ele>
<time>2018-01-10T01:25:08.438Z</time>
</trkpt>
<trkpt lat="-26.8450464" lon="152.8878943">
<ele>158.382</ele>
<time>2018-01-10T01:25:10.294Z</time>
</trkpt>
<trkpt lat="-26.8451076" lon="152.8875753">
<ele>158.134</ele>
<time>2018-01-10T01:25:12.107Z</time>
</trkpt>
<trkpt lat="-26.8452333" lon="152.8872391">
<ele>157.745</ele>
<time>2018-01-10T01:25:14.020Z</time>
</trkpt>
<trkpt lat="-26.8453727" lon="152.8868887">
<ele>157.225</ele>
<time>2018-01-10T01:25:15.954Z</time>
</trkpt>
<trkpt lat="-26.8455208" lon="152.8865116">
<ele>156.678</ele>
<time>2018-01-10T01:25:18.012Z</time>
</trkpt>
<trkpt lat="-26.8456497" lon="152.8861226">
<ele>156.418</ele>
<time>2018-01-10T01:25:20.181Z</time>
</trkpt>
<trkpt lat="-26.8457302" lon="152.8857653">
<ele>156.691</ele>
<time>2018-01-10T01:25:22.287Z</time>
</trkpt>
<trkpt lat="-26.8457608" lon="152.8854263">
<ele>157.341</ele>
<time>2018-01-10T01:25:24.358Z</time>
</trkpt>
<trkpt lat="-26.8457221" lon="152.8850867">
<ele>157.963</ele>
<time>2018-01-10T01:25:26.503Z</time>
</trkpt>
<trkpt lat="-26.8456228" lon="152.8847808">
<ele>158.333</ele>
<time>2018-01-10T01:25:28.632Z</time>
</trkpt>
<trkpt lat="-26.8455313" lon="152.8845112">
<ele>158.506</ele>
<time>2018-01-10T01:25:30.689Z</time>
</trkpt>
<trkpt lat="-26.8453695" lon="152.8842709">
<ele>158.789</ele>
<time>2018-01-10T01:25:32.948Z</time>
</trkpt>
<trkpt lat="-26.8452503" lon="152.8840881">
<ele>159.534</ele>
<time>2018-01-10T01:25:34.523Z</time>
</trkpt>
<trkpt lat="-26.8451267" lon="152.8838654">
<ele>160.676</ele>
<time>2018-01-10T01:25:36.162Z</time>
</trkpt>
<trkpt lat="-26.8449408" lon="152.8836042">
<ele>161.711</ele>
<time>2018-01-10T01:25:38.072Z</time>
</trkpt>
<trkpt lat="-26.8446955" lon="152.8833449">
<ele>162.162</ele>
<time>2018-01-10T01:25:40.146Z</time>
</trkpt>
<trkpt lat="-26.8444897" lon="152.8830759">
<ele>161.993</ele>
<time>2018-01-10T01:25:42.088Z</time>
</trkpt>
<trkpt lat="-26.8442848" lon="152.8827858">
<ele>161.689</ele>
<time>2018-01-10T01:25:44.117Z</time>
</trkpt>
<trkpt lat="-26.8441044" lon="152.8824848">
<ele>161.630</ele>
<time>2018-01-10T01:25:46.105Z</time>
</trkpt>
<trkpt lat="-26.8438774" lon="152.8822121">
<ele>161.624</ele>
<time>2018-01-10T01:25:48.157Z</time>
</trkpt>
<trkpt lat="-26.8436884" lon="152.8819343">
<ele>161.173</ele>
<time>2018-01-10T01:25:50.096Z</time>
</trkpt>
<trkpt lat="-26.8434841" lon="152.8816769">
<ele>160.006</ele>
<time>2018-01-10T01:25:51.985Z</time>
</trkpt>
<trkpt lat="-26.8432418" lon="152.8814573">
<ele>158.399</ele>
<time>2018-01-10T01:25:53.834Z</time>
</trkpt>
<trkpt lat="-26.8429052" lon="152.8813064">
<ele>156.991</ele>
<time>2018-01-10T01:25:55.954Z</time>
</trkpt>
<trkpt lat="-26.8425502" lon="152.8812138">
<ele>156.163</ele>
<time>2018-01-10T01:25:58.142Z</time>
</trkpt>
<trkpt lat="-26.8422339" lon="152.8811485">
<ele>155.829</ele>
<time>2018-01-10T01:26:00.159Z</time>
</trkpt>
<trkpt lat="-26.8419396" lon="152.8811008">
<ele>155.760</ele>
<time>2018-01-10T01:26:02.105Z</time>
</trkpt>
<trkpt lat="-26.8416431" lon="152.8810754">
<ele>155.729</ele>
<time>2018-01-10T01:26:04.086Z</time>
</trkpt>
<trkpt lat="-26.8413641" lon="152.8809935">
<ele>155.568</ele>
<time>2018-01-10T01:26:06.035Z</time>
</trkpt>
<trkpt lat="-26.8410427" lon="152.8809861">
<ele>155.331</ele>
<time>2018-01-10T01:26:08.414Z</time>
</trkpt>
<trkpt lat="-26.8407803" lon="152.8809342">
<ele>155.049</ele>
<time>2018-01-10T01:26:10.592Z</time>
</trkpt>
<trkpt lat="-26.8405885" lon="152.8809998">
<ele>154.537</ele>
<time>2018-01-10T01:26:12.062Z</time>
</trkpt>
<trkpt lat="-26.8403593" lon="152.8811426">
<ele>153.605</ele>
<time>2018-01-10T01:26:13.769Z</time>
</trkpt>
<trkpt lat="-26.8400350" lon="152.8811899">
<ele>152.409</ele>
<time>2018-01-10T01:26:15.673Z</time>
</trkpt>
<trkpt lat="-26.8396743" lon="152.8811613">
<ele>151.359</ele>
<time>2018-01-10T01:26:17.659Z</time>
</trkpt>
<trkpt lat="-26.8393216" lon="152.8811070">
<ele>150.713</ele>
<time>2018-01-10T01:26:19.570Z</time>
</trkpt>
<trkpt lat="-26.8389452" lon="152.8811426">
<ele>150.461</ele>
<time>2018-01-10T01:26:21.592Z</time>
</trkpt>
<trkpt lat="-26.8385796" lon="152.8811514">
<ele>150.477</ele>
<time>2018-01-10T01:26:23.537Z</time>
</trkpt>
<trkpt lat="-26.8381888" lon="152.8811310">
<ele>150.639</ele>
<time>2018-01-10T01:26:25.561Z</time>
</trkpt>
<trkpt lat="-26.8378023" lon="152.8810532">
<ele>150.878</ele>
<time>2018-01-10T01:26:27.572Z</time>
</trkpt>
<trkpt lat="-26.8374452" lon="152.8809694">
<ele>151.121</ele>
<time>2018-01-10T01:26:29.498Z</time>
</trkpt>
<trkpt lat="-26.8371112" lon="152.8808424">
<ele>151.333</ele>
<time>2018-01-10T01:26:31.413Z</time>
</trkpt>
<trkpt lat="-26.8367285" lon="152.8807940">
<ele>151.688</ele>
<time>2018-01-10T01:26:33.497Z</time>
</trkpt>
<trkpt lat="-26.8363935" lon="152.8806480">
<ele>152.346</ele>
<time>2018-01-10T01:26:35.424Z</time>
</trkpt>
<trkpt lat="-26.8360394" lon="152.8804301">
<ele>153.092</ele>
<time>2018-01-10T01:26:37.614Z</time>
</trkpt>
<trkpt lat="-26.8357093" lon="152.8802676">
<ele>153.445</ele>
<time>2018-01-10T01:26:39.592Z</time>
</trkpt>
<trkpt lat="-26.8353722" lon="152.8801366">
<ele>153.295</ele>
<time>2018-01-10T01:26:41.530Z</time>
</trkpt>
<trkpt lat="-26.8350350" lon="152.8799498">
<ele>152.986</ele>
<time>2018-01-10T01:26:43.521Z</time>
</trkpt>
<trkpt lat="-26.8346892" lon="152.8797882">
<ele>153.084</ele>
<time>2018-01-10T01:26:45.442Z</time>
</trkpt>
<trkpt lat="-26.8343145" lon="152.8795852">
<ele>153.746</ele>
<time>2018-01-10T01:26:47.556Z</time>
</trkpt>
<trkpt lat="-26.8339893" lon="152.8793583">
<ele>154.350</ele>
<time>2018-01-10T01:26:49.549Z</time>
</trkpt>
<trkpt lat="-26.8336530" lon="152.8791541">
<ele>154.312</ele>
<time>2018-01-10T01:26:51.585Z</time>
</trkpt>
<trkpt lat="-26.8333129" lon="152.8789964">
<ele>153.843</ele>
<time>2018-01-10T01:26:53.556Z</time>
</trkpt>
<trkpt lat="-26.8330042" lon="152.8787939">
<ele>153.273</ele>
<time>2018-01-10T01:26:55.468Z</time>
</trkpt>
<trkpt lat="-26.8326391" lon="152.8786967">
<ele>152.508</ele>
<time>2018-01-10T01:26:57.479Z</time>
</trkpt>
<trkpt lat="-26.8323081" lon="152.8785297">
<ele>151.352</ele>
<time>2018-01-10T01:26:59.476Z</time>
</trkpt>
<trkpt lat="-26.8318434" lon="152.8783237">
<ele>149.927</ele>
<time>2018-01-10T01:27:02.427Z</time>
</trkpt>
<trkpt lat="-26.8315330" lon="152.8782615">
<ele>148.432</ele>
<time>2018-01-10T01:27:04.326Z</time>
</trkpt>
<trkpt lat="-26.8312051" lon="152.8783635">
<ele>146.890</ele>
<time>2018-01-10T01:27:06.270Z</time>
</trkpt>
<trkpt lat="-26.8308645" lon="152.8785326">
<ele>145.426</ele>
<time>2018-01-10T01:27:08.300Z</time>
</trkpt>
<trkpt lat="-26.8304862" lon="152.8787005">
<ele>144.348</ele>
<time>2018-01-10T01:27:10.457Z</time>
</trkpt>
<trkpt lat="-26.8301339" lon="152.8788589">
<ele>143.839</ele>
<time>2018-01-10T01:27:12.473Z</time>
</trkpt>
<trkpt lat="-26.8297787" lon="152.8789874">
<ele>143.759</ele>
<time>2018-01-10T01:27:14.495Z</time>
</trkpt>
<trkpt lat="-26.8294279" lon="152.8791142">
<ele>143.721</ele>
<time>2018-01-10T01:27:16.550Z</time>
</trkpt>
<trkpt lat="-26.8291070" lon="152.8792504">
<ele>143.279</ele>
<time>2018-01-10T01:27:18.499Z</time>
</trkpt>
<trkpt lat="-26.8288474" lon="152.8794953">
<ele>142.420</ele>
<time>2018-01-10T01:27:20.413Z</time>
</trkpt>
<trkpt lat="-26.8286083" lon="152.8797977">
<ele>141.521</ele>
<time>2018-01-10T01:27:22.426Z</time>
</trkpt>
<trkpt lat="-26.8283798" lon="152.8800928">
<ele>140.685</ele>
<time>2018-01-10T01:27:24.378Z</time>
</trkpt>
<trkpt lat="-26.8282155" lon="152.8804614">
<ele>139.862</ele>
<time>2018-01-10T01:27:26.503Z</time>
</trkpt>
<trkpt lat="-26.8280325" lon="152.8807680">
<ele>139.263</ele>
<time>2018-01-10T01:27:28.568Z</time>
</trkpt>
<trkpt lat="-26.8278448" lon="152.8810332">
<ele>139.179</ele>
<time>2018-01-10T01:27:30.576Z</time>
</trkpt>
<trkpt lat="-26.8276811" lon="152.8812785">
<ele>139.712</ele>
<time>2018-01-10T01:27:32.304Z</time>
</trkpt>
<trkpt lat="-26.8274188" lon="152.8814932">
<ele>140.714</ele>
<time>2018-01-10T01:27:34.140Z</time>
</trkpt>
<trkpt lat="-26.8271157" lon="152.8817481">
<ele>141.975</ele>
<time>2018-01-10T01:27:36.139Z</time>
</trkpt>
<trkpt lat="-26.8268184" lon="152.8820113">
<ele>143.337</ele>
<time>2018-01-10T01:27:38.156Z</time>
</trkpt>
<trkpt lat="-26.8265265" lon="152.8822348">
<ele>144.495</ele>
<time>2018-01-10T01:27:40.178Z</time>
</trkpt>
<trkpt lat="-26.8262984" lon="152.8824650">
<ele>145.145</ele>
<time>2018-01-10T01:27:42.039Z</time>
</trkpt>
<trkpt lat="-26.8260291" lon="152.8826885">
<ele>145.259</ele>
<time>2018-01-10T01:27:44.048Z</time>
</trkpt>
<trkpt lat="-26.8257435" lon="152.8829085">
<ele>145.083</ele>
<time>2018-01-10T01:27:46.082Z</time>
</trkpt>
<trkpt lat="-26.8254564" lon="152.8831069">
<ele>144.924</ele>
<time>2018-01-10T01:27:48.052Z</time>
</trkpt>
<trkpt lat="-26.8251215" lon="152.8832043">
<ele>145.347</ele>
<time>2018-01-10T01:27:50.028Z</time>
</trkpt>
<trkpt lat="-26.8247824" lon="152.8830710">
<ele>146.954</ele>
<time>2018-01-10T01:27:52.080Z</time>
</trkpt>
<trkpt lat="-26.8244605" lon="152.8829729">
<ele>149.600</ele>
<time>2018-01-10T01:27:54.057Z</time>
</trkpt>
<trkpt lat="-26.8241485" lon="152.8828276">
<ele>152.407</ele>
<time>2018-01-10T01:27:56.113Z</time>
</trkpt>
<trkpt lat="-26.8238217" lon="152.8827382">
<ele>154.623</ele>
<time>2018-01-10T01:27:58.196Z</time>
</trkpt>
<trkpt lat="-26.8234920" lon="152.8826312">
<ele>156.006</ele>
<time>2018-01-10T01:28:00.322Z</time>
</trkpt>
<trkpt lat="-26.8231681" lon="152.8825381">
<ele>156.887</ele>
<time>2018-01-10T01:28:02.367Z</time>
</trkpt>
<trkpt lat="-26.8228735" lon="152.8824287">
<ele>157.639</ele>
<time>2018-01-10T01:28:04.231Z</time>
</trkpt>
<trkpt lat="-26.8225622" lon="152.8823086">
<ele>158.098</ele>
<time>2018-01-10T01:28:06.159Z</time>
</trkpt>
<trkpt lat="-26.8222200" lon="152.8821895">
<ele>157.940</ele>
<time>2018-01-10T01:28:08.283Z</time>
</trkpt>
<trkpt lat="-26.8218845" lon="152.8821770">
<ele>157.351</ele>
<time>2018-01-10T01:28:10.325Z</time>
</trkpt>
<trkpt lat="-26.8215434" lon="152.8822697">
<ele>156.945</ele>
<time>2018-01-10T01:28:12.413Z</time>
</trkpt>
<trkpt lat="-26.8212158" lon="152.8824144">
<ele>157.385</ele>
<time>2018-01-10T01:28:14.374Z</time>
</trkpt>
<trkpt lat="-26.8209083" lon="152.8826876">
<ele>158.883</ele>
<time>2018-01-10T01:28:16.472Z</time>
</trkpt>
<trkpt lat="-26.8206201" lon="152.8829600">
<ele>161.274</ele>
<time>2018-01-10T01:28:18.549Z</time>
</trkpt>
<trkpt lat="-26.8203229" lon="152.8831517">
<ele>164.166</ele>
<time>2018-01-10T01:28:20.519Z</time>
</trkpt>
<trkpt lat="-26.8200303" lon="152.8833017">
<ele>166.963</ele>
<time>2018-01-10T01:28:22.363Z</time>
</trkpt>
<trkpt lat="-26.8196731" lon="152.8833320">
<ele>169.306</ele>
<time>2018-01-10T01:28:24.319Z</time>
</trkpt>
<trkpt lat="-26.8192927" lon="152.8833398">
<ele>171.352</ele>
<time>2018-01-10T01:28:26.260Z</time>
</trkpt>
<trkpt lat="-26.8188533" lon="152.8832815">
<ele>173.275</ele>
<time>2018-01-10T01:28:28.479Z</time>
</trkpt>
<trkpt lat="-26.8184606" lon="152.8832150">
<ele>174.889</ele>
<time>2018-01-10T01:28:30.508Z</time>
</trkpt>
<trkpt lat="-26.8180766" lon="152.8831632">
<ele>176.028</ele>
<time>2018-01-10T01:28:32.473Z</time>
</trkpt>
<trkpt lat="-26.8176780" lon="152.8830552">
<ele>177.186</ele>
<time>2018-01-10T01:28:34.549Z</time>
</trkpt>
<trkpt lat="-26.8173063" lon="152.8829093">
<ele>179.061</ele>
<time>2018-01-10T01:28:36.549Z</time>
</trkpt>
<trkpt lat="-26.8169932" lon="152.8826210">
<ele>181.578</ele>
<time>2018-01-10T01:28:38.614Z</time>
</trkpt>
<trkpt lat="-26.8167429" lon="152.8822879">
<ele>184.176</ele>
<time>2018-01-10T01:28:40.603Z</time>
</trkpt>
<trkpt lat="-26.8165320" lon="152.8819235">
<ele>186.677</ele>
<time>2018-01-10T01:28:42.601Z</time>
</trkpt>
<trkpt lat="-26.8163302" lon="152.8815409">
<ele>189.295</ele>
<time>2018-01-10T01:28:44.703Z</time>
</trkpt>
<trkpt lat="-26.8160933" lon="152.8812016">
<ele>192.082</ele>
<time>2018-01-10T01:28:46.841Z</time>
</trkpt>
<trkpt lat="-26.8158160" lon="152.8809772">
<ele>194.826</ele>
<time>2018-01-10T01:28:48.793Z</time>
</trkpt>
<trkpt lat="-26.8154372" lon="152.8809352">
<ele>197.414</ele>
<time>2018-01-10T01:28:50.983Z</time>
</trkpt>
<trkpt lat="-26.8150904" lon="152.8808956">
<ele>200.002</ele>
<time>2018-01-10T01:28:52.986Z</time>
</trkpt>
<trkpt lat="-26.8147563" lon="152.8808754">
<ele>202.718</ele>
<time>2018-01-10T01:28:54.859Z</time>
</trkpt>
<trkpt lat="-26.8143931" lon="152.8809539">
<ele>205.516</ele>
<time>2018-01-10T01:28:56.845Z</time>
</trkpt>
<trkpt lat="-26.8140522" lon="152.8811493">
<ele>208.291</ele>
<time>2018-01-10T01:28:58.831Z</time>
</trkpt>
<trkpt lat="-26.8137617" lon="152.8814450">
<ele>210.923</ele>
<time>2018-01-10T01:29:00.844Z</time>
</trkpt>
<trkpt lat="-26.8135166" lon="152.8817882">
<ele>213.365</ele>
<time>2018-01-10T01:29:02.896Z</time>
</trkpt>
<trkpt lat="-26.8132852" lon="152.8821219">
<ele>215.661</ele>
<time>2018-01-10T01:29:04.943Z</time>
</trkpt>
<trkpt lat="-26.8130729" lon="152.8824507">
<ele>217.770</ele>
<time>2018-01-10T01:29:06.950Z</time>
</trkpt>
<trkpt lat="-26.8129184" lon="152.8828117">
<ele>219.505</ele>
<time>2018-01-10T01:29:08.936Z</time>
</trkpt>
<trkpt lat="-26.8127984" lon="152.8831811">
<ele>220.625</ele>
<time>2018-01-10T01:29:10.873Z</time>
</trkpt>
<trkpt lat="-26.8126641" lon="152.8835564">
<ele>220.943</ele>
<time>2018-01-10T01:29:12.817Z</time>
</trkpt>
<trkpt lat="-26.8124323" lon="152.8838806">
<ele>220.257</ele>
<time>2018-01-10T01:29:14.754Z</time>
</trkpt>
<trkpt lat="-26.8121488" lon="152.8842030">
<ele>218.498</ele>
<time>2018-01-10T01:29:16.841Z</time>
</trkpt>
<trkpt lat="-26.8119236" lon="152.8845594">
<ele>216.168</ele>
<time>2018-01-10T01:29:18.928Z</time>
</trkpt>
<trkpt lat="-26.8117338" lon="152.8849057">
<ele>214.040</ele>
<time>2018-01-10T01:29:21.043Z</time>
</trkpt>
<trkpt lat="-26.8115004" lon="152.8851821">
<ele>212.572</ele>
<time>2018-01-10T01:29:23.117Z</time>
</trkpt>
<trkpt lat="-26.8112078" lon="152.8853383">
<ele>211.825</ele>
<time>2018-01-10T01:29:25.048Z</time>
</trkpt>
<trkpt lat="-26.8108583" lon="152.8853926">
<ele>211.515</ele>
<time>2018-01-10T01:29:27.112Z</time>
</trkpt>
<trkpt lat="-26.8105134" lon="152.8855095">
<ele>211.093</ele>
<time>2018-01-10T01:29:29.233Z</time>
</trkpt>
<trkpt lat="-26.8102215" lon="152.8857062">
<ele>210.100</ele>
<time>2018-01-10T01:29:31.258Z</time>
</trkpt>
<trkpt lat="-26.8100650" lon="152.8860632">
<ele>208.454</ele>
<time>2018-01-10T01:29:33.439Z</time>
</trkpt>
<trkpt lat="-26.8099335" lon="152.8864290">
<ele>206.367</ele>
<time>2018-01-10T01:29:35.705Z</time>
</trkpt>
<trkpt lat="-26.8098250" lon="152.8867712">
<ele>204.123</ele>
<time>2018-01-10T01:29:37.813Z</time>
</trkpt>
<trkpt lat="-26.8098140" lon="152.8871122">
<ele>202.003</ele>
<time>2018-01-10T01:29:39.789Z</time>
</trkpt>
<trkpt lat="-26.8098228" lon="152.8874742">
<ele>200.031</ele>
<time>2018-01-10T01:29:41.887Z</time>
</trkpt>
<trkpt lat="-26.8096877" lon="152.8877819">
<ele>197.853</ele>
<time>2018-01-10T01:29:43.884Z</time>
</trkpt>
<trkpt lat="-26.8094898" lon="152.8880633">
<ele>195.605</ele>
<time>2018-01-10T01:29:46.015Z</time>
</trkpt>
<trkpt lat="-26.8093173" lon="152.8883271">
<ele>194.075</ele>
<time>2018-01-10T01:29:48.019Z</time>
</trkpt>
<trkpt lat="-26.8092196" lon="152.8886579">
<ele>193.643</ele>
<time>2018-01-10T01:29:50.175Z</time>
</trkpt>
<trkpt lat="-26.8090702" lon="152.8889184">
<ele>193.924</ele>
<time>2018-01-10T01:29:51.952Z</time>
</trkpt>
<trkpt lat="-26.8087956" lon="152.8891229">
<ele>194.377</ele>
<time>2018-01-10T01:29:53.968Z</time>
</trkpt>
<trkpt lat="-26.8084905" lon="152.8893216">
<ele>194.857</ele>
<time>2018-01-10T01:29:56.653Z</time>
</trkpt>
<trkpt lat="-26.8082567" lon="152.8895133">
<ele>195.802</ele>
<time>2018-01-10T01:29:59.227Z</time>
</trkpt>
<trkpt lat="-26.8080828" lon="152.8897322">
<ele>197.282</ele>
<time>2018-01-10T01:30:01.408Z</time>
</trkpt>
<trkpt lat="-26.8081161" lon="152.8899994">
<ele>198.596</ele>
<time>2018-01-10T01:30:03.185Z</time>
</trkpt>
<trkpt lat="-26.8083965" lon="152.8903652">
<ele>199.230</ele>
<time>2018-01-10T01:30:06.474Z</time>
</trkpt>
<trkpt lat="-26.8084483" lon="152.8908052">
<ele>199.521</ele>
<time>2018-01-10T01:30:09.781Z</time>
</trkpt>
<trkpt lat="-26.8083937" lon="152.8913002">
<ele>200.439</ele>
<time>2018-01-10T01:30:13.740Z</time>
</trkpt>
<trkpt lat="-26.8085872" lon="152.8916366">
<ele>202.491</ele>
<time>2018-01-10T01:30:16.763Z</time>
</trkpt>
<trkpt lat="-26.8087406" lon="152.8919997">
<ele>204.905</ele>
<time>2018-01-10T01:30:19.392Z</time>
</trkpt>
<trkpt lat="-26.8086246" lon="152.8923572">
<ele>206.886</ele>
<time>2018-01-10T01:30:21.673Z</time>
</trkpt>
<trkpt lat="-26.8084131" lon="152.8928423">
<ele>208.455</ele>
<time>2018-01-10T01:30:24.848Z</time>
</trkpt>
<trkpt lat="-26.8082649" lon="152.8933627">
<ele>209.580</ele>
<time>2018-01-10T01:30:28.321Z</time>
</trkpt>
<trkpt lat="-26.8080541" lon="152.8938363">
<ele>210.234</ele>
<time>2018-01-10T01:30:31.828Z</time>
</trkpt>
<trkpt lat="-26.8078879" lon="152.8941102">
<ele>210.860</ele>
<time>2018-01-10T01:30:33.904Z</time>
</trkpt>
<trkpt lat="-26.8076432" lon="152.8944995">
<ele>211.816</ele>
<time>2018-01-10T01:30:36.772Z</time>
</trkpt>
<trkpt lat="-26.8075911" lon="152.8949928">
<ele>212.876</ele>
<time>2018-01-10T01:30:39.863Z</time>
</trkpt>
<trkpt lat="-26.8075596" lon="152.8955154">
<ele>213.578</ele>
<time>2018-01-10T01:30:43.826Z</time>
</trkpt>
<trkpt lat="-26.8073581" lon="152.8960018">
<ele>213.917</ele>
<time>2018-01-10T01:30:47.966Z</time>
</trkpt>
<trkpt lat="-26.8071347" lon="152.8963286">
<ele>214.651</ele>
<time>2018-01-10T01:30:51.619Z</time>
</trkpt>
<trkpt lat="-26.8071109" lon="152.8966914">
<ele>216.789</ele>
<time>2018-01-10T01:30:54.276Z</time>
</trkpt>
<trkpt lat="-26.8072600" lon="152.8969584">
<ele>220.918</ele>
<time>2018-01-10T01:30:56.203Z</time>
</trkpt>
<trkpt lat="-26.8073829" lon="152.8971912">
<ele>226.380</ele>
<time>2018-01-10T01:30:57.802Z</time>
</trkpt>
<trkpt lat="-26.8072814" lon="152.8973583">
<ele>231.722</ele>
<time>2018-01-10T01:30:59.018Z</time>
</trkpt>
<trkpt lat="-26.8070937" lon="152.8975175">
<ele>236.296</ele>
<time>2018-01-10T01:31:00.632Z</time>
</trkpt>
<trkpt lat="-26.8068790" lon="152.8977309">
<ele>240.444</ele>
<time>2018-01-10T01:31:02.641Z</time>
</trkpt>
<trkpt lat="-26.8066515" lon="152.8979734">
<ele>244.283</ele>
<time>2018-01-10T01:31:04.807Z</time>
</trkpt>
<trkpt lat="-26.8064119" lon="152.8981931">
<ele>247.512</ele>
<time>2018-01-10T01:31:06.865Z</time>
</trkpt>
<trkpt lat="-26.8061559" lon="152.8983523">
<ele>249.850</ele>
<time>2018-01-10T01:31:08.725Z</time>
</trkpt>
<trkpt lat="-26.8058897" lon="152.8984265">
<ele>251.225</ele>
<time>2018-01-10T01:31:10.401Z</time>
</trkpt>
<trkpt lat="-26.8056554" lon="152.8986513">
<ele>251.756</ele>
<time>2018-01-10T01:31:12.248Z</time>
</trkpt>
<trkpt lat="-26.8055311" lon="152.8989682">
<ele>251.762</ele>
<time>2018-01-10T01:31:14.138Z</time>
</trkpt>
<trkpt lat="-26.8054323" lon="152.8993442">
<ele>251.601</ele>
<time>2018-01-10T01:31:16.468Z</time>
</trkpt>
<trkpt lat="-26.8053101" lon="152.8997017">
<ele>251.520</ele>
<time>2018-01-10T01:31:18.867Z</time>
</trkpt>
<trkpt lat="-26.8050984" lon="152.9000167">
<ele>251.774</ele>
<time>2018-01-10T01:31:21.243Z</time>
</trkpt>
<trkpt lat="-26.8048842" lon="152.9002780">
<ele>252.746</ele>
<time>2018-01-10T01:31:23.315Z</time>
</trkpt>
<trkpt lat="-26.8047486" lon="152.9005258">
<ele>254.698</ele>
<time>2018-01-10T01:31:24.927Z</time>
</trkpt>
<trkpt lat="-26.8045316" lon="152.9007097">
<ele>257.380</ele>
<time>2018-01-10T01:31:26.516Z</time>
</trkpt>
<trkpt lat="-26.8042348" lon="152.9009123">
<ele>260.225</ele>
<time>2018-01-10T01:31:28.436Z</time>
</trkpt>
<trkpt lat="-26.8039616" lon="152.9010992">
<ele>262.993</ele>
<time>2018-01-10T01:31:30.219Z</time>
</trkpt>
<trkpt lat="-26.8037168" lon="152.9013144">
<ele>266.030</ele>
<time>2018-01-10T01:31:32.008Z</time>
</trkpt>
<trkpt lat="-26.8034740" lon="152.9016354">
<ele>269.673</ele>
<time>2018-01-10T01:31:34.258Z</time>
</trkpt>
<trkpt lat="-26.8032340" lon="152.9019620">
<ele>273.332</ele>
<time>2018-01-10T01:31:36.658Z</time>
</trkpt>
<trkpt lat="-26.8030002" lon="152.9022487">
<ele>275.952</ele>
<time>2018-01-10T01:31:39.058Z</time>
</trkpt>
<trkpt lat="-26.8027290" lon="152.9024737">
<ele>277.190</ele>
<time>2018-01-10T01:31:41.544Z</time>
</trkpt>
<trkpt lat="-26.8024122" lon="152.9025776">
<ele>277.465</ele>
<time>2018-01-10T01:31:43.886Z</time>
</trkpt>
<trkpt lat="-26.8021460" lon="152.9027205">
<ele>277.468</ele>
<time>2018-01-10T01:31:45.943Z</time>
</trkpt>
<trkpt lat="-26.8019109" lon="152.9028761">
<ele>277.856</ele>
<time>2018-01-10T01:31:47.907Z</time>
</trkpt>
<trkpt lat="-26.8017988" lon="152.9031535">
<ele>278.674</ele>
<time>2018-01-10T01:31:49.988Z</time>
</trkpt>
<trkpt lat="-26.8018583" lon="152.9035086">
<ele>279.500</ele>
<time>2018-01-10T01:31:52.393Z</time>
</trkpt>
<trkpt lat="-26.8019462" lon="152.9038221">
<ele>280.289</ele>
<time>2018-01-10T01:31:54.456Z</time>
</trkpt>
<trkpt lat="-26.8020052" lon="152.9041369">
<ele>281.412</ele>
<time>2018-01-10T01:31:56.428Z</time>
</trkpt>
<trkpt lat="-26.8019331" lon="152.9044097">
<ele>282.869</ele>
<time>2018-01-10T01:31:58.110Z</time>
</trkpt>
<trkpt lat="-26.8017440" lon="152.9046134">
<ele>284.315</ele>
<time>2018-01-10T01:31:59.775Z</time>
</trkpt>
<trkpt lat="-26.8014452" lon="152.9047082">
<ele>285.665</ele>
<time>2018-01-10T01:32:01.703Z</time>
</trkpt>
<trkpt lat="-26.8011884" lon="152.9048150">
<ele>287.125</ele>
<time>2018-01-10T01:32:03.377Z</time>
</trkpt>
<trkpt lat="-26.8008824" lon="152.9049227">
<ele>288.735</ele>
<time>2018-01-10T01:32:05.348Z</time>
</trkpt>
<trkpt lat="-26.8006328" lon="152.9051136">
<ele>290.152</ele>
<time>2018-01-10T01:32:07.235Z</time>
</trkpt>
<trkpt lat="-26.8004302" lon="152.9054502">
<ele>290.956</ele>
<time>2018-01-10T01:32:09.492Z</time>
</trkpt>
<trkpt lat="-26.8002905" lon="152.9058070">
<ele>291.058</ele>
<time>2018-01-10T01:32:11.607Z</time>
</trkpt>
<trkpt lat="-26.8002623" lon="152.9062014">
<ele>290.707</ele>
<time>2018-01-10T01:32:13.825Z</time>
</trkpt>
<trkpt lat="-26.8002723" lon="152.9065521">
<ele>290.325</ele>
<time>2018-01-10T01:32:15.968Z</time>
</trkpt>
<trkpt lat="-26.8002549" lon="152.9069002">
<ele>290.238</ele>
<time>2018-01-10T01:32:18.043Z</time>
</trkpt>
<trkpt lat="-26.8003158" lon="152.9072396">
<ele>290.491</ele>
<time>2018-01-10T01:32:19.921Z</time>
</trkpt>
<trkpt lat="-26.8004540" lon="152.9076021">
<ele>290.970</ele>
<time>2018-01-10T01:32:22.002Z</time>
</trkpt>
<trkpt lat="-26.8004759" lon="152.9079156">
<ele>291.580</ele>
<time>2018-01-10T01:32:23.719Z</time>
</trkpt>
<trkpt lat="-26.8003252" lon="152.9081717">
<ele>292.200</ele>
<time>2018-01-10T01:32:25.394Z</time>
</trkpt>
<trkpt lat="-26.8001060" lon="152.9084417">
<ele>292.664</ele>
<time>2018-01-10T01:32:27.381Z</time>
</trkpt>
<trkpt lat="-26.7997915" lon="152.9086479">
<ele>292.931</ele>
<time>2018-01-10T01:32:29.697Z</time>
</trkpt>
<trkpt lat="-26.7994876" lon="152.9087721">
<ele>293.103</ele>
<time>2018-01-10T01:32:31.777Z</time>
</trkpt>
<trkpt lat="-26.7991981" lon="152.9089154">
<ele>293.264</ele>
<time>2018-01-10T01:32:33.668Z</time>
</trkpt>
<trkpt lat="-26.7988827" lon="152.9090779">
<ele>293.424</ele>
<time>2018-01-10T01:32:35.631Z</time>
</trkpt>
<trkpt lat="-26.7985879" lon="152.9091781">
<ele>293.649</ele>
<time>2018-01-10T01:32:37.313Z</time>
</trkpt>
<trkpt lat="-26.7983177" lon="152.9092039">
<ele>294.202</ele>
<time>2018-01-10T01:32:38.771Z</time>
</trkpt>
<trkpt lat="-26.7979824" lon="152.9090739">
<ele>295.089</ele>
<time>2018-01-10T01:32:40.664Z</time>
</trkpt>
<trkpt lat="-26.7976362" lon="152.9089832">
<ele>295.958</ele>
<time>2018-01-10T01:32:42.566Z</time>
</trkpt>
<trkpt lat="-26.7972703" lon="152.9089116">
<ele>296.553</ele>
<time>2018-01-10T01:32:44.570Z</time>
</trkpt>
<trkpt lat="-26.7968770" lon="152.9088523">
<ele>296.836</ele>
<time>2018-01-10T01:32:46.741Z</time>
</trkpt>
<trkpt lat="-26.7965735" lon="152.9086278">
<ele>296.869</ele>
<time>2018-01-10T01:32:48.832Z</time>
</trkpt>
<trkpt lat="-26.7962915" lon="152.9084036">
<ele>296.942</ele>
<time>2018-01-10T01:32:51.086Z</time>
</trkpt>
<trkpt lat="-26.7959720" lon="152.9081739">
<ele>297.523</ele>
<time>2018-01-10T01:32:53.861Z</time>
</trkpt>
<trkpt lat="-26.7956827" lon="152.9079025">
<ele>298.963</ele>
<time>2018-01-10T01:32:56.421Z</time>
</trkpt>
<trkpt lat="-26.7954082" lon="152.9076920">
<ele>301.247</ele>
<time>2018-01-10T01:32:58.567Z</time>
</trkpt>
<trkpt lat="-26.7951582" lon="152.9075291">
<ele>304.170</ele>
<time>2018-01-10T01:33:00.489Z</time>
</trkpt>
<trkpt lat="-26.7949907" lon="152.9073608">
<ele>307.601</ele>
<time>2018-01-10T01:33:02.090Z</time>
</trkpt>
<trkpt lat="-26.7949161" lon="152.9070326">
<ele>311.485</ele>
<time>2018-01-10T01:33:04.354Z</time>
</trkpt>
<trkpt lat="-26.7950235" lon="152.9066692">
<ele>315.666</ele>
<time>2018-01-10T01:33:06.691Z</time>
</trkpt>
<trkpt lat="-26.7951185" lon="152.9063278">
<ele>319.819</ele>
<time>2018-01-10T01:33:08.754Z</time>
</trkpt>
<trkpt lat="-26.7951018" lon="152.9060081">
<ele>323.632</ele>
<time>2018-01-10T01:33:10.643Z</time>
</trkpt>
<trkpt lat="-26.7949633" lon="152.9057499">
<ele>326.912</ele>
<time>2018-01-10T01:33:12.496Z</time>
</trkpt>
<trkpt lat="-26.7947032" lon="152.9056378">
<ele>329.672</ele>
<time>2018-01-10T01:33:14.429Z</time>
</trkpt>
<trkpt lat="-26.7943942" lon="152.9055180">
<ele>332.165</ele>
<time>2018-01-10T01:33:16.630Z</time>
</trkpt>
<trkpt lat="-26.7941201" lon="152.9053539">
<ele>334.743</ele>
<time>2018-01-10T01:33:18.664Z</time>
</trkpt>
<trkpt lat="-26.7938538" lon="152.9052444">
<ele>337.457</ele>
<time>2018-01-10T01:33:20.484Z</time>
</trkpt>
<trkpt lat="-26.7935995" lon="152.9052116">
<ele>339.902</ele>
<time>2018-01-10T01:33:22.082Z</time>
</trkpt>
<trkpt lat="-26.7932335" lon="152.9055348">
<ele>341.682</ele>
<time>2018-01-10T01:33:24.938Z</time>
</trkpt>
<trkpt lat="-26.7929565" lon="152.9057587">
<ele>342.776</ele>
<time>2018-01-10T01:33:27.068Z</time>
</trkpt>
<trkpt lat="-26.7927118" lon="152.9060014">
<ele>343.322</ele>
<time>2018-01-10T01:33:29.008Z</time>
</trkpt>
<trkpt lat="-26.7924721" lon="152.9062368">
<ele>343.464</ele>
<time>2018-01-10T01:33:30.709Z</time>
</trkpt>
<trkpt lat="-26.7922133" lon="152.9064932">
<ele>343.181</ele>
<time>2018-01-10T01:33:32.478Z</time>
</trkpt>
<trkpt lat="-26.7920111" lon="152.9067820">
<ele>342.354</ele>
<time>2018-01-10T01:33:34.149Z</time>
</trkpt>
<trkpt lat="-26.7918693" lon="152.9071251">
<ele>341.036</ele>
<time>2018-01-10T01:33:35.900Z</time>
</trkpt>
<trkpt lat="-26.7917780" lon="152.9076014">
<ele>339.297</ele>
<time>2018-01-10T01:33:38.242Z</time>
</trkpt>
<trkpt lat="-26.7916745" lon="152.9080351">
<ele>337.197</ele>
<time>2018-01-10T01:33:40.520Z</time>
</trkpt>
<trkpt lat="-26.7915690" lon="152.9084445">
<ele>335.257</ele>
<time>2018-01-10T01:33:42.797Z</time>
</trkpt>
<trkpt lat="-26.7914770" lon="152.9088289">
<ele>334.126</ele>
<time>2018-01-10T01:33:44.992Z</time>
</trkpt>
<trkpt lat="-26.7913859" lon="152.9092095">
<ele>333.888</ele>
<time>2018-01-10T01:33:47.083Z</time>
</trkpt>
<trkpt lat="-26.7913192" lon="152.9095772">
<ele>334.280</ele>
<time>2018-01-10T01:33:48.937Z</time>
</trkpt>
<trkpt lat="-26.7914551" lon="152.9099626">
<ele>335.209</ele>
<time>2018-01-10T01:33:50.909Z</time>
</trkpt>
<trkpt lat="-26.7915283" lon="152.9103177">
<ele>336.654</ele>
<time>2018-01-10T01:33:52.619Z</time>
</trkpt>
<trkpt lat="-26.7914313" lon="152.9106539">
<ele>338.482</ele>
<time>2018-01-10T01:33:54.259Z</time>
</trkpt>
<trkpt lat="-26.7912318" lon="152.9109871">
<ele>340.687</ele>
<time>2018-01-10T01:33:56.115Z</time>
</trkpt>
<trkpt lat="-26.7910120" lon="152.9113237">
<ele>343.397</ele>
<time>2018-01-10T01:33:58.061Z</time>
</trkpt>
<trkpt lat="-26.7908531" lon="152.9117032">
<ele>346.427</ele>
<time>2018-01-10T01:34:00.041Z</time>
</trkpt>
<trkpt lat="-26.7907583" lon="152.9121123">
<ele>349.209</ele>
<time>2018-01-10T01:34:02.047Z</time>
</trkpt>
<trkpt lat="-26.7907508" lon="152.9125662">
<ele>351.206</ele>
<time>2018-01-10T01:34:04.234Z</time>
</trkpt>
<trkpt lat="-26.7907193" lon="152.9129883">
<ele>352.304</ele>
<time>2018-01-10T01:34:06.334Z</time>
</trkpt>
<trkpt lat="-26.7906869" lon="152.9134017">
<ele>352.933</ele>
<time>2018-01-10T01:34:08.434Z</time>
</trkpt>
<trkpt lat="-26.7906434" lon="152.9138083">
<ele>353.712</ele>
<time>2018-01-10T01:34:10.550Z</time>
</trkpt>
<trkpt lat="-26.7906257" lon="152.9142073">
<ele>355.061</ele>
<time>2018-01-10T01:34:12.611Z</time>
</trkpt>
<trkpt lat="-26.7906546" lon="152.9145948">
<ele>357.118</ele>
<time>2018-01-10T01:34:14.544Z</time>
</trkpt>
<trkpt lat="-26.7907863" lon="152.9149847">
<ele>359.686</ele>
<time>2018-01-10T01:34:16.529Z</time>
</trkpt>
<trkpt lat="-26.7908876" lon="152.9153297">
<ele>362.398</ele>
<time>2018-01-10T01:34:18.211Z</time>
</trkpt>
<trkpt lat="-26.7909552" lon="152.9156855">
<ele>365.004</ele>
<time>2018-01-10T01:34:19.913Z</time>
</trkpt>
<trkpt lat="-26.7909831" lon="152.9160671">
<ele>367.452</ele>
<time>2018-01-10T01:34:21.762Z</time>
</trkpt>
<trkpt lat="-26.7910142" lon="152.9164994">
<ele>369.882</ele>
<time>2018-01-10T01:34:23.971Z</time>
</trkpt>
<trkpt lat="-26.7910605" lon="152.9169494">
<ele>372.377</ele>
<time>2018-01-10T01:34:26.489Z</time>
</trkpt>
<trkpt lat="-26.7911244" lon="152.9173522">
<ele>374.759</ele>
<time>2018-01-10T01:34:28.989Z</time>
</trkpt>
<trkpt lat="-26.7912476" lon="152.9177194">
<ele>376.840</ele>
<time>2018-01-10T01:34:31.530Z</time>
</trkpt>
<trkpt lat="-26.7913615" lon="152.9180832">
<ele>378.545</ele>
<time>2018-01-10T01:34:34.139Z</time>
</trkpt>
<trkpt lat="-26.7914767" lon="152.9184002">
<ele>380.001</ele>
<time>2018-01-10T01:34:36.493Z</time>
</trkpt>
<trkpt lat="-26.7915734" lon="152.9186882">
<ele>381.452</ele>
<time>2018-01-10T01:34:38.638Z</time>
</trkpt>
<trkpt lat="-26.7915778" lon="152.9189977">
<ele>382.832</ele>
<time>2018-01-10T01:34:40.992Z</time>
</trkpt>
<trkpt lat="-26.7915203" lon="152.9192872">
<ele>383.891</ele>
<time>2018-01-10T01:34:43.900Z</time>
</trkpt>
<trkpt lat="-26.7914172" lon="152.9195462">
<ele>384.648</ele>
<time>2018-01-10T01:34:47.153Z</time>
</trkpt>
<trkpt lat="-26.7911829" lon="152.9197235">
<ele>385.192</ele>
<time>2018-01-10T01:34:50.681Z</time>
</trkpt>
<trkpt lat="-26.7909760" lon="152.9199110">
<ele>385.391</ele>
<time>2018-01-10T01:34:53.725Z</time>
</trkpt>
<trkpt lat="-26.7907603" lon="152.9200612">
<ele>385.066</ele>
<time>2018-01-10T01:34:56.345Z</time>
</trkpt>
<trkpt lat="-26.7905779" lon="152.9201637">
<ele>384.369</ele>
<time>2018-01-10T01:34:58.330Z</time>
</trkpt>
<trkpt lat="-26.7904534" lon="152.9202553">
<ele>383.560</ele>
<time>2018-01-10T01:34:59.794Z</time>
</trkpt>
<trkpt lat="-26.7904064" lon="152.9204067">
<ele>382.534</ele>
<time>2018-01-10T01:35:01.268Z</time>
</trkpt>
<trkpt lat="-26.7903847" lon="152.9206041">
<ele>381.133</ele>
<time>2018-01-10T01:35:03.461Z</time>
</trkpt>
<trkpt lat="-26.7903697" lon="152.9207899">
<ele>379.479</ele>
<time>2018-01-10T01:35:06.111Z</time>
</trkpt>
<trkpt lat="-26.7903395" lon="152.9209763">
<ele>377.711</ele>
<time>2018-01-10T01:35:08.659Z</time>
</trkpt>
<trkpt lat="-26.7903292" lon="152.9212103">
<ele>375.984</ele>
<time>2018-01-10T01:35:10.751Z</time>
</trkpt>
<trkpt lat="-26.7903084" lon="152.9214428">
<ele>374.480</ele>
<time>2018-01-10T01:35:12.464Z</time>
</trkpt>
<trkpt lat="-26.7902855" lon="152.9216916">
<ele>373.148</ele>
<time>2018-01-10T01:35:14.149Z</time>
</trkpt>
<trkpt lat="-26.7902341" lon="152.9219242">
<ele>371.593</ele>
<time>2018-01-10T01:35:15.626Z</time>
</trkpt>
<trkpt lat="-26.7901975" lon="152.9221222">
<ele>369.507</ele>
<time>2018-01-10T01:35:16.784Z</time>
</trkpt>
<trkpt lat="-26.7901957" lon="152.9222413">
<ele>367.275</ele>
<time>2018-01-10T01:35:17.444Z</time>
</trkpt>
<trkpt lat="-26.7900832" lon="152.9223256">
<ele>365.602</ele>
<time>2018-01-10T01:35:18.266Z</time>
</trkpt>
<trkpt lat="-26.7899302" lon="152.9222628">
<ele>364.741</ele>
<time>2018-01-10T01:35:19.215Z</time>
</trkpt>
<trkpt lat="-26.7897404" lon="152.9221153">
<ele>364.642</ele>
<time>2018-01-10T01:35:20.575Z</time>
</trkpt>
<trkpt lat="-26.7895371" lon="152.9219445">
<ele>365.254</ele>
<time>2018-01-10T01:35:22.099Z</time>
</trkpt>
<trkpt lat="-26.7893342" lon="152.9217420">
<ele>366.370</ele>
<time>2018-01-10T01:35:23.791Z</time>
</trkpt>
<trkpt lat="-26.7890527" lon="152.9215438">
<ele>367.690</ele>
<time>2018-01-10T01:35:25.789Z</time>
</trkpt>
<trkpt lat="-26.7887423" lon="152.9213828">
<ele>369.006</ele>
<time>2018-01-10T01:35:27.699Z</time>
</trkpt>
<trkpt lat="-26.7884413" lon="152.9212338">
<ele>370.239</ele>
<time>2018-01-10T01:35:29.449Z</time>
</trkpt>
<trkpt lat="-26.7881515" lon="152.9211153">
<ele>371.244</ele>
<time>2018-01-10T01:35:31.055Z</time>
</trkpt>
<trkpt lat="-26.7878589" lon="152.9209867">
<ele>371.856</ele>
<time>2018-01-10T01:35:32.686Z</time>
</trkpt>
<trkpt lat="-26.7875212" lon="152.9208689">
<ele>372.118</ele>
<time>2018-01-10T01:35:34.538Z</time>
</trkpt>
<trkpt lat="-26.7871537" lon="152.9207362">
<ele>372.305</ele>
<time>2018-01-10T01:35:36.575Z</time>
</trkpt>
<trkpt lat="-26.7867968" lon="152.9206347">
<ele>372.833</ele>
<time>2018-01-10T01:35:38.515Z</time>
</trkpt>
<trkpt lat="-26.7864063" lon="152.9205625">
<ele>373.945</ele>
<time>2018-01-10T01:35:40.608Z</time>
</trkpt>
<trkpt lat="-26.7860271" lon="152.9204958">
<ele>375.379</ele>
<time>2018-01-10T01:35:42.653Z</time>
</trkpt>
<trkpt lat="-26.7856518" lon="152.9204212">
<ele>376.702</ele>
<time>2018-01-10T01:35:44.719Z</time>
</trkpt>
<trkpt lat="-26.7852843" lon="152.9203581">
<ele>377.841</ele>
<time>2018-01-10T01:35:46.756Z</time>
</trkpt>
<trkpt lat="-26.7849137" lon="152.9203692">
<ele>379.010</ele>
<time>2018-01-10T01:35:48.756Z</time>
</trkpt>
<trkpt lat="-26.7843706" lon="152.9204363">
<ele>380.291</ele>
<time>2018-01-10T01:35:51.617Z</time>
</trkpt>
<trkpt lat="-26.7840230" lon="152.9203975">
<ele>381.808</ele>
<time>2018-01-10T01:35:53.406Z</time>
</trkpt>
<trkpt lat="-26.7836916" lon="152.9202770">
<ele>383.750</ele>
<time>2018-01-10T01:35:55.175Z</time>
</trkpt>
<trkpt lat="-26.7833453" lon="152.9201336">
<ele>385.908</ele>
<time>2018-01-10T01:35:57.034Z</time>
</trkpt>
<trkpt lat="-26.7829878" lon="152.9199967">
<ele>387.835</ele>
<time>2018-01-10T01:35:58.917Z</time>
</trkpt>
<trkpt lat="-26.7826223" lon="152.9198498">
<ele>389.442</ele>
<time>2018-01-10T01:36:00.827Z</time>
</trkpt>
<trkpt lat="-26.7822805" lon="152.9196441">
<ele>390.887</ele>
<time>2018-01-10T01:36:02.717Z</time>
</trkpt>
<trkpt lat="-26.7819194" lon="152.9194563">
<ele>392.263</ele>
<time>2018-01-10T01:36:04.676Z</time>
</trkpt>
<trkpt lat="-26.7815954" lon="152.9192349">
<ele>393.560</ele>
<time>2018-01-10T01:36:06.578Z</time>
</trkpt>
<trkpt lat="-26.7813302" lon="152.9188538">
<ele>394.602</ele>
<time>2018-01-10T01:36:08.739Z</time>
</trkpt>
<trkpt lat="-26.7810648" lon="152.9185204">
<ele>395.034</ele>
<time>2018-01-10T01:36:10.689Z</time>
</trkpt>
<trkpt lat="-26.7808186" lon="152.9181918">
<ele>394.728</ele>
<time>2018-01-10T01:36:12.558Z</time>
</trkpt>
<trkpt lat="-26.7806365" lon="152.9178012">
<ele>393.951</ele>
<time>2018-01-10T01:36:14.524Z</time>
</trkpt>
<trkpt lat="-26.7805406" lon="152.9173622">
<ele>393.154</ele>
<time>2018-01-10T01:36:16.588Z</time>
</trkpt>
<trkpt lat="-26.7804556" lon="152.9169149">
<ele>392.809</ele>
<time>2018-01-10T01:36:18.703Z</time>
</trkpt>
<trkpt lat="-26.7803557" lon="152.9164941">
<ele>393.176</ele>
<time>2018-01-10T01:36:20.747Z</time>
</trkpt>
<trkpt lat="-26.7802944" lon="152.9160789">
<ele>394.122</ele>
<time>2018-01-10T01:36:22.763Z</time>
</trkpt>
<trkpt lat="-26.7802327" lon="152.9156549">
<ele>395.285</ele>
<time>2018-01-10T01:36:24.833Z</time>
</trkpt>
<trkpt lat="-26.7801684" lon="152.9152285">
<ele>396.362</ele>
<time>2018-01-10T01:36:26.895Z</time>
</trkpt>
<trkpt lat="-26.7800666" lon="152.9148652">
<ele>397.240</ele>
<time>2018-01-10T01:36:28.665Z</time>
</trkpt>
<trkpt lat="-26.7799688" lon="152.9144518">
<ele>397.856</ele>
<time>2018-01-10T01:36:30.610Z</time>
</trkpt>
<trkpt lat="-26.7798608" lon="152.9140588">
<ele>398.142</ele>
<time>2018-01-10T01:36:32.445Z</time>
</trkpt>
<trkpt lat="-26.7797563" lon="152.9136491">
<ele>398.177</ele>
<time>2018-01-10T01:36:34.309Z</time>
</trkpt>
<trkpt lat="-26.7796776" lon="152.9132319">
<ele>398.160</ele>
<time>2018-01-10T01:36:36.151Z</time>
</trkpt>
<trkpt lat="-26.7795639" lon="152.9128137">
<ele>398.235</ele>
<time>2018-01-10T01:36:38.032Z</time>
</trkpt>
<trkpt lat="-26.7794065" lon="152.9124028">
<ele>398.557</ele>
<time>2018-01-10T01:36:40.003Z</time>
</trkpt>
<trkpt lat="-26.7792936" lon="152.9119513">
<ele>399.345</ele>
<time>2018-01-10T01:36:42.132Z</time>
</trkpt>
<trkpt lat="-26.7790840" lon="152.9113255">
<ele>400.519</ele>
<time>2018-01-10T01:36:45.177Z</time>
</trkpt>
<trkpt lat="-26.7789829" lon="152.9109131">
<ele>401.769</ele>
<time>2018-01-10T01:36:47.159Z</time>
</trkpt>
<trkpt lat="-26.7789071" lon="152.9104935">
<ele>403.016</ele>
<time>2018-01-10T01:36:49.228Z</time>
</trkpt>
<trkpt lat="-26.7789085" lon="152.9100405">
<ele>404.302</ele>
<time>2018-01-10T01:36:51.520Z</time>
</trkpt>
<trkpt lat="-26.7788954" lon="152.9096321">
<ele>405.619</ele>
<time>2018-01-10T01:36:53.564Z</time>
</trkpt>
<trkpt lat="-26.7788734" lon="152.9092326">
<ele>406.913</ele>
<time>2018-01-10T01:36:55.481Z</time>
</trkpt>
<trkpt lat="-26.7788261" lon="152.9088679">
<ele>407.989</ele>
<time>2018-01-10T01:36:57.183Z</time>
</trkpt>
<trkpt lat="-26.7786943" lon="152.9084982">
<ele>408.639</ele>
<time>2018-01-10T01:36:58.976Z</time>
</trkpt>
<trkpt lat="-26.7785654" lon="152.9081209">
<ele>408.688</ele>
<time>2018-01-10T01:37:00.786Z</time>
</trkpt>
<trkpt lat="-26.7784375" lon="152.9077231">
<ele>407.992</ele>
<time>2018-01-10T01:37:02.715Z</time>
</trkpt>
<trkpt lat="-26.7783504" lon="152.9073008">
<ele>406.599</ele>
<time>2018-01-10T01:37:04.753Z</time>
</trkpt>
<trkpt lat="-26.7782468" lon="152.9068839">
<ele>404.770</ele>
<time>2018-01-10T01:37:06.886Z</time>
</trkpt>
<trkpt lat="-26.7781666" lon="152.9064705">
<ele>403.071</ele>
<time>2018-01-10T01:37:09.127Z</time>
</trkpt>
<trkpt lat="-26.7781353" lon="152.9061016">
<ele>402.304</ele>
<time>2018-01-10T01:37:11.210Z</time>
</trkpt>
<trkpt lat="-26.7780511" lon="152.9057173">
<ele>402.744</ele>
<time>2018-01-10T01:37:13.517Z</time>
</trkpt>
<trkpt lat="-26.7779945" lon="152.9053775">
<ele>403.874</ele>
<time>2018-01-10T01:37:15.520Z</time>
</trkpt>
<trkpt lat="-26.7779305" lon="152.9050335">
<ele>405.262</ele>
<time>2018-01-10T01:37:17.498Z</time>
</trkpt>
<trkpt lat="-26.7778576" lon="152.9046941">
<ele>406.951</ele>
<time>2018-01-10T01:37:19.331Z</time>
</trkpt>
<trkpt lat="-26.7778043" lon="152.9043835">
<ele>408.882</ele>
<time>2018-01-10T01:37:20.941Z</time>
</trkpt>
<trkpt lat="-26.7777080" lon="152.9038606">
<ele>410.837</ele>
<time>2018-01-10T01:37:23.600Z</time>
</trkpt>
<trkpt lat="-26.7775409" lon="152.9033220">
<ele>412.887</ele>
<time>2018-01-10T01:37:26.443Z</time>
</trkpt>
<trkpt lat="-26.7773836" lon="152.9027602">
<ele>415.141</ele>
<time>2018-01-10T01:37:29.399Z</time>
</trkpt>
<trkpt lat="-26.7771760" lon="152.9022311">
<ele>417.249</ele>
<time>2018-01-10T01:37:32.372Z</time>
</trkpt>
<trkpt lat="-26.7770327" lon="152.9016712">
<ele>418.675</ele>
<time>2018-01-10T01:37:35.391Z</time>
</trkpt>
<trkpt lat="-26.7768514" lon="152.9011503">
<ele>419.440</ele>
<time>2018-01-10T01:37:38.230Z</time>
</trkpt>
<trkpt lat="-26.7764460" lon="152.9007833">
<ele>419.903</ele>
<time>2018-01-10T01:37:41.186Z</time>
</trkpt>
<trkpt lat="-26.7759654" lon="152.9004772">
<ele>420.203</ele>
<time>2018-01-10T01:37:44.377Z</time>
</trkpt>
<trkpt lat="-26.7755617" lon="152.9001616">
<ele>420.415</ele>
<time>2018-01-10T01:37:47.205Z</time>
</trkpt>
<trkpt lat="-26.7752684" lon="152.8997082">
<ele>421.094</ele>
<time>2018-01-10T01:37:49.992Z</time>
</trkpt>
<trkpt lat="-26.7751714" lon="152.8991242">
<ele>422.919</ele>
<time>2018-01-10T01:37:52.865Z</time>
</trkpt>
<trkpt lat="-26.7751763" lon="152.8985232">
<ele>425.755</ele>
<time>2018-01-10T01:37:55.733Z</time>
</trkpt>
<trkpt lat="-26.7752789" lon="152.8979224">
<ele>428.692</ele>
<time>2018-01-10T01:37:58.602Z</time>
</trkpt>
<trkpt lat="-26.7753755" lon="152.8973080">
<ele>431.024</ele>
<time>2018-01-10T01:38:01.533Z</time>
</trkpt>
<trkpt lat="-26.7754202" lon="152.8966800">
<ele>432.533</ele>
<time>2018-01-10T01:38:04.643Z</time>
</trkpt>
<trkpt lat="-26.7752309" lon="152.8961060">
<ele>433.351</ele>
<time>2018-01-10T01:38:07.928Z</time>
</trkpt>
<trkpt lat="-26.7751527" lon="152.8955474">
<ele>433.761</ele>
<time>2018-01-10T01:38:11.132Z</time>
</trkpt>
<trkpt lat="-26.7751070" lon="152.8952185">
<ele>434.154</ele>
<time>2018-01-10T01:38:13.062Z</time>
</trkpt>
<trkpt lat="-26.7752557" lon="152.8947290">
<ele>434.834</ele>
<time>2018-01-10T01:38:16.140Z</time>
</trkpt>
<trkpt lat="-26.7754692" lon="152.8942804">
<ele>435.869</ele>
<time>2018-01-10T01:38:19.175Z</time>
</trkpt>
<trkpt lat="-26.7757259" lon="152.8938706">
<ele>437.008</ele>
<time>2018-01-10T01:38:22.508Z</time>
</trkpt>
<trkpt lat="-26.7758943" lon="152.8934215">
<ele>437.768</ele>
<time>2018-01-10T01:38:26.716Z</time>
</trkpt>
<trkpt lat="-26.7758939" lon="152.8930235">
<ele>437.837</ele>
<time>2018-01-10T01:38:29.618Z</time>
</trkpt>
<trkpt lat="-26.7759557" lon="152.8927604">
<ele>437.381</ele>
<time>2018-01-10T01:38:31.357Z</time>
</trkpt>
<trkpt lat="-26.7761809" lon="152.8926341">
<ele>436.638</ele>
<time>2018-01-10T01:38:33.078Z</time>
</trkpt>
<trkpt lat="-26.7763659" lon="152.8924078">
<ele>435.809</ele>
<time>2018-01-10T01:38:34.994Z</time>
</trkpt>
<trkpt lat="-26.7765261" lon="152.8921348">
<ele>435.119</ele>
<time>2018-01-10T01:38:37.014Z</time>
</trkpt>
<trkpt lat="-26.7767042" lon="152.8918661">
<ele>434.540</ele>
<time>2018-01-10T01:38:38.960Z</time>
</trkpt>
<trkpt lat="-26.7769167" lon="152.8917088">
<ele>433.926</ele>
<time>2018-01-10T01:38:40.589Z</time>
</trkpt>
<trkpt lat="-26.7772221" lon="152.8916418">
<ele>433.351</ele>
<time>2018-01-10T01:38:42.592Z</time>
</trkpt>
<trkpt lat="-26.7775358" lon="152.8915588">
<ele>432.788</ele>
<time>2018-01-10T01:38:44.690Z</time>
</trkpt>
<trkpt lat="-26.7778245" lon="152.8914374">
<ele>432.047</ele>
<time>2018-01-10T01:38:46.698Z</time>
</trkpt>
<trkpt lat="-26.7781097" lon="152.8913359">
<ele>431.215</ele>
<time>2018-01-10T01:38:48.627Z</time>
</trkpt>
<trkpt lat="-26.7783968" lon="152.8912041">
<ele>430.514</ele>
<time>2018-01-10T01:38:50.625Z</time>
</trkpt>
<trkpt lat="-26.7785897" lon="152.8909277">
<ele>429.945</ele>
<time>2018-01-10T01:38:52.663Z</time>
</trkpt>
<trkpt lat="-26.7787872" lon="152.8906717">
<ele>429.242</ele>
<time>2018-01-10T01:38:54.651Z</time>
</trkpt>
<trkpt lat="-26.7790057" lon="152.8904348">
<ele>428.272</ele>
<time>2018-01-10T01:38:56.675Z</time>
</trkpt>
<trkpt lat="-26.7792193" lon="152.8901984">
<ele>427.202</ele>
<time>2018-01-10T01:38:58.713Z</time>
</trkpt>
<trkpt lat="-26.7794262" lon="152.8899692">
<ele>426.231</ele>
<time>2018-01-10T01:39:00.755Z</time>
</trkpt>
<trkpt lat="-26.7796237" lon="152.8897272">
<ele>425.414</ele>
<time>2018-01-10T01:39:02.845Z</time>
</trkpt>
<trkpt lat="-26.7797853" lon="152.8894610">
<ele>424.731</ele>
<time>2018-01-10T01:39:04.874Z</time>
</trkpt>
<trkpt lat="-26.7799018" lon="152.8892080">
<ele>424.151</ele>
<time>2018-01-10T01:39:06.652Z</time>
</trkpt>
<trkpt lat="-26.7800157" lon="152.8889310">
<ele>423.622</ele>
<time>2018-01-10T01:39:08.562Z</time>
</trkpt>
<trkpt lat="-26.7801345" lon="152.8886559">
<ele>423.139</ele>
<time>2018-01-10T01:39:10.452Z</time>
</trkpt>
<trkpt lat="-26.7802874" lon="152.8884142">
<ele>422.858</ele>
<time>2018-01-10T01:39:12.238Z</time>
</trkpt>
<trkpt lat="-26.7804599" lon="152.8881353">
<ele>422.926</ele>
<time>2018-01-10T01:39:14.230Z</time>
</trkpt>
<trkpt lat="-26.7805907" lon="152.8878347">
<ele>423.343</ele>
<time>2018-01-10T01:39:16.145Z</time>
</trkpt>
<trkpt lat="-26.7807214" lon="152.8875605">
<ele>424.146</ele>
<time>2018-01-10T01:39:17.909Z</time>
</trkpt>
<trkpt lat="-26.7807930" lon="152.8871998">
<ele>425.258</ele>
<time>2018-01-10T01:39:20.025Z</time>
</trkpt>
<trkpt lat="-26.7807997" lon="152.8868459">
<ele>426.275</ele>
<time>2018-01-10T01:39:22.074Z</time>
</trkpt>
<trkpt lat="-26.7808643" lon="152.8865301">
<ele>426.782</ele>
<time>2018-01-10T01:39:23.935Z</time>
</trkpt>
<trkpt lat="-26.7809394" lon="152.8862083">
<ele>426.701</ele>
<time>2018-01-10T01:39:25.806Z</time>
</trkpt>
<trkpt lat="-26.7809876" lon="152.8858798">
<ele>426.108</ele>
<time>2018-01-10T01:39:27.635Z</time>
</trkpt>
<trkpt lat="-26.7810489" lon="152.8855162">
<ele>425.138</ele>
<time>2018-01-10T01:39:29.646Z</time>
</trkpt>
<trkpt lat="-26.7811150" lon="152.8851592">
<ele>423.951</ele>
<time>2018-01-10T01:39:31.656Z</time>
</trkpt>
<trkpt lat="-26.7811719" lon="152.8848011">
<ele>422.713</ele>
<time>2018-01-10T01:39:33.742Z</time>
</trkpt>
<trkpt lat="-26.7812296" lon="152.8844413">
<ele>421.702</ele>
<time>2018-01-10T01:39:35.950Z</time>
</trkpt>
<trkpt lat="-26.7812718" lon="152.8841316">
<ele>421.163</ele>
<time>2018-01-10T01:39:37.878Z</time>
</trkpt>
<trkpt lat="-26.7813238" lon="152.8838250">
<ele>421.047</ele>
<time>2018-01-10T01:39:39.764Z</time>
</trkpt>
<trkpt lat="-26.7813775" lon="152.8835192">
<ele>421.179</ele>
<time>2018-01-10T01:39:41.605Z</time>
</trkpt>
<trkpt lat="-26.7814343" lon="152.8832043">
<ele>421.435</ele>
<time>2018-01-10T01:39:43.484Z</time>
</trkpt>
<trkpt lat="-26.7814948" lon="152.8828697">
<ele>421.832</ele>
<time>2018-01-10T01:39:45.491Z</time>
</trkpt>
<trkpt lat="-26.7815666" lon="152.8825254">
<ele>422.525</ele>
<time>2018-01-10T01:39:47.595Z</time>
</trkpt>
<trkpt lat="-26.7816460" lon="152.8822278">
<ele>423.455</ele>
<time>2018-01-10T01:39:49.467Z</time>
</trkpt>
<trkpt lat="-26.7817066" lon="152.8819033">
<ele>424.406</ele>
<time>2018-01-10T01:39:51.520Z</time>
</trkpt>
<trkpt lat="-26.7817746" lon="152.8815863">
<ele>425.388</ele>
<time>2018-01-10T01:39:53.592Z</time>
</trkpt>
<trkpt lat="-26.7818293" lon="152.8812905">
<ele>426.451</ele>
<time>2018-01-10T01:39:55.515Z</time>
</trkpt>
<trkpt lat="-26.7818460" lon="152.8809774">
<ele>427.417</ele>
<time>2018-01-10T01:39:57.469Z</time>
</trkpt>
<trkpt lat="-26.7818166" lon="152.8806793">
<ele>428.073</ele>
<time>2018-01-10T01:39:59.296Z</time>
</trkpt>
<trkpt lat="-26.7817058" lon="152.8803924">
<ele>428.326</ele>
<time>2018-01-10T01:40:01.169Z</time>
</trkpt>
<trkpt lat="-26.7816028" lon="152.8800968">
<ele>428.290</ele>
<time>2018-01-10T01:40:03.021Z</time>
</trkpt>
<trkpt lat="-26.7815321" lon="152.8797761">
<ele>428.157</ele>
<time>2018-01-10T01:40:04.901Z</time>
</trkpt>
<trkpt lat="-26.7814780" lon="152.8794322">
<ele>427.959</ele>
<time>2018-01-10T01:40:06.874Z</time>
</trkpt>
<trkpt lat="-26.7814086" lon="152.8790935">
<ele>427.590</ele>
<time>2018-01-10T01:40:08.843Z</time>
</trkpt>
<trkpt lat="-26.7813252" lon="152.8787321">
<ele>427.069</ele>
<time>2018-01-10T01:40:10.939Z</time>
</trkpt>
<trkpt lat="-26.7812270" lon="152.8784139">
<ele>426.593</ele>
<time>2018-01-10T01:40:12.794Z</time>
</trkpt>
<trkpt lat="-26.7811625" lon="152.8780723">
<ele>426.419</ele>
<time>2018-01-10T01:40:14.709Z</time>
</trkpt>
<trkpt lat="-26.7810908" lon="152.8777114">
<ele>426.760</ele>
<time>2018-01-10T01:40:16.737Z</time>
</trkpt>
<trkpt lat="-26.7810578" lon="152.8773556">
<ele>427.588</ele>
<time>2018-01-10T01:40:18.668Z</time>
</trkpt>
<trkpt lat="-26.7810692" lon="152.8770236">
<ele>428.643</ele>
<time>2018-01-10T01:40:20.418Z</time>
</trkpt>
<trkpt lat="-26.7810769" lon="152.8766494">
<ele>429.856</ele>
<time>2018-01-10T01:40:22.353Z</time>
</trkpt>
<trkpt lat="-26.7810577" lon="152.8762742">
<ele>431.120</ele>
<time>2018-01-10T01:40:24.273Z</time>
</trkpt>
<trkpt lat="-26.7810848" lon="152.8758941">
<ele>431.873</ele>
<time>2018-01-10T01:40:26.217Z</time>
</trkpt>
<trkpt lat="-26.7810845" lon="152.8755195">
<ele>431.727</ele>
<time>2018-01-10T01:40:28.138Z</time>
</trkpt>
<trkpt lat="-26.7811167" lon="152.8751447">
<ele>431.023</ele>
<time>2018-01-10T01:40:30.082Z</time>
</trkpt>
<trkpt lat="-26.7811263" lon="152.8747588">
<ele>430.361</ele>
<time>2018-01-10T01:40:32.091Z</time>
</trkpt>
<trkpt lat="-26.7811373" lon="152.8743677">
<ele>430.051</ele>
<time>2018-01-10T01:40:34.147Z</time>
</trkpt>
<trkpt lat="-26.7811129" lon="152.8740028">
<ele>430.127</ele>
<time>2018-01-10T01:40:36.078Z</time>
</trkpt>
<trkpt lat="-26.7810983" lon="152.8736194">
<ele>430.627</ele>
<time>2018-01-10T01:40:38.111Z</time>
</trkpt>
<trkpt lat="-26.7810974" lon="152.8732485">
<ele>431.513</ele>
<time>2018-01-10T01:40:40.065Z</time>
</trkpt>
<trkpt lat="-26.7811298" lon="152.8728761">
<ele>432.453</ele>
<time>2018-01-10T01:40:41.972Z</time>
</trkpt>
<trkpt lat="-26.7811463" lon="152.8724771">
<ele>433.060</ele>
<time>2018-01-10T01:40:43.923Z</time>
</trkpt>
<trkpt lat="-26.7812371" lon="152.8720853">
<ele>433.234</ele>
<time>2018-01-10T01:40:45.859Z</time>
</trkpt>
<trkpt lat="-26.7812455" lon="152.8716818">
<ele>433.076</ele>
<time>2018-01-10T01:40:47.793Z</time>
</trkpt>
<trkpt lat="-26.7812734" lon="152.8712749">
<ele>432.756</ele>
<time>2018-01-10T01:40:49.766Z</time>
</trkpt>
<trkpt lat="-26.7812522" lon="152.8708691">
<ele>432.554</ele>
<time>2018-01-10T01:40:51.732Z</time>
</trkpt>
<trkpt lat="-26.7812654" lon="152.8704668">
<ele>432.611</ele>
<time>2018-01-10T01:40:53.672Z</time>
</trkpt>
<trkpt lat="-26.7812836" lon="152.8700587">
<ele>432.781</ele>
<time>2018-01-10T01:40:55.639Z</time>
</trkpt>
<trkpt lat="-26.7813147" lon="152.8696531">
<ele>432.674</ele>
<time>2018-01-10T01:40:57.617Z</time>
</trkpt>
<trkpt lat="-26.7813793" lon="152.8692578">
<ele>431.848</ele>
<time>2018-01-10T01:40:59.607Z</time>
</trkpt>
<trkpt lat="-26.7814532" lon="152.8688914">
<ele>430.212</ele>
<time>2018-01-10T01:41:01.485Z</time>
</trkpt>
<trkpt lat="-26.7814962" lon="152.8685149">
<ele>428.261</ele>
<time>2018-01-10T01:41:03.374Z</time>
</trkpt>
<trkpt lat="-26.7815317" lon="152.8681219">
<ele>426.623</ele>
<time>2018-01-10T01:41:05.335Z</time>
</trkpt>
<trkpt lat="-26.7814319" lon="152.8677161">
<ele>425.443</ele>
<time>2018-01-10T01:41:07.356Z</time>
</trkpt>
<trkpt lat="-26.7811264" lon="152.8673984">
<ele>424.439</ele>
<time>2018-01-10T01:41:09.442Z</time>
</trkpt>
<trkpt lat="-26.7807454" lon="152.8671400">
<ele>423.404</ele>
<time>2018-01-10T01:41:11.598Z</time>
</trkpt>
<trkpt lat="-26.7804032" lon="152.8668809">
<ele>422.401</ele>
<time>2018-01-10T01:41:13.623Z</time>
</trkpt>
<trkpt lat="-26.7801075" lon="152.8666072">
<ele>421.664</ele>
<time>2018-01-10T01:41:15.544Z</time>
</trkpt>
<trkpt lat="-26.7798883" lon="152.8662575">
<ele>421.455</ele>
<time>2018-01-10T01:41:17.490Z</time>
</trkpt>
<trkpt lat="-26.7797109" lon="152.8658633">
<ele>421.777</ele>
<time>2018-01-10T01:41:19.592Z</time>
</trkpt>
<trkpt lat="-26.7795243" lon="152.8655393">
<ele>422.307</ele>
<time>2018-01-10T01:41:21.536Z</time>
</trkpt>
<trkpt lat="-26.7793529" lon="152.8652148">
<ele>422.800</ele>
<time>2018-01-10T01:41:23.524Z</time>
</trkpt>
<trkpt lat="-26.7791798" lon="152.8649173">
<ele>423.461</ele>
<time>2018-01-10T01:41:25.430Z</time>
</trkpt>
<trkpt lat="-26.7790153" lon="152.8646036">
<ele>424.421</ele>
<time>2018-01-10T01:41:27.351Z</time>
</trkpt>
<trkpt lat="-26.7788718" lon="152.8642326">
<ele>425.373</ele>
<time>2018-01-10T01:41:29.414Z</time>
</trkpt>
<trkpt lat="-26.7787704" lon="152.8638721">
<ele>425.982</ele>
<time>2018-01-10T01:41:31.314Z</time>
</trkpt>
<trkpt lat="-26.7786942" lon="152.8634698">
<ele>426.174</ele>
<time>2018-01-10T01:41:33.427Z</time>
</trkpt>
<trkpt lat="-26.7786700" lon="152.8630973">
<ele>426.055</ele>
<time>2018-01-10T01:41:35.408Z</time>
</trkpt>
<trkpt lat="-26.7786481" lon="152.8627379">
<ele>425.894</ele>
<time>2018-01-10T01:41:37.339Z</time>
</trkpt>
<trkpt lat="-26.7786355" lon="152.8624039">
<ele>426.135</ele>
<time>2018-01-10T01:41:39.116Z</time>
</trkpt>
<trkpt lat="-26.7786280" lon="152.8620351">
<ele>426.958</ele>
<time>2018-01-10T01:41:41.049Z</time>
</trkpt>
<trkpt lat="-26.7785797" lon="152.8616423">
<ele>427.892</ele>
<time>2018-01-10T01:41:43.095Z</time>
</trkpt>
<trkpt lat="-26.7785335" lon="152.8612471">
<ele>428.413</ele>
<time>2018-01-10T01:41:45.132Z</time>
</trkpt>
<trkpt lat="-26.7785213" lon="152.8608590">
<ele>428.416</ele>
<time>2018-01-10T01:41:47.108Z</time>
</trkpt>
<trkpt lat="-26.7785796" lon="152.8604675">
<ele>427.938</ele>
<time>2018-01-10T01:41:49.064Z</time>
</trkpt>
<trkpt lat="-26.7786906" lon="152.8600713">
<ele>427.018</ele>
<time>2018-01-10T01:41:51.000Z</time>
</trkpt>
<trkpt lat="-26.7788575" lon="152.8596600">
<ele>425.575</ele>
<time>2018-01-10T01:41:53.037Z</time>
</trkpt>
<trkpt lat="-26.7790066" lon="152.8592611">
<ele>423.525</ele>
<time>2018-01-10T01:41:54.991Z</time>
</trkpt>
<trkpt lat="-26.7791655" lon="152.8588646">
<ele>421.182</ele>
<time>2018-01-10T01:41:56.979Z</time>
</trkpt>
<trkpt lat="-26.7792663" lon="152.8584621">
<ele>419.110</ele>
<time>2018-01-10T01:41:58.993Z</time>
</trkpt>
<trkpt lat="-26.7793337" lon="152.8581080">
<ele>417.715</ele>
<time>2018-01-10T01:42:00.935Z</time>
</trkpt>
<trkpt lat="-26.7793984" lon="152.8578023">
<ele>417.242</ele>
<time>2018-01-10T01:42:02.825Z</time>
</trkpt>
<trkpt lat="-26.7794766" lon="152.8575431">
<ele>417.779</ele>
<time>2018-01-10T01:42:04.590Z</time>
</trkpt>
<trkpt lat="-26.7795238" lon="152.8572351">
<ele>418.965</ele>
<time>2018-01-10T01:42:06.673Z</time>
</trkpt>
<trkpt lat="-26.7796053" lon="152.8569692">
<ele>420.197</ele>
<time>2018-01-10T01:42:08.626Z</time>
</trkpt>
<trkpt lat="-26.7796859" lon="152.8567327">
<ele>421.273</ele>
<time>2018-01-10T01:42:10.399Z</time>
</trkpt>
<trkpt lat="-26.7797430" lon="152.8564464">
<ele>422.444</ele>
<time>2018-01-10T01:42:12.388Z</time>
</trkpt>
<trkpt lat="-26.7798234" lon="152.8561353">
<ele>423.899</ele>
<time>2018-01-10T01:42:14.451Z</time>
</trkpt>
<trkpt lat="-26.7799278" lon="152.8558241">
<ele>425.603</ele>
<time>2018-01-10T01:42:16.454Z</time>
</trkpt>
<trkpt lat="-26.7800710" lon="152.8555428">
<ele>427.375</ele>
<time>2018-01-10T01:42:18.339Z</time>
</trkpt>
<trkpt lat="-26.7802418" lon="152.8552640">
<ele>428.999</ele>
<time>2018-01-10T01:42:20.247Z</time>
</trkpt>
<trkpt lat="-26.7804392" lon="152.8549729">
<ele>430.296</ele>
<time>2018-01-10T01:42:22.242Z</time>
</trkpt>
<trkpt lat="-26.7806968" lon="152.8547374">
<ele>431.123</ele>
<time>2018-01-10T01:42:24.215Z</time>
</trkpt>
<trkpt lat="-26.7809070" lon="152.8544368">
<ele>431.477</ele>
<time>2018-01-10T01:42:26.230Z</time>
</trkpt>
<trkpt lat="-26.7810697" lon="152.8541137">
<ele>431.561</ele>
<time>2018-01-10T01:42:28.235Z</time>
</trkpt>
<trkpt lat="-26.7812199" lon="152.8538046">
<ele>431.572</ele>
<time>2018-01-10T01:42:30.232Z</time>
</trkpt>
<trkpt lat="-26.7813639" lon="152.8535418">
<ele>431.614</ele>
<time>2018-01-10T01:42:32.109Z</time>
</trkpt>
<trkpt lat="-26.7815034" lon="152.8533080">
<ele>431.793</ele>
<time>2018-01-10T01:42:33.899Z</time>
</trkpt>
<trkpt lat="-26.7816740" lon="152.8530529">
<ele>432.205</ele>
<time>2018-01-10T01:42:35.917Z</time>
</trkpt>
<trkpt lat="-26.7818083" lon="152.8527514">
<ele>432.825</ele>
<time>2018-01-10T01:42:37.961Z</time>
</trkpt>
<trkpt lat="-26.7819394" lon="152.8524136">
<ele>433.506</ele>
<time>2018-01-10T01:42:40.071Z</time>
</trkpt>
<trkpt lat="-26.7820624" lon="152.8520763">
<ele>434.041</ele>
<time>2018-01-10T01:42:42.041Z</time>
</trkpt>
<trkpt lat="-26.7821143" lon="152.8516849">
<ele>434.302</ele>
<time>2018-01-10T01:42:44.084Z</time>
</trkpt>
<trkpt lat="-26.7821902" lon="152.8513064">
<ele>434.403</ele>
<time>2018-01-10T01:42:46.067Z</time>
</trkpt>
<trkpt lat="-26.7822969" lon="152.8509578">
<ele>434.641</ele>
<time>2018-01-10T01:42:48.010Z</time>
</trkpt>
<trkpt lat="-26.7823945" lon="152.8506343">
<ele>435.090</ele>
<time>2018-01-10T01:42:49.918Z</time>
</trkpt>
<trkpt lat="-26.7824683" lon="152.8503485">
<ele>435.485</ele>
<time>2018-01-10T01:42:51.700Z</time>
</trkpt>
<trkpt lat="-26.7825363" lon="152.8500718">
<ele>435.600</ele>
<time>2018-01-10T01:42:53.524Z</time>
</trkpt>
<trkpt lat="-26.7825560" lon="152.8498102">
<ele>435.493</ele>
<time>2018-01-10T01:42:55.229Z</time>
</trkpt>
<trkpt lat="-26.7825541" lon="152.8495051">
<ele>435.330</ele>
<time>2018-01-10T01:42:57.172Z</time>
</trkpt>
<trkpt lat="-26.7824436" lon="152.8491548">
<ele>435.153</ele>
<time>2018-01-10T01:42:59.356Z</time>
</trkpt>
<trkpt lat="-26.7823736" lon="152.8487743">
<ele>434.689</ele>
<time>2018-01-10T01:43:01.478Z</time>
</trkpt>
<trkpt lat="-26.7823245" lon="152.8484136">
<ele>433.646</ele>
<time>2018-01-10T01:43:03.413Z</time>
</trkpt>
<trkpt lat="-26.7822574" lon="152.8480129">
<ele>432.081</ele>
<time>2018-01-10T01:43:05.524Z</time>
</trkpt>
<trkpt lat="-26.7821732" lon="152.8476649">
<ele>430.359</ele>
<time>2018-01-10T01:43:07.383Z</time>
</trkpt>
<trkpt lat="-26.7821237" lon="152.8473119">
<ele>428.867</ele>
<time>2018-01-10T01:43:09.269Z</time>
</trkpt>
<trkpt lat="-26.7820274" lon="152.8469906">
<ele>427.887</ele>
<time>2018-01-10T01:43:11.138Z</time>
</trkpt>
<trkpt lat="-26.7819212" lon="152.8466547">
<ele>427.510</ele>
<time>2018-01-10T01:43:13.182Z</time>
</trkpt>
<trkpt lat="-26.7818059" lon="152.8463319">
<ele>427.759</ele>
<time>2018-01-10T01:43:15.182Z</time>
</trkpt>
<trkpt lat="-26.7816930" lon="152.8460148">
<ele>428.695</ele>
<time>2018-01-10T01:43:17.152Z</time>
</trkpt>
<trkpt lat="-26.7815792" lon="152.8456980">
<ele>430.274</ele>
<time>2018-01-10T01:43:19.119Z</time>
</trkpt>
<trkpt lat="-26.7814905" lon="152.8453727">
<ele>432.195</ele>
<time>2018-01-10T01:43:21.065Z</time>
</trkpt>
<trkpt lat="-26.7814069" lon="152.8450968">
<ele>433.987</ele>
<time>2018-01-10T01:43:22.779Z</time>
</trkpt>
<trkpt lat="-26.7813272" lon="152.8448005">
<ele>435.426</ele>
<time>2018-01-10T01:43:24.666Z</time>
</trkpt>
<trkpt lat="-26.7813262" lon="152.8444810">
<ele>436.807</ele>
<time>2018-01-10T01:43:26.661Z</time>
</trkpt>
<trkpt lat="-26.7812672" lon="152.8441883">
<ele>438.435</ele>
<time>2018-01-10T01:43:28.565Z</time>
</trkpt>
<trkpt lat="-26.7812670" lon="152.8438538">
<ele>440.242</ele>
<time>2018-01-10T01:43:30.695Z</time>
</trkpt>
<trkpt lat="-26.7812670" lon="152.8435053">
<ele>442.144</ele>
<time>2018-01-10T01:43:32.855Z</time>
</trkpt>
<trkpt lat="-26.7812719" lon="152.8432108">
<ele>444.180</ele>
<time>2018-01-10T01:43:34.623Z</time>
</trkpt>
<trkpt lat="-26.7812545" lon="152.8429066">
<ele>446.306</ele>
<time>2018-01-10T01:43:36.467Z</time>
</trkpt>
<trkpt lat="-26.7812374" lon="152.8426271">
<ele>448.357</ele>
<time>2018-01-10T01:43:38.249Z</time>
</trkpt>
<trkpt lat="-26.7811562" lon="152.8424081">
<ele>450.207</ele>
<time>2018-01-10T01:43:39.879Z</time>
</trkpt>
<trkpt lat="-26.7811521" lon="152.8422555">
<ele>451.885</ele>
<time>2018-01-10T01:43:40.985Z</time>
</trkpt>
<trkpt lat="-26.7811559" lon="152.8419939">
<ele>453.414</ele>
<time>2018-01-10T01:43:43.183Z</time>
</trkpt>
<trkpt lat="-26.7811315" lon="152.8417070">
<ele>454.740</ele>
<time>2018-01-10T01:43:45.677Z</time>
</trkpt>
<trkpt lat="-26.7810961" lon="152.8413784">
<ele>455.862</ele>
<time>2018-01-10T01:43:48.119Z</time>
</trkpt>
<trkpt lat="-26.7810526" lon="152.8409561">
<ele>456.724</ele>
<time>2018-01-10T01:43:50.699Z</time>
</trkpt>
<trkpt lat="-26.7809719" lon="152.8405521">
<ele>457.156</ele>
<time>2018-01-10T01:43:52.834Z</time>
</trkpt>
<trkpt lat="-26.7809491" lon="152.8401937">
<ele>457.051</ele>
<time>2018-01-10T01:43:54.606Z</time>
</trkpt>
<trkpt lat="-26.7808682" lon="152.8398002">
<ele>456.474</ele>
<time>2018-01-10T01:43:56.609Z</time>
</trkpt>
<trkpt lat="-26.7807425" lon="152.8394404">
<ele>455.765</ele>
<time>2018-01-10T01:43:58.537Z</time>
</trkpt>
<trkpt lat="-26.7806074" lon="152.8390781">
<ele>455.310</ele>
<time>2018-01-10T01:44:00.502Z</time>
</trkpt>
<trkpt lat="-26.7804591" lon="152.8387162">
<ele>455.183</ele>
<time>2018-01-10T01:44:02.515Z</time>
</trkpt>
<trkpt lat="-26.7803521" lon="152.8383576">
<ele>455.241</ele>
<time>2018-01-10T01:44:04.449Z</time>
</trkpt>
<trkpt lat="-26.7801906" lon="152.8380265">
<ele>455.349</ele>
<time>2018-01-10T01:44:06.377Z</time>
</trkpt>
<trkpt lat="-26.7799894" lon="152.8376637">
<ele>455.443</ele>
<time>2018-01-10T01:44:08.507Z</time>
</trkpt>
<trkpt lat="-26.7797924" lon="152.8373287">
<ele>455.233</ele>
<time>2018-01-10T01:44:10.464Z</time>
</trkpt>
<trkpt lat="-26.7796279" lon="152.8370268">
<ele>454.436</ele>
<time>2018-01-10T01:44:12.205Z</time>
</trkpt>
<trkpt lat="-26.7795087" lon="152.8367151">
<ele>453.408</ele>
<time>2018-01-10T01:44:13.945Z</time>
</trkpt>
<trkpt lat="-26.7794169" lon="152.8363794">
<ele>452.788</ele>
<time>2018-01-10T01:44:15.848Z</time>
</trkpt>
<trkpt lat="-26.7793149" lon="152.8360710">
<ele>452.855</ele>
<time>2018-01-10T01:44:17.706Z</time>
</trkpt>
<trkpt lat="-26.7792059" lon="152.8356492">
<ele>453.511</ele>
<time>2018-01-10T01:44:20.305Z</time>
</trkpt>
<trkpt lat="-26.7790939" lon="152.8354333">
<ele>454.318</ele>
<time>2018-01-10T01:44:21.832Z</time>
</trkpt>
<trkpt lat="-26.7790746" lon="152.8351943">
<ele>454.534</ele>
<time>2018-01-10T01:44:23.690Z</time>
</trkpt>
<trkpt lat="-26.7792180" lon="152.8348091">
<ele>453.907</ele>
<time>2018-01-10T01:44:28.005Z</time>
</trkpt>
<trkpt lat="-26.7794159" lon="152.8343480">
<ele>453.290</ele>
<time>2018-01-10T01:44:32.216Z</time>
</trkpt>
<trkpt lat="-26.7794380" lon="152.8337413">
<ele>453.542</ele>
<time>2018-01-10T01:44:35.671Z</time>
</trkpt>
<trkpt lat="-26.7793446" lon="152.8331343">
<ele>454.741</ele>
<time>2018-01-10T01:44:38.732Z</time>
</trkpt>
<trkpt lat="-26.7792071" lon="152.8324994">
<ele>456.791</ele>
<time>2018-01-10T01:44:41.772Z</time>
</trkpt>
<trkpt lat="-26.7790105" lon="152.8318365">
<ele>459.450</ele>
<time>2018-01-10T01:44:44.901Z</time>
</trkpt>
<trkpt lat="-26.7788149" lon="152.8311642">
<ele>462.230</ele>
<time>2018-01-10T01:44:47.994Z</time>
</trkpt>
<trkpt lat="-26.7786395" lon="152.8305025">
<ele>464.749</ele>
<time>2018-01-10T01:44:50.979Z</time>
</trkpt>
<trkpt lat="-26.7786742" lon="152.8298227">
<ele>466.627</ele>
<time>2018-01-10T01:44:53.906Z</time>
</trkpt>
<trkpt lat="-26.7789159" lon="152.8291937">
<ele>467.583</ele>
<time>2018-01-10T01:44:56.852Z</time>
</trkpt>
<trkpt lat="-26.7790817" lon="152.8285238">
<ele>467.797</ele>
<time>2018-01-10T01:44:59.872Z</time>
</trkpt>
<trkpt lat="-26.7792872" lon="152.8278922">
<ele>467.702</ele>
<time>2018-01-10T01:45:02.820Z</time>
</trkpt>
<trkpt lat="-26.7796467" lon="152.8273477">
<ele>467.352</ele>
<time>2018-01-10T01:45:05.800Z</time>
</trkpt>
<trkpt lat="-26.7799796" lon="152.8267866">
<ele>466.350</ele>
<time>2018-01-10T01:45:08.761Z</time>
</trkpt>
<trkpt lat="-26.7802920" lon="152.8262173">
<ele>464.709</ele>
<time>2018-01-10T01:45:11.693Z</time>
</trkpt>
<trkpt lat="-26.7805903" lon="152.8256574">
<ele>463.174</ele>
<time>2018-01-10T01:45:14.552Z</time>
</trkpt>
<trkpt lat="-26.7808907" lon="152.8250987">
<ele>462.355</ele>
<time>2018-01-10T01:45:17.424Z</time>
</trkpt>
<trkpt lat="-26.7812025" lon="152.8245416">
<ele>462.324</ele>
<time>2018-01-10T01:45:20.332Z</time>
</trkpt>
<trkpt lat="-26.7815224" lon="152.8239965">
<ele>463.123</ele>
<time>2018-01-10T01:45:23.221Z</time>
</trkpt>
<trkpt lat="-26.7817617" lon="152.8233380">
<ele>464.602</ele>
<time>2018-01-10T01:45:26.360Z</time>
</trkpt>
<trkpt lat="-26.7816917" lon="152.8226616">
<ele>466.062</ele>
<time>2018-01-10T01:45:29.347Z</time>
</trkpt>
<trkpt lat="-26.7815459" lon="152.8222501">
<ele>466.550</ele>
<time>2018-01-10T01:45:31.284Z</time>
</trkpt>
<trkpt lat="-26.7813224" lon="152.8218475">
<ele>465.693</ele>
<time>2018-01-10T01:45:33.367Z</time>
</trkpt>
<trkpt lat="-26.7810207" lon="152.8215385">
<ele>463.901</ele>
<time>2018-01-10T01:45:35.376Z</time>
</trkpt>
<trkpt lat="-26.7806860" lon="152.8213177">
<ele>461.884</ele>
<time>2018-01-10T01:45:37.277Z</time>
</trkpt>
<trkpt lat="-26.7803476" lon="152.8210729">
<ele>460.275</ele>
<time>2018-01-10T01:45:39.252Z</time>
</trkpt>
<trkpt lat="-26.7799922" lon="152.8208199">
<ele>459.502</ele>
<time>2018-01-10T01:45:41.318Z</time>
</trkpt>
<trkpt lat="-26.7796908" lon="152.8205196">
<ele>459.619</ele>
<time>2018-01-10T01:45:43.292Z</time>
</trkpt>
<trkpt lat="-26.7794252" lon="152.8201735">
<ele>460.392</ele>
<time>2018-01-10T01:45:45.274Z</time>
</trkpt>
<trkpt lat="-26.7793046" lon="152.8197308">
<ele>461.337</ele>
<time>2018-01-10T01:45:47.277Z</time>
</trkpt>
<trkpt lat="-26.7792522" lon="152.8192907">
<ele>462.024</ele>
<time>2018-01-10T01:45:49.211Z</time>
</trkpt>
<trkpt lat="-26.7792637" lon="152.8188409">
<ele>462.466</ele>
<time>2018-01-10T01:45:51.185Z</time>
</trkpt>
<trkpt lat="-26.7793622" lon="152.8183822">
<ele>462.912</ele>
<time>2018-01-10T01:45:53.261Z</time>
</trkpt>
<trkpt lat="-26.7794502" lon="152.8179387">
<ele>463.474</ele>
<time>2018-01-10T01:45:55.260Z</time>
</trkpt>
<trkpt lat="-26.7795232" lon="152.8175053">
<ele>464.166</ele>
<time>2018-01-10T01:45:57.192Z</time>
</trkpt>
<trkpt lat="-26.7796081" lon="152.8170734">
<ele>464.960</ele>
<time>2018-01-10T01:45:59.136Z</time>
</trkpt>
<trkpt lat="-26.7796362" lon="152.8166327">
<ele>465.652</ele>
<time>2018-01-10T01:46:01.086Z</time>
</trkpt>
<trkpt lat="-26.7796242" lon="152.8161901">
<ele>466.007</ele>
<time>2018-01-10T01:46:03.037Z</time>
</trkpt>
<trkpt lat="-26.7794897" lon="152.8157569">
<ele>465.984</ele>
<time>2018-01-10T01:46:05.046Z</time>
</trkpt>
<trkpt lat="-26.7792996" lon="152.8153465">
<ele>465.535</ele>
<time>2018-01-10T01:46:07.052Z</time>
</trkpt>
<trkpt lat="-26.7791623" lon="152.8149428">
<ele>464.531</ele>
<time>2018-01-10T01:46:08.921Z</time>
</trkpt>
<trkpt lat="-26.7789923" lon="152.8145316">
<ele>462.964</ele>
<time>2018-01-10T01:46:10.896Z</time>
</trkpt>
<trkpt lat="-26.7788440" lon="152.8141160">
<ele>461.042</ele>
<time>2018-01-10T01:46:12.862Z</time>
</trkpt>
<trkpt lat="-26.7786246" lon="152.8135239">
<ele>459.227</ele>
<time>2018-01-10T01:46:15.718Z</time>
</trkpt>
<trkpt lat="-26.7783564" lon="152.8129354">
<ele>458.031</ele>
<time>2018-01-10T01:46:18.699Z</time>
</trkpt>
<trkpt lat="-26.7781488" lon="152.8123217">
<ele>457.818</ele>
<time>2018-01-10T01:46:21.638Z</time>
</trkpt>
<trkpt lat="-26.7780893" lon="152.8116454">
<ele>458.966</ele>
<time>2018-01-10T01:46:24.642Z</time>
</trkpt>
<trkpt lat="-26.7780480" lon="152.8109614">
<ele>461.826</ele>
<time>2018-01-10T01:46:27.660Z</time>
</trkpt>
<trkpt lat="-26.7779780" lon="152.8103050">
<ele>466.093</ele>
<time>2018-01-10T01:46:30.548Z</time>
</trkpt>
<trkpt lat="-26.7779425" lon="152.8096392">
<ele>470.779</ele>
<time>2018-01-10T01:46:33.462Z</time>
</trkpt>
<trkpt lat="-26.7781679" lon="152.8089751">
<ele>475.024</ele>
<time>2018-01-10T01:46:36.576Z</time>
</trkpt>
<trkpt lat="-26.7784551" lon="152.8083539">
<ele>478.437</ele>
<time>2018-01-10T01:46:39.627Z</time>
</trkpt>
<trkpt lat="-26.7787315" lon="152.8077497">
<ele>480.689</ele>
<time>2018-01-10T01:46:42.553Z</time>
</trkpt>
<trkpt lat="-26.7790235" lon="152.8071358">
<ele>481.458</ele>
<time>2018-01-10T01:46:45.515Z</time>
</trkpt>
<trkpt lat="-26.7792657" lon="152.8065283">
<ele>480.663</ele>
<time>2018-01-10T01:46:48.323Z</time>
</trkpt>
<trkpt lat="-26.7795300" lon="152.8059745">
<ele>478.989</ele>
<time>2018-01-10T01:46:51.004Z</time>
</trkpt>
<trkpt lat="-26.7798355" lon="152.8054092">
<ele>477.777</ele>
<time>2018-01-10T01:46:53.950Z</time>
</trkpt>
<trkpt lat="-26.7803355" lon="152.8050794">
<ele>478.168</ele>
<time>2018-01-10T01:46:56.858Z</time>
</trkpt>
<trkpt lat="-26.7809086" lon="152.8048440">
<ele>480.347</ele>
<time>2018-01-10T01:46:59.898Z</time>
</trkpt>
<trkpt lat="-26.7814429" lon="152.8045687">
<ele>483.566</ele>
<time>2018-01-10T01:47:02.825Z</time>
</trkpt>
<trkpt lat="-26.7820157" lon="152.8043319">
<ele>486.789</ele>
<time>2018-01-10T01:47:05.845Z</time>
</trkpt>
<trkpt lat="-26.7826025" lon="152.8041034">
<ele>489.181</ele>
<time>2018-01-10T01:47:08.876Z</time>
</trkpt>
<trkpt lat="-26.7831146" lon="152.8038045">
<ele>490.113</ele>
<time>2018-01-10T01:47:11.654Z</time>
</trkpt>
<trkpt lat="-26.7835032" lon="152.8036451">
<ele>489.386</ele>
<time>2018-01-10T01:47:13.652Z</time>
</trkpt>
<trkpt lat="-26.7838885" lon="152.8034827">
<ele>487.466</ele>
<time>2018-01-10T01:47:15.639Z</time>
</trkpt>
<trkpt lat="-26.7842528" lon="152.8033093">
<ele>485.034</ele>
<time>2018-01-10T01:47:17.542Z</time>
</trkpt>
<trkpt lat="-26.7845918" lon="152.8031034">
<ele>482.783</ele>
<time>2018-01-10T01:47:19.384Z</time>
</trkpt>
<trkpt lat="-26.7848659" lon="152.8027895">
<ele>481.396</ele>
<time>2018-01-10T01:47:21.280Z</time>
</trkpt>
<trkpt lat="-26.7850940" lon="152.8024047">
<ele>481.153</ele>
<time>2018-01-10T01:47:23.336Z</time>
</trkpt>
<trkpt lat="-26.7853423" lon="152.8020538">
<ele>481.853</ele>
<time>2018-01-10T01:47:25.370Z</time>
</trkpt>
<trkpt lat="-26.7856569" lon="152.8017742">
<ele>483.246</ele>
<time>2018-01-10T01:47:27.419Z</time>
</trkpt>
<trkpt lat="-26.7860114" lon="152.8015872">
<ele>485.280</ele>
<time>2018-01-10T01:47:29.404Z</time>
</trkpt>
<trkpt lat="-26.7863459" lon="152.8013734">
<ele>488.083</ele>
<time>2018-01-10T01:47:31.335Z</time>
</trkpt>
<trkpt lat="-26.7866511" lon="152.8011355">
<ele>491.594</ele>
<time>2018-01-10T01:47:33.185Z</time>
</trkpt>
<trkpt lat="-26.7869843" lon="152.8008791">
<ele>495.459</ele>
<time>2018-01-10T01:47:35.192Z</time>
</trkpt>
<trkpt lat="-26.7872963" lon="152.8006153">
<ele>499.239</ele>
<time>2018-01-10T01:47:37.147Z</time>
</trkpt>
<trkpt lat="-26.7876177" lon="152.8004242">
<ele>502.703</ele>
<time>2018-01-10T01:47:38.983Z</time>
</trkpt>
<trkpt lat="-26.7879733" lon="152.8001892">
<ele>505.946</ele>
<time>2018-01-10T01:47:41.070Z</time>
</trkpt>
<trkpt lat="-26.7883106" lon="152.7999338">
<ele>509.169</ele>
<time>2018-01-10T01:47:43.118Z</time>
</trkpt>
<trkpt lat="-26.7886174" lon="152.7996472">
<ele>512.235</ele>
<time>2018-01-10T01:47:45.099Z</time>
</trkpt>
<trkpt lat="-26.7889110" lon="152.7993803">
<ele>514.515</ele>
<time>2018-01-10T01:47:46.944Z</time>
</trkpt>
<trkpt lat="-26.7892332" lon="152.7991555">
<ele>515.548</ele>
<time>2018-01-10T01:47:48.829Z</time>
</trkpt>
<trkpt lat="-26.7895782" lon="152.7990242">
<ele>515.425</ele>
<time>2018-01-10T01:47:50.703Z</time>
</trkpt>
<trkpt lat="-26.7899574" lon="152.7987975">
<ele>514.613</ele>
<time>2018-01-10T01:47:52.955Z</time>
</trkpt>
<trkpt lat="-26.7902761" lon="152.7984847">
<ele>513.690</ele>
<time>2018-01-10T01:47:55.188Z</time>
</trkpt>
<trkpt lat="-26.7905141" lon="152.7980797">
<ele>512.826</ele>
<time>2018-01-10T01:47:57.396Z</time>
</trkpt>
<trkpt lat="-26.7907700" lon="152.7976766">
<ele>511.696</ele>
<time>2018-01-10T01:47:59.584Z</time>
</trkpt>
<trkpt lat="-26.7910407" lon="152.7973095">
<ele>509.998</ele>
<time>2018-01-10T01:48:01.646Z</time>
</trkpt>
<trkpt lat="-26.7913289" lon="152.7969864">
<ele>507.712</ele>
<time>2018-01-10T01:48:03.568Z</time>
</trkpt>
<trkpt lat="-26.7916679" lon="152.7967247">
<ele>505.083</ele>
<time>2018-01-10T01:48:05.472Z</time>
</trkpt>
<trkpt lat="-26.7922603" lon="152.7964411">
<ele>502.525</ele>
<time>2018-01-10T01:48:08.456Z</time>
</trkpt>
<trkpt lat="-26.7927580" lon="152.7961599">
<ele>500.486</ele>
<time>2018-01-10T01:48:11.116Z</time>
</trkpt>
<trkpt lat="-26.7931875" lon="152.7957675">
<ele>499.172</ele>
<time>2018-01-10T01:48:13.812Z</time>
</trkpt>
<trkpt lat="-26.7935437" lon="152.7952364">
<ele>498.267</ele>
<time>2018-01-10T01:48:16.754Z</time>
</trkpt>
<trkpt lat="-26.7938999" lon="152.7946939">
<ele>497.456</ele>
<time>2018-01-10T01:48:19.779Z</time>
</trkpt>
<trkpt lat="-26.7942741" lon="152.7941468">
<ele>496.875</ele>
<time>2018-01-10T01:48:22.862Z</time>
</trkpt>
<trkpt lat="-26.7946244" lon="152.7936531">
<ele>496.802</ele>
<time>2018-01-10T01:48:25.638Z</time>
</trkpt>
<trkpt lat="-26.7951157" lon="152.7933494">
<ele>497.408</ele>
<time>2018-01-10T01:48:28.391Z</time>
</trkpt>
<trkpt lat="-26.7956803" lon="152.7933943">
<ele>498.850</ele>
<time>2018-01-10T01:48:31.228Z</time>
</trkpt>
<trkpt lat="-26.7962276" lon="152.7936835">
<ele>501.051</ele>
<time>2018-01-10T01:48:34.400Z</time>
</trkpt>
<trkpt lat="-26.7966427" lon="152.7942107">
<ele>503.315</ele>
<time>2018-01-10T01:48:37.717Z</time>
</trkpt>
<trkpt lat="-26.7970658" lon="152.7946890">
<ele>504.656</ele>
<time>2018-01-10T01:48:40.743Z</time>
</trkpt>
<trkpt lat="-26.7975056" lon="152.7951822">
<ele>504.772</ele>
<time>2018-01-10T01:48:43.774Z</time>
</trkpt>
<trkpt lat="-26.7979353" lon="152.7956676">
<ele>504.227</ele>
<time>2018-01-10T01:48:46.728Z</time>
</trkpt>
<trkpt lat="-26.7984425" lon="152.7960329">
<ele>503.839</ele>
<time>2018-01-10T01:48:49.635Z</time>
</trkpt>
<trkpt lat="-26.7990539" lon="152.7962596">
<ele>504.094</ele>
<time>2018-01-10T01:48:52.751Z</time>
</trkpt>
<trkpt lat="-26.7996805" lon="152.7962318">
<ele>504.766</ele>
<time>2018-01-10T01:48:55.797Z</time>
</trkpt>
<trkpt lat="-26.8001205" lon="152.7961828">
<ele>505.285</ele>
<time>2018-01-10T01:48:57.916Z</time>
</trkpt>
<trkpt lat="-26.8005271" lon="152.7960990">
<ele>505.237</ele>
<time>2018-01-10T01:48:59.864Z</time>
</trkpt>
<trkpt lat="-26.8008981" lon="152.7959694">
<ele>504.505</ele>
<time>2018-01-10T01:49:01.672Z</time>
</trkpt>
<trkpt lat="-26.8012518" lon="152.7957642">
<ele>503.298</ele>
<time>2018-01-10T01:49:03.538Z</time>
</trkpt>
<trkpt lat="-26.8016032" lon="152.7955072">
<ele>502.026</ele>
<time>2018-01-10T01:49:05.540Z</time>
</trkpt>
<trkpt lat="-26.8019488" lon="152.7953307">
<ele>500.939</ele>
<time>2018-01-10T01:49:07.386Z</time>
</trkpt>
<trkpt lat="-26.8023177" lon="152.7952640">
<ele>499.881</ele>
<time>2018-01-10T01:49:09.208Z</time>
</trkpt>
<trkpt lat="-26.8027444" lon="152.7951694">
<ele>498.579</ele>
<time>2018-01-10T01:49:11.336Z</time>
</trkpt>
<trkpt lat="-26.8031208" lon="152.7949733">
<ele>496.978</ele>
<time>2018-01-10T01:49:13.397Z</time>
</trkpt>
<trkpt lat="-26.8035255" lon="152.7945415">
<ele>495.372</ele>
<time>2018-01-10T01:49:16.168Z</time>
</trkpt>
<trkpt lat="-26.8038089" lon="152.7939407">
<ele>494.266</ele>
<time>2018-01-10T01:49:19.159Z</time>
</trkpt>
<trkpt lat="-26.8041581" lon="152.7933687">
<ele>494.179</ele>
<time>2018-01-10T01:49:22.275Z</time>
</trkpt>
<trkpt lat="-26.8046072" lon="152.7928682">
<ele>495.588</ele>
<time>2018-01-10T01:49:25.461Z</time>
</trkpt>
<trkpt lat="-26.8052185" lon="152.7926257">
<ele>498.106</ele>
<time>2018-01-10T01:49:28.644Z</time>
</trkpt>
<trkpt lat="-26.8058452" lon="152.7925659">
<ele>500.292</ele>
<time>2018-01-10T01:49:31.709Z</time>
</trkpt>
<trkpt lat="-26.8064729" lon="152.7925292">
<ele>501.097</ele>
<time>2018-01-10T01:49:34.750Z</time>
</trkpt>
<trkpt lat="-26.8070512" lon="152.7922952">
<ele>500.258</ele>
<time>2018-01-10T01:49:37.675Z</time>
</trkpt>
<trkpt lat="-26.8075468" lon="152.7919071">
<ele>498.238</ele>
<time>2018-01-10T01:49:40.544Z</time>
</trkpt>
<trkpt lat="-26.8079980" lon="152.7914346">
<ele>496.302</ele>
<time>2018-01-10T01:49:43.522Z</time>
</trkpt>
<trkpt lat="-26.8083848" lon="152.7909209">
<ele>495.750</ele>
<time>2018-01-10T01:49:46.470Z</time>
</trkpt>
<trkpt lat="-26.8087158" lon="152.7903718">
<ele>497.409</ele>
<time>2018-01-10T01:49:49.389Z</time>
</trkpt>
<trkpt lat="-26.8089522" lon="152.7899966">
<ele>501.390</ele>
<time>2018-01-10T01:49:51.407Z</time>
</trkpt>
<trkpt lat="-26.8093180" lon="152.7894264">
<ele>506.592</ele>
<time>2018-01-10T01:49:54.474Z</time>
</trkpt>
<trkpt lat="-26.8095929" lon="152.7887907">
<ele>511.635</ele>
<time>2018-01-10T01:49:57.520Z</time>
</trkpt>
<trkpt lat="-26.8098903" lon="152.7881632">
<ele>515.954</ele>
<time>2018-01-10T01:50:00.547Z</time>
</trkpt>
<trkpt lat="-26.8102778" lon="152.7876435">
<ele>519.173</ele>
<time>2018-01-10T01:50:03.401Z</time>
</trkpt>
<trkpt lat="-26.8106805" lon="152.7871448">
<ele>520.803</ele>
<time>2018-01-10T01:50:06.227Z</time>
</trkpt>
<trkpt lat="-26.8109950" lon="152.7865582">
<ele>520.978</ele>
<time>2018-01-10T01:50:09.124Z</time>
</trkpt>
<trkpt lat="-26.8112351" lon="152.7859779">
<ele>520.397</ele>
<time>2018-01-10T01:50:11.857Z</time>
</trkpt>
<trkpt lat="-26.8114918" lon="152.7853677">
<ele>520.208</ele>
<time>2018-01-10T01:50:14.768Z</time>
</trkpt>
<trkpt lat="-26.8117406" lon="152.7847103">
<ele>521.523</ele>
<time>2018-01-10T01:50:17.895Z</time>
</trkpt>
<trkpt lat="-26.8117712" lon="152.7840608">
<ele>524.362</ele>
<time>2018-01-10T01:50:20.748Z</time>
</trkpt>
<trkpt lat="-26.8114971" lon="152.7834735">
<ele>527.934</ele>
<time>2018-01-10T01:50:23.634Z</time>
</trkpt>
<trkpt lat="-26.8112258" lon="152.7831605">
<ele>531.575</ele>
<time>2018-01-10T01:50:25.566Z</time>
</trkpt>
<trkpt lat="-26.8109004" lon="152.7828933">
<ele>534.791</ele>
<time>2018-01-10T01:50:27.624Z</time>
</trkpt>
<trkpt lat="-26.8106588" lon="152.7825843">
<ele>537.270</ele>
<time>2018-01-10T01:50:29.505Z</time>
</trkpt>
<trkpt lat="-26.8104947" lon="152.7821964">
<ele>539.160</ele>
<time>2018-01-10T01:50:31.456Z</time>
</trkpt>
<trkpt lat="-26.8103630" lon="152.7817777">
<ele>540.836</ele>
<time>2018-01-10T01:50:33.447Z</time>
</trkpt>
<trkpt lat="-26.8102293" lon="152.7813872">
<ele>542.457</ele>
<time>2018-01-10T01:50:35.339Z</time>
</trkpt>
<trkpt lat="-26.8100678" lon="152.7809876">
<ele>544.030</ele>
<time>2018-01-10T01:50:37.352Z</time>
</trkpt>
<trkpt lat="-26.8099046" lon="152.7805586">
<ele>545.525</ele>
<time>2018-01-10T01:50:39.474Z</time>
</trkpt>
<trkpt lat="-26.8097638" lon="152.7801442">
<ele>546.778</ele>
<time>2018-01-10T01:50:41.471Z</time>
</trkpt>
<trkpt lat="-26.8096959" lon="152.7797353">
<ele>547.558</ele>
<time>2018-01-10T01:50:43.321Z</time>
</trkpt>
<trkpt lat="-26.8098669" lon="152.7793435">
<ele>547.682</ele>
<time>2018-01-10T01:50:45.224Z</time>
</trkpt>
<trkpt lat="-26.8100090" lon="152.7789541">
<ele>547.206</ele>
<time>2018-01-10T01:50:47.053Z</time>
</trkpt>
<trkpt lat="-26.8100708" lon="152.7785214">
<ele>546.428</ele>
<time>2018-01-10T01:50:49.014Z</time>
</trkpt>
<trkpt lat="-26.8099820" lon="152.7781025">
<ele>545.437</ele>
<time>2018-01-10T01:50:51.065Z</time>
</trkpt>
<trkpt lat="-26.8097861" lon="152.7776731">
<ele>543.999</ele>
<time>2018-01-10T01:50:53.406Z</time>
</trkpt>
<trkpt lat="-26.8095720" lon="152.7772815">
<ele>542.027</ele>
<time>2018-01-10T01:50:55.582Z</time>
</trkpt>
<trkpt lat="-26.8093819" lon="152.7768868">
<ele>539.795</ele>
<time>2018-01-10T01:50:57.670Z</time>
</trkpt>
<trkpt lat="-26.8092388" lon="152.7764500">
<ele>537.731</ele>
<time>2018-01-10T01:50:59.760Z</time>
</trkpt>
<trkpt lat="-26.8092458" lon="152.7760267">
<ele>536.157</ele>
<time>2018-01-10T01:51:01.606Z</time>
</trkpt>
<trkpt lat="-26.8094584" lon="152.7756020">
<ele>535.236</ele>
<time>2018-01-10T01:51:03.719Z</time>
</trkpt>
<trkpt lat="-26.8096424" lon="152.7751749">
<ele>535.214</ele>
<time>2018-01-10T01:51:05.812Z</time>
</trkpt>
<trkpt lat="-26.8097837" lon="152.7747479">
<ele>536.385</ele>
<time>2018-01-10T01:51:07.889Z</time>
</trkpt>
<trkpt lat="-26.8098973" lon="152.7743269">
<ele>538.602</ele>
<time>2018-01-10T01:51:09.900Z</time>
</trkpt>
<trkpt lat="-26.8099669" lon="152.7738526">
<ele>541.248</ele>
<time>2018-01-10T01:51:12.017Z</time>
</trkpt>
<trkpt lat="-26.8099011" lon="152.7733800">
<ele>543.713</ele>
<time>2018-01-10T01:51:14.073Z</time>
</trkpt>
<trkpt lat="-26.8097967" lon="152.7729633">
<ele>545.521</ele>
<time>2018-01-10T01:51:15.929Z</time>
</trkpt>
<trkpt lat="-26.8095858" lon="152.7725608">
<ele>546.461</ele>
<time>2018-01-10T01:51:17.928Z</time>
</trkpt>
<trkpt lat="-26.8093047" lon="152.7722208">
<ele>546.825</ele>
<time>2018-01-10T01:51:19.922Z</time>
</trkpt>
<trkpt lat="-26.8090014" lon="152.7716774">
<ele>547.225</ele>
<time>2018-01-10T01:51:22.716Z</time>
</trkpt>
<trkpt lat="-26.8089412" lon="152.7710753">
<ele>548.318</ele>
<time>2018-01-10T01:51:25.368Z</time>
</trkpt>
<trkpt lat="-26.8088499" lon="152.7705517">
<ele>550.457</ele>
<time>2018-01-10T01:51:27.766Z</time>
</trkpt>
<trkpt lat="-26.8090096" lon="152.7700364">
<ele>553.284</ele>
<time>2018-01-10T01:51:30.340Z</time>
</trkpt>
<trkpt lat="-26.8093524" lon="152.7696274">
<ele>556.010</ele>
<time>2018-01-10T01:51:33.128Z</time>
</trkpt>
<trkpt lat="-26.8098255" lon="152.7693294">
<ele>557.976</ele>
<time>2018-01-10T01:51:36.336Z</time>
</trkpt>
<trkpt lat="-26.8103839" lon="152.7691669">
<ele>558.772</ele>
<time>2018-01-10T01:51:39.831Z</time>
</trkpt>
<trkpt lat="-26.8109645" lon="152.7689602">
<ele>558.397</ele>
<time>2018-01-10T01:51:43.335Z</time>
</trkpt>
<trkpt lat="-26.8112881" lon="152.7683485">
<ele>557.024</ele>
<time>2018-01-10T01:51:46.722Z</time>
</trkpt>
<trkpt lat="-26.8117464" lon="152.7678731">
<ele>554.526</ele>
<time>2018-01-10T01:51:49.926Z</time>
</trkpt>
<trkpt lat="-26.8122043" lon="152.7674001">
<ele>551.030</ele>
<time>2018-01-10T01:51:53.039Z</time>
</trkpt>
<trkpt lat="-26.8125677" lon="152.7668467">
<ele>547.345</ele>
<time>2018-01-10T01:51:56.034Z</time>
</trkpt>
<trkpt lat="-26.8127271" lon="152.7661212">
<ele>543.891</ele>
<time>2018-01-10T01:51:59.257Z</time>
</trkpt>
<trkpt lat="-26.8129802" lon="152.7654905">
<ele>540.069</ele>
<time>2018-01-10T01:52:02.243Z</time>
</trkpt>
<trkpt lat="-26.8132307" lon="152.7648902">
<ele>535.450</ele>
<time>2018-01-10T01:52:05.077Z</time>
</trkpt>
<trkpt lat="-26.8136042" lon="152.7644002">
<ele>531.071</ele>
<time>2018-01-10T01:52:07.845Z</time>
</trkpt>
<trkpt lat="-26.8141613" lon="152.7642729">
<ele>528.434</ele>
<time>2018-01-10T01:52:10.655Z</time>
</trkpt>
<trkpt lat="-26.8147459" lon="152.7643210">
<ele>527.851</ele>
<time>2018-01-10T01:52:13.604Z</time>
</trkpt>
<trkpt lat="-26.8152651" lon="152.7646659">
<ele>528.831</ele>
<time>2018-01-10T01:52:16.732Z</time>
</trkpt>
<trkpt lat="-26.8156826" lon="152.7651634">
<ele>530.891</ele>
<time>2018-01-10T01:52:19.927Z</time>
</trkpt>
<trkpt lat="-26.8161417" lon="152.7656473">
<ele>533.114</ele>
<time>2018-01-10T01:52:23.142Z</time>
</trkpt>
<trkpt lat="-26.8166491" lon="152.7660277">
<ele>534.353</ele>
<time>2018-01-10T01:52:26.132Z</time>
</trkpt>
<trkpt lat="-26.8171845" lon="152.7663193">
<ele>534.346</ele>
<time>2018-01-10T01:52:28.986Z</time>
</trkpt>
<trkpt lat="-26.8177003" lon="152.7666708">
<ele>533.863</ele>
<time>2018-01-10T01:52:31.894Z</time>
</trkpt>
<trkpt lat="-26.8182202" lon="152.7670103">
<ele>533.666</ele>
<time>2018-01-10T01:52:34.815Z</time>
</trkpt>
<trkpt lat="-26.8187847" lon="152.7672582">
<ele>534.055</ele>
<time>2018-01-10T01:52:37.756Z</time>
</trkpt>
<trkpt lat="-26.8194056" lon="152.7673779">
<ele>534.846</ele>
<time>2018-01-10T01:52:40.816Z</time>
</trkpt>
<trkpt lat="-26.8198066" lon="152.7674959">
<ele>535.496</ele>
<time>2018-01-10T01:52:42.836Z</time>
</trkpt>
<trkpt lat="-26.8201983" lon="152.7676019">
<ele>535.657</ele>
<time>2018-01-10T01:52:44.783Z</time>
</trkpt>
<trkpt lat="-26.8205571" lon="152.7677167">
<ele>535.368</ele>
<time>2018-01-10T01:52:46.578Z</time>
</trkpt>
<trkpt lat="-26.8208571" lon="152.7678112">
<ele>534.705</ele>
<time>2018-01-10T01:52:48.065Z</time>
</trkpt>
<trkpt lat="-26.8211288" lon="152.7679154">
<ele>533.696</ele>
<time>2018-01-10T01:52:49.434Z</time>
</trkpt>
<trkpt lat="-26.8213359" lon="152.7679499">
<ele>532.605</ele>
<time>2018-01-10T01:52:50.447Z</time>
</trkpt>
<trkpt lat="-26.8214665" lon="152.7679657">
<ele>531.877</ele>
<time>2018-01-10T01:52:51.094Z</time>
</trkpt>
<trkpt lat="-26.8216148" lon="152.7678620">
<ele>531.818</ele>
<time>2018-01-10T01:52:51.955Z</time>
</trkpt>
<trkpt lat="-26.8218053" lon="152.7676935">
<ele>532.499</ele>
<time>2018-01-10T01:52:53.232Z</time>
</trkpt>
<trkpt lat="-26.8220577" lon="152.7675848">
<ele>533.741</ele>
<time>2018-01-10T01:52:54.735Z</time>
</trkpt>
<trkpt lat="-26.8223437" lon="152.7674974">
<ele>535.154</ele>
<time>2018-01-10T01:52:56.569Z</time>
</trkpt>
<trkpt lat="-26.8226595" lon="152.7673363">
<ele>536.302</ele>
<time>2018-01-10T01:52:59.313Z</time>
</trkpt>
<trkpt lat="-26.8229834" lon="152.7672257">
<ele>536.865</ele>
<time>2018-01-10T01:53:03.119Z</time>
</trkpt>
<trkpt lat="-26.8233260" lon="152.7671642">
<ele>536.900</ele>
<time>2018-01-10T01:53:06.220Z</time>
</trkpt>
<trkpt lat="-26.8236373" lon="152.7670559">
<ele>536.915</ele>
<time>2018-01-10T01:53:08.545Z</time>
</trkpt>
<trkpt lat="-26.8239478" lon="152.7669846">
<ele>537.542</ele>
<time>2018-01-10T01:53:10.592Z</time>
</trkpt>
<trkpt lat="-26.8242668" lon="152.7668943">
<ele>539.005</ele>
<time>2018-01-10T01:53:12.582Z</time>
</trkpt>
<trkpt lat="-26.8245603" lon="152.7668451">
<ele>541.026</ele>
<time>2018-01-10T01:53:14.319Z</time>
</trkpt>
<trkpt lat="-26.8247914" lon="152.7667315">
<ele>543.210</ele>
<time>2018-01-10T01:53:15.800Z</time>
</trkpt>
<trkpt lat="-26.8249064" lon="152.7664660">
<ele>545.145</ele>
<time>2018-01-10T01:53:17.369Z</time>
</trkpt>
<trkpt lat="-26.8249467" lon="152.7660676">
<ele>546.673</ele>
<time>2018-01-10T01:53:19.520Z</time>
</trkpt>
<trkpt lat="-26.8249724" lon="152.7656834">
<ele>548.072</ele>
<time>2018-01-10T01:53:21.611Z</time>
</trkpt>
<trkpt lat="-26.8250312" lon="152.7653272">
<ele>549.562</ele>
<time>2018-01-10T01:53:23.714Z</time>
</trkpt>
<trkpt lat="-26.8251234" lon="152.7649540">
<ele>550.961</ele>
<time>2018-01-10T01:53:26.253Z</time>
</trkpt>
<trkpt lat="-26.8251838" lon="152.7645373">
<ele>551.953</ele>
<time>2018-01-10T01:53:28.849Z</time>
</trkpt>
<trkpt lat="-26.8252549" lon="152.7641391">
<ele>552.354</ele>
<time>2018-01-10T01:53:31.118Z</time>
</trkpt>
<trkpt lat="-26.8253141" lon="152.7637164">
<ele>552.130</ele>
<time>2018-01-10T01:53:33.440Z</time>
</trkpt>
<trkpt lat="-26.8253657" lon="152.7632946">
<ele>551.387</ele>
<time>2018-01-10T01:53:35.654Z</time>
</trkpt>
<trkpt lat="-26.8254233" lon="152.7629085">
<ele>550.404</ele>
<time>2018-01-10T01:53:37.571Z</time>
</trkpt>
<trkpt lat="-26.8254898" lon="152.7625146">
<ele>549.536</ele>
<time>2018-01-10T01:53:39.478Z</time>
</trkpt>
<trkpt lat="-26.8255559" lon="152.7621505">
<ele>548.987</ele>
<time>2018-01-10T01:53:41.229Z</time>
</trkpt>
<trkpt lat="-26.8256321" lon="152.7617803">
<ele>548.756</ele>
<time>2018-01-10T01:53:43.028Z</time>
</trkpt>
<trkpt lat="-26.8256703" lon="152.7614266">
<ele>548.708</ele>
<time>2018-01-10T01:53:44.733Z</time>
</trkpt>
<trkpt lat="-26.8257404" lon="152.7610786">
<ele>548.727</ele>
<time>2018-01-10T01:53:46.457Z</time>
</trkpt>
<trkpt lat="-26.8257869" lon="152.7607366">
<ele>548.725</ele>
<time>2018-01-10T01:53:48.144Z</time>
</trkpt>
<trkpt lat="-26.8258464" lon="152.7604064">
<ele>548.507</ele>
<time>2018-01-10T01:53:49.809Z</time>
</trkpt>
<trkpt lat="-26.8258969" lon="152.7600621">
<ele>547.755</ele>
<time>2018-01-10T01:53:51.580Z</time>
</trkpt>
<trkpt lat="-26.8259441" lon="152.7597772">
<ele>546.344</ele>
<time>2018-01-10T01:53:53.086Z</time>
</trkpt>
<trkpt lat="-26.8260330" lon="152.7596167">
<ele>544.463</ele>
<time>2018-01-10T01:53:54.077Z</time>
</trkpt>
<trkpt lat="-26.8262443" lon="152.7595009">
<ele>542.487</ele>
<time>2018-01-10T01:53:55.483Z</time>
</trkpt>
<trkpt lat="-26.8265545" lon="152.7594829">
<ele>540.737</ele>
<time>2018-01-10T01:53:57.366Z</time>
</trkpt>
<trkpt lat="-26.8269120" lon="152.7594975">
<ele>539.286</ele>
<time>2018-01-10T01:53:59.581Z</time>
</trkpt>
<trkpt lat="-26.8272953" lon="152.7595151">
<ele>538.092</ele>
<time>2018-01-10T01:54:02.138Z</time>
</trkpt>
<trkpt lat="-26.8276669" lon="152.7595305">
<ele>537.248</ele>
<time>2018-01-10T01:54:05.426Z</time>
</trkpt>
<trkpt lat="-26.8280485" lon="152.7594992">
<ele>536.848</ele>
<time>2018-01-10T01:54:08.420Z</time>
</trkpt>
<trkpt lat="-26.8284176" lon="152.7594874">
<ele>536.706</ele>
<time>2018-01-10T01:54:10.649Z</time>
</trkpt>
<trkpt lat="-26.8288077" lon="152.7594355">
<ele>536.484</ele>
<time>2018-01-10T01:54:12.808Z</time>
</trkpt>
<trkpt lat="-26.8291691" lon="152.7594221">
<ele>536.055</ele>
<time>2018-01-10T01:54:14.721Z</time>
</trkpt>
<trkpt lat="-26.8295142" lon="152.7594207">
<ele>535.397</ele>
<time>2018-01-10T01:54:16.523Z</time>
</trkpt>
<trkpt lat="-26.8298449" lon="152.7594213">
<ele>534.377</ele>
<time>2018-01-10T01:54:18.239Z</time>
</trkpt>
<trkpt lat="-26.8301565" lon="152.7594165">
<ele>532.811</ele>
<time>2018-01-10T01:54:19.854Z</time>
</trkpt>
<trkpt lat="-26.8303897" lon="152.7593855">
<ele>530.639</ele>
<time>2018-01-10T01:54:21.080Z</time>
</trkpt>
<trkpt lat="-26.8304691" lon="152.7592745">
<ele>528.125</ele>
<time>2018-01-10T01:54:21.744Z</time>
</trkpt>
<trkpt lat="-26.8304587" lon="152.7590654">
<ele>525.595</ele>
<time>2018-01-10T01:54:22.743Z</time>
</trkpt>
<trkpt lat="-26.8304828" lon="152.7588313">
<ele>523.216</ele>
<time>2018-01-10T01:54:23.876Z</time>
</trkpt>
<trkpt lat="-26.8305005" lon="152.7586002">
<ele>521.232</ele>
<time>2018-01-10T01:54:25.024Z</time>
</trkpt>
<trkpt lat="-26.8304435" lon="152.7582917">
<ele>519.953</ele>
<time>2018-01-10T01:54:26.609Z</time>
</trkpt>
<trkpt lat="-26.8304080" lon="152.7579893">
<ele>519.562</ele>
<time>2018-01-10T01:54:28.190Z</time>
</trkpt>
<trkpt lat="-26.8303059" lon="152.7577316">
<ele>520.040</ele>
<time>2018-01-10T01:54:29.741Z</time>
</trkpt>
<trkpt lat="-26.8302022" lon="152.7574771">
<ele>520.931</ele>
<time>2018-01-10T01:54:31.968Z</time>
</trkpt>
<trkpt lat="-26.8300354" lon="152.7572742">
<ele>521.493</ele>
<time>2018-01-10T01:54:35.063Z</time>
</trkpt>
<trkpt lat="-26.8298227" lon="152.7571096">
<ele>521.215</ele>
<time>2018-01-10T01:54:37.963Z</time>
</trkpt>
<trkpt lat="-26.8295835" lon="152.7569663">
<ele>520.178</ele>
<time>2018-01-10T01:54:40.565Z</time>
</trkpt>
<trkpt lat="-26.8293709" lon="152.7568412">
<ele>518.968</ele>
<time>2018-01-10T01:54:42.546Z</time>
</trkpt>
<trkpt lat="-26.8290941" lon="152.7568862">
<ele>518.063</ele>
<time>2018-01-10T01:54:44.645Z</time>
</trkpt>
<trkpt lat="-26.8288683" lon="152.7567752">
<ele>517.409</ele>
<time>2018-01-10T01:54:46.492Z</time>
</trkpt>
<trkpt lat="-26.8286926" lon="152.7565492">
<ele>516.776</ele>
<time>2018-01-10T01:54:48.594Z</time>
</trkpt>
<trkpt lat="-26.8286232" lon="152.7562629">
<ele>516.068</ele>
<time>2018-01-10T01:54:50.770Z</time>
</trkpt>
<trkpt lat="-26.8286530" lon="152.7560182">
<ele>515.270</ele>
<time>2018-01-10T01:54:52.613Z</time>
</trkpt>
<trkpt lat="-26.8287668" lon="152.7558100">
<ele>514.440</ele>
<time>2018-01-10T01:54:54.453Z</time>
</trkpt>
<trkpt lat="-26.8289664" lon="152.7556678">
<ele>513.614</ele>
<time>2018-01-10T01:54:56.438Z</time>
</trkpt>
<trkpt lat="-26.8291056" lon="152.7553967">
<ele>512.670</ele>
<time>2018-01-10T01:54:58.774Z</time>
</trkpt>
<trkpt lat="-26.8292451" lon="152.7550856">
<ele>511.275</ele>
<time>2018-01-10T01:55:01.402Z</time>
</trkpt>
<trkpt lat="-26.8294188" lon="152.7547824">
<ele>508.907</ele>
<time>2018-01-10T01:55:04.110Z</time>
</trkpt>
<trkpt lat="-26.8295535" lon="152.7544261">
<ele>505.381</ele>
<time>2018-01-10T01:55:07.208Z</time>
</trkpt>
<trkpt lat="-26.8297193" lon="152.7540852">
<ele>501.182</ele>
<time>2018-01-10T01:55:10.208Z</time>
</trkpt>
<trkpt lat="-26.8297208" lon="152.7536550">
<ele>496.971</ele>
<time>2018-01-10T01:55:12.989Z</time>
</trkpt>
<trkpt lat="-26.8297433" lon="152.7533171">
<ele>493.560</ele>
<time>2018-01-10T01:55:14.918Z</time>
</trkpt>
<trkpt lat="-26.8298809" lon="152.7531125">
<ele>491.785</ele>
<time>2018-01-10T01:55:16.308Z</time>
</trkpt>
<trkpt lat="-26.8300641" lon="152.7529045">
<ele>492.083</ele>
<time>2018-01-10T01:55:17.852Z</time>
</trkpt>
<trkpt lat="-26.8301608" lon="152.7526453">
<ele>494.360</ele>
<time>2018-01-10T01:55:19.305Z</time>
</trkpt>
<trkpt lat="-26.8302973" lon="152.7524389">
<ele>497.812</ele>
<time>2018-01-10T01:55:20.626Z</time>
</trkpt>
<trkpt lat="-26.8304207" lon="152.7523073">
<ele>501.143</ele>
<time>2018-01-10T01:55:21.652Z</time>
</trkpt>
<trkpt lat="-26.8305524" lon="152.7521096">
<ele>503.544</ele>
<time>2018-01-10T01:55:23.016Z</time>
</trkpt>
<trkpt lat="-26.8306038" lon="152.7517455">
<ele>505.081</ele>
<time>2018-01-10T01:55:25.302Z</time>
</trkpt>
<trkpt lat="-26.8305935" lon="152.7513561">
<ele>506.312</ele>
<time>2018-01-10T01:55:27.827Z</time>
</trkpt>
<trkpt lat="-26.8305963" lon="152.7510108">
<ele>507.621</ele>
<time>2018-01-10T01:55:30.200Z</time>
</trkpt>
<trkpt lat="-26.8306237" lon="152.7506964">
<ele>509.055</ele>
<time>2018-01-10T01:55:32.836Z</time>
</trkpt>
<trkpt lat="-26.8305982" lon="152.7503713">
<ele>510.446</ele>
<time>2018-01-10T01:55:35.524Z</time>
</trkpt>
<trkpt lat="-26.8304084" lon="152.7500993">
<ele>511.765</ele>
<time>2018-01-10T01:55:37.862Z</time>
</trkpt>
<trkpt lat="-26.8301699" lon="152.7498542">
<ele>513.469</ele>
<time>2018-01-10T01:55:40.123Z</time>
</trkpt>
<trkpt lat="-26.8298917" lon="152.7496407">
<ele>516.211</ele>
<time>2018-01-10T01:55:42.493Z</time>
</trkpt>
<trkpt lat="-26.8296649" lon="152.7494139">
<ele>520.231</ele>
<time>2018-01-10T01:55:44.658Z</time>
</trkpt>
<trkpt lat="-26.8295135" lon="152.7491694">
<ele>525.045</ele>
<time>2018-01-10T01:55:46.481Z</time>
</trkpt>
<trkpt lat="-26.8294480" lon="152.7487187">
<ele>529.880</ele>
<time>2018-01-10T01:55:49.070Z</time>
</trkpt>
<trkpt lat="-26.8295981" lon="152.7482782">
<ele>534.321</ele>
<time>2018-01-10T01:55:51.627Z</time>
</trkpt>
<trkpt lat="-26.8297453" lon="152.7477869">
<ele>537.981</ele>
<time>2018-01-10T01:55:54.587Z</time>
</trkpt>
<trkpt lat="-26.8299330" lon="152.7473309">
<ele>540.371</ele>
<time>2018-01-10T01:55:57.830Z</time>
</trkpt>
<trkpt lat="-26.8300784" lon="152.7469131">
<ele>541.488</ele>
<time>2018-01-10T01:56:00.701Z</time>
</trkpt>
<trkpt lat="-26.8303131" lon="152.7465343">
<ele>541.763</ele>
<time>2018-01-10T01:56:03.496Z</time>
</trkpt>
<trkpt lat="-26.8307197" lon="152.7463299">
<ele>541.284</ele>
<time>2018-01-10T01:56:06.488Z</time>
</trkpt>
<trkpt lat="-26.8310680" lon="152.7462400">
<ele>539.701</ele>
<time>2018-01-10T01:56:08.948Z</time>
</trkpt>
<trkpt lat="-26.8313653" lon="152.7461695">
<ele>537.273</ele>
<time>2018-01-10T01:56:11.132Z</time>
</trkpt>
<trkpt lat="-26.8316587" lon="152.7460849">
<ele>535.159</ele>
<time>2018-01-10T01:56:13.363Z</time>
</trkpt>
<trkpt lat="-26.8318449" lon="152.7460098">
<ele>534.141</ele>
<time>2018-01-10T01:56:14.751Z</time>
</trkpt>
<trkpt lat="-26.8319553" lon="152.7457960">
<ele>534.173</ele>
<time>2018-01-10T01:56:16.259Z</time>
</trkpt>
<trkpt lat="-26.8319834" lon="152.7454257">
<ele>534.944</ele>
<time>2018-01-10T01:56:18.286Z</time>
</trkpt>
<trkpt lat="-26.8319948" lon="152.7450915">
<ele>536.360</ele>
<time>2018-01-10T01:56:20.083Z</time>
</trkpt>
<trkpt lat="-26.8319248" lon="152.7448104">
<ele>538.585</ele>
<time>2018-01-10T01:56:21.728Z</time>
</trkpt>
<trkpt lat="-26.8318336" lon="152.7445588">
<ele>541.637</ele>
<time>2018-01-10T01:56:23.444Z</time>
</trkpt>
<trkpt lat="-26.8317926" lon="152.7443531">
<ele>545.217</ele>
<time>2018-01-10T01:56:24.992Z</time>
</trkpt>
<trkpt lat="-26.8319107" lon="152.7441381">
<ele>548.860</ele>
<time>2018-01-10T01:56:26.972Z</time>
</trkpt>
<trkpt lat="-26.8319926" lon="152.7438395">
<ele>552.179</ele>
<time>2018-01-10T01:56:29.199Z</time>
</trkpt>
<trkpt lat="-26.8320146" lon="152.7435502">
<ele>555.338</ele>
<time>2018-01-10T01:56:31.133Z</time>
</trkpt>
<trkpt lat="-26.8320653" lon="152.7432989">
<ele>558.786</ele>
<time>2018-01-10T01:56:32.886Z</time>
</trkpt>
<trkpt lat="-26.8321263" lon="152.7431236">
<ele>562.573</ele>
<time>2018-01-10T01:56:34.207Z</time>
</trkpt>
<trkpt lat="-26.8323413" lon="152.7430340">
<ele>566.575</ele>
<time>2018-01-10T01:56:36.112Z</time>
</trkpt>
<trkpt lat="-26.8326038" lon="152.7429849">
<ele>570.785</ele>
<time>2018-01-10T01:56:38.446Z</time>
</trkpt>
<trkpt lat="-26.8328261" lon="152.7428829">
<ele>575.069</ele>
<time>2018-01-10T01:56:40.477Z</time>
</trkpt>
<trkpt lat="-26.8330602" lon="152.7428313">
<ele>579.118</ele>
<time>2018-01-10T01:56:42.429Z</time>
</trkpt>
<trkpt lat="-26.8333072" lon="152.7427149">
<ele>582.285</ele>
<time>2018-01-10T01:56:44.744Z</time>
</trkpt>
<trkpt lat="-26.8336191" lon="152.7425798">
<ele>583.797</ele>
<time>2018-01-10T01:56:47.931Z</time>
</trkpt>
<trkpt lat="-26.8339145" lon="152.7424999">
<ele>583.390</ele>
<time>2018-01-10T01:56:50.475Z</time>
</trkpt>
<trkpt lat="-26.8341672" lon="152.7424320">
<ele>581.539</ele>
<time>2018-01-10T01:56:52.504Z</time>
</trkpt>
<trkpt lat="-26.8343212" lon="152.7423409">
<ele>579.144</ele>
<time>2018-01-10T01:56:53.876Z</time>
</trkpt>
<trkpt lat="-26.8343702" lon="152.7420565">
<ele>576.824</ele>
<time>2018-01-10T01:56:55.860Z</time>
</trkpt>
<trkpt lat="-26.8344858" lon="152.7417157">
<ele>574.606</ele>
<time>2018-01-10T01:56:58.157Z</time>
</trkpt>
<trkpt lat="-26.8346158" lon="152.7413539">
<ele>572.572</ele>
<time>2018-01-10T01:57:00.463Z</time>
</trkpt>
<trkpt lat="-26.8347245" lon="152.7409938">
<ele>570.864</ele>
<time>2018-01-10T01:57:02.844Z</time>
</trkpt>
<trkpt lat="-26.8348080" lon="152.7406833">
<ele>569.428</ele>
<time>2018-01-10T01:57:05.365Z</time>
</trkpt>
<trkpt lat="-26.8348639" lon="152.7403763">
<ele>568.178</ele>
<time>2018-01-10T01:57:07.691Z</time>
</trkpt>
<trkpt lat="-26.8349150" lon="152.7401054">
<ele>566.831</ele>
<time>2018-01-10T01:57:09.343Z</time>
</trkpt>
<trkpt lat="-26.8350426" lon="152.7399172">
<ele>565.084</ele>
<time>2018-01-10T01:57:10.651Z</time>
</trkpt>
<trkpt lat="-26.8352120" lon="152.7398019">
<ele>563.007</ele>
<time>2018-01-10T01:57:11.833Z</time>
</trkpt>
<trkpt lat="-26.8354373" lon="152.7398313">
<ele>560.845</ele>
<time>2018-01-10T01:57:13.203Z</time>
</trkpt>
<trkpt lat="-26.8356602" lon="152.7399386">
<ele>558.936</ele>
<time>2018-01-10T01:57:14.695Z</time>
</trkpt>
<trkpt lat="-26.8358618" lon="152.7400216">
<ele>557.568</ele>
<time>2018-01-10T01:57:16.046Z</time>
</trkpt>
<trkpt lat="-26.8360652" lon="152.7400408">
<ele>556.661</ele>
<time>2018-01-10T01:57:17.407Z</time>
</trkpt>
<trkpt lat="-26.8362221" lon="152.7399610">
<ele>555.900</ele>
<time>2018-01-10T01:57:18.646Z</time>
</trkpt>
<trkpt lat="-26.8363174" lon="152.7397600">
<ele>554.850</ele>
<time>2018-01-10T01:57:20.259Z</time>
</trkpt>
<trkpt lat="-26.8364071" lon="152.7394363">
<ele>553.097</ele>
<time>2018-01-10T01:57:23.043Z</time>
</trkpt>
<trkpt lat="-26.8364827" lon="152.7390661">
<ele>550.739</ele>
<time>2018-01-10T01:57:26.150Z</time>
</trkpt>
<trkpt lat="-26.8366343" lon="152.7387379">
<ele>548.358</ele>
<time>2018-01-10T01:57:29.129Z</time>
</trkpt>
<trkpt lat="-26.8367978" lon="152.7384391">
<ele>546.385</ele>
<time>2018-01-10T01:57:32.345Z</time>
</trkpt>
<trkpt lat="-26.8369130" lon="152.7381500">
<ele>544.854</ele>
<time>2018-01-10T01:57:35.293Z</time>
</trkpt>
<trkpt lat="-26.8369718" lon="152.7378207">
<ele>543.755</ele>
<time>2018-01-10T01:57:37.685Z</time>
</trkpt>
<trkpt lat="-26.8369769" lon="152.7375486">
<ele>543.157</ele>
<time>2018-01-10T01:57:39.313Z</time>
</trkpt>
<trkpt lat="-26.8369374" lon="152.7372655">
<ele>542.998</ele>
<time>2018-01-10T01:57:40.961Z</time>
</trkpt>
<trkpt lat="-26.8368085" lon="152.7370361">
<ele>543.026</ele>
<time>2018-01-10T01:57:42.524Z</time>
</trkpt>
<trkpt lat="-26.8367093" lon="152.7368108">
<ele>542.910</ele>
<time>2018-01-10T01:57:44.013Z</time>
</trkpt>
<trkpt lat="-26.8367440" lon="152.7366510">
<ele>542.479</ele>
<time>2018-01-10T01:57:45.039Z</time>
</trkpt>
<trkpt lat="-26.8368484" lon="152.7365739">
<ele>541.931</ele>
<time>2018-01-10T01:57:45.914Z</time>
</trkpt>
<trkpt lat="-26.8370793" lon="152.7364715">
<ele>541.402</ele>
<time>2018-01-10T01:57:47.799Z</time>
</trkpt>
<trkpt lat="-26.8373372" lon="152.7364022">
<ele>540.686</ele>
<time>2018-01-10T01:57:49.962Z</time>
</trkpt>
<trkpt lat="-26.8375771" lon="152.7364388">
<ele>539.616</ele>
<time>2018-01-10T01:57:51.992Z</time>
</trkpt>
<trkpt lat="-26.8377671" lon="152.7365834">
<ele>538.375</ele>
<time>2018-01-10T01:57:54.050Z</time>
</trkpt>
<trkpt lat="-26.8379448" lon="152.7367929">
<ele>537.223</ele>
<time>2018-01-10T01:57:57.391Z</time>
</trkpt>
<trkpt lat="-26.8381169" lon="152.7370799">
<ele>536.027</ele>
<time>2018-01-10T01:58:01.018Z</time>
</trkpt>
<trkpt lat="-26.8382614" lon="152.7373653">
<ele>534.516</ele>
<time>2018-01-10T01:58:03.552Z</time>
</trkpt>
<trkpt lat="-26.8384735" lon="152.7374723">
<ele>532.778</ele>
<time>2018-01-10T01:58:05.591Z</time>
</trkpt>
<trkpt lat="-26.8387244" lon="152.7375627">
<ele>531.187</ele>
<time>2018-01-10T01:58:07.928Z</time>
</trkpt>
<trkpt lat="-26.8389684" lon="152.7376367">
<ele>529.987</ele>
<time>2018-01-10T01:58:09.962Z</time>
</trkpt>
<trkpt lat="-26.8391709" lon="152.7376942">
<ele>529.114</ele>
<time>2018-01-10T01:58:11.593Z</time>
</trkpt>
<trkpt lat="-26.8393104" lon="152.7377633">
<ele>528.449</ele>
<time>2018-01-10T01:58:12.864Z</time>
</trkpt>
<trkpt lat="-26.8393787" lon="152.7378864">
<ele>528.001</ele>
<time>2018-01-10T01:58:13.978Z</time>
</trkpt>
<trkpt lat="-26.8393937" lon="152.7380625">
<ele>527.429</ele>
<time>2018-01-10T01:58:15.467Z</time>
</trkpt>
<trkpt lat="-26.8394036" lon="152.7382946">
<ele>526.180</ele>
<time>2018-01-10T01:58:17.456Z</time>
</trkpt>
<trkpt lat="-26.8394267" lon="152.7385467">
<ele>524.219</ele>
<time>2018-01-10T01:58:19.726Z</time>
</trkpt>
<trkpt lat="-26.8395349" lon="152.7388337">
<ele>522.012</ele>
<time>2018-01-10T01:58:23.010Z</time>
</trkpt>
<trkpt lat="-26.8398148" lon="152.7389179">
<ele>519.984</ele>
<time>2018-01-10T01:58:27.357Z</time>
</trkpt>
<trkpt lat="-26.8402215" lon="152.7387244">
<ele>518.514</ele>
<time>2018-01-10T01:58:32.540Z</time>
</trkpt>
<trkpt lat="-26.8406283" lon="152.7385631">
<ele>517.958</ele>
<time>2018-01-10T01:58:36.976Z</time>
</trkpt>
<trkpt lat="-26.8410533" lon="152.7384482">
<ele>518.218</ele>
<time>2018-01-10T01:58:40.344Z</time>
</trkpt>
<trkpt lat="-26.8413281" lon="152.7383745">
<ele>518.703</ele>
<time>2018-01-10T01:58:42.345Z</time>
</trkpt>
<trkpt lat="-26.8415827" lon="152.7383278">
<ele>518.963</ele>
<time>2018-01-10T01:58:44.154Z</time>
</trkpt>
<trkpt lat="-26.8418291" lon="152.7383475">
<ele>518.958</ele>
<time>2018-01-10T01:58:45.896Z</time>
</trkpt>
<trkpt lat="-26.8423013" lon="152.7385602">
<ele>518.816</ele>
<time>2018-01-10T01:58:49.805Z</time>
</trkpt>
<trkpt lat="-26.8427387" lon="152.7387228">
<ele>518.874</ele>
<time>2018-01-10T01:58:53.277Z</time>
</trkpt>
<trkpt lat="-26.8431281" lon="152.7389531">
<ele>519.663</ele>
<time>2018-01-10T01:58:56.296Z</time>
</trkpt>
<trkpt lat="-26.8435055" lon="152.7393780">
<ele>521.586</ele>
<time>2018-01-10T01:58:59.915Z</time>
</trkpt>
<trkpt lat="-26.8439197" lon="152.7397115">
<ele>524.749</ele>
<time>2018-01-10T01:59:03.193Z</time>
</trkpt>
<trkpt lat="-26.8442292" lon="152.7399815">
<ele>529.086</ele>
<time>2018-01-10T01:59:05.667Z</time>
</trkpt>
<trkpt lat="-26.8444131" lon="152.7401502">
<ele>534.087</ele>
<time>2018-01-10T01:59:07.242Z</time>
</trkpt>
<trkpt lat="-26.8445456" lon="152.7403503">
<ele>538.615</ele>
<time>2018-01-10T01:59:08.824Z</time>
</trkpt>
<trkpt lat="-26.8445990" lon="152.7406385">
<ele>541.710</ele>
<time>2018-01-10T01:59:10.912Z</time>
</trkpt>
<trkpt lat="-26.8445755" lon="152.7409977">
<ele>543.327</ele>
<time>2018-01-10T01:59:13.569Z</time>
</trkpt>
<trkpt lat="-26.8445919" lon="152.7413066">
<ele>543.946</ele>
<time>2018-01-10T01:59:15.613Z</time>
</trkpt>
<trkpt lat="-26.8446608" lon="152.7415671">
<ele>543.775</ele>
<time>2018-01-10T01:59:17.309Z</time>
</trkpt>
<trkpt lat="-26.8448243" lon="152.7417585">
<ele>542.844</ele>
<time>2018-01-10T01:59:19.029Z</time>
</trkpt>
<trkpt lat="-26.8450747" lon="152.7418773">
<ele>541.626</ele>
<time>2018-01-10T01:59:21.204Z</time>
</trkpt>
<trkpt lat="-26.8452593" lon="152.7420931">
<ele>540.769</ele>
<time>2018-01-10T01:59:23.480Z</time>
</trkpt>
<trkpt lat="-26.8453765" lon="152.7423954">
<ele>540.570</ele>
<time>2018-01-10T01:59:25.816Z</time>
</trkpt>
<trkpt lat="-26.8454927" lon="152.7426988">
<ele>540.902</ele>
<time>2018-01-10T01:59:27.935Z</time>
</trkpt>
<trkpt lat="-26.8456711" lon="152.7429229">
<ele>541.373</ele>
<time>2018-01-10T01:59:29.804Z</time>
</trkpt>
<trkpt lat="-26.8459154" lon="152.7430183">
<ele>541.772</ele>
<time>2018-01-10T01:59:31.649Z</time>
</trkpt>
<trkpt lat="-26.8462151" lon="152.7430705">
<ele>542.167</ele>
<time>2018-01-10T01:59:33.853Z</time>
</trkpt>
<trkpt lat="-26.8465242" lon="152.7431017">
<ele>542.598</ele>
<time>2018-01-10T01:59:36.036Z</time>
</trkpt>
<trkpt lat="-26.8468288" lon="152.7431572">
<ele>543.037</ele>
<time>2018-01-10T01:59:38.121Z</time>
</trkpt>
<trkpt lat="-26.8471012" lon="152.7432051">
<ele>543.628</ele>
<time>2018-01-10T01:59:39.974Z</time>
</trkpt>
<trkpt lat="-26.8473272" lon="152.7432069">
<ele>544.601</ele>
<time>2018-01-10T01:59:41.540Z</time>
</trkpt>
<trkpt lat="-26.8474548" lon="152.7430592">
<ele>546.014</ele>
<time>2018-01-10T01:59:42.885Z</time>
</trkpt>
<trkpt lat="-26.8476278" lon="152.7429217">
<ele>547.828</ele>
<time>2018-01-10T01:59:44.570Z</time>
</trkpt>
<trkpt lat="-26.8478053" lon="152.7429161">
<ele>549.725</ele>
<time>2018-01-10T01:59:46.163Z</time>
</trkpt>
<trkpt lat="-26.8480158" lon="152.7428028">
<ele>551.072</ele>
<time>2018-01-10T01:59:48.577Z</time>
</trkpt>
<trkpt lat="-26.8482392" lon="152.7426473">
<ele>551.485</ele>
<time>2018-01-10T01:59:51.344Z</time>
</trkpt>
<trkpt lat="-26.8484894" lon="152.7424041">
<ele>550.908</ele>
<time>2018-01-10T01:59:54.193Z</time>
</trkpt>
<trkpt lat="-26.8487694" lon="152.7422078">
<ele>549.586</ele>
<time>2018-01-10T01:59:56.530Z</time>
</trkpt>
<trkpt lat="-26.8490507" lon="152.7421013">
<ele>548.108</ele>
<time>2018-01-10T01:59:58.494Z</time>
</trkpt>
<trkpt lat="-26.8493662" lon="152.7421294">
<ele>546.979</ele>
<time>2018-01-10T02:00:00.570Z</time>
</trkpt>
<trkpt lat="-26.8496668" lon="152.7420949">
<ele>546.315</ele>
<time>2018-01-10T02:00:02.539Z</time>
</trkpt>
<trkpt lat="-26.8500046" lon="152.7420557">
<ele>546.022</ele>
<time>2018-01-10T02:00:04.717Z</time>
</trkpt>
<trkpt lat="-26.8503180" lon="152.7420790">
<ele>545.988</ele>
<time>2018-01-10T02:00:06.703Z</time>
</trkpt>
<trkpt lat="-26.8506400" lon="152.7421992">
<ele>546.156</ele>
<time>2018-01-10T02:00:08.833Z</time>
</trkpt>
<trkpt lat="-26.8509226" lon="152.7423975">
<ele>546.428</ele>
<time>2018-01-10T02:00:10.924Z</time>
</trkpt>
<trkpt lat="-26.8511612" lon="152.7426448">
<ele>546.485</ele>
<time>2018-01-10T02:00:12.961Z</time>
</trkpt>
<trkpt lat="-26.8514059" lon="152.7428751">
<ele>546.117</ele>
<time>2018-01-10T02:00:14.965Z</time>
</trkpt>
<trkpt lat="-26.8515793" lon="152.7434353">
<ele>545.413</ele>
<time>2018-01-10T02:00:18.220Z</time>
</trkpt>
<trkpt lat="-26.8517244" lon="152.7437678">
<ele>544.332</ele>
<time>2018-01-10T02:00:20.218Z</time>
</trkpt>
<trkpt lat="-26.8519052" lon="152.7440624">
<ele>543.012</ele>
<time>2018-01-10T02:00:22.170Z</time>
</trkpt>
<trkpt lat="-26.8521298" lon="152.7443171">
<ele>542.159</ele>
<time>2018-01-10T02:00:24.168Z</time>
</trkpt>
<trkpt lat="-26.8524233" lon="152.7444729">
<ele>542.204</ele>
<time>2018-01-10T02:00:26.225Z</time>
</trkpt>
<trkpt lat="-26.8526853" lon="152.7446282">
<ele>542.772</ele>
<time>2018-01-10T02:00:28.146Z</time>
</trkpt>
<trkpt lat="-26.8528949" lon="152.7448119">
<ele>543.212</ele>
<time>2018-01-10T02:00:29.945Z</time>
</trkpt>
<trkpt lat="-26.8530483" lon="152.7450339">
<ele>542.974</ele>
<time>2018-01-10T02:00:31.729Z</time>
</trkpt>
<trkpt lat="-26.8530871" lon="152.7453642">
<ele>541.681</ele>
<time>2018-01-10T02:00:33.907Z</time>
</trkpt>
<trkpt lat="-26.8530802" lon="152.7457578">
<ele>539.443</ele>
<time>2018-01-10T02:00:36.306Z</time>
</trkpt>
<trkpt lat="-26.8531552" lon="152.7461481">
<ele>536.830</ele>
<time>2018-01-10T02:00:38.555Z</time>
</trkpt>
<trkpt lat="-26.8533134" lon="152.7464795">
<ele>534.368</ele>
<time>2018-01-10T02:00:40.656Z</time>
</trkpt>
<trkpt lat="-26.8535752" lon="152.7467340">
<ele>532.320</ele>
<time>2018-01-10T02:00:42.814Z</time>
</trkpt>
<trkpt lat="-26.8538327" lon="152.7470003">
<ele>530.731</ele>
<time>2018-01-10T02:00:44.929Z</time>
</trkpt>
<trkpt lat="-26.8540886" lon="152.7472666">
<ele>529.630</ele>
<time>2018-01-10T02:00:46.986Z</time>
</trkpt>
<trkpt lat="-26.8543523" lon="152.7475210">
<ele>529.405</ele>
<time>2018-01-10T02:00:48.997Z</time>
</trkpt>
<trkpt lat="-26.8546164" lon="152.7477667">
<ele>530.495</ele>
<time>2018-01-10T02:00:50.963Z</time>
</trkpt>
<trkpt lat="-26.8548656" lon="152.7480170">
<ele>532.577</ele>
<time>2018-01-10T02:00:52.875Z</time>
</trkpt>
<trkpt lat="-26.8551413" lon="152.7482158">
<ele>534.701</ele>
<time>2018-01-10T02:00:54.805Z</time>
</trkpt>
<trkpt lat="-26.8553753" lon="152.7484113">
<ele>536.152</ele>
<time>2018-01-10T02:00:56.633Z</time>
</trkpt>
<trkpt lat="-26.8556629" lon="152.7484932">
<ele>536.565</ele>
<time>2018-01-10T02:00:58.574Z</time>
</trkpt>
<trkpt lat="-26.8559881" lon="152.7485589">
<ele>535.713</ele>
<time>2018-01-10T02:01:00.738Z</time>
</trkpt>
<trkpt lat="-26.8563379" lon="152.7485967">
<ele>533.628</ele>
<time>2018-01-10T02:01:02.952Z</time>
</trkpt>
<trkpt lat="-26.8566901" lon="152.7487129">
<ele>530.661</ele>
<time>2018-01-10T02:01:05.174Z</time>
</trkpt>
<trkpt lat="-26.8570191" lon="152.7488717">
<ele>527.477</ele>
<time>2018-01-10T02:01:07.313Z</time>
</trkpt>
<trkpt lat="-26.8572852" lon="152.7490312">
<ele>524.705</ele>
<time>2018-01-10T02:01:09.146Z</time>
</trkpt>
<trkpt lat="-26.8575374" lon="152.7492064">
<ele>522.623</ele>
<time>2018-01-10T02:01:11.019Z</time>
</trkpt>
<trkpt lat="-26.8577432" lon="152.7494355">
<ele>521.309</ele>
<time>2018-01-10T02:01:12.936Z</time>
</trkpt>
<trkpt lat="-26.8578675" lon="152.7497334">
<ele>520.555</ele>
<time>2018-01-10T02:01:14.962Z</time>
</trkpt>
<trkpt lat="-26.8579405" lon="152.7500966">
<ele>519.680</ele>
<time>2018-01-10T02:01:17.293Z</time>
</trkpt>
<trkpt lat="-26.8580199" lon="152.7504284">
<ele>518.087</ele>
<time>2018-01-10T02:01:19.465Z</time>
</trkpt>
<trkpt lat="-26.8581021" lon="152.7507199">
<ele>515.675</ele>
<time>2018-01-10T02:01:21.444Z</time>
</trkpt>
<trkpt lat="-26.8581871" lon="152.7510093">
<ele>512.524</ele>
<time>2018-01-10T02:01:23.406Z</time>
</trkpt>
<trkpt lat="-26.8582230" lon="152.7513106">
<ele>508.802</ele>
<time>2018-01-10T02:01:25.336Z</time>
</trkpt>
<trkpt lat="-26.8581778" lon="152.7516108">
<ele>504.972</ele>
<time>2018-01-10T02:01:27.348Z</time>
</trkpt>
<trkpt lat="-26.8580228" lon="152.7518584">
<ele>501.415</ele>
<time>2018-01-10T02:01:29.419Z</time>
</trkpt>
<trkpt lat="-26.8578563" lon="152.7521102">
<ele>498.169</ele>
<time>2018-01-10T02:01:31.556Z</time>
</trkpt>
<trkpt lat="-26.8576888" lon="152.7523177">
<ele>495.394</ele>
<time>2018-01-10T02:01:33.558Z</time>
</trkpt>
<trkpt lat="-26.8575885" lon="152.7525543">
<ele>493.488</ele>
<time>2018-01-10T02:01:35.598Z</time>
</trkpt>
<trkpt lat="-26.8576396" lon="152.7528834">
<ele>492.606</ele>
<time>2018-01-10T02:01:38.228Z</time>
</trkpt>
<trkpt lat="-26.8577367" lon="152.7532220">
<ele>492.592</ele>
<time>2018-01-10T02:01:40.879Z</time>
</trkpt>
<trkpt lat="-26.8579150" lon="152.7534609">
<ele>493.222</ele>
<time>2018-01-10T02:01:43.245Z</time>
</trkpt>
<trkpt lat="-26.8581347" lon="152.7535282">
<ele>494.091</ele>
<time>2018-01-10T02:01:45.183Z</time>
</trkpt>
<trkpt lat="-26.8583908" lon="152.7536296">
<ele>494.608</ele>
<time>2018-01-10T02:01:47.487Z</time>
</trkpt>
<trkpt lat="-26.8585851" lon="152.7537693">
<ele>494.152</ele>
<time>2018-01-10T02:01:49.426Z</time>
</trkpt>
<trkpt lat="-26.8587887" lon="152.7539278">
<ele>492.150</ele>
<time>2018-01-10T02:01:51.420Z</time>
</trkpt>
<trkpt lat="-26.8590388" lon="152.7540618">
<ele>488.546</ele>
<time>2018-01-10T02:01:53.591Z</time>
</trkpt>
<trkpt lat="-26.8593187" lon="152.7541417">
<ele>484.128</ele>
<time>2018-01-10T02:01:55.970Z</time>
</trkpt>
<trkpt lat="-26.8595548" lon="152.7542076">
<ele>479.903</ele>
<time>2018-01-10T02:01:58.100Z</time>
</trkpt>
<trkpt lat="-26.8597629" lon="152.7542099">
<ele>476.322</ele>
<time>2018-01-10T02:02:00.059Z</time>
</trkpt>
<trkpt lat="-26.8599682" lon="152.7542925">
<ele>473.309</ele>
<time>2018-01-10T02:02:02.574Z</time>
</trkpt>
<trkpt lat="-26.8601091" lon="152.7543704">
<ele>470.789</ele>
<time>2018-01-10T02:02:04.870Z</time>
</trkpt>
<trkpt lat="-26.8601586" lon="152.7545117">
<ele>468.688</ele>
<time>2018-01-10T02:02:06.505Z</time>
</trkpt>
<trkpt lat="-26.8600754" lon="152.7546559">
<ele>466.862</ele>
<time>2018-01-10T02:02:08.012Z</time>
</trkpt>
<trkpt lat="-26.8599311" lon="152.7548298">
<ele>465.174</ele>
<time>2018-01-10T02:02:09.865Z</time>
</trkpt>
<trkpt lat="-26.8597403" lon="152.7550443">
<ele>463.377</ele>
<time>2018-01-10T02:02:12.143Z</time>
</trkpt>
<trkpt lat="-26.8596196" lon="152.7552625">
<ele>461.334</ele>
<time>2018-01-10T02:02:14.063Z</time>
</trkpt>
<trkpt lat="-26.8595053" lon="152.7554771">
<ele>459.143</ele>
<time>2018-01-10T02:02:15.892Z</time>
</trkpt>
<trkpt lat="-26.8593796" lon="152.7557572">
<ele>456.852</ele>
<time>2018-01-10T02:02:18.124Z</time>
</trkpt>
<trkpt lat="-26.8593246" lon="152.7561027">
<ele>454.453</ele>
<time>2018-01-10T02:02:20.538Z</time>
</trkpt>
<trkpt lat="-26.8593473" lon="152.7564156">
<ele>451.788</ele>
<time>2018-01-10T02:02:22.623Z</time>
</trkpt>
<trkpt lat="-26.8593746" lon="152.7567380">
<ele>448.657</ele>
<time>2018-01-10T02:02:24.703Z</time>
</trkpt>
<trkpt lat="-26.8594039" lon="152.7570489">
<ele>445.268</ele>
<time>2018-01-10T02:02:26.664Z</time>
</trkpt>
<trkpt lat="-26.8593818" lon="152.7573907">
<ele>441.913</ele>
<time>2018-01-10T02:02:29.032Z</time>
</trkpt>
<trkpt lat="-26.8593029" lon="152.7576928">
<ele>438.541</ele>
<time>2018-01-10T02:02:33.272Z</time>
</trkpt>
<trkpt lat="-26.8592214" lon="152.7578619">
<ele>435.069</ele>
<time>2018-01-10T02:02:35.858Z</time>
</trkpt>
<trkpt lat="-26.8591528" lon="152.7579304">
<ele>431.427</ele>
<time>2018-01-10T02:02:36.833Z</time>
</trkpt>
<trkpt lat="-26.8590218" lon="152.7578856">
<ele>427.467</ele>
<time>2018-01-10T02:02:38.080Z</time>
</trkpt>
<trkpt lat="-26.8590297" lon="152.7576572">
<ele>423.238</ele>
<time>2018-01-10T02:02:39.834Z</time>
</trkpt>
<trkpt lat="-26.8589952" lon="152.7573929">
<ele>418.999</ele>
<time>2018-01-10T02:02:41.813Z</time>
</trkpt>
<trkpt lat="-26.8589084" lon="152.7571339">
<ele>415.063</ele>
<time>2018-01-10T02:02:43.973Z</time>
</trkpt>
<trkpt lat="-26.8588386" lon="152.7568602">
<ele>411.678</ele>
<time>2018-01-10T02:02:46.537Z</time>
</trkpt>
<trkpt lat="-26.8587924" lon="152.7565972">
<ele>408.942</ele>
<time>2018-01-10T02:02:49.182Z</time>
</trkpt>
<trkpt lat="-26.8586918" lon="152.7564402">
<ele>406.804</ele>
<time>2018-01-10T02:02:51.094Z</time>
</trkpt>
<trkpt lat="-26.8586507" lon="152.7562838">
<ele>405.082</ele>
<time>2018-01-10T02:02:52.801Z</time>
</trkpt>
<trkpt lat="-26.8587173" lon="152.7560818">
<ele>403.282</ele>
<time>2018-01-10T02:02:55.105Z</time>
</trkpt>
<trkpt lat="-26.8587290" lon="152.7558504">
<ele>400.766</ele>
<time>2018-01-10T02:02:57.412Z</time>
</trkpt>
<trkpt lat="-26.8585933" lon="152.7557194">
<ele>397.623</ele>
<time>2018-01-10T02:02:59.350Z</time>
</trkpt>
<trkpt lat="-26.8584142" lon="152.7557124">
<ele>394.622</ele>
<time>2018-01-10T02:03:01.370Z</time>
</trkpt>
<trkpt lat="-26.8582251" lon="152.7558275">
<ele>392.002</ele>
<time>2018-01-10T02:03:03.827Z</time>
</trkpt>
<trkpt lat="-26.8580383" lon="152.7558221">
<ele>389.450</ele>
<time>2018-01-10T02:03:05.764Z</time>
</trkpt>
<trkpt lat="-26.8578823" lon="152.7557005">
<ele>386.970</ele>
<time>2018-01-10T02:03:07.604Z</time>
</trkpt>
<trkpt lat="-26.8577027" lon="152.7557048">
<ele>384.824</ele>
<time>2018-01-10T02:03:09.373Z</time>
</trkpt>
<trkpt lat="-26.8575391" lon="152.7558712">
<ele>382.952</ele>
<time>2018-01-10T02:03:12.285Z</time>
</trkpt>
<trkpt lat="-26.8573698" lon="152.7560630">
<ele>381.048</ele>
<time>2018-01-10T02:03:17.081Z</time>
</trkpt>
<trkpt lat="-26.8571987" lon="152.7561343">
<ele>378.926</ele>
<time>2018-01-10T02:03:19.703Z</time>
</trkpt>
<trkpt lat="-26.8570354" lon="152.7561612">
<ele>376.705</ele>
<time>2018-01-10T02:03:21.425Z</time>
</trkpt>
<trkpt lat="-26.8570572" lon="152.7562612">
<ele>374.720</ele>
<time>2018-01-10T02:03:22.421Z</time>
</trkpt>
<trkpt lat="-26.8573220" lon="152.7562655">
<ele>373.018</ele>
<time>2018-01-10T02:03:25.906Z</time>
</trkpt>
<trkpt lat="-26.8575717" lon="152.7562101">
<ele>371.392</ele>
<time>2018-01-10T02:03:29.546Z</time>
</trkpt>
<trkpt lat="-26.8577485" lon="152.7561471">
<ele>369.788</ele>
<time>2018-01-10T02:03:31.656Z</time>
</trkpt>
<trkpt lat="-26.8578843" lon="152.7561563">
<ele>368.103</ele>
<time>2018-01-10T02:03:33.085Z</time>
</trkpt>
<trkpt lat="-26.8579882" lon="152.7562859">
<ele>366.298</ele>
<time>2018-01-10T02:03:34.735Z</time>
</trkpt>
<trkpt lat="-26.8579565" lon="152.7564361">
<ele>364.606</ele>
<time>2018-01-10T02:03:36.258Z</time>
</trkpt>
<trkpt lat="-26.8579093" lon="152.7566386">
<ele>362.979</ele>
<time>2018-01-10T02:03:38.439Z</time>
</trkpt>
<trkpt lat="-26.8579506" lon="152.7568512">
<ele>361.101</ele>
<time>2018-01-10T02:03:40.693Z</time>
</trkpt>
<trkpt lat="-26.8580440" lon="152.7570460">
<ele>358.975</ele>
<time>2018-01-10T02:03:42.979Z</time>
</trkpt>
<trkpt lat="-26.8580321" lon="152.7572322">
<ele>356.820</ele>
<time>2018-01-10T02:03:44.873Z</time>
</trkpt>
<trkpt lat="-26.8579867" lon="152.7574136">
<ele>354.749</ele>
<time>2018-01-10T02:03:46.750Z</time>
</trkpt>
<trkpt lat="-26.8578864" lon="152.7575849">
<ele>352.878</ele>
<time>2018-01-10T02:03:48.789Z</time>
</trkpt>
<trkpt lat="-26.8578122" lon="152.7577638">
<ele>351.474</ele>
<time>2018-01-10T02:03:50.807Z</time>
</trkpt>
<trkpt lat="-26.8578542" lon="152.7579575">
<ele>350.703</ele>
<time>2018-01-10T02:03:53.017Z</time>
</trkpt>
<trkpt lat="-26.8577714" lon="152.7581395">
<ele>350.441</ele>
<time>2018-01-10T02:03:55.439Z</time>
</trkpt>
<trkpt lat="-26.8576693" lon="152.7583108">
<ele>350.457</ele>
<time>2018-01-10T02:03:57.687Z</time>
</trkpt>
<trkpt lat="-26.8576112" lon="152.7584937">
<ele>350.607</ele>
<time>2018-01-10T02:03:59.846Z</time>
</trkpt>
<trkpt lat="-26.8575490" lon="152.7586522">
<ele>350.807</ele>
<time>2018-01-10T02:04:01.995Z</time>
</trkpt>
<trkpt lat="-26.8575641" lon="152.7588215">
<ele>350.983</ele>
<time>2018-01-10T02:04:03.823Z</time>
</trkpt>
<trkpt lat="-26.8577173" lon="152.7589292">
<ele>351.231</ele>
<time>2018-01-10T02:04:05.666Z</time>
</trkpt>
<trkpt lat="-26.8578745" lon="152.7590405">
<ele>351.765</ele>
<time>2018-01-10T02:04:07.449Z</time>
</trkpt>
<trkpt lat="-26.8579841" lon="152.7591391">
<ele>352.522</ele>
<time>2018-01-10T02:04:08.773Z</time>
</trkpt>
<trkpt lat="-26.8579431" lon="152.7592837">
<ele>353.167</ele>
<time>2018-01-10T02:04:10.043Z</time>
</trkpt>
<trkpt lat="-26.8577936" lon="152.7594308">
<ele>353.388</ele>
<time>2018-01-10T02:04:12.002Z</time>
</trkpt>
<trkpt lat="-26.8576091" lon="152.7595374">
<ele>353.016</ele>
<time>2018-01-10T02:04:14.340Z</time>
</trkpt>
<trkpt lat="-26.8574446" lon="152.7596855">
<ele>351.896</ele>
<time>2018-01-10T02:04:16.718Z</time>
</trkpt>
<trkpt lat="-26.8572552" lon="152.7598619">
<ele>350.081</ele>
<time>2018-01-10T02:04:19.493Z</time>
</trkpt>
<trkpt lat="-26.8570982" lon="152.7599741">
<ele>348.100</ele>
<time>2018-01-10T02:04:21.621Z</time>
</trkpt>
<trkpt lat="-26.8570475" lon="152.7605668">
<ele>345.753</ele>
<time>2018-01-10T02:04:26.760Z</time>
</trkpt>
<trkpt lat="-26.8568256" lon="152.7608631">
<ele>342.217</ele>
<time>2018-01-10T02:04:29.639Z</time>
</trkpt>
<trkpt lat="-26.8565089" lon="152.7612289">
<ele>333.468</ele>
<time>2018-01-10T02:04:33.430Z</time>
</trkpt>
<trkpt lat="-26.8560238" lon="152.7619441">
<ele>322.716</ele>
<time>2018-01-10T02:04:40.196Z</time>
</trkpt>
<trkpt lat="-26.8560997" lon="152.7628392">
<ele>312.189</ele>
<time>2018-01-10T02:04:47.066Z</time>
</trkpt>
<trkpt lat="-26.8564661" lon="152.7635553">
<ele>299.866</ele>
<time>2018-01-10T02:04:53.429Z</time>
</trkpt>
<trkpt lat="-26.8567394" lon="152.7643951">
<ele>285.202</ele>
<time>2018-01-10T02:05:00.588Z</time>
</trkpt>
<trkpt lat="-26.8571876" lon="152.7650038">
<ele>269.076</ele>
<time>2018-01-10T02:05:07.023Z</time>
</trkpt>
<trkpt lat="-26.8575416" lon="152.7652909">
<ele>252.701</ele>
<time>2018-01-10T02:05:11.467Z</time>
</trkpt>
<trkpt lat="-26.8578475" lon="152.7655821">
<ele>238.620</ele>
<time>2018-01-10T02:05:15.450Z</time>
</trkpt>
<trkpt lat="-26.8578363" lon="152.7659838">
<ele>228.699</ele>
<time>2018-01-10T02:05:18.639Z</time>
</trkpt>
<trkpt lat="-26.8578961" lon="152.7664510">
<ele>222.476</ele>
<time>2018-01-10T02:05:22.167Z</time>
</trkpt>
<trkpt lat="-26.8581316" lon="152.7665812">
<ele>218.761</ele>
<time>2018-01-10T02:05:24.254Z</time>
</trkpt>
<trkpt lat="-26.8584475" lon="152.7666482">
<ele>217.006</ele>
<time>2018-01-10T02:05:26.713Z</time>
</trkpt>
<trkpt lat="-26.8586872" lon="152.7669872">
<ele>216.668</ele>
<time>2018-01-10T02:05:29.519Z</time>
</trkpt>
<trkpt lat="-26.8590141" lon="152.7672106">
<ele>217.015</ele>
<time>2018-01-10T02:05:32.100Z</time>
</trkpt>
<trkpt lat="-26.8592939" lon="152.7675271">
<ele>217.293</ele>
<time>2018-01-10T02:05:34.786Z</time>
</trkpt>
<trkpt lat="-26.8594838" lon="152.7677789">
<ele>216.732</ele>
<time>2018-01-10T02:05:36.878Z</time>
</trkpt>
<trkpt lat="-26.8597230" lon="152.7679215">
<ele>214.966</ele>
<time>2018-01-10T02:05:38.857Z</time>
</trkpt>
<trkpt lat="-26.8600186" lon="152.7679917">
<ele>212.346</ele>
<time>2018-01-10T02:05:41.065Z</time>
</trkpt>
<trkpt lat="-26.8603161" lon="152.7680861">
<ele>209.415</ele>
<time>2018-01-10T02:05:43.327Z</time>
</trkpt>
<trkpt lat="-26.8606206" lon="152.7681770">
<ele>206.500</ele>
<time>2018-01-10T02:05:45.652Z</time>
</trkpt>
<trkpt lat="-26.8608879" lon="152.7682898">
<ele>203.853</ele>
<time>2018-01-10T02:05:47.694Z</time>
</trkpt>
<trkpt lat="-26.8611056" lon="152.7684642">
<ele>201.458</ele>
<time>2018-01-10T02:05:49.559Z</time>
</trkpt>
<trkpt lat="-26.8614158" lon="152.7687623">
<ele>199.046</ele>
<time>2018-01-10T02:05:52.284Z</time>
</trkpt>
<trkpt lat="-26.8617426" lon="152.7690665">
<ele>196.332</ele>
<time>2018-01-10T02:05:55.116Z</time>
</trkpt>
<trkpt lat="-26.8620846" lon="152.7693382">
<ele>193.192</ele>
<time>2018-01-10T02:05:57.889Z</time>
</trkpt>
<trkpt lat="-26.8623790" lon="152.7697452">
<ele>189.492</ele>
<time>2018-01-10T02:06:00.919Z</time>
</trkpt>
<trkpt lat="-26.8627217" lon="152.7701229">
<ele>185.111</ele>
<time>2018-01-10T02:06:04.069Z</time>
</trkpt>
<trkpt lat="-26.8631195" lon="152.7703333">
<ele>180.586</ele>
<time>2018-01-10T02:06:06.903Z</time>
</trkpt>
<trkpt lat="-26.8634632" lon="152.7706553">
<ele>176.999</ele>
<time>2018-01-10T02:06:09.655Z</time>
</trkpt>
<trkpt lat="-26.8638006" lon="152.7710162">
<ele>174.837</ele>
<time>2018-01-10T02:06:12.556Z</time>
</trkpt>
<trkpt lat="-26.8641137" lon="152.7713817">
<ele>173.790</ele>
<time>2018-01-10T02:06:15.446Z</time>
</trkpt>
<trkpt lat="-26.8642656" lon="152.7718569">
<ele>173.161</ele>
<time>2018-01-10T02:06:18.262Z</time>
</trkpt>
<trkpt lat="-26.8642777" lon="152.7724277">
<ele>172.335</ele>
<time>2018-01-10T02:06:21.415Z</time>
</trkpt>
<trkpt lat="-26.8643233" lon="152.7729396">
<ele>170.892</ele>
<time>2018-01-10T02:06:24.284Z</time>
</trkpt>
<trkpt lat="-26.8643198" lon="152.7734700">
<ele>168.527</ele>
<time>2018-01-10T02:06:27.285Z</time>
</trkpt>
<trkpt lat="-26.8645177" lon="152.7740445">
<ele>165.371</ele>
<time>2018-01-10T02:06:30.844Z</time>
</trkpt>
<trkpt lat="-26.8647713" lon="152.7744962">
<ele>162.187</ele>
<time>2018-01-10T02:06:33.913Z</time>
</trkpt>
<trkpt lat="-26.8650264" lon="152.7749565">
<ele>159.554</ele>
<time>2018-01-10T02:06:36.988Z</time>
</trkpt>
<trkpt lat="-26.8652317" lon="152.7754408">
<ele>157.319</ele>
<time>2018-01-10T02:06:39.919Z</time>
</trkpt>
<trkpt lat="-26.8654317" lon="152.7759215">
<ele>155.284</ele>
<time>2018-01-10T02:06:42.635Z</time>
</trkpt>
<trkpt lat="-26.8655893" lon="152.7764429">
<ele>153.449</ele>
<time>2018-01-10T02:06:45.370Z</time>
</trkpt>
<trkpt lat="-26.8656873" lon="152.7769730">
<ele>151.564</ele>
<time>2018-01-10T02:06:48.036Z</time>
</trkpt>
<trkpt lat="-26.8657880" lon="152.7775477">
<ele>149.124</ele>
<time>2018-01-10T02:06:50.862Z</time>
</trkpt>
<trkpt lat="-26.8658899" lon="152.7781473">
<ele>145.523</ele>
<time>2018-01-10T02:06:53.709Z</time>
</trkpt>
<trkpt lat="-26.8659761" lon="152.7787803">
<ele>140.750</ele>
<time>2018-01-10T02:06:56.709Z</time>
</trkpt>
<trkpt lat="-26.8660711" lon="152.7794305">
<ele>135.883</ele>
<time>2018-01-10T02:06:59.928Z</time>
</trkpt>
<trkpt lat="-26.8661465" lon="152.7800319">
<ele>132.024</ele>
<time>2018-01-10T02:07:02.945Z</time>
</trkpt>
<trkpt lat="-26.8660781" lon="152.7807235">
<ele>129.420</ele>
<time>2018-01-10T02:07:06.436Z</time>
</trkpt>
<trkpt lat="-26.8660265" lon="152.7813126">
<ele>127.735</ele>
<time>2018-01-10T02:07:09.433Z</time>
</trkpt>
<trkpt lat="-26.8660182" lon="152.7819116">
<ele>126.627</ele>
<time>2018-01-10T02:07:12.293Z</time>
</trkpt>
<trkpt lat="-26.8661309" lon="152.7825011">
<ele>125.998</ele>
<time>2018-01-10T02:07:15.011Z</time>
</trkpt>
<trkpt lat="-26.8664691" lon="152.7829638">
<ele>126.144</ele>
<time>2018-01-10T02:07:17.745Z</time>
</trkpt>
<trkpt lat="-26.8666721" lon="152.7835144">
<ele>127.415</ele>
<time>2018-01-10T02:07:20.650Z</time>
</trkpt>
<trkpt lat="-26.8667279" lon="152.7842160">
<ele>129.429</ele>
<time>2018-01-10T02:07:24.381Z</time>
</trkpt>
<trkpt lat="-26.8668715" lon="152.7848365">
<ele>131.434</ele>
<time>2018-01-10T02:07:27.946Z</time>
</trkpt>
<trkpt lat="-26.8669392" lon="152.7854283">
<ele>132.986</ele>
<time>2018-01-10T02:07:31.212Z</time>
</trkpt>
<trkpt lat="-26.8670595" lon="152.7859387">
<ele>133.840</ele>
<time>2018-01-10T02:07:33.877Z</time>
</trkpt>
<trkpt lat="-26.8673291" lon="152.7863822">
<ele>134.014</ele>
<time>2018-01-10T02:07:36.474Z</time>
</trkpt>
<trkpt lat="-26.8677689" lon="152.7866240">
<ele>133.792</ele>
<time>2018-01-10T02:07:39.094Z</time>
</trkpt>
<trkpt lat="-26.8682862" lon="152.7865897">
<ele>133.438</ele>
<time>2018-01-10T02:07:41.823Z</time>
</trkpt>
<trkpt lat="-26.8686391" lon="152.7864614">
<ele>133.149</ele>
<time>2018-01-10T02:07:43.750Z</time>
</trkpt>
<trkpt lat="-26.8689907" lon="152.7863298">
<ele>133.012</ele>
<time>2018-01-10T02:07:45.665Z</time>
</trkpt>
<trkpt lat="-26.8694719" lon="152.7861012">
<ele>132.926</ele>
<time>2018-01-10T02:07:48.327Z</time>
</trkpt>
<trkpt lat="-26.8700150" lon="152.7859605">
<ele>132.471</ele>
<time>2018-01-10T02:07:51.149Z</time>
</trkpt>
<trkpt lat="-26.8706121" lon="152.7859526">
<ele>131.273</ele>
<time>2018-01-10T02:07:54.250Z</time>
</trkpt>
<trkpt lat="-26.8709905" lon="152.7859934">
<ele>129.619</ele>
<time>2018-01-10T02:07:56.284Z</time>
</trkpt>
<trkpt lat="-26.8715784" lon="152.7859233">
<ele>128.241</ele>
<time>2018-01-10T02:07:59.500Z</time>
</trkpt>
<trkpt lat="-26.8721386" lon="152.7857830">
<ele>127.548</ele>
<time>2018-01-10T02:08:02.637Z</time>
</trkpt>
<trkpt lat="-26.8726651" lon="152.7856532">
<ele>127.411</ele>
<time>2018-01-10T02:08:05.558Z</time>
</trkpt>
<trkpt lat="-26.8731979" lon="152.7855251">
<ele>127.498</ele>
<time>2018-01-10T02:08:08.436Z</time>
</trkpt>
<trkpt lat="-26.8737315" lon="152.7855165">
<ele>127.599</ele>
<time>2018-01-10T02:08:11.163Z</time>
</trkpt>
<trkpt lat="-26.8742694" lon="152.7857125">
<ele>127.748</ele>
<time>2018-01-10T02:08:13.989Z</time>
</trkpt>
<trkpt lat="-26.8748089" lon="152.7859217">
<ele>128.012</ele>
<time>2018-01-10T02:08:16.831Z</time>
</trkpt>
<trkpt lat="-26.8752919" lon="152.7862906">
<ele>128.233</ele>
<time>2018-01-10T02:08:19.752Z</time>
</trkpt>
<trkpt lat="-26.8757942" lon="152.7866286">
<ele>128.186</ele>
<time>2018-01-10T02:08:22.720Z</time>
</trkpt>
<trkpt lat="-26.8763179" lon="152.7869854">
<ele>127.767</ele>
<time>2018-01-10T02:08:25.939Z</time>
</trkpt>
<trkpt lat="-26.8768132" lon="152.7873276">
<ele>126.825</ele>
<time>2018-01-10T02:08:29.314Z</time>
</trkpt>
<trkpt lat="-26.8773358" lon="152.7875296">
<ele>125.352</ele>
<time>2018-01-10T02:08:33.455Z</time>
</trkpt>
<trkpt lat="-26.8779053" lon="152.7876170">
<ele>123.717</ele>
<time>2018-01-10T02:08:41.210Z</time>
</trkpt>
<trkpt lat="-26.8784183" lon="152.7876227">
<ele>122.447</ele>
<time>2018-01-10T02:08:46.381Z</time>
</trkpt>
<trkpt lat="-26.8787947" lon="152.7876556">
<ele>121.810</ele>
<time>2018-01-10T02:08:48.485Z</time>
</trkpt>
<trkpt lat="-26.8790680" lon="152.7877745">
<ele>121.475</ele>
<time>2018-01-10T02:08:50.034Z</time>
</trkpt>
<trkpt lat="-26.8792313" lon="152.7879362">
<ele>120.951</ele>
<time>2018-01-10T02:08:51.156Z</time>
</trkpt>
<trkpt lat="-26.8793239" lon="152.7879865">
<ele>120.338</ele>
<time>2018-01-10T02:08:51.686Z</time>
</trkpt>
<trkpt lat="-26.8795444" lon="152.7879902">
<ele>119.995</ele>
<time>2018-01-10T02:08:52.777Z</time>
</trkpt>
<trkpt lat="-26.8799919" lon="152.7877077">
<ele>120.010</ele>
<time>2018-01-10T02:08:55.253Z</time>
</trkpt>
<trkpt lat="-26.8805994" lon="152.7873983">
<ele>120.335</ele>
<time>2018-01-10T02:08:58.199Z</time>
</trkpt>
<trkpt lat="-26.8813505" lon="152.7871224">
<ele>120.997</ele>
<time>2018-01-10T02:09:01.386Z</time>
</trkpt>
<trkpt lat="-26.8820966" lon="152.7869853">
<ele>122.320</ele>
<time>2018-01-10T02:09:04.313Z</time>
</trkpt>
<trkpt lat="-26.8828347" lon="152.7869114">
<ele>124.215</ele>
<time>2018-01-10T02:09:07.178Z</time>
</trkpt>
<trkpt lat="-26.8836044" lon="152.7869595">
<ele>125.801</ele>
<time>2018-01-10T02:09:10.175Z</time>
</trkpt>
<trkpt lat="-26.8843786" lon="152.7870325">
<ele>126.370</ele>
<time>2018-01-10T02:09:13.203Z</time>
</trkpt>
<trkpt lat="-26.8851220" lon="152.7870791">
<ele>125.932</ele>
<time>2018-01-10T02:09:16.082Z</time>
</trkpt>
<trkpt lat="-26.8858834" lon="152.7871079">
<ele>124.901</ele>
<time>2018-01-10T02:09:19.003Z</time>
</trkpt>
<trkpt lat="-26.8866258" lon="152.7870914">
<ele>123.866</ele>
<time>2018-01-10T02:09:21.855Z</time>
</trkpt>
<trkpt lat="-26.8873634" lon="152.7869226">
<ele>123.111</ele>
<time>2018-01-10T02:09:24.762Z</time>
</trkpt>
<trkpt lat="-26.8881109" lon="152.7866446">
<ele>122.456</ele>
<time>2018-01-10T02:09:27.810Z</time>
</trkpt>
<trkpt lat="-26.8888071" lon="152.7863112">
<ele>121.590</ele>
<time>2018-01-10T02:09:30.732Z</time>
</trkpt>
<trkpt lat="-26.8894794" lon="152.7859191">
<ele>120.479</ele>
<time>2018-01-10T02:09:33.662Z</time>
</trkpt>
<trkpt lat="-26.8901196" lon="152.7854222">
<ele>118.952</ele>
<time>2018-01-10T02:09:36.674Z</time>
</trkpt>
<trkpt lat="-26.8907435" lon="152.7849163">
<ele>116.721</ele>
<time>2018-01-10T02:09:39.645Z</time>
</trkpt>
<trkpt lat="-26.8913581" lon="152.7844428">
<ele>114.330</ele>
<time>2018-01-10T02:09:42.530Z</time>
</trkpt>
<trkpt lat="-26.8920157" lon="152.7839680">
<ele>112.746</ele>
<time>2018-01-10T02:09:45.562Z</time>
</trkpt>
<trkpt lat="-26.8926511" lon="152.7835052">
<ele>112.130</ele>
<time>2018-01-10T02:09:48.501Z</time>
</trkpt>
<trkpt lat="-26.8932873" lon="152.7830432">
<ele>112.118</ele>
<time>2018-01-10T02:09:51.449Z</time>
</trkpt>
<trkpt lat="-26.8939276" lon="152.7825772">
<ele>112.428</ele>
<time>2018-01-10T02:09:54.419Z</time>
</trkpt>
<trkpt lat="-26.8945754" lon="152.7821286">
<ele>113.254</ele>
<time>2018-01-10T02:09:57.368Z</time>
</trkpt>
<trkpt lat="-26.8951908" lon="152.7816633">
<ele>115.247</ele>
<time>2018-01-10T02:10:00.234Z</time>
</trkpt>
<trkpt lat="-26.8957978" lon="152.7812124">
<ele>118.468</ele>
<time>2018-01-10T02:10:03.043Z</time>
</trkpt>
<trkpt lat="-26.8964307" lon="152.7807462">
<ele>121.969</ele>
<time>2018-01-10T02:10:05.958Z</time>
</trkpt>
<trkpt lat="-26.8970898" lon="152.7803181">
<ele>124.622</ele>
<time>2018-01-10T02:10:08.885Z</time>
</trkpt>
<trkpt lat="-26.8975537" lon="152.7800649">
<ele>125.783</ele>
<time>2018-01-10T02:10:10.868Z</time>
</trkpt>
<trkpt lat="-26.8982299" lon="152.7796751">
<ele>125.401</ele>
<time>2018-01-10T02:10:13.798Z</time>
</trkpt>
<trkpt lat="-26.8989008" lon="152.7792589">
<ele>123.907</ele>
<time>2018-01-10T02:10:16.749Z</time>
</trkpt>
<trkpt lat="-26.8993528" lon="152.7789887">
<ele>122.013</ele>
<time>2018-01-10T02:10:18.722Z</time>
</trkpt>
<trkpt lat="-26.8997875" lon="152.7787027">
<ele>120.450</ele>
<time>2018-01-10T02:10:20.678Z</time>
</trkpt>
<trkpt lat="-26.9004823" lon="152.7783251">
<ele>119.578</ele>
<time>2018-01-10T02:10:23.682Z</time>
</trkpt>
<trkpt lat="-26.9009500" lon="152.7781181">
<ele>119.480</ele>
<time>2018-01-10T02:10:25.618Z</time>
</trkpt>
<trkpt lat="-26.9014164" lon="152.7779190">
<ele>119.977</ele>
<time>2018-01-10T02:10:27.531Z</time>
</trkpt>
<trkpt lat="-26.9018896" lon="152.7777526">
<ele>120.650</ele>
<time>2018-01-10T02:10:29.433Z</time>
</trkpt>
<trkpt lat="-26.9023815" lon="152.7776295">
<ele>121.350</ele>
<time>2018-01-10T02:10:31.373Z</time>
</trkpt>
<trkpt lat="-26.9028946" lon="152.7775345">
<ele>122.147</ele>
<time>2018-01-10T02:10:33.388Z</time>
</trkpt>
<trkpt lat="-26.9036507" lon="152.7774240">
<ele>122.829</ele>
<time>2018-01-10T02:10:36.346Z</time>
</trkpt>
<trkpt lat="-26.9041566" lon="152.7773797">
<ele>122.990</ele>
<time>2018-01-10T02:10:38.302Z</time>
</trkpt>
<trkpt lat="-26.9046472" lon="152.7773689">
<ele>122.577</ele>
<time>2018-01-10T02:10:40.187Z</time>
</trkpt>
<trkpt lat="-26.9051555" lon="152.7773509">
<ele>122.020</ele>
<time>2018-01-10T02:10:42.132Z</time>
</trkpt>
<trkpt lat="-26.9056629" lon="152.7773074">
<ele>121.705</ele>
<time>2018-01-10T02:10:44.082Z</time>
</trkpt>
<trkpt lat="-26.9064235" lon="152.7771878">
<ele>121.755</ele>
<time>2018-01-10T02:10:47.033Z</time>
</trkpt>
<trkpt lat="-26.9069163" lon="152.7770600">
<ele>122.127</ele>
<time>2018-01-10T02:10:48.981Z</time>
</trkpt>
<trkpt lat="-26.9076377" lon="152.7767926">
<ele>122.532</ele>
<time>2018-01-10T02:10:51.902Z</time>
</trkpt>
<trkpt lat="-26.9081108" lon="152.7765797">
<ele>122.743</ele>
<time>2018-01-10T02:10:53.854Z</time>
</trkpt>
<trkpt lat="-26.9088054" lon="152.7762116">
<ele>122.750</ele>
<time>2018-01-10T02:10:56.798Z</time>
</trkpt>
<trkpt lat="-26.9092528" lon="152.7759122">
<ele>122.629</ele>
<time>2018-01-10T02:10:58.805Z</time>
</trkpt>
<trkpt lat="-26.9096800" lon="152.7755822">
<ele>122.400</ele>
<time>2018-01-10T02:11:00.812Z</time>
</trkpt>
<trkpt lat="-26.9100749" lon="152.7752336">
<ele>122.059</ele>
<time>2018-01-10T02:11:02.758Z</time>
</trkpt>
<trkpt lat="-26.9104600" lon="152.7748659">
<ele>121.591</ele>
<time>2018-01-10T02:11:04.718Z</time>
</trkpt>
<trkpt lat="-26.9108349" lon="152.7744990">
<ele>120.869</ele>
<time>2018-01-10T02:11:06.680Z</time>
</trkpt>
<trkpt lat="-26.9112321" lon="152.7741298">
<ele>119.879</ele>
<time>2018-01-10T02:11:08.768Z</time>
</trkpt>
<trkpt lat="-26.9116344" lon="152.7737778">
<ele>118.961</ele>
<time>2018-01-10T02:11:11.024Z</time>
</trkpt>
<trkpt lat="-26.9120230" lon="152.7734441">
<ele>118.394</ele>
<time>2018-01-10T02:11:13.558Z</time>
</trkpt>
<trkpt lat="-26.9125971" lon="152.7730450">
<ele>118.092</ele>
<time>2018-01-10T02:11:17.828Z</time>
</trkpt>
<trkpt lat="-26.9129375" lon="152.7728326">
<ele>117.461</ele>
<time>2018-01-10T02:11:20.447Z</time>
</trkpt>
<trkpt lat="-26.9132187" lon="152.7726319">
<ele>116.011</ele>
<time>2018-01-10T02:11:22.628Z</time>
</trkpt>
<trkpt lat="-26.9134402" lon="152.7724661">
<ele>114.170</ele>
<time>2018-01-10T02:11:24.347Z</time>
</trkpt>
<trkpt lat="-26.9136727" lon="152.7723073">
<ele>112.643</ele>
<time>2018-01-10T02:11:26.104Z</time>
</trkpt>
<trkpt lat="-26.9140647" lon="152.7720734">
<ele>111.646</ele>
<time>2018-01-10T02:11:28.965Z</time>
</trkpt>
<trkpt lat="-26.9143342" lon="152.7719085">
<ele>111.258</ele>
<time>2018-01-10T02:11:30.939Z</time>
</trkpt>
<trkpt lat="-26.9147344" lon="152.7716617">
<ele>111.411</ele>
<time>2018-01-10T02:11:33.865Z</time>
</trkpt>
<trkpt lat="-26.9150032" lon="152.7715057">
<ele>111.784</ele>
<time>2018-01-10T02:11:35.797Z</time>
</trkpt>
<trkpt lat="-26.9154156" lon="152.7712764">
<ele>112.163</ele>
<time>2018-01-10T02:11:38.732Z</time>
</trkpt>
<trkpt lat="-26.9158127" lon="152.7710180">
<ele>112.702</ele>
<time>2018-01-10T02:11:41.660Z</time>
</trkpt>
<trkpt lat="-26.9160779" lon="152.7708560">
<ele>113.456</ele>
<time>2018-01-10T02:11:43.591Z</time>
</trkpt>
<trkpt lat="-26.9163419" lon="152.7707100">
<ele>114.064</ele>
<time>2018-01-10T02:11:45.479Z</time>
</trkpt>
<trkpt lat="-26.9166214" lon="152.7705478">
<ele>114.201</ele>
<time>2018-01-10T02:11:47.502Z</time>
</trkpt>
<trkpt lat="-26.9170146" lon="152.7703076">
<ele>113.960</ele>
<time>2018-01-10T02:11:50.378Z</time>
</trkpt>
<trkpt lat="-26.9172886" lon="152.7701529">
<ele>113.635</ele>
<time>2018-01-10T02:11:52.333Z</time>
</trkpt>
<trkpt lat="-26.9175832" lon="152.7700468">
<ele>113.500</ele>
<time>2018-01-10T02:11:54.297Z</time>
</trkpt>
<trkpt lat="-26.9178440" lon="152.7698870">
<ele>113.600</ele>
<time>2018-01-10T02:11:56.183Z</time>
</trkpt>
<trkpt lat="-26.9182527" lon="152.7696383">
<ele>113.719</ele>
<time>2018-01-10T02:11:59.164Z</time>
</trkpt>
<trkpt lat="-26.9186704" lon="152.7693647">
<ele>113.610</ele>
<time>2018-01-10T02:12:02.259Z</time>
</trkpt>
<trkpt lat="-26.9189385" lon="152.7691822">
<ele>113.275</ele>
<time>2018-01-10T02:12:04.253Z</time>
</trkpt>
<trkpt lat="-26.9193312" lon="152.7689235">
<ele>112.922</ele>
<time>2018-01-10T02:12:07.139Z</time>
</trkpt>
<trkpt lat="-26.9195678" lon="152.7687103">
<ele>112.732</ele>
<time>2018-01-10T02:12:09.067Z</time>
</trkpt>
<trkpt lat="-26.9198186" lon="152.7685078">
<ele>112.786</ele>
<time>2018-01-10T02:12:11.039Z</time>
</trkpt>
<trkpt lat="-26.9200587" lon="152.7682850">
<ele>113.065</ele>
<time>2018-01-10T02:12:13.028Z</time>
</trkpt>
<trkpt lat="-26.9202785" lon="152.7680573">
<ele>113.415</ele>
<time>2018-01-10T02:12:14.927Z</time>
</trkpt>
<trkpt lat="-26.9205237" lon="152.7678133">
<ele>113.724</ele>
<time>2018-01-10T02:12:16.997Z</time>
</trkpt>
<trkpt lat="-26.9207353" lon="152.7675759">
<ele>113.994</ele>
<time>2018-01-10T02:12:18.888Z</time>
</trkpt>
<trkpt lat="-26.9209275" lon="152.7673188">
<ele>114.178</ele>
<time>2018-01-10T02:12:20.783Z</time>
</trkpt>
<trkpt lat="-26.9211592" lon="152.7670666">
<ele>114.123</ele>
<time>2018-01-10T02:12:22.839Z</time>
</trkpt>
<trkpt lat="-26.9214953" lon="152.7667044">
<ele>113.715</ele>
<time>2018-01-10T02:12:25.829Z</time>
</trkpt>
<trkpt lat="-26.9217213" lon="152.7664808">
<ele>113.088</ele>
<time>2018-01-10T02:12:27.785Z</time>
</trkpt>
<trkpt lat="-26.9219310" lon="152.7662372">
<ele>112.527</ele>
<time>2018-01-10T02:12:29.745Z</time>
</trkpt>
<trkpt lat="-26.9221581" lon="152.7659894">
<ele>112.220</ele>
<time>2018-01-10T02:12:31.799Z</time>
</trkpt>
<trkpt lat="-26.9223744" lon="152.7657536">
<ele>112.271</ele>
<time>2018-01-10T02:12:33.742Z</time>
</trkpt>
<trkpt lat="-26.9225983" lon="152.7655194">
<ele>112.669</ele>
<time>2018-01-10T02:12:35.690Z</time>
</trkpt>
<trkpt lat="-26.9227966" lon="152.7652691">
<ele>113.171</ele>
<time>2018-01-10T02:12:37.576Z</time>
</trkpt>
<trkpt lat="-26.9229990" lon="152.7650425">
<ele>113.500</ele>
<time>2018-01-10T02:12:39.367Z</time>
</trkpt>
<trkpt lat="-26.9232262" lon="152.7648053">
<ele>113.649</ele>
<time>2018-01-10T02:12:41.229Z</time>
</trkpt>
<trkpt lat="-26.9234332" lon="152.7645595">
<ele>113.720</ele>
<time>2018-01-10T02:12:42.855Z</time>
</trkpt>
<trkpt lat="-26.9237772" lon="152.7642054">
<ele>113.773</ele>
<time>2018-01-10T02:12:45.093Z</time>
</trkpt>
<trkpt lat="-26.9240119" lon="152.7639373">
<ele>113.806</ele>
<time>2018-01-10T02:12:46.675Z</time>
</trkpt>
<trkpt lat="-26.9242989" lon="152.7636229">
<ele>113.776</ele>
<time>2018-01-10T02:12:48.553Z</time>
</trkpt>
<trkpt lat="-26.9247577" lon="152.7631180">
<ele>113.680</ele>
<time>2018-01-10T02:12:51.644Z</time>
</trkpt>
<trkpt lat="-26.9251827" lon="152.7626393">
<ele>113.516</ele>
<time>2018-01-10T02:12:54.557Z</time>
</trkpt>
<trkpt lat="-26.9256248" lon="152.7621512">
<ele>113.270</ele>
<time>2018-01-10T02:12:57.534Z</time>
</trkpt>
<trkpt lat="-26.9260919" lon="152.7616661">
<ele>113.070</ele>
<time>2018-01-10T02:13:00.569Z</time>
</trkpt>
<trkpt lat="-26.9265252" lon="152.7611652">
<ele>113.137</ele>
<time>2018-01-10T02:13:03.535Z</time>
</trkpt>
<trkpt lat="-26.9269585" lon="152.7606573">
<ele>113.493</ele>
<time>2018-01-10T02:13:06.545Z</time>
</trkpt>
<trkpt lat="-26.9273695" lon="152.7601678">
<ele>113.757</ele>
<time>2018-01-10T02:13:09.432Z</time>
</trkpt>
<trkpt lat="-26.9278236" lon="152.7596959">
<ele>113.524</ele>
<time>2018-01-10T02:13:12.406Z</time>
</trkpt>
<trkpt lat="-26.9282520" lon="152.7592174">
<ele>112.863</ele>
<time>2018-01-10T02:13:15.317Z</time>
</trkpt>
<trkpt lat="-26.9286820" lon="152.7587285">
<ele>112.178</ele>
<time>2018-01-10T02:13:18.275Z</time>
</trkpt>
<trkpt lat="-26.9291088" lon="152.7582568">
<ele>111.778</ele>
<time>2018-01-10T02:13:21.212Z</time>
</trkpt>
<trkpt lat="-26.9295420" lon="152.7578095">
<ele>111.713</ele>
<time>2018-01-10T02:13:24.369Z</time>
</trkpt>
<trkpt lat="-26.9299631" lon="152.7573574">
<ele>111.955</ele>
<time>2018-01-10T02:13:28.431Z</time>
</trkpt>
<trkpt lat="-26.9302680" lon="152.7569958">
<ele>112.483</ele>
<time>2018-01-10T02:13:32.044Z</time>
</trkpt>
<trkpt lat="-26.9305336" lon="152.7568173">
<ele>113.093</ele>
<time>2018-01-10T02:13:34.193Z</time>
</trkpt>
<trkpt lat="-26.9308909" lon="152.7569138">
<ele>113.325</ele>
<time>2018-01-10T02:13:36.237Z</time>
</trkpt>
<trkpt lat="-26.9312549" lon="152.7572704">
<ele>113.007</ele>
<time>2018-01-10T02:13:38.729Z</time>
</trkpt>
<trkpt lat="-26.9316606" lon="152.7577561">
<ele>112.537</ele>
<time>2018-01-10T02:13:41.640Z</time>
</trkpt>
<trkpt lat="-26.9320801" lon="152.7582254">
<ele>112.285</ele>
<time>2018-01-10T02:13:44.509Z</time>
</trkpt>
<trkpt lat="-26.9324847" lon="152.7587291">
<ele>112.039</ele>
<time>2018-01-10T02:13:47.430Z</time>
</trkpt>
<trkpt lat="-26.9329181" lon="152.7592100">
<ele>111.415</ele>
<time>2018-01-10T02:13:50.347Z</time>
</trkpt>
<trkpt lat="-26.9332055" lon="152.7595069">
<ele>110.532</ele>
<time>2018-01-10T02:13:52.212Z</time>
</trkpt>
<trkpt lat="-26.9336710" lon="152.7599727">
<ele>109.715</ele>
<time>2018-01-10T02:13:55.188Z</time>
</trkpt>
<trkpt lat="-26.9341373" lon="152.7603929">
<ele>108.827</ele>
<time>2018-01-10T02:13:58.047Z</time>
</trkpt>
<trkpt lat="-26.9346244" lon="152.7608378">
<ele>107.671</ele>
<time>2018-01-10T02:14:01.058Z</time>
</trkpt>
<trkpt lat="-26.9351347" lon="152.7612259">
<ele>106.530</ele>
<time>2018-01-10T02:14:04.027Z</time>
</trkpt>
<trkpt lat="-26.9356446" lon="152.7615884">
<ele>105.729</ele>
<time>2018-01-10T02:14:06.933Z</time>
</trkpt>
<trkpt lat="-26.9361494" lon="152.7619735">
<ele>105.270</ele>
<time>2018-01-10T02:14:09.856Z</time>
</trkpt>
<trkpt lat="-26.9366961" lon="152.7623203">
<ele>105.440</ele>
<time>2018-01-10T02:14:12.857Z</time>
</trkpt>
<trkpt lat="-26.9372284" lon="152.7626678">
<ele>106.481</ele>
<time>2018-01-10T02:14:15.811Z</time>
</trkpt>
<trkpt lat="-26.9377600" lon="152.7629637">
<ele>107.815</ele>
<time>2018-01-10T02:14:18.654Z</time>
</trkpt>
<trkpt lat="-26.9382962" lon="152.7632922">
<ele>108.839</ele>
<time>2018-01-10T02:14:21.584Z</time>
</trkpt>
<trkpt lat="-26.9386569" lon="152.7634992">
<ele>109.580</ele>
<time>2018-01-10T02:14:23.535Z</time>
</trkpt>
<trkpt lat="-26.9389775" lon="152.7637829">
<ele>110.141</ele>
<time>2018-01-10T02:14:25.502Z</time>
</trkpt>
<trkpt lat="-26.9392669" lon="152.7641186">
<ele>110.572</ele>
<time>2018-01-10T02:14:27.508Z</time>
</trkpt>
<trkpt lat="-26.9396306" lon="152.7646800">
<ele>111.142</ele>
<time>2018-01-10T02:14:30.484Z</time>
</trkpt>
<trkpt lat="-26.9398540" lon="152.7650520">
<ele>112.302</ele>
<time>2018-01-10T02:14:32.401Z</time>
</trkpt>
<trkpt lat="-26.9401815" lon="152.7656536">
<ele>113.877</ele>
<time>2018-01-10T02:14:35.394Z</time>
</trkpt>
<trkpt lat="-26.9403997" lon="152.7660591">
<ele>115.059</ele>
<time>2018-01-10T02:14:37.407Z</time>
</trkpt>
<trkpt lat="-26.9406295" lon="152.7664485">
<ele>115.369</ele>
<time>2018-01-10T02:14:39.393Z</time>
</trkpt>
<trkpt lat="-26.9408497" lon="152.7668531">
<ele>114.853</ele>
<time>2018-01-10T02:14:41.411Z</time>
</trkpt>
<trkpt lat="-26.9410744" lon="152.7672417">
<ele>113.739</ele>
<time>2018-01-10T02:14:43.380Z</time>
</trkpt>
<trkpt lat="-26.9412881" lon="152.7675903">
<ele>112.469</ele>
<time>2018-01-10T02:14:45.174Z</time>
</trkpt>
<trkpt lat="-26.9415438" lon="152.7679626">
<ele>111.511</ele>
<time>2018-01-10T02:14:47.165Z</time>
</trkpt>
<trkpt lat="-26.9417979" lon="152.7683419">
<ele>111.059</ele>
<time>2018-01-10T02:14:49.195Z</time>
</trkpt>
<trkpt lat="-26.9420613" lon="152.7686818">
<ele>110.980</ele>
<time>2018-01-10T02:14:51.157Z</time>
</trkpt>
<trkpt lat="-26.9423392" lon="152.7689782">
<ele>110.948</ele>
<time>2018-01-10T02:14:53.047Z</time>
</trkpt>
<trkpt lat="-26.9426178" lon="152.7693071">
<ele>110.547</ele>
<time>2018-01-10T02:14:55.033Z</time>
</trkpt>
<trkpt lat="-26.9428797" lon="152.7696065">
<ele>109.598</ele>
<time>2018-01-10T02:14:56.858Z</time>
</trkpt>
<trkpt lat="-26.9431988" lon="152.7698956">
<ele>108.423</ele>
<time>2018-01-10T02:14:58.863Z</time>
</trkpt>
<trkpt lat="-26.9435069" lon="152.7701596">
<ele>107.513</ele>
<time>2018-01-10T02:15:00.769Z</time>
</trkpt>
<trkpt lat="-26.9438491" lon="152.7703833">
<ele>107.068</ele>
<time>2018-01-10T02:15:02.718Z</time>
</trkpt>
<trkpt lat="-26.9441816" lon="152.7706459">
<ele>106.858</ele>
<time>2018-01-10T02:15:04.713Z</time>
</trkpt>
<trkpt lat="-26.9444968" lon="152.7709261">
<ele>106.500</ele>
<time>2018-01-10T02:15:06.686Z</time>
</trkpt>
<trkpt lat="-26.9448192" lon="152.7711602">
<ele>105.931</ele>
<time>2018-01-10T02:15:08.576Z</time>
</trkpt>
<trkpt lat="-26.9451439" lon="152.7714198">
<ele>105.376</ele>
<time>2018-01-10T02:15:10.536Z</time>
</trkpt>
<trkpt lat="-26.9454794" lon="152.7716744">
<ele>105.041</ele>
<time>2018-01-10T02:15:12.515Z</time>
</trkpt>
<trkpt lat="-26.9458113" lon="152.7719348">
<ele>104.976</ele>
<time>2018-01-10T02:15:14.491Z</time>
</trkpt>
<trkpt lat="-26.9461353" lon="152.7721872">
<ele>105.151</ele>
<time>2018-01-10T02:15:16.426Z</time>
</trkpt>
<trkpt lat="-26.9464680" lon="152.7724151">
<ele>105.475</ele>
<time>2018-01-10T02:15:18.346Z</time>
</trkpt>
<trkpt lat="-26.9467986" lon="152.7726801">
<ele>105.754</ele>
<time>2018-01-10T02:15:20.342Z</time>
</trkpt>
<trkpt lat="-26.9471331" lon="152.7729413">
<ele>105.855</ele>
<time>2018-01-10T02:15:22.338Z</time>
</trkpt>
<trkpt lat="-26.9474484" lon="152.7732247">
<ele>105.843</ele>
<time>2018-01-10T02:15:24.333Z</time>
</trkpt>
<trkpt lat="-26.9477340" lon="152.7734982">
<ele>105.800</ele>
<time>2018-01-10T02:15:26.281Z</time>
</trkpt>
<trkpt lat="-26.9479723" lon="152.7737744">
<ele>105.747</ele>
<time>2018-01-10T02:15:28.234Z</time>
</trkpt>
<trkpt lat="-26.9482006" lon="152.7739869">
<ele>105.695</ele>
<time>2018-01-10T02:15:30.111Z</time>
</trkpt>
<trkpt lat="-26.9484162" lon="152.7741617">
<ele>105.651</ele>
<time>2018-01-10T02:15:31.902Z</time>
</trkpt>
<trkpt lat="-26.9486270" lon="152.7744099">
<ele>105.541</ele>
<time>2018-01-10T02:15:33.952Z</time>
</trkpt>
<trkpt lat="-26.9488174" lon="152.7746554">
<ele>105.028</ele>
<time>2018-01-10T02:15:35.874Z</time>
</trkpt>
<trkpt lat="-26.9490132" lon="152.7749457">
<ele>103.860</ele>
<time>2018-01-10T02:15:38.014Z</time>
</trkpt>
<trkpt lat="-26.9491677" lon="152.7752230">
<ele>102.296</ele>
<time>2018-01-10T02:15:39.930Z</time>
</trkpt>
<trkpt lat="-26.9493794" lon="152.7754880">
<ele>100.924</ele>
<time>2018-01-10T02:15:42.047Z</time>
</trkpt>
<trkpt lat="-26.9495303" lon="152.7757504">
<ele>100.246</ele>
<time>2018-01-10T02:15:44.082Z</time>
</trkpt>
<trkpt lat="-26.9496792" lon="152.7759589">
<ele>100.646</ele>
<time>2018-01-10T02:15:46.415Z</time>
</trkpt>
<trkpt lat="-26.9497249" lon="152.7760848">
<ele>102.113</ele>
<time>2018-01-10T02:15:48.194Z</time>
</trkpt>
<trkpt lat="-26.9496689" lon="152.7762265">
<ele>104.035</ele>
<time>2018-01-10T02:15:50.814Z</time>
</trkpt>
<trkpt lat="-26.9496593" lon="152.7763540">
<ele>105.671</ele>
<time>2018-01-10T02:15:53.041Z</time>
</trkpt>
<trkpt lat="-26.9497699" lon="152.7764488">
<ele>107.037</ele>
<time>2018-01-10T02:15:55.164Z</time>
</trkpt>
<trkpt lat="-26.9499132" lon="152.7764902">
<ele>108.516</ele>
<time>2018-01-10T02:15:57.241Z</time>
</trkpt>
<trkpt lat="-26.9500379" lon="152.7765168">
<ele>110.090</ele>
<time>2018-01-10T02:15:59.324Z</time>
</trkpt>
<trkpt lat="-26.9501627" lon="152.7765659">
<ele>111.541</ele>
<time>2018-01-10T02:16:02.468Z</time>
</trkpt>
<trkpt lat="-26.9502520" lon="152.7766013">
<ele>112.834</ele>
<time>2018-01-10T02:16:06.000Z</time>
</trkpt>
<trkpt lat="-26.9502520" lon="152.7766013">
<ele>113.845</ele>
<time>2018-01-10T02:16:07.000Z</time>
</trkpt>
<trkpt lat="-26.9502520" lon="152.7766013">
<ele>114.303</ele>
<time>2018-01-10T02:21:36.779Z</time>
</trkpt>
<trkpt lat="-26.9504047" lon="152.7766666">
<ele>114.203</ele>
<time>2018-01-10T02:21:47.173Z</time>
</trkpt>
<trkpt lat="-26.9504938" lon="152.7766406">
<ele>114.435</ele>
<time>2018-01-10T02:21:50.108Z</time>
</trkpt>
<trkpt lat="-26.9505965" lon="152.7766006">
<ele>115.604</ele>
<time>2018-01-10T02:21:52.031Z</time>
</trkpt>
<trkpt lat="-26.9508250" lon="152.7766551">
<ele>116.937</ele>
<time>2018-01-10T02:21:54.930Z</time>
</trkpt>
<trkpt lat="-26.9511504" lon="152.7767324">
<ele>117.623</ele>
<time>2018-01-10T02:21:58.060Z</time>
</trkpt>
<trkpt lat="-26.9513905" lon="152.7768037">
<ele>117.866</ele>
<time>2018-01-10T02:22:00.035Z</time>
</trkpt>
<trkpt lat="-26.9517694" lon="152.7769233">
<ele>118.054</ele>
<time>2018-01-10T02:22:02.995Z</time>
</trkpt>
<trkpt lat="-26.9520395" lon="152.7770137">
<ele>118.315</ele>
<time>2018-01-10T02:22:04.947Z</time>
</trkpt>
<trkpt lat="-26.9524639" lon="152.7771561">
<ele>118.570</ele>
<time>2018-01-10T02:22:07.965Z</time>
</trkpt>
<trkpt lat="-26.9527502" lon="152.7772470">
<ele>118.747</ele>
<time>2018-01-10T02:22:09.964Z</time>
</trkpt>
<trkpt lat="-26.9531773" lon="152.7773826">
<ele>118.839</ele>
<time>2018-01-10T02:22:12.943Z</time>
</trkpt>
<trkpt lat="-26.9534620" lon="152.7774782">
<ele>118.870</ele>
<time>2018-01-10T02:22:14.934Z</time>
</trkpt>
<trkpt lat="-26.9537450" lon="152.7775758">
<ele>118.876</ele>
<time>2018-01-10T02:22:16.912Z</time>
</trkpt>
<trkpt lat="-26.9541726" lon="152.7777195">
<ele>118.897</ele>
<time>2018-01-10T02:22:19.887Z</time>
</trkpt>
<trkpt lat="-26.9546048" lon="152.7778562">
<ele>118.965</ele>
<time>2018-01-10T02:22:22.875Z</time>
</trkpt>
<trkpt lat="-26.9548913" lon="152.7779471">
<ele>119.114</ele>
<time>2018-01-10T02:22:24.861Z</time>
</trkpt>
<trkpt lat="-26.9551785" lon="152.7780324">
<ele>119.355</ele>
<time>2018-01-10T02:22:26.851Z</time>
</trkpt>
<trkpt lat="-26.9554637" lon="152.7781221">
<ele>119.637</ele>
<time>2018-01-10T02:22:28.841Z</time>
</trkpt>
<trkpt lat="-26.9557487" lon="152.7782095">
<ele>119.919</ele>
<time>2018-01-10T02:22:30.817Z</time>
</trkpt>
<trkpt lat="-26.9561830" lon="152.7783319">
<ele>120.189</ele>
<time>2018-01-10T02:22:33.794Z</time>
</trkpt>
<trkpt lat="-26.9564751" lon="152.7784121">
<ele>120.447</ele>
<time>2018-01-10T02:22:35.791Z</time>
</trkpt>
<trkpt lat="-26.9569102" lon="152.7785232">
<ele>120.697</ele>
<time>2018-01-10T02:22:38.766Z</time>
</trkpt>
<trkpt lat="-26.9573412" lon="152.7786450">
<ele>120.967</ele>
<time>2018-01-10T02:22:41.739Z</time>
</trkpt>
<trkpt lat="-26.9576303" lon="152.7787242">
<ele>121.269</ele>
<time>2018-01-10T02:22:43.728Z</time>
</trkpt>
<trkpt lat="-26.9579196" lon="152.7788065">
<ele>121.556</ele>
<time>2018-01-10T02:22:45.719Z</time>
</trkpt>
<trkpt lat="-26.9582094" lon="152.7788904">
<ele>121.762</ele>
<time>2018-01-10T02:22:47.709Z</time>
</trkpt>
<trkpt lat="-26.9584986" lon="152.7789769">
<ele>121.866</ele>
<time>2018-01-10T02:22:49.699Z</time>
</trkpt>
<trkpt lat="-26.9587883" lon="152.7790566">
<ele>121.909</ele>
<time>2018-01-10T02:22:51.687Z</time>
</trkpt>
<trkpt lat="-26.9592202" lon="152.7791748">
<ele>121.946</ele>
<time>2018-01-10T02:22:54.657Z</time>
</trkpt>
<trkpt lat="-26.9595074" lon="152.7792565">
<ele>122.001</ele>
<time>2018-01-10T02:22:56.638Z</time>
</trkpt>
<trkpt lat="-26.9597975" lon="152.7793305">
<ele>122.063</ele>
<time>2018-01-10T02:22:58.626Z</time>
</trkpt>
<trkpt lat="-26.9600869" lon="152.7794091">
<ele>122.124</ele>
<time>2018-01-10T02:23:00.613Z</time>
</trkpt>
<trkpt lat="-26.9603770" lon="152.7794899">
<ele>122.183</ele>
<time>2018-01-10T02:23:02.606Z</time>
</trkpt>
<trkpt lat="-26.9606636" lon="152.7795851">
<ele>122.241</ele>
<time>2018-01-10T02:23:04.602Z</time>
</trkpt>
<trkpt lat="-26.9610849" lon="152.7797554">
<ele>122.286</ele>
<time>2018-01-10T02:23:07.591Z</time>
</trkpt>
<trkpt lat="-26.9613513" lon="152.7799042">
<ele>122.314</ele>
<time>2018-01-10T02:23:09.574Z</time>
</trkpt>
<trkpt lat="-26.9617503" lon="152.7801291">
<ele>122.334</ele>
<time>2018-01-10T02:23:12.551Z</time>
</trkpt>
<trkpt lat="-26.9620168" lon="152.7802806">
<ele>122.355</ele>
<time>2018-01-10T02:23:14.540Z</time>
</trkpt>
<trkpt lat="-26.9624160" lon="152.7805074">
<ele>122.385</ele>
<time>2018-01-10T02:23:17.533Z</time>
</trkpt>
<trkpt lat="-26.9626756" lon="152.7806547">
<ele>122.429</ele>
<time>2018-01-10T02:23:19.518Z</time>
</trkpt>
<trkpt lat="-26.9629300" lon="152.7808030">
<ele>122.488</ele>
<time>2018-01-10T02:23:21.493Z</time>
</trkpt>
<trkpt lat="-26.9633133" lon="152.7810280">
<ele>122.557</ele>
<time>2018-01-10T02:23:24.482Z</time>
</trkpt>
<trkpt lat="-26.9635708" lon="152.7811743">
<ele>122.626</ele>
<time>2018-01-10T02:23:26.481Z</time>
</trkpt>
<trkpt lat="-26.9639504" lon="152.7813986">
<ele>122.685</ele>
<time>2018-01-10T02:23:29.460Z</time>
</trkpt>
<trkpt lat="-26.9643309" lon="152.7816190">
<ele>122.732</ele>
<time>2018-01-10T02:23:32.443Z</time>
</trkpt>
<trkpt lat="-26.9645865" lon="152.7817605">
<ele>122.789</ele>
<time>2018-01-10T02:23:34.430Z</time>
</trkpt>
<trkpt lat="-26.9649653" lon="152.7819834">
<ele>122.872</ele>
<time>2018-01-10T02:23:37.415Z</time>
</trkpt>
<trkpt lat="-26.9653411" lon="152.7822071">
<ele>122.965</ele>
<time>2018-01-10T02:23:40.392Z</time>
</trkpt>
<trkpt lat="-26.9655926" lon="152.7823560">
<ele>123.044</ele>
<time>2018-01-10T02:23:42.390Z</time>
</trkpt>
<trkpt lat="-26.9658337" lon="152.7825222">
<ele>123.110</ele>
<time>2018-01-10T02:23:44.382Z</time>
</trkpt>
<trkpt lat="-26.9661901" lon="152.7827858">
<ele>123.179</ele>
<time>2018-01-10T02:23:47.378Z</time>
</trkpt>
<trkpt lat="-26.9664197" lon="152.7829764">
<ele>123.256</ele>
<time>2018-01-10T02:23:49.396Z</time>
</trkpt>
<trkpt lat="-26.9666335" lon="152.7831604">
<ele>123.322</ele>
<time>2018-01-10T02:23:51.435Z</time>
</trkpt>
<trkpt lat="-26.9668135" lon="152.7833203">
<ele>123.363</ele>
<time>2018-01-10T02:23:53.485Z</time>
</trkpt>
<trkpt lat="-26.9670290" lon="152.7835080">
<ele>123.382</ele>
<time>2018-01-10T02:23:56.321Z</time>
</trkpt>
<trkpt lat="-26.9671437" lon="152.7836127">
<ele>123.397</ele>
<time>2018-01-10T02:23:58.255Z</time>
</trkpt>
<trkpt lat="-26.9672411" lon="152.7836995">
<ele>123.420</ele>
<time>2018-01-10T02:24:00.212Z</time>
</trkpt>
<trkpt lat="-26.9673154" lon="152.7837621">
<ele>123.441</ele>
<time>2018-01-10T02:24:02.101Z</time>
</trkpt>
<trkpt lat="-26.9673918" lon="152.7838410">
<ele>123.446</ele>
<time>2018-01-10T02:24:04.772Z</time>
</trkpt>
<trkpt lat="-26.9674636" lon="152.7839133">
<ele>123.447</ele>
<time>2018-01-10T02:24:07.999Z</time>
</trkpt>
<trkpt lat="-26.9674636" lon="152.7839133">
<ele>123.442</ele>
<time>2018-01-10T02:24:12.999Z</time>
</trkpt>
<trkpt lat="-26.9674636" lon="152.7839133">
<ele>123.408</ele>
<time>2018-01-10T02:25:27.300Z</time>
</trkpt>
<trkpt lat="-26.9676230" lon="152.7841005">
<ele>123.351</ele>
<time>2018-01-10T02:25:34.002Z</time>
</trkpt>
<trkpt lat="-26.9677346" lon="152.7841931">
<ele>124.318</ele>
<time>2018-01-10T02:25:36.056Z</time>
</trkpt>
<trkpt lat="-26.9678518" lon="152.7842855">
<ele>126.928</ele>
<time>2018-01-10T02:25:37.905Z</time>
</trkpt>
<trkpt lat="-26.9680666" lon="152.7844510">
<ele>129.629</ele>
<time>2018-01-10T02:25:41.002Z</time>
</trkpt>
<trkpt lat="-26.9682885" lon="152.7846349">
<ele>130.983</ele>
<time>2018-01-10T02:25:44.057Z</time>
</trkpt>
<trkpt lat="-26.9684389" lon="152.7847605">
<ele>131.424</ele>
<time>2018-01-10T02:25:46.073Z</time>
</trkpt>
<trkpt lat="-26.9685866" lon="152.7848905">
<ele>131.635</ele>
<time>2018-01-10T02:25:48.077Z</time>
</trkpt>
<trkpt lat="-26.9687343" lon="152.7850227">
<ele>131.901</ele>
<time>2018-01-10T02:25:50.072Z</time>
</trkpt>
<trkpt lat="-26.9688820" lon="152.7851567">
<ele>132.238</ele>
<time>2018-01-10T02:25:52.040Z</time>
</trkpt>
<trkpt lat="-26.9690368" lon="152.7852962">
<ele>132.623</ele>
<time>2018-01-10T02:25:53.990Z</time>
</trkpt>
<trkpt lat="-26.9692016" lon="152.7854471">
<ele>133.025</ele>
<time>2018-01-10T02:25:55.936Z</time>
</trkpt>
<trkpt lat="-26.9693830" lon="152.7856101">
<ele>133.401</ele>
<time>2018-01-10T02:25:57.901Z</time>
</trkpt>
<trkpt lat="-26.9695825" lon="152.7857870">
<ele>133.728</ele>
<time>2018-01-10T02:25:59.914Z</time>
</trkpt>
<trkpt lat="-26.9697848" lon="152.7859645">
<ele>134.001</ele>
<time>2018-01-10T02:26:01.906Z</time>
</trkpt>
<trkpt lat="-26.9700836" lon="152.7862329">
<ele>134.231</ele>
<time>2018-01-10T02:26:04.834Z</time>
</trkpt>
<trkpt lat="-26.9702981" lon="152.7864179">
<ele>134.443</ele>
<time>2018-01-10T02:26:06.799Z</time>
</trkpt>
<trkpt lat="-26.9706387" lon="152.7867095">
<ele>134.650</ele>
<time>2018-01-10T02:26:09.827Z</time>
</trkpt>
<trkpt lat="-26.9708671" lon="152.7869078">
<ele>134.829</ele>
<time>2018-01-10T02:26:11.812Z</time>
</trkpt>
<trkpt lat="-26.9710999" lon="152.7871058">
<ele>134.945</ele>
<time>2018-01-10T02:26:13.781Z</time>
</trkpt>
<trkpt lat="-26.9713451" lon="152.7873006">
<ele>135.003</ele>
<time>2018-01-10T02:26:15.787Z</time>
</trkpt>
<trkpt lat="-26.9715947" lon="152.7874853">
<ele>135.043</ele>
<time>2018-01-10T02:26:17.793Z</time>
</trkpt>
<trkpt lat="-26.9718372" lon="152.7876738">
<ele>135.107</ele>
<time>2018-01-10T02:26:19.776Z</time>
</trkpt>
<trkpt lat="-26.9720867" lon="152.7878518">
<ele>135.200</ele>
<time>2018-01-10T02:26:21.746Z</time>
</trkpt>
<trkpt lat="-26.9723407" lon="152.7880359">
<ele>135.300</ele>
<time>2018-01-10T02:26:23.751Z</time>
</trkpt>
<trkpt lat="-26.9725949" lon="152.7882155">
<ele>135.384</ele>
<time>2018-01-10T02:26:25.755Z</time>
</trkpt>
<trkpt lat="-26.9728427" lon="152.7883966">
<ele>135.439</ele>
<time>2018-01-10T02:26:27.744Z</time>
</trkpt>
<trkpt lat="-26.9730919" lon="152.7885761">
<ele>135.463</ele>
<time>2018-01-10T02:26:29.703Z</time>
</trkpt>
<trkpt lat="-26.9733511" lon="152.7887626">
<ele>135.460</ele>
<time>2018-01-10T02:26:31.664Z</time>
</trkpt>
<trkpt lat="-26.9737762" lon="152.7890491">
<ele>135.432</ele>
<time>2018-01-10T02:26:34.744Z</time>
</trkpt>
<trkpt lat="-26.9740710" lon="152.7892342">
<ele>135.388</ele>
<time>2018-01-10T02:26:36.775Z</time>
</trkpt>
<trkpt lat="-26.9743541" lon="152.7894350">
<ele>135.383</ele>
<time>2018-01-10T02:26:38.772Z</time>
</trkpt>
<trkpt lat="-26.9746293" lon="152.7896302">
<ele>135.500</ele>
<time>2018-01-10T02:26:40.709Z</time>
</trkpt>
<trkpt lat="-26.9749258" lon="152.7898107">
<ele>135.731</ele>
<time>2018-01-10T02:26:42.720Z</time>
</trkpt>
<trkpt lat="-26.9753533" lon="152.7901105">
<ele>135.945</ele>
<time>2018-01-10T02:26:45.744Z</time>
</trkpt>
<trkpt lat="-26.9757751" lon="152.7904145">
<ele>135.870</ele>
<time>2018-01-10T02:26:48.776Z</time>
</trkpt>
<trkpt lat="-26.9760596" lon="152.7906061">
<ele>135.372</ele>
<time>2018-01-10T02:26:50.805Z</time>
</trkpt>
<trkpt lat="-26.9764694" lon="152.7908897">
<ele>134.756</ele>
<time>2018-01-10T02:26:53.765Z</time>
</trkpt>
<trkpt lat="-26.9767410" lon="152.7910771">
<ele>134.506</ele>
<time>2018-01-10T02:26:55.735Z</time>
</trkpt>
<trkpt lat="-26.9771513" lon="152.7913668">
<ele>134.801</ele>
<time>2018-01-10T02:26:58.679Z</time>
</trkpt>
<trkpt lat="-26.9775846" lon="152.7916727">
<ele>135.597</ele>
<time>2018-01-10T02:27:01.670Z</time>
</trkpt>
<trkpt lat="-26.9780291" lon="152.7920076">
<ele>136.715</ele>
<time>2018-01-10T02:27:04.712Z</time>
</trkpt>
<trkpt lat="-26.9784772" lon="152.7923256">
<ele>137.894</ele>
<time>2018-01-10T02:27:07.679Z</time>
</trkpt>
<trkpt lat="-26.9789611" lon="152.7926461">
<ele>138.840</ele>
<time>2018-01-10T02:27:10.764Z</time>
</trkpt>
<trkpt lat="-26.9794088" lon="152.7929730">
<ele>139.496</ele>
<time>2018-01-10T02:27:13.661Z</time>
</trkpt>
<trkpt lat="-26.9798795" lon="152.7933135">
<ele>139.965</ele>
<time>2018-01-10T02:27:16.620Z</time>
</trkpt>
<trkpt lat="-26.9803890" lon="152.7936792">
<ele>140.091</ele>
<time>2018-01-10T02:27:19.685Z</time>
</trkpt>
<trkpt lat="-26.9809310" lon="152.7940338">
<ele>139.395</ele>
<time>2018-01-10T02:27:22.803Z</time>
</trkpt>
<trkpt lat="-26.9814572" lon="152.7943390">
<ele>137.835</ele>
<time>2018-01-10T02:27:25.752Z</time>
</trkpt>
<trkpt lat="-26.9819919" lon="152.7946114">
<ele>136.123</ele>
<time>2018-01-10T02:27:28.704Z</time>
</trkpt>
<trkpt lat="-26.9825099" lon="152.7948473">
<ele>135.021</ele>
<time>2018-01-10T02:27:31.620Z</time>
</trkpt>
<trkpt lat="-26.9830099" lon="152.7950355">
<ele>134.732</ele>
<time>2018-01-10T02:27:34.565Z</time>
</trkpt>
<trkpt lat="-26.9834651" lon="152.7952238">
<ele>135.208</ele>
<time>2018-01-10T02:27:37.516Z</time>
</trkpt>
<trkpt lat="-26.9838684" lon="152.7953697">
<ele>136.256</ele>
<time>2018-01-10T02:27:40.280Z</time>
</trkpt>
<trkpt lat="-26.9843017" lon="152.7955419">
<ele>137.488</ele>
<time>2018-01-10T02:27:43.334Z</time>
</trkpt>
<trkpt lat="-26.9847161" lon="152.7957460">
<ele>138.692</ele>
<time>2018-01-10T02:27:46.281Z</time>
</trkpt>
<trkpt lat="-26.9851244" lon="152.7960246">
<ele>139.820</ele>
<time>2018-01-10T02:27:49.354Z</time>
</trkpt>
<trkpt lat="-26.9855267" lon="152.7963175">
<ele>140.662</ele>
<time>2018-01-10T02:27:52.429Z</time>
</trkpt>
<trkpt lat="-26.9859199" lon="152.7966113">
<ele>141.274</ele>
<time>2018-01-10T02:27:55.457Z</time>
</trkpt>
<trkpt lat="-26.9862808" lon="152.7969257">
<ele>141.907</ele>
<time>2018-01-10T02:27:58.388Z</time>
</trkpt>
<trkpt lat="-26.9866230" lon="152.7972870">
<ele>142.422</ele>
<time>2018-01-10T02:28:01.399Z</time>
</trkpt>
<trkpt lat="-26.9869419" lon="152.7976843">
<ele>142.550</ele>
<time>2018-01-10T02:28:04.440Z</time>
</trkpt>
<trkpt lat="-26.9872877" lon="152.7980674">
<ele>142.371</ele>
<time>2018-01-10T02:28:07.527Z</time>
</trkpt>
<trkpt lat="-26.9876257" lon="152.7984292">
<ele>142.228</ele>
<time>2018-01-10T02:28:10.487Z</time>
</trkpt>
<trkpt lat="-26.9879388" lon="152.7988100">
<ele>142.386</ele>
<time>2018-01-10T02:28:13.413Z</time>
</trkpt>
<trkpt lat="-26.9882838" lon="152.7991889">
<ele>142.757</ele>
<time>2018-01-10T02:28:16.477Z</time>
</trkpt>
<trkpt lat="-26.9886049" lon="152.7995631">
<ele>143.214</ele>
<time>2018-01-10T02:28:19.428Z</time>
</trkpt>
<trkpt lat="-26.9889432" lon="152.7999542">
<ele>143.804</ele>
<time>2018-01-10T02:28:22.532Z</time>
</trkpt>
<trkpt lat="-26.9891938" lon="152.8003418">
<ele>144.424</ele>
<time>2018-01-10T02:28:25.251Z</time>
</trkpt>
<trkpt lat="-26.9893799" lon="152.8006540">
<ele>144.579</ele>
<time>2018-01-10T02:28:27.370Z</time>
</trkpt>
<trkpt lat="-26.9895529" lon="152.8009713">
<ele>144.004</ele>
<time>2018-01-10T02:28:29.468Z</time>
</trkpt>
<trkpt lat="-26.9897119" lon="152.8012766">
<ele>143.124</ele>
<time>2018-01-10T02:28:31.461Z</time>
</trkpt>
<trkpt lat="-26.9899037" lon="152.8015497">
<ele>142.490</ele>
<time>2018-01-10T02:28:33.420Z</time>
</trkpt>
<trkpt lat="-26.9902089" lon="152.8019405">
<ele>142.104</ele>
<time>2018-01-10T02:28:36.368Z</time>
</trkpt>
<trkpt lat="-26.9904321" lon="152.8021617">
<ele>141.603</ele>
<time>2018-01-10T02:28:38.297Z</time>
</trkpt>
<trkpt lat="-26.9906714" lon="152.8023953">
<ele>140.607</ele>
<time>2018-01-10T02:28:40.382Z</time>
</trkpt>
<trkpt lat="-26.9908762" lon="152.8026146">
<ele>139.016</ele>
<time>2018-01-10T02:28:42.262Z</time>
</trkpt>
<trkpt lat="-26.9910998" lon="152.8028379">
<ele>137.127</ele>
<time>2018-01-10T02:28:44.246Z</time>
</trkpt>
<trkpt lat="-26.9913177" lon="152.8030696">
<ele>135.553</ele>
<time>2018-01-10T02:28:46.211Z</time>
</trkpt>
<trkpt lat="-26.9915419" lon="152.8033203">
<ele>134.808</ele>
<time>2018-01-10T02:28:48.249Z</time>
</trkpt>
<trkpt lat="-26.9917697" lon="152.8035798">
<ele>134.848</ele>
<time>2018-01-10T02:28:50.310Z</time>
</trkpt>
<trkpt lat="-26.9919569" lon="152.8038563">
<ele>135.159</ele>
<time>2018-01-10T02:28:52.240Z</time>
</trkpt>
<trkpt lat="-26.9921259" lon="152.8041723">
<ele>135.356</ele>
<time>2018-01-10T02:28:54.208Z</time>
</trkpt>
<trkpt lat="-26.9923382" lon="152.8045502">
<ele>135.394</ele>
<time>2018-01-10T02:28:56.377Z</time>
</trkpt>
<trkpt lat="-26.9925352" lon="152.8049745">
<ele>135.423</ele>
<time>2018-01-10T02:28:58.460Z</time>
</trkpt>
<trkpt lat="-26.9927038" lon="152.8054507">
<ele>135.638</ele>
<time>2018-01-10T02:29:00.602Z</time>
</trkpt>
<trkpt lat="-26.9927978" lon="152.8059176">
<ele>136.033</ele>
<time>2018-01-10T02:29:02.616Z</time>
</trkpt>
<trkpt lat="-26.9928784" lon="152.8063711">
<ele>136.407</ele>
<time>2018-01-10T02:29:04.591Z</time>
</trkpt>
<trkpt lat="-26.9929540" lon="152.8068293">
<ele>136.734</ele>
<time>2018-01-10T02:29:06.646Z</time>
</trkpt>
<trkpt lat="-26.9930084" lon="152.8072433">
<ele>137.148</ele>
<time>2018-01-10T02:29:08.603Z</time>
</trkpt>
<trkpt lat="-26.9930156" lon="152.8076311">
<ele>137.598</ele>
<time>2018-01-10T02:29:10.538Z</time>
</trkpt>
<trkpt lat="-26.9929996" lon="152.8080049">
<ele>138.033</ele>
<time>2018-01-10T02:29:12.453Z</time>
</trkpt>
<trkpt lat="-26.9929798" lon="152.8083996">
<ele>138.740</ele>
<time>2018-01-10T02:29:14.446Z</time>
</trkpt>
<trkpt lat="-26.9929252" lon="152.8088029">
<ele>139.900</ele>
<time>2018-01-10T02:29:16.461Z</time>
</trkpt>
<trkpt lat="-26.9928526" lon="152.8092013">
<ele>141.124</ele>
<time>2018-01-10T02:29:18.460Z</time>
</trkpt>
<trkpt lat="-26.9927619" lon="152.8095911">
<ele>141.984</ele>
<time>2018-01-10T02:29:20.442Z</time>
</trkpt>
<trkpt lat="-26.9926515" lon="152.8099873">
<ele>142.444</ele>
<time>2018-01-10T02:29:22.482Z</time>
</trkpt>
<trkpt lat="-26.9925837" lon="152.8103858">
<ele>142.667</ele>
<time>2018-01-10T02:29:24.496Z</time>
</trkpt>
<trkpt lat="-26.9925909" lon="152.8107793">
<ele>142.802</ele>
<time>2018-01-10T02:29:26.478Z</time>
</trkpt>
<trkpt lat="-26.9926032" lon="152.8111809">
<ele>142.909</ele>
<time>2018-01-10T02:29:28.468Z</time>
</trkpt>
<trkpt lat="-26.9926822" lon="152.8118045">
<ele>143.075</ele>
<time>2018-01-10T02:29:31.553Z</time>
</trkpt>
<trkpt lat="-26.9926620" lon="152.8122169">
<ele>143.368</ele>
<time>2018-01-10T02:29:33.576Z</time>
</trkpt>
<trkpt lat="-26.9925399" lon="152.8126258">
<ele>143.568</ele>
<time>2018-01-10T02:29:35.681Z</time>
</trkpt>
<trkpt lat="-26.9923428" lon="152.8129767">
<ele>143.381</ele>
<time>2018-01-10T02:29:37.742Z</time>
</trkpt>
<trkpt lat="-26.9921468" lon="152.8132990">
<ele>142.904</ele>
<time>2018-01-10T02:29:39.732Z</time>
</trkpt>
<trkpt lat="-26.9919157" lon="152.8135705">
<ele>142.606</ele>
<time>2018-01-10T02:29:41.686Z</time>
</trkpt>
<trkpt lat="-26.9917117" lon="152.8138731">
<ele>142.928</ele>
<time>2018-01-10T02:29:43.695Z</time>
</trkpt>
<trkpt lat="-26.9916028" lon="152.8142388">
<ele>143.816</ele>
<time>2018-01-10T02:29:45.752Z</time>
</trkpt>
<trkpt lat="-26.9915814" lon="152.8146304">
<ele>144.767</ele>
<time>2018-01-10T02:29:47.813Z</time>
</trkpt>
<trkpt lat="-26.9916023" lon="152.8150148">
<ele>145.366</ele>
<time>2018-01-10T02:29:49.795Z</time>
</trkpt>
<trkpt lat="-26.9916723" lon="152.8153944">
<ele>145.531</ele>
<time>2018-01-10T02:29:51.773Z</time>
</trkpt>
<trkpt lat="-26.9918084" lon="152.8157514">
<ele>145.361</ele>
<time>2018-01-10T02:29:53.714Z</time>
</trkpt>
<trkpt lat="-26.9920834" lon="152.8160994">
<ele>144.804</ele>
<time>2018-01-10T02:29:55.976Z</time>
</trkpt>
<trkpt lat="-26.9924192" lon="152.8163298">
<ele>143.694</ele>
<time>2018-01-10T02:29:58.088Z</time>
</trkpt>
<trkpt lat="-26.9927829" lon="152.8164577">
<ele>142.037</ele>
<time>2018-01-10T02:30:00.090Z</time>
</trkpt>
<trkpt lat="-26.9931571" lon="152.8165788">
<ele>139.947</ele>
<time>2018-01-10T02:30:02.094Z</time>
</trkpt>
<trkpt lat="-26.9935437" lon="152.8166825">
<ele>137.494</ele>
<time>2018-01-10T02:30:04.137Z</time>
</trkpt>
<trkpt lat="-26.9939119" lon="152.8168279">
<ele>134.723</ele>
<time>2018-01-10T02:30:06.142Z</time>
</trkpt>
<trkpt lat="-26.9942709" lon="152.8170128">
<ele>131.476</ele>
<time>2018-01-10T02:30:08.154Z</time>
</trkpt>
<trkpt lat="-26.9946197" lon="152.8172158">
<ele>127.590</ele>
<time>2018-01-10T02:30:10.148Z</time>
</trkpt>
<trkpt lat="-26.9949295" lon="152.8175111">
<ele>123.236</ele>
<time>2018-01-10T02:30:12.236Z</time>
</trkpt>
<trkpt lat="-26.9952096" lon="152.8177756">
<ele>118.898</ele>
<time>2018-01-10T02:30:14.138Z</time>
</trkpt>
<trkpt lat="-26.9954474" lon="152.8180906">
<ele>114.895</ele>
<time>2018-01-10T02:30:16.003Z</time>
</trkpt>
<trkpt lat="-26.9956340" lon="152.8185311">
<ele>111.208</ele>
<time>2018-01-10T02:30:18.080Z</time>
</trkpt>
<trkpt lat="-26.9957635" lon="152.8190227">
<ele>107.752</ele>
<time>2018-01-10T02:30:20.190Z</time>
</trkpt>
<trkpt lat="-26.9959307" lon="152.8194680">
<ele>104.482</ele>
<time>2018-01-10T02:30:22.176Z</time>
</trkpt>
<trkpt lat="-26.9960818" lon="152.8198704">
<ele>101.377</ele>
<time>2018-01-10T02:30:23.984Z</time>
</trkpt>
<trkpt lat="-26.9963112" lon="152.8203237">
<ele>98.467</ele>
<time>2018-01-10T02:30:26.162Z</time>
</trkpt>
<trkpt lat="-26.9965429" lon="152.8206972">
<ele>95.835</ele>
<time>2018-01-10T02:30:28.098Z</time>
</trkpt>
<trkpt lat="-26.9968171" lon="152.8210547">
<ele>93.559</ele>
<time>2018-01-10T02:30:30.140Z</time>
</trkpt>
<trkpt lat="-26.9970636" lon="152.8214067">
<ele>91.618</ele>
<time>2018-01-10T02:30:32.078Z</time>
</trkpt>
<trkpt lat="-26.9973302" lon="152.8217442">
<ele>89.805</ele>
<time>2018-01-10T02:30:34.007Z</time>
</trkpt>
<trkpt lat="-26.9976395" lon="152.8221016">
<ele>87.798</ele>
<time>2018-01-10T02:30:36.113Z</time>
</trkpt>
<trkpt lat="-26.9979043" lon="152.8224421">
<ele>85.319</ele>
<time>2018-01-10T02:30:38.017Z</time>
</trkpt>
<trkpt lat="-26.9981840" lon="152.8228069">
<ele>82.368</ele>
<time>2018-01-10T02:30:40.027Z</time>
</trkpt>
<trkpt lat="-26.9984564" lon="152.8231857">
<ele>79.121</ele>
<time>2018-01-10T02:30:42.020Z</time>
</trkpt>
<trkpt lat="-26.9987408" lon="152.8235746">
<ele>75.801</ele>
<time>2018-01-10T02:30:44.070Z</time>
</trkpt>
<trkpt lat="-26.9990157" lon="152.8239535">
<ele>72.758</ele>
<time>2018-01-10T02:30:46.101Z</time>
</trkpt>
<trkpt lat="-26.9992291" lon="152.8243503">
<ele>70.470</ele>
<time>2018-01-10T02:30:48.076Z</time>
</trkpt>
<trkpt lat="-26.9993578" lon="152.8247817">
<ele>69.200</ele>
<time>2018-01-10T02:30:50.061Z</time>
</trkpt>
<trkpt lat="-26.9994460" lon="152.8252165">
<ele>68.722</ele>
<time>2018-01-10T02:30:52.052Z</time>
</trkpt>
<trkpt lat="-26.9995344" lon="152.8256589">
<ele>68.611</ele>
<time>2018-01-10T02:30:54.130Z</time>
</trkpt>
<trkpt lat="-26.9995679" lon="152.8260752">
<ele>68.744</ele>
<time>2018-01-10T02:30:56.096Z</time>
</trkpt>
<trkpt lat="-26.9995695" lon="152.8264896">
<ele>69.358</ele>
<time>2018-01-10T02:30:58.081Z</time>
</trkpt>
<trkpt lat="-26.9995322" lon="152.8269144">
<ele>70.530</ele>
<time>2018-01-10T02:31:00.130Z</time>
</trkpt>
<trkpt lat="-26.9995045" lon="152.8273264">
<ele>71.803</ele>
<time>2018-01-10T02:31:02.104Z</time>
</trkpt>
<trkpt lat="-26.9994801" lon="152.8277500">
<ele>72.475</ele>
<time>2018-01-10T02:31:04.110Z</time>
</trkpt>
<trkpt lat="-26.9995096" lon="152.8281742">
<ele>72.271</ele>
<time>2018-01-10T02:31:06.098Z</time>
</trkpt>
<trkpt lat="-26.9995822" lon="152.8285917">
<ele>71.456</ele>
<time>2018-01-10T02:31:08.074Z</time>
</trkpt>
<trkpt lat="-26.9997645" lon="152.8290057">
<ele>70.432</ele>
<time>2018-01-10T02:31:10.202Z</time>
</trkpt>
<trkpt lat="-26.9999910" lon="152.8293871">
<ele>69.499</ele>
<time>2018-01-10T02:31:12.273Z</time>
</trkpt>
<trkpt lat="-27.0002652" lon="152.8297232">
<ele>68.694</ele>
<time>2018-01-10T02:31:14.294Z</time>
</trkpt>
<trkpt lat="-27.0006161" lon="152.8299740">
<ele>67.733</ele>
<time>2018-01-10T02:31:16.307Z</time>
</trkpt>
<trkpt lat="-27.0010223" lon="152.8301619">
<ele>66.330</ele>
<time>2018-01-10T02:31:18.396Z</time>
</trkpt>
<trkpt lat="-27.0013943" lon="152.8303531">
<ele>64.457</ele>
<time>2018-01-10T02:31:20.362Z</time>
</trkpt>
<trkpt lat="-27.0017651" lon="152.8305227">
<ele>62.343</ele>
<time>2018-01-10T02:31:22.295Z</time>
</trkpt>
<trkpt lat="-27.0021518" lon="152.8306883">
<ele>60.394</ele>
<time>2018-01-10T02:31:24.262Z</time>
</trkpt>
<trkpt lat="-27.0025649" lon="152.8308808">
<ele>58.915</ele>
<time>2018-01-10T02:31:26.355Z</time>
</trkpt>
<trkpt lat="-27.0029660" lon="152.8310586">
<ele>57.926</ele>
<time>2018-01-10T02:31:28.377Z</time>
</trkpt>
<trkpt lat="-27.0033436" lon="152.8312702">
<ele>57.288</ele>
<time>2018-01-10T02:31:30.376Z</time>
</trkpt>
<trkpt lat="-27.0037263" lon="152.8314558">
<ele>56.867</ele>
<time>2018-01-10T02:31:32.377Z</time>
</trkpt>
<trkpt lat="-27.0040971" lon="152.8316224">
<ele>56.638</ele>
<time>2018-01-10T02:31:34.314Z</time>
</trkpt>
<trkpt lat="-27.0044768" lon="152.8318079">
<ele>56.579</ele>
<time>2018-01-10T02:31:36.334Z</time>
</trkpt>
<trkpt lat="-27.0048695" lon="152.8319657">
<ele>56.536</ele>
<time>2018-01-10T02:31:38.369Z</time>
</trkpt>
<trkpt lat="-27.0052161" lon="152.8322076">
<ele>56.247</ele>
<time>2018-01-10T02:31:40.334Z</time>
</trkpt>
<trkpt lat="-27.0055917" lon="152.8324535">
<ele>55.506</ele>
<time>2018-01-10T02:31:42.393Z</time>
</trkpt>
<trkpt lat="-27.0058987" lon="152.8327944">
<ele>54.422</ele>
<time>2018-01-10T02:31:44.468Z</time>
</trkpt>
<trkpt lat="-27.0061346" lon="152.8331518">
<ele>53.393</ele>
<time>2018-01-10T02:31:46.419Z</time>
</trkpt>
<trkpt lat="-27.0063315" lon="152.8335476">
<ele>52.636</ele>
<time>2018-01-10T02:31:48.437Z</time>
</trkpt>
<trkpt lat="-27.0064359" lon="152.8339715">
<ele>51.978</ele>
<time>2018-01-10T02:31:50.415Z</time>
</trkpt>
<trkpt lat="-27.0064604" lon="152.8344087">
<ele>51.081</ele>
<time>2018-01-10T02:31:52.389Z</time>
</trkpt>
<trkpt lat="-27.0064639" lon="152.8348592">
<ele>49.767</ele>
<time>2018-01-10T02:31:54.416Z</time>
</trkpt>
<trkpt lat="-27.0064609" lon="152.8353206">
<ele>48.214</ele>
<time>2018-01-10T02:31:56.472Z</time>
</trkpt>
<trkpt lat="-27.0065387" lon="152.8357743">
<ele>46.918</ele>
<time>2018-01-10T02:31:58.528Z</time>
</trkpt>
<trkpt lat="-27.0066278" lon="152.8362003">
<ele>46.360</ele>
<time>2018-01-10T02:32:00.527Z</time>
</trkpt>
<trkpt lat="-27.0067995" lon="152.8366034">
<ele>46.841</ele>
<time>2018-01-10T02:32:02.652Z</time>
</trkpt>
<trkpt lat="-27.0070001" lon="152.8369452">
<ele>48.432</ele>
<time>2018-01-10T02:32:04.654Z</time>
</trkpt>
<trkpt lat="-27.0072331" lon="152.8372486">
<ele>50.831</ele>
<time>2018-01-10T02:32:06.644Z</time>
</trkpt>
<trkpt lat="-27.0074788" lon="152.8375350">
<ele>53.550</ele>
<time>2018-01-10T02:32:08.644Z</time>
</trkpt>
<trkpt lat="-27.0077456" lon="152.8378003">
<ele>56.268</ele>
<time>2018-01-10T02:32:10.663Z</time>
</trkpt>
<trkpt lat="-27.0079995" lon="152.8380673">
<ele>58.821</ele>
<time>2018-01-10T02:32:12.576Z</time>
</trkpt>
<trkpt lat="-27.0082402" lon="152.8383504">
<ele>61.098</ele>
<time>2018-01-10T02:32:14.410Z</time>
</trkpt>
<trkpt lat="-27.0085316" lon="152.8386958">
<ele>63.065</ele>
<time>2018-01-10T02:32:16.569Z</time>
</trkpt>
<trkpt lat="-27.0088145" lon="152.8389935">
<ele>64.853</ele>
<time>2018-01-10T02:32:18.525Z</time>
</trkpt>
<trkpt lat="-27.0091148" lon="152.8392946">
<ele>66.560</ele>
<time>2018-01-10T02:32:20.574Z</time>
</trkpt>
<trkpt lat="-27.0094056" lon="152.8395747">
<ele>68.016</ele>
<time>2018-01-10T02:32:22.561Z</time>
</trkpt>
<trkpt lat="-27.0096769" lon="152.8398368">
<ele>69.080</ele>
<time>2018-01-10T02:32:24.432Z</time>
</trkpt>
<trkpt lat="-27.0099693" lon="152.8401135">
<ele>69.933</ele>
<time>2018-01-10T02:32:26.405Z</time>
</trkpt>
<trkpt lat="-27.0102796" lon="152.8403909">
<ele>70.799</ele>
<time>2018-01-10T02:32:28.417Z</time>
</trkpt>
<trkpt lat="-27.0105837" lon="152.8406600">
<ele>71.722</ele>
<time>2018-01-10T02:32:30.362Z</time>
</trkpt>
<trkpt lat="-27.0109095" lon="152.8409349">
<ele>72.577</ele>
<time>2018-01-10T02:32:32.394Z</time>
</trkpt>
<trkpt lat="-27.0112552" lon="152.8411727">
<ele>73.166</ele>
<time>2018-01-10T02:32:34.418Z</time>
</trkpt>
<trkpt lat="-27.0116315" lon="152.8413118">
<ele>73.409</ele>
<time>2018-01-10T02:32:36.412Z</time>
</trkpt>
<trkpt lat="-27.0120062" lon="152.8414461">
<ele>73.359</ele>
<time>2018-01-10T02:32:38.404Z</time>
</trkpt>
<trkpt lat="-27.0124029" lon="152.8415554">
<ele>73.134</ele>
<time>2018-01-10T02:32:40.489Z</time>
</trkpt>
<trkpt lat="-27.0127914" lon="152.8416692">
<ele>72.923</ele>
<time>2018-01-10T02:32:42.556Z</time>
</trkpt>
<trkpt lat="-27.0131620" lon="152.8417548">
<ele>72.840</ele>
<time>2018-01-10T02:32:44.488Z</time>
</trkpt>
<trkpt lat="-27.0135407" lon="152.8418613">
<ele>72.708</ele>
<time>2018-01-10T02:32:46.438Z</time>
</trkpt>
<trkpt lat="-27.0139437" lon="152.8419363">
<ele>72.278</ele>
<time>2018-01-10T02:32:48.439Z</time>
</trkpt>
<trkpt lat="-27.0143497" lon="152.8420094">
<ele>71.528</ele>
<time>2018-01-10T02:32:50.436Z</time>
</trkpt>
<trkpt lat="-27.0147529" lon="152.8421123">
<ele>70.637</ele>
<time>2018-01-10T02:32:52.418Z</time>
</trkpt>
<trkpt lat="-27.0151694" lon="152.8422208">
<ele>69.801</ele>
<time>2018-01-10T02:32:54.430Z</time>
</trkpt>
<trkpt lat="-27.0155738" lon="152.8423526">
<ele>69.139</ele>
<time>2018-01-10T02:32:56.383Z</time>
</trkpt>
<trkpt lat="-27.0159756" lon="152.8425015">
<ele>68.567</ele>
<time>2018-01-10T02:32:58.312Z</time>
</trkpt>
<trkpt lat="-27.0164032" lon="152.8426623">
<ele>67.872</ele>
<time>2018-01-10T02:33:00.335Z</time>
</trkpt>
<trkpt lat="-27.0167770" lon="152.8429167">
<ele>67.016</ele>
<time>2018-01-10T02:33:02.279Z</time>
</trkpt>
<trkpt lat="-27.0171877" lon="152.8431589">
<ele>66.234</ele>
<time>2018-01-10T02:33:04.347Z</time>
</trkpt>
<trkpt lat="-27.0175758" lon="152.8434323">
<ele>65.599</ele>
<time>2018-01-10T02:33:06.410Z</time>
</trkpt>
<trkpt lat="-27.0179310" lon="152.8437103">
<ele>64.852</ele>
<time>2018-01-10T02:33:08.351Z</time>
</trkpt>
<trkpt lat="-27.0182825" lon="152.8440334">
<ele>63.725</ele>
<time>2018-01-10T02:33:10.353Z</time>
</trkpt>
<trkpt lat="-27.0186037" lon="152.8443708">
<ele>62.139</ele>
<time>2018-01-10T02:33:12.215Z</time>
</trkpt>
<trkpt lat="-27.0189632" lon="152.8447815">
<ele>60.293</ele>
<time>2018-01-10T02:33:14.229Z</time>
</trkpt>
<trkpt lat="-27.0193549" lon="152.8452791">
<ele>58.606</ele>
<time>2018-01-10T02:33:16.328Z</time>
</trkpt>
<trkpt lat="-27.0196607" lon="152.8458846">
<ele>57.375</ele>
<time>2018-01-10T02:33:18.432Z</time>
</trkpt>
<trkpt lat="-27.0199457" lon="152.8464178">
<ele>56.559</ele>
<time>2018-01-10T02:33:20.442Z</time>
</trkpt>
<trkpt lat="-27.0202713" lon="152.8468336">
<ele>55.992</ele>
<time>2018-01-10T02:33:22.428Z</time>
</trkpt>
<trkpt lat="-27.0206030" lon="152.8471801">
<ele>55.641</ele>
<time>2018-01-10T02:33:24.373Z</time>
</trkpt>
<trkpt lat="-27.0209823" lon="152.8474425">
<ele>55.595</ele>
<time>2018-01-10T02:33:26.322Z</time>
</trkpt>
<trkpt lat="-27.0213881" lon="152.8477080">
<ele>55.885</ele>
<time>2018-01-10T02:33:28.358Z</time>
</trkpt>
<trkpt lat="-27.0218018" lon="152.8479432">
<ele>56.334</ele>
<time>2018-01-10T02:33:30.353Z</time>
</trkpt>
<trkpt lat="-27.0222038" lon="152.8481700">
<ele>56.606</ele>
<time>2018-01-10T02:33:32.280Z</time>
</trkpt>
<trkpt lat="-27.0226349" lon="152.8483746">
<ele>56.555</ele>
<time>2018-01-10T02:33:34.272Z</time>
</trkpt>
<trkpt lat="-27.0230690" lon="152.8486086">
<ele>56.300</ele>
<time>2018-01-10T02:33:36.310Z</time>
</trkpt>
<trkpt lat="-27.0234799" lon="152.8488634">
<ele>55.977</ele>
<time>2018-01-10T02:33:38.295Z</time>
</trkpt>
<trkpt lat="-27.0238727" lon="152.8491304">
<ele>55.633</ele>
<time>2018-01-10T02:33:40.234Z</time>
</trkpt>
<trkpt lat="-27.0242333" lon="152.8494490">
<ele>55.231</ele>
<time>2018-01-10T02:33:42.167Z</time>
</trkpt>
<trkpt lat="-27.0245804" lon="152.8498376">
<ele>54.725</ele>
<time>2018-01-10T02:33:44.230Z</time>
</trkpt>
<trkpt lat="-27.0248820" lon="152.8502138">
<ele>54.168</ele>
<time>2018-01-10T02:33:46.125Z</time>
</trkpt>
<trkpt lat="-27.0251540" lon="152.8506706">
<ele>53.588</ele>
<time>2018-01-10T02:33:48.171Z</time>
</trkpt>
<trkpt lat="-27.0254174" lon="152.8511479">
<ele>52.915</ele>
<time>2018-01-10T02:33:50.256Z</time>
</trkpt>
<trkpt lat="-27.0257018" lon="152.8515723">
<ele>52.198</ele>
<time>2018-01-10T02:33:52.231Z</time>
</trkpt>
<trkpt lat="-27.0260385" lon="152.8519654">
<ele>51.625</ele>
<time>2018-01-10T02:33:54.270Z</time>
</trkpt>
<trkpt lat="-27.0264047" lon="152.8522744">
<ele>51.207</ele>
<time>2018-01-10T02:33:56.219Z</time>
</trkpt>
<trkpt lat="-27.0268035" lon="152.8525334">
<ele>50.777</ele>
<time>2018-01-10T02:33:58.200Z</time>
</trkpt>
<trkpt lat="-27.0271912" lon="152.8527812">
<ele>50.349</ele>
<time>2018-01-10T02:34:00.113Z</time>
</trkpt>
<trkpt lat="-27.0276115" lon="152.8530267">
<ele>50.220</ele>
<time>2018-01-10T02:34:02.141Z</time>
</trkpt>
<trkpt lat="-27.0282915" lon="152.8532390">
<ele>50.662</ele>
<time>2018-01-10T02:34:05.173Z</time>
</trkpt>
<trkpt lat="-27.0289789" lon="152.8533821">
<ele>51.550</ele>
<time>2018-01-10T02:34:08.193Z</time>
</trkpt>
<trkpt lat="-27.0296728" lon="152.8534782">
<ele>52.533</ele>
<time>2018-01-10T02:34:11.215Z</time>
</trkpt>
<trkpt lat="-27.0303590" lon="152.8535173">
<ele>53.508</ele>
<time>2018-01-10T02:34:14.177Z</time>
</trkpt>
<trkpt lat="-27.0310373" lon="152.8536810">
<ele>54.621</ele>
<time>2018-01-10T02:34:17.158Z</time>
</trkpt>
<trkpt lat="-27.0317022" lon="152.8539513">
<ele>55.821</ele>
<time>2018-01-10T02:34:20.185Z</time>
</trkpt>
<trkpt lat="-27.0323196" lon="152.8543354">
<ele>56.830</ele>
<time>2018-01-10T02:34:23.200Z</time>
</trkpt>
<trkpt lat="-27.0329295" lon="152.8547197">
<ele>57.607</ele>
<time>2018-01-10T02:34:26.173Z</time>
</trkpt>
<trkpt lat="-27.0335361" lon="152.8551264">
<ele>58.243</ele>
<time>2018-01-10T02:34:29.170Z</time>
</trkpt>
<trkpt lat="-27.0341605" lon="152.8554874">
<ele>58.461</ele>
<time>2018-01-10T02:34:32.157Z</time>
</trkpt>
<trkpt lat="-27.0347975" lon="152.8558044">
<ele>57.877</ele>
<time>2018-01-10T02:34:35.178Z</time>
</trkpt>
<trkpt lat="-27.0353863" lon="152.8561340">
<ele>56.672</ele>
<time>2018-01-10T02:34:38.242Z</time>
</trkpt>
<trkpt lat="-27.0358377" lon="152.8564801">
<ele>55.524</ele>
<time>2018-01-10T02:34:41.180Z</time>
</trkpt>
<trkpt lat="-27.0361627" lon="152.8568440">
<ele>54.946</ele>
<time>2018-01-10T02:34:44.021Z</time>
</trkpt>
<trkpt lat="-27.0365010" lon="152.8571834">
<ele>55.136</ele>
<time>2018-01-10T02:34:46.989Z</time>
</trkpt>
<trkpt lat="-27.0368547" lon="152.8575238">
<ele>56.049</ele>
<time>2018-01-10T02:34:50.032Z</time>
</trkpt>
<trkpt lat="-27.0371842" lon="152.8578562">
<ele>57.372</ele>
<time>2018-01-10T02:34:52.909Z</time>
</trkpt>
<trkpt lat="-27.0375391" lon="152.8581683">
<ele>58.821</ele>
<time>2018-01-10T02:34:55.830Z</time>
</trkpt>
<trkpt lat="-27.0379352" lon="152.8584570">
<ele>60.372</ele>
<time>2018-01-10T02:34:58.877Z</time>
</trkpt>
<trkpt lat="-27.0383141" lon="152.8587577">
<ele>61.874</ele>
<time>2018-01-10T02:35:01.863Z</time>
</trkpt>
<trkpt lat="-27.0386806" lon="152.8590722">
<ele>62.973</ele>
<time>2018-01-10T02:35:04.849Z</time>
</trkpt>
<trkpt lat="-27.0390666" lon="152.8593486">
<ele>63.532</ele>
<time>2018-01-10T02:35:07.863Z</time>
</trkpt>
<trkpt lat="-27.0394234" lon="152.8596208">
<ele>63.734</ele>
<time>2018-01-10T02:35:10.820Z</time>
</trkpt>
<trkpt lat="-27.0396926" lon="152.8599175">
<ele>63.770</ele>
<time>2018-01-10T02:35:13.881Z</time>
</trkpt>
<trkpt lat="-27.0398085" lon="152.8601311">
<ele>63.878</ele>
<time>2018-01-10T02:35:16.570Z</time>
</trkpt>
<trkpt lat="-27.0398315" lon="152.8602286">
<ele>64.322</ele>
<time>2018-01-10T02:35:18.000Z</time>
</trkpt>
<trkpt lat="-27.0398315" lon="152.8602286">
<ele>65.003</ele>
<time>2018-01-10T02:35:23.000Z</time>
</trkpt>
<trkpt lat="-27.0398315" lon="152.8602286">
<ele>65.427</ele>
<time>2018-01-10T02:35:29.355Z</time>
</trkpt>
<trkpt lat="-27.0399727" lon="152.8604293">
<ele>65.318</ele>
<time>2018-01-10T02:35:37.336Z</time>
</trkpt>
<trkpt lat="-27.0400856" lon="152.8604648">
<ele>64.911</ele>
<time>2018-01-10T02:35:39.406Z</time>
</trkpt>
<trkpt lat="-27.0401900" lon="152.8604282">
<ele>64.522</ele>
<time>2018-01-10T02:35:41.135Z</time>
</trkpt>
<trkpt lat="-27.0403449" lon="152.8603934">
<ele>64.174</ele>
<time>2018-01-10T02:35:43.312Z</time>
</trkpt>
<trkpt lat="-27.0405087" lon="152.8604865">
<ele>63.843</ele>
<time>2018-01-10T02:35:45.481Z</time>
</trkpt>
<trkpt lat="-27.0406155" lon="152.8607189">
<ele>63.647</ele>
<time>2018-01-10T02:35:48.077Z</time>
</trkpt>
<trkpt lat="-27.0407230" lon="152.8608642">
<ele>63.700</ele>
<time>2018-01-10T02:35:50.007Z</time>
</trkpt>
<trkpt lat="-27.0408791" lon="152.8609499">
<ele>63.998</ele>
<time>2018-01-10T02:35:51.998Z</time>
</trkpt>
<trkpt lat="-27.0410191" lon="152.8610541">
<ele>64.409</ele>
<time>2018-01-10T02:35:53.840Z</time>
</trkpt>
<trkpt lat="-27.0412091" lon="152.8611335">
<ele>64.811</ele>
<time>2018-01-10T02:35:55.907Z</time>
</trkpt>
<trkpt lat="-27.0414166" lon="152.8611459">
<ele>65.415</ele>
<time>2018-01-10T02:35:57.878Z</time>
</trkpt>
<trkpt lat="-27.0416268" lon="152.8611591">
<ele>66.641</ele>
<time>2018-01-10T02:35:59.811Z</time>
</trkpt>
<trkpt lat="-27.0418358" lon="152.8611849">
<ele>68.578</ele>
<time>2018-01-10T02:36:01.769Z</time>
</trkpt>
<trkpt lat="-27.0420338" lon="152.8612013">
<ele>70.860</ele>
<time>2018-01-10T02:36:03.614Z</time>
</trkpt>
<trkpt lat="-27.0422398" lon="152.8612221">
<ele>72.987</ele>
<time>2018-01-10T02:36:05.401Z</time>
</trkpt>
<trkpt lat="-27.0424878" lon="152.8612778">
<ele>74.620</ele>
<time>2018-01-10T02:36:07.310Z</time>
</trkpt>
<trkpt lat="-27.0427877" lon="152.8614371">
<ele>75.627</ele>
<time>2018-01-10T02:36:09.489Z</time>
</trkpt>
<trkpt lat="-27.0430492" lon="152.8616882">
<ele>76.011</ele>
<time>2018-01-10T02:36:11.587Z</time>
</trkpt>
<trkpt lat="-27.0432763" lon="152.8619604">
<ele>75.751</ele>
<time>2018-01-10T02:36:13.567Z</time>
</trkpt>
<trkpt lat="-27.0435184" lon="152.8622580">
<ele>74.789</ele>
<time>2018-01-10T02:36:15.689Z</time>
</trkpt>
<trkpt lat="-27.0437331" lon="152.8625355">
<ele>73.306</ele>
<time>2018-01-10T02:36:17.617Z</time>
</trkpt>
<trkpt lat="-27.0439522" lon="152.8628503">
<ele>71.648</ele>
<time>2018-01-10T02:36:19.705Z</time>
</trkpt>
<trkpt lat="-27.0441526" lon="152.8631808">
<ele>69.898</ele>
<time>2018-01-10T02:36:21.778Z</time>
</trkpt>
<trkpt lat="-27.0443065" lon="152.8634704">
<ele>68.058</ele>
<time>2018-01-10T02:36:23.507Z</time>
</trkpt>
<trkpt lat="-27.0445298" lon="152.8637784">
<ele>66.349</ele>
<time>2018-01-10T02:36:25.523Z</time>
</trkpt>
<trkpt lat="-27.0447227" lon="152.8641014">
<ele>65.108</ele>
<time>2018-01-10T02:36:27.486Z</time>
</trkpt>
<trkpt lat="-27.0449301" lon="152.8644495">
<ele>64.505</ele>
<time>2018-01-10T02:36:29.594Z</time>
</trkpt>
<trkpt lat="-27.0450918" lon="152.8648165">
<ele>64.407</ele>
<time>2018-01-10T02:36:31.658Z</time>
</trkpt>
<trkpt lat="-27.0452798" lon="152.8651165">
<ele>64.528</ele>
<time>2018-01-10T02:36:33.501Z</time>
</trkpt>
<trkpt lat="-27.0455176" lon="152.8653981">
<ele>64.659</ele>
<time>2018-01-10T02:36:35.424Z</time>
</trkpt>
<trkpt lat="-27.0457891" lon="152.8656666">
<ele>64.675</ele>
<time>2018-01-10T02:36:37.405Z</time>
</trkpt>
<trkpt lat="-27.0460573" lon="152.8659399">
<ele>64.441</ele>
<time>2018-01-10T02:36:39.367Z</time>
</trkpt>
<trkpt lat="-27.0463377" lon="152.8662248">
<ele>63.967</ele>
<time>2018-01-10T02:36:41.398Z</time>
</trkpt>
<trkpt lat="-27.0466201" lon="152.8664942">
<ele>63.514</ele>
<time>2018-01-10T02:36:43.387Z</time>
</trkpt>
<trkpt lat="-27.0468947" lon="152.8667807">
<ele>63.334</ele>
<time>2018-01-10T02:36:45.422Z</time>
</trkpt>
<trkpt lat="-27.0471388" lon="152.8670580">
<ele>63.421</ele>
<time>2018-01-10T02:36:47.334Z</time>
</trkpt>
<trkpt lat="-27.0473767" lon="152.8673174">
<ele>63.596</ele>
<time>2018-01-10T02:36:49.150Z</time>
</trkpt>
<trkpt lat="-27.0476490" lon="152.8676064">
<ele>63.625</ele>
<time>2018-01-10T02:36:51.133Z</time>
</trkpt>
<trkpt lat="-27.0479518" lon="152.8679143">
<ele>63.403</ele>
<time>2018-01-10T02:36:53.203Z</time>
</trkpt>
<trkpt lat="-27.0482313" lon="152.8682450">
<ele>63.013</ele>
<time>2018-01-10T02:36:55.217Z</time>
</trkpt>
<trkpt lat="-27.0484431" lon="152.8686033">
<ele>62.531</ele>
<time>2018-01-10T02:36:57.106Z</time>
</trkpt>
<trkpt lat="-27.0486376" lon="152.8690052">
<ele>61.745</ele>
<time>2018-01-10T02:36:59.112Z</time>
</trkpt>
<trkpt lat="-27.0488479" lon="152.8693932">
<ele>60.454</ele>
<time>2018-01-10T02:37:01.108Z</time>
</trkpt>
<trkpt lat="-27.0491318" lon="152.8697005">
<ele>58.908</ele>
<time>2018-01-10T02:37:03.049Z</time>
</trkpt>
<trkpt lat="-27.0494784" lon="152.8699429">
<ele>57.480</ele>
<time>2018-01-10T02:37:05.069Z</time>
</trkpt>
<trkpt lat="-27.0498555" lon="152.8701198">
<ele>56.257</ele>
<time>2018-01-10T02:37:07.141Z</time>
</trkpt>
<trkpt lat="-27.0501932" lon="152.8703074">
<ele>55.236</ele>
<time>2018-01-10T02:37:09.122Z</time>
</trkpt>
<trkpt lat="-27.0505357" lon="152.8704619">
<ele>54.512</ele>
<time>2018-01-10T02:37:11.119Z</time>
</trkpt>
<trkpt lat="-27.0508770" lon="152.8705242">
<ele>54.198</ele>
<time>2018-01-10T02:37:12.977Z</time>
</trkpt>
<trkpt lat="-27.0512673" lon="152.8705273">
<ele>54.239</ele>
<time>2018-01-10T02:37:15.021Z</time>
</trkpt>
<trkpt lat="-27.0516722" lon="152.8705599">
<ele>54.304</ele>
<time>2018-01-10T02:37:17.053Z</time>
</trkpt>
<trkpt lat="-27.0520824" lon="152.8706328">
<ele>54.105</ele>
<time>2018-01-10T02:37:19.007Z</time>
</trkpt>
<trkpt lat="-27.0525316" lon="152.8706947">
<ele>53.539</ele>
<time>2018-01-10T02:37:21.021Z</time>
</trkpt>
<trkpt lat="-27.0529968" lon="152.8707544">
<ele>52.476</ele>
<time>2018-01-10T02:37:23.039Z</time>
</trkpt>
<trkpt lat="-27.0534539" lon="152.8708236">
<ele>50.811</ele>
<time>2018-01-10T02:37:25.039Z</time>
</trkpt>
<trkpt lat="-27.0539089" lon="152.8708801">
<ele>48.444</ele>
<time>2018-01-10T02:37:27.090Z</time>
</trkpt>
<trkpt lat="-27.0543095" lon="152.8709632">
<ele>45.602</ele>
<time>2018-01-10T02:37:29.014Z</time>
</trkpt>
<trkpt lat="-27.0547162" lon="152.8709988">
<ele>43.153</ele>
<time>2018-01-10T02:37:31.041Z</time>
</trkpt>
<trkpt lat="-27.0551110" lon="152.8710517">
<ele>41.743</ele>
<time>2018-01-10T02:37:33.020Z</time>
</trkpt>
<trkpt lat="-27.0555067" lon="152.8711230">
<ele>41.159</ele>
<time>2018-01-10T02:37:34.902Z</time>
</trkpt>
<trkpt lat="-27.0559687" lon="152.8711662">
<ele>40.903</ele>
<time>2018-01-10T02:37:36.807Z</time>
</trkpt>
<trkpt lat="-27.0566108" lon="152.8712301">
<ele>40.364</ele>
<time>2018-01-10T02:37:39.088Z</time>
</trkpt>
<trkpt lat="-27.0572767" lon="152.8713398">
<ele>39.137</ele>
<time>2018-01-10T02:37:41.261Z</time>
</trkpt>
<trkpt lat="-27.0579332" lon="152.8714393">
<ele>37.485</ele>
<time>2018-01-10T02:37:43.340Z</time>
</trkpt>
<trkpt lat="-27.0585175" lon="152.8715162">
<ele>35.965</ele>
<time>2018-01-10T02:37:45.267Z</time>
</trkpt>
<trkpt lat="-27.0590187" lon="152.8715750">
<ele>34.697</ele>
<time>2018-01-10T02:37:47.101Z</time>
</trkpt>
<trkpt lat="-27.0594750" lon="152.8716631">
<ele>33.452</ele>
<time>2018-01-10T02:37:48.960Z</time>
</trkpt>
<trkpt lat="-27.0599178" lon="152.8717337">
<ele>32.014</ele>
<time>2018-01-10T02:37:50.868Z</time>
</trkpt>
<trkpt lat="-27.0603546" lon="152.8717696">
<ele>30.530</ele>
<time>2018-01-10T02:37:52.789Z</time>
</trkpt>
<trkpt lat="-27.0608333" lon="152.8716717">
<ele>29.408</ele>
<time>2018-01-10T02:37:54.949Z</time>
</trkpt>
<trkpt lat="-27.0612691" lon="152.8715324">
<ele>28.836</ele>
<time>2018-01-10T02:37:56.996Z</time>
</trkpt>
<trkpt lat="-27.0616792" lon="152.8712708">
<ele>28.652</ele>
<time>2018-01-10T02:37:59.127Z</time>
</trkpt>
<trkpt lat="-27.0620489" lon="152.8709749">
<ele>28.653</ele>
<time>2018-01-10T02:38:01.141Z</time>
</trkpt>
<trkpt lat="-27.0623925" lon="152.8706286">
<ele>28.591</ele>
<time>2018-01-10T02:38:03.184Z</time>
</trkpt>
<trkpt lat="-27.0626770" lon="152.8702588">
<ele>28.286</ele>
<time>2018-01-10T02:38:05.162Z</time>
</trkpt>
<trkpt lat="-27.0630363" lon="152.8699973">
<ele>27.820</ele>
<time>2018-01-10T02:38:07.147Z</time>
</trkpt>
<trkpt lat="-27.0634609" lon="152.8698971">
<ele>27.400</ele>
<time>2018-01-10T02:38:09.156Z</time>
</trkpt>
<trkpt lat="-27.0638773" lon="152.8698273">
<ele>27.164</ele>
<time>2018-01-10T02:38:11.114Z</time>
</trkpt>
<trkpt lat="-27.0643141" lon="152.8697753">
<ele>27.170</ele>
<time>2018-01-10T02:38:13.183Z</time>
</trkpt>
<trkpt lat="-27.0647331" lon="152.8697469">
<ele>27.447</ele>
<time>2018-01-10T02:38:15.186Z</time>
</trkpt>
<trkpt lat="-27.0651274" lon="152.8696593">
<ele>28.115</ele>
<time>2018-01-10T02:38:17.120Z</time>
</trkpt>
<trkpt lat="-27.0655131" lon="152.8695981">
<ele>29.409</ele>
<time>2018-01-10T02:38:19.009Z</time>
</trkpt>
<trkpt lat="-27.0659253" lon="152.8695538">
<ele>31.296</ele>
<time>2018-01-10T02:38:21.034Z</time>
</trkpt>
<trkpt lat="-27.0663190" lon="152.8695069">
<ele>33.230</ele>
<time>2018-01-10T02:38:22.971Z</time>
</trkpt>
<trkpt lat="-27.0667218" lon="152.8695451">
<ele>34.717</ele>
<time>2018-01-10T02:38:24.927Z</time>
</trkpt>
<trkpt lat="-27.0671153" lon="152.8696984">
<ele>35.736</ele>
<time>2018-01-10T02:38:26.922Z</time>
</trkpt>
<trkpt lat="-27.0675005" lon="152.8698768">
<ele>36.380</ele>
<time>2018-01-10T02:38:28.917Z</time>
</trkpt>
<trkpt lat="-27.0678519" lon="152.8701052">
<ele>36.474</ele>
<time>2018-01-10T02:38:30.870Z</time>
</trkpt>
<trkpt lat="-27.0682559" lon="152.8702533">
<ele>35.888</ele>
<time>2018-01-10T02:38:32.903Z</time>
</trkpt>
<trkpt lat="-27.0686493" lon="152.8704401">
<ele>34.773</ele>
<time>2018-01-10T02:38:34.932Z</time>
</trkpt>
<trkpt lat="-27.0690347" lon="152.8706164">
<ele>33.185</ele>
<time>2018-01-10T02:38:36.907Z</time>
</trkpt>
<trkpt lat="-27.0694253" lon="152.8707290">
<ele>31.132</ele>
<time>2018-01-10T02:38:38.827Z</time>
</trkpt>
<trkpt lat="-27.0698094" lon="152.8708725">
<ele>28.896</ele>
<time>2018-01-10T02:38:40.774Z</time>
</trkpt>
<trkpt lat="-27.0702225" lon="152.8709520">
<ele>26.760</ele>
<time>2018-01-10T02:38:42.801Z</time>
</trkpt>
<trkpt lat="-27.0706347" lon="152.8709770">
<ele>25.034</ele>
<time>2018-01-10T02:38:44.803Z</time>
</trkpt>
<trkpt lat="-27.0710482" lon="152.8710067">
<ele>24.063</ele>
<time>2018-01-10T02:38:46.820Z</time>
</trkpt>
<trkpt lat="-27.0714546" lon="152.8710323">
<ele>24.042</ele>
<time>2018-01-10T02:38:48.807Z</time>
</trkpt>
<trkpt lat="-27.0718506" lon="152.8710159">
<ele>25.027</ele>
<time>2018-01-10T02:38:50.741Z</time>
</trkpt>
<trkpt lat="-27.0722523" lon="152.8710321">
<ele>26.941</ele>
<time>2018-01-10T02:38:52.683Z</time>
</trkpt>
<trkpt lat="-27.0726704" lon="152.8710264">
<ele>29.429</ele>
<time>2018-01-10T02:38:54.681Z</time>
</trkpt>
<trkpt lat="-27.0730778" lon="152.8710976">
<ele>31.937</ele>
<time>2018-01-10T02:38:56.651Z</time>
</trkpt>
<trkpt lat="-27.0734751" lon="152.8712104">
<ele>33.939</ele>
<time>2018-01-10T02:38:58.597Z</time>
</trkpt>
<trkpt lat="-27.0738704" lon="152.8714195">
<ele>35.159</ele>
<time>2018-01-10T02:39:00.630Z</time>
</trkpt>
<trkpt lat="-27.0742210" lon="152.8716803">
<ele>35.507</ele>
<time>2018-01-10T02:39:02.550Z</time>
</trkpt>
<trkpt lat="-27.0745749" lon="152.8719944">
<ele>34.907</ele>
<time>2018-01-10T02:39:04.621Z</time>
</trkpt>
<trkpt lat="-27.0749328" lon="152.8722338">
<ele>33.482</ele>
<time>2018-01-10T02:39:06.594Z</time>
</trkpt>
<trkpt lat="-27.0753120" lon="152.8723807">
<ele>31.740</ele>
<time>2018-01-10T02:39:08.539Z</time>
</trkpt>
<trkpt lat="-27.0757209" lon="152.8724568">
<ele>30.076</ele>
<time>2018-01-10T02:39:10.561Z</time>
</trkpt>
<trkpt lat="-27.0761471" lon="152.8724616">
<ele>28.435</ele>
<time>2018-01-10T02:39:12.640Z</time>
</trkpt>
<trkpt lat="-27.0765537" lon="152.8723996">
<ele>26.877</ele>
<time>2018-01-10T02:39:14.656Z</time>
</trkpt>
<trkpt lat="-27.0769227" lon="152.8723298">
<ele>25.761</ele>
<time>2018-01-10T02:39:16.499Z</time>
</trkpt>
<trkpt lat="-27.0773300" lon="152.8722246">
<ele>25.222</ele>
<time>2018-01-10T02:39:18.552Z</time>
</trkpt>
<trkpt lat="-27.0777099" lon="152.8720769">
<ele>25.064</ele>
<time>2018-01-10T02:39:20.525Z</time>
</trkpt>
<trkpt lat="-27.0780920" lon="152.8719397">
<ele>25.267</ele>
<time>2018-01-10T02:39:22.497Z</time>
</trkpt>
<trkpt lat="-27.0784936" lon="152.8718021">
<ele>26.179</ele>
<time>2018-01-10T02:39:24.546Z</time>
</trkpt>
<trkpt lat="-27.0788765" lon="152.8716445">
<ele>27.915</ele>
<time>2018-01-10T02:39:26.522Z</time>
</trkpt>
<trkpt lat="-27.0792617" lon="152.8714981">
<ele>29.824</ele>
<time>2018-01-10T02:39:28.483Z</time>
</trkpt>
<trkpt lat="-27.0796486" lon="152.8713647">
<ele>31.269</ele>
<time>2018-01-10T02:39:30.430Z</time>
</trkpt>
<trkpt lat="-27.0800558" lon="152.8712603">
<ele>32.453</ele>
<time>2018-01-10T02:39:32.429Z</time>
</trkpt>
<trkpt lat="-27.0804424" lon="152.8711267">
<ele>33.959</ele>
<time>2018-01-10T02:39:34.355Z</time>
</trkpt>
<trkpt lat="-27.0808475" lon="152.8709893">
<ele>35.799</ele>
<time>2018-01-10T02:39:36.367Z</time>
</trkpt>
<trkpt lat="-27.0812427" lon="152.8708297">
<ele>37.480</ele>
<time>2018-01-10T02:39:38.368Z</time>
</trkpt>
<trkpt lat="-27.0816449" lon="152.8707107">
<ele>38.764</ele>
<time>2018-01-10T02:39:40.354Z</time>
</trkpt>
<trkpt lat="-27.0820337" lon="152.8705861">
<ele>39.980</ele>
<time>2018-01-10T02:39:42.284Z</time>
</trkpt>
<trkpt lat="-27.0824301" lon="152.8704482">
<ele>41.469</ele>
<time>2018-01-10T02:39:44.262Z</time>
</trkpt>
<trkpt lat="-27.0828172" lon="152.8703004">
<ele>43.260</ele>
<time>2018-01-10T02:39:46.215Z</time>
</trkpt>
<trkpt lat="-27.0832121" lon="152.8701712">
<ele>45.205</ele>
<time>2018-01-10T02:39:48.181Z</time>
</trkpt>
<trkpt lat="-27.0836004" lon="152.8700203">
<ele>47.113</ele>
<time>2018-01-10T02:39:50.135Z</time>
</trkpt>
<trkpt lat="-27.0839811" lon="152.8697333">
<ele>48.616</ele>
<time>2018-01-10T02:39:52.313Z</time>
</trkpt>
<trkpt lat="-27.0842585" lon="152.8693633">
<ele>49.407</ele>
<time>2018-01-10T02:39:54.392Z</time>
</trkpt>
<trkpt lat="-27.0845139" lon="152.8690320">
<ele>49.570</ele>
<time>2018-01-10T02:39:56.290Z</time>
</trkpt>
<trkpt lat="-27.0847488" lon="152.8686419">
<ele>49.451</ele>
<time>2018-01-10T02:39:58.316Z</time>
</trkpt>
<trkpt lat="-27.0850152" lon="152.8682895">
<ele>49.294</ele>
<time>2018-01-10T02:40:00.298Z</time>
</trkpt>
<trkpt lat="-27.0852813" lon="152.8679487">
<ele>49.284</ele>
<time>2018-01-10T02:40:02.250Z</time>
</trkpt>
<trkpt lat="-27.0855362" lon="152.8676111">
<ele>49.720</ele>
<time>2018-01-10T02:40:04.153Z</time>
</trkpt>
<trkpt lat="-27.0858045" lon="152.8672674">
<ele>50.683</ele>
<time>2018-01-10T02:40:06.086Z</time>
</trkpt>
<trkpt lat="-27.0860849" lon="152.8668921">
<ele>51.713</ele>
<time>2018-01-10T02:40:08.130Z</time>
</trkpt>
<trkpt lat="-27.0863396" lon="152.8665110">
<ele>52.303</ele>
<time>2018-01-10T02:40:10.155Z</time>
</trkpt>
<trkpt lat="-27.0865331" lon="152.8661519">
<ele>52.322</ele>
<time>2018-01-10T02:40:12.085Z</time>
</trkpt>
<trkpt lat="-27.0867286" lon="152.8658935">
<ele>51.667</ele>
<time>2018-01-10T02:40:13.806Z</time>
</trkpt>
<trkpt lat="-27.0870466" lon="152.8658240">
<ele>50.290</ele>
<time>2018-01-10T02:40:15.733Z</time>
</trkpt>
<trkpt lat="-27.0874283" lon="152.8657950">
<ele>48.324</ele>
<time>2018-01-10T02:40:17.893Z</time>
</trkpt>
<trkpt lat="-27.0878287" lon="152.8657472">
<ele>45.896</ele>
<time>2018-01-10T02:40:20.050Z</time>
</trkpt>
<trkpt lat="-27.0881985" lon="152.8656304">
<ele>43.232</ele>
<time>2018-01-10T02:40:22.108Z</time>
</trkpt>
<trkpt lat="-27.0884946" lon="152.8653930">
<ele>40.792</ele>
<time>2018-01-10T02:40:24.045Z</time>
</trkpt>
<trkpt lat="-27.0887857" lon="152.8651103">
<ele>38.976</ele>
<time>2018-01-10T02:40:26.020Z</time>
</trkpt>
<trkpt lat="-27.0890621" lon="152.8647666">
<ele>37.961</ele>
<time>2018-01-10T02:40:28.069Z</time>
</trkpt>
<trkpt lat="-27.0893412" lon="152.8644592">
<ele>37.734</ele>
<time>2018-01-10T02:40:29.997Z</time>
</trkpt>
<trkpt lat="-27.0896182" lon="152.8641380">
<ele>38.157</ele>
<time>2018-01-10T02:40:31.957Z</time>
</trkpt>
<trkpt lat="-27.0899149" lon="152.8638137">
<ele>39.059</ele>
<time>2018-01-10T02:40:33.974Z</time>
</trkpt>
<trkpt lat="-27.0901815" lon="152.8634750">
<ele>40.443</ele>
<time>2018-01-10T02:40:35.934Z</time>
</trkpt>
<trkpt lat="-27.0904325" lon="152.8631338">
<ele>42.308</ele>
<time>2018-01-10T02:40:37.903Z</time>
</trkpt>
<trkpt lat="-27.0906643" lon="152.8628321">
<ele>44.471</ele>
<time>2018-01-10T02:40:39.788Z</time>
</trkpt>
<trkpt lat="-27.0909207" lon="152.8626380">
<ele>46.788</ele>
<time>2018-01-10T02:40:41.551Z</time>
</trkpt>
<trkpt lat="-27.0912561" lon="152.8627368">
<ele>48.971</ele>
<time>2018-01-10T02:40:43.566Z</time>
</trkpt>
<trkpt lat="-27.0916551" lon="152.8627480">
<ele>50.683</ele>
<time>2018-01-10T02:40:45.783Z</time>
</trkpt>
<trkpt lat="-27.0920097" lon="152.8627335">
<ele>52.067</ele>
<time>2018-01-10T02:40:47.744Z</time>
</trkpt>
<trkpt lat="-27.0923353" lon="152.8627268">
<ele>53.244</ele>
<time>2018-01-10T02:40:49.585Z</time>
</trkpt>
<trkpt lat="-27.0926655" lon="152.8626018">
<ele>53.916</ele>
<time>2018-01-10T02:40:51.601Z</time>
</trkpt>
<trkpt lat="-27.0928874" lon="152.8622904">
<ele>53.581</ele>
<time>2018-01-10T02:40:53.639Z</time>
</trkpt>
<trkpt lat="-27.0931439" lon="152.8619333">
<ele>51.968</ele>
<time>2018-01-10T02:40:55.839Z</time>
</trkpt>
<trkpt lat="-27.0934133" lon="152.8615927">
<ele>49.554</ele>
<time>2018-01-10T02:40:57.905Z</time>
</trkpt>
<trkpt lat="-27.0936677" lon="152.8612317">
<ele>47.161</ele>
<time>2018-01-10T02:40:59.958Z</time>
</trkpt>
<trkpt lat="-27.0939089" lon="152.8608673">
<ele>45.016</ele>
<time>2018-01-10T02:41:01.984Z</time>
</trkpt>
<trkpt lat="-27.0941899" lon="152.8605344">
<ele>43.146</ele>
<time>2018-01-10T02:41:04.026Z</time>
</trkpt>
<trkpt lat="-27.0946165" lon="152.8603338">
<ele>41.873</ele>
<time>2018-01-10T02:41:06.298Z</time>
</trkpt>
<trkpt lat="-27.0951959" lon="152.8600308">
<ele>41.425</ele>
<time>2018-01-10T02:41:09.491Z</time>
</trkpt>
<trkpt lat="-27.0956639" lon="152.8598293">
<ele>42.078</ele>
<time>2018-01-10T02:41:12.271Z</time>
</trkpt>
<trkpt lat="-27.0960597" lon="152.8599831">
<ele>44.269</ele>
<time>2018-01-10T02:41:14.799Z</time>
</trkpt>
<trkpt lat="-27.0965560" lon="152.8603744">
<ele>47.263</ele>
<time>2018-01-10T02:41:18.178Z</time>
</trkpt>
<trkpt lat="-27.0970711" lon="152.8607864">
<ele>49.398</ele>
<time>2018-01-10T02:41:21.251Z</time>
</trkpt>
<trkpt lat="-27.0975795" lon="152.8612254">
<ele>49.810</ele>
<time>2018-01-10T02:41:24.240Z</time>
</trkpt>
<trkpt lat="-27.0980511" lon="152.8616822">
<ele>48.698</ele>
<time>2018-01-10T02:41:27.238Z</time>
</trkpt>
<trkpt lat="-27.0985030" lon="152.8620147">
<ele>46.701</ele>
<time>2018-01-10T02:41:30.041Z</time>
</trkpt>
<trkpt lat="-27.0990572" lon="152.8619706">
<ele>44.567</ele>
<time>2018-01-10T02:41:33.007Z</time>
</trkpt>
<trkpt lat="-27.0996932" lon="152.8617923">
<ele>42.929</ele>
<time>2018-01-10T02:41:36.240Z</time>
</trkpt>
<trkpt lat="-27.1003138" lon="152.8616611">
<ele>42.184</ele>
<time>2018-01-10T02:41:39.178Z</time>
</trkpt>
<trkpt lat="-27.1009402" lon="152.8615916">
<ele>42.470</ele>
<time>2018-01-10T02:41:42.126Z</time>
</trkpt>
<trkpt lat="-27.1015546" lon="152.8616030">
<ele>43.967</ele>
<time>2018-01-10T02:41:45.092Z</time>
</trkpt>
<trkpt lat="-27.1021335" lon="152.8615794">
<ele>46.546</ele>
<time>2018-01-10T02:41:48.011Z</time>
</trkpt>
<trkpt lat="-27.1026770" lon="152.8616840">
<ele>49.540</ele>
<time>2018-01-10T02:41:50.862Z</time>
</trkpt>
<trkpt lat="-27.1031789" lon="152.8620990">
<ele>52.199</ele>
<time>2018-01-10T02:41:53.990Z</time>
</trkpt>
<trkpt lat="-27.1036720" lon="152.8625008">
<ele>53.945</ele>
<time>2018-01-10T02:41:56.890Z</time>
</trkpt>
<trkpt lat="-27.1042773" lon="152.8628531">
<ele>54.622</ele>
<time>2018-01-10T02:42:00.000Z</time>
</trkpt>
<trkpt lat="-27.1048591" lon="152.8632125">
<ele>54.641</ele>
<time>2018-01-10T02:42:03.008Z</time>
</trkpt>
<trkpt lat="-27.1053949" lon="152.8635456">
<ele>54.548</ele>
<time>2018-01-10T02:42:05.941Z</time>
</trkpt>
<trkpt lat="-27.1059363" lon="152.8635892">
<ele>54.753</ele>
<time>2018-01-10T02:42:08.692Z</time>
</trkpt>
<trkpt lat="-27.1065779" lon="152.8635012">
<ele>55.430</ele>
<time>2018-01-10T02:42:11.922Z</time>
</trkpt>
<trkpt lat="-27.1071938" lon="152.8634438">
<ele>56.339</ele>
<time>2018-01-10T02:42:14.920Z</time>
</trkpt>
<trkpt lat="-27.1077976" lon="152.8633825">
<ele>57.004</ele>
<time>2018-01-10T02:42:17.834Z</time>
</trkpt>
<trkpt lat="-27.1084413" lon="152.8633598">
<ele>56.869</ele>
<time>2018-01-10T02:42:20.896Z</time>
</trkpt>
<trkpt lat="-27.1090637" lon="152.8633268">
<ele>55.457</ele>
<time>2018-01-10T02:42:23.858Z</time>
</trkpt>
<trkpt lat="-27.1096718" lon="152.8632369">
<ele>52.922</ele>
<time>2018-01-10T02:42:26.794Z</time>
</trkpt>
<trkpt lat="-27.1100811" lon="152.8631959">
<ele>49.899</ele>
<time>2018-01-10T02:42:28.761Z</time>
</trkpt>
<trkpt lat="-27.1104985" lon="152.8631684">
<ele>46.830</ele>
<time>2018-01-10T02:42:30.760Z</time>
</trkpt>
<trkpt lat="-27.1109099" lon="152.8630950">
<ele>43.971</ele>
<time>2018-01-10T02:42:32.762Z</time>
</trkpt>
<trkpt lat="-27.1112862" lon="152.8629387">
<ele>41.446</ele>
<time>2018-01-10T02:42:34.716Z</time>
</trkpt>
<trkpt lat="-27.1115964" lon="152.8626432">
<ele>39.219</ele>
<time>2018-01-10T02:42:36.721Z</time>
</trkpt>
<trkpt lat="-27.1118541" lon="152.8622836">
<ele>37.202</ele>
<time>2018-01-10T02:42:38.744Z</time>
</trkpt>
<trkpt lat="-27.1121220" lon="152.8619437">
<ele>35.347</ele>
<time>2018-01-10T02:42:40.730Z</time>
</trkpt>
<trkpt lat="-27.1124075" lon="152.8616206">
<ele>33.789</ele>
<time>2018-01-10T02:42:42.737Z</time>
</trkpt>
<trkpt lat="-27.1126850" lon="152.8613000">
<ele>32.779</ele>
<time>2018-01-10T02:42:44.714Z</time>
</trkpt>
<trkpt lat="-27.1130109" lon="152.8610340">
<ele>32.480</ele>
<time>2018-01-10T02:42:46.705Z</time>
</trkpt>
<trkpt lat="-27.1133798" lon="152.8608466">
<ele>32.791</ele>
<time>2018-01-10T02:42:48.689Z</time>
</trkpt>
<trkpt lat="-27.1137581" lon="152.8606540">
<ele>33.305</ele>
<time>2018-01-10T02:42:50.705Z</time>
</trkpt>
<trkpt lat="-27.1141206" lon="152.8604373">
<ele>33.614</ele>
<time>2018-01-10T02:42:52.698Z</time>
</trkpt>
<trkpt lat="-27.1144737" lon="152.8602398">
<ele>33.552</ele>
<time>2018-01-10T02:42:54.649Z</time>
</trkpt>
<trkpt lat="-27.1148004" lon="152.8600576">
<ele>33.188</ele>
<time>2018-01-10T02:42:56.542Z</time>
</trkpt>
<trkpt lat="-27.1150369" lon="152.8597822">
<ele>32.706</ele>
<time>2018-01-10T02:42:58.441Z</time>
</trkpt>
<trkpt lat="-27.1151720" lon="152.8594319">
<ele>32.037</ele>
<time>2018-01-10T02:43:00.448Z</time>
</trkpt>
<trkpt lat="-27.1153641" lon="152.8591666">
<ele>30.980</ele>
<time>2018-01-10T02:43:02.320Z</time>
</trkpt>
<trkpt lat="-27.1156012" lon="152.8589645">
<ele>29.783</ele>
<time>2018-01-10T02:43:04.236Z</time>
</trkpt>
<trkpt lat="-27.1158624" lon="152.8587599">
<ele>28.954</ele>
<time>2018-01-10T02:43:06.328Z</time>
</trkpt>
<trkpt lat="-27.1161624" lon="152.8587378">
<ele>28.629</ele>
<time>2018-01-10T02:43:08.303Z</time>
</trkpt>
<trkpt lat="-27.1165449" lon="152.8587806">
<ele>28.663</ele>
<time>2018-01-10T02:43:10.623Z</time>
</trkpt>
<trkpt lat="-27.1169261" lon="152.8586781">
<ele>29.026</ele>
<time>2018-01-10T02:43:12.805Z</time>
</trkpt>
<trkpt lat="-27.1172568" lon="152.8584763">
<ele>29.828</ele>
<time>2018-01-10T02:43:14.824Z</time>
</trkpt>
<trkpt lat="-27.1175820" lon="152.8582810">
<ele>31.203</ele>
<time>2018-01-10T02:43:16.778Z</time>
</trkpt>
<trkpt lat="-27.1179219" lon="152.8581144">
<ele>33.132</ele>
<time>2018-01-10T02:43:18.765Z</time>
</trkpt>
<trkpt lat="-27.1183138" lon="152.8581010">
<ele>35.251</ele>
<time>2018-01-10T02:43:20.846Z</time>
</trkpt>
<trkpt lat="-27.1189353" lon="152.8581614">
<ele>37.047</ele>
<time>2018-01-10T02:43:24.052Z</time>
</trkpt>
<trkpt lat="-27.1195241" lon="152.8581457">
<ele>38.396</ele>
<time>2018-01-10T02:43:27.065Z</time>
</trkpt>
<trkpt lat="-27.1200786" lon="152.8581241">
<ele>39.379</ele>
<time>2018-01-10T02:43:29.982Z</time>
</trkpt>
<trkpt lat="-27.1206181" lon="152.8580887">
<ele>39.784</ele>
<time>2018-01-10T02:43:32.883Z</time>
</trkpt>
<trkpt lat="-27.1211357" lon="152.8580471">
<ele>39.239</ele>
<time>2018-01-10T02:43:35.881Z</time>
</trkpt>
<trkpt lat="-27.1214090" lon="152.8579152">
<ele>37.836</ele>
<time>2018-01-10T02:43:37.888Z</time>
</trkpt>
<trkpt lat="-27.1216242" lon="152.8579670">
<ele>36.056</ele>
<time>2018-01-10T02:43:40.109Z</time>
</trkpt>
<trkpt lat="-27.1217057" lon="152.8583187">
<ele>33.957</ele>
<time>2018-01-10T02:43:43.792Z</time>
</trkpt>
<trkpt lat="-27.1217180" lon="152.8585955">
<ele>31.123</ele>
<time>2018-01-10T02:43:46.609Z</time>
</trkpt>
<trkpt lat="-27.1217940" lon="152.8588088">
<ele>27.551</ele>
<time>2018-01-10T02:43:49.327Z</time>
</trkpt>
<trkpt lat="-27.1219490" lon="152.8589609">
<ele>23.782</ele>
<time>2018-01-10T02:43:52.482Z</time>
</trkpt>
<trkpt lat="-27.1219199" lon="152.8592586">
<ele>20.434</ele>
<time>2018-01-10T02:43:56.112Z</time>
</trkpt>
<trkpt lat="-27.1217626" lon="152.8596705">
<ele>17.869</ele>
<time>2018-01-10T02:43:59.791Z</time>
</trkpt>
<trkpt lat="-27.1217907" lon="152.8601210">
<ele>16.229</ele>
<time>2018-01-10T02:44:03.196Z</time>
</trkpt>
<trkpt lat="-27.1220518" lon="152.8603323">
<ele>15.707</ele>
<time>2018-01-10T02:44:06.204Z</time>
</trkpt>
<trkpt lat="-27.1224238" lon="152.8603487">
<ele>16.660</ele>
<time>2018-01-10T02:44:09.451Z</time>
</trkpt>
<trkpt lat="-27.1228858" lon="152.8602494">
<ele>19.618</ele>
<time>2018-01-10T02:44:12.777Z</time>
</trkpt>
<trkpt lat="-27.1233584" lon="152.8601393">
<ele>24.428</ele>
<time>2018-01-10T02:44:16.070Z</time>
</trkpt>
<trkpt lat="-27.1237333" lon="152.8600377">
<ele>29.761</ele>
<time>2018-01-10T02:44:19.386Z</time>
</trkpt>
<trkpt lat="-27.1239077" lon="152.8600038">
<ele>34.245</ele>
<time>2018-01-10T02:44:21.731Z</time>
</trkpt>
<trkpt lat="-27.1239972" lon="152.8602408">
<ele>37.169</ele>
<time>2018-01-10T02:44:24.613Z</time>
</trkpt>
<trkpt lat="-27.1240436" lon="152.8608102">
<ele>38.190</ele>
<time>2018-01-10T02:44:28.531Z</time>
</trkpt>
<trkpt lat="-27.1240908" lon="152.8614129">
<ele>37.366</ele>
<time>2018-01-10T02:44:31.594Z</time>
</trkpt>
<trkpt lat="-27.1241572" lon="152.8620227">
<ele>35.467</ele>
<time>2018-01-10T02:44:34.367Z</time>
</trkpt>
<trkpt lat="-27.1242851" lon="152.8627047">
<ele>33.722</ele>
<time>2018-01-10T02:44:37.360Z</time>
</trkpt>
<trkpt lat="-27.1243370" lon="152.8634294">
<ele>32.650</ele>
<time>2018-01-10T02:44:40.482Z</time>
</trkpt>
<trkpt lat="-27.1244023" lon="152.8641189">
<ele>31.769</ele>
<time>2018-01-10T02:44:43.538Z</time>
</trkpt>
<trkpt lat="-27.1244944" lon="152.8647714">
<ele>30.558</ele>
<time>2018-01-10T02:44:46.463Z</time>
</trkpt>
<trkpt lat="-27.1245619" lon="152.8654447">
<ele>28.856</ele>
<time>2018-01-10T02:44:49.453Z</time>
</trkpt>
<trkpt lat="-27.1246427" lon="152.8661071">
<ele>26.838</ele>
<time>2018-01-10T02:44:52.432Z</time>
</trkpt>
<trkpt lat="-27.1247306" lon="152.8667551">
<ele>25.091</ele>
<time>2018-01-10T02:44:55.347Z</time>
</trkpt>
<trkpt lat="-27.1247783" lon="152.8674580">
<ele>24.295</ele>
<time>2018-01-10T02:44:58.423Z</time>
</trkpt>
<trkpt lat="-27.1248450" lon="152.8681627">
<ele>24.929</ele>
<time>2018-01-10T02:45:01.475Z</time>
</trkpt>
<trkpt lat="-27.1249831" lon="152.8688361">
<ele>27.146</ele>
<time>2018-01-10T02:45:04.443Z</time>
</trkpt>
<trkpt lat="-27.1250983" lon="152.8694988">
<ele>30.369</ele>
<time>2018-01-10T02:45:07.365Z</time>
</trkpt>
<trkpt lat="-27.1251612" lon="152.8701659">
<ele>33.277</ele>
<time>2018-01-10T02:45:10.289Z</time>
</trkpt>
<trkpt lat="-27.1252087" lon="152.8706282">
<ele>34.647</ele>
<time>2018-01-10T02:45:12.317Z</time>
</trkpt>
<trkpt lat="-27.1252491" lon="152.8710822">
<ele>34.349</ele>
<time>2018-01-10T02:45:14.311Z</time>
</trkpt>
<trkpt lat="-27.1253087" lon="152.8715379">
<ele>33.343</ele>
<time>2018-01-10T02:45:16.322Z</time>
</trkpt>
<trkpt lat="-27.1253459" lon="152.8720032">
<ele>32.635</ele>
<time>2018-01-10T02:45:18.354Z</time>
</trkpt>
<trkpt lat="-27.1254076" lon="152.8724602">
<ele>32.498</ele>
<time>2018-01-10T02:45:20.381Z</time>
</trkpt>
<trkpt lat="-27.1254777" lon="152.8729045">
<ele>32.659</ele>
<time>2018-01-10T02:45:22.379Z</time>
</trkpt>
<trkpt lat="-27.1255284" lon="152.8733346">
<ele>32.821</ele>
<time>2018-01-10T02:45:24.299Z</time>
</trkpt>
<trkpt lat="-27.1256019" lon="152.8737660">
<ele>32.980</ele>
<time>2018-01-10T02:45:26.232Z</time>
</trkpt>
<trkpt lat="-27.1256628" lon="152.8742006">
<ele>33.350</ele>
<time>2018-01-10T02:45:28.151Z</time>
</trkpt>
<trkpt lat="-27.1257328" lon="152.8746456">
<ele>34.059</ele>
<time>2018-01-10T02:45:30.105Z</time>
</trkpt>
<trkpt lat="-27.1258107" lon="152.8750961">
<ele>34.988</ele>
<time>2018-01-10T02:45:32.093Z</time>
</trkpt>
<trkpt lat="-27.1258940" lon="152.8755160">
<ele>35.893</ele>
<time>2018-01-10T02:45:33.971Z</time>
</trkpt>
<trkpt lat="-27.1259542" lon="152.8759334">
<ele>36.542</ele>
<time>2018-01-10T02:45:35.827Z</time>
</trkpt>
<trkpt lat="-27.1260039" lon="152.8763799">
<ele>36.755</ele>
<time>2018-01-10T02:45:37.803Z</time>
</trkpt>
<trkpt lat="-27.1260477" lon="152.8768201">
<ele>36.429</ele>
<time>2018-01-10T02:45:39.728Z</time>
</trkpt>
<trkpt lat="-27.1260789" lon="152.8772894">
<ele>35.567</ele>
<time>2018-01-10T02:45:41.757Z</time>
</trkpt>
<trkpt lat="-27.1260981" lon="152.8777701">
<ele>34.252</ele>
<time>2018-01-10T02:45:43.853Z</time>
</trkpt>
<trkpt lat="-27.1261091" lon="152.8782107">
<ele>32.554</ele>
<time>2018-01-10T02:45:45.793Z</time>
</trkpt>
<trkpt lat="-27.1261294" lon="152.8786789">
<ele>30.670</ele>
<time>2018-01-10T02:45:47.866Z</time>
</trkpt>
<trkpt lat="-27.1261338" lon="152.8791100">
<ele>29.057</ele>
<time>2018-01-10T02:45:49.782Z</time>
</trkpt>
<trkpt lat="-27.1261416" lon="152.8795525">
<ele>28.086</ele>
<time>2018-01-10T02:45:51.748Z</time>
</trkpt>
<trkpt lat="-27.1261338" lon="152.8800067">
<ele>27.725</ele>
<time>2018-01-10T02:45:53.753Z</time>
</trkpt>
<trkpt lat="-27.1261568" lon="152.8804779">
<ele>27.702</ele>
<time>2018-01-10T02:45:55.813Z</time>
</trkpt>
<trkpt lat="-27.1261840" lon="152.8809382">
<ele>27.778</ele>
<time>2018-01-10T02:45:57.836Z</time>
</trkpt>
<trkpt lat="-27.1262025" lon="152.8813671">
<ele>27.817</ele>
<time>2018-01-10T02:45:59.802Z</time>
</trkpt>
<trkpt lat="-27.1262237" lon="152.8817226">
<ele>27.707</ele>
<time>2018-01-10T02:46:01.572Z</time>
</trkpt>
<trkpt lat="-27.1262263" lon="152.8820697">
<ele>27.447</ele>
<time>2018-01-10T02:46:03.599Z</time>
</trkpt>
<trkpt lat="-27.1262150" lon="152.8823021">
<ele>27.139</ele>
<time>2018-01-10T02:46:05.473Z</time>
</trkpt>
<trkpt lat="-27.1262299" lon="152.8824263">
<ele>26.849</ele>
<time>2018-01-10T02:46:06.766Z</time>
</trkpt>
<trkpt lat="-27.1264028" lon="152.8824239">
<ele>26.551</ele>
<time>2018-01-10T02:46:08.886Z</time>
</trkpt>
<trkpt lat="-27.1267399" lon="152.8823037">
<ele>26.258</ele>
<time>2018-01-10T02:46:12.031Z</time>
</trkpt>
<trkpt lat="-27.1270584" lon="152.8822277">
<ele>26.085</ele>
<time>2018-01-10T02:46:14.116Z</time>
</trkpt>
<trkpt lat="-27.1274396" lon="152.8821597">
<ele>26.105</ele>
<time>2018-01-10T02:46:16.235Z</time>
</trkpt>
<trkpt lat="-27.1278498" lon="152.8820883">
<ele>26.298</ele>
<time>2018-01-10T02:46:18.296Z</time>
</trkpt>
<trkpt lat="-27.1282704" lon="152.8819876">
<ele>26.884</ele>
<time>2018-01-10T02:46:20.358Z</time>
</trkpt>
<trkpt lat="-27.1286945" lon="152.8819172">
<ele>28.042</ele>
<time>2018-01-10T02:46:22.405Z</time>
</trkpt>
<trkpt lat="-27.1290927" lon="152.8818409">
<ele>29.491</ele>
<time>2018-01-10T02:46:24.381Z</time>
</trkpt>
<trkpt lat="-27.1294814" lon="152.8817578">
<ele>30.815</ele>
<time>2018-01-10T02:46:26.378Z</time>
</trkpt>
<trkpt lat="-27.1298021" lon="152.8815310">
<ele>31.891</ele>
<time>2018-01-10T02:46:28.312Z</time>
</trkpt>
<trkpt lat="-27.1301110" lon="152.8812633">
<ele>32.896</ele>
<time>2018-01-10T02:46:30.304Z</time>
</trkpt>
<trkpt lat="-27.1303719" lon="152.8809633">
<ele>34.211</ele>
<time>2018-01-10T02:46:32.210Z</time>
</trkpt>
<trkpt lat="-27.1306034" lon="152.8806414">
<ele>36.064</ele>
<time>2018-01-10T02:46:34.083Z</time>
</trkpt>
<trkpt lat="-27.1308444" lon="152.8802981">
<ele>38.287</ele>
<time>2018-01-10T02:46:36.048Z</time>
</trkpt>
<trkpt lat="-27.1310882" lon="152.8799112">
<ele>40.539</ele>
<time>2018-01-10T02:46:38.184Z</time>
</trkpt>
<trkpt lat="-27.1312888" lon="152.8795432">
<ele>42.638</ele>
<time>2018-01-10T02:46:40.138Z</time>
</trkpt>
<trkpt lat="-27.1314108" lon="152.8791237">
<ele>44.579</ele>
<time>2018-01-10T02:46:42.110Z</time>
</trkpt>
<trkpt lat="-27.1315548" lon="152.8786606">
<ele>46.284</ele>
<time>2018-01-10T02:46:44.257Z</time>
</trkpt>
<trkpt lat="-27.1316988" lon="152.8782552">
<ele>47.665</ele>
<time>2018-01-10T02:46:46.193Z</time>
</trkpt>
<trkpt lat="-27.1319224" lon="152.8779141">
<ele>48.738</ele>
<time>2018-01-10T02:46:48.084Z</time>
</trkpt>
<trkpt lat="-27.1322132" lon="152.8776098">
<ele>49.585</ele>
<time>2018-01-10T02:46:50.042Z</time>
</trkpt>
<trkpt lat="-27.1325065" lon="152.8772845">
<ele>50.412</ele>
<time>2018-01-10T02:46:52.071Z</time>
</trkpt>
<trkpt lat="-27.1327899" lon="152.8769618">
<ele>51.299</ele>
<time>2018-01-10T02:46:54.047Z</time>
</trkpt>
<trkpt lat="-27.1330815" lon="152.8766104">
<ele>51.974</ele>
<time>2018-01-10T02:46:56.135Z</time>
</trkpt>
<trkpt lat="-27.1334091" lon="152.8763283">
<ele>52.139</ele>
<time>2018-01-10T02:46:58.151Z</time>
</trkpt>
<trkpt lat="-27.1337986" lon="152.8761254">
<ele>51.783</ele>
<time>2018-01-10T02:47:00.238Z</time>
</trkpt>
<trkpt lat="-27.1341657" lon="152.8759606">
<ele>51.243</ele>
<time>2018-01-10T02:47:02.177Z</time>
</trkpt>
<trkpt lat="-27.1345128" lon="152.8757794">
<ele>51.031</ele>
<time>2018-01-10T02:47:04.091Z</time>
</trkpt>
<trkpt lat="-27.1348527" lon="152.8755643">
<ele>51.500</ele>
<time>2018-01-10T02:47:06.071Z</time>
</trkpt>
<trkpt lat="-27.1351930" lon="152.8753534">
<ele>52.662</ele>
<time>2018-01-10T02:47:08.061Z</time>
</trkpt>
<trkpt lat="-27.1355093" lon="152.8751264">
<ele>54.207</ele>
<time>2018-01-10T02:47:09.988Z</time>
</trkpt>
<trkpt lat="-27.1358410" lon="152.8749010">
<ele>55.814</ele>
<time>2018-01-10T02:47:12.002Z</time>
</trkpt>
<trkpt lat="-27.1361961" lon="152.8747250">
<ele>57.396</ele>
<time>2018-01-10T02:47:14.054Z</time>
</trkpt>
<trkpt lat="-27.1365861" lon="152.8746454">
<ele>59.156</ele>
<time>2018-01-10T02:47:16.172Z</time>
</trkpt>
<trkpt lat="-27.1369672" lon="152.8747105">
<ele>61.269</ele>
<time>2018-01-10T02:47:18.252Z</time>
</trkpt>
<trkpt lat="-27.1373308" lon="152.8747659">
<ele>63.437</ele>
<time>2018-01-10T02:47:20.219Z</time>
</trkpt>
<trkpt lat="-27.1376981" lon="152.8747615">
<ele>65.131</ele>
<time>2018-01-10T02:47:22.158Z</time>
</trkpt>
<trkpt lat="-27.1380717" lon="152.8746846">
<ele>66.217</ele>
<time>2018-01-10T02:47:24.127Z</time>
</trkpt>
<trkpt lat="-27.1384212" lon="152.8744898">
<ele>66.901</ele>
<time>2018-01-10T02:47:26.107Z</time>
</trkpt>
<trkpt lat="-27.1387406" lon="152.8742024">
<ele>67.322</ele>
<time>2018-01-10T02:47:28.158Z</time>
</trkpt>
<trkpt lat="-27.1390430" lon="152.8739105">
<ele>67.547</ele>
<time>2018-01-10T02:47:30.143Z</time>
</trkpt>
<trkpt lat="-27.1393481" lon="152.8736170">
<ele>67.706</ele>
<time>2018-01-10T02:47:32.123Z</time>
</trkpt>
<trkpt lat="-27.1396003" lon="152.8732873">
<ele>67.934</ele>
<time>2018-01-10T02:47:34.029Z</time>
</trkpt>
<trkpt lat="-27.1398013" lon="152.8729295">
<ele>68.213</ele>
<time>2018-01-10T02:47:35.898Z</time>
</trkpt>
<trkpt lat="-27.1399768" lon="152.8725197">
<ele>68.270</ele>
<time>2018-01-10T02:47:37.913Z</time>
</trkpt>
<trkpt lat="-27.1401434" lon="152.8721155">
<ele>67.732</ele>
<time>2018-01-10T02:47:39.893Z</time>
</trkpt>
<trkpt lat="-27.1402977" lon="152.8716934">
<ele>66.642</ele>
<time>2018-01-10T02:47:41.948Z</time>
</trkpt>
<trkpt lat="-27.1404482" lon="152.8712977">
<ele>65.554</ele>
<time>2018-01-10T02:47:43.925Z</time>
</trkpt>
<trkpt lat="-27.1405251" lon="152.8708847">
<ele>65.090</ele>
<time>2018-01-10T02:47:45.916Z</time>
</trkpt>
<trkpt lat="-27.1406629" lon="152.8705074">
<ele>65.425</ele>
<time>2018-01-10T02:47:47.843Z</time>
</trkpt>
<trkpt lat="-27.1409302" lon="152.8701946">
<ele>66.134</ele>
<time>2018-01-10T02:47:49.827Z</time>
</trkpt>
<trkpt lat="-27.1413433" lon="152.8699697">
<ele>66.494</ele>
<time>2018-01-10T02:47:52.180Z</time>
</trkpt>
<trkpt lat="-27.1417082" lon="152.8697942">
<ele>65.847</ele>
<time>2018-01-10T02:47:54.243Z</time>
</trkpt>
<trkpt lat="-27.1420845" lon="152.8697328">
<ele>64.020</ele>
<time>2018-01-10T02:47:56.209Z</time>
</trkpt>
<trkpt lat="-27.1424945" lon="152.8698010">
<ele>61.705</ele>
<time>2018-01-10T02:47:58.319Z</time>
</trkpt>
<trkpt lat="-27.1428832" lon="152.8698708">
<ele>59.817</ele>
<time>2018-01-10T02:48:00.273Z</time>
</trkpt>
<trkpt lat="-27.1434914" lon="152.8700125">
<ele>58.653</ele>
<time>2018-01-10T02:48:03.312Z</time>
</trkpt>
<trkpt lat="-27.1440991" lon="152.8701258">
<ele>57.931</ele>
<time>2018-01-10T02:48:06.346Z</time>
</trkpt>
<trkpt lat="-27.1446832" lon="152.8702864">
<ele>57.058</ele>
<time>2018-01-10T02:48:09.309Z</time>
</trkpt>
<trkpt lat="-27.1452013" lon="152.8706598">
<ele>55.527</ele>
<time>2018-01-10T02:48:12.313Z</time>
</trkpt>
<trkpt lat="-27.1455613" lon="152.8708545">
<ele>53.339</ele>
<time>2018-01-10T02:48:14.257Z</time>
</trkpt>
<trkpt lat="-27.1460624" lon="152.8712013">
<ele>51.057</ele>
<time>2018-01-10T02:48:17.140Z</time>
</trkpt>
<trkpt lat="-27.1465870" lon="152.8715775">
<ele>49.436</ele>
<time>2018-01-10T02:48:20.216Z</time>
</trkpt>
<trkpt lat="-27.1469166" lon="152.8721520">
<ele>48.769</ele>
<time>2018-01-10T02:48:23.223Z</time>
</trkpt>
<trkpt lat="-27.1472825" lon="152.8726848">
<ele>48.816</ele>
<time>2018-01-10T02:48:26.177Z</time>
</trkpt>
<trkpt lat="-27.1476641" lon="152.8731946">
<ele>49.290</ele>
<time>2018-01-10T02:48:29.084Z</time>
</trkpt>
<trkpt lat="-27.1479225" lon="152.8735635">
<ele>49.976</ele>
<time>2018-01-10T02:48:31.143Z</time>
</trkpt>
<trkpt lat="-27.1481769" lon="152.8738955">
<ele>50.727</ele>
<time>2018-01-10T02:48:33.360Z</time>
</trkpt>
<trkpt lat="-27.1483616" lon="152.8741438">
<ele>51.551</ele>
<time>2018-01-10T02:48:35.605Z</time>
</trkpt>
<trkpt lat="-27.1484220" lon="152.8742467">
<ele>52.510</ele>
<time>2018-01-10T02:48:36.851Z</time>
</trkpt>
<trkpt lat="-27.1484480" lon="152.8743566">
<ele>53.527</ele>
<time>2018-01-10T02:48:37.999Z</time>
</trkpt>
<trkpt lat="-27.1484480" lon="152.8743566">
<ele>54.346</ele>
<time>2018-01-10T02:48:40.999Z</time>
</trkpt>
<trkpt lat="-27.1484480" lon="152.8743566">
<ele>54.711</ele>
<time>2018-01-10T02:48:59.329Z</time>
</trkpt>
<trkpt lat="-27.1485660" lon="152.8745002">
<ele>54.645</ele>
<time>2018-01-10T02:49:02.946Z</time>
</trkpt>
<trkpt lat="-27.1487505" lon="152.8747230">
<ele>55.499</ele>
<time>2018-01-10T02:49:05.419Z</time>
</trkpt>
<trkpt lat="-27.1489336" lon="152.8749454">
<ele>58.169</ele>
<time>2018-01-10T02:49:07.362Z</time>
</trkpt>
<trkpt lat="-27.1492518" lon="152.8753768">
<ele>61.253</ele>
<time>2018-01-10T02:49:10.684Z</time>
</trkpt>
<trkpt lat="-27.1496481" lon="152.8757933">
<ele>63.601</ele>
<time>2018-01-10T02:49:14.026Z</time>
</trkpt>
<trkpt lat="-27.1501393" lon="152.8761798">
<ele>65.937</ele>
<time>2018-01-10T02:49:17.300Z</time>
</trkpt>
<trkpt lat="-27.1505945" lon="152.8765970">
<ele>68.881</ele>
<time>2018-01-10T02:49:20.261Z</time>
</trkpt>
<trkpt lat="-27.1510225" lon="152.8770136">
<ele>72.441</ele>
<time>2018-01-10T02:49:23.131Z</time>
</trkpt>
<trkpt lat="-27.1514494" lon="152.8773953">
<ele>76.477</ele>
<time>2018-01-10T02:49:25.961Z</time>
</trkpt>
<trkpt lat="-27.1519227" lon="152.8777147">
<ele>80.768</ele>
<time>2018-01-10T02:49:28.890Z</time>
</trkpt>
<trkpt lat="-27.1524587" lon="152.8778709">
<ele>84.723</ele>
<time>2018-01-10T02:49:31.880Z</time>
</trkpt>
<trkpt lat="-27.1529676" lon="152.8781187">
<ele>87.724</ele>
<time>2018-01-10T02:49:34.864Z</time>
</trkpt>
<trkpt lat="-27.1534583" lon="152.8784289">
<ele>89.518</ele>
<time>2018-01-10T02:49:37.851Z</time>
</trkpt>
<trkpt lat="-27.1538913" lon="152.8788329">
<ele>89.749</ele>
<time>2018-01-10T02:49:40.877Z</time>
</trkpt>
<trkpt lat="-27.1543087" lon="152.8791904">
<ele>88.069</ele>
<time>2018-01-10T02:49:43.854Z</time>
</trkpt>
<trkpt lat="-27.1546900" lon="152.8795257">
<ele>85.149</ele>
<time>2018-01-10T02:49:46.828Z</time>
</trkpt>
<trkpt lat="-27.1549622" lon="152.8796231">
<ele>82.294</ele>
<time>2018-01-10T02:49:48.825Z</time>
</trkpt>
<trkpt lat="-27.1551914" lon="152.8796563">
<ele>80.059</ele>
<time>2018-01-10T02:49:50.613Z</time>
</trkpt>
<trkpt lat="-27.1554066" lon="152.8796909">
<ele>78.214</ele>
<time>2018-01-10T02:49:52.432Z</time>
</trkpt>
<trkpt lat="-27.1556206" lon="152.8797232">
<ele>76.448</ele>
<time>2018-01-10T02:49:54.429Z</time>
</trkpt>
<trkpt lat="-27.1557904" lon="152.8797504">
<ele>74.594</ele>
<time>2018-01-10T02:49:56.253Z</time>
</trkpt>
<trkpt lat="-27.1559342" lon="152.8797898">
<ele>72.575</ele>
<time>2018-01-10T02:49:57.958Z</time>
</trkpt>
<trkpt lat="-27.1560840" lon="152.8798374">
<ele>70.495</ele>
<time>2018-01-10T02:49:59.745Z</time>
</trkpt>
<trkpt lat="-27.1562851" lon="152.8798881">
<ele>68.726</ele>
<time>2018-01-10T02:50:01.967Z</time>
</trkpt>
<trkpt lat="-27.1564840" lon="152.8799443">
<ele>67.628</ele>
<time>2018-01-10T02:50:04.101Z</time>
</trkpt>
<trkpt lat="-27.1566703" lon="152.8800048">
<ele>67.104</ele>
<time>2018-01-10T02:50:06.149Z</time>
</trkpt>
<trkpt lat="-27.1568441" lon="152.8800699">
<ele>66.600</ele>
<time>2018-01-10T02:50:08.143Z</time>
</trkpt>
<trkpt lat="-27.1570017" lon="152.8801421">
<ele>65.650</ele>
<time>2018-01-10T02:50:09.995Z</time>
</trkpt>
<trkpt lat="-27.1571831" lon="152.8802058">
<ele>64.443</ele>
<time>2018-01-10T02:50:12.012Z</time>
</trkpt>
<trkpt lat="-27.1573565" lon="152.8802867">
<ele>63.531</ele>
<time>2018-01-10T02:50:13.972Z</time>
</trkpt>
<trkpt lat="-27.1575129" lon="152.8803851">
<ele>63.008</ele>
<time>2018-01-10T02:50:15.842Z</time>
</trkpt>
<trkpt lat="-27.1576709" lon="152.8804840">
<ele>62.613</ele>
<time>2018-01-10T02:50:17.721Z</time>
</trkpt>
<trkpt lat="-27.1578326" lon="152.8806043">
<ele>62.295</ele>
<time>2018-01-10T02:50:19.691Z</time>
</trkpt>
<trkpt lat="-27.1580059" lon="152.8807539">
<ele>62.121</ele>
<time>2018-01-10T02:50:21.801Z</time>
</trkpt>
<trkpt lat="-27.1581671" lon="152.8809203">
<ele>61.977</ele>
<time>2018-01-10T02:50:23.779Z</time>
</trkpt>
<trkpt lat="-27.1584298" lon="152.8812113">
<ele>61.701</ele>
<time>2018-01-10T02:50:26.949Z</time>
</trkpt>
<trkpt lat="-27.1586640" lon="152.8814954">
<ele>61.239</ele>
<time>2018-01-10T02:50:29.860Z</time>
</trkpt>
<trkpt lat="-27.1587645" lon="152.8818537">
<ele>60.624</ele>
<time>2018-01-10T02:50:32.733Z</time>
</trkpt>
<trkpt lat="-27.1588532" lon="152.8822150">
<ele>59.790</ele>
<time>2018-01-10T02:50:35.695Z</time>
</trkpt>
<trkpt lat="-27.1588871" lon="152.8825585">
<ele>58.828</ele>
<time>2018-01-10T02:50:38.598Z</time>
</trkpt>
<trkpt lat="-27.1587754" lon="152.8827998">
<ele>58.116</ele>
<time>2018-01-10T02:50:41.177Z</time>
</trkpt>
<trkpt lat="-27.1585620" lon="152.8830311">
<ele>57.848</ele>
<time>2018-01-10T02:50:44.421Z</time>
</trkpt>
<trkpt lat="-27.1582418" lon="152.8832631">
<ele>57.748</ele>
<time>2018-01-10T02:50:47.865Z</time>
</trkpt>
<trkpt lat="-27.1579014" lon="152.8834347">
<ele>57.570</ele>
<time>2018-01-10T02:50:50.928Z</time>
</trkpt>
<trkpt lat="-27.1575895" lon="152.8835625">
<ele>57.627</ele>
<time>2018-01-10T02:50:53.672Z</time>
</trkpt>
<trkpt lat="-27.1572736" lon="152.8837488">
<ele>58.528</ele>
<time>2018-01-10T02:50:56.696Z</time>
</trkpt>
<trkpt lat="-27.1570086" lon="152.8839243">
<ele>60.303</ele>
<time>2018-01-10T02:50:59.334Z</time>
</trkpt>
<trkpt lat="-27.1568168" lon="152.8841807">
<ele>62.235</ele>
<time>2018-01-10T02:51:02.038Z</time>
</trkpt>
<trkpt lat="-27.1566403" lon="152.8844524">
<ele>63.563</ele>
<time>2018-01-10T02:51:05.060Z</time>
</trkpt>
<trkpt lat="-27.1564766" lon="152.8847254">
<ele>63.881</ele>
<time>2018-01-10T02:51:08.136Z</time>
</trkpt>
<trkpt lat="-27.1564134" lon="152.8851090">
<ele>63.051</ele>
<time>2018-01-10T02:51:11.580Z</time>
</trkpt>
<trkpt lat="-27.1563138" lon="152.8854411">
<ele>61.192</ele>
<time>2018-01-10T02:51:14.780Z</time>
</trkpt>
<trkpt lat="-27.1562636" lon="152.8856119">
<ele>58.934</ele>
<time>2018-01-10T02:51:16.840Z</time>
</trkpt>
<trkpt lat="-27.1561921" lon="152.8857515">
<ele>56.985</ele>
<time>2018-01-10T02:51:19.672Z</time>
</trkpt>
<trkpt lat="-27.1560576" lon="152.8860291">
<ele>55.413</ele>
<time>2018-01-10T02:51:23.592Z</time>
</trkpt>
<trkpt lat="-27.1558724" lon="152.8864624">
<ele>54.126</ele>
<time>2018-01-10T02:51:27.081Z</time>
</trkpt>
<trkpt lat="-27.1556659" lon="152.8869716">
<ele>53.482</ele>
<time>2018-01-10T02:51:30.280Z</time>
</trkpt>
<trkpt lat="-27.1555357" lon="152.8873285">
<ele>54.003</ele>
<time>2018-01-10T02:51:32.375Z</time>
</trkpt>
<trkpt lat="-27.1554113" lon="152.8876513">
<ele>55.758</ele>
<time>2018-01-10T02:51:34.320Z</time>
</trkpt>
<trkpt lat="-27.1552858" lon="152.8880016">
<ele>57.877</ele>
<time>2018-01-10T02:51:36.420Z</time>
</trkpt>
<trkpt lat="-27.1551693" lon="152.8883715">
<ele>59.384</ele>
<time>2018-01-10T02:51:38.644Z</time>
</trkpt>
<trkpt lat="-27.1550869" lon="152.8886766">
<ele>60.657</ele>
<time>2018-01-10T02:51:40.532Z</time>
</trkpt>
<trkpt lat="-27.1549745" lon="152.8889887">
<ele>62.895</ele>
<time>2018-01-10T02:51:42.581Z</time>
</trkpt>
<trkpt lat="-27.1548402" lon="152.8892836">
<ele>66.467</ele>
<time>2018-01-10T02:51:44.603Z</time>
</trkpt>
<trkpt lat="-27.1546951" lon="152.8895579">
<ele>70.459</ele>
<time>2018-01-10T02:51:46.540Z</time>
</trkpt>
<trkpt lat="-27.1545580" lon="152.8898441">
<ele>73.512</ele>
<time>2018-01-10T02:51:48.557Z</time>
</trkpt>
<trkpt lat="-27.1544488" lon="152.8901007">
<ele>74.846</ele>
<time>2018-01-10T02:51:50.433Z</time>
</trkpt>
<trkpt lat="-27.1543727" lon="152.8903365">
<ele>74.627</ele>
<time>2018-01-10T02:51:52.267Z</time>
</trkpt>
<trkpt lat="-27.1543275" lon="152.8905481">
<ele>73.611</ele>
<time>2018-01-10T02:51:54.107Z</time>
</trkpt>
<trkpt lat="-27.1543029" lon="152.8907071">
<ele>72.611</ele>
<time>2018-01-10T02:51:55.857Z</time>
</trkpt>
<trkpt lat="-27.1541747" lon="152.8906133">
<ele>71.974</ele>
<time>2018-01-10T02:51:58.184Z</time>
</trkpt>
<trkpt lat="-27.1540191" lon="152.8905194">
<ele>71.197</ele>
<time>2018-01-10T02:52:01.040Z</time>
</trkpt>
<trkpt lat="-27.1538347" lon="152.8904374">
<ele>69.853</ele>
<time>2018-01-10T02:52:03.373Z</time>
</trkpt>
<trkpt lat="-27.1535935" lon="152.8903327">
<ele>68.382</ele>
<time>2018-01-10T02:52:05.844Z</time>
</trkpt>
<trkpt lat="-27.1533613" lon="152.8902191">
<ele>67.385</ele>
<time>2018-01-10T02:52:07.944Z</time>
</trkpt>
<trkpt lat="-27.1531191" lon="152.8901092">
<ele>66.886</ele>
<time>2018-01-10T02:52:09.943Z</time>
</trkpt>
<trkpt lat="-27.1528550" lon="152.8900159">
<ele>66.416</ele>
<time>2018-01-10T02:52:11.950Z</time>
</trkpt>
<trkpt lat="-27.1525716" lon="152.8899461">
<ele>65.285</ele>
<time>2018-01-10T02:52:13.992Z</time>
</trkpt>
<trkpt lat="-27.1522752" lon="152.8899421">
<ele>63.207</ele>
<time>2018-01-10T02:52:16.074Z</time>
</trkpt>
<trkpt lat="-27.1520008" lon="152.8900224">
<ele>60.654</ele>
<time>2018-01-10T02:52:18.117Z</time>
</trkpt>
<trkpt lat="-27.1517653" lon="152.8900563">
<ele>58.562</ele>
<time>2018-01-10T02:52:19.902Z</time>
</trkpt>
<trkpt lat="-27.1515318" lon="152.8901191">
<ele>57.600</ele>
<time>2018-01-10T02:52:21.787Z</time>
</trkpt>
<trkpt lat="-27.1512948" lon="152.8901375">
<ele>58.071</ele>
<time>2018-01-10T02:52:23.759Z</time>
</trkpt>
<trkpt lat="-27.1510987" lon="152.8901501">
<ele>59.908</ele>
<time>2018-01-10T02:52:25.489Z</time>
</trkpt>
<trkpt lat="-27.1508987" lon="152.8901957">
<ele>62.222</ele>
<time>2018-01-10T02:52:27.384Z</time>
</trkpt>
<trkpt lat="-27.1506998" lon="152.8902031">
<ele>63.853</ele>
<time>2018-01-10T02:52:29.299Z</time>
</trkpt>
<trkpt lat="-27.1505590" lon="152.8902146">
<ele>64.334</ele>
<time>2018-01-10T02:52:30.757Z</time>
</trkpt>
<trkpt lat="-27.1504362" lon="152.8902350">
<ele>63.883</ele>
<time>2018-01-10T02:52:32.227Z</time>
</trkpt>
<trkpt lat="-27.1503060" lon="152.8901989">
<ele>62.940</ele>
<time>2018-01-10T02:52:33.957Z</time>
</trkpt>
<trkpt lat="-27.1501506" lon="152.8901877">
<ele>61.760</ele>
<time>2018-01-10T02:52:36.024Z</time>
</trkpt>
<trkpt lat="-27.1499805" lon="152.8901644">
<ele>60.355</ele>
<time>2018-01-10T02:52:38.149Z</time>
</trkpt>
<trkpt lat="-27.1497835" lon="152.8901461">
<ele>58.668</ele>
<time>2018-01-10T02:52:40.414Z</time>
</trkpt>
<trkpt lat="-27.1495953" lon="152.8901493">
<ele>56.606</ele>
<time>2018-01-10T02:52:42.471Z</time>
</trkpt>
<trkpt lat="-27.1493822" lon="152.8902038">
<ele>54.221</ele>
<time>2018-01-10T02:52:44.802Z</time>
</trkpt>
<trkpt lat="-27.1492070" lon="152.8903391">
<ele>51.820</ele>
<time>2018-01-10T02:52:47.022Z</time>
</trkpt>
<trkpt lat="-27.1490525" lon="152.8905019">
<ele>49.937</ele>
<time>2018-01-10T02:52:49.209Z</time>
</trkpt>
<trkpt lat="-27.1489313" lon="152.8906771">
<ele>49.172</ele>
<time>2018-01-10T02:52:51.230Z</time>
</trkpt>
<trkpt lat="-27.1488210" lon="152.8908615">
<ele>49.845</ele>
<time>2018-01-10T02:52:53.202Z</time>
</trkpt>
<trkpt lat="-27.1487278" lon="152.8910622">
<ele>51.800</ele>
<time>2018-01-10T02:52:55.142Z</time>
</trkpt>
<trkpt lat="-27.1486298" lon="152.8912920">
<ele>54.740</ele>
<time>2018-01-10T02:52:57.200Z</time>
</trkpt>
<trkpt lat="-27.1484851" lon="152.8915525">
<ele>58.394</ele>
<time>2018-01-10T02:52:59.502Z</time>
</trkpt>
<trkpt lat="-27.1483392" lon="152.8917875">
<ele>62.334</ele>
<time>2018-01-10T02:53:01.563Z</time>
</trkpt>
<trkpt lat="-27.1481508" lon="152.8919718">
<ele>66.125</ele>
<time>2018-01-10T02:53:03.533Z</time>
</trkpt>
<trkpt lat="-27.1479220" lon="152.8921455">
<ele>69.404</ele>
<time>2018-01-10T02:53:05.625Z</time>
</trkpt>
<trkpt lat="-27.1476622" lon="152.8922564">
<ele>71.837</ele>
<time>2018-01-10T02:53:07.662Z</time>
</trkpt>
<trkpt lat="-27.1474107" lon="152.8923973">
<ele>73.377</ele>
<time>2018-01-10T02:53:09.758Z</time>
</trkpt>
<trkpt lat="-27.1472858" lon="152.8926519">
<ele>74.303</ele>
<time>2018-01-10T02:53:11.706Z</time>
</trkpt>
<trkpt lat="-27.1472758" lon="152.8929879">
<ele>75.106</ele>
<time>2018-01-10T02:53:13.831Z</time>
</trkpt>
<trkpt lat="-27.1472999" lon="152.8933407">
<ele>76.178</ele>
<time>2018-01-10T02:53:15.897Z</time>
</trkpt>
<trkpt lat="-27.1473349" lon="152.8936800">
<ele>77.384</ele>
<time>2018-01-10T02:53:17.809Z</time>
</trkpt>
<trkpt lat="-27.1473852" lon="152.8940223">
<ele>78.293</ele>
<time>2018-01-10T02:53:19.745Z</time>
</trkpt>
<trkpt lat="-27.1474551" lon="152.8943663">
<ele>78.677</ele>
<time>2018-01-10T02:53:21.739Z</time>
</trkpt>
<trkpt lat="-27.1475051" lon="152.8947143">
<ele>78.569</ele>
<time>2018-01-10T02:53:23.735Z</time>
</trkpt>
<trkpt lat="-27.1475445" lon="152.8950747">
<ele>77.985</ele>
<time>2018-01-10T02:53:25.764Z</time>
</trkpt>
<trkpt lat="-27.1475927" lon="152.8954384">
<ele>76.738</ele>
<time>2018-01-10T02:53:27.762Z</time>
</trkpt>
<trkpt lat="-27.1476405" lon="152.8958233">
<ele>74.692</ele>
<time>2018-01-10T02:53:29.762Z</time>
</trkpt>
<trkpt lat="-27.1477281" lon="152.8962686">
<ele>71.902</ele>
<time>2018-01-10T02:53:31.947Z</time>
</trkpt>
<trkpt lat="-27.1477775" lon="152.8967243">
<ele>68.481</ele>
<time>2018-01-10T02:53:34.029Z</time>
</trkpt>
<trkpt lat="-27.1478238" lon="152.8971461">
<ele>64.705</ele>
<time>2018-01-10T02:53:35.962Z</time>
</trkpt>
<trkpt lat="-27.1478746" lon="152.8975117">
<ele>61.101</ele>
<time>2018-01-10T02:53:37.747Z</time>
</trkpt>
<trkpt lat="-27.1479324" lon="152.8978211">
<ele>58.175</ele>
<time>2018-01-10T02:53:39.401Z</time>
</trkpt>
<trkpt lat="-27.1479588" lon="152.8981270">
<ele>56.054</ele>
<time>2018-01-10T02:53:41.163Z</time>
</trkpt>
<trkpt lat="-27.1479906" lon="152.8984519">
<ele>54.505</ele>
<time>2018-01-10T02:53:43.138Z</time>
</trkpt>
<trkpt lat="-27.1480199" lon="152.8988082">
<ele>53.244</ele>
<time>2018-01-10T02:53:45.226Z</time>
</trkpt>
<trkpt lat="-27.1480694" lon="152.8991869">
<ele>51.986</ele>
<time>2018-01-10T02:53:47.340Z</time>
</trkpt>
<trkpt lat="-27.1481389" lon="152.8995671">
<ele>50.473</ele>
<time>2018-01-10T02:53:49.343Z</time>
</trkpt>
<trkpt lat="-27.1482019" lon="152.8999989">
<ele>48.615</ele>
<time>2018-01-10T02:53:51.437Z</time>
</trkpt>
<trkpt lat="-27.1482659" lon="152.9004531">
<ele>46.626</ele>
<time>2018-01-10T02:53:53.507Z</time>
</trkpt>
<trkpt lat="-27.1483293" lon="152.9009080">
<ele>45.044</ele>
<time>2018-01-10T02:53:55.518Z</time>
</trkpt>
<trkpt lat="-27.1484208" lon="152.9013465">
<ele>44.289</ele>
<time>2018-01-10T02:53:57.483Z</time>
</trkpt>
<trkpt lat="-27.1484790" lon="152.9017821">
<ele>44.254</ele>
<time>2018-01-10T02:53:59.419Z</time>
</trkpt>
<trkpt lat="-27.1485268" lon="152.9022236">
<ele>44.576</ele>
<time>2018-01-10T02:54:01.376Z</time>
</trkpt>
<trkpt lat="-27.1485833" lon="152.9026628">
<ele>44.974</ele>
<time>2018-01-10T02:54:03.321Z</time>
</trkpt>
<trkpt lat="-27.1486318" lon="152.9030991">
<ele>45.304</ele>
<time>2018-01-10T02:54:05.238Z</time>
</trkpt>
<trkpt lat="-27.1487053" lon="152.9035561">
<ele>45.417</ele>
<time>2018-01-10T02:54:07.252Z</time>
</trkpt>
<trkpt lat="-27.1487657" lon="152.9040063">
<ele>45.168</ele>
<time>2018-01-10T02:54:09.228Z</time>
</trkpt>
<trkpt lat="-27.1488131" lon="152.9044591">
<ele>44.540</ele>
<time>2018-01-10T02:54:11.225Z</time>
</trkpt>
<trkpt lat="-27.1488597" lon="152.9049001">
<ele>43.575</ele>
<time>2018-01-10T02:54:13.178Z</time>
</trkpt>
<trkpt lat="-27.1489398" lon="152.9053313">
<ele>42.287</ele>
<time>2018-01-10T02:54:15.112Z</time>
</trkpt>
<trkpt lat="-27.1490189" lon="152.9057683">
<ele>40.827</ele>
<time>2018-01-10T02:54:17.071Z</time>
</trkpt>
<trkpt lat="-27.1490854" lon="152.9062002">
<ele>39.413</ele>
<time>2018-01-10T02:54:18.998Z</time>
</trkpt>
<trkpt lat="-27.1491265" lon="152.9066614">
<ele>38.216</ele>
<time>2018-01-10T02:54:20.998Z</time>
</trkpt>
<trkpt lat="-27.1491799" lon="152.9071008">
<ele>37.432</ele>
<time>2018-01-10T02:54:22.998Z</time>
</trkpt>
<trkpt lat="-27.1492530" lon="152.9075244">
<ele>37.088</ele>
<time>2018-01-10T02:54:24.908Z</time>
</trkpt>
<trkpt lat="-27.1493281" lon="152.9079580">
<ele>36.838</ele>
<time>2018-01-10T02:54:26.865Z</time>
</trkpt>
<trkpt lat="-27.1493978" lon="152.9083776">
<ele>36.335</ele>
<time>2018-01-10T02:54:28.765Z</time>
</trkpt>
<trkpt lat="-27.1494451" lon="152.9088143">
<ele>35.646</ele>
<time>2018-01-10T02:54:30.734Z</time>
</trkpt>
<trkpt lat="-27.1494912" lon="152.9092509">
<ele>35.120</ele>
<time>2018-01-10T02:54:32.711Z</time>
</trkpt>
<trkpt lat="-27.1495617" lon="152.9096826">
<ele>35.070</ele>
<time>2018-01-10T02:54:34.685Z</time>
</trkpt>
<trkpt lat="-27.1496129" lon="152.9101127">
<ele>35.665</ele>
<time>2018-01-10T02:54:36.658Z</time>
</trkpt>
<trkpt lat="-27.1496821" lon="152.9105188">
<ele>36.815</ele>
<time>2018-01-10T02:54:38.603Z</time>
</trkpt>
<trkpt lat="-27.1497329" lon="152.9109142">
<ele>38.312</ele>
<time>2018-01-10T02:54:40.547Z</time>
</trkpt>
<trkpt lat="-27.1497832" lon="152.9112854">
<ele>40.058</ele>
<time>2018-01-10T02:54:42.412Z</time>
</trkpt>
<trkpt lat="-27.1498376" lon="152.9116671">
<ele>41.784</ele>
<time>2018-01-10T02:54:44.363Z</time>
</trkpt>
<trkpt lat="-27.1498727" lon="152.9120422">
<ele>43.059</ele>
<time>2018-01-10T02:54:46.298Z</time>
</trkpt>
<trkpt lat="-27.1499334" lon="152.9123947">
<ele>43.795</ele>
<time>2018-01-10T02:54:48.163Z</time>
</trkpt>
<trkpt lat="-27.1499970" lon="152.9127731">
<ele>44.379</ele>
<time>2018-01-10T02:54:50.174Z</time>
</trkpt>
<trkpt lat="-27.1500330" lon="152.9131589">
<ele>45.247</ele>
<time>2018-01-10T02:54:52.188Z</time>
</trkpt>
<trkpt lat="-27.1499895" lon="152.9135530">
<ele>46.524</ele>
<time>2018-01-10T02:54:54.220Z</time>
</trkpt>
<trkpt lat="-27.1499638" lon="152.9139367">
<ele>48.052</ele>
<time>2018-01-10T02:54:56.159Z</time>
</trkpt>
<trkpt lat="-27.1499473" lon="152.9143472">
<ele>49.606</ele>
<time>2018-01-10T02:54:58.201Z</time>
</trkpt>
<trkpt lat="-27.1499318" lon="152.9147546">
<ele>50.891</ele>
<time>2018-01-10T02:55:00.212Z</time>
</trkpt>
<trkpt lat="-27.1499348" lon="152.9151606">
<ele>51.655</ele>
<time>2018-01-10T02:55:02.219Z</time>
</trkpt>
<trkpt lat="-27.1499559" lon="152.9155261">
<ele>51.957</ele>
<time>2018-01-10T02:55:04.036Z</time>
</trkpt>
<trkpt lat="-27.1499479" lon="152.9159001">
<ele>52.052</ele>
<time>2018-01-10T02:55:05.901Z</time>
</trkpt>
<trkpt lat="-27.1499372" lon="152.9162996">
<ele>51.994</ele>
<time>2018-01-10T02:55:07.901Z</time>
</trkpt>
<trkpt lat="-27.1499243" lon="152.9167042">
<ele>51.451</ele>
<time>2018-01-10T02:55:09.930Z</time>
</trkpt>
<trkpt lat="-27.1499479" lon="152.9171036">
<ele>50.147</ele>
<time>2018-01-10T02:55:11.930Z</time>
</trkpt>
<trkpt lat="-27.1499315" lon="152.9174916">
<ele>48.315</ele>
<time>2018-01-10T02:55:13.879Z</time>
</trkpt>
<trkpt lat="-27.1499507" lon="152.9178399">
<ele>46.482</ele>
<time>2018-01-10T02:55:15.668Z</time>
</trkpt>
<trkpt lat="-27.1499538" lon="152.9183255">
<ele>45.106</ele>
<time>2018-01-10T02:55:18.308Z</time>
</trkpt>
<trkpt lat="-27.1499228" lon="152.9188251">
<ele>44.289</ele>
<time>2018-01-10T02:55:21.150Z</time>
</trkpt>
<trkpt lat="-27.1498048" lon="152.9193233">
<ele>43.548</ele>
<time>2018-01-10T02:55:24.110Z</time>
</trkpt>
<trkpt lat="-27.1496647" lon="152.9198339">
<ele>42.251</ele>
<time>2018-01-10T02:55:27.137Z</time>
</trkpt>
<trkpt lat="-27.1494947" lon="152.9203248">
<ele>40.390</ele>
<time>2018-01-10T02:55:30.093Z</time>
</trkpt>
<trkpt lat="-27.1494267" lon="152.9208382">
<ele>38.698</ele>
<time>2018-01-10T02:55:33.006Z</time>
</trkpt>
<trkpt lat="-27.1494481" lon="152.9213656">
<ele>37.832</ele>
<time>2018-01-10T02:55:35.990Z</time>
</trkpt>
<trkpt lat="-27.1495500" lon="152.9218949">
<ele>37.921</ele>
<time>2018-01-10T02:55:39.066Z</time>
</trkpt>
<trkpt lat="-27.1497118" lon="152.9223987">
<ele>38.897</ele>
<time>2018-01-10T02:55:42.088Z</time>
</trkpt>
<trkpt lat="-27.1499429" lon="152.9228932">
<ele>40.318</ele>
<time>2018-01-10T02:55:45.206Z</time>
</trkpt>
<trkpt lat="-27.1502418" lon="152.9232964">
<ele>41.376</ele>
<time>2018-01-10T02:55:48.112Z</time>
</trkpt>
<trkpt lat="-27.1505113" lon="152.9236924">
<ele>41.620</ele>
<time>2018-01-10T02:55:50.872Z</time>
</trkpt>
<trkpt lat="-27.1507266" lon="152.9242076">
<ele>41.031</ele>
<time>2018-01-10T02:55:54.043Z</time>
</trkpt>
<trkpt lat="-27.1508873" lon="152.9247227">
<ele>39.509</ele>
<time>2018-01-10T02:55:57.061Z</time>
</trkpt>
<trkpt lat="-27.1508972" lon="152.9252204">
<ele>36.924</ele>
<time>2018-01-10T02:55:59.809Z</time>
</trkpt>
<trkpt lat="-27.1509420" lon="152.9257162">
<ele>33.848</ele>
<time>2018-01-10T02:56:02.643Z</time>
</trkpt>
<trkpt lat="-27.1509889" lon="152.9260527">
<ele>31.473</ele>
<time>2018-01-10T02:56:04.647Z</time>
</trkpt>
<trkpt lat="-27.1510750" lon="152.9265709">
<ele>30.385</ele>
<time>2018-01-10T02:56:07.728Z</time>
</trkpt>
<trkpt lat="-27.1511344" lon="152.9270937">
<ele>30.202</ele>
<time>2018-01-10T02:56:10.732Z</time>
</trkpt>
<trkpt lat="-27.1512140" lon="152.9274983">
<ele>30.253</ele>
<time>2018-01-10T02:56:13.069Z</time>
</trkpt>
<trkpt lat="-27.1513010" lon="152.9277854">
<ele>29.803</ele>
<time>2018-01-10T02:56:14.910Z</time>
</trkpt>
<trkpt lat="-27.1513947" lon="152.9279273">
<ele>28.277</ele>
<time>2018-01-10T02:56:15.982Z</time>
</trkpt>
<trkpt lat="-27.1515082" lon="152.9279457">
<ele>25.780</ele>
<time>2018-01-10T02:56:16.955Z</time>
</trkpt>
<trkpt lat="-27.1517221" lon="152.9278148">
<ele>23.034</ele>
<time>2018-01-10T02:56:19.045Z</time>
</trkpt>
<trkpt lat="-27.1519352" lon="152.9275363">
<ele>20.630</ele>
<time>2018-01-10T02:56:24.365Z</time>
</trkpt>
<trkpt lat="-27.1521743" lon="152.9271992">
<ele>18.689</ele>
<time>2018-01-10T02:56:31.176Z</time>
</trkpt>
<trkpt lat="-27.1524278" lon="152.9268339">
<ele>17.155</ele>
<time>2018-01-10T02:56:33.985Z</time>
</trkpt>
<trkpt lat="-27.1527007" lon="152.9264761">
<ele>16.084</ele>
<time>2018-01-10T02:56:36.279Z</time>
</trkpt>
<trkpt lat="-27.1529705" lon="152.9261382">
<ele>15.490</ele>
<time>2018-01-10T02:56:38.389Z</time>
</trkpt>
<trkpt lat="-27.1532447" lon="152.9258008">
<ele>15.107</ele>
<time>2018-01-10T02:56:40.403Z</time>
</trkpt>
<trkpt lat="-27.1535222" lon="152.9254538">
<ele>14.685</ele>
<time>2018-01-10T02:56:42.422Z</time>
</trkpt>
<trkpt lat="-27.1538063" lon="152.9251285">
<ele>14.291</ele>
<time>2018-01-10T02:56:44.405Z</time>
</trkpt>
<trkpt lat="-27.1541154" lon="152.9248294">
<ele>14.162</ele>
<time>2018-01-10T02:56:46.399Z</time>
</trkpt>
<trkpt lat="-27.1544864" lon="152.9246297">
<ele>14.514</ele>
<time>2018-01-10T02:56:48.417Z</time>
</trkpt>
<trkpt lat="-27.1548710" lon="152.9245295">
<ele>15.341</ele>
<time>2018-01-10T02:56:50.361Z</time>
</trkpt>
<trkpt lat="-27.1552468" lon="152.9244054">
<ele>16.599</ele>
<time>2018-01-10T02:56:52.304Z</time>
</trkpt>
<trkpt lat="-27.1556571" lon="152.9243046">
<ele>18.276</ele>
<time>2018-01-10T02:56:54.396Z</time>
</trkpt>
<trkpt lat="-27.1560377" lon="152.9241821">
<ele>20.208</ele>
<time>2018-01-10T02:56:56.352Z</time>
</trkpt>
<trkpt lat="-27.1564097" lon="152.9240638">
<ele>22.178</ele>
<time>2018-01-10T02:56:58.248Z</time>
</trkpt>
<trkpt lat="-27.1567946" lon="152.9239221">
<ele>24.015</ele>
<time>2018-01-10T02:57:00.238Z</time>
</trkpt>
<trkpt lat="-27.1571948" lon="152.9237816">
<ele>25.491</ele>
<time>2018-01-10T02:57:02.312Z</time>
</trkpt>
<trkpt lat="-27.1575364" lon="152.9236520">
<ele>26.540</ele>
<time>2018-01-10T02:57:04.104Z</time>
</trkpt>
<trkpt lat="-27.1578465" lon="152.9235513">
<ele>27.450</ele>
<time>2018-01-10T02:57:05.740Z</time>
</trkpt>
<trkpt lat="-27.1582048" lon="152.9234387">
<ele>28.602</ele>
<time>2018-01-10T02:57:07.710Z</time>
</trkpt>
<trkpt lat="-27.1585590" lon="152.9232693">
<ele>30.065</ele>
<time>2018-01-10T02:57:09.825Z</time>
</trkpt>
<trkpt lat="-27.1589452" lon="152.9231448">
<ele>31.674</ele>
<time>2018-01-10T02:57:12.032Z</time>
</trkpt>
<trkpt lat="-27.1593370" lon="152.9230572">
<ele>33.281</ele>
<time>2018-01-10T02:57:14.115Z</time>
</trkpt>
<trkpt lat="-27.1597142" lon="152.9229115">
<ele>34.983</ele>
<time>2018-01-10T02:57:16.105Z</time>
</trkpt>
<trkpt lat="-27.1600847" lon="152.9227331">
<ele>36.982</ele>
<time>2018-01-10T02:57:18.092Z</time>
</trkpt>
<trkpt lat="-27.1604399" lon="152.9225546">
<ele>39.025</ele>
<time>2018-01-10T02:57:19.999Z</time>
</trkpt>
<trkpt lat="-27.1607983" lon="152.9223275">
<ele>40.521</ele>
<time>2018-01-10T02:57:22.022Z</time>
</trkpt>
<trkpt lat="-27.1611273" lon="152.9220723">
<ele>41.193</ele>
<time>2018-01-10T02:57:23.998Z</time>
</trkpt>
<trkpt lat="-27.1614730" lon="152.9218217">
<ele>41.180</ele>
<time>2018-01-10T02:57:26.033Z</time>
</trkpt>
<trkpt lat="-27.1618031" lon="152.9215663">
<ele>40.815</ele>
<time>2018-01-10T02:57:28.011Z</time>
</trkpt>
<trkpt lat="-27.1621470" lon="152.9213156">
<ele>40.431</ele>
<time>2018-01-10T02:57:30.032Z</time>
</trkpt>
<trkpt lat="-27.1624938" lon="152.9210922">
<ele>40.122</ele>
<time>2018-01-10T02:57:32.000Z</time>
</trkpt>
<trkpt lat="-27.1628389" lon="152.9208804">
<ele>39.730</ele>
<time>2018-01-10T02:57:33.931Z</time>
</trkpt>
<trkpt lat="-27.1631704" lon="152.9206715">
<ele>39.042</ele>
<time>2018-01-10T02:57:35.794Z</time>
</trkpt>
<trkpt lat="-27.1635223" lon="152.9204527">
<ele>38.153</ele>
<time>2018-01-10T02:57:37.767Z</time>
</trkpt>
<trkpt lat="-27.1638622" lon="152.9202346">
<ele>37.497</ele>
<time>2018-01-10T02:57:39.692Z</time>
</trkpt>
<trkpt lat="-27.1642236" lon="152.9200301">
<ele>37.279</ele>
<time>2018-01-10T02:57:41.689Z</time>
</trkpt>
<trkpt lat="-27.1646099" lon="152.9198539">
<ele>37.317</ele>
<time>2018-01-10T02:57:43.752Z</time>
</trkpt>
<trkpt lat="-27.1649914" lon="152.9196944">
<ele>37.407</ele>
<time>2018-01-10T02:57:45.760Z</time>
</trkpt>
<trkpt lat="-27.1653676" lon="152.9195114">
<ele>37.552</ele>
<time>2018-01-10T02:57:47.775Z</time>
</trkpt>
<trkpt lat="-27.1657391" lon="152.9193299">
<ele>37.806</ele>
<time>2018-01-10T02:57:49.757Z</time>
</trkpt>
<trkpt lat="-27.1661100" lon="152.9191626">
<ele>38.098</ele>
<time>2018-01-10T02:57:51.706Z</time>
</trkpt>
<trkpt lat="-27.1664692" lon="152.9189972">
<ele>38.416</ele>
<time>2018-01-10T02:57:53.606Z</time>
</trkpt>
<trkpt lat="-27.1668590" lon="152.9188650">
<ele>38.860</ele>
<time>2018-01-10T02:57:55.615Z</time>
</trkpt>
<trkpt lat="-27.1672197" lon="152.9187017">
<ele>39.406</ele>
<time>2018-01-10T02:57:57.541Z</time>
</trkpt>
<trkpt lat="-27.1675825" lon="152.9185231">
<ele>39.882</ele>
<time>2018-01-10T02:57:59.505Z</time>
</trkpt>
<trkpt lat="-27.1679520" lon="152.9183616">
<ele>40.092</ele>
<time>2018-01-10T02:58:01.470Z</time>
</trkpt>
<trkpt lat="-27.1683371" lon="152.9182109">
<ele>40.017</ele>
<time>2018-01-10T02:58:03.491Z</time>
</trkpt>
<trkpt lat="-27.1687008" lon="152.9180422">
<ele>40.005</ele>
<time>2018-01-10T02:58:05.440Z</time>
</trkpt>
<trkpt lat="-27.1690835" lon="152.9178577">
<ele>40.365</ele>
<time>2018-01-10T02:58:07.500Z</time>
</trkpt>
<trkpt lat="-27.1694388" lon="152.9177037">
<ele>41.004</ele>
<time>2018-01-10T02:58:09.383Z</time>
</trkpt>
<trkpt lat="-27.1698047" lon="152.9175613">
<ele>41.850</ele>
<time>2018-01-10T02:58:11.301Z</time>
</trkpt>
<trkpt lat="-27.1701964" lon="152.9175019">
<ele>43.066</ele>
<time>2018-01-10T02:58:13.273Z</time>
</trkpt>
<trkpt lat="-27.1706184" lon="152.9175343">
<ele>44.700</ele>
<time>2018-01-10T02:58:15.418Z</time>
</trkpt>
<trkpt lat="-27.1710270" lon="152.9176121">
<ele>46.600</ele>
<time>2018-01-10T02:58:17.521Z</time>
</trkpt>
<trkpt lat="-27.1714297" lon="152.9177417">
<ele>48.478</ele>
<time>2018-01-10T02:58:19.603Z</time>
</trkpt>
<trkpt lat="-27.1717898" lon="152.9179551">
<ele>49.906</ele>
<time>2018-01-10T02:58:21.597Z</time>
</trkpt>
<trkpt lat="-27.1721206" lon="152.9182432">
<ele>50.565</ele>
<time>2018-01-10T02:58:23.640Z</time>
</trkpt>
<trkpt lat="-27.1723892" lon="152.9185667">
<ele>50.446</ele>
<time>2018-01-10T02:58:25.575Z</time>
</trkpt>
<trkpt lat="-27.1726467" lon="152.9188854">
<ele>49.770</ele>
<time>2018-01-10T02:58:27.491Z</time>
</trkpt>
<trkpt lat="-27.1728918" lon="152.9191864">
<ele>48.833</ele>
<time>2018-01-10T02:58:29.361Z</time>
</trkpt>
<trkpt lat="-27.1731489" lon="152.9195027">
<ele>47.825</ele>
<time>2018-01-10T02:58:31.383Z</time>
</trkpt>
<trkpt lat="-27.1734139" lon="152.9198322">
<ele>46.748</ele>
<time>2018-01-10T02:58:33.498Z</time>
</trkpt>
<trkpt lat="-27.1737007" lon="152.9201485">
<ele>45.594</ele>
<time>2018-01-10T02:58:35.622Z</time>
</trkpt>
<trkpt lat="-27.1739478" lon="152.9204690">
<ele>44.235</ele>
<time>2018-01-10T02:58:37.577Z</time>
</trkpt>
<trkpt lat="-27.1742073" lon="152.9207683">
<ele>42.355</ele>
<time>2018-01-10T02:58:39.481Z</time>
</trkpt>
<trkpt lat="-27.1744648" lon="152.9210250">
<ele>39.968</ele>
<time>2018-01-10T02:58:41.258Z</time>
</trkpt>
<trkpt lat="-27.1747067" lon="152.9212779">
<ele>37.579</ele>
<time>2018-01-10T02:58:43.002Z</time>
</trkpt>
<trkpt lat="-27.1749328" lon="152.9215654">
<ele>35.582</ele>
<time>2018-01-10T02:58:44.874Z</time>
</trkpt>
<trkpt lat="-27.1751502" lon="152.9218682">
<ele>34.065</ele>
<time>2018-01-10T02:58:46.865Z</time>
</trkpt>
<trkpt lat="-27.1753837" lon="152.9221276">
<ele>32.965</ele>
<time>2018-01-10T02:58:48.800Z</time>
</trkpt>
<trkpt lat="-27.1756106" lon="152.9223754">
<ele>32.008</ele>
<time>2018-01-10T02:58:50.662Z</time>
</trkpt>
<trkpt lat="-27.1758356" lon="152.9226560">
<ele>30.919</ele>
<time>2018-01-10T02:58:52.643Z</time>
</trkpt>
<trkpt lat="-27.1760685" lon="152.9229261">
<ele>29.726</ele>
<time>2018-01-10T02:58:54.631Z</time>
</trkpt>
<trkpt lat="-27.1762954" lon="152.9231827">
<ele>28.655</ele>
<time>2018-01-10T02:58:56.539Z</time>
</trkpt>
<trkpt lat="-27.1765304" lon="152.9234537">
<ele>27.909</ele>
<time>2018-01-10T02:58:58.520Z</time>
</trkpt>
<trkpt lat="-27.1767625" lon="152.9237132">
<ele>27.544</ele>
<time>2018-01-10T02:59:00.440Z</time>
</trkpt>
<trkpt lat="-27.1770009" lon="152.9239853">
<ele>27.483</ele>
<time>2018-01-10T02:59:02.445Z</time>
</trkpt>
<trkpt lat="-27.1772189" lon="152.9242486">
<ele>27.589</ele>
<time>2018-01-10T02:59:04.346Z</time>
</trkpt>
<trkpt lat="-27.1774225" lon="152.9245287">
<ele>27.670</ele>
<time>2018-01-10T02:59:06.269Z</time>
</trkpt>
<trkpt lat="-27.1776162" lon="152.9247571">
<ele>27.531</ele>
<time>2018-01-10T02:59:07.967Z</time>
</trkpt>
<trkpt lat="-27.1778029" lon="152.9249774">
<ele>27.073</ele>
<time>2018-01-10T02:59:09.652Z</time>
</trkpt>
<trkpt lat="-27.1779681" lon="152.9252073">
<ele>26.370</ele>
<time>2018-01-10T02:59:11.363Z</time>
</trkpt>
<trkpt lat="-27.1781382" lon="152.9253682">
<ele>25.524</ele>
<time>2018-01-10T02:59:12.889Z</time>
</trkpt>
<trkpt lat="-27.1782538" lon="152.9255338">
<ele>24.504</ele>
<time>2018-01-10T02:59:14.227Z</time>
</trkpt>
<trkpt lat="-27.1783503" lon="152.9257023">
<ele>23.420</ele>
<time>2018-01-10T02:59:15.559Z</time>
</trkpt>
<trkpt lat="-27.1784042" lon="152.9258795">
<ele>22.625</ele>
<time>2018-01-10T02:59:16.851Z</time>
</trkpt>
<trkpt lat="-27.1785435" lon="152.9259306">
<ele>22.301</ele>
<time>2018-01-10T02:59:18.011Z</time>
</trkpt>
<trkpt lat="-27.1787019" lon="152.9259671">
<ele>22.302</ele>
<time>2018-01-10T02:59:19.431Z</time>
</trkpt>
<trkpt lat="-27.1788654" lon="152.9260666">
<ele>22.315</ele>
<time>2018-01-10T02:59:21.236Z</time>
</trkpt>
<trkpt lat="-27.1790040" lon="152.9262361">
<ele>22.078</ele>
<time>2018-01-10T02:59:23.508Z</time>
</trkpt>
<trkpt lat="-27.1791772" lon="152.9264597">
<ele>21.653</ele>
<time>2018-01-10T02:59:26.713Z</time>
</trkpt>
<trkpt lat="-27.1793451" lon="152.9266819">
<ele>21.498</ele>
<time>2018-01-10T02:59:29.713Z</time>
</trkpt>
<trkpt lat="-27.1795659" lon="152.9268926">
<ele>22.040</ele>
<time>2018-01-10T02:59:32.553Z</time>
</trkpt>
<trkpt lat="-27.1797754" lon="152.9271195">
<ele>23.210</ele>
<time>2018-01-10T02:59:34.954Z</time>
</trkpt>
<trkpt lat="-27.1800062" lon="152.9273475">
<ele>24.613</ele>
<time>2018-01-10T02:59:37.253Z</time>
</trkpt>
<trkpt lat="-27.1802649" lon="152.9275830">
<ele>25.901</ele>
<time>2018-01-10T02:59:39.627Z</time>
</trkpt>
<trkpt lat="-27.1805202" lon="152.9278040">
<ele>26.913</ele>
<time>2018-01-10T02:59:41.812Z</time>
</trkpt>
<trkpt lat="-27.1807863" lon="152.9280214">
<ele>27.665</ele>
<time>2018-01-10T02:59:43.927Z</time>
</trkpt>
<trkpt lat="-27.1810579" lon="152.9281963">
<ele>28.166</ele>
<time>2018-01-10T02:59:45.874Z</time>
</trkpt>
<trkpt lat="-27.1813842" lon="152.9283308">
<ele>28.232</ele>
<time>2018-01-10T02:59:48.006Z</time>
</trkpt>
<trkpt lat="-27.1816864" lon="152.9284645">
<ele>27.673</ele>
<time>2018-01-10T02:59:49.967Z</time>
</trkpt>
<trkpt lat="-27.1819441" lon="152.9286075">
<ele>26.638</ele>
<time>2018-01-10T02:59:51.683Z</time>
</trkpt>
<trkpt lat="-27.1821939" lon="152.9287430">
<ele>25.534</ele>
<time>2018-01-10T02:59:53.370Z</time>
</trkpt>
<trkpt lat="-27.1824747" lon="152.9288941">
<ele>24.689</ele>
<time>2018-01-10T02:59:55.336Z</time>
</trkpt>
<trkpt lat="-27.1827802" lon="152.9290368">
<ele>24.323</ele>
<time>2018-01-10T02:59:57.548Z</time>
</trkpt>
<trkpt lat="-27.1830416" lon="152.9291767">
<ele>24.642</ele>
<time>2018-01-10T02:59:59.538Z</time>
</trkpt>
<trkpt lat="-27.1832830" lon="152.9292997">
<ele>25.635</ele>
<time>2018-01-10T03:00:01.289Z</time>
</trkpt>
<trkpt lat="-27.1835013" lon="152.9294127">
<ele>26.944</ele>
<time>2018-01-10T03:00:02.827Z</time>
</trkpt>
<trkpt lat="-27.1837058" lon="152.9294763">
<ele>28.191</ele>
<time>2018-01-10T03:00:04.176Z</time>
</trkpt>
<trkpt lat="-27.1838451" lon="152.9295758">
<ele>29.152</ele>
<time>2018-01-10T03:00:05.274Z</time>
</trkpt>
<trkpt lat="-27.1839616" lon="152.9297106">
<ele>29.605</ele>
<time>2018-01-10T03:00:06.423Z</time>
</trkpt>
<trkpt lat="-27.1841009" lon="152.9297216">
<ele>29.563</ele>
<time>2018-01-10T03:00:07.444Z</time>
</trkpt>
<trkpt lat="-27.1841852" lon="152.9295830">
<ele>29.427</ele>
<time>2018-01-10T03:00:08.607Z</time>
</trkpt>
<trkpt lat="-27.1842201" lon="152.9293096">
<ele>29.589</ele>
<time>2018-01-10T03:00:10.749Z</time>
</trkpt>
<trkpt lat="-27.1842277" lon="152.9289788">
<ele>30.145</ele>
<time>2018-01-10T03:00:13.830Z</time>
</trkpt>
<trkpt lat="-27.1842033" lon="152.9286227">
<ele>31.042</ele>
<time>2018-01-10T03:00:18.027Z</time>
</trkpt>
<trkpt lat="-27.1842553" lon="152.9282469">
<ele>32.310</ele>
<time>2018-01-10T03:00:21.404Z</time>
</trkpt>
<trkpt lat="-27.1843682" lon="152.9278785">
<ele>34.016</ele>
<time>2018-01-10T03:00:23.951Z</time>
</trkpt>
<trkpt lat="-27.1845955" lon="152.9275603">
<ele>36.122</ele>
<time>2018-01-10T03:00:26.286Z</time>
</trkpt>
<trkpt lat="-27.1847818" lon="152.9272460">
<ele>38.466</ele>
<time>2018-01-10T03:00:28.336Z</time>
</trkpt>
<trkpt lat="-27.1849705" lon="152.9269708">
<ele>40.760</ele>
<time>2018-01-10T03:00:30.196Z</time>
</trkpt>
<trkpt lat="-27.1851735" lon="152.9266951">
<ele>42.708</ele>
<time>2018-01-10T03:00:32.116Z</time>
</trkpt>
<trkpt lat="-27.1853712" lon="152.9263992">
<ele>44.122</ele>
<time>2018-01-10T03:00:34.144Z</time>
</trkpt>
<trkpt lat="-27.1856077" lon="152.9261557">
<ele>44.962</ele>
<time>2018-01-10T03:00:36.144Z</time>
</trkpt>
<trkpt lat="-27.1858463" lon="152.9259484">
<ele>45.582</ele>
<time>2018-01-10T03:00:38.009Z</time>
</trkpt>
<trkpt lat="-27.1861146" lon="152.9257332">
<ele>46.457</ele>
<time>2018-01-10T03:00:40.035Z</time>
</trkpt>
<trkpt lat="-27.1863585" lon="152.9254934">
<ele>47.624</ele>
<time>2018-01-10T03:00:42.039Z</time>
</trkpt>
<trkpt lat="-27.1865904" lon="152.9252544">
<ele>49.025</ele>
<time>2018-01-10T03:00:43.989Z</time>
</trkpt>
<trkpt lat="-27.1868207" lon="152.9250285">
<ele>50.868</ele>
<time>2018-01-10T03:00:45.882Z</time>
</trkpt>
<trkpt lat="-27.1870010" lon="152.9247275">
<ele>53.086</ele>
<time>2018-01-10T03:00:47.881Z</time>
</trkpt>
<trkpt lat="-27.1871208" lon="152.9243873">
<ele>55.042</ele>
<time>2018-01-10T03:00:49.893Z</time>
</trkpt>
<trkpt lat="-27.1871889" lon="152.9240237">
<ele>56.184</ele>
<time>2018-01-10T03:00:51.942Z</time>
</trkpt>
<trkpt lat="-27.1872369" lon="152.9236972">
<ele>56.534</ele>
<time>2018-01-10T03:00:53.763Z</time>
</trkpt>
<trkpt lat="-27.1872158" lon="152.9233243">
<ele>56.361</ele>
<time>2018-01-10T03:00:55.816Z</time>
</trkpt>
<trkpt lat="-27.1871162" lon="152.9229951">
<ele>55.831</ele>
<time>2018-01-10T03:00:57.759Z</time>
</trkpt>
<trkpt lat="-27.1869688" lon="152.9226465">
<ele>55.186</ele>
<time>2018-01-10T03:00:59.948Z</time>
</trkpt>
<trkpt lat="-27.1867876" lon="152.9222549">
<ele>54.792</ele>
<time>2018-01-10T03:01:02.458Z</time>
</trkpt>
<trkpt lat="-27.1865938" lon="152.9218484">
<ele>54.848</ele>
<time>2018-01-10T03:01:05.009Z</time>
</trkpt>
<trkpt lat="-27.1864092" lon="152.9215287">
<ele>55.271</ele>
<time>2018-01-10T03:01:06.976Z</time>
</trkpt>
<trkpt lat="-27.1862244" lon="152.9211634">
<ele>55.839</ele>
<time>2018-01-10T03:01:09.049Z</time>
</trkpt>
<trkpt lat="-27.1860580" lon="152.9208131">
<ele>56.319</ele>
<time>2018-01-10T03:01:11.004Z</time>
</trkpt>
<trkpt lat="-27.1859332" lon="152.9204578">
<ele>56.644</ele>
<time>2018-01-10T03:01:12.913Z</time>
</trkpt>
<trkpt lat="-27.1859148" lon="152.9200426">
<ele>57.040</ele>
<time>2018-01-10T03:01:15.031Z</time>
</trkpt>
<trkpt lat="-27.1859142" lon="152.9196344">
<ele>57.783</ele>
<time>2018-01-10T03:01:17.125Z</time>
</trkpt>
<trkpt lat="-27.1858366" lon="152.9192436">
<ele>58.816</ele>
<time>2018-01-10T03:01:19.158Z</time>
</trkpt>
<trkpt lat="-27.1856960" lon="152.9188441">
<ele>59.845</ele>
<time>2018-01-10T03:01:21.307Z</time>
</trkpt>
<trkpt lat="-27.1855758" lon="152.9184811">
<ele>60.719</ele>
<time>2018-01-10T03:01:23.219Z</time>
</trkpt>
<trkpt lat="-27.1854942" lon="152.9181343">
<ele>61.519</ele>
<time>2018-01-10T03:01:24.981Z</time>
</trkpt>
<trkpt lat="-27.1854346" lon="152.9177609">
<ele>62.395</ele>
<time>2018-01-10T03:01:26.864Z</time>
</trkpt>
<trkpt lat="-27.1854142" lon="152.9173540">
<ele>63.445</ele>
<time>2018-01-10T03:01:28.947Z</time>
</trkpt>
<trkpt lat="-27.1853711" lon="152.9169399">
<ele>64.597</ele>
<time>2018-01-10T03:01:31.127Z</time>
</trkpt>
<trkpt lat="-27.1852976" lon="152.9165304">
<ele>65.708</ele>
<time>2018-01-10T03:01:33.285Z</time>
</trkpt>
<trkpt lat="-27.1852189" lon="152.9161295">
<ele>66.885</ele>
<time>2018-01-10T03:01:35.350Z</time>
</trkpt>
<trkpt lat="-27.1851526" lon="152.9157322">
<ele>68.350</ele>
<time>2018-01-10T03:01:37.347Z</time>
</trkpt>
<trkpt lat="-27.1851064" lon="152.9153342">
<ele>70.014</ele>
<time>2018-01-10T03:01:39.308Z</time>
</trkpt>
<trkpt lat="-27.1850684" lon="152.9149317">
<ele>71.564</ele>
<time>2018-01-10T03:01:41.284Z</time>
</trkpt>
<trkpt lat="-27.1850282" lon="152.9145183">
<ele>72.719</ele>
<time>2018-01-10T03:01:43.315Z</time>
</trkpt>
<trkpt lat="-27.1849635" lon="152.9141157">
<ele>73.404</ele>
<time>2018-01-10T03:01:45.305Z</time>
</trkpt>
<trkpt lat="-27.1848897" lon="152.9137317">
<ele>73.877</ele>
<time>2018-01-10T03:01:47.208Z</time>
</trkpt>
<trkpt lat="-27.1847461" lon="152.9133456">
<ele>74.367</ele>
<time>2018-01-10T03:01:49.238Z</time>
</trkpt>
<trkpt lat="-27.1845373" lon="152.9129673">
<ele>74.780</ele>
<time>2018-01-10T03:01:51.405Z</time>
</trkpt>
<trkpt lat="-27.1843682" lon="152.9126062">
<ele>74.969</ele>
<time>2018-01-10T03:01:53.326Z</time>
</trkpt>
<trkpt lat="-27.1842137" lon="152.9122612">
<ele>74.974</ele>
<time>2018-01-10T03:01:55.086Z</time>
</trkpt>
<trkpt lat="-27.1841075" lon="152.9119133">
<ele>75.022</ele>
<time>2018-01-10T03:01:56.782Z</time>
</trkpt>
<trkpt lat="-27.1841127" lon="152.9115477">
<ele>75.310</ele>
<time>2018-01-10T03:01:58.548Z</time>
</trkpt>
<trkpt lat="-27.1840504" lon="152.9111478">
<ele>76.062</ele>
<time>2018-01-10T03:02:00.628Z</time>
</trkpt>
<trkpt lat="-27.1839740" lon="152.9107509">
<ele>77.640</ele>
<time>2018-01-10T03:02:02.779Z</time>
</trkpt>
<trkpt lat="-27.1837991" lon="152.9103733">
<ele>80.059</ele>
<time>2018-01-10T03:02:05.004Z</time>
</trkpt>
<trkpt lat="-27.1835826" lon="152.9100310">
<ele>82.934</ele>
<time>2018-01-10T03:02:07.120Z</time>
</trkpt>
<trkpt lat="-27.1833575" lon="152.9097075">
<ele>86.012</ele>
<time>2018-01-10T03:02:09.130Z</time>
</trkpt>
<trkpt lat="-27.1832073" lon="152.9093748">
<ele>89.128</ele>
<time>2018-01-10T03:02:10.933Z</time>
</trkpt>
<trkpt lat="-27.1831548" lon="152.9090098">
<ele>92.138</ele>
<time>2018-01-10T03:02:12.725Z</time>
</trkpt>
<trkpt lat="-27.1832533" lon="152.9086721">
<ele>94.950</ele>
<time>2018-01-10T03:02:14.488Z</time>
</trkpt>
<trkpt lat="-27.1833655" lon="152.9083675">
<ele>97.589</ele>
<time>2018-01-10T03:02:16.198Z</time>
</trkpt>
<trkpt lat="-27.1834528" lon="152.9080765">
<ele>100.198</ele>
<time>2018-01-10T03:02:17.874Z</time>
</trkpt>
<trkpt lat="-27.1834770" lon="152.9077676">
<ele>102.578</ele>
<time>2018-01-10T03:02:19.598Z</time>
</trkpt>
<trkpt lat="-27.1831884" lon="152.9074166">
<ele>104.177</ele>
<time>2018-01-10T03:02:22.395Z</time>
</trkpt>
<trkpt lat="-27.1827731" lon="152.9072249">
<ele>104.784</ele>
<time>2018-01-10T03:02:25.638Z</time>
</trkpt>
<trkpt lat="-27.1823699" lon="152.9069785">
<ele>104.499</ele>
<time>2018-01-10T03:02:28.890Z</time>
</trkpt>
<trkpt lat="-27.1821512" lon="152.9065342">
<ele>103.279</ele>
<time>2018-01-10T03:02:31.904Z</time>
</trkpt>
<trkpt lat="-27.1821793" lon="152.9059307">
<ele>101.083</ele>
<time>2018-01-10T03:02:35.384Z</time>
</trkpt>
<trkpt lat="-27.1823261" lon="152.9053784">
<ele>98.149</ele>
<time>2018-01-10T03:02:38.595Z</time>
</trkpt>
<trkpt lat="-27.1825508" lon="152.9048551">
<ele>95.007</ele>
<time>2018-01-10T03:02:41.743Z</time>
</trkpt>
<trkpt lat="-27.1829610" lon="152.9044571">
<ele>92.229</ele>
<time>2018-01-10T03:02:44.994Z</time>
</trkpt>
<trkpt lat="-27.1833446" lon="152.9039991">
<ele>89.936</ele>
<time>2018-01-10T03:02:48.237Z</time>
</trkpt>
<trkpt lat="-27.1835883" lon="152.9035191">
<ele>87.778</ele>
<time>2018-01-10T03:02:51.028Z</time>
</trkpt>
<trkpt lat="-27.1837421" lon="152.9029668">
<ele>85.244</ele>
<time>2018-01-10T03:02:53.962Z</time>
</trkpt>
<trkpt lat="-27.1839488" lon="152.9024681">
<ele>81.868</ele>
<time>2018-01-10T03:02:56.809Z</time>
</trkpt>
<trkpt lat="-27.1841088" lon="152.9020317">
<ele>77.816</ele>
<time>2018-01-10T03:02:59.268Z</time>
</trkpt>
<trkpt lat="-27.1841866" lon="152.9017832">
<ele>73.728</ele>
<time>2018-01-10T03:03:00.674Z</time>
</trkpt>
<trkpt lat="-27.1844049" lon="152.9018181">
<ele>69.921</ele>
<time>2018-01-10T03:03:02.030Z</time>
</trkpt>
<trkpt lat="-27.1847633" lon="152.9020802">
<ele>66.440</ele>
<time>2018-01-10T03:03:05.202Z</time>
</trkpt>
<trkpt lat="-27.1852107" lon="152.9023651">
<ele>63.504</ele>
<time>2018-01-10T03:03:10.520Z</time>
</trkpt>
<trkpt lat="-27.1856371" lon="152.9026366">
<ele>61.434</ele>
<time>2018-01-10T03:03:14.273Z</time>
</trkpt>
<trkpt lat="-27.1860372" lon="152.9028867">
<ele>60.338</ele>
<time>2018-01-10T03:03:17.176Z</time>
</trkpt>
<trkpt lat="-27.1864133" lon="152.9031713">
<ele>59.919</ele>
<time>2018-01-10T03:03:19.998Z</time>
</trkpt>
<trkpt lat="-27.1867947" lon="152.9034440">
<ele>59.655</ele>
<time>2018-01-10T03:03:22.882Z</time>
</trkpt>
<trkpt lat="-27.1872112" lon="152.9036080">
<ele>59.103</ele>
<time>2018-01-10T03:03:25.744Z</time>
</trkpt>
<trkpt lat="-27.1876827" lon="152.9036263">
<ele>58.176</ele>
<time>2018-01-10T03:03:28.845Z</time>
</trkpt>
<trkpt lat="-27.1881447" lon="152.9036754">
<ele>56.976</ele>
<time>2018-01-10T03:03:31.948Z</time>
</trkpt>
<trkpt lat="-27.1886170" lon="152.9037258">
<ele>55.670</ele>
<time>2018-01-10T03:03:35.062Z</time>
</trkpt>
<trkpt lat="-27.1890653" lon="152.9037768">
<ele>54.393</ele>
<time>2018-01-10T03:03:37.942Z</time>
</trkpt>
<trkpt lat="-27.1895185" lon="152.9039818">
<ele>53.170</ele>
<time>2018-01-10T03:03:41.064Z</time>
</trkpt>
<trkpt lat="-27.1899630" lon="152.9041972">
<ele>51.781</ele>
<time>2018-01-10T03:03:44.173Z</time>
</trkpt>
<trkpt lat="-27.1902931" lon="152.9045101">
<ele>49.831</ele>
<time>2018-01-10T03:03:46.922Z</time>
</trkpt>
<trkpt lat="-27.1904559" lon="152.9050154">
<ele>47.626</ele>
<time>2018-01-10T03:03:49.989Z</time>
</trkpt>
<trkpt lat="-27.1904951" lon="152.9055628">
<ele>46.152</ele>
<time>2018-01-10T03:03:53.255Z</time>
</trkpt>
<trkpt lat="-27.1905783" lon="152.9060893">
<ele>45.816</ele>
<time>2018-01-10T03:03:56.454Z</time>
</trkpt>
<trkpt lat="-27.1906270" lon="152.9064598">
<ele>46.447</ele>
<time>2018-01-10T03:03:58.631Z</time>
</trkpt>
<trkpt lat="-27.1907467" lon="152.9064989">
<ele>47.711</ele>
<time>2018-01-10T03:03:59.439Z</time>
</trkpt>
<trkpt lat="-27.1909818" lon="152.9065043">
<ele>49.041</ele>
<time>2018-01-10T03:04:01.043Z</time>
</trkpt>
<trkpt lat="-27.1913263" lon="152.9063893">
<ele>50.102</ele>
<time>2018-01-10T03:04:03.765Z</time>
</trkpt>
<trkpt lat="-27.1916892" lon="152.9062911">
<ele>51.152</ele>
<time>2018-01-10T03:04:07.684Z</time>
</trkpt>
<trkpt lat="-27.1919951" lon="152.9062403">
<ele>52.628</ele>
<time>2018-01-10T03:04:10.020Z</time>
</trkpt>
<trkpt lat="-27.1922866" lon="152.9061965">
<ele>54.700</ele>
<time>2018-01-10T03:04:11.839Z</time>
</trkpt>
<trkpt lat="-27.1925687" lon="152.9061471">
<ele>57.177</ele>
<time>2018-01-10T03:04:13.571Z</time>
</trkpt>
<trkpt lat="-27.1928576" lon="152.9060395">
<ele>59.651</ele>
<time>2018-01-10T03:04:15.519Z</time>
</trkpt>
<trkpt lat="-27.1931517" lon="152.9059893">
<ele>61.864</ele>
<time>2018-01-10T03:04:17.528Z</time>
</trkpt>
<trkpt lat="-27.1934550" lon="152.9059476">
<ele>63.666</ele>
<time>2018-01-10T03:04:19.604Z</time>
</trkpt>
<trkpt lat="-27.1937667" lon="152.9059429">
<ele>64.844</ele>
<time>2018-01-10T03:04:21.677Z</time>
</trkpt>
<trkpt lat="-27.1940614" lon="152.9060031">
<ele>65.353</ele>
<time>2018-01-10T03:04:23.638Z</time>
</trkpt>
<trkpt lat="-27.1943579" lon="152.9060913">
<ele>65.433</ele>
<time>2018-01-10T03:04:25.625Z</time>
</trkpt>
<trkpt lat="-27.1948127" lon="152.9061022">
<ele>65.522</ele>
<time>2018-01-10T03:04:28.567Z</time>
</trkpt>
<trkpt lat="-27.1952779" lon="152.9061341">
<ele>66.285</ele>
<time>2018-01-10T03:04:31.630Z</time>
</trkpt>
<trkpt lat="-27.1956980" lon="152.9063686">
<ele>67.905</ele>
<time>2018-01-10T03:04:34.707Z</time>
</trkpt>
<trkpt lat="-27.1961382" lon="152.9065736">
<ele>69.850</ele>
<time>2018-01-10T03:04:37.799Z</time>
</trkpt>
<trkpt lat="-27.1965461" lon="152.9068493">
<ele>71.812</ele>
<time>2018-01-10T03:04:40.858Z</time>
</trkpt>
<trkpt lat="-27.1969851" lon="152.9070734">
<ele>73.970</ele>
<time>2018-01-10T03:04:43.926Z</time>
</trkpt>
<trkpt lat="-27.1974201" lon="152.9072140">
<ele>76.499</ele>
<time>2018-01-10T03:04:46.807Z</time>
</trkpt>
<trkpt lat="-27.1978596" lon="152.9073469">
<ele>79.516</ele>
<time>2018-01-10T03:04:49.731Z</time>
</trkpt>
<trkpt lat="-27.1983074" lon="152.9074974">
<ele>82.915</ele>
<time>2018-01-10T03:04:52.745Z</time>
</trkpt>
<trkpt lat="-27.1987946" lon="152.9076452">
<ele>85.991</ele>
<time>2018-01-10T03:04:56.036Z</time>
</trkpt>
<trkpt lat="-27.1992527" lon="152.9078666">
<ele>88.023</ele>
<time>2018-01-10T03:04:59.197Z</time>
</trkpt>
<trkpt lat="-27.1996229" lon="152.9081305">
<ele>89.267</ele>
<time>2018-01-10T03:05:01.826Z</time>
</trkpt>
<trkpt lat="-27.1999246" lon="152.9085325">
<ele>90.580</ele>
<time>2018-01-10T03:05:04.714Z</time>
</trkpt>
<trkpt lat="-27.2002537" lon="152.9088422">
<ele>92.120</ele>
<time>2018-01-10T03:05:07.480Z</time>
</trkpt>
<trkpt lat="-27.2005779" lon="152.9086742">
<ele>93.317</ele>
<time>2018-01-10T03:05:09.851Z</time>
</trkpt>
<trkpt lat="-27.2008180" lon="152.9083557">
<ele>93.669</ele>
<time>2018-01-10T03:05:12.586Z</time>
</trkpt>
<trkpt lat="-27.2008885" lon="152.9078410">
<ele>93.158</ele>
<time>2018-01-10T03:05:16.540Z</time>
</trkpt>
<trkpt lat="-27.2010098" lon="152.9073153">
<ele>92.000</ele>
<time>2018-01-10T03:05:20.213Z</time>
</trkpt>
<trkpt lat="-27.2011106" lon="152.9068032">
<ele>90.460</ele>
<time>2018-01-10T03:05:23.257Z</time>
</trkpt>
<trkpt lat="-27.2012713" lon="152.9063816">
<ele>88.886</ele>
<time>2018-01-10T03:05:25.875Z</time>
</trkpt>
<trkpt lat="-27.2017077" lon="152.9061438">
<ele>87.651</ele>
<time>2018-01-10T03:05:29.171Z</time>
</trkpt>
<trkpt lat="-27.2021820" lon="152.9059265">
<ele>86.920</ele>
<time>2018-01-10T03:05:32.663Z</time>
</trkpt>
<trkpt lat="-27.2025002" lon="152.9057869">
<ele>86.665</ele>
<time>2018-01-10T03:05:34.825Z</time>
</trkpt>
<trkpt lat="-27.2029163" lon="152.9055216">
<ele>86.704</ele>
<time>2018-01-10T03:05:37.689Z</time>
</trkpt>
<trkpt lat="-27.2033929" lon="152.9052921">
<ele>86.789</ele>
<time>2018-01-10T03:05:40.743Z</time>
</trkpt>
<trkpt lat="-27.2038717" lon="152.9050928">
<ele>86.400</ele>
<time>2018-01-10T03:05:43.735Z</time>
</trkpt>
<trkpt lat="-27.2043563" lon="152.9049895">
<ele>84.939</ele>
<time>2018-01-10T03:05:46.663Z</time>
</trkpt>
<trkpt lat="-27.2048298" lon="152.9048850">
<ele>82.743</ele>
<time>2018-01-10T03:05:49.606Z</time>
</trkpt>
<trkpt lat="-27.2053099" lon="152.9049700">
<ele>80.841</ele>
<time>2018-01-10T03:05:52.600Z</time>
</trkpt>
<trkpt lat="-27.2057715" lon="152.9050272">
<ele>79.543</ele>
<time>2018-01-10T03:05:55.460Z</time>
</trkpt>
<trkpt lat="-27.2062298" lon="152.9050771">
<ele>78.245</ele>
<time>2018-01-10T03:05:58.368Z</time>
</trkpt>
<trkpt lat="-27.2066965" lon="152.9051571">
<ele>76.330</ele>
<time>2018-01-10T03:06:01.400Z</time>
</trkpt>
<trkpt lat="-27.2071094" lon="152.9054487">
<ele>73.796</ele>
<time>2018-01-10T03:06:04.505Z</time>
</trkpt>
<trkpt lat="-27.2075355" lon="152.9058055">
<ele>70.850</ele>
<time>2018-01-10T03:06:07.805Z</time>
</trkpt>
<trkpt lat="-27.2080403" lon="152.9059866">
<ele>67.390</ele>
<time>2018-01-10T03:06:10.966Z</time>
</trkpt>
<trkpt lat="-27.2086056" lon="152.9058058">
<ele>63.926</ele>
<time>2018-01-10T03:06:14.406Z</time>
</trkpt>
<trkpt lat="-27.2090503" lon="152.9054201">
<ele>61.619</ele>
<time>2018-01-10T03:06:17.609Z</time>
</trkpt>
<trkpt lat="-27.2094806" lon="152.9049865">
<ele>60.928</ele>
<time>2018-01-10T03:06:20.733Z</time>
</trkpt>
<trkpt lat="-27.2097927" lon="152.9047726">
<ele>61.456</ele>
<time>2018-01-10T03:06:22.656Z</time>
</trkpt>
<trkpt lat="-27.2101286" lon="152.9045429">
<ele>62.784</ele>
<time>2018-01-10T03:06:24.717Z</time>
</trkpt>
<trkpt lat="-27.2105257" lon="152.9044168">
<ele>64.615</ele>
<time>2018-01-10T03:06:26.874Z</time>
</trkpt>
<trkpt lat="-27.2109037" lon="152.9043142">
<ele>66.694</ele>
<time>2018-01-10T03:06:28.867Z</time>
</trkpt>
<trkpt lat="-27.2112574" lon="152.9041839">
<ele>68.880</ele>
<time>2018-01-10T03:06:30.771Z</time>
</trkpt>
<trkpt lat="-27.2115998" lon="152.9039862">
<ele>71.138</ele>
<time>2018-01-10T03:06:32.778Z</time>
</trkpt>
<trkpt lat="-27.2119023" lon="152.9036832">
<ele>73.253</ele>
<time>2018-01-10T03:06:34.880Z</time>
</trkpt>
<trkpt lat="-27.2121877" lon="152.9033498">
<ele>74.776</ele>
<time>2018-01-10T03:06:36.927Z</time>
</trkpt>
<trkpt lat="-27.2124897" lon="152.9030416">
<ele>75.341</ele>
<time>2018-01-10T03:06:38.922Z</time>
</trkpt>
<trkpt lat="-27.2128049" lon="152.9027392">
<ele>75.026</ele>
<time>2018-01-10T03:06:40.964Z</time>
</trkpt>
<trkpt lat="-27.2131387" lon="152.9024441">
<ele>74.353</ele>
<time>2018-01-10T03:06:43.043Z</time>
</trkpt>
<trkpt lat="-27.2134921" lon="152.9022206">
<ele>73.879</ele>
<time>2018-01-10T03:06:44.999Z</time>
</trkpt>
<trkpt lat="-27.2138584" lon="152.9019980">
<ele>73.764</ele>
<time>2018-01-10T03:06:47.001Z</time>
</trkpt>
<trkpt lat="-27.2142033" lon="152.9018096">
<ele>73.788</ele>
<time>2018-01-10T03:06:48.870Z</time>
</trkpt>
<trkpt lat="-27.2145544" lon="152.9015995">
<ele>73.746</ele>
<time>2018-01-10T03:06:50.847Z</time>
</trkpt>
<trkpt lat="-27.2148478" lon="152.9013109">
<ele>73.835</ele>
<time>2018-01-10T03:06:52.812Z</time>
</trkpt>
<trkpt lat="-27.2150862" lon="152.9009470">
<ele>74.399</ele>
<time>2018-01-10T03:06:54.835Z</time>
</trkpt>
<trkpt lat="-27.2153545" lon="152.9005945">
<ele>75.501</ele>
<time>2018-01-10T03:06:56.895Z</time>
</trkpt>
<trkpt lat="-27.2156371" lon="152.9002955">
<ele>77.085</ele>
<time>2018-01-10T03:06:58.840Z</time>
</trkpt>
<trkpt lat="-27.2159513" lon="152.9001971">
<ele>79.206</ele>
<time>2018-01-10T03:07:00.520Z</time>
</trkpt>
<trkpt lat="-27.2162803" lon="152.9002009">
<ele>81.744</ele>
<time>2018-01-10T03:07:02.305Z</time>
</trkpt>
<trkpt lat="-27.2165949" lon="152.9002969">
<ele>84.316</ele>
<time>2018-01-10T03:07:04.227Z</time>
</trkpt>
<trkpt lat="-27.2168506" lon="152.9004868">
<ele>86.521</ele>
<time>2018-01-10T03:07:06.128Z</time>
</trkpt>
<trkpt lat="-27.2170527" lon="152.9007470">
<ele>88.205</ele>
<time>2018-01-10T03:07:08.084Z</time>
</trkpt>
<trkpt lat="-27.2172708" lon="152.9010124">
<ele>89.325</ele>
<time>2018-01-10T03:07:10.176Z</time>
</trkpt>
<trkpt lat="-27.2174900" lon="152.9012766">
<ele>89.799</ele>
<time>2018-01-10T03:07:12.240Z</time>
</trkpt>
<trkpt lat="-27.2177164" lon="152.9015200">
<ele>89.589</ele>
<time>2018-01-10T03:07:14.227Z</time>
</trkpt>
<trkpt lat="-27.2179927" lon="152.9017381">
<ele>88.795</ele>
<time>2018-01-10T03:07:16.371Z</time>
</trkpt>
<trkpt lat="-27.2182963" lon="152.9019076">
<ele>87.632</ele>
<time>2018-01-10T03:07:18.515Z</time>
</trkpt>
<trkpt lat="-27.2186333" lon="152.9019779">
<ele>86.517</ele>
<time>2018-01-10T03:07:20.609Z</time>
</trkpt>
<trkpt lat="-27.2189868" lon="152.9020375">
<ele>85.949</ele>
<time>2018-01-10T03:07:22.739Z</time>
</trkpt>
<trkpt lat="-27.2193107" lon="152.9021546">
<ele>86.097</ele>
<time>2018-01-10T03:07:24.769Z</time>
</trkpt>
<trkpt lat="-27.2196437" lon="152.9022555">
<ele>86.715</ele>
<time>2018-01-10T03:07:26.833Z</time>
</trkpt>
<trkpt lat="-27.2199614" lon="152.9023316">
<ele>87.395</ele>
<time>2018-01-10T03:07:28.785Z</time>
</trkpt>
<trkpt lat="-27.2202448" lon="152.9024369">
<ele>87.756</ele>
<time>2018-01-10T03:07:30.616Z</time>
</trkpt>
<trkpt lat="-27.2204386" lon="152.9026412">
<ele>87.453</ele>
<time>2018-01-10T03:07:32.321Z</time>
</trkpt>
<trkpt lat="-27.2205889" lon="152.9029212">
<ele>86.263</ele>
<time>2018-01-10T03:07:34.339Z</time>
</trkpt>
<trkpt lat="-27.2206869" lon="152.9032007">
<ele>84.199</ele>
<time>2018-01-10T03:07:36.257Z</time>
</trkpt>
<trkpt lat="-27.2207750" lon="152.9034892">
<ele>81.501</ele>
<time>2018-01-10T03:07:38.210Z</time>
</trkpt>
<trkpt lat="-27.2208828" lon="152.9037671">
<ele>78.556</ele>
<time>2018-01-10T03:07:40.207Z</time>
</trkpt>
<trkpt lat="-27.2211038" lon="152.9040683">
<ele>75.822</ele>
<time>2018-01-10T03:07:42.761Z</time>
</trkpt>
<trkpt lat="-27.2214045" lon="152.9042869">
<ele>73.764</ele>
<time>2018-01-10T03:07:45.088Z</time>
</trkpt>
<trkpt lat="-27.2217262" lon="152.9044659">
<ele>72.651</ele>
<time>2018-01-10T03:07:47.237Z</time>
</trkpt>
<trkpt lat="-27.2220160" lon="152.9046559">
<ele>72.292</ele>
<time>2018-01-10T03:07:49.208Z</time>
</trkpt>
<trkpt lat="-27.2223017" lon="152.9047998">
<ele>72.250</ele>
<time>2018-01-10T03:07:51.073Z</time>
</trkpt>
<trkpt lat="-27.2225480" lon="152.9049621">
<ele>72.170</ele>
<time>2018-01-10T03:07:52.840Z</time>
</trkpt>
<trkpt lat="-27.2227175" lon="152.9052394">
<ele>71.919</ele>
<time>2018-01-10T03:07:54.786Z</time>
</trkpt>
<trkpt lat="-27.2228625" lon="152.9055572">
<ele>71.403</ele>
<time>2018-01-10T03:07:56.930Z</time>
</trkpt>
<trkpt lat="-27.2230013" lon="152.9058517">
<ele>70.518</ele>
<time>2018-01-10T03:07:58.949Z</time>
</trkpt>
<trkpt lat="-27.2231703" lon="152.9061271">
<ele>69.360</ele>
<time>2018-01-10T03:08:00.973Z</time>
</trkpt>
<trkpt lat="-27.2234148" lon="152.9063353">
<ele>68.294</ele>
<time>2018-01-10T03:08:03.053Z</time>
</trkpt>
<trkpt lat="-27.2237543" lon="152.9064308">
<ele>67.858</ele>
<time>2018-01-10T03:08:05.362Z</time>
</trkpt>
<trkpt lat="-27.2240512" lon="152.9065756">
<ele>68.481</ele>
<time>2018-01-10T03:08:07.418Z</time>
</trkpt>
<trkpt lat="-27.2243360" lon="152.9067387">
<ele>69.902</ele>
<time>2018-01-10T03:08:09.403Z</time>
</trkpt>
<trkpt lat="-27.2246270" lon="152.9068689">
<ele>71.517</ele>
<time>2018-01-10T03:08:11.332Z</time>
</trkpt>
<trkpt lat="-27.2248633" lon="152.9069847">
<ele>73.134</ele>
<time>2018-01-10T03:08:12.979Z</time>
</trkpt>
<trkpt lat="-27.2250945" lon="152.9068747">
<ele>74.977</ele>
<time>2018-01-10T03:08:14.782Z</time>
</trkpt>
<trkpt lat="-27.2252623" lon="152.9066720">
<ele>77.130</ele>
<time>2018-01-10T03:08:16.927Z</time>
</trkpt>
<trkpt lat="-27.2253786" lon="152.9063093">
<ele>79.178</ele>
<time>2018-01-10T03:08:19.824Z</time>
</trkpt>
<trkpt lat="-27.2255771" lon="152.9059664">
<ele>80.563</ele>
<time>2018-01-10T03:08:22.288Z</time>
</trkpt>
<trkpt lat="-27.2257518" lon="152.9056625">
<ele>81.175</ele>
<time>2018-01-10T03:08:24.365Z</time>
</trkpt>
<trkpt lat="-27.2259286" lon="152.9053816">
<ele>81.208</ele>
<time>2018-01-10T03:08:26.304Z</time>
</trkpt>
<trkpt lat="-27.2261203" lon="152.9051049">
<ele>80.847</ele>
<time>2018-01-10T03:08:28.275Z</time>
</trkpt>
<trkpt lat="-27.2263672" lon="152.9048738">
<ele>80.368</ele>
<time>2018-01-10T03:08:30.351Z</time>
</trkpt>
<trkpt lat="-27.2266015" lon="152.9047149">
<ele>80.106</ele>
<time>2018-01-10T03:08:32.238Z</time>
</trkpt>
<trkpt lat="-27.2268411" lon="152.9046168">
<ele>80.309</ele>
<time>2018-01-10T03:08:34.147Z</time>
</trkpt>
<trkpt lat="-27.2270509" lon="152.9046281">
<ele>80.958</ele>
<time>2018-01-10T03:08:35.916Z</time>
</trkpt>
<trkpt lat="-27.2272142" lon="152.9047592">
<ele>81.732</ele>
<time>2018-01-10T03:08:37.913Z</time>
</trkpt>
<trkpt lat="-27.2273550" lon="152.9049657">
<ele>82.293</ele>
<time>2018-01-10T03:08:40.235Z</time>
</trkpt>
<trkpt lat="-27.2274776" lon="152.9051610">
<ele>82.469</ele>
<time>2018-01-10T03:08:42.240Z</time>
</trkpt>
<trkpt lat="-27.2276045" lon="152.9053575">
<ele>82.119</ele>
<time>2018-01-10T03:08:44.326Z</time>
</trkpt>
<trkpt lat="-27.2277463" lon="152.9054370">
<ele>81.263</ele>
<time>2018-01-10T03:08:46.002Z</time>
</trkpt>
<trkpt lat="-27.2278468" lon="152.9053717">
<ele>80.200</ele>
<time>2018-01-10T03:08:47.864Z</time>
</trkpt>
<trkpt lat="-27.2279945" lon="152.9055024">
<ele>79.310</ele>
<time>2018-01-10T03:08:50.737Z</time>
</trkpt>
<trkpt lat="-27.2282024" lon="152.9057975">
<ele>78.800</ele>
<time>2018-01-10T03:08:53.469Z</time>
</trkpt>
<trkpt lat="-27.2284963" lon="152.9061412">
<ele>78.627</ele>
<time>2018-01-10T03:08:55.952Z</time>
</trkpt>
<trkpt lat="-27.2288683" lon="152.9065065">
<ele>78.608</ele>
<time>2018-01-10T03:08:58.489Z</time>
</trkpt>
<trkpt lat="-27.2292511" lon="152.9069078">
<ele>78.878</ele>
<time>2018-01-10T03:09:00.903Z</time>
</trkpt>
<trkpt lat="-27.2296303" lon="152.9073019">
<ele>79.905</ele>
<time>2018-01-10T03:09:03.027Z</time>
</trkpt>
<trkpt lat="-27.2300355" lon="152.9076821">
<ele>81.731</ele>
<time>2018-01-10T03:09:05.075Z</time>
</trkpt>
<trkpt lat="-27.2304546" lon="152.9080324">
<ele>83.607</ele>
<time>2018-01-10T03:09:07.099Z</time>
</trkpt>
<trkpt lat="-27.2308724" lon="152.9083694">
<ele>84.773</ele>
<time>2018-01-10T03:09:09.106Z</time>
</trkpt>
<trkpt lat="-27.2312663" lon="152.9087337">
<ele>85.002</ele>
<time>2018-01-10T03:09:11.096Z</time>
</trkpt>
<trkpt lat="-27.2316597" lon="152.9091021">
<ele>84.454</ele>
<time>2018-01-10T03:09:13.089Z</time>
</trkpt>
<trkpt lat="-27.2320210" lon="152.9095025">
<ele>83.515</ele>
<time>2018-01-10T03:09:15.074Z</time>
</trkpt>
<trkpt lat="-27.2323900" lon="152.9098794">
<ele>82.440</ele>
<time>2018-01-10T03:09:17.036Z</time>
</trkpt>
<trkpt lat="-27.2327300" lon="152.9102873">
<ele>81.214</ele>
<time>2018-01-10T03:09:18.999Z</time>
</trkpt>
<trkpt lat="-27.2330515" lon="152.9107148">
<ele>79.917</ele>
<time>2018-01-10T03:09:20.966Z</time>
</trkpt>
<trkpt lat="-27.2333399" lon="152.9111866">
<ele>78.735</ele>
<time>2018-01-10T03:09:22.975Z</time>
</trkpt>
<trkpt lat="-27.2336223" lon="152.9116518">
<ele>77.785</ele>
<time>2018-01-10T03:09:24.949Z</time>
</trkpt>
<trkpt lat="-27.2338681" lon="152.9121352">
<ele>77.030</ele>
<time>2018-01-10T03:09:26.896Z</time>
</trkpt>
<trkpt lat="-27.2342824" lon="152.9128504">
<ele>76.351</ele>
<time>2018-01-10T03:09:29.875Z</time>
</trkpt>
<trkpt lat="-27.2347013" lon="152.9135790">
<ele>75.748</ele>
<time>2018-01-10T03:09:32.890Z</time>
</trkpt>
<trkpt lat="-27.2351070" lon="152.9142718">
<ele>74.939</ele>
<time>2018-01-10T03:09:35.773Z</time>
</trkpt>
<trkpt lat="-27.2355518" lon="152.9149508">
<ele>73.366</ele>
<time>2018-01-10T03:09:38.712Z</time>
</trkpt>
<trkpt lat="-27.2360383" lon="152.9155861">
<ele>71.082</ele>
<time>2018-01-10T03:09:41.623Z</time>
</trkpt>
<trkpt lat="-27.2365907" lon="152.9162346">
<ele>68.735</ele>
<time>2018-01-10T03:09:44.720Z</time>
</trkpt>
<trkpt lat="-27.2371367" lon="152.9168312">
<ele>66.799</ele>
<time>2018-01-10T03:09:47.674Z</time>
</trkpt>
<trkpt lat="-27.2377591" lon="152.9173057">
<ele>65.480</ele>
<time>2018-01-10T03:09:50.605Z</time>
</trkpt>
<trkpt lat="-27.2384117" lon="152.9177668">
<ele>64.850</ele>
<time>2018-01-10T03:09:53.615Z</time>
</trkpt>
<trkpt lat="-27.2390885" lon="152.9181888">
<ele>64.784</ele>
<time>2018-01-10T03:09:56.645Z</time>
</trkpt>
<trkpt lat="-27.2397956" lon="152.9184901">
<ele>65.143</ele>
<time>2018-01-10T03:09:59.619Z</time>
</trkpt>
<trkpt lat="-27.2404912" lon="152.9187811">
<ele>66.034</ele>
<time>2018-01-10T03:10:02.549Z</time>
</trkpt>
<trkpt lat="-27.2412137" lon="152.9190350">
<ele>67.530</ele>
<time>2018-01-10T03:10:05.531Z</time>
</trkpt>
<trkpt lat="-27.2419141" lon="152.9193723">
<ele>69.600</ele>
<time>2018-01-10T03:10:08.521Z</time>
</trkpt>
<trkpt lat="-27.2426015" lon="152.9197039">
<ele>72.590</ele>
<time>2018-01-10T03:10:11.462Z</time>
</trkpt>
<trkpt lat="-27.2432934" lon="152.9200304">
<ele>76.995</ele>
<time>2018-01-10T03:10:14.429Z</time>
</trkpt>
<trkpt lat="-27.2439473" lon="152.9204231">
<ele>82.530</ele>
<time>2018-01-10T03:10:17.367Z</time>
</trkpt>
<trkpt lat="-27.2445838" lon="152.9208560">
<ele>88.265</ele>
<time>2018-01-10T03:10:20.347Z</time>
</trkpt>
<trkpt lat="-27.2451271" lon="152.9213589">
<ele>93.375</ele>
<time>2018-01-10T03:10:23.353Z</time>
</trkpt>
<trkpt lat="-27.2455170" lon="152.9217699">
<ele>97.603</ele>
<time>2018-01-10T03:10:25.944Z</time>
</trkpt>
<trkpt lat="-27.2459034" lon="152.9220976">
<ele>100.874</ele>
<time>2018-01-10T03:10:28.621Z</time>
</trkpt>
<trkpt lat="-27.2461714" lon="152.9223392">
<ele>102.865</ele>
<time>2018-01-10T03:10:30.598Z</time>
</trkpt>
<trkpt lat="-27.2465293" lon="152.9227701">
<ele>103.548</ele>
<time>2018-01-10T03:10:33.522Z</time>
</trkpt>
<trkpt lat="-27.2467670" lon="152.9230784">
<ele>103.548</ele>
<time>2018-01-10T03:10:35.514Z</time>
</trkpt>
<trkpt lat="-27.2469816" lon="152.9233689">
<ele>103.434</ele>
<time>2018-01-10T03:10:37.366Z</time>
</trkpt>
<trkpt lat="-27.2471709" lon="152.9236795">
<ele>103.350</ele>
<time>2018-01-10T03:10:39.221Z</time>
</trkpt>
<trkpt lat="-27.2473806" lon="152.9240262">
<ele>103.060</ele>
<time>2018-01-10T03:10:41.282Z</time>
</trkpt>
<trkpt lat="-27.2475553" lon="152.9243612">
<ele>102.249</ele>
<time>2018-01-10T03:10:43.195Z</time>
</trkpt>
<trkpt lat="-27.2477410" lon="152.9247029">
<ele>100.855</ele>
<time>2018-01-10T03:10:45.200Z</time>
</trkpt>
<trkpt lat="-27.2478985" lon="152.9250496">
<ele>99.062</ele>
<time>2018-01-10T03:10:47.170Z</time>
</trkpt>
<trkpt lat="-27.2480403" lon="152.9254247">
<ele>97.044</ele>
<time>2018-01-10T03:10:49.213Z</time>
</trkpt>
<trkpt lat="-27.2481774" lon="152.9258446">
<ele>94.890</ele>
<time>2018-01-10T03:10:51.422Z</time>
</trkpt>
<trkpt lat="-27.2483077" lon="152.9262439">
<ele>92.661</ele>
<time>2018-01-10T03:10:53.512Z</time>
</trkpt>
<trkpt lat="-27.2484527" lon="152.9266196">
<ele>90.444</ele>
<time>2018-01-10T03:10:55.526Z</time>
</trkpt>
<trkpt lat="-27.2485996" lon="152.9269698">
<ele>88.310</ele>
<time>2018-01-10T03:10:57.443Z</time>
</trkpt>
<trkpt lat="-27.2487276" lon="152.9273226">
<ele>86.309</ele>
<time>2018-01-10T03:10:59.359Z</time>
</trkpt>
<trkpt lat="-27.2488077" lon="152.9276959">
<ele>84.450</ele>
<time>2018-01-10T03:11:01.321Z</time>
</trkpt>
<trkpt lat="-27.2487926" lon="152.9281093">
<ele>82.342</ele>
<time>2018-01-10T03:11:03.446Z</time>
</trkpt>
<trkpt lat="-27.2486963" lon="152.9285092">
<ele>79.424</ele>
<time>2018-01-10T03:11:05.568Z</time>
</trkpt>
<trkpt lat="-27.2486043" lon="152.9288936">
<ele>75.913</ele>
<time>2018-01-10T03:11:07.610Z</time>
</trkpt>
<trkpt lat="-27.2484920" lon="152.9292644">
<ele>72.945</ele>
<time>2018-01-10T03:11:09.621Z</time>
</trkpt>
<trkpt lat="-27.2483125" lon="152.9296335">
<ele>71.591</ele>
<time>2018-01-10T03:11:11.764Z</time>
</trkpt>
<trkpt lat="-27.2481274" lon="152.9299744">
<ele>71.958</ele>
<time>2018-01-10T03:11:13.789Z</time>
</trkpt>
<trkpt lat="-27.2479528" lon="152.9303041">
<ele>73.133</ele>
<time>2018-01-10T03:11:15.750Z</time>
</trkpt>
<trkpt lat="-27.2477969" lon="152.9306405">
<ele>73.950</ele>
<time>2018-01-10T03:11:17.709Z</time>
</trkpt>
<trkpt lat="-27.2476701" lon="152.9309837">
<ele>73.765</ele>
<time>2018-01-10T03:11:19.632Z</time>
</trkpt>
<trkpt lat="-27.2476594" lon="152.9313906">
<ele>72.676</ele>
<time>2018-01-10T03:11:21.815Z</time>
</trkpt>
<trkpt lat="-27.2477426" lon="152.9316787">
<ele>71.191</ele>
<time>2018-01-10T03:11:23.734Z</time>
</trkpt>
<trkpt lat="-27.2477982" lon="152.9318314">
<ele>69.715</ele>
<time>2018-01-10T03:11:25.000Z</time>
</trkpt>
<trkpt lat="-27.2477982" lon="152.9318314">
<ele>68.527</ele>
<time>2018-01-10T03:11:30.000Z</time>
</trkpt>
<trkpt lat="-27.2477982" lon="152.9318314">
<ele>67.949</ele>
<time>2018-01-10T03:11:44.502Z</time>
</trkpt>
<trkpt lat="-27.2479771" lon="152.9321048">
<ele>67.981</ele>
<time>2018-01-10T03:11:51.762Z</time>
</trkpt>
<trkpt lat="-27.2481777" lon="152.9323586">
<ele>67.208</ele>
<time>2018-01-10T03:11:54.143Z</time>
</trkpt>
<trkpt lat="-27.2484069" lon="152.9326186">
<ele>64.709</ele>
<time>2018-01-10T03:11:56.244Z</time>
</trkpt>
<trkpt lat="-27.2486758" lon="152.9328768">
<ele>62.153</ele>
<time>2018-01-10T03:11:58.401Z</time>
</trkpt>
<trkpt lat="-27.2489565" lon="152.9331404">
<ele>61.417</ele>
<time>2018-01-10T03:12:00.521Z</time>
</trkpt>
<trkpt lat="-27.2492279" lon="152.9334101">
<ele>62.309</ele>
<time>2018-01-10T03:12:02.563Z</time>
</trkpt>
<trkpt lat="-27.2494904" lon="152.9336543">
<ele>63.720</ele>
<time>2018-01-10T03:12:04.492Z</time>
</trkpt>
<trkpt lat="-27.2497740" lon="152.9338903">
<ele>64.541</ele>
<time>2018-01-10T03:12:06.493Z</time>
</trkpt>
<trkpt lat="-27.2500481" lon="152.9341360">
<ele>64.354</ele>
<time>2018-01-10T03:12:08.466Z</time>
</trkpt>
<trkpt lat="-27.2503117" lon="152.9344289">
<ele>63.457</ele>
<time>2018-01-10T03:12:10.531Z</time>
</trkpt>
<trkpt lat="-27.2505573" lon="152.9347191">
<ele>62.199</ele>
<time>2018-01-10T03:12:12.524Z</time>
</trkpt>
<trkpt lat="-27.2507422" lon="152.9350134">
<ele>60.649</ele>
<time>2018-01-10T03:12:14.331Z</time>
</trkpt>
<trkpt lat="-27.2509593" lon="152.9353300">
<ele>58.839</ele>
<time>2018-01-10T03:12:16.359Z</time>
</trkpt>
<trkpt lat="-27.2511316" lon="152.9356526">
<ele>56.873</ele>
<time>2018-01-10T03:12:18.278Z</time>
</trkpt>
<trkpt lat="-27.2512738" lon="152.9360412">
<ele>54.906</ele>
<time>2018-01-10T03:12:20.396Z</time>
</trkpt>
<trkpt lat="-27.2514035" lon="152.9364329">
<ele>53.149</ele>
<time>2018-01-10T03:12:22.460Z</time>
</trkpt>
<trkpt lat="-27.2515642" lon="152.9368065">
<ele>51.808</ele>
<time>2018-01-10T03:12:24.496Z</time>
</trkpt>
<trkpt lat="-27.2517669" lon="152.9371402">
<ele>51.011</ele>
<time>2018-01-10T03:12:26.484Z</time>
</trkpt>
<trkpt lat="-27.2520111" lon="152.9374203">
<ele>50.706</ele>
<time>2018-01-10T03:12:28.421Z</time>
</trkpt>
<trkpt lat="-27.2522499" lon="152.9377081">
<ele>50.674</ele>
<time>2018-01-10T03:12:30.378Z</time>
</trkpt>
<trkpt lat="-27.2525124" lon="152.9379505">
<ele>50.703</ele>
<time>2018-01-10T03:12:32.300Z</time>
</trkpt>
<trkpt lat="-27.2527805" lon="152.9381912">
<ele>50.690</ele>
<time>2018-01-10T03:12:34.252Z</time>
</trkpt>
<trkpt lat="-27.2530190" lon="152.9384732">
<ele>50.620</ele>
<time>2018-01-10T03:12:36.206Z</time>
</trkpt>
<trkpt lat="-27.2532312" lon="152.9388014">
<ele>50.511</ele>
<time>2018-01-10T03:12:38.235Z</time>
</trkpt>
<trkpt lat="-27.2534185" lon="152.9391243">
<ele>50.401</ele>
<time>2018-01-10T03:12:40.180Z</time>
</trkpt>
<trkpt lat="-27.2536089" lon="152.9394435">
<ele>50.322</ele>
<time>2018-01-10T03:12:42.127Z</time>
</trkpt>
<trkpt lat="-27.2537918" lon="152.9397584">
<ele>50.195</ele>
<time>2018-01-10T03:12:44.037Z</time>
</trkpt>
<trkpt lat="-27.2539587" lon="152.9401009">
<ele>49.881</ele>
<time>2018-01-10T03:12:46.032Z</time>
</trkpt>
<trkpt lat="-27.2541248" lon="152.9404298">
<ele>49.440</ele>
<time>2018-01-10T03:12:47.985Z</time>
</trkpt>
<trkpt lat="-27.2542745" lon="152.9407743">
<ele>49.142</ele>
<time>2018-01-10T03:12:49.967Z</time>
</trkpt>
<trkpt lat="-27.2544009" lon="152.9411302">
<ele>49.092</ele>
<time>2018-01-10T03:12:51.901Z</time>
</trkpt>
<trkpt lat="-27.2545313" lon="152.9415135">
<ele>49.167</ele>
<time>2018-01-10T03:12:53.926Z</time>
</trkpt>
<trkpt lat="-27.2546423" lon="152.9418960">
<ele>49.230</ele>
<time>2018-01-10T03:12:55.899Z</time>
</trkpt>
<trkpt lat="-27.2547481" lon="152.9422963">
<ele>49.144</ele>
<time>2018-01-10T03:12:57.935Z</time>
</trkpt>
<trkpt lat="-27.2548408" lon="152.9427091">
<ele>48.717</ele>
<time>2018-01-10T03:13:00.005Z</time>
</trkpt>
<trkpt lat="-27.2549236" lon="152.9431075">
<ele>47.747</ele>
<time>2018-01-10T03:13:02.018Z</time>
</trkpt>
<trkpt lat="-27.2550516" lon="152.9436827">
<ele>46.245</ele>
<time>2018-01-10T03:13:04.961Z</time>
</trkpt>
<trkpt lat="-27.2551222" lon="152.9440812">
<ele>44.343</ele>
<time>2018-01-10T03:13:06.996Z</time>
</trkpt>
<trkpt lat="-27.2552125" lon="152.9444535">
<ele>42.229</ele>
<time>2018-01-10T03:13:08.935Z</time>
</trkpt>
<trkpt lat="-27.2552781" lon="152.9448431">
<ele>40.096</ele>
<time>2018-01-10T03:13:10.942Z</time>
</trkpt>
<trkpt lat="-27.2553009" lon="152.9452282">
<ele>37.879</ele>
<time>2018-01-10T03:13:12.902Z</time>
</trkpt>
<trkpt lat="-27.2552823" lon="152.9456281">
<ele>35.386</ele>
<time>2018-01-10T03:13:14.958Z</time>
</trkpt>
<trkpt lat="-27.2552788" lon="152.9460104">
<ele>32.729</ele>
<time>2018-01-10T03:13:16.983Z</time>
</trkpt>
<trkpt lat="-27.2552677" lon="152.9463905">
<ele>30.120</ele>
<time>2018-01-10T03:13:19.032Z</time>
</trkpt>
<trkpt lat="-27.2552735" lon="152.9467748">
<ele>27.755</ele>
<time>2018-01-10T03:13:21.076Z</time>
</trkpt>
<trkpt lat="-27.2552854" lon="152.9471419">
<ele>25.765</ele>
<time>2018-01-10T03:13:22.988Z</time>
</trkpt>
<trkpt lat="-27.2553242" lon="152.9475197">
<ele>24.226</ele>
<time>2018-01-10T03:13:24.928Z</time>
</trkpt>
<trkpt lat="-27.2553454" lon="152.9479182">
<ele>23.279</ele>
<time>2018-01-10T03:13:26.936Z</time>
</trkpt>
<trkpt lat="-27.2554195" lon="152.9483083">
<ele>22.940</ele>
<time>2018-01-10T03:13:28.914Z</time>
</trkpt>
<trkpt lat="-27.2555655" lon="152.9486836">
<ele>22.953</ele>
<time>2018-01-10T03:13:30.921Z</time>
</trkpt>
<trkpt lat="-27.2557523" lon="152.9490313">
<ele>23.054</ele>
<time>2018-01-10T03:13:32.911Z</time>
</trkpt>
<trkpt lat="-27.2560178" lon="152.9493299">
<ele>23.178</ele>
<time>2018-01-10T03:13:34.996Z</time>
</trkpt>
<trkpt lat="-27.2563005" lon="152.9495674">
<ele>23.495</ele>
<time>2018-01-10T03:13:36.964Z</time>
</trkpt>
<trkpt lat="-27.2566147" lon="152.9497262">
<ele>24.125</ele>
<time>2018-01-10T03:13:38.874Z</time>
</trkpt>
<trkpt lat="-27.2569441" lon="152.9499288">
<ele>24.844</ele>
<time>2018-01-10T03:13:40.940Z</time>
</trkpt>
<trkpt lat="-27.2572661" lon="152.9501380">
<ele>25.327</ele>
<time>2018-01-10T03:13:42.988Z</time>
</trkpt>
<trkpt lat="-27.2575405" lon="152.9504191">
<ele>25.353</ele>
<time>2018-01-10T03:13:45.052Z</time>
</trkpt>
<trkpt lat="-27.2578024" lon="152.9506748">
<ele>24.664</ele>
<time>2018-01-10T03:13:46.999Z</time>
</trkpt>
<trkpt lat="-27.2580535" lon="152.9509454">
<ele>23.225</ele>
<time>2018-01-10T03:13:48.959Z</time>
</trkpt>
<trkpt lat="-27.2582705" lon="152.9512597">
<ele>21.536</ele>
<time>2018-01-10T03:13:50.956Z</time>
</trkpt>
<trkpt lat="-27.2584787" lon="152.9515752">
<ele>20.229</ele>
<time>2018-01-10T03:13:52.941Z</time>
</trkpt>
<trkpt lat="-27.2586569" lon="152.9519038">
<ele>19.554</ele>
<time>2018-01-10T03:13:54.897Z</time>
</trkpt>
<trkpt lat="-27.2588173" lon="152.9522549">
<ele>19.436</ele>
<time>2018-01-10T03:13:56.900Z</time>
</trkpt>
<trkpt lat="-27.2590012" lon="152.9526024">
<ele>19.706</ele>
<time>2018-01-10T03:13:58.945Z</time>
</trkpt>
<trkpt lat="-27.2591779" lon="152.9529339">
<ele>20.151</ele>
<time>2018-01-10T03:14:00.911Z</time>
</trkpt>
<trkpt lat="-27.2593783" lon="152.9532440">
<ele>20.531</ele>
<time>2018-01-10T03:14:02.905Z</time>
</trkpt>
<trkpt lat="-27.2595436" lon="152.9535643">
<ele>20.666</ele>
<time>2018-01-10T03:14:04.904Z</time>
</trkpt>
<trkpt lat="-27.2596824" lon="152.9538675">
<ele>20.551</ele>
<time>2018-01-10T03:14:06.835Z</time>
</trkpt>
<trkpt lat="-27.2598302" lon="152.9541367">
<ele>20.224</ele>
<time>2018-01-10T03:14:08.716Z</time>
</trkpt>
<trkpt lat="-27.2599876" lon="152.9543995">
<ele>19.641</ele>
<time>2018-01-10T03:14:10.677Z</time>
</trkpt>
<trkpt lat="-27.2601289" lon="152.9546381">
<ele>18.947</ele>
<time>2018-01-10T03:14:12.470Z</time>
</trkpt>
<trkpt lat="-27.2602903" lon="152.9549199">
<ele>18.580</ele>
<time>2018-01-10T03:14:14.477Z</time>
</trkpt>
<trkpt lat="-27.2604441" lon="152.9552549">
<ele>18.725</ele>
<time>2018-01-10T03:14:16.592Z</time>
</trkpt>
<trkpt lat="-27.2606197" lon="152.9555757">
<ele>19.257</ele>
<time>2018-01-10T03:14:18.660Z</time>
</trkpt>
<trkpt lat="-27.2607827" lon="152.9558739">
<ele>20.089</ele>
<time>2018-01-10T03:14:20.634Z</time>
</trkpt>
<trkpt lat="-27.2609498" lon="152.9561513">
<ele>20.992</ele>
<time>2018-01-10T03:14:22.650Z</time>
</trkpt>
<trkpt lat="-27.2611366" lon="152.9563975">
<ele>21.508</ele>
<time>2018-01-10T03:14:24.755Z</time>
</trkpt>
<trkpt lat="-27.2613637" lon="152.9565861">
<ele>21.349</ele>
<time>2018-01-10T03:14:26.784Z</time>
</trkpt>
<trkpt lat="-27.2616310" lon="152.9567983">
<ele>20.560</ele>
<time>2018-01-10T03:14:28.983Z</time>
</trkpt>
<trkpt lat="-27.2618561" lon="152.9570289">
<ele>19.379</ele>
<time>2018-01-10T03:14:31.026Z</time>
</trkpt>
<trkpt lat="-27.2620892" lon="152.9572659">
<ele>18.056</ele>
<time>2018-01-10T03:14:33.251Z</time>
</trkpt>
<trkpt lat="-27.2622961" lon="152.9574508">
<ele>16.775</ele>
<time>2018-01-10T03:14:35.459Z</time>
</trkpt>
<trkpt lat="-27.2624379" lon="152.9575795">
<ele>15.673</ele>
<time>2018-01-10T03:14:37.698Z</time>
</trkpt>
<trkpt lat="-27.2625256" lon="152.9576816">
<ele>14.790</ele>
<time>2018-01-10T03:14:40.610Z</time>
</trkpt>
<trkpt lat="-27.2625818" lon="152.9577794">
<ele>14.048</ele>
<time>2018-01-10T03:14:43.000Z</time>
</trkpt>
<trkpt lat="-27.2625818" lon="152.9577794">
<ele>12.736</ele>
<time>2018-01-10T03:14:43.001Z</time>
</trkpt>
<trkpt lat="-27.2625818" lon="152.9577794">
<ele>10.560</ele>
<time>2018-01-10T03:15:01.669Z</time>
</trkpt>
<trkpt lat="-27.2627182" lon="152.9577556">
<ele>8.602</ele>
<time>2018-01-10T03:15:06.158Z</time>
</trkpt>
<trkpt lat="-27.2628634" lon="152.9577104">
<ele>5.581</ele>
<time>2018-01-10T03:15:08.096Z</time>
</trkpt>
<trkpt lat="-27.2630330" lon="152.9575344">
<ele>0.000</ele>
<time>2018-01-10T03:15:10.257Z</time>
</trkpt>
<trkpt lat="-27.2632530" lon="152.9573421">
<ele>0.000</ele>
<time>2018-01-10T03:15:12.482Z</time>
</trkpt>
<trkpt lat="-27.2635117" lon="152.9571543">
<ele>0.000</ele>
<time>2018-01-10T03:15:14.711Z</time>
</trkpt>
<trkpt lat="-27.2637859" lon="152.9570122">
<ele>0.000</ele>
<time>2018-01-10T03:15:16.757Z</time>
</trkpt>
<trkpt lat="-27.2640607" lon="152.9568862">
<ele>0.000</ele>
<time>2018-01-10T03:15:18.763Z</time>
</trkpt>
<trkpt lat="-27.2643216" lon="152.9567649">
<ele>0.000</ele>
<time>2018-01-10T03:15:20.665Z</time>
</trkpt>
<trkpt lat="-27.2645956" lon="152.9566357">
<ele>0.000</ele>
<time>2018-01-10T03:15:22.653Z</time>
</trkpt>
<trkpt lat="-27.2648465" lon="152.9564672">
<ele>0.000</ele>
<time>2018-01-10T03:15:24.614Z</time>
</trkpt>
<trkpt lat="-27.2651145" lon="152.9563409">
<ele>0.000</ele>
<time>2018-01-10T03:15:26.560Z</time>
</trkpt>
<trkpt lat="-27.2653880" lon="152.9562308">
<ele>0.000</ele>
<time>2018-01-10T03:15:28.494Z</time>
</trkpt>
<trkpt lat="-27.2656953" lon="152.9562089">
<ele>0.000</ele>
<time>2018-01-10T03:15:30.531Z</time>
</trkpt>
<trkpt lat="-27.2660108" lon="152.9562648">
<ele>0.332</ele>
<time>2018-01-10T03:15:32.616Z</time>
</trkpt>
<trkpt lat="-27.2663117" lon="152.9563866">
<ele>0.800</ele>
<time>2018-01-10T03:15:34.672Z</time>
</trkpt>
<trkpt lat="-27.2665916" lon="152.9565269">
<ele>0.618</ele>
<time>2018-01-10T03:15:36.631Z</time>
</trkpt>
<trkpt lat="-27.2668768" lon="152.9565895">
<ele>0.000</ele>
<time>2018-01-10T03:15:38.555Z</time>
</trkpt>
<trkpt lat="-27.2671682" lon="152.9565375">
<ele>0.000</ele>
<time>2018-01-10T03:15:40.687Z</time>
</trkpt>
<trkpt lat="-27.2673869" lon="152.9564015">
<ele>0.000</ele>
<time>2018-01-10T03:15:42.629Z</time>
</trkpt>
<trkpt lat="-27.2675500" lon="152.9561886">
<ele>0.000</ele>
<time>2018-01-10T03:15:44.564Z</time>
</trkpt>
<trkpt lat="-27.2676359" lon="152.9558908">
<ele>0.000</ele>
<time>2018-01-10T03:15:46.610Z</time>
</trkpt>
<trkpt lat="-27.2676430" lon="152.9555681">
<ele>0.000</ele>
<time>2018-01-10T03:15:48.589Z</time>
</trkpt>
<trkpt lat="-27.2676410" lon="152.9552449">
<ele>0.000</ele>
<time>2018-01-10T03:15:50.509Z</time>
</trkpt>
<trkpt lat="-27.2676222" lon="152.9549018">
<ele>0.000</ele>
<time>2018-01-10T03:15:52.552Z</time>
</trkpt>
<trkpt lat="-27.2676306" lon="152.9545683">
<ele>0.000</ele>
<time>2018-01-10T03:15:54.568Z</time>
</trkpt>
<trkpt lat="-27.2676758" lon="152.9542337">
<ele>0.216</ele>
<time>2018-01-10T03:15:56.683Z</time>
</trkpt>
<trkpt lat="-27.2677878" lon="152.9539696">
<ele>1.225</ele>
<time>2018-01-10T03:15:58.560Z</time>
</trkpt>
<trkpt lat="-27.2679727" lon="152.9537462">
<ele>2.270</ele>
<time>2018-01-10T03:16:00.488Z</time>
</trkpt>
<trkpt lat="-27.2682461" lon="152.9535830">
<ele>3.428</ele>
<time>2018-01-10T03:16:02.634Z</time>
</trkpt>
<trkpt lat="-27.2685219" lon="152.9534695">
<ele>4.950</ele>
<time>2018-01-10T03:16:04.653Z</time>
</trkpt>
<trkpt lat="-27.2687844" lon="152.9533752">
<ele>6.898</ele>
<time>2018-01-10T03:16:06.517Z</time>
</trkpt>
<trkpt lat="-27.2690748" lon="152.9532540">
<ele>8.991</ele>
<time>2018-01-10T03:16:08.552Z</time>
</trkpt>
<trkpt lat="-27.2693789" lon="152.9531358">
<ele>10.933</ele>
<time>2018-01-10T03:16:10.623Z</time>
</trkpt>
<trkpt lat="-27.2696668" lon="152.9530212">
<ele>12.574</ele>
<time>2018-01-10T03:16:12.579Z</time>
</trkpt>
<trkpt lat="-27.2699845" lon="152.9529220">
<ele>13.750</ele>
<time>2018-01-10T03:16:14.679Z</time>
</trkpt>
<trkpt lat="-27.2702714" lon="152.9527695">
<ele>14.463</ele>
<time>2018-01-10T03:16:16.629Z</time>
</trkpt>
<trkpt lat="-27.2706145" lon="152.9525888">
<ele>14.949</ele>
<time>2018-01-10T03:16:18.829Z</time>
</trkpt>
<trkpt lat="-27.2709689" lon="152.9524627">
<ele>15.326</ele>
<time>2018-01-10T03:16:20.922Z</time>
</trkpt>
<trkpt lat="-27.2712884" lon="152.9523383">
<ele>15.586</ele>
<time>2018-01-10T03:16:22.826Z</time>
</trkpt>
<trkpt lat="-27.2716177" lon="152.9522048">
<ele>15.760</ele>
<time>2018-01-10T03:16:24.795Z</time>
</trkpt>
<trkpt lat="-27.2719397" lon="152.9520779">
<ele>15.846</ele>
<time>2018-01-10T03:16:26.718Z</time>
</trkpt>
<trkpt lat="-27.2722729" lon="152.9519674">
<ele>15.808</ele>
<time>2018-01-10T03:16:28.680Z</time>
</trkpt>
<trkpt lat="-27.2725955" lon="152.9518339">
<ele>15.587</ele>
<time>2018-01-10T03:16:30.696Z</time>
</trkpt>
<trkpt lat="-27.2728989" lon="152.9517078">
<ele>15.236</ele>
<time>2018-01-10T03:16:32.759Z</time>
</trkpt>
<trkpt lat="-27.2731877" lon="152.9517003">
<ele>14.833</ele>
<time>2018-01-10T03:16:34.695Z</time>
</trkpt>
<trkpt lat="-27.2735890" lon="152.9516230">
<ele>14.318</ele>
<time>2018-01-10T03:16:37.400Z</time>
</trkpt>
<trkpt lat="-27.2739481" lon="152.9513137">
<ele>13.551</ele>
<time>2018-01-10T03:16:40.333Z</time>
</trkpt>
<trkpt lat="-27.2743624" lon="152.9510642">
<ele>12.636</ele>
<time>2018-01-10T03:16:43.273Z</time>
</trkpt>
<trkpt lat="-27.2748580" lon="152.9508472">
<ele>11.898</ele>
<time>2018-01-10T03:16:46.447Z</time>
</trkpt>
<trkpt lat="-27.2753371" lon="152.9506679">
<ele>11.548</ele>
<time>2018-01-10T03:16:49.375Z</time>
</trkpt>
<trkpt lat="-27.2758339" lon="152.9505149">
<ele>11.601</ele>
<time>2018-01-10T03:16:52.332Z</time>
</trkpt>
<trkpt lat="-27.2763337" lon="152.9503114">
<ele>12.010</ele>
<time>2018-01-10T03:16:55.364Z</time>
</trkpt>
<trkpt lat="-27.2768201" lon="152.9500655">
<ele>12.532</ele>
<time>2018-01-10T03:16:58.391Z</time>
</trkpt>
<trkpt lat="-27.2772794" lon="152.9498129">
<ele>12.726</ele>
<time>2018-01-10T03:17:01.290Z</time>
</trkpt>
<trkpt lat="-27.2777680" lon="152.9495862">
<ele>12.094</ele>
<time>2018-01-10T03:17:04.290Z</time>
</trkpt>
<trkpt lat="-27.2782411" lon="152.9493477">
<ele>10.757</ele>
<time>2018-01-10T03:17:07.250Z</time>
</trkpt>
<trkpt lat="-27.2787451" lon="152.9492265">
<ele>9.525</ele>
<time>2018-01-10T03:17:10.202Z</time>
</trkpt>
<trkpt lat="-27.2792708" lon="152.9492013">
<ele>8.886</ele>
<time>2018-01-10T03:17:13.188Z</time>
</trkpt>
<trkpt lat="-27.2798021" lon="152.9492341">
<ele>8.556</ele>
<time>2018-01-10T03:17:16.193Z</time>
</trkpt>
<trkpt lat="-27.2802860" lon="152.9494041">
<ele>8.216</ele>
<time>2018-01-10T03:17:19.070Z</time>
</trkpt>
<trkpt lat="-27.2807790" lon="152.9495844">
<ele>7.872</ele>
<time>2018-01-10T03:17:22.007Z</time>
</trkpt>
<trkpt lat="-27.2812648" lon="152.9498861">
<ele>7.646</ele>
<time>2018-01-10T03:17:25.128Z</time>
</trkpt>
<trkpt lat="-27.2818077" lon="152.9500654">
<ele>7.243</ele>
<time>2018-01-10T03:17:28.310Z</time>
</trkpt>
<trkpt lat="-27.2823034" lon="152.9502699">
<ele>6.241</ele>
<time>2018-01-10T03:17:31.291Z</time>
</trkpt>
<trkpt lat="-27.2828090" lon="152.9504616">
<ele>4.597</ele>
<time>2018-01-10T03:17:34.300Z</time>
</trkpt>
<trkpt lat="-27.2832957" lon="152.9506651">
<ele>2.616</ele>
<time>2018-01-10T03:17:37.222Z</time>
</trkpt>
<trkpt lat="-27.2837887" lon="152.9508358">
<ele>0.656</ele>
<time>2018-01-10T03:17:40.152Z</time>
</trkpt>
<trkpt lat="-27.2842591" lon="152.9509583">
<ele>0.000</ele>
<time>2018-01-10T03:17:43.011Z</time>
</trkpt>
<trkpt lat="-27.2846725" lon="152.9511194">
<ele>0.000</ele>
<time>2018-01-10T03:17:45.799Z</time>
</trkpt>
<trkpt lat="-27.2850941" lon="152.9512665">
<ele>0.000</ele>
<time>2018-01-10T03:17:48.760Z</time>
</trkpt>
<trkpt lat="-27.2855119" lon="152.9514341">
<ele>0.000</ele>
<time>2018-01-10T03:17:51.752Z</time>
</trkpt>
<trkpt lat="-27.2859170" lon="152.9515727">
<ele>0.000</ele>
<time>2018-01-10T03:17:54.618Z</time>
</trkpt>
<trkpt lat="-27.2861974" lon="152.9516757">
<ele>0.000</ele>
<time>2018-01-10T03:17:56.609Z</time>
</trkpt>
<trkpt lat="-27.2864881" lon="152.9517821">
<ele>0.000</ele>
<time>2018-01-10T03:17:58.657Z</time>
</trkpt>
<trkpt lat="-27.2867694" lon="152.9519063">
<ele>0.000</ele>
<time>2018-01-10T03:18:00.664Z</time>
</trkpt>
<trkpt lat="-27.2870489" lon="152.9520829">
<ele>0.000</ele>
<time>2018-01-10T03:18:02.784Z</time>
</trkpt>
<trkpt lat="-27.2873343" lon="152.9522161">
<ele>0.000</ele>
<time>2018-01-10T03:18:04.830Z</time>
</trkpt>
<trkpt lat="-27.2876410" lon="152.9523295">
<ele>0.000</ele>
<time>2018-01-10T03:18:06.971Z</time>
</trkpt>
<trkpt lat="-27.2879275" lon="152.9524549">
<ele>0.000</ele>
<time>2018-01-10T03:18:09.009Z</time>
</trkpt>
<trkpt lat="-27.2881939" lon="152.9526038">
<ele>0.000</ele>
<time>2018-01-10T03:18:10.978Z</time>
</trkpt>
<trkpt lat="-27.2884813" lon="152.9526975">
<ele>0.000</ele>
<time>2018-01-10T03:18:12.950Z</time>
</trkpt>
<trkpt lat="-27.2887591" lon="152.9527821">
<ele>0.000</ele>
<time>2018-01-10T03:18:14.829Z</time>
</trkpt>
<trkpt lat="-27.2890518" lon="152.9528952">
<ele>0.000</ele>
<time>2018-01-10T03:18:16.829Z</time>
</trkpt>
<trkpt lat="-27.2893468" lon="152.9530397">
<ele>0.000</ele>
<time>2018-01-10T03:18:18.885Z</time>
</trkpt>
<trkpt lat="-27.2896573" lon="152.9531479">
<ele>0.000</ele>
<time>2018-01-10T03:18:20.951Z</time>
</trkpt>
<trkpt lat="-27.2899525" lon="152.9532580">
<ele>0.876</ele>
<time>2018-01-10T03:18:22.922Z</time>
</trkpt>
<trkpt lat="-27.2902404" lon="152.9533599">
<ele>2.138</ele>
<time>2018-01-10T03:18:24.832Z</time>
</trkpt>
<trkpt lat="-27.2905509" lon="152.9534701">
<ele>3.022</ele>
<time>2018-01-10T03:18:26.887Z</time>
</trkpt>
<trkpt lat="-27.2908303" lon="152.9535901">
<ele>3.465</ele>
<time>2018-01-10T03:18:28.814Z</time>
</trkpt>
<trkpt lat="-27.2910673" lon="152.9536916">
<ele>3.805</ele>
<time>2018-01-10T03:18:30.615Z</time>
</trkpt>
<trkpt lat="-27.2912207" lon="152.9537689">
<ele>4.219</ele>
<time>2018-01-10T03:18:32.000Z</time>
</trkpt>
<trkpt lat="-27.2912207" lon="152.9537689">
<ele>4.535</ele>
<time>2018-01-10T03:18:38.000Z</time>
</trkpt>
<trkpt lat="-27.2912207" lon="152.9537689">
<ele>4.630</ele>
<time>2018-01-10T03:18:40.036Z</time>
</trkpt>
<trkpt lat="-27.2914210" lon="152.9538103">
<ele>4.599</ele>
<time>2018-01-10T03:18:46.526Z</time>
</trkpt>
<trkpt lat="-27.2915968" lon="152.9538727">
<ele>4.931</ele>
<time>2018-01-10T03:18:48.513Z</time>
</trkpt>
<trkpt lat="-27.2918585" lon="152.9539342">
<ele>5.998</ele>
<time>2018-01-10T03:18:50.616Z</time>
</trkpt>
<trkpt lat="-27.2921559" lon="152.9540420">
<ele>7.429</ele>
<time>2018-01-10T03:18:52.705Z</time>
</trkpt>
<trkpt lat="-27.2925167" lon="152.9541329">
<ele>8.583</ele>
<time>2018-01-10T03:18:55.029Z</time>
</trkpt>
<trkpt lat="-27.2928334" lon="152.9543414">
<ele>9.212</ele>
<time>2018-01-10T03:18:57.221Z</time>
</trkpt>
<trkpt lat="-27.2931008" lon="152.9545595">
<ele>9.406</ele>
<time>2018-01-10T03:18:59.173Z</time>
</trkpt>
<trkpt lat="-27.2933007" lon="152.9548460">
<ele>9.419</ele>
<time>2018-01-10T03:19:01.043Z</time>
</trkpt>
<trkpt lat="-27.2935533" lon="152.9551565">
<ele>9.390</ele>
<time>2018-01-10T03:19:03.135Z</time>
</trkpt>
<trkpt lat="-27.2937706" lon="152.9554699">
<ele>9.514</ele>
<time>2018-01-10T03:19:05.099Z</time>
</trkpt>
<trkpt lat="-27.2940050" lon="152.9557789">
<ele>10.024</ele>
<time>2018-01-10T03:19:07.098Z</time>
</trkpt>
<trkpt lat="-27.2942536" lon="152.9560318">
<ele>10.863</ele>
<time>2018-01-10T03:19:08.952Z</time>
</trkpt>
<trkpt lat="-27.2945123" lon="152.9562848">
<ele>11.827</ele>
<time>2018-01-10T03:19:10.850Z</time>
</trkpt>
<trkpt lat="-27.2947281" lon="152.9565690">
<ele>12.804</ele>
<time>2018-01-10T03:19:12.699Z</time>
</trkpt>
<trkpt lat="-27.2949517" lon="152.9568554">
<ele>13.661</ele>
<time>2018-01-10T03:19:14.598Z</time>
</trkpt>
<trkpt lat="-27.2952063" lon="152.9571110">
<ele>14.348</ele>
<time>2018-01-10T03:19:16.523Z</time>
</trkpt>
<trkpt lat="-27.2954321" lon="152.9573904">
<ele>15.161</ele>
<time>2018-01-10T03:19:18.410Z</time>
</trkpt>
<trkpt lat="-27.2956820" lon="152.9576687">
<ele>16.400</ele>
<time>2018-01-10T03:19:20.372Z</time>
</trkpt>
<trkpt lat="-27.2959491" lon="152.9579080">
<ele>17.907</ele>
<time>2018-01-10T03:19:22.279Z</time>
</trkpt>
<trkpt lat="-27.2962344" lon="152.9581144">
<ele>19.399</ele>
<time>2018-01-10T03:19:24.177Z</time>
</trkpt>
<trkpt lat="-27.2965514" lon="152.9582751">
<ele>20.882</ele>
<time>2018-01-10T03:19:26.133Z</time>
</trkpt>
<trkpt lat="-27.2968737" lon="152.9584357">
<ele>22.617</ele>
<time>2018-01-10T03:19:28.153Z</time>
</trkpt>
<trkpt lat="-27.2971705" lon="152.9585718">
<ele>24.756</ele>
<time>2018-01-10T03:19:30.105Z</time>
</trkpt>
<trkpt lat="-27.2974493" lon="152.9586606">
<ele>27.021</ele>
<time>2018-01-10T03:19:32.116Z</time>
</trkpt>
<trkpt lat="-27.2976344" lon="152.9587269">
<ele>28.819</ele>
<time>2018-01-10T03:19:33.796Z</time>
</trkpt>
<trkpt lat="-27.2977501" lon="152.9587373">
<ele>29.678</ele>
<time>2018-01-10T03:19:35.000Z</time>
</trkpt>
<trkpt lat="-27.2977501" lon="152.9587373">
<ele>29.667</ele>
<time>2018-01-10T03:19:39.000Z</time>
</trkpt>
<trkpt lat="-27.2977501" lon="152.9587373">
<ele>29.416</ele>
<time>2018-01-10T03:19:43.659Z</time>
</trkpt>
<trkpt lat="-27.2978912" lon="152.9588108">
<ele>29.380</ele>
<time>2018-01-10T03:19:46.855Z</time>
</trkpt>
<trkpt lat="-27.2981091" lon="152.9589711">
<ele>29.497</ele>
<time>2018-01-10T03:19:49.272Z</time>
</trkpt>
<trkpt lat="-27.2983660" lon="152.9591429">
<ele>29.583</ele>
<time>2018-01-10T03:19:51.470Z</time>
</trkpt>
<trkpt lat="-27.2986465" lon="152.9593769">
<ele>29.716</ele>
<time>2018-01-10T03:19:53.768Z</time>
</trkpt>
<trkpt lat="-27.2989180" lon="152.9596249">
<ele>30.173</ele>
<time>2018-01-10T03:19:55.908Z</time>
</trkpt>
<trkpt lat="-27.2992141" lon="152.9598528">
<ele>30.918</ele>
<time>2018-01-10T03:19:57.998Z</time>
</trkpt>
<trkpt lat="-27.2994645" lon="152.9601457">
<ele>31.530</ele>
<time>2018-01-10T03:20:00.132Z</time>
</trkpt>
<trkpt lat="-27.2996977" lon="152.9603937">
<ele>31.919</ele>
<time>2018-01-10T03:20:02.102Z</time>
</trkpt>
<trkpt lat="-27.2999496" lon="152.9606062">
<ele>32.464</ele>
<time>2018-01-10T03:20:04.137Z</time>
</trkpt>
<trkpt lat="-27.3001881" lon="152.9608064">
<ele>33.343</ele>
<time>2018-01-10T03:20:06.202Z</time>
</trkpt>
<trkpt lat="-27.3004228" lon="152.9609236">
<ele>34.380</ele>
<time>2018-01-10T03:20:08.030Z</time>
</trkpt>
<trkpt lat="-27.3006841" lon="152.9609910">
<ele>35.267</ele>
<time>2018-01-10T03:20:09.813Z</time>
</trkpt>
<trkpt lat="-27.3010443" lon="152.9611534">
<ele>35.678</ele>
<time>2018-01-10T03:20:12.121Z</time>
</trkpt>
<trkpt lat="-27.3014040" lon="152.9612381">
<ele>35.570</ele>
<time>2018-01-10T03:20:14.164Z</time>
</trkpt>
<trkpt lat="-27.3017405" lon="152.9613548">
<ele>35.217</ele>
<time>2018-01-10T03:20:16.179Z</time>
</trkpt>
<trkpt lat="-27.3020379" lon="152.9614807">
<ele>34.778</ele>
<time>2018-01-10T03:20:18.108Z</time>
</trkpt>
<trkpt lat="-27.3023245" lon="152.9615676">
<ele>34.128</ele>
<time>2018-01-10T03:20:20.012Z</time>
</trkpt>
<trkpt lat="-27.3026129" lon="152.9616430">
<ele>33.010</ele>
<time>2018-01-10T03:20:21.997Z</time>
</trkpt>
<trkpt lat="-27.3029049" lon="152.9617418">
<ele>31.294</ele>
<time>2018-01-10T03:20:24.142Z</time>
</trkpt>
<trkpt lat="-27.3031605" lon="152.9618941">
<ele>29.178</ele>
<time>2018-01-10T03:20:26.246Z</time>
</trkpt>
<trkpt lat="-27.3033904" lon="152.9620303">
<ele>26.993</ele>
<time>2018-01-10T03:20:28.168Z</time>
</trkpt>
<trkpt lat="-27.3036172" lon="152.9621793">
<ele>24.983</ele>
<time>2018-01-10T03:20:30.130Z</time>
</trkpt>
<trkpt lat="-27.3038170" lon="152.9623585">
<ele>23.199</ele>
<time>2018-01-10T03:20:31.969Z</time>
</trkpt>
<trkpt lat="-27.3040269" lon="152.9625765">
<ele>21.646</ele>
<time>2018-01-10T03:20:33.900Z</time>
</trkpt>
<trkpt lat="-27.3042525" lon="152.9628347">
<ele>20.461</ele>
<time>2018-01-10T03:20:36.039Z</time>
</trkpt>
<trkpt lat="-27.3044829" lon="152.9630724">
<ele>19.786</ele>
<time>2018-01-10T03:20:38.118Z</time>
</trkpt>
<trkpt lat="-27.3047406" lon="152.9632379">
<ele>19.608</ele>
<time>2018-01-10T03:20:40.114Z</time>
</trkpt>
<trkpt lat="-27.3049908" lon="152.9633971">
<ele>19.761</ele>
<time>2018-01-10T03:20:42.155Z</time>
</trkpt>
<trkpt lat="-27.3052133" lon="152.9635193">
<ele>19.981</ele>
<time>2018-01-10T03:20:44.147Z</time>
</trkpt>
<trkpt lat="-27.3053590" lon="152.9636392">
<ele>20.058</ele>
<time>2018-01-10T03:20:45.922Z</time>
</trkpt>
<trkpt lat="-27.3054265" lon="152.9637669">
<ele>19.960</ele>
<time>2018-01-10T03:20:47.544Z</time>
</trkpt>
<trkpt lat="-27.3055039" lon="152.9638677">
<ele>19.786</ele>
<time>2018-01-10T03:20:49.093Z</time>
</trkpt>
<trkpt lat="-27.3056690" lon="152.9638922">
<ele>19.637</ele>
<time>2018-01-10T03:20:51.049Z</time>
</trkpt>
<trkpt lat="-27.3059361" lon="152.9638136">
<ele>19.686</ele>
<time>2018-01-10T03:20:53.579Z</time>
</trkpt>
<trkpt lat="-27.3062005" lon="152.9637740">
<ele>20.108</ele>
<time>2018-01-10T03:20:55.618Z</time>
</trkpt>
<trkpt lat="-27.3066361" lon="152.9637767">
<ele>20.811</ele>
<time>2018-01-10T03:20:58.620Z</time>
</trkpt>
<trkpt lat="-27.3069800" lon="152.9638097">
<ele>21.690</ele>
<time>2018-01-10T03:21:00.657Z</time>
</trkpt>
<trkpt lat="-27.3073576" lon="152.9638118">
<ele>22.842</ele>
<time>2018-01-10T03:21:02.755Z</time>
</trkpt>
<trkpt lat="-27.3077293" lon="152.9637831">
<ele>24.374</ele>
<time>2018-01-10T03:21:04.813Z</time>
</trkpt>
<trkpt lat="-27.3080518" lon="152.9637527">
<ele>26.216</ele>
<time>2018-01-10T03:21:06.635Z</time>
</trkpt>
<trkpt lat="-27.3083957" lon="152.9636960">
<ele>27.937</ele>
<time>2018-01-10T03:21:08.612Z</time>
</trkpt>
<trkpt lat="-27.3087658" lon="152.9636523">
<ele>29.058</ele>
<time>2018-01-10T03:21:10.735Z</time>
</trkpt>
<trkpt lat="-27.3091011" lon="152.9635791">
<ele>29.644</ele>
<time>2018-01-10T03:21:12.682Z</time>
</trkpt>
<trkpt lat="-27.3094580" lon="152.9634937">
<ele>30.104</ele>
<time>2018-01-10T03:21:14.751Z</time>
</trkpt>
<trkpt lat="-27.3097972" lon="152.9634504">
<ele>30.621</ele>
<time>2018-01-10T03:21:16.674Z</time>
</trkpt>
<trkpt lat="-27.3101666" lon="152.9633386">
<ele>31.075</ele>
<time>2018-01-10T03:21:18.817Z</time>
</trkpt>
<trkpt lat="-27.3105279" lon="152.9632627">
<ele>31.290</ele>
<time>2018-01-10T03:21:20.857Z</time>
</trkpt>
<trkpt lat="-27.3109019" lon="152.9632041">
<ele>31.265</ele>
<time>2018-01-10T03:21:22.943Z</time>
</trkpt>
<trkpt lat="-27.3112778" lon="152.9631992">
<ele>31.334</ele>
<time>2018-01-10T03:21:25.013Z</time>
</trkpt>
<trkpt lat="-27.3116488" lon="152.9631444">
<ele>31.723</ele>
<time>2018-01-10T03:21:27.067Z</time>
</trkpt>
<trkpt lat="-27.3120101" lon="152.9631037">
<ele>32.115</ele>
<time>2018-01-10T03:21:29.058Z</time>
</trkpt>
<trkpt lat="-27.3123684" lon="152.9631000">
<ele>32.042</ele>
<time>2018-01-10T03:21:31.041Z</time>
</trkpt>
<trkpt lat="-27.3127276" lon="152.9631226">
<ele>31.283</ele>
<time>2018-01-10T03:21:33.052Z</time>
</trkpt>
<trkpt lat="-27.3130837" lon="152.9631724">
<ele>30.005</ele>
<time>2018-01-10T03:21:35.064Z</time>
</trkpt>
<trkpt lat="-27.3134423" lon="152.9632322">
<ele>28.614</ele>
<time>2018-01-10T03:21:37.137Z</time>
</trkpt>
<trkpt lat="-27.3137713" lon="152.9632812">
<ele>27.460</ele>
<time>2018-01-10T03:21:39.280Z</time>
</trkpt>
<trkpt lat="-27.3140240" lon="152.9633293">
<ele>26.859</ele>
<time>2018-01-10T03:21:41.345Z</time>
</trkpt>
<trkpt lat="-27.3142146" lon="152.9634007">
<ele>26.925</ele>
<time>2018-01-10T03:21:43.521Z</time>
</trkpt>
<trkpt lat="-27.3143209" lon="152.9633852">
<ele>27.370</ele>
<time>2018-01-10T03:21:44.977Z</time>
</trkpt>
<trkpt lat="-27.3144204" lon="152.9634189">
<ele>27.988</ele>
<time>2018-01-10T03:21:48.107Z</time>
</trkpt>
<trkpt lat="-27.3144982" lon="152.9634807">
<ele>28.801</ele>
<time>2018-01-10T03:21:51.000Z</time>
</trkpt>
<trkpt lat="-27.3144982" lon="152.9634807">
<ele>30.023</ele>
<time>2018-01-10T03:21:51.001Z</time>
</trkpt>
<trkpt lat="-27.3144982" lon="152.9634807">
<ele>31.535</ele>
<time>2018-01-10T03:22:43.090Z</time>
</trkpt>
<trkpt lat="-27.3147181" lon="152.9635180">
<ele>32.286</ele>
<time>2018-01-10T03:22:51.592Z</time>
</trkpt>
<trkpt lat="-27.3151018" lon="152.9635951">
<ele>31.305</ele>
<time>2018-01-10T03:23:00.161Z</time>
</trkpt>
<trkpt lat="-27.3154723" lon="152.9636990">
<ele>29.244</ele>
<time>2018-01-10T03:23:03.301Z</time>
</trkpt>
<trkpt lat="-27.3158618" lon="152.9637780">
<ele>27.484</ele>
<time>2018-01-10T03:23:05.709Z</time>
</trkpt>
<trkpt lat="-27.3162324" lon="152.9638267">
<ele>26.562</ele>
<time>2018-01-10T03:23:07.742Z</time>
</trkpt>
<trkpt lat="-27.3165821" lon="152.9638213">
<ele>26.215</ele>
<time>2018-01-10T03:23:09.574Z</time>
</trkpt>
<trkpt lat="-27.3169375" lon="152.9637938">
<ele>26.079</ele>
<time>2018-01-10T03:23:11.429Z</time>
</trkpt>
<trkpt lat="-27.3173032" lon="152.9637634">
<ele>25.970</ele>
<time>2018-01-10T03:23:13.328Z</time>
</trkpt>
<trkpt lat="-27.3176558" lon="152.9637301">
<ele>25.956</ele>
<time>2018-01-10T03:23:15.144Z</time>
</trkpt>
<trkpt lat="-27.3180132" lon="152.9637164">
<ele>26.081</ele>
<time>2018-01-10T03:23:16.964Z</time>
</trkpt>
<trkpt lat="-27.3183709" lon="152.9636956">
<ele>26.066</ele>
<time>2018-01-10T03:23:18.782Z</time>
</trkpt>
<trkpt lat="-27.3187342" lon="152.9636778">
<ele>25.519</ele>
<time>2018-01-10T03:23:20.629Z</time>
</trkpt>
<trkpt lat="-27.3191087" lon="152.9636752">
<ele>24.355</ele>
<time>2018-01-10T03:23:22.558Z</time>
</trkpt>
<trkpt lat="-27.3194728" lon="152.9636713">
<ele>22.749</ele>
<time>2018-01-10T03:23:24.474Z</time>
</trkpt>
<trkpt lat="-27.3198457" lon="152.9636450">
<ele>20.901</ele>
<time>2018-01-10T03:23:26.460Z</time>
</trkpt>
<trkpt lat="-27.3202139" lon="152.9636308">
<ele>19.046</ele>
<time>2018-01-10T03:23:28.422Z</time>
</trkpt>
<trkpt lat="-27.3205920" lon="152.9636413">
<ele>17.231</ele>
<time>2018-01-10T03:23:30.426Z</time>
</trkpt>
<trkpt lat="-27.3209444" lon="152.9636306">
<ele>15.282</ele>
<time>2018-01-10T03:23:32.286Z</time>
</trkpt>
<trkpt lat="-27.3213335" lon="152.9636482">
<ele>13.452</ele>
<time>2018-01-10T03:23:34.345Z</time>
</trkpt>
<trkpt lat="-27.3216910" lon="152.9636325">
<ele>12.391</ele>
<time>2018-01-10T03:23:36.246Z</time>
</trkpt>
<trkpt lat="-27.3220394" lon="152.9636186">
<ele>12.327</ele>
<time>2018-01-10T03:23:38.120Z</time>
</trkpt>
<trkpt lat="-27.3224286" lon="152.9636439">
<ele>12.902</ele>
<time>2018-01-10T03:23:40.339Z</time>
</trkpt>
<trkpt lat="-27.3227745" lon="152.9636280">
<ele>13.794</ele>
<time>2018-01-10T03:23:42.514Z</time>
</trkpt>
<trkpt lat="-27.3231236" lon="152.9636215">
<ele>14.997</ele>
<time>2018-01-10T03:23:45.559Z</time>
</trkpt>
<trkpt lat="-27.3234712" lon="152.9636135">
<ele>16.572</ele>
<time>2018-01-10T03:23:52.146Z</time>
</trkpt>
<trkpt lat="-27.3238106" lon="152.9636036">
<ele>18.584</ele>
<time>2018-01-10T03:23:55.697Z</time>
</trkpt>
<trkpt lat="-27.3242039" lon="152.9636986">
<ele>20.998</ele>
<time>2018-01-10T03:23:58.374Z</time>
</trkpt>
<trkpt lat="-27.3244283" lon="152.9638742">
<ele>23.591</ele>
<time>2018-01-10T03:23:59.978Z</time>
</trkpt>
<trkpt lat="-27.3245235" lon="152.9639343">
<ele>26.203</ele>
<time>2018-01-10T03:24:00.562Z</time>
</trkpt>
<trkpt lat="-27.3246310" lon="152.9638894">
<ele>28.512</ele>
<time>2018-01-10T03:24:01.174Z</time>
</trkpt>
<trkpt lat="-27.3248207" lon="152.9636279">
<ele>30.005</ele>
<time>2018-01-10T03:24:02.775Z</time>
</trkpt>
<trkpt lat="-27.3250936" lon="152.9632161">
<ele>30.777</ele>
<time>2018-01-10T03:24:05.147Z</time>
</trkpt>
<trkpt lat="-27.3255296" lon="152.9628476">
<ele>31.568</ele>
<time>2018-01-10T03:24:07.878Z</time>
</trkpt>
<trkpt lat="-27.3260491" lon="152.9626857">
<ele>32.778</ele>
<time>2018-01-10T03:24:10.488Z</time>
</trkpt>
<trkpt lat="-27.3266125" lon="152.9625827">
<ele>34.124</ele>
<time>2018-01-10T03:24:13.189Z</time>
</trkpt>
<trkpt lat="-27.3272042" lon="152.9624815">
<ele>35.148</ele>
<time>2018-01-10T03:24:15.989Z</time>
</trkpt>
<trkpt lat="-27.3278327" lon="152.9623606">
<ele>35.045</ele>
<time>2018-01-10T03:24:18.981Z</time>
</trkpt>
<trkpt lat="-27.3283864" lon="152.9621919">
<ele>32.912</ele>
<time>2018-01-10T03:24:21.686Z</time>
</trkpt>
<trkpt lat="-27.3289783" lon="152.9620657">
<ele>28.943</ele>
<time>2018-01-10T03:24:24.514Z</time>
</trkpt>
<trkpt lat="-27.3295630" lon="152.9619646">
<ele>24.590</ele>
<time>2018-01-10T03:24:27.275Z</time>
</trkpt>
<trkpt lat="-27.3301776" lon="152.9618666">
<ele>21.407</ele>
<time>2018-01-10T03:24:30.174Z</time>
</trkpt>
<trkpt lat="-27.3307860" lon="152.9617589">
<ele>20.002</ele>
<time>2018-01-10T03:24:33.056Z</time>
</trkpt>
<trkpt lat="-27.3313837" lon="152.9616720">
<ele>19.689</ele>
<time>2018-01-10T03:24:35.882Z</time>
</trkpt>
<trkpt lat="-27.3317880" lon="152.9615644">
<ele>19.275</ele>
<time>2018-01-10T03:24:37.835Z</time>
</trkpt>
<trkpt lat="-27.3323932" lon="152.9614529">
<ele>18.200</ele>
<time>2018-01-10T03:24:40.737Z</time>
</trkpt>
<trkpt lat="-27.3329933" lon="152.9614237">
<ele>16.877</ele>
<time>2018-01-10T03:24:43.619Z</time>
</trkpt>
<trkpt lat="-27.3335786" lon="152.9614244">
<ele>15.961</ele>
<time>2018-01-10T03:24:46.519Z</time>
</trkpt>
<trkpt lat="-27.3341687" lon="152.9613355">
<ele>15.857</ele>
<time>2018-01-10T03:24:49.614Z</time>
</trkpt>
<trkpt lat="-27.3346914" lon="152.9612300">
<ele>16.698</ele>
<time>2018-01-10T03:24:52.454Z</time>
</trkpt>
<trkpt lat="-27.3351892" lon="152.9611245">
<ele>18.297</ele>
<time>2018-01-10T03:24:55.134Z</time>
</trkpt>
<trkpt lat="-27.3357176" lon="152.9610347">
<ele>20.048</ele>
<time>2018-01-10T03:24:57.920Z</time>
</trkpt>
<trkpt lat="-27.3360823" lon="152.9609596">
<ele>21.263</ele>
<time>2018-01-10T03:24:59.873Z</time>
</trkpt>
<trkpt lat="-27.3364333" lon="152.9608877">
<ele>21.686</ele>
<time>2018-01-10T03:25:01.778Z</time>
</trkpt>
<trkpt lat="-27.3367757" lon="152.9608169">
<ele>21.435</ele>
<time>2018-01-10T03:25:03.651Z</time>
</trkpt>
<trkpt lat="-27.3371099" lon="152.9607625">
<ele>20.788</ele>
<time>2018-01-10T03:25:05.467Z</time>
</trkpt>
<trkpt lat="-27.3374594" lon="152.9607234">
<ele>20.246</ele>
<time>2018-01-10T03:25:07.343Z</time>
</trkpt>
<trkpt lat="-27.3378102" lon="152.9606734">
<ele>20.343</ele>
<time>2018-01-10T03:25:09.212Z</time>
</trkpt>
<trkpt lat="-27.3381510" lon="152.9606143">
<ele>21.362</ele>
<time>2018-01-10T03:25:11.011Z</time>
</trkpt>
<trkpt lat="-27.3385172" lon="152.9605971">
<ele>22.988</ele>
<time>2018-01-10T03:25:12.905Z</time>
</trkpt>
<trkpt lat="-27.3388806" lon="152.9606327">
<ele>24.452</ele>
<time>2018-01-10T03:25:14.777Z</time>
</trkpt>
<trkpt lat="-27.3392378" lon="152.9607867">
<ele>25.302</ele>
<time>2018-01-10T03:25:16.742Z</time>
</trkpt>
<trkpt lat="-27.3395804" lon="152.9609376">
<ele>25.518</ele>
<time>2018-01-10T03:25:18.662Z</time>
</trkpt>
<trkpt lat="-27.3399475" lon="152.9610293">
<ele>25.125</ele>
<time>2018-01-10T03:25:20.648Z</time>
</trkpt>
<trkpt lat="-27.3402743" lon="152.9610340">
<ele>24.281</ele>
<time>2018-01-10T03:25:22.374Z</time>
</trkpt>
<trkpt lat="-27.3406240" lon="152.9610700">
<ele>23.183</ele>
<time>2018-01-10T03:25:24.223Z</time>
</trkpt>
<trkpt lat="-27.3409875" lon="152.9611458">
<ele>21.825</ele>
<time>2018-01-10T03:25:26.174Z</time>
</trkpt>
<trkpt lat="-27.3413409" lon="152.9611788">
<ele>20.176</ele>
<time>2018-01-10T03:25:28.057Z</time>
</trkpt>
<trkpt lat="-27.3416942" lon="152.9612396">
<ele>18.357</ele>
<time>2018-01-10T03:25:29.960Z</time>
</trkpt>
<trkpt lat="-27.3420392" lon="152.9612636">
<ele>16.484</ele>
<time>2018-01-10T03:25:31.797Z</time>
</trkpt>
<trkpt lat="-27.3424244" lon="152.9613114">
<ele>14.447</ele>
<time>2018-01-10T03:25:33.848Z</time>
</trkpt>
<trkpt lat="-27.3427789" lon="152.9613104">
<ele>12.348</ele>
<time>2018-01-10T03:25:35.727Z</time>
</trkpt>
<trkpt lat="-27.3431216" lon="152.9613407">
<ele>10.767</ele>
<time>2018-01-10T03:25:37.552Z</time>
</trkpt>
<trkpt lat="-27.3434703" lon="152.9614005">
<ele>10.007</ele>
<time>2018-01-10T03:25:39.421Z</time>
</trkpt>
<trkpt lat="-27.3437999" lon="152.9615156">
<ele>9.907</ele>
<time>2018-01-10T03:25:41.234Z</time>
</trkpt>
<trkpt lat="-27.3441498" lon="152.9616554">
<ele>10.455</ele>
<time>2018-01-10T03:25:43.179Z</time>
</trkpt>
<trkpt lat="-27.3444540" lon="152.9618514">
<ele>11.566</ele>
<time>2018-01-10T03:25:45.031Z</time>
</trkpt>
<trkpt lat="-27.3447524" lon="152.9620846">
<ele>12.956</ele>
<time>2018-01-10T03:25:47.034Z</time>
</trkpt>
<trkpt lat="-27.3449745" lon="152.9623334">
<ele>14.216</ele>
<time>2018-01-10T03:25:48.918Z</time>
</trkpt>
<trkpt lat="-27.3451693" lon="152.9625557">
<ele>15.171</ele>
<time>2018-01-10T03:25:50.805Z</time>
</trkpt>
<trkpt lat="-27.3453322" lon="152.9627697">
<ele>16.031</ele>
<time>2018-01-10T03:25:52.748Z</time>
</trkpt>
<trkpt lat="-27.3454447" lon="152.9629425">
<ele>16.905</ele>
<time>2018-01-10T03:25:54.493Z</time>
</trkpt>
<trkpt lat="-27.3455283" lon="152.9630842">
<ele>17.727</ele>
<time>2018-01-10T03:25:56.438Z</time>
</trkpt>
<trkpt lat="-27.3455452" lon="152.9632016">
<ele>18.738</ele>
<time>2018-01-10T03:25:58.000Z</time>
</trkpt>
<trkpt lat="-27.3455452" lon="152.9632016">
<ele>19.928</ele>
<time>2018-01-10T03:26:02.000Z</time>
</trkpt>
<trkpt lat="-27.3455452" lon="152.9632016">
<ele>20.655</ele>
<time>2018-01-10T03:27:44.177Z</time>
</trkpt>
<trkpt lat="-27.3457690" lon="152.9632934">
<ele>20.602</ele>
<time>2018-01-10T03:27:49.557Z</time>
</trkpt>
<trkpt lat="-27.3459369" lon="152.9632081">
<ele>20.216</ele>
<time>2018-01-10T03:27:51.548Z</time>
</trkpt>
<trkpt lat="-27.3461062" lon="152.9630325">
<ele>19.948</ele>
<time>2018-01-10T03:27:53.613Z</time>
</trkpt>
<trkpt lat="-27.3462928" lon="152.9628441">
<ele>19.873</ele>
<time>2018-01-10T03:27:55.637Z</time>
</trkpt>
<trkpt lat="-27.3464872" lon="152.9626558">
<ele>19.982</ele>
<time>2018-01-10T03:27:57.635Z</time>
</trkpt>
<trkpt lat="-27.3466857" lon="152.9624692">
<ele>20.328</ele>
<time>2018-01-10T03:27:59.625Z</time>
</trkpt>
<trkpt lat="-27.3468811" lon="152.9622784">
<ele>20.928</ele>
<time>2018-01-10T03:28:01.600Z</time>
</trkpt>
<trkpt lat="-27.3470812" lon="152.9620907">
<ele>21.690</ele>
<time>2018-01-10T03:28:03.579Z</time>
</trkpt>
<trkpt lat="-27.3472852" lon="152.9619066">
<ele>22.466</ele>
<time>2018-01-10T03:28:05.572Z</time>
</trkpt>
<trkpt lat="-27.3474878" lon="152.9617267">
<ele>23.122</ele>
<time>2018-01-10T03:28:07.566Z</time>
</trkpt>
<trkpt lat="-27.3476780" lon="152.9615423">
<ele>23.614</ele>
<time>2018-01-10T03:28:09.541Z</time>
</trkpt>
<trkpt lat="-27.3478295" lon="152.9613206">
<ele>23.972</ele>
<time>2018-01-10T03:28:11.514Z</time>
</trkpt>
<trkpt lat="-27.3479571" lon="152.9610777">
<ele>24.231</ele>
<time>2018-01-10T03:28:13.495Z</time>
</trkpt>
<trkpt lat="-27.3480547" lon="152.9608159">
<ele>24.420</ele>
<time>2018-01-10T03:28:15.467Z</time>
</trkpt>
<trkpt lat="-27.3481185" lon="152.9605368">
<ele>24.554</ele>
<time>2018-01-10T03:28:17.440Z</time>
</trkpt>
<trkpt lat="-27.3481413" lon="152.9602433">
<ele>24.627</ele>
<time>2018-01-10T03:28:19.429Z</time>
</trkpt>
<trkpt lat="-27.3480657" lon="152.9598085">
<ele>24.643</ele>
<time>2018-01-10T03:28:22.419Z</time>
</trkpt>
<trkpt lat="-27.3480151" lon="152.9595303">
<ele>24.591</ele>
<time>2018-01-10T03:28:24.378Z</time>
</trkpt>
<trkpt lat="-27.3479707" lon="152.9592584">
<ele>24.436</ele>
<time>2018-01-10T03:28:26.338Z</time>
</trkpt>
<trkpt lat="-27.3479287" lon="152.9589916">
<ele>24.198</ele>
<time>2018-01-10T03:28:28.297Z</time>
</trkpt>
<trkpt lat="-27.3478896" lon="152.9587241">
<ele>23.966</ele>
<time>2018-01-10T03:28:30.265Z</time>
</trkpt>
<trkpt lat="-27.3478541" lon="152.9584512">
<ele>23.802</ele>
<time>2018-01-10T03:28:32.256Z</time>
</trkpt>
<trkpt lat="-27.3478197" lon="152.9581750">
<ele>23.697</ele>
<time>2018-01-10T03:28:34.246Z</time>
</trkpt>
<trkpt lat="-27.3477998" lon="152.9578905">
<ele>23.616</ele>
<time>2018-01-10T03:28:36.262Z</time>
</trkpt>
<trkpt lat="-27.3478163" lon="152.9576037">
<ele>23.547</ele>
<time>2018-01-10T03:28:38.285Z</time>
</trkpt>
<trkpt lat="-27.3478860" lon="152.9573299">
<ele>23.512</ele>
<time>2018-01-10T03:28:40.278Z</time>
</trkpt>
<trkpt lat="-27.3479956" lon="152.9570702">
<ele>23.540</ele>
<time>2018-01-10T03:28:42.266Z</time>
</trkpt>
<trkpt lat="-27.3481422" lon="152.9568314">
<ele>23.659</ele>
<time>2018-01-10T03:28:44.253Z</time>
</trkpt>
<trkpt lat="-27.3483153" lon="152.9566145">
<ele>23.879</ele>
<time>2018-01-10T03:28:46.232Z</time>
</trkpt>
<trkpt lat="-27.3485014" lon="152.9564058">
<ele>24.171</ele>
<time>2018-01-10T03:28:48.218Z</time>
</trkpt>
<trkpt lat="-27.3486887" lon="152.9561957">
<ele>24.481</ele>
<time>2018-01-10T03:28:50.196Z</time>
</trkpt>
<trkpt lat="-27.3488741" lon="152.9559786">
<ele>24.770</ele>
<time>2018-01-10T03:28:52.185Z</time>
</trkpt>
<trkpt lat="-27.3490746" lon="152.9557781">
<ele>25.032</ele>
<time>2018-01-10T03:28:54.171Z</time>
</trkpt>
<trkpt lat="-27.3493125" lon="152.9556283">
<ele>25.281</ele>
<time>2018-01-10T03:28:56.170Z</time>
</trkpt>
<trkpt lat="-27.3495669" lon="152.9555120">
<ele>25.519</ele>
<time>2018-01-10T03:28:58.189Z</time>
</trkpt>
<trkpt lat="-27.3498106" lon="152.9554093">
<ele>25.758</ele>
<time>2018-01-10T03:29:00.161Z</time>
</trkpt>
<trkpt lat="-27.3500445" lon="152.9553144">
<ele>26.036</ele>
<time>2018-01-10T03:29:02.096Z</time>
</trkpt>
<trkpt lat="-27.3502804" lon="152.9552163">
<ele>26.359</ele>
<time>2018-01-10T03:29:04.071Z</time>
</trkpt>
<trkpt lat="-27.3505161" lon="152.9551150">
<ele>26.671</ele>
<time>2018-01-10T03:29:06.051Z</time>
</trkpt>
<trkpt lat="-27.3507551" lon="152.9550294">
<ele>26.947</ele>
<time>2018-01-10T03:29:08.017Z</time>
</trkpt>
<trkpt lat="-27.3509915" lon="152.9549318">
<ele>27.241</ele>
<time>2018-01-10T03:29:09.985Z</time>
</trkpt>
<trkpt lat="-27.3512363" lon="152.9548434">
<ele>27.595</ele>
<time>2018-01-10T03:29:11.966Z</time>
</trkpt>
<trkpt lat="-27.3514891" lon="152.9547549">
<ele>27.977</ele>
<time>2018-01-10T03:29:13.961Z</time>
</trkpt>
<trkpt lat="-27.3517475" lon="152.9546606">
<ele>28.301</ele>
<time>2018-01-10T03:29:15.965Z</time>
</trkpt>
<trkpt lat="-27.3520088" lon="152.9545726">
<ele>28.518</ele>
<time>2018-01-10T03:29:17.964Z</time>
</trkpt>
<trkpt lat="-27.3522613" lon="152.9544767">
<ele>28.656</ele>
<time>2018-01-10T03:29:19.948Z</time>
</trkpt>
<trkpt lat="-27.3525035" lon="152.9543837">
<ele>28.777</ele>
<time>2018-01-10T03:29:21.924Z</time>
</trkpt>
<trkpt lat="-27.3527388" lon="152.9543151">
<ele>28.938</ele>
<time>2018-01-10T03:29:23.924Z</time>
</trkpt>
<trkpt lat="-27.3529488" lon="152.9542603">
<ele>29.173</ele>
<time>2018-01-10T03:29:25.774Z</time>
</trkpt>
<trkpt lat="-27.3531799" lon="152.9542588">
<ele>29.476</ele>
<time>2018-01-10T03:29:27.702Z</time>
</trkpt>
<trkpt lat="-27.3534440" lon="152.9542758">
<ele>29.818</ele>
<time>2018-01-10T03:29:29.766Z</time>
</trkpt>
<trkpt lat="-27.3537052" lon="152.9543407">
<ele>30.172</ele>
<time>2018-01-10T03:29:31.777Z</time>
</trkpt>
<trkpt lat="-27.3539556" lon="152.9544644">
<ele>30.502</ele>
<time>2018-01-10T03:29:33.802Z</time>
</trkpt>
<trkpt lat="-27.3541937" lon="152.9546161">
<ele>30.760</ele>
<time>2018-01-10T03:29:35.816Z</time>
</trkpt>
<trkpt lat="-27.3543992" lon="152.9548137">
<ele>30.937</ele>
<time>2018-01-10T03:29:37.840Z</time>
</trkpt>
<trkpt lat="-27.3545697" lon="152.9550155">
<ele>31.105</ele>
<time>2018-01-10T03:29:39.805Z</time>
</trkpt>
<trkpt lat="-27.3547013" lon="152.9552309">
<ele>31.323</ele>
<time>2018-01-10T03:29:41.754Z</time>
</trkpt>
<trkpt lat="-27.3548104" lon="152.9554694">
<ele>31.539</ele>
<time>2018-01-10T03:29:43.755Z</time>
</trkpt>
<trkpt lat="-27.3548886" lon="152.9557465">
<ele>31.652</ele>
<time>2018-01-10T03:29:45.831Z</time>
</trkpt>
<trkpt lat="-27.3549318" lon="152.9560434">
<ele>31.606</ele>
<time>2018-01-10T03:29:47.897Z</time>
</trkpt>
<trkpt lat="-27.3549503" lon="152.9563373">
<ele>31.453</ele>
<time>2018-01-10T03:29:49.919Z</time>
</trkpt>
<trkpt lat="-27.3549622" lon="152.9566164">
<ele>31.340</ele>
<time>2018-01-10T03:29:51.920Z</time>
</trkpt>
<trkpt lat="-27.3548953" lon="152.9568778">
<ele>31.355</ele>
<time>2018-01-10T03:29:54.079Z</time>
</trkpt>
<trkpt lat="-27.3548869" lon="152.9570701">
<ele>31.474</ele>
<time>2018-01-10T03:29:55.905Z</time>
</trkpt>
<trkpt lat="-27.3548426" lon="152.9572223">
<ele>31.649</ele>
<time>2018-01-10T03:29:57.796Z</time>
</trkpt>
<trkpt lat="-27.3548965" lon="152.9573413">
<ele>31.817</ele>
<time>2018-01-10T03:29:59.765Z</time>
</trkpt>
<trkpt lat="-27.3550203" lon="152.9573437">
<ele>31.897</ele>
<time>2018-01-10T03:30:01.796Z</time>
</trkpt>
<trkpt lat="-27.3551951" lon="152.9573009">
<ele>31.817</ele>
<time>2018-01-10T03:30:03.926Z</time>
</trkpt>
<trkpt lat="-27.3554294" lon="152.9572798">
<ele>31.537</ele>
<time>2018-01-10T03:30:06.100Z</time>
</trkpt>
<trkpt lat="-27.3556648" lon="152.9572293">
<ele>31.108</ele>
<time>2018-01-10T03:30:08.161Z</time>
</trkpt>
<trkpt lat="-27.3558836" lon="152.9571707">
<ele>30.645</ele>
<time>2018-01-10T03:30:10.125Z</time>
</trkpt>
<trkpt lat="-27.3560790" lon="152.9570437">
<ele>30.205</ele>
<time>2018-01-10T03:30:12.126Z</time>
</trkpt>
<trkpt lat="-27.3562715" lon="152.9569162">
<ele>29.768</ele>
<time>2018-01-10T03:30:14.165Z</time>
</trkpt>
<trkpt lat="-27.3564350" lon="152.9567904">
<ele>29.334</ele>
<time>2018-01-10T03:30:16.142Z</time>
</trkpt>
<trkpt lat="-27.3565683" lon="152.9566801">
<ele>28.942</ele>
<time>2018-01-10T03:30:18.109Z</time>
</trkpt>
<trkpt lat="-27.3566637" lon="152.9566076">
<ele>28.621</ele>
<time>2018-01-10T03:30:19.973Z</time>
</trkpt>
<trkpt lat="-27.3567468" lon="152.9565464">
<ele>28.360</ele>
<time>2018-01-10T03:30:22.000Z</time>
</trkpt>
<trkpt lat="-27.3567468" lon="152.9565464">
<ele>28.153</ele>
<time>2018-01-10T03:30:25.000Z</time>
</trkpt>
</trkseg>
</trk>
<extensions>
<fpdata xmlns="http://www.motionx.com/GPX-Extensions/1/1" sfv="10" origin="MotionXGPSFull 24.2 Build 5063R64">
<bin enc="base64">
RgIAAAACAAAAFOgklk+V1kEBAAAA7lsYQmKV1kGgGlDodFPRQAEXAABT3KEBzoN0kyYA
QUBLYtsMNSc8QAAAAAAgAAAAQnJ1Y2UgQnlwYXNzIHRvIEdsYXNzaG91c2UgQ2FmZQAV
AAAAMTAgSmFuIDIwMTggIDg6MTIgYW0AAAAAACBcGEJildZB1vsuTWKV1kHnoBABUc7C
ZxcemEAsAAAAAgAAAOubZgsKH2NAeM5UBb5bO8DOg3STJgBBQAAAAAAAABhAAAAAAAAA
CEAAAAAAAOKrQAAAAAAAAAAAAAAAAJqZmZmZGSZAKAAzXfeePEABAAAAcc2/RkqEfb8B
AAAAAQAAAD9TBaGngLo/AuAO0FJWxb8BAAAAAQAAAAEAAADOg3STJgBBQAAAAAAAAAAA
AAAAAAAAAAAAAAAAAAAAAAAAAAAMAAAAAAAAAAAAAAAAAAAAIA9ANGKV1kEAAAAAAAAA
AAAAAAAAAAAA/yVEvAIAAAAAAAAAAAAAAAEAAAAnAAAAMjQuMiBCdWlsZCA1MDYzUjY0
LCBNWEFFIDguMSBiLiA2MjZSNjQAAAAAANVdAAABAAAAAScAAABYPlVa0YhVWgRG6SSW
T5XWQUbpJJZPldZBAAAAAADgEj8AAAAAAiHoJJZPldZBRKbMkVCV1kEAAGDE93SPQAAA
AAAC/+rMklCV1kEYeQydUJXWQQAAwMN0XpBAAAAAAALOxg+0UJXWQXO7zNhQldZBAAAQ
DkSqkkAAAAAAArznDOJQldZBmn2LrlGV1kEAAPBrLXKfQAAAAAACrFWPr1GV1kFm/ExN
UpXWQQAAyOsDp6RAAAAAAALyPg9SUpXWQY4gzF9TldZBAACo+OoUrUAAAAAAAkxND2JT
ldZBVpsL5lOV1kEAAHy0ZpqwQAAAAAAC4sfN6VOV1kHKMAxGVJXWQQAAHFhgC7JAAAAA
AAL20A5HVJXWQYo8jPFUldZBAABsBla1tEAAAAAAAqJ7DvVUldZB6X1LhFWV1kEAAIgP
SvK2QAAAAAACtmhPjFWV1kF1WcvhVZXWQQAAhNI5SLhAAAAAAALedM7iVZXWQV5MS8dW
ldZBAACEMC3au0AAAAAAAoYCTshWldZBN4qLNleV1kEAAEhPI5O9QAAAAAACOKMOOFeV
1kGZK0vdV5XWQQAAZrgKFMBAAAAAAAMYWUskWJXWQRhZSyRYldZBAABmuAoUwEAAAAAA
BBObzD9YldZBE5vMP1iV1kEAAGa4ChTAQAAAAAAD3BALYliV1kHcEAtiWJXWQT81d55N
WcBAAAAAAAQK+UaeWJXWQQr5Rp5YldZBPzWfbsXRwEAAAAAAA2itirFYldZBaK2KsViV
1kE/NW7XTPjAQAAAAAAEMnRMuliV1kEydEy6WJXWQT81GmXQCcFAAAAAAAOQLky7WJXW
QZAuTLtYldZBPzXO2c8LwUAAAAAABLXDzM1YldZBtcPMzViV1kE/NSAE0TDBQAAAAAAD
Kq0L01iV1kEqrQvTWJXWQT81EtdOO8FAAAAAAATA68tDWZXWQcDry0NZldZBPzUdVM8c
wkAAAAAAA6z/yEZZldZBrP/IRlmV1kE/NRd8ySLCQAAAAAAEBkbOcVmV1kEGRs5xWZXW
QT81wwjUeMJAAAAAAAIge84/WJXWQSx9R3taldZBPzXcdsaLxEAAAAAAAvSqTX9aldZB
FLHM2V2V1kE/NRyDxEDLQAAAAAACshUKLl6V1kFMiUxTXpXWQT81UGpJi8tAAAAAAAIm
ww5nXpXWQbppzPpeldZBPzV4t8SyzEAAAAAAAq4nz/1eldZBqtRMwl+V1kE/NXARwDvO
QAAAAAACxhifx1+V1kGOCI0YYZXWQaAagPjNbtBAAAAAAALSAZEdYZXWQYxsz0hhldZB
oBo6Ywya0EAAAAAAAjIaUk5hldZBxqGMg2GV1kGgGs7qRs/QQAAAAAAC+FVRhWGV1kHu
ts2SYZXWQaAaxEvD3NBAAAAAAAJmMJKUYZXWQaj8zLNhldZBoBoGGP770EAAAAAAAlQf
UcJhldZBEJiN8mGV1kGgGsKQOizRQAAAAAACUtISDWKV1kHgKU00YpXWQaAaUOh0U9FA
AAAAAAAAAAA=
</bin>
</fpdata>
</extensions>
</gpx>